<?xml version='1.0' encoding='UTF-8'?><gpx version="1.1" creator="JPX - https://github.com/jenetics/jpx" xmlns="http://www.topografix.com/GPX/1/1"><trk><trkseg><trkpt lat="44.9819267" lon="9.73007"><ele>81.0</ele><time>2026-03-29T13:00:20.656Z</time></trkpt><trkpt lat="44.98199" lon="9.7300717"><ele>81.0</ele><time>2026-03-29T13:00:22.656Z</time></trkpt><trkpt lat="44.982065" lon="9.7300583"><ele>81.0</ele><time>2026-03-29T13:00:30.654Z</time></trkpt><trkpt lat="44.98211" lon="9.7299717"><ele>81.0</ele><time>2026-03-29T13:00:32.656Z</time></trkpt><trkpt lat="44.9821383" lon="9.7297983"><ele>81.0</ele><time>2026-03-29T13:00:34.655Z</time></trkpt><trkpt lat="44.9821517" lon="9.72969"><ele>81.0</ele><time>2026-03-29T13:00:35.656Z</time></trkpt><trkpt lat="44.9821633" lon="9.7295767"><ele>81.0</ele><time>2026-03-29T13:00:36.656Z</time></trkpt><trkpt lat="44.9821767" lon="9.729455"><ele>81.0</ele><time>2026-03-29T13:00:37.656Z</time></trkpt><trkpt lat="44.9821917" lon="9.72932"><ele>81.0</ele><time>2026-03-29T13:00:38.655Z</time></trkpt><trkpt lat="44.9822083" lon="9.729185"><ele>81.0</ele><time>2026-03-29T13:00:39.655Z</time></trkpt><trkpt lat="44.9822233" lon="9.7290517"><ele>81.0</ele><time>2026-03-29T13:00:40.66Z</time></trkpt><trkpt lat="44.9822383" lon="9.7289183"><ele>81.6</ele><time>2026-03-29T13:00:41.654Z</time></trkpt><trkpt lat="44.9822567" lon="9.7287833"><ele>82.19999999999999</ele><time>2026-03-29T13:00:42.654Z</time></trkpt><trkpt lat="44.982275" lon="9.7286383"><ele>82.80000000000001</ele><time>2026-03-29T13:00:43.654Z</time></trkpt><trkpt lat="44.9822933" lon="9.7284833"><ele>83.4</ele><time>2026-03-29T13:00:44.654Z</time></trkpt><trkpt lat="44.982315" lon="9.7283167"><ele>84.0</ele><time>2026-03-29T13:00:45.652Z</time></trkpt><trkpt lat="44.98234" lon="9.7281433"><ele>84.25</ele><time>2026-03-29T13:00:46.653Z</time></trkpt><trkpt lat="44.9823633" lon="9.727965"><ele>84.5</ele><time>2026-03-29T13:00:47.654Z</time></trkpt><trkpt lat="44.982385" lon="9.7277833"><ele>84.75</ele><time>2026-03-29T13:00:48.656Z</time></trkpt><trkpt lat="44.9824067" lon="9.727595"><ele>85.0</ele><time>2026-03-29T13:00:49.654Z</time></trkpt><trkpt lat="44.9824317" lon="9.727405"><ele>85.0</ele><time>2026-03-29T13:00:50.655Z</time></trkpt><trkpt lat="44.9824583" lon="9.72721"><ele>85.0</ele><time>2026-03-29T13:00:51.653Z</time></trkpt><trkpt lat="44.9824833" lon="9.7270117"><ele>85.0</ele><time>2026-03-29T13:00:52.654Z</time></trkpt><trkpt lat="44.982505" lon="9.7268167"><ele>85.0</ele><time>2026-03-29T13:00:53.654Z</time></trkpt><trkpt lat="44.98253" lon="9.7266233"><ele>85.0</ele><time>2026-03-29T13:00:54.653Z</time></trkpt><trkpt lat="44.9825517" lon="9.72643"><ele>85.0</ele><time>2026-03-29T13:00:55.653Z</time></trkpt><trkpt lat="44.9825733" lon="9.7262367"><ele>85.0</ele><time>2026-03-29T13:00:56.654Z</time></trkpt><trkpt lat="44.9825967" lon="9.72604"><ele>85.0</ele><time>2026-03-29T13:00:57.653Z</time></trkpt><trkpt lat="44.98262" lon="9.7258417"><ele>85.0</ele><time>2026-03-29T13:00:58.654Z</time></trkpt><trkpt lat="44.9826433" lon="9.7256383"><ele>85.0</ele><time>2026-03-29T13:00:59.654Z</time></trkpt><trkpt lat="44.9826667" lon="9.7254317"><ele>85.0</ele><time>2026-03-29T13:01:00.654Z</time></trkpt><trkpt lat="44.9826917" lon="9.7252217"><ele>85.0</ele><time>2026-03-29T13:01:01.654Z</time></trkpt><trkpt lat="44.9827183" lon="9.7250083"><ele>85.0</ele><time>2026-03-29T13:01:02.653Z</time></trkpt><trkpt lat="44.9827433" lon="9.7247933"><ele>85.0</ele><time>2026-03-29T13:01:03.653Z</time></trkpt><trkpt lat="44.98277" lon="9.7245767"><ele>85.0</ele><time>2026-03-29T13:01:04.653Z</time></trkpt><trkpt lat="44.9827967" lon="9.7243533"><ele>85.0</ele><time>2026-03-29T13:01:05.653Z</time></trkpt><trkpt lat="44.982825" lon="9.72413"><ele>85.0</ele><time>2026-03-29T13:01:06.653Z</time></trkpt><trkpt lat="44.9828533" lon="9.723905"><ele>85.0</ele><time>2026-03-29T13:01:07.655Z</time></trkpt><trkpt lat="44.9828783" lon="9.723675"><ele>85.0</ele><time>2026-03-29T13:01:08.655Z</time></trkpt><trkpt lat="44.9829083" lon="9.7234433"><ele>85.0</ele><time>2026-03-29T13:01:09.655Z</time></trkpt><trkpt lat="44.9829333" lon="9.7232083"><ele>85.0</ele><time>2026-03-29T13:01:10.654Z</time></trkpt><trkpt lat="44.98296" lon="9.7229733"><ele>85.0</ele><time>2026-03-29T13:01:11.655Z</time></trkpt><trkpt lat="44.9829867" lon="9.7227383"><ele>85.0</ele><time>2026-03-29T13:01:12.655Z</time></trkpt><trkpt lat="44.983015" lon="9.7225017"><ele>85.0</ele><time>2026-03-29T13:01:13.655Z</time></trkpt><trkpt lat="44.9830433" lon="9.7222633"><ele>85.33333333333333</ele><time>2026-03-29T13:01:14.655Z</time></trkpt><trkpt lat="44.983075" lon="9.7220233"><ele>85.66666666666667</ele><time>2026-03-29T13:01:15.654Z</time></trkpt><trkpt lat="44.9831067" lon="9.7217783"><ele>86.0</ele><time>2026-03-29T13:01:16.654Z</time></trkpt><trkpt lat="44.9831383" lon="9.7215233"><ele>86.33333333333334</ele><time>2026-03-29T13:01:17.653Z</time></trkpt><trkpt lat="44.9831733" lon="9.7212633"><ele>86.66666666666667</ele><time>2026-03-29T13:01:18.654Z</time></trkpt><trkpt lat="44.98321" lon="9.7209967"><ele>87.0</ele><time>2026-03-29T13:01:19.654Z</time></trkpt><trkpt lat="44.983245" lon="9.7207233"><ele>86.33333333333333</ele><time>2026-03-29T13:01:20.655Z</time></trkpt><trkpt lat="44.98328" lon="9.7204433"><ele>85.66666666666666</ele><time>2026-03-29T13:01:21.654Z</time></trkpt><trkpt lat="44.983315" lon="9.720155"><ele>85.0</ele><time>2026-03-29T13:01:22.655Z</time></trkpt><trkpt lat="44.9833517" lon="9.7198667"><ele>84.33333333333333</ele><time>2026-03-29T13:01:23.654Z</time></trkpt><trkpt lat="44.9833883" lon="9.7195783"><ele>83.66666666666667</ele><time>2026-03-29T13:01:24.654Z</time></trkpt><trkpt lat="44.983425" lon="9.7193"><ele>83.0</ele><time>2026-03-29T13:01:25.654Z</time></trkpt><trkpt lat="44.9834583" lon="9.7190333"><ele>82.33333333333334</ele><time>2026-03-29T13:01:26.654Z</time></trkpt><trkpt lat="44.98349" lon="9.71877"><ele>81.66666666666667</ele><time>2026-03-29T13:01:27.653Z</time></trkpt><trkpt lat="44.9835217" lon="9.7185017"><ele>81.0</ele><time>2026-03-29T13:01:28.654Z</time></trkpt><trkpt lat="44.9835517" lon="9.71823"><ele>81.0</ele><time>2026-03-29T13:01:29.654Z</time></trkpt><trkpt lat="44.9835833" lon="9.7179567"><ele>81.0</ele><time>2026-03-29T13:01:30.654Z</time></trkpt><trkpt lat="44.9836167" lon="9.7176833"><ele>81.0</ele><time>2026-03-29T13:01:31.654Z</time></trkpt><trkpt lat="44.98365" lon="9.717415"><ele>81.0</ele><time>2026-03-29T13:01:32.655Z</time></trkpt><trkpt lat="44.983685" lon="9.71715"><ele>81.0</ele><time>2026-03-29T13:01:33.654Z</time></trkpt><trkpt lat="44.9837167" lon="9.716885"><ele>81.0</ele><time>2026-03-29T13:01:34.653Z</time></trkpt><trkpt lat="44.9837483" lon="9.7166233"><ele>81.66666666666667</ele><time>2026-03-29T13:01:35.653Z</time></trkpt><trkpt lat="44.9837783" lon="9.7163683"><ele>82.33333333333334</ele><time>2026-03-29T13:01:36.653Z</time></trkpt><trkpt lat="44.9838083" lon="9.7161233"><ele>83.0</ele><time>2026-03-29T13:01:37.655Z</time></trkpt><trkpt lat="44.9838383" lon="9.7158867"><ele>83.0</ele><time>2026-03-29T13:01:38.656Z</time></trkpt><trkpt lat="44.9838683" lon="9.7156533"><ele>83.0</ele><time>2026-03-29T13:01:39.654Z</time></trkpt><trkpt lat="44.9838983" lon="9.7154233"><ele>83.0</ele><time>2026-03-29T13:01:40.653Z</time></trkpt><trkpt lat="44.983925" lon="9.7152033"><ele>83.0</ele><time>2026-03-29T13:01:41.654Z</time></trkpt><trkpt lat="44.98395" lon="9.7150033"><ele>83.0</ele><time>2026-03-29T13:01:42.654Z</time></trkpt><trkpt lat="44.9839683" lon="9.71482"><ele>83.0</ele><time>2026-03-29T13:01:43.653Z</time></trkpt><trkpt lat="44.9839817" lon="9.7146583"><ele>83.0</ele><time>2026-03-29T13:01:44.654Z</time></trkpt><trkpt lat="44.983985" lon="9.7145167"><ele>83.16666666666667</ele><time>2026-03-29T13:01:45.654Z</time></trkpt><trkpt lat="44.9839717" lon="9.7143983"><ele>83.33333333333334</ele><time>2026-03-29T13:01:46.654Z</time></trkpt><trkpt lat="44.9839417" lon="9.7143017"><ele>83.5</ele><time>2026-03-29T13:01:47.654Z</time></trkpt><trkpt lat="44.9838967" lon="9.7142383"><ele>83.66666666666667</ele><time>2026-03-29T13:01:48.654Z</time></trkpt><trkpt lat="44.98383" lon="9.7142133"><ele>83.83333333333333</ele><time>2026-03-29T13:01:49.653Z</time></trkpt><trkpt lat="44.98374" lon="9.714225"><ele>84.0</ele><time>2026-03-29T13:01:50.654Z</time></trkpt><trkpt lat="44.9836217" lon="9.7142617"><ele>84.0</ele><time>2026-03-29T13:01:51.654Z</time></trkpt><trkpt lat="44.9834767" lon="9.714305"><ele>84.0</ele><time>2026-03-29T13:01:52.653Z</time></trkpt><trkpt lat="44.9833333" lon="9.7143383"><ele>84.0</ele><time>2026-03-29T13:01:53.654Z</time></trkpt><trkpt lat="44.98319" lon="9.7143733"><ele>84.0</ele><time>2026-03-29T13:01:54.654Z</time></trkpt><trkpt lat="44.9830467" lon="9.7144083"><ele>84.0</ele><time>2026-03-29T13:01:55.655Z</time></trkpt><trkpt lat="44.9828967" lon="9.7144483"><ele>84.0</ele><time>2026-03-29T13:01:56.654Z</time></trkpt><trkpt lat="44.9827417" lon="9.7144883"><ele>84.0</ele><time>2026-03-29T13:01:57.653Z</time></trkpt><trkpt lat="44.9825833" lon="9.7145283"><ele>84.66666666666667</ele><time>2026-03-29T13:01:58.654Z</time></trkpt><trkpt lat="44.9824217" lon="9.71457"><ele>85.33333333333334</ele><time>2026-03-29T13:01:59.654Z</time></trkpt><trkpt lat="44.9822633" lon="9.71461"><ele>86.0</ele><time>2026-03-29T13:02:00.654Z</time></trkpt><trkpt lat="44.9821033" lon="9.714645"><ele>86.0</ele><time>2026-03-29T13:02:01.653Z</time></trkpt><trkpt lat="44.9819417" lon="9.7146817"><ele>86.0</ele><time>2026-03-29T13:02:02.655Z</time></trkpt><trkpt lat="44.9817783" lon="9.71472"><ele>86.0</ele><time>2026-03-29T13:02:03.654Z</time></trkpt><trkpt lat="44.9816117" lon="9.7147583"><ele>86.33333333333334</ele><time>2026-03-29T13:02:04.654Z</time></trkpt><trkpt lat="44.9814417" lon="9.7148"><ele>86.66666666666667</ele><time>2026-03-29T13:02:05.654Z</time></trkpt><trkpt lat="44.9812733" lon="9.7148417"><ele>87.0</ele><time>2026-03-29T13:02:06.654Z</time></trkpt><trkpt lat="44.9811033" lon="9.7148867"><ele>87.0</ele><time>2026-03-29T13:02:07.654Z</time></trkpt><trkpt lat="44.98093" lon="9.7149283"><ele>87.0</ele><time>2026-03-29T13:02:08.654Z</time></trkpt><trkpt lat="44.980755" lon="9.7149733"><ele>87.0</ele><time>2026-03-29T13:02:09.654Z</time></trkpt><trkpt lat="44.9805783" lon="9.7150167"><ele>87.33333333333333</ele><time>2026-03-29T13:02:10.653Z</time></trkpt><trkpt lat="44.9804" lon="9.7150583"><ele>87.66666666666666</ele><time>2026-03-29T13:02:11.654Z</time></trkpt><trkpt lat="44.98022" lon="9.7151"><ele>88.0</ele><time>2026-03-29T13:02:12.654Z</time></trkpt><trkpt lat="44.9800367" lon="9.7151417"><ele>88.0</ele><time>2026-03-29T13:02:13.654Z</time></trkpt><trkpt lat="44.97985" lon="9.715185"><ele>88.0</ele><time>2026-03-29T13:02:14.654Z</time></trkpt><trkpt lat="44.9796617" lon="9.71523"><ele>88.0</ele><time>2026-03-29T13:02:15.654Z</time></trkpt><trkpt lat="44.97948" lon="9.7152717"><ele>88.0</ele><time>2026-03-29T13:02:16.654Z</time></trkpt><trkpt lat="44.9793" lon="9.715315"><ele>88.0</ele><time>2026-03-29T13:02:17.654Z</time></trkpt><trkpt lat="44.97912" lon="9.715355"><ele>88.0</ele><time>2026-03-29T13:02:18.653Z</time></trkpt><trkpt lat="44.9789383" lon="9.715395"><ele>88.33333333333333</ele><time>2026-03-29T13:02:19.653Z</time></trkpt><trkpt lat="44.9787533" lon="9.7154333"><ele>88.66666666666667</ele><time>2026-03-29T13:02:20.653Z</time></trkpt><trkpt lat="44.9785683" lon="9.7154767"><ele>89.0</ele><time>2026-03-29T13:02:21.654Z</time></trkpt><trkpt lat="44.978385" lon="9.7155183"><ele>89.33333333333334</ele><time>2026-03-29T13:02:22.654Z</time></trkpt><trkpt lat="44.9782033" lon="9.71556"><ele>89.66666666666667</ele><time>2026-03-29T13:02:23.654Z</time></trkpt><trkpt lat="44.9780217" lon="9.7156"><ele>90.0</ele><time>2026-03-29T13:02:24.653Z</time></trkpt><trkpt lat="44.9778417" lon="9.71564"><ele>90.0</ele><time>2026-03-29T13:02:25.654Z</time></trkpt><trkpt lat="44.9776617" lon="9.7156833"><ele>90.0</ele><time>2026-03-29T13:02:26.653Z</time></trkpt><trkpt lat="44.97748" lon="9.715725"><ele>90.0</ele><time>2026-03-29T13:02:27.654Z</time></trkpt><trkpt lat="44.9773" lon="9.715765"><ele>90.33333333333333</ele><time>2026-03-29T13:02:28.653Z</time></trkpt><trkpt lat="44.97712" lon="9.7158033"><ele>90.66666666666666</ele><time>2026-03-29T13:02:29.654Z</time></trkpt><trkpt lat="44.9769383" lon="9.7158433"><ele>91.0</ele><time>2026-03-29T13:02:30.653Z</time></trkpt><trkpt lat="44.9767583" lon="9.71588"><ele>91.66666666666666</ele><time>2026-03-29T13:02:31.654Z</time></trkpt><trkpt lat="44.97658" lon="9.7159217"><ele>92.33333333333333</ele><time>2026-03-29T13:02:32.654Z</time></trkpt><trkpt lat="44.9764017" lon="9.7159633"><ele>93.0</ele><time>2026-03-29T13:02:33.653Z</time></trkpt><trkpt lat="44.976225" lon="9.7160067"><ele>93.0</ele><time>2026-03-29T13:02:34.654Z</time></trkpt><trkpt lat="44.9760483" lon="9.7160467"><ele>93.0</ele><time>2026-03-29T13:02:35.654Z</time></trkpt><trkpt lat="44.9758733" lon="9.7160917"><ele>93.0</ele><time>2026-03-29T13:02:36.653Z</time></trkpt><trkpt lat="44.9756983" lon="9.7161333"><ele>92.66666666666667</ele><time>2026-03-29T13:02:37.654Z</time></trkpt><trkpt lat="44.9755183" lon="9.7161767"><ele>92.33333333333334</ele><time>2026-03-29T13:02:38.653Z</time></trkpt><trkpt lat="44.9753383" lon="9.7162183"><ele>92.0</ele><time>2026-03-29T13:02:39.653Z</time></trkpt><trkpt lat="44.9751567" lon="9.7162617"><ele>92.66666666666667</ele><time>2026-03-29T13:02:40.654Z</time></trkpt><trkpt lat="44.9749733" lon="9.716305"><ele>93.33333333333333</ele><time>2026-03-29T13:02:41.654Z</time></trkpt><trkpt lat="44.97479" lon="9.7163483"><ele>94.0</ele><time>2026-03-29T13:02:42.654Z</time></trkpt><trkpt lat="44.97461" lon="9.7163917"><ele>94.0</ele><time>2026-03-29T13:02:43.652Z</time></trkpt><trkpt lat="44.974435" lon="9.716435"><ele>94.0</ele><time>2026-03-29T13:02:44.654Z</time></trkpt><trkpt lat="44.97426" lon="9.7164767"><ele>94.0</ele><time>2026-03-29T13:02:45.653Z</time></trkpt><trkpt lat="44.974085" lon="9.7165217"><ele>93.33333333333333</ele><time>2026-03-29T13:02:46.654Z</time></trkpt><trkpt lat="44.97391" lon="9.7165683"><ele>92.66666666666667</ele><time>2026-03-29T13:02:47.653Z</time></trkpt><trkpt lat="44.973735" lon="9.716615"><ele>92.0</ele><time>2026-03-29T13:02:48.654Z</time></trkpt><trkpt lat="44.9735583" lon="9.71666"><ele>92.0</ele><time>2026-03-29T13:02:49.654Z</time></trkpt><trkpt lat="44.9733883" lon="9.7167017"><ele>92.0</ele><time>2026-03-29T13:02:50.654Z</time></trkpt><trkpt lat="44.9732267" lon="9.71674"><ele>92.0</ele><time>2026-03-29T13:02:51.654Z</time></trkpt><trkpt lat="44.9730683" lon="9.7167783"><ele>92.0</ele><time>2026-03-29T13:02:52.654Z</time></trkpt><trkpt lat="44.9729067" lon="9.7168183"><ele>92.0</ele><time>2026-03-29T13:02:53.653Z</time></trkpt><trkpt lat="44.97274" lon="9.7168617"><ele>92.0</ele><time>2026-03-29T13:02:54.654Z</time></trkpt><trkpt lat="44.97257" lon="9.716905"><ele>92.66666666666667</ele><time>2026-03-29T13:02:55.654Z</time></trkpt><trkpt lat="44.9723933" lon="9.7169483"><ele>93.33333333333333</ele><time>2026-03-29T13:02:56.655Z</time></trkpt><trkpt lat="44.9722133" lon="9.7169917"><ele>94.0</ele><time>2026-03-29T13:02:57.654Z</time></trkpt><trkpt lat="44.97203" lon="9.717035"><ele>94.0</ele><time>2026-03-29T13:02:58.654Z</time></trkpt><trkpt lat="44.971845" lon="9.7170717"><ele>94.0</ele><time>2026-03-29T13:02:59.654Z</time></trkpt><trkpt lat="44.9716617" lon="9.7171017"><ele>94.0</ele><time>2026-03-29T13:03:00.653Z</time></trkpt><trkpt lat="44.97148" lon="9.7171233"><ele>94.33333333333333</ele><time>2026-03-29T13:03:01.654Z</time></trkpt><trkpt lat="44.9712983" lon="9.7171417"><ele>94.66666666666667</ele><time>2026-03-29T13:03:02.654Z</time></trkpt><trkpt lat="44.9711167" lon="9.71716"><ele>95.0</ele><time>2026-03-29T13:03:03.654Z</time></trkpt><trkpt lat="44.9709383" lon="9.71718"><ele>95.66666666666667</ele><time>2026-03-29T13:03:04.653Z</time></trkpt><trkpt lat="44.97076" lon="9.7171983"><ele>96.33333333333334</ele><time>2026-03-29T13:03:05.654Z</time></trkpt><trkpt lat="44.9705833" lon="9.7172183"><ele>97.0</ele><time>2026-03-29T13:03:06.655Z</time></trkpt><trkpt lat="44.9704067" lon="9.71724"><ele>97.0</ele><time>2026-03-29T13:03:07.653Z</time></trkpt><trkpt lat="44.9702333" lon="9.7172617"><ele>97.0</ele><time>2026-03-29T13:03:08.655Z</time></trkpt><trkpt lat="44.9700583" lon="9.7172817"><ele>97.0</ele><time>2026-03-29T13:03:09.654Z</time></trkpt><trkpt lat="44.969885" lon="9.7173017"><ele>96.0</ele><time>2026-03-29T13:03:10.653Z</time></trkpt><trkpt lat="44.96971" lon="9.717325"><ele>95.0</ele><time>2026-03-29T13:03:11.654Z</time></trkpt><trkpt lat="44.9695367" lon="9.71735"><ele>94.0</ele><time>2026-03-29T13:03:12.654Z</time></trkpt><trkpt lat="44.9693633" lon="9.717385"><ele>95.0</ele><time>2026-03-29T13:03:13.654Z</time></trkpt><trkpt lat="44.96919" lon="9.7174233"><ele>96.0</ele><time>2026-03-29T13:03:14.655Z</time></trkpt><trkpt lat="44.9690117" lon="9.71747"><ele>97.0</ele><time>2026-03-29T13:03:15.654Z</time></trkpt><trkpt lat="44.9688333" lon="9.7175217"><ele>97.0</ele><time>2026-03-29T13:03:16.653Z</time></trkpt><trkpt lat="44.9686533" lon="9.7175667"><ele>97.0</ele><time>2026-03-29T13:03:17.654Z</time></trkpt><trkpt lat="44.9684733" lon="9.7176033"><ele>97.0</ele><time>2026-03-29T13:03:18.654Z</time></trkpt><trkpt lat="44.9682933" lon="9.7176367"><ele>96.66666666666667</ele><time>2026-03-29T13:03:19.655Z</time></trkpt><trkpt lat="44.968115" lon="9.717665"><ele>96.33333333333334</ele><time>2026-03-29T13:03:20.655Z</time></trkpt><trkpt lat="44.9679367" lon="9.7176917"><ele>96.0</ele><time>2026-03-29T13:03:21.654Z</time></trkpt><trkpt lat="44.9677583" lon="9.7177167"><ele>96.0</ele><time>2026-03-29T13:03:22.654Z</time></trkpt><trkpt lat="44.9675833" lon="9.7177433"><ele>96.0</ele><time>2026-03-29T13:03:23.654Z</time></trkpt><trkpt lat="44.9674067" lon="9.7177683"><ele>96.0</ele><time>2026-03-29T13:03:24.654Z</time></trkpt><trkpt lat="44.967235" lon="9.7177933"><ele>96.0</ele><time>2026-03-29T13:03:25.655Z</time></trkpt><trkpt lat="44.9670717" lon="9.717815"><ele>96.0</ele><time>2026-03-29T13:03:26.655Z</time></trkpt><trkpt lat="44.9669167" lon="9.7178367"><ele>96.0</ele><time>2026-03-29T13:03:27.654Z</time></trkpt><trkpt lat="44.96677" lon="9.7178567"><ele>97.0</ele><time>2026-03-29T13:03:28.655Z</time></trkpt><trkpt lat="44.9666267" lon="9.7178783"><ele>98.0</ele><time>2026-03-29T13:03:29.654Z</time></trkpt><trkpt lat="44.9664783" lon="9.7179"><ele>99.0</ele><time>2026-03-29T13:03:30.654Z</time></trkpt><trkpt lat="44.9663233" lon="9.7179233"><ele>100.0</ele><time>2026-03-29T13:03:31.654Z</time></trkpt><trkpt lat="44.9661667" lon="9.7179467"><ele>100.0</ele><time>2026-03-29T13:03:32.655Z</time></trkpt><trkpt lat="44.966005" lon="9.7179667"><ele>100.0</ele><time>2026-03-29T13:03:33.654Z</time></trkpt><trkpt lat="44.965835" lon="9.71799"><ele>100.0</ele><time>2026-03-29T13:03:34.654Z</time></trkpt><trkpt lat="44.9656633" lon="9.7180167"><ele>99.66666666666667</ele><time>2026-03-29T13:03:35.654Z</time></trkpt><trkpt lat="44.965485" lon="9.718045"><ele>99.33333333333334</ele><time>2026-03-29T13:03:36.655Z</time></trkpt><trkpt lat="44.9653033" lon="9.7180717"><ele>99.0</ele><time>2026-03-29T13:03:37.654Z</time></trkpt><trkpt lat="44.96512" lon="9.7181"><ele>98.66666666666666</ele><time>2026-03-29T13:03:38.654Z</time></trkpt><trkpt lat="44.96494" lon="9.718125"><ele>98.33333333333333</ele><time>2026-03-29T13:03:39.653Z</time></trkpt><trkpt lat="44.96476" lon="9.7181533"><ele>98.0</ele><time>2026-03-29T13:03:40.654Z</time></trkpt><trkpt lat="44.9645817" lon="9.7181783"><ele>98.0</ele><time>2026-03-29T13:03:41.655Z</time></trkpt><trkpt lat="44.964405" lon="9.7182033"><ele>98.0</ele><time>2026-03-29T13:03:42.654Z</time></trkpt><trkpt lat="44.9642383" lon="9.7182267"><ele>98.0</ele><time>2026-03-29T13:03:43.654Z</time></trkpt><trkpt lat="44.9640817" lon="9.7182467"><ele>98.25</ele><time>2026-03-29T13:03:44.654Z</time></trkpt><trkpt lat="44.9639333" lon="9.7182717"><ele>98.5</ele><time>2026-03-29T13:03:45.654Z</time></trkpt><trkpt lat="44.9637933" lon="9.718295"><ele>98.75</ele><time>2026-03-29T13:03:46.654Z</time></trkpt><trkpt lat="44.9636583" lon="9.7183217"><ele>99.0</ele><time>2026-03-29T13:03:47.653Z</time></trkpt><trkpt lat="44.9635217" lon="9.718345"><ele>99.0</ele><time>2026-03-29T13:03:48.654Z</time></trkpt><trkpt lat="44.9633883" lon="9.7183667"><ele>99.0</ele><time>2026-03-29T13:03:49.655Z</time></trkpt><trkpt lat="44.963255" lon="9.7183867"><ele>99.0</ele><time>2026-03-29T13:03:50.655Z</time></trkpt><trkpt lat="44.9631183" lon="9.7184017"><ele>99.0</ele><time>2026-03-29T13:03:51.653Z</time></trkpt><trkpt lat="44.9629767" lon="9.7184067"><ele>99.25</ele><time>2026-03-29T13:03:52.654Z</time></trkpt><trkpt lat="44.9628317" lon="9.7184017"><ele>99.5</ele><time>2026-03-29T13:03:53.654Z</time></trkpt><trkpt lat="44.962685" lon="9.71838"><ele>99.75</ele><time>2026-03-29T13:03:54.655Z</time></trkpt><trkpt lat="44.9625433" lon="9.718345"><ele>100.0</ele><time>2026-03-29T13:03:55.655Z</time></trkpt><trkpt lat="44.9624017" lon="9.7183"><ele>100.0</ele><time>2026-03-29T13:03:56.655Z</time></trkpt><trkpt lat="44.9622567" lon="9.7182483"><ele>100.0</ele><time>2026-03-29T13:03:57.654Z</time></trkpt><trkpt lat="44.9621033" lon="9.7181917"><ele>100.0</ele><time>2026-03-29T13:03:58.654Z</time></trkpt><trkpt lat="44.961945" lon="9.7181317"><ele>100.0</ele><time>2026-03-29T13:03:59.654Z</time></trkpt><trkpt lat="44.9617833" lon="9.71807"><ele>100.0</ele><time>2026-03-29T13:04:00.653Z</time></trkpt><trkpt lat="44.9616167" lon="9.7180017"><ele>100.0</ele><time>2026-03-29T13:04:01.654Z</time></trkpt><trkpt lat="44.96145" lon="9.7179333"><ele>100.0</ele><time>2026-03-29T13:04:02.654Z</time></trkpt><trkpt lat="44.9612817" lon="9.7178667"><ele>100.0</ele><time>2026-03-29T13:04:03.654Z</time></trkpt><trkpt lat="44.9611133" lon="9.7178"><ele>100.0</ele><time>2026-03-29T13:04:04.652Z</time></trkpt><trkpt lat="44.960945" lon="9.7177333"><ele>100.66666666666667</ele><time>2026-03-29T13:04:05.656Z</time></trkpt><trkpt lat="44.9607783" lon="9.717675"><ele>101.33333333333334</ele><time>2026-03-29T13:04:06.654Z</time></trkpt><trkpt lat="44.96061" lon="9.7176267"><ele>102.0</ele><time>2026-03-29T13:04:07.654Z</time></trkpt><trkpt lat="44.9604417" lon="9.71758"><ele>102.0</ele><time>2026-03-29T13:04:08.654Z</time></trkpt><trkpt lat="44.960275" lon="9.717535"><ele>102.0</ele><time>2026-03-29T13:04:09.654Z</time></trkpt><trkpt lat="44.9601083" lon="9.7174883"><ele>102.0</ele><time>2026-03-29T13:04:10.653Z</time></trkpt><trkpt lat="44.95994" lon="9.717445"><ele>102.0</ele><time>2026-03-29T13:04:11.653Z</time></trkpt><trkpt lat="44.9597733" lon="9.7173983"><ele>102.0</ele><time>2026-03-29T13:04:12.655Z</time></trkpt><trkpt lat="44.959605" lon="9.71735"><ele>102.0</ele><time>2026-03-29T13:04:13.654Z</time></trkpt><trkpt lat="44.95944" lon="9.7173033"><ele>102.0</ele><time>2026-03-29T13:04:14.654Z</time></trkpt><trkpt lat="44.9592733" lon="9.7172567"><ele>102.0</ele><time>2026-03-29T13:04:15.654Z</time></trkpt><trkpt lat="44.9591083" lon="9.7172067"><ele>102.0</ele><time>2026-03-29T13:04:16.654Z</time></trkpt><trkpt lat="44.9589417" lon="9.7171567"><ele>102.66666666666666</ele><time>2026-03-29T13:04:17.653Z</time></trkpt><trkpt lat="44.9587733" lon="9.7171067"><ele>103.33333333333333</ele><time>2026-03-29T13:04:18.653Z</time></trkpt><trkpt lat="44.9586033" lon="9.7170583"><ele>104.0</ele><time>2026-03-29T13:04:19.655Z</time></trkpt><trkpt lat="44.9584367" lon="9.7170083"><ele>104.33333333333333</ele><time>2026-03-29T13:04:20.655Z</time></trkpt><trkpt lat="44.9582683" lon="9.71696"><ele>104.66666666666666</ele><time>2026-03-29T13:04:21.654Z</time></trkpt><trkpt lat="44.9581" lon="9.7169133"><ele>105.0</ele><time>2026-03-29T13:04:22.654Z</time></trkpt><trkpt lat="44.9579367" lon="9.7168667"><ele>105.0</ele><time>2026-03-29T13:04:23.654Z</time></trkpt><trkpt lat="44.95778" lon="9.7168217"><ele>105.0</ele><time>2026-03-29T13:04:24.654Z</time></trkpt><trkpt lat="44.9576283" lon="9.7167783"><ele>105.0</ele><time>2026-03-29T13:04:25.655Z</time></trkpt><trkpt lat="44.9574767" lon="9.7167333"><ele>105.0</ele><time>2026-03-29T13:04:26.655Z</time></trkpt><trkpt lat="44.9573267" lon="9.71669"><ele>105.0</ele><time>2026-03-29T13:04:27.654Z</time></trkpt><trkpt lat="44.9571767" lon="9.7166483"><ele>105.0</ele><time>2026-03-29T13:04:28.654Z</time></trkpt><trkpt lat="44.9570333" lon="9.7166067"><ele>105.0</ele><time>2026-03-29T13:04:29.654Z</time></trkpt><trkpt lat="44.9568983" lon="9.71657"><ele>105.0</ele><time>2026-03-29T13:04:30.653Z</time></trkpt><trkpt lat="44.95677" lon="9.7165367"><ele>105.0</ele><time>2026-03-29T13:04:31.654Z</time></trkpt><trkpt lat="44.956655" lon="9.7165083"><ele>105.0</ele><time>2026-03-29T13:04:32.655Z</time></trkpt><trkpt lat="44.9565617" lon="9.7164817"><ele>105.4</ele><time>2026-03-29T13:04:33.653Z</time></trkpt><trkpt lat="44.95649" lon="9.71646"><ele>105.8</ele><time>2026-03-29T13:04:34.654Z</time></trkpt><trkpt lat="44.9563933" lon="9.7164383"><ele>106.19999999999999</ele><time>2026-03-29T13:04:36.655Z</time></trkpt><trkpt lat="44.956285" lon="9.716455"><ele>106.6</ele><time>2026-03-29T13:04:51.654Z</time></trkpt><trkpt lat="44.9561533" lon="9.71646"><ele>107.0</ele><time>2026-03-29T13:04:53.654Z</time></trkpt><trkpt lat="44.95607" lon="9.7164483"><ele>107.0</ele><time>2026-03-29T13:04:54.655Z</time></trkpt><trkpt lat="44.9559817" lon="9.7164317"><ele>106.99999999999999</ele><time>2026-03-29T13:04:55.655Z</time></trkpt><trkpt lat="44.9558867" lon="9.7164117"><ele>106.99999999999999</ele><time>2026-03-29T13:04:56.654Z</time></trkpt><trkpt lat="44.9557833" lon="9.71639"><ele>107.0</ele><time>2026-03-29T13:04:57.653Z</time></trkpt><trkpt lat="44.9556767" lon="9.7163667"><ele>107.0</ele><time>2026-03-29T13:04:58.655Z</time></trkpt><trkpt lat="44.9555733" lon="9.7163433"><ele>106.75</ele><time>2026-03-29T13:04:59.654Z</time></trkpt><trkpt lat="44.955465" lon="9.716315"><ele>106.5</ele><time>2026-03-29T13:05:00.653Z</time></trkpt><trkpt lat="44.9553517" lon="9.7162867"><ele>106.25</ele><time>2026-03-29T13:05:01.653Z</time></trkpt><trkpt lat="44.9552333" lon="9.71626"><ele>106.0</ele><time>2026-03-29T13:05:02.655Z</time></trkpt><trkpt lat="44.9551133" lon="9.7162333"><ele>105.75</ele><time>2026-03-29T13:05:03.653Z</time></trkpt><trkpt lat="44.9549883" lon="9.716205"><ele>105.5</ele><time>2026-03-29T13:05:04.655Z</time></trkpt><trkpt lat="44.95486" lon="9.7161767"><ele>105.25</ele><time>2026-03-29T13:05:05.654Z</time></trkpt><trkpt lat="44.95473" lon="9.7161467"><ele>105.0</ele><time>2026-03-29T13:05:06.654Z</time></trkpt><trkpt lat="44.9545983" lon="9.7161167"><ele>105.0</ele><time>2026-03-29T13:05:07.655Z</time></trkpt><trkpt lat="44.9544667" lon="9.7160883"><ele>105.0</ele><time>2026-03-29T13:05:08.655Z</time></trkpt><trkpt lat="44.9543383" lon="9.71606"><ele>105.0</ele><time>2026-03-29T13:05:09.654Z</time></trkpt><trkpt lat="44.95421" lon="9.71603"><ele>105.0</ele><time>2026-03-29T13:05:10.655Z</time></trkpt><trkpt lat="44.9540833" lon="9.7159967"><ele>105.5</ele><time>2026-03-29T13:05:11.654Z</time></trkpt><trkpt lat="44.953955" lon="9.7159567"><ele>106.0</ele><time>2026-03-29T13:05:12.655Z</time></trkpt><trkpt lat="44.9538233" lon="9.7159183"><ele>106.5</ele><time>2026-03-29T13:05:13.654Z</time></trkpt><trkpt lat="44.9536867" lon="9.715885"><ele>107.0</ele><time>2026-03-29T13:05:14.654Z</time></trkpt><trkpt lat="44.9535467" lon="9.7158517"><ele>107.0</ele><time>2026-03-29T13:05:15.655Z</time></trkpt><trkpt lat="44.953405" lon="9.7158133"><ele>107.0</ele><time>2026-03-29T13:05:16.653Z</time></trkpt><trkpt lat="44.9532567" lon="9.7157733"><ele>107.0</ele><time>2026-03-29T13:05:17.653Z</time></trkpt><trkpt lat="44.9531083" lon="9.7157333"><ele>107.0</ele><time>2026-03-29T13:05:18.654Z</time></trkpt><trkpt lat="44.9529583" lon="9.71569"><ele>107.33333333333333</ele><time>2026-03-29T13:05:19.654Z</time></trkpt><trkpt lat="44.9528083" lon="9.715645"><ele>107.66666666666666</ele><time>2026-03-29T13:05:20.654Z</time></trkpt><trkpt lat="44.9526533" lon="9.7155983"><ele>108.0</ele><time>2026-03-29T13:05:21.654Z</time></trkpt><trkpt lat="44.9524967" lon="9.7155517"><ele>108.0</ele><time>2026-03-29T13:05:22.654Z</time></trkpt><trkpt lat="44.952335" lon="9.715505"><ele>108.0</ele><time>2026-03-29T13:05:23.654Z</time></trkpt><trkpt lat="44.9521733" lon="9.71546"><ele>108.0</ele><time>2026-03-29T13:05:24.653Z</time></trkpt><trkpt lat="44.9520083" lon="9.7154133"><ele>108.0</ele><time>2026-03-29T13:05:25.654Z</time></trkpt><trkpt lat="44.951845" lon="9.7153617"><ele>108.0</ele><time>2026-03-29T13:05:26.655Z</time></trkpt><trkpt lat="44.951685" lon="9.7153017"><ele>108.0</ele><time>2026-03-29T13:05:27.653Z</time></trkpt><trkpt lat="44.9515267" lon="9.7152333"><ele>108.66666666666666</ele><time>2026-03-29T13:05:28.653Z</time></trkpt><trkpt lat="44.9513667" lon="9.71516"><ele>109.33333333333333</ele><time>2026-03-29T13:05:29.653Z</time></trkpt><trkpt lat="44.9512067" lon="9.7150833"><ele>110.0</ele><time>2026-03-29T13:05:30.655Z</time></trkpt><trkpt lat="44.9510433" lon="9.71501"><ele>110.0</ele><time>2026-03-29T13:05:31.654Z</time></trkpt><trkpt lat="44.9508767" lon="9.7149367"><ele>110.0</ele><time>2026-03-29T13:05:32.653Z</time></trkpt><trkpt lat="44.9507133" lon="9.71486"><ele>110.0</ele><time>2026-03-29T13:05:33.654Z</time></trkpt><trkpt lat="44.95055" lon="9.7147883"><ele>109.66666666666666</ele><time>2026-03-29T13:05:34.654Z</time></trkpt><trkpt lat="44.9503883" lon="9.7147167"><ele>109.33333333333334</ele><time>2026-03-29T13:05:35.653Z</time></trkpt><trkpt lat="44.9502283" lon="9.7146467"><ele>109.0</ele><time>2026-03-29T13:05:36.654Z</time></trkpt><trkpt lat="44.95007" lon="9.71458"><ele>109.66666666666667</ele><time>2026-03-29T13:05:37.654Z</time></trkpt><trkpt lat="44.9499117" lon="9.714505"><ele>110.33333333333334</ele><time>2026-03-29T13:05:38.654Z</time></trkpt><trkpt lat="44.9497533" lon="9.7144317"><ele>111.0</ele><time>2026-03-29T13:05:39.654Z</time></trkpt><trkpt lat="44.9495933" lon="9.7143583"><ele>111.0</ele><time>2026-03-29T13:05:40.654Z</time></trkpt><trkpt lat="44.9494317" lon="9.7142867"><ele>111.0</ele><time>2026-03-29T13:05:41.654Z</time></trkpt><trkpt lat="44.94927" lon="9.7142117"><ele>111.0</ele><time>2026-03-29T13:05:42.654Z</time></trkpt><trkpt lat="44.94911" lon="9.71414"><ele>112.33333333333334</ele><time>2026-03-29T13:05:43.654Z</time></trkpt><trkpt lat="44.9489517" lon="9.7140717"><ele>113.66666666666667</ele><time>2026-03-29T13:05:44.656Z</time></trkpt><trkpt lat="44.9487967" lon="9.7140033"><ele>115.0</ele><time>2026-03-29T13:05:45.654Z</time></trkpt><trkpt lat="44.9486433" lon="9.71394"><ele>115.0</ele><time>2026-03-29T13:05:46.654Z</time></trkpt><trkpt lat="44.9485" lon="9.71388"><ele>115.0</ele><time>2026-03-29T13:05:47.654Z</time></trkpt><trkpt lat="44.9483667" lon="9.713825"><ele>115.0</ele><time>2026-03-29T13:05:48.654Z</time></trkpt><trkpt lat="44.948245" lon="9.7137683"><ele>115.0</ele><time>2026-03-29T13:05:49.655Z</time></trkpt><trkpt lat="44.9481417" lon="9.71371"><ele>114.50000000000001</ele><time>2026-03-29T13:05:50.654Z</time></trkpt><trkpt lat="44.948055" lon="9.7136483"><ele>114.0</ele><time>2026-03-29T13:05:51.654Z</time></trkpt><trkpt lat="44.94799" lon="9.7135717"><ele>113.5</ele><time>2026-03-29T13:05:52.655Z</time></trkpt><trkpt lat="44.9479383" lon="9.7134867"><ele>113.0</ele><time>2026-03-29T13:05:53.655Z</time></trkpt><trkpt lat="44.94789" lon="9.7134133"><ele>112.50000000000001</ele><time>2026-03-29T13:05:54.654Z</time></trkpt><trkpt lat="44.94783" lon="9.71336"><ele>112.0</ele><time>2026-03-29T13:05:55.653Z</time></trkpt><trkpt lat="44.9477483" lon="9.71332"><ele>111.83333333333334</ele><time>2026-03-29T13:05:56.655Z</time></trkpt><trkpt lat="44.9476583" lon="9.7132867"><ele>111.66666666666667</ele><time>2026-03-29T13:05:57.654Z</time></trkpt><trkpt lat="44.9475667" lon="9.713255"><ele>111.5</ele><time>2026-03-29T13:05:58.653Z</time></trkpt><trkpt lat="44.9474817" lon="9.7132283"><ele>111.33333333333334</ele><time>2026-03-29T13:05:59.653Z</time></trkpt><trkpt lat="44.9473967" lon="9.7132067"><ele>111.16666666666667</ele><time>2026-03-29T13:06:00.654Z</time></trkpt><trkpt lat="44.94731" lon="9.7131883"><ele>111.0</ele><time>2026-03-29T13:06:01.653Z</time></trkpt><trkpt lat="44.9472283" lon="9.7131667"><ele>111.6</ele><time>2026-03-29T13:06:02.655Z</time></trkpt><trkpt lat="44.94715" lon="9.713135"><ele>112.19999999999999</ele><time>2026-03-29T13:06:03.654Z</time></trkpt><trkpt lat="44.9470633" lon="9.7130933"><ele>112.80000000000001</ele><time>2026-03-29T13:06:04.654Z</time></trkpt><trkpt lat="44.9469733" lon="9.7130467"><ele>113.4</ele><time>2026-03-29T13:06:05.654Z</time></trkpt><trkpt lat="44.9468767" lon="9.7129983"><ele>114.0</ele><time>2026-03-29T13:06:06.654Z</time></trkpt><trkpt lat="44.946775" lon="9.7129467"><ele>114.25</ele><time>2026-03-29T13:06:07.655Z</time></trkpt><trkpt lat="44.94667" lon="9.7128967"><ele>114.5</ele><time>2026-03-29T13:06:08.654Z</time></trkpt><trkpt lat="44.9465617" lon="9.712845"><ele>114.75</ele><time>2026-03-29T13:06:09.654Z</time></trkpt><trkpt lat="44.9464517" lon="9.7127933"><ele>115.0</ele><time>2026-03-29T13:06:10.655Z</time></trkpt><trkpt lat="44.946345" lon="9.7127417"><ele>114.8</ele><time>2026-03-29T13:06:11.654Z</time></trkpt><trkpt lat="44.9462433" lon="9.712695"><ele>114.6</ele><time>2026-03-29T13:06:12.654Z</time></trkpt><trkpt lat="44.946145" lon="9.71265"><ele>114.4</ele><time>2026-03-29T13:06:13.655Z</time></trkpt><trkpt lat="44.9460483" lon="9.712605"><ele>114.2</ele><time>2026-03-29T13:06:14.654Z</time></trkpt><trkpt lat="44.94595" lon="9.71256"><ele>114.0</ele><time>2026-03-29T13:06:15.654Z</time></trkpt><trkpt lat="44.9458467" lon="9.7125133"><ele>114.4</ele><time>2026-03-29T13:06:16.654Z</time></trkpt><trkpt lat="44.94574" lon="9.7124683"><ele>114.80000000000001</ele><time>2026-03-29T13:06:17.653Z</time></trkpt><trkpt lat="44.9456333" lon="9.7124233"><ele>115.19999999999999</ele><time>2026-03-29T13:06:18.653Z</time></trkpt><trkpt lat="44.9455283" lon="9.71238"><ele>115.6</ele><time>2026-03-29T13:06:19.654Z</time></trkpt><trkpt lat="44.9454233" lon="9.7123383"><ele>116.0</ele><time>2026-03-29T13:06:20.655Z</time></trkpt><trkpt lat="44.9453183" lon="9.7122917"><ele>116.0</ele><time>2026-03-29T13:06:21.654Z</time></trkpt><trkpt lat="44.9452167" lon="9.7122483"><ele>116.0</ele><time>2026-03-29T13:06:22.654Z</time></trkpt><trkpt lat="44.9451133" lon="9.712205"><ele>116.0</ele><time>2026-03-29T13:06:23.654Z</time></trkpt><trkpt lat="44.94501" lon="9.712165"><ele>116.0</ele><time>2026-03-29T13:06:24.653Z</time></trkpt><trkpt lat="44.9449083" lon="9.712125"><ele>116.0</ele><time>2026-03-29T13:06:25.654Z</time></trkpt><trkpt lat="44.94481" lon="9.712085"><ele>115.8</ele><time>2026-03-29T13:06:26.654Z</time></trkpt><trkpt lat="44.9447133" lon="9.7120467"><ele>115.6</ele><time>2026-03-29T13:06:27.653Z</time></trkpt><trkpt lat="44.9446167" lon="9.712005"><ele>115.4</ele><time>2026-03-29T13:06:28.655Z</time></trkpt><trkpt lat="44.944515" lon="9.7119667"><ele>115.2</ele><time>2026-03-29T13:06:29.654Z</time></trkpt><trkpt lat="44.9444133" lon="9.7119267"><ele>115.0</ele><time>2026-03-29T13:06:30.654Z</time></trkpt><trkpt lat="44.9443117" lon="9.7118867"><ele>115.0</ele><time>2026-03-29T13:06:31.654Z</time></trkpt><trkpt lat="44.9442167" lon="9.7118483"><ele>115.0</ele><time>2026-03-29T13:06:32.654Z</time></trkpt><trkpt lat="44.944125" lon="9.711815"><ele>115.0</ele><time>2026-03-29T13:06:33.656Z</time></trkpt><trkpt lat="44.9440317" lon="9.7117783"><ele>115.0</ele><time>2026-03-29T13:06:34.654Z</time></trkpt><trkpt lat="44.94394" lon="9.711745"><ele>115.0</ele><time>2026-03-29T13:06:35.654Z</time></trkpt><trkpt lat="44.9438483" lon="9.711715"><ele>115.0</ele><time>2026-03-29T13:06:36.654Z</time></trkpt><trkpt lat="44.9437583" lon="9.7117017"><ele>115.0</ele><time>2026-03-29T13:06:37.655Z</time></trkpt><trkpt lat="44.9436667" lon="9.71171"><ele>115.0</ele><time>2026-03-29T13:06:38.655Z</time></trkpt><trkpt lat="44.94357" lon="9.7117367"><ele>115.0</ele><time>2026-03-29T13:06:39.654Z</time></trkpt><trkpt lat="44.9434783" lon="9.7117717"><ele>115.0</ele><time>2026-03-29T13:06:40.655Z</time></trkpt><trkpt lat="44.9433917" lon="9.7118083"><ele>115.16666666666667</ele><time>2026-03-29T13:06:41.653Z</time></trkpt><trkpt lat="44.9433033" lon="9.7118483"><ele>115.33333333333334</ele><time>2026-03-29T13:06:42.654Z</time></trkpt><trkpt lat="44.9432217" lon="9.711895"><ele>115.5</ele><time>2026-03-29T13:06:43.654Z</time></trkpt><trkpt lat="44.9431467" lon="9.7119517"><ele>115.66666666666666</ele><time>2026-03-29T13:06:44.654Z</time></trkpt><trkpt lat="44.94308" lon="9.7120083"><ele>115.83333333333333</ele><time>2026-03-29T13:06:45.654Z</time></trkpt><trkpt lat="44.943015" lon="9.71206"><ele>116.0</ele><time>2026-03-29T13:06:46.654Z</time></trkpt><trkpt lat="44.9429533" lon="9.7120883"><ele>115.99999999999999</ele><time>2026-03-29T13:06:47.654Z</time></trkpt><trkpt lat="44.9428883" lon="9.7120883"><ele>116.0</ele><time>2026-03-29T13:06:48.654Z</time></trkpt><trkpt lat="44.94282" lon="9.7120583"><ele>116.0</ele><time>2026-03-29T13:06:49.654Z</time></trkpt><trkpt lat="44.9427383" lon="9.712025"><ele>116.0</ele><time>2026-03-29T13:06:50.654Z</time></trkpt><trkpt lat="44.9426533" lon="9.7119917"><ele>115.99999999999999</ele><time>2026-03-29T13:06:51.654Z</time></trkpt><trkpt lat="44.942565" lon="9.7119567"><ele>116.0</ele><time>2026-03-29T13:06:52.652Z</time></trkpt><trkpt lat="44.9424733" lon="9.7119183"><ele>116.19999999999999</ele><time>2026-03-29T13:06:53.653Z</time></trkpt><trkpt lat="44.9423817" lon="9.71188"><ele>116.39999999999999</ele><time>2026-03-29T13:06:54.652Z</time></trkpt><trkpt lat="44.9422883" lon="9.711845"><ele>116.6</ele><time>2026-03-29T13:06:55.653Z</time></trkpt><trkpt lat="44.9421983" lon="9.7118083"><ele>116.8</ele><time>2026-03-29T13:06:56.655Z</time></trkpt><trkpt lat="44.9421117" lon="9.711775"><ele>117.0</ele><time>2026-03-29T13:06:57.653Z</time></trkpt><trkpt lat="44.942025" lon="9.711745"><ele>117.0</ele><time>2026-03-29T13:06:58.655Z</time></trkpt><trkpt lat="44.941935" lon="9.7117117"><ele>116.99999999999999</ele><time>2026-03-29T13:06:59.654Z</time></trkpt><trkpt lat="44.941845" lon="9.7116767"><ele>116.99999999999999</ele><time>2026-03-29T13:07:00.654Z</time></trkpt><trkpt lat="44.941755" lon="9.7116417"><ele>117.0</ele><time>2026-03-29T13:07:01.654Z</time></trkpt><trkpt lat="44.9416617" lon="9.7116067"><ele>117.0</ele><time>2026-03-29T13:07:02.654Z</time></trkpt><trkpt lat="44.9415667" lon="9.7115683"><ele>117.0</ele><time>2026-03-29T13:07:03.654Z</time></trkpt><trkpt lat="44.9414733" lon="9.7115283"><ele>116.99999999999999</ele><time>2026-03-29T13:07:04.654Z</time></trkpt><trkpt lat="44.941375" lon="9.7114917"><ele>116.99999999999999</ele><time>2026-03-29T13:07:05.654Z</time></trkpt><trkpt lat="44.9412783" lon="9.711455"><ele>117.0</ele><time>2026-03-29T13:07:06.653Z</time></trkpt><trkpt lat="44.9411817" lon="9.71142"><ele>117.0</ele><time>2026-03-29T13:07:07.654Z</time></trkpt><trkpt lat="44.9410833" lon="9.7113817"><ele>117.0</ele><time>2026-03-29T13:07:08.654Z</time></trkpt><trkpt lat="44.940985" lon="9.7113433"><ele>116.99999999999999</ele><time>2026-03-29T13:07:09.654Z</time></trkpt><trkpt lat="44.9408867" lon="9.7113083"><ele>116.99999999999999</ele><time>2026-03-29T13:07:10.653Z</time></trkpt><trkpt lat="44.94079" lon="9.711275"><ele>117.0</ele><time>2026-03-29T13:07:11.653Z</time></trkpt><trkpt lat="44.9406917" lon="9.7112417"><ele>117.0</ele><time>2026-03-29T13:07:12.653Z</time></trkpt><trkpt lat="44.9405883" lon="9.711205"><ele>117.0</ele><time>2026-03-29T13:07:13.654Z</time></trkpt><trkpt lat="44.94048" lon="9.7111683"><ele>117.0</ele><time>2026-03-29T13:07:14.654Z</time></trkpt><trkpt lat="44.9403617" lon="9.71113"><ele>117.0</ele><time>2026-03-29T13:07:15.653Z</time></trkpt><trkpt lat="44.9402383" lon="9.7110933"><ele>117.0</ele><time>2026-03-29T13:07:16.654Z</time></trkpt><trkpt lat="44.9401133" lon="9.7110583"><ele>117.5</ele><time>2026-03-29T13:07:17.655Z</time></trkpt><trkpt lat="44.9399883" lon="9.7110183"><ele>118.0</ele><time>2026-03-29T13:07:18.652Z</time></trkpt><trkpt lat="44.9398583" lon="9.71097"><ele>118.5</ele><time>2026-03-29T13:07:19.653Z</time></trkpt><trkpt lat="44.939725" lon="9.7109283"><ele>119.0</ele><time>2026-03-29T13:07:20.654Z</time></trkpt><trkpt lat="44.93959" lon="9.7108883"><ele>119.0</ele><time>2026-03-29T13:07:21.652Z</time></trkpt><trkpt lat="44.9394533" lon="9.7108417"><ele>119.0</ele><time>2026-03-29T13:07:22.652Z</time></trkpt><trkpt lat="44.9393167" lon="9.7107933"><ele>119.0</ele><time>2026-03-29T13:07:23.653Z</time></trkpt><trkpt lat="44.9391733" lon="9.71075"><ele>119.0</ele><time>2026-03-29T13:07:24.653Z</time></trkpt><trkpt lat="44.93903" lon="9.7107067"><ele>119.25</ele><time>2026-03-29T13:07:25.653Z</time></trkpt><trkpt lat="44.93889" lon="9.7106617"><ele>119.5</ele><time>2026-03-29T13:07:26.654Z</time></trkpt><trkpt lat="44.9387517" lon="9.7106117"><ele>119.75</ele><time>2026-03-29T13:07:27.652Z</time></trkpt><trkpt lat="44.93861" lon="9.7105567"><ele>120.0</ele><time>2026-03-29T13:07:28.653Z</time></trkpt><trkpt lat="44.9384683" lon="9.7104983"><ele>120.0</ele><time>2026-03-29T13:07:29.653Z</time></trkpt><trkpt lat="44.9383317" lon="9.7104433"><ele>120.0</ele><time>2026-03-29T13:07:30.654Z</time></trkpt><trkpt lat="44.938195" lon="9.7103883"><ele>120.0</ele><time>2026-03-29T13:07:31.654Z</time></trkpt><trkpt lat="44.93806" lon="9.710335"><ele>120.0</ele><time>2026-03-29T13:07:32.654Z</time></trkpt><trkpt lat="44.9379283" lon="9.7102833"><ele>119.75</ele><time>2026-03-29T13:07:33.654Z</time></trkpt><trkpt lat="44.9378" lon="9.7102333"><ele>119.5</ele><time>2026-03-29T13:07:34.654Z</time></trkpt><trkpt lat="44.9376767" lon="9.710185"><ele>119.25</ele><time>2026-03-29T13:07:35.654Z</time></trkpt><trkpt lat="44.9375567" lon="9.7101383"><ele>119.0</ele><time>2026-03-29T13:07:36.655Z</time></trkpt><trkpt lat="44.9374383" lon="9.7100933"><ele>119.4</ele><time>2026-03-29T13:07:37.653Z</time></trkpt><trkpt lat="44.9373267" lon="9.7100617"><ele>119.80000000000001</ele><time>2026-03-29T13:07:38.653Z</time></trkpt><trkpt lat="44.9372267" lon="9.71004"><ele>120.19999999999999</ele><time>2026-03-29T13:07:39.653Z</time></trkpt><trkpt lat="44.937135" lon="9.7100333"><ele>120.6</ele><time>2026-03-29T13:07:40.654Z</time></trkpt><trkpt lat="44.93705" lon="9.710045"><ele>121.0</ele><time>2026-03-29T13:07:41.653Z</time></trkpt><trkpt lat="44.9369717" lon="9.71008"><ele>121.0</ele><time>2026-03-29T13:07:42.653Z</time></trkpt><trkpt lat="44.9368983" lon="9.710155"><ele>121.0</ele><time>2026-03-29T13:07:43.653Z</time></trkpt><trkpt lat="44.9368433" lon="9.7102767"><ele>121.0</ele><time>2026-03-29T13:07:44.654Z</time></trkpt><trkpt lat="44.9368033" lon="9.7104167"><ele>121.0</ele><time>2026-03-29T13:07:45.654Z</time></trkpt><trkpt lat="44.9367733" lon="9.7105567"><ele>121.0</ele><time>2026-03-29T13:07:46.653Z</time></trkpt><trkpt lat="44.9367467" lon="9.71068"><ele>121.19999999999999</ele><time>2026-03-29T13:07:47.653Z</time></trkpt><trkpt lat="44.9367183" lon="9.7107833"><ele>121.39999999999999</ele><time>2026-03-29T13:07:48.653Z</time></trkpt><trkpt lat="44.93668" lon="9.71086"><ele>121.6</ele><time>2026-03-29T13:07:49.654Z</time></trkpt><trkpt lat="44.936565" lon="9.7108867"><ele>121.8</ele><time>2026-03-29T13:07:51.653Z</time></trkpt><trkpt lat="44.93647" lon="9.7108367"><ele>122.0</ele><time>2026-03-29T13:07:52.654Z</time></trkpt><trkpt lat="44.936355" lon="9.7107833"><ele>122.0</ele><time>2026-03-29T13:07:53.654Z</time></trkpt><trkpt lat="44.9362283" lon="9.710725"><ele>122.0</ele><time>2026-03-29T13:07:54.653Z</time></trkpt><trkpt lat="44.9361017" lon="9.710675"><ele>122.0</ele><time>2026-03-29T13:07:55.654Z</time></trkpt><trkpt lat="44.935985" lon="9.71063"><ele>122.0</ele><time>2026-03-29T13:07:56.654Z</time></trkpt><trkpt lat="44.935885" lon="9.71059"><ele>121.99999999999999</ele><time>2026-03-29T13:07:57.654Z</time></trkpt><trkpt lat="44.9358033" lon="9.7105583"><ele>122.0</ele><time>2026-03-29T13:07:58.653Z</time></trkpt><trkpt lat="44.9357383" lon="9.71053"><ele>122.0</ele><time>2026-03-29T13:07:59.653Z</time></trkpt><trkpt lat="44.9356633" lon="9.7104533"><ele>122.0</ele><time>2026-03-29T13:08:01.653Z</time></trkpt><trkpt lat="44.935665" lon="9.7103417"><ele>121.99999999999999</ele><time>2026-03-29T13:08:03.654Z</time></trkpt><trkpt lat="44.9357133" lon="9.7101867"><ele>122.0</ele><time>2026-03-29T13:08:05.653Z</time></trkpt><trkpt lat="44.935745" lon="9.7100817"><ele>121.99999999999999</ele><time>2026-03-29T13:08:06.652Z</time></trkpt><trkpt lat="44.9357733" lon="9.7099767"><ele>122.0</ele><time>2026-03-29T13:08:07.654Z</time></trkpt><trkpt lat="44.9358" lon="9.7098783"><ele>122.0</ele><time>2026-03-29T13:08:08.654Z</time></trkpt><trkpt lat="44.9358233" lon="9.7097783"><ele>122.0</ele><time>2026-03-29T13:08:09.653Z</time></trkpt><trkpt lat="44.9358483" lon="9.7096733"><ele>121.99999999999999</ele><time>2026-03-29T13:08:10.653Z</time></trkpt><trkpt lat="44.9358783" lon="9.70956"><ele>122.0</ele><time>2026-03-29T13:08:11.654Z</time></trkpt><trkpt lat="44.9359083" lon="9.70945"><ele>121.99999999999999</ele><time>2026-03-29T13:08:12.653Z</time></trkpt><trkpt lat="44.9359367" lon="9.7093417"><ele>122.0</ele><time>2026-03-29T13:08:13.654Z</time></trkpt><trkpt lat="44.9359633" lon="9.7092283"><ele>122.0</ele><time>2026-03-29T13:08:14.654Z</time></trkpt><trkpt lat="44.9359883" lon="9.7091233"><ele>122.0</ele><time>2026-03-29T13:08:15.652Z</time></trkpt><trkpt lat="44.9360083" lon="9.7090233"><ele>121.99999999999999</ele><time>2026-03-29T13:08:16.654Z</time></trkpt><trkpt lat="44.93603" lon="9.7089283"><ele>122.0</ele><time>2026-03-29T13:08:17.654Z</time></trkpt><trkpt lat="44.9360517" lon="9.70884"><ele>121.99999999999999</ele><time>2026-03-29T13:08:18.654Z</time></trkpt><trkpt lat="44.9360717" lon="9.7087533"><ele>122.0</ele><time>2026-03-29T13:08:19.653Z</time></trkpt><trkpt lat="44.9360917" lon="9.7086633"><ele>121.99999999999999</ele><time>2026-03-29T13:08:20.654Z</time></trkpt><trkpt lat="44.9361117" lon="9.708565"><ele>121.99999999999999</ele><time>2026-03-29T13:08:21.653Z</time></trkpt><trkpt lat="44.9361333" lon="9.7084633"><ele>122.0</ele><time>2026-03-29T13:08:22.653Z</time></trkpt><trkpt lat="44.93616" lon="9.7083533"><ele>121.99999999999999</ele><time>2026-03-29T13:08:23.653Z</time></trkpt><trkpt lat="44.9361883" lon="9.70824"><ele>121.99999999999999</ele><time>2026-03-29T13:08:24.653Z</time></trkpt><trkpt lat="44.9362233" lon="9.7081383"><ele>122.0</ele><time>2026-03-29T13:08:25.652Z</time></trkpt><trkpt lat="44.9362633" lon="9.7080367"><ele>121.99999999999999</ele><time>2026-03-29T13:08:26.653Z</time></trkpt><trkpt lat="44.9363" lon="9.7079283"><ele>121.99999999999999</ele><time>2026-03-29T13:08:27.654Z</time></trkpt><trkpt lat="44.936335" lon="9.7078067"><ele>122.0</ele><time>2026-03-29T13:08:28.653Z</time></trkpt><trkpt lat="44.936365" lon="9.7076783"><ele>122.0</ele><time>2026-03-29T13:08:29.653Z</time></trkpt><trkpt lat="44.936395" lon="9.70754"><ele>122.0</ele><time>2026-03-29T13:08:30.653Z</time></trkpt><trkpt lat="44.9364233" lon="9.7073983"><ele>121.99999999999999</ele><time>2026-03-29T13:08:31.654Z</time></trkpt><trkpt lat="44.9364533" lon="9.7072483"><ele>121.99999999999999</ele><time>2026-03-29T13:08:32.655Z</time></trkpt><trkpt lat="44.9364867" lon="9.707095"><ele>122.0</ele><time>2026-03-29T13:08:33.653Z</time></trkpt><trkpt lat="44.9365217" lon="9.7069333"><ele>122.0</ele><time>2026-03-29T13:08:34.654Z</time></trkpt><trkpt lat="44.9365617" lon="9.7067533"><ele>122.0</ele><time>2026-03-29T13:08:35.654Z</time></trkpt><trkpt lat="44.9366067" lon="9.7065583"><ele>122.0</ele><time>2026-03-29T13:08:36.653Z</time></trkpt><trkpt lat="44.9366533" lon="9.706355"><ele>122.0</ele><time>2026-03-29T13:08:37.653Z</time></trkpt><trkpt lat="44.9366983" lon="9.7061633"><ele>122.0</ele><time>2026-03-29T13:08:38.654Z</time></trkpt><trkpt lat="44.93674" lon="9.7059983"><ele>122.19999999999999</ele><time>2026-03-29T13:08:39.654Z</time></trkpt><trkpt lat="44.9367783" lon="9.7058567"><ele>122.39999999999999</ele><time>2026-03-29T13:08:40.653Z</time></trkpt><trkpt lat="44.9368133" lon="9.705735"><ele>122.60000000000001</ele><time>2026-03-29T13:08:41.653Z</time></trkpt><trkpt lat="44.936845" lon="9.70562"><ele>122.80000000000001</ele><time>2026-03-29T13:08:42.654Z</time></trkpt><trkpt lat="44.9368767" lon="9.70551"><ele>123.0</ele><time>2026-03-29T13:08:43.653Z</time></trkpt><trkpt lat="44.936905" lon="9.705405"><ele>123.0</ele><time>2026-03-29T13:08:44.653Z</time></trkpt><trkpt lat="44.9369333" lon="9.70531"><ele>123.0</ele><time>2026-03-29T13:08:45.653Z</time></trkpt><trkpt lat="44.93696" lon="9.70522"><ele>123.0</ele><time>2026-03-29T13:08:46.654Z</time></trkpt><trkpt lat="44.9369867" lon="9.7051233"><ele>123.0</ele><time>2026-03-29T13:08:47.653Z</time></trkpt><trkpt lat="44.937015" lon="9.7050167"><ele>123.0</ele><time>2026-03-29T13:08:48.653Z</time></trkpt><trkpt lat="44.937045" lon="9.7049017"><ele>123.0</ele><time>2026-03-29T13:08:49.652Z</time></trkpt><trkpt lat="44.9370817" lon="9.7047683"><ele>123.25</ele><time>2026-03-29T13:08:50.654Z</time></trkpt><trkpt lat="44.9371217" lon="9.7046217"><ele>123.5</ele><time>2026-03-29T13:08:51.653Z</time></trkpt><trkpt lat="44.937165" lon="9.7044567"><ele>123.75</ele><time>2026-03-29T13:08:52.654Z</time></trkpt><trkpt lat="44.93721" lon="9.7042817"><ele>124.0</ele><time>2026-03-29T13:08:53.654Z</time></trkpt><trkpt lat="44.9372567" lon="9.7041083"><ele>124.25</ele><time>2026-03-29T13:08:54.654Z</time></trkpt><trkpt lat="44.9373017" lon="9.7039233"><ele>124.5</ele><time>2026-03-29T13:08:55.654Z</time></trkpt><trkpt lat="44.9373517" lon="9.7037317"><ele>124.75</ele><time>2026-03-29T13:08:56.654Z</time></trkpt><trkpt lat="44.9374033" lon="9.7035317"><ele>125.0</ele><time>2026-03-29T13:08:57.653Z</time></trkpt><trkpt lat="44.9374567" lon="9.70333"><ele>125.0</ele><time>2026-03-29T13:08:58.653Z</time></trkpt><trkpt lat="44.9375117" lon="9.703125"><ele>125.0</ele><time>2026-03-29T13:08:59.653Z</time></trkpt><trkpt lat="44.9375717" lon="9.7029083"><ele>125.0</ele><time>2026-03-29T13:09:00.653Z</time></trkpt><trkpt lat="44.937635" lon="9.70268"><ele>124.66666666666666</ele><time>2026-03-29T13:09:01.652Z</time></trkpt><trkpt lat="44.9377" lon="9.7024417"><ele>124.33333333333334</ele><time>2026-03-29T13:09:02.654Z</time></trkpt><trkpt lat="44.937765" lon="9.7021983"><ele>124.0</ele><time>2026-03-29T13:09:03.653Z</time></trkpt><trkpt lat="44.9378333" lon="9.701955"><ele>124.0</ele><time>2026-03-29T13:09:04.653Z</time></trkpt><trkpt lat="44.9379" lon="9.701715"><ele>124.0</ele><time>2026-03-29T13:09:05.654Z</time></trkpt><trkpt lat="44.937965" lon="9.70148"><ele>124.0</ele><time>2026-03-29T13:09:06.653Z</time></trkpt><trkpt lat="44.9380283" lon="9.7012483"><ele>124.0</ele><time>2026-03-29T13:09:07.654Z</time></trkpt><trkpt lat="44.9380883" lon="9.7010217"><ele>124.0</ele><time>2026-03-29T13:09:08.654Z</time></trkpt><trkpt lat="44.93814" lon="9.700795"><ele>124.0</ele><time>2026-03-29T13:09:09.654Z</time></trkpt><trkpt lat="44.93819" lon="9.700565"><ele>124.0</ele><time>2026-03-29T13:09:10.653Z</time></trkpt><trkpt lat="44.938235" lon="9.700335"><ele>124.0</ele><time>2026-03-29T13:09:11.654Z</time></trkpt><trkpt lat="44.9382767" lon="9.7001083"><ele>124.0</ele><time>2026-03-29T13:09:12.653Z</time></trkpt><trkpt lat="44.9383217" lon="9.6998833"><ele>124.0</ele><time>2026-03-29T13:09:13.654Z</time></trkpt><trkpt lat="44.9383667" lon="9.69966"><ele>124.0</ele><time>2026-03-29T13:09:14.654Z</time></trkpt><trkpt lat="44.9384117" lon="9.6994367"><ele>124.0</ele><time>2026-03-29T13:09:15.654Z</time></trkpt><trkpt lat="44.9384517" lon="9.6992167"><ele>124.0</ele><time>2026-03-29T13:09:16.652Z</time></trkpt><trkpt lat="44.938495" lon="9.6989983"><ele>124.0</ele><time>2026-03-29T13:09:17.654Z</time></trkpt><trkpt lat="44.9385383" lon="9.6987783"><ele>124.0</ele><time>2026-03-29T13:09:18.654Z</time></trkpt><trkpt lat="44.9385817" lon="9.698555"><ele>123.33333333333334</ele><time>2026-03-29T13:09:19.653Z</time></trkpt><trkpt lat="44.9386233" lon="9.69833"><ele>122.66666666666666</ele><time>2026-03-29T13:09:20.654Z</time></trkpt><trkpt lat="44.938665" lon="9.6981067"><ele>122.0</ele><time>2026-03-29T13:09:21.653Z</time></trkpt><trkpt lat="44.9387033" lon="9.6978867"><ele>122.33333333333333</ele><time>2026-03-29T13:09:22.653Z</time></trkpt><trkpt lat="44.9387417" lon="9.697665"><ele>122.66666666666666</ele><time>2026-03-29T13:09:23.653Z</time></trkpt><trkpt lat="44.938775" lon="9.6974433"><ele>123.0</ele><time>2026-03-29T13:09:24.652Z</time></trkpt><trkpt lat="44.9388067" lon="9.69722"><ele>123.0</ele><time>2026-03-29T13:09:25.654Z</time></trkpt><trkpt lat="44.9388333" lon="9.6969917"><ele>123.0</ele><time>2026-03-29T13:09:26.653Z</time></trkpt><trkpt lat="44.93886" lon="9.6967633"><ele>123.0</ele><time>2026-03-29T13:09:27.654Z</time></trkpt><trkpt lat="44.9388883" lon="9.69653"><ele>123.66666666666666</ele><time>2026-03-29T13:09:28.653Z</time></trkpt><trkpt lat="44.938915" lon="9.696295"><ele>124.33333333333333</ele><time>2026-03-29T13:09:29.654Z</time></trkpt><trkpt lat="44.9389367" lon="9.6960617"><ele>125.0</ele><time>2026-03-29T13:09:30.652Z</time></trkpt><trkpt lat="44.9389567" lon="9.6958383"><ele>125.0</ele><time>2026-03-29T13:09:31.652Z</time></trkpt><trkpt lat="44.9389717" lon="9.6956233"><ele>125.0</ele><time>2026-03-29T13:09:32.653Z</time></trkpt><trkpt lat="44.9389833" lon="9.6954133"><ele>125.0</ele><time>2026-03-29T13:09:33.652Z</time></trkpt><trkpt lat="44.938995" lon="9.6952033"><ele>125.0</ele><time>2026-03-29T13:09:34.654Z</time></trkpt><trkpt lat="44.9390083" lon="9.6949967"><ele>125.0</ele><time>2026-03-29T13:09:35.653Z</time></trkpt><trkpt lat="44.939025" lon="9.6947883"><ele>125.0</ele><time>2026-03-29T13:09:36.653Z</time></trkpt><trkpt lat="44.939045" lon="9.69458"><ele>125.0</ele><time>2026-03-29T13:09:37.654Z</time></trkpt><trkpt lat="44.939065" lon="9.69437"><ele>125.25</ele><time>2026-03-29T13:09:38.654Z</time></trkpt><trkpt lat="44.9390867" lon="9.69416"><ele>125.5</ele><time>2026-03-29T13:09:39.653Z</time></trkpt><trkpt lat="44.9391083" lon="9.6939517"><ele>125.75</ele><time>2026-03-29T13:09:40.654Z</time></trkpt><trkpt lat="44.9391333" lon="9.693745"><ele>126.0</ele><time>2026-03-29T13:09:41.654Z</time></trkpt><trkpt lat="44.9391567" lon="9.693545"><ele>126.0</ele><time>2026-03-29T13:09:42.653Z</time></trkpt><trkpt lat="44.9391783" lon="9.6933533"><ele>126.0</ele><time>2026-03-29T13:09:43.654Z</time></trkpt><trkpt lat="44.9392" lon="9.693175"><ele>126.0</ele><time>2026-03-29T13:09:44.654Z</time></trkpt><trkpt lat="44.93922" lon="9.6930067"><ele>126.0</ele><time>2026-03-29T13:09:45.653Z</time></trkpt><trkpt lat="44.9392383" lon="9.6928533"><ele>126.0</ele><time>2026-03-29T13:09:46.654Z</time></trkpt><trkpt lat="44.9392533" lon="9.69272"><ele>126.0</ele><time>2026-03-29T13:09:47.654Z</time></trkpt><trkpt lat="44.9392633" lon="9.6926083"><ele>126.0</ele><time>2026-03-29T13:09:48.652Z</time></trkpt><trkpt lat="44.93925" lon="9.6924683"><ele>126.0</ele><time>2026-03-29T13:09:50.654Z</time></trkpt><trkpt lat="44.9391733" lon="9.6924283"><ele>126.0</ele><time>2026-03-29T13:09:52.654Z</time></trkpt><trkpt lat="44.9390333" lon="9.6924417"><ele>126.19999999999999</ele><time>2026-03-29T13:09:54.652Z</time></trkpt><trkpt lat="44.93894" lon="9.6924483"><ele>126.39999999999999</ele><time>2026-03-29T13:09:55.654Z</time></trkpt><trkpt lat="44.9388417" lon="9.6924567"><ele>126.6</ele><time>2026-03-29T13:09:56.654Z</time></trkpt><trkpt lat="44.9387433" lon="9.6924633"><ele>126.8</ele><time>2026-03-29T13:09:57.653Z</time></trkpt><trkpt lat="44.938645" lon="9.6924733"><ele>127.0</ele><time>2026-03-29T13:09:58.654Z</time></trkpt><trkpt lat="44.9385433" lon="9.6924833"><ele>127.0</ele><time>2026-03-29T13:09:59.654Z</time></trkpt><trkpt lat="44.938445" lon="9.692495"><ele>126.99999999999999</ele><time>2026-03-29T13:10:00.653Z</time></trkpt><trkpt lat="44.9383483" lon="9.692505"><ele>126.99999999999999</ele><time>2026-03-29T13:10:01.654Z</time></trkpt><trkpt lat="44.9382483" lon="9.6925133"><ele>127.0</ele><time>2026-03-29T13:10:02.654Z</time></trkpt><trkpt lat="44.9381483" lon="9.6925217"><ele>127.0</ele><time>2026-03-29T13:10:03.653Z</time></trkpt><trkpt lat="44.9380433" lon="9.6925317"><ele>127.0</ele><time>2026-03-29T13:10:04.654Z</time></trkpt><trkpt lat="44.937935" lon="9.6925433"><ele>126.99999999999999</ele><time>2026-03-29T13:10:05.654Z</time></trkpt><trkpt lat="44.937825" lon="9.692555"><ele>126.99999999999999</ele><time>2026-03-29T13:10:06.653Z</time></trkpt><trkpt lat="44.9377117" lon="9.6925633"><ele>127.0</ele><time>2026-03-29T13:10:07.655Z</time></trkpt><trkpt lat="44.9375983" lon="9.6925733"><ele>127.0</ele><time>2026-03-29T13:10:08.654Z</time></trkpt><trkpt lat="44.9374867" lon="9.6925833"><ele>127.0</ele><time>2026-03-29T13:10:09.656Z</time></trkpt><trkpt lat="44.93737" lon="9.692595"><ele>127.0</ele><time>2026-03-29T13:10:10.655Z</time></trkpt><trkpt lat="44.9372483" lon="9.6926033"><ele>127.0</ele><time>2026-03-29T13:10:11.654Z</time></trkpt><trkpt lat="44.9371217" lon="9.6926133"><ele>127.0</ele><time>2026-03-29T13:10:12.656Z</time></trkpt><trkpt lat="44.9369933" lon="9.6926217"><ele>127.0</ele><time>2026-03-29T13:10:13.654Z</time></trkpt><trkpt lat="44.93687" lon="9.69263"><ele>126.99999999999999</ele><time>2026-03-29T13:10:14.654Z</time></trkpt><trkpt lat="44.936755" lon="9.6926417"><ele>126.99999999999999</ele><time>2026-03-29T13:10:15.654Z</time></trkpt><trkpt lat="44.93665" lon="9.6926517"><ele>127.0</ele><time>2026-03-29T13:10:16.655Z</time></trkpt><trkpt lat="44.936555" lon="9.69266"><ele>127.0</ele><time>2026-03-29T13:10:17.654Z</time></trkpt><trkpt lat="44.9364683" lon="9.6926717"><ele>127.14285714285714</ele><time>2026-03-29T13:10:18.654Z</time></trkpt><trkpt lat="44.93639" lon="9.6926783"><ele>127.28571428571428</ele><time>2026-03-29T13:10:19.653Z</time></trkpt><trkpt lat="44.9363183" lon="9.6926917"><ele>127.42857142857142</ele><time>2026-03-29T13:10:20.655Z</time></trkpt><trkpt lat="44.9362517" lon="9.6927067"><ele>127.57142857142857</ele><time>2026-03-29T13:10:21.654Z</time></trkpt><trkpt lat="44.9361833" lon="9.6927283"><ele>127.7142857142857</ele><time>2026-03-29T13:10:22.653Z</time></trkpt><trkpt lat="44.9361183" lon="9.6927517"><ele>127.85714285714285</ele><time>2026-03-29T13:10:23.654Z</time></trkpt><trkpt lat="44.9360517" lon="9.69278"><ele>128.0</ele><time>2026-03-29T13:10:24.654Z</time></trkpt><trkpt lat="44.9359883" lon="9.6928117"><ele>127.60000000000001</ele><time>2026-03-29T13:10:25.654Z</time></trkpt><trkpt lat="44.9358717" lon="9.6928633"><ele>127.20000000000002</ele><time>2026-03-29T13:10:27.654Z</time></trkpt><trkpt lat="44.93577" lon="9.6929067"><ele>126.8</ele><time>2026-03-29T13:10:29.654Z</time></trkpt><trkpt lat="44.9356433" lon="9.6929533"><ele>126.4</ele><time>2026-03-29T13:10:31.654Z</time></trkpt><trkpt lat="44.9355733" lon="9.6929833"><ele>126.0</ele><time>2026-03-29T13:10:32.654Z</time></trkpt><trkpt lat="44.9354983" lon="9.6930167"><ele>126.0</ele><time>2026-03-29T13:10:33.654Z</time></trkpt><trkpt lat="44.9354167" lon="9.6930533"><ele>126.0</ele><time>2026-03-29T13:10:34.653Z</time></trkpt><trkpt lat="44.935325" lon="9.69309"><ele>126.0</ele><time>2026-03-29T13:10:35.652Z</time></trkpt><trkpt lat="44.935225" lon="9.6931267"><ele>126.0</ele><time>2026-03-29T13:10:36.654Z</time></trkpt><trkpt lat="44.93512" lon="9.6931633"><ele>126.0</ele><time>2026-03-29T13:10:37.654Z</time></trkpt><trkpt lat="44.93502" lon="9.6932033"><ele>126.4</ele><time>2026-03-29T13:10:38.655Z</time></trkpt><trkpt lat="44.934925" lon="9.693245"><ele>126.8</ele><time>2026-03-29T13:10:39.654Z</time></trkpt><trkpt lat="44.93483" lon="9.69329"><ele>127.20000000000002</ele><time>2026-03-29T13:10:40.654Z</time></trkpt><trkpt lat="44.9347367" lon="9.6933317"><ele>127.60000000000001</ele><time>2026-03-29T13:10:41.653Z</time></trkpt><trkpt lat="44.9346383" lon="9.6933733"><ele>128.0</ele><time>2026-03-29T13:10:42.653Z</time></trkpt><trkpt lat="44.934535" lon="9.6934183"><ele>128.0</ele><time>2026-03-29T13:10:43.654Z</time></trkpt><trkpt lat="44.9344333" lon="9.6934617"><ele>128.0</ele><time>2026-03-29T13:10:44.654Z</time></trkpt><trkpt lat="44.934335" lon="9.693505"><ele>128.0</ele><time>2026-03-29T13:10:45.654Z</time></trkpt><trkpt lat="44.9342383" lon="9.6935467"><ele>128.0</ele><time>2026-03-29T13:10:46.653Z</time></trkpt><trkpt lat="44.93414" lon="9.69359"><ele>128.0</ele><time>2026-03-29T13:10:47.653Z</time></trkpt><trkpt lat="44.9340383" lon="9.6936367"><ele>128.4</ele><time>2026-03-29T13:10:48.653Z</time></trkpt><trkpt lat="44.933935" lon="9.69368"><ele>128.8</ele><time>2026-03-29T13:10:49.653Z</time></trkpt><trkpt lat="44.9338333" lon="9.6937267"><ele>129.2</ele><time>2026-03-29T13:10:50.654Z</time></trkpt><trkpt lat="44.9337317" lon="9.69377"><ele>129.6</ele><time>2026-03-29T13:10:51.654Z</time></trkpt><trkpt lat="44.9336317" lon="9.6938133"><ele>130.0</ele><time>2026-03-29T13:10:52.653Z</time></trkpt><trkpt lat="44.93353" lon="9.6938567"><ele>130.0</ele><time>2026-03-29T13:10:53.654Z</time></trkpt><trkpt lat="44.9334267" lon="9.6938983"><ele>130.0</ele><time>2026-03-29T13:10:54.653Z</time></trkpt><trkpt lat="44.93332" lon="9.6939383"><ele>130.0</ele><time>2026-03-29T13:10:55.654Z</time></trkpt><trkpt lat="44.93321" lon="9.6939783"><ele>130.0</ele><time>2026-03-29T13:10:56.654Z</time></trkpt><trkpt lat="44.9331" lon="9.6940183"><ele>130.0</ele><time>2026-03-29T13:10:57.654Z</time></trkpt><trkpt lat="44.9329933" lon="9.6940533"><ele>130.0</ele><time>2026-03-29T13:10:58.657Z</time></trkpt><trkpt lat="44.9328833" lon="9.694085"><ele>130.0</ele><time>2026-03-29T13:10:59.653Z</time></trkpt><trkpt lat="44.932775" lon="9.6941133"><ele>130.0</ele><time>2026-03-29T13:11:00.654Z</time></trkpt><trkpt lat="44.9326667" lon="9.6941433"><ele>130.0</ele><time>2026-03-29T13:11:01.654Z</time></trkpt><trkpt lat="44.9325583" lon="9.6941717"><ele>130.0</ele><time>2026-03-29T13:11:02.654Z</time></trkpt><trkpt lat="44.9324517" lon="9.6941983"><ele>130.5</ele><time>2026-03-29T13:11:03.653Z</time></trkpt><trkpt lat="44.9323417" lon="9.6942267"><ele>131.0</ele><time>2026-03-29T13:11:04.653Z</time></trkpt><trkpt lat="44.9322283" lon="9.6942533"><ele>131.5</ele><time>2026-03-29T13:11:05.654Z</time></trkpt><trkpt lat="44.932115" lon="9.6942767"><ele>132.0</ele><time>2026-03-29T13:11:06.652Z</time></trkpt><trkpt lat="44.9319983" lon="9.6942983"><ele>132.0</ele><time>2026-03-29T13:11:07.656Z</time></trkpt><trkpt lat="44.93189" lon="9.6943033"><ele>132.0</ele><time>2026-03-29T13:11:08.654Z</time></trkpt><trkpt lat="44.931785" lon="9.694285"><ele>132.0</ele><time>2026-03-29T13:11:09.654Z</time></trkpt><trkpt lat="44.931685" lon="9.694255"><ele>132.0</ele><time>2026-03-29T13:11:10.654Z</time></trkpt><trkpt lat="44.93159" lon="9.6942233"><ele>132.0</ele><time>2026-03-29T13:11:11.654Z</time></trkpt><trkpt lat="44.9315033" lon="9.6941983"><ele>131.83333333333334</ele><time>2026-03-29T13:11:12.654Z</time></trkpt><trkpt lat="44.9314317" lon="9.6941883"><ele>131.66666666666666</ele><time>2026-03-29T13:11:13.654Z</time></trkpt><trkpt lat="44.9313683" lon="9.6941967"><ele>131.5</ele><time>2026-03-29T13:11:14.653Z</time></trkpt><trkpt lat="44.93131" lon="9.6943417"><ele>131.33333333333331</ele><time>2026-03-29T13:11:16.653Z</time></trkpt><trkpt lat="44.9313" lon="9.6944467"><ele>131.16666666666666</ele><time>2026-03-29T13:11:17.654Z</time></trkpt><trkpt lat="44.9312833" lon="9.69454"><ele>131.0</ele><time>2026-03-29T13:11:18.653Z</time></trkpt><trkpt lat="44.9312133" lon="9.6946317"><ele>131.0</ele><time>2026-03-29T13:11:20.654Z</time></trkpt><trkpt lat="44.93111" lon="9.694585"><ele>131.0</ele><time>2026-03-29T13:11:22.653Z</time></trkpt><trkpt lat="44.9310383" lon="9.694535"><ele>131.0</ele><time>2026-03-29T13:11:23.655Z</time></trkpt><trkpt lat="44.93095" lon="9.6944817"><ele>131.0</ele><time>2026-03-29T13:11:24.654Z</time></trkpt><trkpt lat="44.9308517" lon="9.6944267"><ele>131.0</ele><time>2026-03-29T13:11:25.653Z</time></trkpt><trkpt lat="44.9307483" lon="9.6943667"><ele>131.2</ele><time>2026-03-29T13:11:26.653Z</time></trkpt><trkpt lat="44.93065" lon="9.6943067"><ele>131.39999999999998</ele><time>2026-03-29T13:11:27.654Z</time></trkpt><trkpt lat="44.9305583" lon="9.6942517"><ele>131.6</ele><time>2026-03-29T13:11:28.653Z</time></trkpt><trkpt lat="44.930475" lon="9.6942017"><ele>131.79999999999998</ele><time>2026-03-29T13:11:29.653Z</time></trkpt><trkpt lat="44.9303967" lon="9.6941617"><ele>132.0</ele><time>2026-03-29T13:11:30.654Z</time></trkpt><trkpt lat="44.930325" lon="9.6941433"><ele>132.0</ele><time>2026-03-29T13:11:31.654Z</time></trkpt><trkpt lat="44.93026" lon="9.6941483"><ele>132.0</ele><time>2026-03-29T13:11:32.653Z</time></trkpt><trkpt lat="44.9302017" lon="9.69419"><ele>132.0</ele><time>2026-03-29T13:11:33.654Z</time></trkpt><trkpt lat="44.9301517" lon="9.6942633"><ele>132.0</ele><time>2026-03-29T13:11:34.654Z</time></trkpt><trkpt lat="44.930115" lon="9.6943733"><ele>132.0</ele><time>2026-03-29T13:11:35.654Z</time></trkpt><trkpt lat="44.93008" lon="9.6944883"><ele>132.0</ele><time>2026-03-29T13:11:36.653Z</time></trkpt><trkpt lat="44.9300433" lon="9.694605"><ele>132.0</ele><time>2026-03-29T13:11:37.654Z</time></trkpt><trkpt lat="44.9300083" lon="9.6947183"><ele>132.0</ele><time>2026-03-29T13:11:38.654Z</time></trkpt><trkpt lat="44.9299717" lon="9.6948317"><ele>132.0</ele><time>2026-03-29T13:11:39.654Z</time></trkpt><trkpt lat="44.9299317" lon="9.6949567"><ele>132.0</ele><time>2026-03-29T13:11:40.653Z</time></trkpt><trkpt lat="44.9298867" lon="9.695095"><ele>132.0</ele><time>2026-03-29T13:11:41.653Z</time></trkpt><trkpt lat="44.92984" lon="9.69524"><ele>131.79999999999998</ele><time>2026-03-29T13:11:42.654Z</time></trkpt><trkpt lat="44.929795" lon="9.6953833"><ele>131.6</ele><time>2026-03-29T13:11:43.654Z</time></trkpt><trkpt lat="44.9297533" lon="9.69552"><ele>131.39999999999998</ele><time>2026-03-29T13:11:44.653Z</time></trkpt><trkpt lat="44.9297117" lon="9.6956517"><ele>131.2</ele><time>2026-03-29T13:11:45.653Z</time></trkpt><trkpt lat="44.92967" lon="9.6957717"><ele>131.0</ele><time>2026-03-29T13:11:46.653Z</time></trkpt><trkpt lat="44.92963" lon="9.6958783"><ele>131.0</ele><time>2026-03-29T13:11:47.654Z</time></trkpt><trkpt lat="44.9295933" lon="9.6959667"><ele>131.0</ele><time>2026-03-29T13:11:48.653Z</time></trkpt><trkpt lat="44.9295033" lon="9.6960533"><ele>131.0</ele><time>2026-03-29T13:11:50.655Z</time></trkpt><trkpt lat="44.9293867" lon="9.696005"><ele>131.0</ele><time>2026-03-29T13:11:52.654Z</time></trkpt><trkpt lat="44.92931" lon="9.6959617"><ele>131.0</ele><time>2026-03-29T13:11:53.654Z</time></trkpt><trkpt lat="44.9292183" lon="9.6959167"><ele>131.4</ele><time>2026-03-29T13:11:54.655Z</time></trkpt><trkpt lat="44.9291267" lon="9.6958733"><ele>131.8</ele><time>2026-03-29T13:11:55.654Z</time></trkpt><trkpt lat="44.929035" lon="9.6958317"><ele>132.20000000000002</ele><time>2026-03-29T13:11:56.654Z</time></trkpt><trkpt lat="44.928945" lon="9.6957917"><ele>132.6</ele><time>2026-03-29T13:11:57.653Z</time></trkpt><trkpt lat="44.92886" lon="9.6957517"><ele>133.0</ele><time>2026-03-29T13:11:58.654Z</time></trkpt><trkpt lat="44.9287733" lon="9.695715"><ele>133.0</ele><time>2026-03-29T13:11:59.654Z</time></trkpt><trkpt lat="44.9286933" lon="9.69568"><ele>133.0</ele><time>2026-03-29T13:12:00.654Z</time></trkpt><trkpt lat="44.92862" lon="9.6956483"><ele>133.0</ele><time>2026-03-29T13:12:01.654Z</time></trkpt><trkpt lat="44.9285533" lon="9.6956183"><ele>133.0</ele><time>2026-03-29T13:12:02.654Z</time></trkpt><trkpt lat="44.928475" lon="9.6955583"><ele>133.0</ele><time>2026-03-29T13:12:04.654Z</time></trkpt><trkpt lat="44.9284683" lon="9.695465"><ele>133.0</ele><time>2026-03-29T13:12:06.654Z</time></trkpt><trkpt lat="44.928505" lon="9.6952783"><ele>132.75</ele><time>2026-03-29T13:12:08.655Z</time></trkpt><trkpt lat="44.9285383" lon="9.6951533"><ele>132.5</ele><time>2026-03-29T13:12:09.654Z</time></trkpt><trkpt lat="44.9285733" lon="9.69501"><ele>132.25</ele><time>2026-03-29T13:12:10.654Z</time></trkpt><trkpt lat="44.928615" lon="9.6948367"><ele>132.0</ele><time>2026-03-29T13:12:11.654Z</time></trkpt><trkpt lat="44.92866" lon="9.6946533"><ele>132.0</ele><time>2026-03-29T13:12:12.654Z</time></trkpt><trkpt lat="44.92871" lon="9.6944617"><ele>132.0</ele><time>2026-03-29T13:12:13.654Z</time></trkpt><trkpt lat="44.9287617" lon="9.69425"><ele>132.0</ele><time>2026-03-29T13:12:14.654Z</time></trkpt><trkpt lat="44.92882" lon="9.6940067"><ele>132.0</ele><time>2026-03-29T13:12:15.653Z</time></trkpt><trkpt lat="44.9288817" lon="9.693735"><ele>132.0</ele><time>2026-03-29T13:12:16.653Z</time></trkpt><trkpt lat="44.9289383" lon="9.6934533"><ele>132.0</ele><time>2026-03-29T13:12:17.654Z</time></trkpt><trkpt lat="44.9289817" lon="9.6931533"><ele>132.0</ele><time>2026-03-29T13:12:18.654Z</time></trkpt><trkpt lat="44.929015" lon="9.692825"><ele>132.0</ele><time>2026-03-29T13:12:19.653Z</time></trkpt><trkpt lat="44.92904" lon="9.6924867"><ele>132.0</ele><time>2026-03-29T13:12:20.653Z</time></trkpt><trkpt lat="44.92906" lon="9.6921617"><ele>132.0</ele><time>2026-03-29T13:12:21.654Z</time></trkpt><trkpt lat="44.92908" lon="9.6918533"><ele>132.66666666666666</ele><time>2026-03-29T13:12:22.654Z</time></trkpt><trkpt lat="44.9290983" lon="9.691565"><ele>133.33333333333331</ele><time>2026-03-29T13:12:23.655Z</time></trkpt><trkpt lat="44.92913" lon="9.69129"><ele>134.0</ele><time>2026-03-29T13:12:24.654Z</time></trkpt><trkpt lat="44.9291783" lon="9.6910167"><ele>134.0</ele><time>2026-03-29T13:12:25.653Z</time></trkpt><trkpt lat="44.9292317" lon="9.6907567"><ele>134.0</ele><time>2026-03-29T13:12:26.654Z</time></trkpt><trkpt lat="44.9292933" lon="9.690505"><ele>134.0</ele><time>2026-03-29T13:12:27.654Z</time></trkpt><trkpt lat="44.9293567" lon="9.6902517"><ele>134.66666666666666</ele><time>2026-03-29T13:12:28.654Z</time></trkpt><trkpt lat="44.9294267" lon="9.6900017"><ele>135.33333333333334</ele><time>2026-03-29T13:12:29.652Z</time></trkpt><trkpt lat="44.929495" lon="9.689765"><ele>136.0</ele><time>2026-03-29T13:12:30.654Z</time></trkpt><trkpt lat="44.9295617" lon="9.6895333"><ele>136.33333333333334</ele><time>2026-03-29T13:12:31.654Z</time></trkpt><trkpt lat="44.929625" lon="9.6892967"><ele>136.66666666666666</ele><time>2026-03-29T13:12:32.655Z</time></trkpt><trkpt lat="44.9296833" lon="9.6890533"><ele>137.0</ele><time>2026-03-29T13:12:33.654Z</time></trkpt><trkpt lat="44.92974" lon="9.688805"><ele>137.0</ele><time>2026-03-29T13:12:34.655Z</time></trkpt><trkpt lat="44.9297917" lon="9.6885517"><ele>137.0</ele><time>2026-03-29T13:12:35.654Z</time></trkpt><trkpt lat="44.9298433" lon="9.688295"><ele>137.0</ele><time>2026-03-29T13:12:36.654Z</time></trkpt><trkpt lat="44.9298967" lon="9.6880417"><ele>137.0</ele><time>2026-03-29T13:12:37.654Z</time></trkpt><trkpt lat="44.9299533" lon="9.6877883"><ele>137.0</ele><time>2026-03-29T13:12:38.653Z</time></trkpt><trkpt lat="44.93001" lon="9.6875333"><ele>137.0</ele><time>2026-03-29T13:12:39.654Z</time></trkpt><trkpt lat="44.9300667" lon="9.6872733"><ele>136.0</ele><time>2026-03-29T13:12:40.654Z</time></trkpt><trkpt lat="44.930125" lon="9.6870083"><ele>135.0</ele><time>2026-03-29T13:12:41.654Z</time></trkpt><trkpt lat="44.93018" lon="9.6867433"><ele>134.0</ele><time>2026-03-29T13:12:42.652Z</time></trkpt><trkpt lat="44.9302367" lon="9.68648"><ele>134.0</ele><time>2026-03-29T13:12:43.653Z</time></trkpt><trkpt lat="44.93029" lon="9.686225"><ele>134.0</ele><time>2026-03-29T13:12:44.654Z</time></trkpt><trkpt lat="44.9303417" lon="9.6859833"><ele>134.0</ele><time>2026-03-29T13:12:45.654Z</time></trkpt><trkpt lat="44.9303883" lon="9.6857533"><ele>134.33333333333331</ele><time>2026-03-29T13:12:46.654Z</time></trkpt><trkpt lat="44.9304333" lon="9.6855317"><ele>134.66666666666666</ele><time>2026-03-29T13:12:47.653Z</time></trkpt><trkpt lat="44.9304767" lon="9.6853183"><ele>135.0</ele><time>2026-03-29T13:12:48.654Z</time></trkpt><trkpt lat="44.93052" lon="9.6851067"><ele>135.25</ele><time>2026-03-29T13:12:49.655Z</time></trkpt><trkpt lat="44.9305633" lon="9.6849"><ele>135.5</ele><time>2026-03-29T13:12:50.655Z</time></trkpt><trkpt lat="44.9306067" lon="9.6847033"><ele>135.75</ele><time>2026-03-29T13:12:51.654Z</time></trkpt><trkpt lat="44.9306467" lon="9.6845117"><ele>136.0</ele><time>2026-03-29T13:12:52.654Z</time></trkpt><trkpt lat="44.9306867" lon="9.6843233"><ele>136.5</ele><time>2026-03-29T13:12:53.655Z</time></trkpt><trkpt lat="44.9307233" lon="9.6841417"><ele>137.0</ele><time>2026-03-29T13:12:54.654Z</time></trkpt><trkpt lat="44.9307617" lon="9.683965"><ele>137.5</ele><time>2026-03-29T13:12:55.655Z</time></trkpt><trkpt lat="44.9307983" lon="9.6837983"><ele>138.0</ele><time>2026-03-29T13:12:56.655Z</time></trkpt><trkpt lat="44.9308383" lon="9.6836383"><ele>138.0</ele><time>2026-03-29T13:12:57.654Z</time></trkpt><trkpt lat="44.930875" lon="9.683485"><ele>138.0</ele><time>2026-03-29T13:12:58.654Z</time></trkpt><trkpt lat="44.9309067" lon="9.6833417"><ele>138.0</ele><time>2026-03-29T13:12:59.653Z</time></trkpt><trkpt lat="44.9309233" lon="9.683215"><ele>138.0</ele><time>2026-03-29T13:13:00.654Z</time></trkpt><trkpt lat="44.93092" lon="9.6830967"><ele>138.0</ele><time>2026-03-29T13:13:01.653Z</time></trkpt><trkpt lat="44.9309017" lon="9.6829933"><ele>137.83333333333334</ele><time>2026-03-29T13:13:02.654Z</time></trkpt><trkpt lat="44.9308567" lon="9.6829133"><ele>137.66666666666666</ele><time>2026-03-29T13:13:03.654Z</time></trkpt><trkpt lat="44.9307867" lon="9.6828567"><ele>137.5</ele><time>2026-03-29T13:13:04.654Z</time></trkpt><trkpt lat="44.9307183" lon="9.6828067"><ele>137.33333333333331</ele><time>2026-03-29T13:13:05.654Z</time></trkpt><trkpt lat="44.9306517" lon="9.6827567"><ele>137.16666666666666</ele><time>2026-03-29T13:13:06.654Z</time></trkpt><trkpt lat="44.93059" lon="9.68272"><ele>137.0</ele><time>2026-03-29T13:13:07.654Z</time></trkpt><trkpt lat="44.9304583" lon="9.6827417"><ele>137.0</ele><time>2026-03-29T13:13:09.654Z</time></trkpt><trkpt lat="44.930375" lon="9.6827783"><ele>137.0</ele><time>2026-03-29T13:13:10.655Z</time></trkpt><trkpt lat="44.9302667" lon="9.6827917"><ele>137.0</ele><time>2026-03-29T13:13:11.654Z</time></trkpt><trkpt lat="44.9301417" lon="9.6827733"><ele>137.0</ele><time>2026-03-29T13:13:12.654Z</time></trkpt><trkpt lat="44.9300033" lon="9.682745"><ele>138.0</ele><time>2026-03-29T13:13:13.653Z</time></trkpt><trkpt lat="44.9298583" lon="9.68271"><ele>139.0</ele><time>2026-03-29T13:13:14.655Z</time></trkpt><trkpt lat="44.9297117" lon="9.6826733"><ele>140.0</ele><time>2026-03-29T13:13:15.654Z</time></trkpt><trkpt lat="44.9295567" lon="9.682635"><ele>140.0</ele><time>2026-03-29T13:13:16.654Z</time></trkpt><trkpt lat="44.9293983" lon="9.68259"><ele>140.0</ele><time>2026-03-29T13:13:17.654Z</time></trkpt><trkpt lat="44.9292367" lon="9.6825433"><ele>140.0</ele><time>2026-03-29T13:13:18.654Z</time></trkpt><trkpt lat="44.9290717" lon="9.6824933"><ele>140.0</ele><time>2026-03-29T13:13:19.655Z</time></trkpt><trkpt lat="44.9289067" lon="9.6824483"><ele>140.0</ele><time>2026-03-29T13:13:20.654Z</time></trkpt><trkpt lat="44.9287367" lon="9.6824117"><ele>140.0</ele><time>2026-03-29T13:13:21.654Z</time></trkpt><trkpt lat="44.9285617" lon="9.6823767"><ele>139.66666666666666</ele><time>2026-03-29T13:13:22.654Z</time></trkpt><trkpt lat="44.9283817" lon="9.68234"><ele>139.33333333333334</ele><time>2026-03-29T13:13:23.654Z</time></trkpt><trkpt lat="44.9282" lon="9.6823017"><ele>139.0</ele><time>2026-03-29T13:13:24.655Z</time></trkpt><trkpt lat="44.92802" lon="9.68226"><ele>139.0</ele><time>2026-03-29T13:13:25.654Z</time></trkpt><trkpt lat="44.927845" lon="9.682225"><ele>139.0</ele><time>2026-03-29T13:13:26.654Z</time></trkpt><trkpt lat="44.9276717" lon="9.6821883"><ele>139.0</ele><time>2026-03-29T13:13:27.653Z</time></trkpt><trkpt lat="44.927505" lon="9.682155"><ele>139.66666666666669</ele><time>2026-03-29T13:13:28.653Z</time></trkpt><trkpt lat="44.927345" lon="9.6821233"><ele>140.33333333333334</ele><time>2026-03-29T13:13:29.654Z</time></trkpt><trkpt lat="44.92719" lon="9.6820883"><ele>141.0</ele><time>2026-03-29T13:13:30.653Z</time></trkpt><trkpt lat="44.9270333" lon="9.6820517"><ele>141.0</ele><time>2026-03-29T13:13:31.654Z</time></trkpt><trkpt lat="44.9268767" lon="9.6820117"><ele>141.0</ele><time>2026-03-29T13:13:32.654Z</time></trkpt><trkpt lat="44.9267183" lon="9.6819667"><ele>141.0</ele><time>2026-03-29T13:13:33.654Z</time></trkpt><trkpt lat="44.9265617" lon="9.681915"><ele>142.33333333333334</ele><time>2026-03-29T13:13:34.654Z</time></trkpt><trkpt lat="44.9264117" lon="9.6818583"><ele>143.66666666666669</ele><time>2026-03-29T13:13:35.654Z</time></trkpt><trkpt lat="44.926265" lon="9.6817917"><ele>145.0</ele><time>2026-03-29T13:13:36.654Z</time></trkpt><trkpt lat="44.9261167" lon="9.681725"><ele>145.0</ele><time>2026-03-29T13:13:37.654Z</time></trkpt><trkpt lat="44.9259733" lon="9.6816567"><ele>145.0</ele><time>2026-03-29T13:13:38.654Z</time></trkpt><trkpt lat="44.9258417" lon="9.6815883"><ele>145.0</ele><time>2026-03-29T13:13:39.654Z</time></trkpt><trkpt lat="44.9257067" lon="9.681535"><ele>145.0</ele><time>2026-03-29T13:13:40.653Z</time></trkpt><trkpt lat="44.925565" lon="9.6815017"><ele>145.33333333333334</ele><time>2026-03-29T13:13:41.654Z</time></trkpt><trkpt lat="44.9254133" lon="9.6814767"><ele>145.66666666666666</ele><time>2026-03-29T13:13:42.654Z</time></trkpt><trkpt lat="44.9252567" lon="9.681455"><ele>146.0</ele><time>2026-03-29T13:13:43.653Z</time></trkpt><trkpt lat="44.925095" lon="9.68143"><ele>145.75</ele><time>2026-03-29T13:13:44.654Z</time></trkpt><trkpt lat="44.9249383" lon="9.6814067"><ele>145.5</ele><time>2026-03-29T13:13:45.654Z</time></trkpt><trkpt lat="44.9247933" lon="9.6813833"><ele>145.25</ele><time>2026-03-29T13:13:46.652Z</time></trkpt><trkpt lat="44.92465" lon="9.6813583"><ele>145.0</ele><time>2026-03-29T13:13:47.653Z</time></trkpt><trkpt lat="44.9245017" lon="9.68133"><ele>145.0</ele><time>2026-03-29T13:13:48.654Z</time></trkpt><trkpt lat="44.92435" lon="9.6813067"><ele>145.0</ele><time>2026-03-29T13:13:49.652Z</time></trkpt><trkpt lat="44.9241967" lon="9.6812817"><ele>145.0</ele><time>2026-03-29T13:13:50.654Z</time></trkpt><trkpt lat="44.9240417" lon="9.6812567"><ele>145.33333333333334</ele><time>2026-03-29T13:13:51.654Z</time></trkpt><trkpt lat="44.923885" lon="9.68123"><ele>145.66666666666666</ele><time>2026-03-29T13:13:52.654Z</time></trkpt><trkpt lat="44.923725" lon="9.6812017"><ele>146.0</ele><time>2026-03-29T13:13:53.654Z</time></trkpt><trkpt lat="44.9235617" lon="9.6811683"><ele>146.33333333333331</ele><time>2026-03-29T13:13:54.654Z</time></trkpt><trkpt lat="44.923395" lon="9.68113"><ele>146.66666666666666</ele><time>2026-03-29T13:13:55.654Z</time></trkpt><trkpt lat="44.9232267" lon="9.68109"><ele>147.0</ele><time>2026-03-29T13:13:56.654Z</time></trkpt><trkpt lat="44.92306" lon="9.6810417"><ele>147.66666666666666</ele><time>2026-03-29T13:13:57.654Z</time></trkpt><trkpt lat="44.9228933" lon="9.6809883"><ele>148.33333333333331</ele><time>2026-03-29T13:13:58.654Z</time></trkpt><trkpt lat="44.9227317" lon="9.680935"><ele>149.0</ele><time>2026-03-29T13:13:59.652Z</time></trkpt><trkpt lat="44.9225767" lon="9.6808867"><ele>149.25</ele><time>2026-03-29T13:14:00.652Z</time></trkpt><trkpt lat="44.922435" lon="9.68084"><ele>149.5</ele><time>2026-03-29T13:14:01.654Z</time></trkpt><trkpt lat="44.9223083" lon="9.6808"><ele>149.75</ele><time>2026-03-29T13:14:02.654Z</time></trkpt><trkpt lat="44.9222033" lon="9.6807633"><ele>150.0</ele><time>2026-03-29T13:14:03.654Z</time></trkpt><trkpt lat="44.92212" lon="9.6807267"><ele>150.0</ele><time>2026-03-29T13:14:04.653Z</time></trkpt><trkpt lat="44.92206" lon="9.68068"><ele>150.0</ele><time>2026-03-29T13:14:05.654Z</time></trkpt><trkpt lat="44.9220167" lon="9.6805233"><ele>150.0</ele><time>2026-03-29T13:14:07.654Z</time></trkpt><trkpt lat="44.9220233" lon="9.6804167"><ele>150.0</ele><time>2026-03-29T13:14:08.654Z</time></trkpt><trkpt lat="44.9220467" lon="9.6802767"><ele>150.0</ele><time>2026-03-29T13:14:09.653Z</time></trkpt><trkpt lat="44.9220883" lon="9.6801133"><ele>149.8</ele><time>2026-03-29T13:14:10.654Z</time></trkpt><trkpt lat="44.9221317" lon="9.6799517"><ele>149.6</ele><time>2026-03-29T13:14:11.653Z</time></trkpt><trkpt lat="44.9221733" lon="9.679805"><ele>149.4</ele><time>2026-03-29T13:14:12.654Z</time></trkpt><trkpt lat="44.9222133" lon="9.6796683"><ele>149.2</ele><time>2026-03-29T13:14:13.655Z</time></trkpt><trkpt lat="44.9222467" lon="9.67955"><ele>149.0</ele><time>2026-03-29T13:14:14.654Z</time></trkpt><trkpt lat="44.92226" lon="9.6794533"><ele>149.0</ele><time>2026-03-29T13:14:15.654Z</time></trkpt><trkpt lat="44.9222517" lon="9.679365"><ele>149.0</ele><time>2026-03-29T13:14:16.655Z</time></trkpt><trkpt lat="44.9221767" lon="9.67926"><ele>149.0</ele><time>2026-03-29T13:14:18.655Z</time></trkpt><trkpt lat="44.9220817" lon="9.679235"><ele>149.0</ele><time>2026-03-29T13:14:19.653Z</time></trkpt><trkpt lat="44.92197" lon="9.679195"><ele>149.0</ele><time>2026-03-29T13:14:20.656Z</time></trkpt><trkpt lat="44.92186" lon="9.6791467"><ele>149.0</ele><time>2026-03-29T13:14:21.657Z</time></trkpt><trkpt lat="44.9217583" lon="9.6791017"><ele>149.0</ele><time>2026-03-29T13:14:22.653Z</time></trkpt><trkpt lat="44.921665" lon="9.6790567"><ele>149.0</ele><time>2026-03-29T13:14:23.654Z</time></trkpt><trkpt lat="44.9215767" lon="9.6790133"><ele>149.0</ele><time>2026-03-29T13:14:24.655Z</time></trkpt><trkpt lat="44.9214917" lon="9.6789667"><ele>149.0</ele><time>2026-03-29T13:14:25.653Z</time></trkpt><trkpt lat="44.9213983" lon="9.6789233"><ele>149.75</ele><time>2026-03-29T13:14:26.654Z</time></trkpt><trkpt lat="44.9212917" lon="9.6788833"><ele>150.5</ele><time>2026-03-29T13:14:27.654Z</time></trkpt><trkpt lat="44.92117" lon="9.678835"><ele>151.25</ele><time>2026-03-29T13:14:28.653Z</time></trkpt><trkpt lat="44.9210433" lon="9.6787733"><ele>152.0</ele><time>2026-03-29T13:14:29.654Z</time></trkpt><trkpt lat="44.9209067" lon="9.6787033"><ele>152.0</ele><time>2026-03-29T13:14:30.654Z</time></trkpt><trkpt lat="44.9207633" lon="9.6786317"><ele>152.0</ele><time>2026-03-29T13:14:31.656Z</time></trkpt><trkpt lat="44.9206167" lon="9.6785567"><ele>152.0</ele><time>2026-03-29T13:14:32.654Z</time></trkpt><trkpt lat="44.92047" lon="9.6784833"><ele>152.0</ele><time>2026-03-29T13:14:33.653Z</time></trkpt><trkpt lat="44.920325" lon="9.6784017"><ele>152.0</ele><time>2026-03-29T13:14:34.654Z</time></trkpt><trkpt lat="44.920185" lon="9.6783133"><ele>152.0</ele><time>2026-03-29T13:14:35.653Z</time></trkpt><trkpt lat="44.9200567" lon="9.67822"><ele>152.25</ele><time>2026-03-29T13:14:36.653Z</time></trkpt><trkpt lat="44.9199383" lon="9.6781267"><ele>152.5</ele><time>2026-03-29T13:14:37.654Z</time></trkpt><trkpt lat="44.9198317" lon="9.6780317"><ele>152.75</ele><time>2026-03-29T13:14:38.654Z</time></trkpt><trkpt lat="44.91973" lon="9.67794"><ele>153.0</ele><time>2026-03-29T13:14:39.653Z</time></trkpt><trkpt lat="44.919635" lon="9.6778533"><ele>153.0</ele><time>2026-03-29T13:14:40.654Z</time></trkpt><trkpt lat="44.919545" lon="9.6777717"><ele>153.0</ele><time>2026-03-29T13:14:41.654Z</time></trkpt><trkpt lat="44.9194567" lon="9.6776967"><ele>153.0</ele><time>2026-03-29T13:14:42.654Z</time></trkpt><trkpt lat="44.919365" lon="9.67762"><ele>153.0</ele><time>2026-03-29T13:14:43.653Z</time></trkpt><trkpt lat="44.9192667" lon="9.6775383"><ele>153.0</ele><time>2026-03-29T13:14:44.655Z</time></trkpt><trkpt lat="44.9191683" lon="9.6774583"><ele>153.20000000000002</ele><time>2026-03-29T13:14:45.654Z</time></trkpt><trkpt lat="44.9190783" lon="9.6773783"><ele>153.4</ele><time>2026-03-29T13:14:46.654Z</time></trkpt><trkpt lat="44.9189967" lon="9.6773083"><ele>153.60000000000002</ele><time>2026-03-29T13:14:47.653Z</time></trkpt><trkpt lat="44.9189233" lon="9.677255"><ele>153.8</ele><time>2026-03-29T13:14:48.654Z</time></trkpt><trkpt lat="44.91886" lon="9.6772367"><ele>154.0</ele><time>2026-03-29T13:14:49.654Z</time></trkpt><trkpt lat="44.91876" lon="9.677325"><ele>154.0</ele><time>2026-03-29T13:14:51.654Z</time></trkpt><trkpt lat="44.91872" lon="9.6774333"><ele>154.0</ele><time>2026-03-29T13:14:52.653Z</time></trkpt><trkpt lat="44.9186767" lon="9.677565"><ele>154.0</ele><time>2026-03-29T13:14:53.654Z</time></trkpt><trkpt lat="44.9186267" lon="9.6777083"><ele>154.0</ele><time>2026-03-29T13:14:54.654Z</time></trkpt><trkpt lat="44.9185767" lon="9.6778617"><ele>154.0</ele><time>2026-03-29T13:14:55.654Z</time></trkpt><trkpt lat="44.9185283" lon="9.6780133"><ele>154.0</ele><time>2026-03-29T13:14:56.654Z</time></trkpt><trkpt lat="44.9184817" lon="9.6781567"><ele>154.0</ele><time>2026-03-29T13:14:57.654Z</time></trkpt><trkpt lat="44.9184417" lon="9.6782917"><ele>154.0</ele><time>2026-03-29T13:14:58.654Z</time></trkpt><trkpt lat="44.918405" lon="9.6784167"><ele>154.0</ele><time>2026-03-29T13:14:59.654Z</time></trkpt><trkpt lat="44.9183717" lon="9.6785217"><ele>154.0</ele><time>2026-03-29T13:15:00.653Z</time></trkpt><trkpt lat="44.9182983" lon="9.6786267"><ele>154.2</ele><time>2026-03-29T13:15:02.654Z</time></trkpt><trkpt lat="44.9181767" lon="9.6785817"><ele>154.4</ele><time>2026-03-29T13:15:04.654Z</time></trkpt><trkpt lat="44.918085" lon="9.6785283"><ele>154.6</ele><time>2026-03-29T13:15:05.654Z</time></trkpt><trkpt lat="44.9179817" lon="9.67847"><ele>154.8</ele><time>2026-03-29T13:15:06.654Z</time></trkpt><trkpt lat="44.9178783" lon="9.6784183"><ele>155.0</ele><time>2026-03-29T13:15:07.653Z</time></trkpt><trkpt lat="44.91778" lon="9.6783667"><ele>155.0</ele><time>2026-03-29T13:15:08.655Z</time></trkpt><trkpt lat="44.9176833" lon="9.6783183"><ele>155.0</ele><time>2026-03-29T13:15:09.653Z</time></trkpt><trkpt lat="44.91759" lon="9.6782733"><ele>155.0</ele><time>2026-03-29T13:15:10.654Z</time></trkpt><trkpt lat="44.9175017" lon="9.6782333"><ele>155.0</ele><time>2026-03-29T13:15:11.654Z</time></trkpt><trkpt lat="44.9174183" lon="9.678195"><ele>155.0</ele><time>2026-03-29T13:15:12.654Z</time></trkpt><trkpt lat="44.91733" lon="9.6781533"><ele>155.4</ele><time>2026-03-29T13:15:13.653Z</time></trkpt><trkpt lat="44.9172333" lon="9.6781083"><ele>155.8</ele><time>2026-03-29T13:15:14.653Z</time></trkpt><trkpt lat="44.917135" lon="9.67806"><ele>156.2</ele><time>2026-03-29T13:15:15.654Z</time></trkpt><trkpt lat="44.9170467" lon="9.678015"><ele>156.6</ele><time>2026-03-29T13:15:16.653Z</time></trkpt><trkpt lat="44.916965" lon="9.6779733"><ele>157.0</ele><time>2026-03-29T13:15:17.653Z</time></trkpt><trkpt lat="44.9168967" lon="9.677935"><ele>157.0</ele><time>2026-03-29T13:15:18.654Z</time></trkpt><trkpt lat="44.9168217" lon="9.6778533"><ele>157.0</ele><time>2026-03-29T13:15:20.655Z</time></trkpt><trkpt lat="44.9168317" lon="9.6777533"><ele>157.0</ele><time>2026-03-29T13:15:22.653Z</time></trkpt><trkpt lat="44.9168617" lon="9.6776617"><ele>157.0</ele><time>2026-03-29T13:15:24.654Z</time></trkpt><trkpt lat="44.9168883" lon="9.6775417"><ele>157.0</ele><time>2026-03-29T13:15:26.654Z</time></trkpt><trkpt lat="44.9169217" lon="9.67738"><ele>157.0</ele><time>2026-03-29T13:15:28.655Z</time></trkpt><trkpt lat="44.9169583" lon="9.677215"><ele>157.0</ele><time>2026-03-29T13:15:30.654Z</time></trkpt><trkpt lat="44.9169783" lon="9.6771167"><ele>157.0</ele><time>2026-03-29T13:15:31.654Z</time></trkpt><trkpt lat="44.9170033" lon="9.677005"><ele>157.0</ele><time>2026-03-29T13:15:32.655Z</time></trkpt><trkpt lat="44.9170283" lon="9.6768867"><ele>157.0</ele><time>2026-03-29T13:15:33.654Z</time></trkpt><trkpt lat="44.917055" lon="9.6767667"><ele>157.0</ele><time>2026-03-29T13:15:34.654Z</time></trkpt><trkpt lat="44.91708" lon="9.676645"><ele>157.0</ele><time>2026-03-29T13:15:35.654Z</time></trkpt><trkpt lat="44.9171083" lon="9.6765317"><ele>157.0</ele><time>2026-03-29T13:15:36.654Z</time></trkpt><trkpt lat="44.917135" lon="9.6764133"><ele>157.0</ele><time>2026-03-29T13:15:37.653Z</time></trkpt><trkpt lat="44.9171633" lon="9.67629"><ele>157.0</ele><time>2026-03-29T13:15:38.655Z</time></trkpt><trkpt lat="44.9171917" lon="9.6761617"><ele>157.0</ele><time>2026-03-29T13:15:39.655Z</time></trkpt><trkpt lat="44.91722" lon="9.6760317"><ele>157.0</ele><time>2026-03-29T13:15:40.653Z</time></trkpt><trkpt lat="44.91725" lon="9.6759017"><ele>157.0</ele><time>2026-03-29T13:15:41.654Z</time></trkpt><trkpt lat="44.91728" lon="9.6757817"><ele>157.0</ele><time>2026-03-29T13:15:42.654Z</time></trkpt><trkpt lat="44.9173067" lon="9.6756683"><ele>157.0</ele><time>2026-03-29T13:15:43.653Z</time></trkpt><trkpt lat="44.9173317" lon="9.6755567"><ele>157.0</ele><time>2026-03-29T13:15:44.654Z</time></trkpt><trkpt lat="44.9173467" lon="9.6754567"><ele>157.0</ele><time>2026-03-29T13:15:45.654Z</time></trkpt><trkpt lat="44.9173283" lon="9.6753183"><ele>157.0</ele><time>2026-03-29T13:15:47.654Z</time></trkpt><trkpt lat="44.917215" lon="9.6752733"><ele>157.4</ele><time>2026-03-29T13:15:49.653Z</time></trkpt><trkpt lat="44.9171267" lon="9.6752567"><ele>157.79999999999998</ele><time>2026-03-29T13:15:50.654Z</time></trkpt><trkpt lat="44.9170233" lon="9.6752267"><ele>158.2</ele><time>2026-03-29T13:15:51.654Z</time></trkpt><trkpt lat="44.9169083" lon="9.6751883"><ele>158.6</ele><time>2026-03-29T13:15:52.654Z</time></trkpt><trkpt lat="44.91679" lon="9.67515"><ele>159.0</ele><time>2026-03-29T13:15:53.656Z</time></trkpt><trkpt lat="44.9166717" lon="9.6751133"><ele>159.2</ele><time>2026-03-29T13:15:54.654Z</time></trkpt><trkpt lat="44.9165583" lon="9.6750783"><ele>159.4</ele><time>2026-03-29T13:15:55.653Z</time></trkpt><trkpt lat="44.9164517" lon="9.675045"><ele>159.6</ele><time>2026-03-29T13:15:56.654Z</time></trkpt><trkpt lat="44.9163517" lon="9.6750117"><ele>159.8</ele><time>2026-03-29T13:15:57.654Z</time></trkpt><trkpt lat="44.9162567" lon="9.6749883"><ele>160.0</ele><time>2026-03-29T13:15:58.654Z</time></trkpt><trkpt lat="44.9161683" lon="9.6749767"><ele>160.0</ele><time>2026-03-29T13:15:59.653Z</time></trkpt><trkpt lat="44.91609" lon="9.674985"><ele>160.0</ele><time>2026-03-29T13:16:00.653Z</time></trkpt><trkpt lat="44.91602" lon="9.675015"><ele>160.0</ele><time>2026-03-29T13:16:01.653Z</time></trkpt><trkpt lat="44.9159667" lon="9.6750783"><ele>160.0</ele><time>2026-03-29T13:16:02.655Z</time></trkpt><trkpt lat="44.9159283" lon="9.6751767"><ele>160.0</ele><time>2026-03-29T13:16:03.655Z</time></trkpt><trkpt lat="44.9159083" lon="9.6753083"><ele>160.0</ele><time>2026-03-29T13:16:04.654Z</time></trkpt><trkpt lat="44.9158883" lon="9.6754667"><ele>159.25</ele><time>2026-03-29T13:16:05.654Z</time></trkpt><trkpt lat="44.9158633" lon="9.6756367"><ele>158.5</ele><time>2026-03-29T13:16:06.654Z</time></trkpt><trkpt lat="44.915835" lon="9.6758083"><ele>157.75</ele><time>2026-03-29T13:16:07.653Z</time></trkpt><trkpt lat="44.915805" lon="9.6759833"><ele>157.0</ele><time>2026-03-29T13:16:08.655Z</time></trkpt><trkpt lat="44.9157783" lon="9.6761633"><ele>157.0</ele><time>2026-03-29T13:16:09.654Z</time></trkpt><trkpt lat="44.91575" lon="9.67634"><ele>157.0</ele><time>2026-03-29T13:16:10.653Z</time></trkpt><trkpt lat="44.915725" lon="9.6765117"><ele>157.0</ele><time>2026-03-29T13:16:11.655Z</time></trkpt><trkpt lat="44.9157017" lon="9.6766767"><ele>157.0</ele><time>2026-03-29T13:16:12.655Z</time></trkpt><trkpt lat="44.915685" lon="9.67683"><ele>157.0</ele><time>2026-03-29T13:16:13.653Z</time></trkpt><trkpt lat="44.9156683" lon="9.676975"><ele>157.0</ele><time>2026-03-29T13:16:14.654Z</time></trkpt><trkpt lat="44.915655" lon="9.6771083"><ele>157.0</ele><time>2026-03-29T13:16:15.652Z</time></trkpt><trkpt lat="44.91564" lon="9.67724"><ele>157.0</ele><time>2026-03-29T13:16:16.655Z</time></trkpt><trkpt lat="44.91561" lon="9.6773817"><ele>157.0</ele><time>2026-03-29T13:16:17.652Z</time></trkpt><trkpt lat="44.9155733" lon="9.6775383"><ele>157.0</ele><time>2026-03-29T13:16:18.654Z</time></trkpt><trkpt lat="44.9155317" lon="9.6777067"><ele>157.0</ele><time>2026-03-29T13:16:19.654Z</time></trkpt><trkpt lat="44.9154833" lon="9.6778767"><ele>157.0</ele><time>2026-03-29T13:16:20.655Z</time></trkpt><trkpt lat="44.91544" lon="9.6780433"><ele>157.0</ele><time>2026-03-29T13:16:21.653Z</time></trkpt><trkpt lat="44.9153983" lon="9.678205"><ele>156.79999999999998</ele><time>2026-03-29T13:16:22.654Z</time></trkpt><trkpt lat="44.9153583" lon="9.6783583"><ele>156.6</ele><time>2026-03-29T13:16:23.655Z</time></trkpt><trkpt lat="44.9153183" lon="9.6785067"><ele>156.39999999999998</ele><time>2026-03-29T13:16:24.654Z</time></trkpt><trkpt lat="44.9152833" lon="9.6786433"><ele>156.2</ele><time>2026-03-29T13:16:25.655Z</time></trkpt><trkpt lat="44.9152517" lon="9.6787567"><ele>156.0</ele><time>2026-03-29T13:16:26.655Z</time></trkpt><trkpt lat="44.915215" lon="9.6788417"><ele>155.6</ele><time>2026-03-29T13:16:27.654Z</time></trkpt><trkpt lat="44.9151167" lon="9.6789033"><ele>155.2</ele><time>2026-03-29T13:16:29.654Z</time></trkpt><trkpt lat="44.9150417" lon="9.6788817"><ele>154.8</ele><time>2026-03-29T13:16:30.654Z</time></trkpt><trkpt lat="44.9149467" lon="9.6788483"><ele>154.4</ele><time>2026-03-29T13:16:31.654Z</time></trkpt><trkpt lat="44.91483" lon="9.678825"><ele>154.0</ele><time>2026-03-29T13:16:32.654Z</time></trkpt><trkpt lat="44.914715" lon="9.678815"><ele>154.0</ele><time>2026-03-29T13:16:33.655Z</time></trkpt><trkpt lat="44.9146067" lon="9.6788133"><ele>154.0</ele><time>2026-03-29T13:16:34.654Z</time></trkpt><trkpt lat="44.9145" lon="9.6788217"><ele>154.0</ele><time>2026-03-29T13:16:35.654Z</time></trkpt><trkpt lat="44.914395" lon="9.6788267"><ele>154.0</ele><time>2026-03-29T13:16:36.654Z</time></trkpt><trkpt lat="44.9142917" lon="9.6788317"><ele>154.0</ele><time>2026-03-29T13:16:37.654Z</time></trkpt><trkpt lat="44.9141933" lon="9.67883"><ele>153.8</ele><time>2026-03-29T13:16:38.654Z</time></trkpt><trkpt lat="44.9140967" lon="9.6788233"><ele>153.60000000000002</ele><time>2026-03-29T13:16:39.653Z</time></trkpt><trkpt lat="44.914005" lon="9.6788117"><ele>153.4</ele><time>2026-03-29T13:16:40.654Z</time></trkpt><trkpt lat="44.9139183" lon="9.6788"><ele>153.20000000000002</ele><time>2026-03-29T13:16:41.654Z</time></trkpt><trkpt lat="44.9138317" lon="9.6787817"><ele>153.0</ele><time>2026-03-29T13:16:42.654Z</time></trkpt><trkpt lat="44.9137417" lon="9.6787533"><ele>153.0</ele><time>2026-03-29T13:16:43.654Z</time></trkpt><trkpt lat="44.91364" lon="9.6787267"><ele>153.0</ele><time>2026-03-29T13:16:44.653Z</time></trkpt><trkpt lat="44.9135267" lon="9.6786983"><ele>153.0</ele><time>2026-03-29T13:16:45.654Z</time></trkpt><trkpt lat="44.9134017" lon="9.67867"><ele>153.0</ele><time>2026-03-29T13:16:46.654Z</time></trkpt><trkpt lat="44.91327" lon="9.6786417"><ele>153.25</ele><time>2026-03-29T13:16:47.654Z</time></trkpt><trkpt lat="44.91314" lon="9.678615"><ele>153.5</ele><time>2026-03-29T13:16:48.653Z</time></trkpt><trkpt lat="44.9130117" lon="9.6785883"><ele>153.75</ele><time>2026-03-29T13:16:49.654Z</time></trkpt><trkpt lat="44.9128833" lon="9.67856"><ele>154.0</ele><time>2026-03-29T13:16:50.655Z</time></trkpt><trkpt lat="44.9127567" lon="9.678535"><ele>154.0</ele><time>2026-03-29T13:16:51.654Z</time></trkpt><trkpt lat="44.9126333" lon="9.6785067"><ele>154.0</ele><time>2026-03-29T13:16:52.655Z</time></trkpt><trkpt lat="44.9125083" lon="9.6784767"><ele>154.0</ele><time>2026-03-29T13:16:53.655Z</time></trkpt><trkpt lat="44.9123833" lon="9.6784483"><ele>154.0</ele><time>2026-03-29T13:16:54.654Z</time></trkpt><trkpt lat="44.9122567" lon="9.67842"><ele>154.2</ele><time>2026-03-29T13:16:55.655Z</time></trkpt><trkpt lat="44.912135" lon="9.6783917"><ele>154.4</ele><time>2026-03-29T13:16:56.657Z</time></trkpt><trkpt lat="44.9120217" lon="9.678365"><ele>154.6</ele><time>2026-03-29T13:16:57.654Z</time></trkpt><trkpt lat="44.911915" lon="9.6783417"><ele>154.8</ele><time>2026-03-29T13:16:58.654Z</time></trkpt><trkpt lat="44.911815" lon="9.6783233"><ele>155.0</ele><time>2026-03-29T13:16:59.654Z</time></trkpt><trkpt lat="44.9117233" lon="9.6783083"><ele>155.0</ele><time>2026-03-29T13:17:00.654Z</time></trkpt><trkpt lat="44.9116283" lon="9.6783"><ele>155.0</ele><time>2026-03-29T13:17:01.654Z</time></trkpt><trkpt lat="44.9115233" lon="9.678295"><ele>155.0</ele><time>2026-03-29T13:17:02.654Z</time></trkpt><trkpt lat="44.91142" lon="9.6782867"><ele>155.0</ele><time>2026-03-29T13:17:03.654Z</time></trkpt><trkpt lat="44.911325" lon="9.6782767"><ele>155.0</ele><time>2026-03-29T13:17:04.654Z</time></trkpt><trkpt lat="44.9112417" lon="9.678265"><ele>155.0</ele><time>2026-03-29T13:17:05.654Z</time></trkpt><trkpt lat="44.91117" lon="9.6782533"><ele>155.0</ele><time>2026-03-29T13:17:06.654Z</time></trkpt><trkpt lat="44.9110833" lon="9.67819"><ele>155.0</ele><time>2026-03-29T13:17:08.654Z</time></trkpt><trkpt lat="44.911075" lon="9.678055"><ele>155.0</ele><time>2026-03-29T13:17:10.653Z</time></trkpt><trkpt lat="44.9110383" lon="9.6779417"><ele>155.0</ele><time>2026-03-29T13:17:12.654Z</time></trkpt><trkpt lat="44.9109483" lon="9.6778967"><ele>155.0</ele><time>2026-03-29T13:17:14.655Z</time></trkpt><trkpt lat="44.910845" lon="9.6778483"><ele>155.25</ele><time>2026-03-29T13:17:16.653Z</time></trkpt><trkpt lat="44.9107333" lon="9.677795"><ele>155.5</ele><time>2026-03-29T13:17:18.654Z</time></trkpt><trkpt lat="44.91063" lon="9.677785"><ele>155.75</ele><time>2026-03-29T13:17:20.655Z</time></trkpt><trkpt lat="44.9105217" lon="9.6778333"><ele>156.0</ele><time>2026-03-29T13:17:22.654Z</time></trkpt><trkpt lat="44.9104083" lon="9.6778917"><ele>156.0</ele><time>2026-03-29T13:17:24.655Z</time></trkpt><trkpt lat="44.9102867" lon="9.677915"><ele>156.0</ele><time>2026-03-29T13:17:26.654Z</time></trkpt><trkpt lat="44.91022" lon="9.6779033"><ele>156.0</ele><time>2026-03-29T13:17:27.655Z</time></trkpt><trkpt lat="44.9101517" lon="9.6778817"><ele>156.0</ele><time>2026-03-29T13:17:28.654Z</time></trkpt><trkpt lat="44.9100767" lon="9.67786"><ele>156.0</ele><time>2026-03-29T13:17:29.654Z</time></trkpt><trkpt lat="44.9100017" lon="9.67784"><ele>156.0</ele><time>2026-03-29T13:17:30.654Z</time></trkpt><trkpt lat="44.9099217" lon="9.6778217"><ele>156.16666666666666</ele><time>2026-03-29T13:17:31.654Z</time></trkpt><trkpt lat="44.909845" lon="9.6778067"><ele>156.33333333333334</ele><time>2026-03-29T13:17:32.658Z</time></trkpt><trkpt lat="44.9097667" lon="9.6777917"><ele>156.5</ele><time>2026-03-29T13:17:33.654Z</time></trkpt><trkpt lat="44.909685" lon="9.6777783"><ele>156.66666666666669</ele><time>2026-03-29T13:17:34.654Z</time></trkpt><trkpt lat="44.909595" lon="9.67776"><ele>156.83333333333334</ele><time>2026-03-29T13:17:35.654Z</time></trkpt><trkpt lat="44.9095" lon="9.6777433"><ele>157.0</ele><time>2026-03-29T13:17:36.653Z</time></trkpt><trkpt lat="44.9094017" lon="9.677725"><ele>157.2</ele><time>2026-03-29T13:17:37.654Z</time></trkpt><trkpt lat="44.9093033" lon="9.6777083"><ele>157.39999999999998</ele><time>2026-03-29T13:17:38.655Z</time></trkpt><trkpt lat="44.909205" lon="9.6776933"><ele>157.60000000000002</ele><time>2026-03-29T13:17:39.654Z</time></trkpt><trkpt lat="44.9091083" lon="9.6776783"><ele>157.8</ele><time>2026-03-29T13:17:40.654Z</time></trkpt><trkpt lat="44.9090133" lon="9.6776583"><ele>158.0</ele><time>2026-03-29T13:17:41.654Z</time></trkpt><trkpt lat="44.90892" lon="9.67764"><ele>158.16666666666666</ele><time>2026-03-29T13:17:42.654Z</time></trkpt><trkpt lat="44.9088283" lon="9.6776167"><ele>158.33333333333331</ele><time>2026-03-29T13:17:43.654Z</time></trkpt><trkpt lat="44.9087417" lon="9.677595"><ele>158.5</ele><time>2026-03-29T13:17:44.655Z</time></trkpt><trkpt lat="44.9086567" lon="9.6775717"><ele>158.66666666666666</ele><time>2026-03-29T13:17:45.654Z</time></trkpt><trkpt lat="44.90858" lon="9.6775367"><ele>158.83333333333334</ele><time>2026-03-29T13:17:46.655Z</time></trkpt><trkpt lat="44.9085117" lon="9.6774883"><ele>159.0</ele><time>2026-03-29T13:17:47.656Z</time></trkpt><trkpt lat="44.90845" lon="9.677435"><ele>159.14285714285714</ele><time>2026-03-29T13:17:48.655Z</time></trkpt><trkpt lat="44.9083933" lon="9.677385"><ele>159.2857142857143</ele><time>2026-03-29T13:17:49.655Z</time></trkpt><trkpt lat="44.908335" lon="9.67734"><ele>159.42857142857144</ele><time>2026-03-29T13:17:50.655Z</time></trkpt><trkpt lat="44.90827" lon="9.6773017"><ele>159.57142857142856</ele><time>2026-03-29T13:17:51.654Z</time></trkpt><trkpt lat="44.9082033" lon="9.6772717"><ele>159.71428571428572</ele><time>2026-03-29T13:17:52.655Z</time></trkpt><trkpt lat="44.9081383" lon="9.6772517"><ele>159.85714285714286</ele><time>2026-03-29T13:17:53.656Z</time></trkpt><trkpt lat="44.9080717" lon="9.67724"><ele>160.0</ele><time>2026-03-29T13:17:54.655Z</time></trkpt><trkpt lat="44.9080033" lon="9.6772417"><ele>160.0</ele><time>2026-03-29T13:17:55.656Z</time></trkpt><trkpt lat="44.9079317" lon="9.6772583"><ele>160.0</ele><time>2026-03-29T13:17:56.654Z</time></trkpt><trkpt lat="44.9078517" lon="9.6772817"><ele>160.0</ele><time>2026-03-29T13:17:57.654Z</time></trkpt><trkpt lat="44.9077683" lon="9.6773083"><ele>160.0</ele><time>2026-03-29T13:17:58.653Z</time></trkpt><trkpt lat="44.9076833" lon="9.67733"><ele>160.0</ele><time>2026-03-29T13:17:59.653Z</time></trkpt><trkpt lat="44.9075917" lon="9.6773467"><ele>160.0</ele><time>2026-03-29T13:18:00.654Z</time></trkpt><trkpt lat="44.9075033" lon="9.6773467"><ele>160.16666666666669</ele><time>2026-03-29T13:18:01.655Z</time></trkpt><trkpt lat="44.9074167" lon="9.6773317"><ele>160.33333333333334</ele><time>2026-03-29T13:18:02.653Z</time></trkpt><trkpt lat="44.9073283" lon="9.6773083"><ele>160.5</ele><time>2026-03-29T13:18:03.656Z</time></trkpt><trkpt lat="44.9072467" lon="9.677285"><ele>160.66666666666666</ele><time>2026-03-29T13:18:04.654Z</time></trkpt><trkpt lat="44.9071667" lon="9.6772633"><ele>160.83333333333331</ele><time>2026-03-29T13:18:05.653Z</time></trkpt><trkpt lat="44.9070917" lon="9.6772417"><ele>161.0</ele><time>2026-03-29T13:18:06.654Z</time></trkpt><trkpt lat="44.9070233" lon="9.6772117"><ele>161.0</ele><time>2026-03-29T13:18:07.653Z</time></trkpt><trkpt lat="44.9069317" lon="9.67714"><ele>161.0</ele><time>2026-03-29T13:18:09.653Z</time></trkpt><trkpt lat="44.906895" lon="9.677065"><ele>161.0</ele><time>2026-03-29T13:18:12.652Z</time></trkpt><trkpt lat="44.9068883" lon="9.6769633"><ele>161.0</ele><time>2026-03-29T13:18:14.655Z</time></trkpt><trkpt lat="44.9069033" lon="9.6768"><ele>161.0</ele><time>2026-03-29T13:18:16.654Z</time></trkpt><trkpt lat="44.9069167" lon="9.6767017"><ele>161.0</ele><time>2026-03-29T13:18:17.654Z</time></trkpt><trkpt lat="44.9069383" lon="9.6765933"><ele>160.83333333333331</ele><time>2026-03-29T13:18:18.654Z</time></trkpt><trkpt lat="44.9069633" lon="9.6764733"><ele>160.66666666666666</ele><time>2026-03-29T13:18:19.653Z</time></trkpt><trkpt lat="44.90698" lon="9.676345"><ele>160.5</ele><time>2026-03-29T13:18:20.654Z</time></trkpt><trkpt lat="44.9069933" lon="9.6762167"><ele>160.33333333333334</ele><time>2026-03-29T13:18:21.654Z</time></trkpt><trkpt lat="44.907005" lon="9.6760983"><ele>160.16666666666669</ele><time>2026-03-29T13:18:22.654Z</time></trkpt><trkpt lat="44.9070367" lon="9.67599"><ele>160.0</ele><time>2026-03-29T13:18:23.654Z</time></trkpt><trkpt lat="44.907085" lon="9.6758783"><ele>160.0</ele><time>2026-03-29T13:18:24.654Z</time></trkpt><trkpt lat="44.9071367" lon="9.67576"><ele>160.0</ele><time>2026-03-29T13:18:25.654Z</time></trkpt><trkpt lat="44.9071933" lon="9.6756383"><ele>160.0</ele><time>2026-03-29T13:18:26.654Z</time></trkpt><trkpt lat="44.9072483" lon="9.6755217"><ele>160.0</ele><time>2026-03-29T13:18:27.654Z</time></trkpt><trkpt lat="44.9073017" lon="9.6754"><ele>160.0</ele><time>2026-03-29T13:18:28.654Z</time></trkpt><trkpt lat="44.9073583" lon="9.6752767"><ele>160.4</ele><time>2026-03-29T13:18:29.653Z</time></trkpt><trkpt lat="44.9074133" lon="9.6751533"><ele>160.8</ele><time>2026-03-29T13:18:30.654Z</time></trkpt><trkpt lat="44.9074733" lon="9.67504"><ele>161.2</ele><time>2026-03-29T13:18:31.654Z</time></trkpt><trkpt lat="44.9075283" lon="9.6749267"><ele>161.6</ele><time>2026-03-29T13:18:32.654Z</time></trkpt><trkpt lat="44.90758" lon="9.6748133"><ele>162.0</ele><time>2026-03-29T13:18:33.654Z</time></trkpt><trkpt lat="44.907625" lon="9.6747"><ele>161.33333333333334</ele><time>2026-03-29T13:18:34.654Z</time></trkpt><trkpt lat="44.9076617" lon="9.67459"><ele>160.66666666666666</ele><time>2026-03-29T13:18:35.654Z</time></trkpt><trkpt lat="44.9076917" lon="9.674485"><ele>160.0</ele><time>2026-03-29T13:18:36.655Z</time></trkpt><trkpt lat="44.90771" lon="9.674375"><ele>159.33333333333331</ele><time>2026-03-29T13:18:37.654Z</time></trkpt><trkpt lat="44.9077133" lon="9.6742683"><ele>158.66666666666666</ele><time>2026-03-29T13:18:38.654Z</time></trkpt><trkpt lat="44.9077017" lon="9.6741633"><ele>158.0</ele><time>2026-03-29T13:18:39.654Z</time></trkpt><trkpt lat="44.90769" lon="9.6740633"><ele>158.0</ele><time>2026-03-29T13:18:40.654Z</time></trkpt><trkpt lat="44.9076967" lon="9.673965"><ele>158.0</ele><time>2026-03-29T13:18:41.654Z</time></trkpt><trkpt lat="44.907725" lon="9.6738633"><ele>158.0</ele><time>2026-03-29T13:18:42.654Z</time></trkpt><trkpt lat="44.9077717" lon="9.6737583"><ele>158.0</ele><time>2026-03-29T13:18:43.654Z</time></trkpt><trkpt lat="44.907835" lon="9.673655"><ele>158.0</ele><time>2026-03-29T13:18:44.654Z</time></trkpt><trkpt lat="44.9079083" lon="9.6735533"><ele>158.0</ele><time>2026-03-29T13:18:45.653Z</time></trkpt><trkpt lat="44.9079883" lon="9.6734517"><ele>159.0</ele><time>2026-03-29T13:18:46.654Z</time></trkpt><trkpt lat="44.90807" lon="9.6733517"><ele>160.0</ele><time>2026-03-29T13:18:47.653Z</time></trkpt><trkpt lat="44.9081583" lon="9.6732433"><ele>161.0</ele><time>2026-03-29T13:18:48.654Z</time></trkpt><trkpt lat="44.9082467" lon="9.6731317"><ele>162.0</ele><time>2026-03-29T13:18:49.654Z</time></trkpt><trkpt lat="44.9083367" lon="9.67302"><ele>161.6</ele><time>2026-03-29T13:18:50.654Z</time></trkpt><trkpt lat="44.9084233" lon="9.6729167"><ele>161.2</ele><time>2026-03-29T13:18:51.653Z</time></trkpt><trkpt lat="44.908505" lon="9.672815"><ele>160.8</ele><time>2026-03-29T13:18:52.654Z</time></trkpt><trkpt lat="44.9085867" lon="9.672715"><ele>160.4</ele><time>2026-03-29T13:18:53.654Z</time></trkpt><trkpt lat="44.9086583" lon="9.6726233"><ele>160.0</ele><time>2026-03-29T13:18:54.654Z</time></trkpt><trkpt lat="44.9087317" lon="9.6725267"><ele>161.4</ele><time>2026-03-29T13:18:55.653Z</time></trkpt><trkpt lat="44.9088083" lon="9.6724333"><ele>162.8</ele><time>2026-03-29T13:18:56.655Z</time></trkpt><trkpt lat="44.90889" lon="9.6723483"><ele>164.2</ele><time>2026-03-29T13:18:57.654Z</time></trkpt><trkpt lat="44.9089733" lon="9.6722617"><ele>165.6</ele><time>2026-03-29T13:18:58.654Z</time></trkpt><trkpt lat="44.9090567" lon="9.6721667"><ele>167.0</ele><time>2026-03-29T13:18:59.654Z</time></trkpt><trkpt lat="44.9091383" lon="9.6720717"><ele>167.0</ele><time>2026-03-29T13:19:00.654Z</time></trkpt><trkpt lat="44.90922" lon="9.6719817"><ele>167.0</ele><time>2026-03-29T13:19:01.654Z</time></trkpt><trkpt lat="44.9093017" lon="9.6718933"><ele>167.0</ele><time>2026-03-29T13:19:02.654Z</time></trkpt><trkpt lat="44.90938" lon="9.6718083"><ele>167.0</ele><time>2026-03-29T13:19:03.654Z</time></trkpt><trkpt lat="44.9094533" lon="9.6717317"><ele>167.0</ele><time>2026-03-29T13:19:04.654Z</time></trkpt><trkpt lat="44.90952" lon="9.67166"><ele>167.39999999999998</ele><time>2026-03-29T13:19:05.654Z</time></trkpt><trkpt lat="44.9095817" lon="9.671595"><ele>167.79999999999998</ele><time>2026-03-29T13:19:06.654Z</time></trkpt><trkpt lat="44.909635" lon="9.671535"><ele>168.2</ele><time>2026-03-29T13:19:07.653Z</time></trkpt><trkpt lat="44.9097133" lon="9.6714417"><ele>168.6</ele><time>2026-03-29T13:19:09.653Z</time></trkpt><trkpt lat="44.9096867" lon="9.671325"><ele>169.0</ele><time>2026-03-29T13:19:13.654Z</time></trkpt><trkpt lat="44.909565" lon="9.6712433"><ele>169.0</ele><time>2026-03-29T13:19:15.653Z</time></trkpt><trkpt lat="44.909495" lon="9.6712067"><ele>169.0</ele><time>2026-03-29T13:19:16.653Z</time></trkpt><trkpt lat="44.90942" lon="9.6711683"><ele>169.0</ele><time>2026-03-29T13:19:17.653Z</time></trkpt><trkpt lat="44.9093433" lon="9.6711333"><ele>169.0</ele><time>2026-03-29T13:19:18.653Z</time></trkpt><trkpt lat="44.9092717" lon="9.6710983"><ele>169.0</ele><time>2026-03-29T13:19:19.653Z</time></trkpt><trkpt lat="44.909205" lon="9.6710633"><ele>169.0</ele><time>2026-03-29T13:19:20.654Z</time></trkpt><trkpt lat="44.90914" lon="9.6710317"><ele>169.16666666666669</ele><time>2026-03-29T13:19:21.655Z</time></trkpt><trkpt lat="44.90908" lon="9.6710033"><ele>169.33333333333334</ele><time>2026-03-29T13:19:22.654Z</time></trkpt><trkpt lat="44.9089783" lon="9.6709417"><ele>169.5</ele><time>2026-03-29T13:19:24.654Z</time></trkpt><trkpt lat="44.9088617" lon="9.67091"><ele>169.66666666666666</ele><time>2026-03-29T13:19:26.655Z</time></trkpt><trkpt lat="44.9087933" lon="9.6708917"><ele>169.83333333333331</ele><time>2026-03-29T13:19:27.653Z</time></trkpt><trkpt lat="44.9087183" lon="9.6708783"><ele>170.0</ele><time>2026-03-29T13:19:28.653Z</time></trkpt><trkpt lat="44.908635" lon="9.6708733"><ele>170.0</ele><time>2026-03-29T13:19:29.653Z</time></trkpt><trkpt lat="44.9085517" lon="9.67087"><ele>170.0</ele><time>2026-03-29T13:19:30.654Z</time></trkpt><trkpt lat="44.9084617" lon="9.6708717"><ele>170.0</ele><time>2026-03-29T13:19:31.654Z</time></trkpt><trkpt lat="44.90837" lon="9.670875"><ele>170.0</ele><time>2026-03-29T13:19:32.654Z</time></trkpt><trkpt lat="44.90828" lon="9.6708733"><ele>170.0</ele><time>2026-03-29T13:19:33.653Z</time></trkpt><trkpt lat="44.9081917" lon="9.6708633"><ele>170.0</ele><time>2026-03-29T13:19:34.654Z</time></trkpt><trkpt lat="44.9081067" lon="9.6708417"><ele>170.0</ele><time>2026-03-29T13:19:35.653Z</time></trkpt><trkpt lat="44.9080267" lon="9.6708117"><ele>170.0</ele><time>2026-03-29T13:19:36.654Z</time></trkpt><trkpt lat="44.9079467" lon="9.670775"><ele>170.0</ele><time>2026-03-29T13:19:37.654Z</time></trkpt><trkpt lat="44.9078717" lon="9.6707167"><ele>170.0</ele><time>2026-03-29T13:19:38.654Z</time></trkpt><trkpt lat="44.90779" lon="9.6706583"><ele>170.0</ele><time>2026-03-29T13:19:39.654Z</time></trkpt><trkpt lat="44.9077117" lon="9.6705917"><ele>170.0</ele><time>2026-03-29T13:19:40.655Z</time></trkpt><trkpt lat="44.9076283" lon="9.6705233"><ele>170.0</ele><time>2026-03-29T13:19:41.654Z</time></trkpt><trkpt lat="44.90754" lon="9.6704567"><ele>170.0</ele><time>2026-03-29T13:19:42.654Z</time></trkpt><trkpt lat="44.907455" lon="9.6703933"><ele>170.0</ele><time>2026-03-29T13:19:43.655Z</time></trkpt><trkpt lat="44.9073783" lon="9.6703367"><ele>170.0</ele><time>2026-03-29T13:19:44.655Z</time></trkpt><trkpt lat="44.9073067" lon="9.67028"><ele>170.0</ele><time>2026-03-29T13:19:45.654Z</time></trkpt><trkpt lat="44.907235" lon="9.6702233"><ele>170.0</ele><time>2026-03-29T13:19:46.654Z</time></trkpt><trkpt lat="44.9071683" lon="9.6701617"><ele>170.0</ele><time>2026-03-29T13:19:47.654Z</time></trkpt><trkpt lat="44.90711" lon="9.6701033"><ele>170.0</ele><time>2026-03-29T13:19:48.655Z</time></trkpt><trkpt lat="44.9070483" lon="9.67004"><ele>170.0</ele><time>2026-03-29T13:19:49.654Z</time></trkpt><trkpt lat="44.9069783" lon="9.6699667"><ele>170.0</ele><time>2026-03-29T13:19:50.654Z</time></trkpt><trkpt lat="44.906895" lon="9.6698883"><ele>170.0</ele><time>2026-03-29T13:19:51.654Z</time></trkpt><trkpt lat="44.906805" lon="9.669805"><ele>170.0</ele><time>2026-03-29T13:19:52.654Z</time></trkpt><trkpt lat="44.90671" lon="9.6697183"><ele>170.2</ele><time>2026-03-29T13:19:53.653Z</time></trkpt><trkpt lat="44.9066183" lon="9.669625"><ele>170.4</ele><time>2026-03-29T13:19:54.653Z</time></trkpt><trkpt lat="44.9065317" lon="9.6695367"><ele>170.60000000000002</ele><time>2026-03-29T13:19:55.654Z</time></trkpt><trkpt lat="44.9064483" lon="9.6694533"><ele>170.8</ele><time>2026-03-29T13:19:56.655Z</time></trkpt><trkpt lat="44.906365" lon="9.6693767"><ele>171.0</ele><time>2026-03-29T13:19:57.654Z</time></trkpt><trkpt lat="44.9062833" lon="9.6693067"><ele>171.0</ele><time>2026-03-29T13:19:58.654Z</time></trkpt><trkpt lat="44.9062067" lon="9.6692367"><ele>171.0</ele><time>2026-03-29T13:19:59.654Z</time></trkpt><trkpt lat="44.90613" lon="9.6691717"><ele>171.0</ele><time>2026-03-29T13:20:00.653Z</time></trkpt><trkpt lat="44.9060567" lon="9.6691117"><ele>171.0</ele><time>2026-03-29T13:20:01.654Z</time></trkpt><trkpt lat="44.9059883" lon="9.66905"><ele>171.0</ele><time>2026-03-29T13:20:02.655Z</time></trkpt><trkpt lat="44.9059367" lon="9.6689817"><ele>171.0</ele><time>2026-03-29T13:20:03.653Z</time></trkpt><trkpt lat="44.9059017" lon="9.6688083"><ele>171.0</ele><time>2026-03-29T13:20:05.655Z</time></trkpt><trkpt lat="44.90591" lon="9.6686883"><ele>171.0</ele><time>2026-03-29T13:20:06.654Z</time></trkpt><trkpt lat="44.9059283" lon="9.66856"><ele>171.0</ele><time>2026-03-29T13:20:07.654Z</time></trkpt><trkpt lat="44.90596" lon="9.6684283"><ele>171.0</ele><time>2026-03-29T13:20:08.655Z</time></trkpt><trkpt lat="44.906" lon="9.6683083"><ele>171.0</ele><time>2026-03-29T13:20:09.654Z</time></trkpt><trkpt lat="44.9060483" lon="9.6682"><ele>171.60000000000002</ele><time>2026-03-29T13:20:10.654Z</time></trkpt><trkpt lat="44.906105" lon="9.6681033"><ele>172.2</ele><time>2026-03-29T13:20:11.654Z</time></trkpt><trkpt lat="44.90617" lon="9.668005"><ele>172.8</ele><time>2026-03-29T13:20:12.653Z</time></trkpt><trkpt lat="44.9062467" lon="9.667895"><ele>173.39999999999998</ele><time>2026-03-29T13:20:13.655Z</time></trkpt><trkpt lat="44.906335" lon="9.667765"><ele>174.0</ele><time>2026-03-29T13:20:14.654Z</time></trkpt><trkpt lat="44.90644" lon="9.6676183"><ele>174.0</ele><time>2026-03-29T13:20:15.654Z</time></trkpt><trkpt lat="44.90657" lon="9.6674583"><ele>174.0</ele><time>2026-03-29T13:20:16.654Z</time></trkpt><trkpt lat="44.9067033" lon="9.6673017"><ele>174.0</ele><time>2026-03-29T13:20:17.654Z</time></trkpt><trkpt lat="44.9068233" lon="9.66715"><ele>173.75</ele><time>2026-03-29T13:20:18.654Z</time></trkpt><trkpt lat="44.9069333" lon="9.667005"><ele>173.5</ele><time>2026-03-29T13:20:19.653Z</time></trkpt><trkpt lat="44.9070383" lon="9.6668667"><ele>173.25</ele><time>2026-03-29T13:20:20.655Z</time></trkpt><trkpt lat="44.9071383" lon="9.6667333"><ele>173.0</ele><time>2026-03-29T13:20:21.653Z</time></trkpt><trkpt lat="44.90723" lon="9.6666117"><ele>172.8</ele><time>2026-03-29T13:20:22.655Z</time></trkpt><trkpt lat="44.9073133" lon="9.6665033"><ele>172.60000000000002</ele><time>2026-03-29T13:20:23.655Z</time></trkpt><trkpt lat="44.9073867" lon="9.6664083"><ele>172.39999999999998</ele><time>2026-03-29T13:20:24.654Z</time></trkpt><trkpt lat="44.90745" lon="9.6663217"><ele>172.2</ele><time>2026-03-29T13:20:25.654Z</time></trkpt><trkpt lat="44.9075033" lon="9.66625"><ele>172.0</ele><time>2026-03-29T13:20:26.655Z</time></trkpt><trkpt lat="44.9075733" lon="9.66616"><ele>172.0</ele><time>2026-03-29T13:20:28.654Z</time></trkpt><trkpt lat="44.9075867" lon="9.666065"><ele>172.0</ele><time>2026-03-29T13:20:36.653Z</time></trkpt><trkpt lat="44.9075133" lon="9.6659317"><ele>172.0</ele><time>2026-03-29T13:20:38.654Z</time></trkpt><trkpt lat="44.907465" lon="9.6658633"><ele>172.0</ele><time>2026-03-29T13:20:39.654Z</time></trkpt><trkpt lat="44.90743" lon="9.6657883"><ele>172.0</ele><time>2026-03-29T13:20:40.653Z</time></trkpt><trkpt lat="44.907415" lon="9.6657017"><ele>172.0</ele><time>2026-03-29T13:20:41.653Z</time></trkpt><trkpt lat="44.90742" lon="9.6655983"><ele>172.0</ele><time>2026-03-29T13:20:42.653Z</time></trkpt><trkpt lat="44.90745" lon="9.66548"><ele>172.0</ele><time>2026-03-29T13:20:43.653Z</time></trkpt><trkpt lat="44.9075" lon="9.6653517"><ele>172.0</ele><time>2026-03-29T13:20:44.655Z</time></trkpt><trkpt lat="44.90755" lon="9.6652217"><ele>172.0</ele><time>2026-03-29T13:20:45.654Z</time></trkpt><trkpt lat="44.9076" lon="9.66509"><ele>172.0</ele><time>2026-03-29T13:20:46.654Z</time></trkpt><trkpt lat="44.90765" lon="9.6649533"><ele>171.8</ele><time>2026-03-29T13:20:47.654Z</time></trkpt><trkpt lat="44.9076983" lon="9.664815"><ele>171.6</ele><time>2026-03-29T13:20:48.654Z</time></trkpt><trkpt lat="44.907745" lon="9.6646817"><ele>171.4</ele><time>2026-03-29T13:20:49.654Z</time></trkpt><trkpt lat="44.9077883" lon="9.6645467"><ele>171.20000000000002</ele><time>2026-03-29T13:20:50.654Z</time></trkpt><trkpt lat="44.9078217" lon="9.664415"><ele>171.0</ele><time>2026-03-29T13:20:51.653Z</time></trkpt><trkpt lat="44.9078517" lon="9.6642917"><ele>171.33333333333334</ele><time>2026-03-29T13:20:52.654Z</time></trkpt><trkpt lat="44.907875" lon="9.664175"><ele>171.66666666666666</ele><time>2026-03-29T13:20:53.654Z</time></trkpt><trkpt lat="44.9078933" lon="9.664065"><ele>172.0</ele><time>2026-03-29T13:20:54.653Z</time></trkpt><trkpt lat="44.9079133" lon="9.6639633"><ele>172.33333333333331</ele><time>2026-03-29T13:20:55.655Z</time></trkpt><trkpt lat="44.9079283" lon="9.6638583"><ele>172.66666666666666</ele><time>2026-03-29T13:20:56.654Z</time></trkpt><trkpt lat="44.9079483" lon="9.6637467"><ele>173.0</ele><time>2026-03-29T13:20:57.654Z</time></trkpt><trkpt lat="44.90797" lon="9.66363"><ele>173.2</ele><time>2026-03-29T13:20:58.655Z</time></trkpt><trkpt lat="44.9079833" lon="9.6635067"><ele>173.4</ele><time>2026-03-29T13:20:59.655Z</time></trkpt><trkpt lat="44.9079933" lon="9.6633817"><ele>173.6</ele><time>2026-03-29T13:21:00.655Z</time></trkpt><trkpt lat="44.9080017" lon="9.663255"><ele>173.79999999999998</ele><time>2026-03-29T13:21:01.653Z</time></trkpt><trkpt lat="44.9080167" lon="9.6631267"><ele>174.0</ele><time>2026-03-29T13:21:02.654Z</time></trkpt><trkpt lat="44.908035" lon="9.662985"><ele>174.0</ele><time>2026-03-29T13:21:03.654Z</time></trkpt><trkpt lat="44.9080533" lon="9.662825"><ele>174.0</ele><time>2026-03-29T13:21:04.654Z</time></trkpt><trkpt lat="44.9080733" lon="9.66265"><ele>174.0</ele><time>2026-03-29T13:21:05.654Z</time></trkpt><trkpt lat="44.9080933" lon="9.662465"><ele>174.0</ele><time>2026-03-29T13:21:06.653Z</time></trkpt><trkpt lat="44.9081167" lon="9.66227"><ele>174.0</ele><time>2026-03-29T13:21:07.653Z</time></trkpt><trkpt lat="44.9081467" lon="9.6620583"><ele>174.0</ele><time>2026-03-29T13:21:08.654Z</time></trkpt><trkpt lat="44.9081767" lon="9.66184"><ele>174.0</ele><time>2026-03-29T13:21:09.653Z</time></trkpt><trkpt lat="44.908205" lon="9.6616183"><ele>174.0</ele><time>2026-03-29T13:21:10.654Z</time></trkpt><trkpt lat="44.9082317" lon="9.6613867"><ele>174.0</ele><time>2026-03-29T13:21:11.654Z</time></trkpt><trkpt lat="44.9082583" lon="9.6611433"><ele>174.0</ele><time>2026-03-29T13:21:12.653Z</time></trkpt><trkpt lat="44.9082883" lon="9.660895"><ele>174.0</ele><time>2026-03-29T13:21:13.656Z</time></trkpt><trkpt lat="44.90832" lon="9.6606417"><ele>174.0</ele><time>2026-03-29T13:21:14.655Z</time></trkpt><trkpt lat="44.90835" lon="9.6603917"><ele>174.0</ele><time>2026-03-29T13:21:15.654Z</time></trkpt><trkpt lat="44.90838" lon="9.660145"><ele>174.0</ele><time>2026-03-29T13:21:16.655Z</time></trkpt><trkpt lat="44.9084117" lon="9.659895"><ele>174.0</ele><time>2026-03-29T13:21:17.653Z</time></trkpt><trkpt lat="44.908445" lon="9.6596483"><ele>174.0</ele><time>2026-03-29T13:21:18.654Z</time></trkpt><trkpt lat="44.908485" lon="9.6594067"><ele>176.0</ele><time>2026-03-29T13:21:19.656Z</time></trkpt><trkpt lat="44.9085267" lon="9.65918"><ele>178.0</ele><time>2026-03-29T13:21:20.653Z</time></trkpt><trkpt lat="44.9085683" lon="9.6589733"><ele>180.0</ele><time>2026-03-29T13:21:21.654Z</time></trkpt><trkpt lat="44.9086117" lon="9.65879"><ele>180.0</ele><time>2026-03-29T13:21:22.654Z</time></trkpt><trkpt lat="44.9086633" lon="9.6586283"><ele>180.0</ele><time>2026-03-29T13:21:23.653Z</time></trkpt><trkpt lat="44.9087367" lon="9.6584883"><ele>180.0</ele><time>2026-03-29T13:21:24.654Z</time></trkpt><trkpt lat="44.908825" lon="9.6583583"><ele>180.0</ele><time>2026-03-29T13:21:25.654Z</time></trkpt><trkpt lat="44.9089133" lon="9.6582317"><ele>183.0</ele><time>2026-03-29T13:21:26.654Z</time></trkpt><trkpt lat="44.90899" lon="9.6580983"><ele>186.0</ele><time>2026-03-29T13:21:27.654Z</time></trkpt><trkpt lat="44.9090617" lon="9.6579467"><ele>189.0</ele><time>2026-03-29T13:21:28.654Z</time></trkpt><trkpt lat="44.9091317" lon="9.657785"><ele>192.0</ele><time>2026-03-29T13:21:29.653Z</time></trkpt><trkpt lat="44.909195" lon="9.6576117"><ele>192.5</ele><time>2026-03-29T13:21:30.654Z</time></trkpt><trkpt lat="44.90926" lon="9.6574317"><ele>193.0</ele><time>2026-03-29T13:21:31.654Z</time></trkpt><trkpt lat="44.90933" lon="9.65725"><ele>193.5</ele><time>2026-03-29T13:21:32.655Z</time></trkpt><trkpt lat="44.9094017" lon="9.657075"><ele>194.0</ele><time>2026-03-29T13:21:33.653Z</time></trkpt><trkpt lat="44.909465" lon="9.6569083"><ele>194.25</ele><time>2026-03-29T13:21:34.655Z</time></trkpt><trkpt lat="44.9095267" lon="9.6567467"><ele>194.5</ele><time>2026-03-29T13:21:35.654Z</time></trkpt><trkpt lat="44.9095867" lon="9.6565883"><ele>194.75</ele><time>2026-03-29T13:21:36.654Z</time></trkpt><trkpt lat="44.90965" lon="9.6564233"><ele>195.0</ele><time>2026-03-29T13:21:37.654Z</time></trkpt><trkpt lat="44.90971" lon="9.6562483"><ele>195.75</ele><time>2026-03-29T13:21:38.654Z</time></trkpt><trkpt lat="44.90977" lon="9.656065"><ele>196.5</ele><time>2026-03-29T13:21:39.654Z</time></trkpt><trkpt lat="44.9098283" lon="9.6558817"><ele>197.25</ele><time>2026-03-29T13:21:40.653Z</time></trkpt><trkpt lat="44.9098867" lon="9.6556933"><ele>198.0</ele><time>2026-03-29T13:21:41.654Z</time></trkpt><trkpt lat="44.9099483" lon="9.6555067"><ele>198.0</ele><time>2026-03-29T13:21:42.654Z</time></trkpt><trkpt lat="44.9100117" lon="9.6553217"><ele>198.0</ele><time>2026-03-29T13:21:43.654Z</time></trkpt><trkpt lat="44.910075" lon="9.6551483"><ele>198.0</ele><time>2026-03-29T13:21:44.654Z</time></trkpt><trkpt lat="44.9101333" lon="9.654985"><ele>198.0</ele><time>2026-03-29T13:21:45.653Z</time></trkpt><trkpt lat="44.9101933" lon="9.654835"><ele>198.0</ele><time>2026-03-29T13:21:46.654Z</time></trkpt><trkpt lat="44.9102583" lon="9.6547067"><ele>198.0</ele><time>2026-03-29T13:21:47.654Z</time></trkpt><trkpt lat="44.9103267" lon="9.6545967"><ele>198.0</ele><time>2026-03-29T13:21:48.654Z</time></trkpt><trkpt lat="44.9103867" lon="9.6544833"><ele>198.0</ele><time>2026-03-29T13:21:49.654Z</time></trkpt><trkpt lat="44.910435" lon="9.65435"><ele>198.0</ele><time>2026-03-29T13:21:50.653Z</time></trkpt><trkpt lat="44.9104767" lon="9.6542083"><ele>198.2</ele><time>2026-03-29T13:21:51.654Z</time></trkpt><trkpt lat="44.910515" lon="9.6540667"><ele>198.4</ele><time>2026-03-29T13:21:52.654Z</time></trkpt><trkpt lat="44.9105433" lon="9.6539233"><ele>198.6</ele><time>2026-03-29T13:21:53.654Z</time></trkpt><trkpt lat="44.91056" lon="9.6537733"><ele>198.79999999999998</ele><time>2026-03-29T13:21:54.653Z</time></trkpt><trkpt lat="44.9105633" lon="9.6536167"><ele>199.0</ele><time>2026-03-29T13:21:55.654Z</time></trkpt><trkpt lat="44.9105583" lon="9.6534483"><ele>198.0</ele><time>2026-03-29T13:21:56.653Z</time></trkpt><trkpt lat="44.9105533" lon="9.653275"><ele>197.0</ele><time>2026-03-29T13:21:57.654Z</time></trkpt><trkpt lat="44.910545" lon="9.6530917"><ele>196.0</ele><time>2026-03-29T13:21:58.653Z</time></trkpt><trkpt lat="44.91053" lon="9.65291"><ele>195.0</ele><time>2026-03-29T13:21:59.654Z</time></trkpt><trkpt lat="44.910505" lon="9.65273"><ele>194.0</ele><time>2026-03-29T13:22:00.655Z</time></trkpt><trkpt lat="44.910465" lon="9.6525483"><ele>193.0</ele><time>2026-03-29T13:22:01.654Z</time></trkpt><trkpt lat="44.9104133" lon="9.6523583"><ele>192.0</ele><time>2026-03-29T13:22:02.655Z</time></trkpt><trkpt lat="44.9103517" lon="9.652165"><ele>191.0</ele><time>2026-03-29T13:22:03.654Z</time></trkpt><trkpt lat="44.91028" lon="9.6519667"><ele>191.33333333333331</ele><time>2026-03-29T13:22:04.654Z</time></trkpt><trkpt lat="44.9101967" lon="9.65178"><ele>191.66666666666666</ele><time>2026-03-29T13:22:05.654Z</time></trkpt><trkpt lat="44.9100933" lon="9.651605"><ele>192.0</ele><time>2026-03-29T13:22:06.653Z</time></trkpt><trkpt lat="44.9099733" lon="9.6514567"><ele>192.0</ele><time>2026-03-29T13:22:07.654Z</time></trkpt><trkpt lat="44.9098317" lon="9.6513333"><ele>192.0</ele><time>2026-03-29T13:22:08.654Z</time></trkpt><trkpt lat="44.909685" lon="9.6512217"><ele>192.0</ele><time>2026-03-29T13:22:09.654Z</time></trkpt><trkpt lat="44.9095583" lon="9.6511183"><ele>193.2</ele><time>2026-03-29T13:22:10.654Z</time></trkpt><trkpt lat="44.9094467" lon="9.651025"><ele>194.39999999999998</ele><time>2026-03-29T13:22:11.655Z</time></trkpt><trkpt lat="44.9093483" lon="9.6509333"><ele>195.60000000000002</ele><time>2026-03-29T13:22:12.654Z</time></trkpt><trkpt lat="44.9092733" lon="9.65084"><ele>196.8</ele><time>2026-03-29T13:22:13.654Z</time></trkpt><trkpt lat="44.9092233" lon="9.6507417"><ele>198.0</ele><time>2026-03-29T13:22:14.655Z</time></trkpt><trkpt lat="44.90919" lon="9.6506233"><ele>198.0</ele><time>2026-03-29T13:22:15.654Z</time></trkpt><trkpt lat="44.909175" lon="9.6504983"><ele>198.0</ele><time>2026-03-29T13:22:16.655Z</time></trkpt><trkpt lat="44.9091667" lon="9.6503867"><ele>198.0</ele><time>2026-03-29T13:22:17.653Z</time></trkpt><trkpt lat="44.9091483" lon="9.650295"><ele>198.0</ele><time>2026-03-29T13:22:18.655Z</time></trkpt><trkpt lat="44.909075" lon="9.65017"><ele>198.0</ele><time>2026-03-29T13:22:20.655Z</time></trkpt><trkpt lat="44.9089533" lon="9.6501017"><ele>199.0</ele><time>2026-03-29T13:22:22.654Z</time></trkpt><trkpt lat="44.9088667" lon="9.650075"><ele>200.0</ele><time>2026-03-29T13:22:23.655Z</time></trkpt><trkpt lat="44.9087683" lon="9.65005"><ele>201.0</ele><time>2026-03-29T13:22:24.654Z</time></trkpt><trkpt lat="44.9086717" lon="9.650025"><ele>202.0</ele><time>2026-03-29T13:22:25.655Z</time></trkpt><trkpt lat="44.9085783" lon="9.6499983"><ele>203.0</ele><time>2026-03-29T13:22:26.654Z</time></trkpt><trkpt lat="44.9084867" lon="9.6499733"><ele>203.66666666666669</ele><time>2026-03-29T13:22:27.654Z</time></trkpt><trkpt lat="44.9083933" lon="9.6499467"><ele>204.33333333333334</ele><time>2026-03-29T13:22:28.655Z</time></trkpt><trkpt lat="44.90831" lon="9.6499167"><ele>205.0</ele><time>2026-03-29T13:22:29.654Z</time></trkpt><trkpt lat="44.90824" lon="9.64988"><ele>205.66666666666669</ele><time>2026-03-29T13:22:30.654Z</time></trkpt><trkpt lat="44.9081867" lon="9.649825"><ele>206.33333333333334</ele><time>2026-03-29T13:22:31.654Z</time></trkpt><trkpt lat="44.9081517" lon="9.64975"><ele>207.0</ele><time>2026-03-29T13:22:32.655Z</time></trkpt><trkpt lat="44.9081383" lon="9.6496567"><ele>207.0</ele><time>2026-03-29T13:22:33.654Z</time></trkpt><trkpt lat="44.90814" lon="9.6495517"><ele>207.0</ele><time>2026-03-29T13:22:34.655Z</time></trkpt><trkpt lat="44.9081467" lon="9.6494283"><ele>207.0</ele><time>2026-03-29T13:22:35.655Z</time></trkpt><trkpt lat="44.9081583" lon="9.6492883"><ele>207.0</ele><time>2026-03-29T13:22:36.654Z</time></trkpt><trkpt lat="44.908175" lon="9.649145"><ele>207.0</ele><time>2026-03-29T13:22:37.654Z</time></trkpt><trkpt lat="44.9081917" lon="9.649"><ele>207.39999999999998</ele><time>2026-03-29T13:22:38.655Z</time></trkpt><trkpt lat="44.9082033" lon="9.648855"><ele>207.79999999999998</ele><time>2026-03-29T13:22:39.653Z</time></trkpt><trkpt lat="44.908215" lon="9.64872"><ele>208.2</ele><time>2026-03-29T13:22:40.655Z</time></trkpt><trkpt lat="44.9082267" lon="9.6485867"><ele>208.6</ele><time>2026-03-29T13:22:41.654Z</time></trkpt><trkpt lat="44.9082383" lon="9.64845"><ele>209.0</ele><time>2026-03-29T13:22:42.655Z</time></trkpt><trkpt lat="44.9082517" lon="9.6483117"><ele>209.2</ele><time>2026-03-29T13:22:43.653Z</time></trkpt><trkpt lat="44.9082617" lon="9.6481667"><ele>209.39999999999998</ele><time>2026-03-29T13:22:44.654Z</time></trkpt><trkpt lat="44.908275" lon="9.6480283"><ele>209.6</ele><time>2026-03-29T13:22:45.654Z</time></trkpt><trkpt lat="44.9082833" lon="9.6479017"><ele>209.8</ele><time>2026-03-29T13:22:46.653Z</time></trkpt><trkpt lat="44.9082933" lon="9.6477867"><ele>210.0</ele><time>2026-03-29T13:22:47.655Z</time></trkpt><trkpt lat="44.9083017" lon="9.647665"><ele>210.25</ele><time>2026-03-29T13:22:48.653Z</time></trkpt><trkpt lat="44.9083167" lon="9.64753"><ele>210.5</ele><time>2026-03-29T13:22:49.655Z</time></trkpt><trkpt lat="44.9083333" lon="9.6473817"><ele>210.75</ele><time>2026-03-29T13:22:50.655Z</time></trkpt><trkpt lat="44.9083433" lon="9.64721"><ele>211.0</ele><time>2026-03-29T13:22:51.654Z</time></trkpt><trkpt lat="44.9083517" lon="9.64703"><ele>210.75</ele><time>2026-03-29T13:22:52.655Z</time></trkpt><trkpt lat="44.9083567" lon="9.64685"><ele>210.5</ele><time>2026-03-29T13:22:53.655Z</time></trkpt><trkpt lat="44.9083617" lon="9.64667"><ele>210.25</ele><time>2026-03-29T13:22:54.654Z</time></trkpt><trkpt lat="44.90837" lon="9.6465"><ele>210.0</ele><time>2026-03-29T13:22:55.656Z</time></trkpt><trkpt lat="44.9083783" lon="9.64634"><ele>210.0</ele><time>2026-03-29T13:22:56.655Z</time></trkpt><trkpt lat="44.90839" lon="9.64619"><ele>210.0</ele><time>2026-03-29T13:22:57.653Z</time></trkpt><trkpt lat="44.9084" lon="9.6460533"><ele>210.0</ele><time>2026-03-29T13:22:58.654Z</time></trkpt><trkpt lat="44.908405" lon="9.6459233"><ele>210.0</ele><time>2026-03-29T13:22:59.654Z</time></trkpt><trkpt lat="44.9083967" lon="9.6457933"><ele>210.0</ele><time>2026-03-29T13:23:00.654Z</time></trkpt><trkpt lat="44.9083817" lon="9.6456633"><ele>209.83333333333334</ele><time>2026-03-29T13:23:01.654Z</time></trkpt><trkpt lat="44.908365" lon="9.64555"><ele>209.66666666666669</ele><time>2026-03-29T13:23:02.655Z</time></trkpt><trkpt lat="44.90834" lon="9.6454483"><ele>209.5</ele><time>2026-03-29T13:23:03.653Z</time></trkpt><trkpt lat="44.908295" lon="9.645355"><ele>209.33333333333334</ele><time>2026-03-29T13:23:04.654Z</time></trkpt><trkpt lat="44.908225" lon="9.645275"><ele>209.16666666666669</ele><time>2026-03-29T13:23:05.654Z</time></trkpt><trkpt lat="44.908145" lon="9.6451983"><ele>209.0</ele><time>2026-03-29T13:23:06.653Z</time></trkpt><trkpt lat="44.9080583" lon="9.64513"><ele>207.16666666666669</ele><time>2026-03-29T13:23:07.653Z</time></trkpt><trkpt lat="44.9079717" lon="9.6450683"><ele>205.33333333333334</ele><time>2026-03-29T13:23:08.654Z</time></trkpt><trkpt lat="44.90789" lon="9.64501"><ele>203.5</ele><time>2026-03-29T13:23:09.653Z</time></trkpt><trkpt lat="44.9078117" lon="9.6449583"><ele>201.66666666666669</ele><time>2026-03-29T13:23:10.654Z</time></trkpt><trkpt lat="44.9077367" lon="9.6449167"><ele>199.83333333333334</ele><time>2026-03-29T13:23:11.654Z</time></trkpt><trkpt lat="44.9076733" lon="9.6448767"><ele>198.0</ele><time>2026-03-29T13:23:12.655Z</time></trkpt><trkpt lat="44.9075967" lon="9.6447633"><ele>198.0</ele><time>2026-03-29T13:23:14.655Z</time></trkpt><trkpt lat="44.907595" lon="9.6446"><ele>198.0</ele><time>2026-03-29T13:23:16.655Z</time></trkpt><trkpt lat="44.9076483" lon="9.6444433"><ele>198.0</ele><time>2026-03-29T13:23:18.654Z</time></trkpt><trkpt lat="44.9076633" lon="9.6442833"><ele>198.0</ele><time>2026-03-29T13:23:20.654Z</time></trkpt><trkpt lat="44.907635" lon="9.6442"><ele>198.0</ele><time>2026-03-29T13:23:21.654Z</time></trkpt><trkpt lat="44.9075917" lon="9.6441317"><ele>197.5</ele><time>2026-03-29T13:23:22.655Z</time></trkpt><trkpt lat="44.90748" lon="9.6440517"><ele>197.0</ele><time>2026-03-29T13:23:24.654Z</time></trkpt><trkpt lat="44.9074167" lon="9.6440183"><ele>196.5</ele><time>2026-03-29T13:23:25.653Z</time></trkpt><trkpt lat="44.9073433" lon="9.6439817"><ele>196.0</ele><time>2026-03-29T13:23:26.654Z</time></trkpt><trkpt lat="44.907265" lon="9.6439417"><ele>195.5</ele><time>2026-03-29T13:23:27.654Z</time></trkpt><trkpt lat="44.90718" lon="9.6438983"><ele>195.0</ele><time>2026-03-29T13:23:28.653Z</time></trkpt><trkpt lat="44.907095" lon="9.6438533"><ele>195.0</ele><time>2026-03-29T13:23:29.653Z</time></trkpt><trkpt lat="44.90701" lon="9.6438117"><ele>195.0</ele><time>2026-03-29T13:23:30.654Z</time></trkpt><trkpt lat="44.90692" lon="9.64377"><ele>195.0</ele><time>2026-03-29T13:23:31.654Z</time></trkpt><trkpt lat="44.9068217" lon="9.64373"><ele>195.0</ele><time>2026-03-29T13:23:32.653Z</time></trkpt><trkpt lat="44.90672" lon="9.6436883"><ele>195.0</ele><time>2026-03-29T13:23:33.654Z</time></trkpt><trkpt lat="44.9066233" lon="9.6436517"><ele>198.8</ele><time>2026-03-29T13:23:34.654Z</time></trkpt><trkpt lat="44.9065233" lon="9.6436217"><ele>202.6</ele><time>2026-03-29T13:23:35.653Z</time></trkpt><trkpt lat="44.9064183" lon="9.6435933"><ele>206.39999999999998</ele><time>2026-03-29T13:23:36.655Z</time></trkpt><trkpt lat="44.9063117" lon="9.6435683"><ele>210.2</ele><time>2026-03-29T13:23:37.654Z</time></trkpt><trkpt lat="44.9062033" lon="9.6435433"><ele>214.0</ele><time>2026-03-29T13:23:38.654Z</time></trkpt><trkpt lat="44.9060967" lon="9.6435167"><ele>213.99999999999997</ele><time>2026-03-29T13:23:39.654Z</time></trkpt><trkpt lat="44.9059967" lon="9.6434917"><ele>214.0</ele><time>2026-03-29T13:23:40.654Z</time></trkpt><trkpt lat="44.905905" lon="9.6434617"><ele>214.0</ele><time>2026-03-29T13:23:41.653Z</time></trkpt><trkpt lat="44.90582" lon="9.6434367"><ele>214.0</ele><time>2026-03-29T13:23:42.654Z</time></trkpt><trkpt lat="44.90574" lon="9.643405"><ele>213.99999999999997</ele><time>2026-03-29T13:23:43.654Z</time></trkpt><trkpt lat="44.9056617" lon="9.6433733"><ele>214.0</ele><time>2026-03-29T13:23:44.656Z</time></trkpt><trkpt lat="44.9055883" lon="9.6433383"><ele>214.85714285714286</ele><time>2026-03-29T13:23:45.653Z</time></trkpt><trkpt lat="44.90552" lon="9.6432933"><ele>215.71428571428572</ele><time>2026-03-29T13:23:46.653Z</time></trkpt><trkpt lat="44.9054517" lon="9.6432433"><ele>216.57142857142856</ele><time>2026-03-29T13:23:47.654Z</time></trkpt><trkpt lat="44.9053833" lon="9.6432017"><ele>217.42857142857144</ele><time>2026-03-29T13:23:48.654Z</time></trkpt><trkpt lat="44.9053167" lon="9.643175"><ele>218.28571428571428</ele><time>2026-03-29T13:23:49.654Z</time></trkpt><trkpt lat="44.9052483" lon="9.6431667"><ele>219.14285714285714</ele><time>2026-03-29T13:23:50.655Z</time></trkpt><trkpt lat="44.905175" lon="9.6431717"><ele>220.0</ele><time>2026-03-29T13:23:51.654Z</time></trkpt><trkpt lat="44.9051" lon="9.6431917"><ele>220.99999999999997</ele><time>2026-03-29T13:23:52.655Z</time></trkpt><trkpt lat="44.9050217" lon="9.64322"><ele>222.0</ele><time>2026-03-29T13:23:53.655Z</time></trkpt><trkpt lat="44.9049433" lon="9.6432467"><ele>223.0</ele><time>2026-03-29T13:23:54.654Z</time></trkpt><trkpt lat="44.904865" lon="9.643265"><ele>224.0</ele><time>2026-03-29T13:23:55.654Z</time></trkpt><trkpt lat="44.9047883" lon="9.64328"><ele>224.99999999999997</ele><time>2026-03-29T13:23:56.655Z</time></trkpt><trkpt lat="44.90472" lon="9.6432917"><ele>226.0</ele><time>2026-03-29T13:23:57.653Z</time></trkpt><trkpt lat="44.90461" lon="9.64327"><ele>225.99999999999997</ele><time>2026-03-29T13:23:59.654Z</time></trkpt><trkpt lat="44.9045417" lon="9.64317"><ele>226.0</ele><time>2026-03-29T13:24:01.654Z</time></trkpt><trkpt lat="44.9045133" lon="9.643055"><ele>226.0</ele><time>2026-03-29T13:24:03.654Z</time></trkpt><trkpt lat="44.9045333" lon="9.6429383"><ele>226.0</ele><time>2026-03-29T13:24:05.654Z</time></trkpt><trkpt lat="44.9045683" lon="9.64282"><ele>225.99999999999997</ele><time>2026-03-29T13:24:07.657Z</time></trkpt><trkpt lat="44.9045567" lon="9.64273"><ele>226.0</ele><time>2026-03-29T13:24:09.658Z</time></trkpt><trkpt lat="44.9044783" lon="9.64266"><ele>225.20000000000002</ele><time>2026-03-29T13:24:11.654Z</time></trkpt><trkpt lat="44.904385" lon="9.642585"><ele>224.40000000000003</ele><time>2026-03-29T13:24:13.654Z</time></trkpt><trkpt lat="44.9043367" lon="9.642465"><ele>223.6</ele><time>2026-03-29T13:24:15.654Z</time></trkpt><trkpt lat="44.9043633" lon="9.642285"><ele>222.8</ele><time>2026-03-29T13:24:17.653Z</time></trkpt><trkpt lat="44.9043967" lon="9.64218"><ele>222.0</ele><time>2026-03-29T13:24:18.653Z</time></trkpt><trkpt lat="44.90441" lon="9.64209"><ele>222.2</ele><time>2026-03-29T13:24:19.654Z</time></trkpt><trkpt lat="44.904365" lon="9.6419367"><ele>222.39999999999998</ele><time>2026-03-29T13:24:21.654Z</time></trkpt><trkpt lat="44.9043033" lon="9.641885"><ele>222.60000000000002</ele><time>2026-03-29T13:24:22.653Z</time></trkpt><trkpt lat="44.904225" lon="9.641845"><ele>222.8</ele><time>2026-03-29T13:24:23.655Z</time></trkpt><trkpt lat="44.9041367" lon="9.6418083"><ele>223.0</ele><time>2026-03-29T13:24:24.653Z</time></trkpt><trkpt lat="44.9040433" lon="9.6417717"><ele>223.60000000000002</ele><time>2026-03-29T13:24:25.654Z</time></trkpt><trkpt lat="44.9039467" lon="9.6417317"><ele>224.20000000000002</ele><time>2026-03-29T13:24:26.656Z</time></trkpt><trkpt lat="44.90385" lon="9.6416867"><ele>224.8</ele><time>2026-03-29T13:24:27.654Z</time></trkpt><trkpt lat="44.9037583" lon="9.6416417"><ele>225.4</ele><time>2026-03-29T13:24:28.654Z</time></trkpt><trkpt lat="44.9036717" lon="9.6416017"><ele>226.0</ele><time>2026-03-29T13:24:29.654Z</time></trkpt><trkpt lat="44.9035833" lon="9.6415583"><ele>226.0</ele><time>2026-03-29T13:24:30.654Z</time></trkpt><trkpt lat="44.9034967" lon="9.6415183"><ele>226.00000000000003</ele><time>2026-03-29T13:24:31.654Z</time></trkpt><trkpt lat="44.9034117" lon="9.6414783"><ele>226.00000000000003</ele><time>2026-03-29T13:24:32.653Z</time></trkpt><trkpt lat="44.903325" lon="9.6414367"><ele>226.0</ele><time>2026-03-29T13:24:33.654Z</time></trkpt><trkpt lat="44.9032383" lon="9.6413883"><ele>226.0</ele><time>2026-03-29T13:24:34.653Z</time></trkpt><trkpt lat="44.90315" lon="9.64134"><ele>226.8</ele><time>2026-03-29T13:24:35.653Z</time></trkpt><trkpt lat="44.90306" lon="9.6412983"><ele>227.60000000000002</ele><time>2026-03-29T13:24:36.654Z</time></trkpt><trkpt lat="44.90297" lon="9.6412567"><ele>228.4</ele><time>2026-03-29T13:24:37.654Z</time></trkpt><trkpt lat="44.9028783" lon="9.6412167"><ele>229.2</ele><time>2026-03-29T13:24:38.655Z</time></trkpt><trkpt lat="44.9027817" lon="9.6411733"><ele>230.0</ele><time>2026-03-29T13:24:39.655Z</time></trkpt><trkpt lat="44.9026883" lon="9.64113"><ele>230.0</ele><time>2026-03-29T13:24:40.654Z</time></trkpt><trkpt lat="44.9025933" lon="9.641085"><ele>230.0</ele><time>2026-03-29T13:24:41.654Z</time></trkpt><trkpt lat="44.9025017" lon="9.6410383"><ele>230.0</ele><time>2026-03-29T13:24:42.654Z</time></trkpt><trkpt lat="44.90241" lon="9.640995"><ele>230.0</ele><time>2026-03-29T13:24:43.654Z</time></trkpt><trkpt lat="44.90232" lon="9.6409533"><ele>230.0</ele><time>2026-03-29T13:24:44.654Z</time></trkpt><trkpt lat="44.9022333" lon="9.6409117"><ele>230.66666666666669</ele><time>2026-03-29T13:24:45.654Z</time></trkpt><trkpt lat="44.9021533" lon="9.640865"><ele>231.33333333333334</ele><time>2026-03-29T13:24:46.653Z</time></trkpt><trkpt lat="44.9020783" lon="9.64081"><ele>232.0</ele><time>2026-03-29T13:24:47.654Z</time></trkpt><trkpt lat="44.902005" lon="9.6407567"><ele>232.66666666666669</ele><time>2026-03-29T13:24:48.654Z</time></trkpt><trkpt lat="44.90192" lon="9.64072"><ele>233.33333333333334</ele><time>2026-03-29T13:24:49.655Z</time></trkpt><trkpt lat="44.90183" lon="9.6406883"><ele>234.0</ele><time>2026-03-29T13:24:50.655Z</time></trkpt><trkpt lat="44.9017383" lon="9.64065"><ele>234.39999999999998</ele><time>2026-03-29T13:24:51.654Z</time></trkpt><trkpt lat="44.901645" lon="9.640605"><ele>234.79999999999998</ele><time>2026-03-29T13:24:52.655Z</time></trkpt><trkpt lat="44.9015533" lon="9.6405617"><ele>235.20000000000002</ele><time>2026-03-29T13:24:53.655Z</time></trkpt><trkpt lat="44.9014617" lon="9.6405167"><ele>235.60000000000002</ele><time>2026-03-29T13:24:54.654Z</time></trkpt><trkpt lat="44.90137" lon="9.6404733"><ele>236.0</ele><time>2026-03-29T13:24:55.657Z</time></trkpt><trkpt lat="44.90128" lon="9.64043"><ele>236.0</ele><time>2026-03-29T13:24:56.654Z</time></trkpt><trkpt lat="44.9011867" lon="9.6403817"><ele>236.00000000000003</ele><time>2026-03-29T13:24:57.654Z</time></trkpt><trkpt lat="44.9010917" lon="9.640335"><ele>236.00000000000003</ele><time>2026-03-29T13:24:58.654Z</time></trkpt><trkpt lat="44.9009983" lon="9.6402867"><ele>236.0</ele><time>2026-03-29T13:24:59.654Z</time></trkpt><trkpt lat="44.9009017" lon="9.6402383"><ele>236.0</ele><time>2026-03-29T13:25:00.66Z</time></trkpt><trkpt lat="44.9008067" lon="9.64019"><ele>236.8</ele><time>2026-03-29T13:25:01.654Z</time></trkpt><trkpt lat="44.90071" lon="9.64014"><ele>237.60000000000002</ele><time>2026-03-29T13:25:02.655Z</time></trkpt><trkpt lat="44.9006083" lon="9.640085"><ele>238.4</ele><time>2026-03-29T13:25:03.654Z</time></trkpt><trkpt lat="44.9005017" lon="9.640025"><ele>239.2</ele><time>2026-03-29T13:25:04.654Z</time></trkpt><trkpt lat="44.9003933" lon="9.639965"><ele>240.0</ele><time>2026-03-29T13:25:05.655Z</time></trkpt><trkpt lat="44.9002833" lon="9.6399117"><ele>240.0</ele><time>2026-03-29T13:25:06.654Z</time></trkpt><trkpt lat="44.9001783" lon="9.6398617"><ele>240.0</ele><time>2026-03-29T13:25:07.655Z</time></trkpt><trkpt lat="44.9000767" lon="9.6398117"><ele>240.0</ele><time>2026-03-29T13:25:08.654Z</time></trkpt><trkpt lat="44.8999767" lon="9.63976"><ele>240.0</ele><time>2026-03-29T13:25:09.653Z</time></trkpt><trkpt lat="44.89988" lon="9.6397083"><ele>240.0</ele><time>2026-03-29T13:25:10.654Z</time></trkpt><trkpt lat="44.899785" lon="9.6396567"><ele>240.2</ele><time>2026-03-29T13:25:11.654Z</time></trkpt><trkpt lat="44.8996883" lon="9.639605"><ele>240.4</ele><time>2026-03-29T13:25:12.656Z</time></trkpt><trkpt lat="44.8995917" lon="9.63956"><ele>240.60000000000002</ele><time>2026-03-29T13:25:13.655Z</time></trkpt><trkpt lat="44.8994967" lon="9.6395233"><ele>240.8</ele><time>2026-03-29T13:25:14.654Z</time></trkpt><trkpt lat="44.8993983" lon="9.6394967"><ele>241.0</ele><time>2026-03-29T13:25:15.654Z</time></trkpt><trkpt lat="44.8992983" lon="9.639475"><ele>241.60000000000002</ele><time>2026-03-29T13:25:16.654Z</time></trkpt><trkpt lat="44.8991983" lon="9.6394617"><ele>242.20000000000002</ele><time>2026-03-29T13:25:17.655Z</time></trkpt><trkpt lat="44.8991" lon="9.6394533"><ele>242.79999999999998</ele><time>2026-03-29T13:25:18.654Z</time></trkpt><trkpt lat="44.8990017" lon="9.6394517"><ele>243.39999999999998</ele><time>2026-03-29T13:25:19.656Z</time></trkpt><trkpt lat="44.8989067" lon="9.63945"><ele>244.0</ele><time>2026-03-29T13:25:20.654Z</time></trkpt><trkpt lat="44.8988117" lon="9.6394417"><ele>244.0</ele><time>2026-03-29T13:25:21.655Z</time></trkpt><trkpt lat="44.8987117" lon="9.63943"><ele>243.99999999999997</ele><time>2026-03-29T13:25:22.657Z</time></trkpt><trkpt lat="44.89861" lon="9.6394183"><ele>243.99999999999997</ele><time>2026-03-29T13:25:23.656Z</time></trkpt><trkpt lat="44.8985083" lon="9.6394117"><ele>244.0</ele><time>2026-03-29T13:25:24.653Z</time></trkpt><trkpt lat="44.89841" lon="9.639405"><ele>244.0</ele><time>2026-03-29T13:25:25.655Z</time></trkpt><trkpt lat="44.8983133" lon="9.639395"><ele>245.39999999999998</ele><time>2026-03-29T13:25:26.655Z</time></trkpt><trkpt lat="44.8982167" lon="9.639385"><ele>246.79999999999998</ele><time>2026-03-29T13:25:27.654Z</time></trkpt><trkpt lat="44.8981217" lon="9.6393733"><ele>248.20000000000002</ele><time>2026-03-29T13:25:28.655Z</time></trkpt><trkpt lat="44.89803" lon="9.6393633"><ele>249.60000000000002</ele><time>2026-03-29T13:25:29.654Z</time></trkpt><trkpt lat="44.8979367" lon="9.6393567"><ele>251.0</ele><time>2026-03-29T13:25:30.654Z</time></trkpt><trkpt lat="44.897845" lon="9.63935"><ele>251.0</ele><time>2026-03-29T13:25:31.654Z</time></trkpt><trkpt lat="44.8977483" lon="9.63934"><ele>251.00000000000003</ele><time>2026-03-29T13:25:32.654Z</time></trkpt><trkpt lat="44.8976483" lon="9.63933"><ele>251.00000000000003</ele><time>2026-03-29T13:25:33.654Z</time></trkpt><trkpt lat="44.8975467" lon="9.63932"><ele>251.0</ele><time>2026-03-29T13:25:34.654Z</time></trkpt><trkpt lat="44.89745" lon="9.6393133"><ele>251.0</ele><time>2026-03-29T13:25:35.654Z</time></trkpt><trkpt lat="44.8973583" lon="9.639305"><ele>251.33333333333334</ele><time>2026-03-29T13:25:36.654Z</time></trkpt><trkpt lat="44.8972683" lon="9.6392917"><ele>251.66666666666669</ele><time>2026-03-29T13:25:37.653Z</time></trkpt><trkpt lat="44.8971767" lon="9.6392733"><ele>252.0</ele><time>2026-03-29T13:25:38.657Z</time></trkpt><trkpt lat="44.8970883" lon="9.639245"><ele>252.33333333333331</ele><time>2026-03-29T13:25:39.655Z</time></trkpt><trkpt lat="44.8970067" lon="9.6392067"><ele>252.66666666666666</ele><time>2026-03-29T13:25:40.654Z</time></trkpt><trkpt lat="44.8969233" lon="9.6391783"><ele>253.0</ele><time>2026-03-29T13:25:41.654Z</time></trkpt><trkpt lat="44.8968317" lon="9.6391617"><ele>253.5</ele><time>2026-03-29T13:25:42.654Z</time></trkpt><trkpt lat="44.89673" lon="9.6391517"><ele>254.0</ele><time>2026-03-29T13:25:43.654Z</time></trkpt><trkpt lat="44.8966183" lon="9.6391433"><ele>254.5</ele><time>2026-03-29T13:25:44.654Z</time></trkpt><trkpt lat="44.8964983" lon="9.639135"><ele>255.0</ele><time>2026-03-29T13:25:45.654Z</time></trkpt><trkpt lat="44.89638" lon="9.63913"><ele>255.0</ele><time>2026-03-29T13:25:46.654Z</time></trkpt><trkpt lat="44.896265" lon="9.6391317"><ele>255.0</ele><time>2026-03-29T13:25:47.655Z</time></trkpt><trkpt lat="44.8961517" lon="9.639135"><ele>255.0</ele><time>2026-03-29T13:25:48.654Z</time></trkpt><trkpt lat="44.8960367" lon="9.63914"><ele>255.0</ele><time>2026-03-29T13:25:49.655Z</time></trkpt><trkpt lat="44.89593" lon="9.63915"><ele>254.8</ele><time>2026-03-29T13:25:50.653Z</time></trkpt><trkpt lat="44.89583" lon="9.6391667"><ele>254.6</ele><time>2026-03-29T13:25:51.654Z</time></trkpt><trkpt lat="44.89573" lon="9.6391967"><ele>254.39999999999998</ele><time>2026-03-29T13:25:52.653Z</time></trkpt><trkpt lat="44.8956333" lon="9.639235"><ele>254.2</ele><time>2026-03-29T13:25:53.654Z</time></trkpt><trkpt lat="44.8955333" lon="9.63926"><ele>254.0</ele><time>2026-03-29T13:25:54.654Z</time></trkpt><trkpt lat="44.8954267" lon="9.6392683"><ele>254.0</ele><time>2026-03-29T13:25:55.656Z</time></trkpt><trkpt lat="44.8953167" lon="9.6392617"><ele>254.0</ele><time>2026-03-29T13:25:56.655Z</time></trkpt><trkpt lat="44.8952017" lon="9.6392567"><ele>254.0</ele><time>2026-03-29T13:25:57.654Z</time></trkpt><trkpt lat="44.8950867" lon="9.6392567"><ele>254.0</ele><time>2026-03-29T13:25:58.653Z</time></trkpt><trkpt lat="44.8949667" lon="9.6392617"><ele>254.5</ele><time>2026-03-29T13:25:59.653Z</time></trkpt><trkpt lat="44.8948533" lon="9.6392667"><ele>255.0</ele><time>2026-03-29T13:26:00.654Z</time></trkpt><trkpt lat="44.8947383" lon="9.6392767"><ele>255.5</ele><time>2026-03-29T13:26:01.655Z</time></trkpt><trkpt lat="44.8946217" lon="9.6392867"><ele>256.0</ele><time>2026-03-29T13:26:02.654Z</time></trkpt><trkpt lat="44.8945033" lon="9.6392933"><ele>256.0</ele><time>2026-03-29T13:26:03.654Z</time></trkpt><trkpt lat="44.8943883" lon="9.6392967"><ele>256.0</ele><time>2026-03-29T13:26:04.654Z</time></trkpt><trkpt lat="44.8942767" lon="9.6392983"><ele>256.0</ele><time>2026-03-29T13:26:05.654Z</time></trkpt><trkpt lat="44.8941667" lon="9.639305"><ele>256.0</ele><time>2026-03-29T13:26:06.655Z</time></trkpt><trkpt lat="44.89406" lon="9.6393133"><ele>256.0</ele><time>2026-03-29T13:26:07.654Z</time></trkpt><trkpt lat="44.893965" lon="9.63932"><ele>257.0</ele><time>2026-03-29T13:26:08.654Z</time></trkpt><trkpt lat="44.8938733" lon="9.6393217"><ele>258.0</ele><time>2026-03-29T13:26:09.654Z</time></trkpt><trkpt lat="44.89378" lon="9.639305"><ele>259.0</ele><time>2026-03-29T13:26:10.654Z</time></trkpt><trkpt lat="44.8936867" lon="9.639275"><ele>260.0</ele><time>2026-03-29T13:26:11.654Z</time></trkpt><trkpt lat="44.8935867" lon="9.639235"><ele>261.0</ele><time>2026-03-29T13:26:12.654Z</time></trkpt><trkpt lat="44.8934733" lon="9.6391983"><ele>262.40000000000003</ele><time>2026-03-29T13:26:13.656Z</time></trkpt><trkpt lat="44.8933633" lon="9.63917"><ele>263.8</ele><time>2026-03-29T13:26:14.656Z</time></trkpt><trkpt lat="44.8932567" lon="9.6391433"><ele>265.20000000000005</ele><time>2026-03-29T13:26:15.653Z</time></trkpt><trkpt lat="44.8931483" lon="9.6391167"><ele>266.6</ele><time>2026-03-29T13:26:16.654Z</time></trkpt><trkpt lat="44.8930433" lon="9.6391017"><ele>268.0</ele><time>2026-03-29T13:26:17.654Z</time></trkpt><trkpt lat="44.8929417" lon="9.639085"><ele>268.0</ele><time>2026-03-29T13:26:18.654Z</time></trkpt><trkpt lat="44.8928433" lon="9.6390633"><ele>268.0</ele><time>2026-03-29T13:26:19.654Z</time></trkpt><trkpt lat="44.892745" lon="9.6390467"><ele>268.0</ele><time>2026-03-29T13:26:20.654Z</time></trkpt><trkpt lat="44.892645" lon="9.6390283"><ele>268.0</ele><time>2026-03-29T13:26:21.653Z</time></trkpt><trkpt lat="44.8925483" lon="9.63899"><ele>268.0</ele><time>2026-03-29T13:26:22.655Z</time></trkpt><trkpt lat="44.8924517" lon="9.6389367"><ele>268.8</ele><time>2026-03-29T13:26:23.655Z</time></trkpt><trkpt lat="44.8923567" lon="9.6388783"><ele>269.6</ele><time>2026-03-29T13:26:24.653Z</time></trkpt><trkpt lat="44.89226" lon="9.63881"><ele>270.4</ele><time>2026-03-29T13:26:25.654Z</time></trkpt><trkpt lat="44.89216" lon="9.6387433"><ele>271.2</ele><time>2026-03-29T13:26:26.654Z</time></trkpt><trkpt lat="44.8920583" lon="9.6386817"><ele>272.0</ele><time>2026-03-29T13:26:27.653Z</time></trkpt><trkpt lat="44.8919567" lon="9.638625"><ele>272.0</ele><time>2026-03-29T13:26:28.654Z</time></trkpt><trkpt lat="44.891855" lon="9.638575"><ele>272.0</ele><time>2026-03-29T13:26:29.653Z</time></trkpt><trkpt lat="44.89175" lon="9.6385317"><ele>272.0</ele><time>2026-03-29T13:26:30.655Z</time></trkpt><trkpt lat="44.89165" lon="9.638485"><ele>272.0</ele><time>2026-03-29T13:26:31.654Z</time></trkpt><trkpt lat="44.8915533" lon="9.6384267"><ele>272.0</ele><time>2026-03-29T13:26:32.654Z</time></trkpt><trkpt lat="44.8914633" lon="9.6383583"><ele>273.6</ele><time>2026-03-29T13:26:33.654Z</time></trkpt><trkpt lat="44.89137" lon="9.63829"><ele>275.2</ele><time>2026-03-29T13:26:34.654Z</time></trkpt><trkpt lat="44.891275" lon="9.6382217"><ele>276.8</ele><time>2026-03-29T13:26:35.655Z</time></trkpt><trkpt lat="44.8911767" lon="9.638165"><ele>278.4</ele><time>2026-03-29T13:26:36.653Z</time></trkpt><trkpt lat="44.89108" lon="9.6381233"><ele>280.0</ele><time>2026-03-29T13:26:37.656Z</time></trkpt><trkpt lat="44.8909883" lon="9.6380883"><ele>280.66666666666663</ele><time>2026-03-29T13:26:38.656Z</time></trkpt><trkpt lat="44.8909033" lon="9.6380567"><ele>281.3333333333333</ele><time>2026-03-29T13:26:39.653Z</time></trkpt><trkpt lat="44.8908267" lon="9.63803"><ele>282.0</ele><time>2026-03-29T13:26:40.654Z</time></trkpt><trkpt lat="44.89076" lon="9.6379883"><ele>282.6666666666667</ele><time>2026-03-29T13:26:41.655Z</time></trkpt><trkpt lat="44.8907017" lon="9.637925"><ele>283.33333333333337</ele><time>2026-03-29T13:26:42.655Z</time></trkpt><trkpt lat="44.8906533" lon="9.63784"><ele>284.0</ele><time>2026-03-29T13:26:43.654Z</time></trkpt><trkpt lat="44.89061" lon="9.63774"><ele>284.0</ele><time>2026-03-29T13:26:44.654Z</time></trkpt><trkpt lat="44.89056" lon="9.63764"><ele>284.0</ele><time>2026-03-29T13:26:45.654Z</time></trkpt><trkpt lat="44.8904967" lon="9.637555"><ele>284.0</ele><time>2026-03-29T13:26:46.654Z</time></trkpt><trkpt lat="44.8904267" lon="9.637485"><ele>284.0</ele><time>2026-03-29T13:26:47.654Z</time></trkpt><trkpt lat="44.89035" lon="9.637425"><ele>284.0</ele><time>2026-03-29T13:26:48.654Z</time></trkpt><trkpt lat="44.8902717" lon="9.63737"><ele>284.0</ele><time>2026-03-29T13:26:49.654Z</time></trkpt><trkpt lat="44.89019" lon="9.63731"><ele>284.0</ele><time>2026-03-29T13:26:50.654Z</time></trkpt><trkpt lat="44.8901033" lon="9.6372483"><ele>284.0</ele><time>2026-03-29T13:26:51.654Z</time></trkpt><trkpt lat="44.8900133" lon="9.6371883"><ele>284.0</ele><time>2026-03-29T13:26:52.653Z</time></trkpt><trkpt lat="44.8899217" lon="9.6371317"><ele>284.0</ele><time>2026-03-29T13:26:53.654Z</time></trkpt><trkpt lat="44.8898233" lon="9.6370833"><ele>284.0</ele><time>2026-03-29T13:26:54.654Z</time></trkpt><trkpt lat="44.8897233" lon="9.6370483"><ele>284.4</ele><time>2026-03-29T13:26:55.655Z</time></trkpt><trkpt lat="44.88962" lon="9.637025"><ele>284.79999999999995</ele><time>2026-03-29T13:26:56.655Z</time></trkpt><trkpt lat="44.8895217" lon="9.637015"><ele>285.20000000000005</ele><time>2026-03-29T13:26:57.654Z</time></trkpt><trkpt lat="44.8894317" lon="9.6370167"><ele>285.6</ele><time>2026-03-29T13:26:58.654Z</time></trkpt><trkpt lat="44.8893417" lon="9.63703"><ele>286.0</ele><time>2026-03-29T13:26:59.654Z</time></trkpt><trkpt lat="44.88925" lon="9.6370517"><ele>286.5</ele><time>2026-03-29T13:27:00.654Z</time></trkpt><trkpt lat="44.8891517" lon="9.63708"><ele>287.0</ele><time>2026-03-29T13:27:01.654Z</time></trkpt><trkpt lat="44.8890517" lon="9.6371067"><ele>287.5</ele><time>2026-03-29T13:27:02.654Z</time></trkpt><trkpt lat="44.8889617" lon="9.6371183"><ele>288.0</ele><time>2026-03-29T13:27:03.654Z</time></trkpt><trkpt lat="44.8888817" lon="9.6371183"><ele>288.5</ele><time>2026-03-29T13:27:04.654Z</time></trkpt><trkpt lat="44.88881" lon="9.6371183"><ele>289.0</ele><time>2026-03-29T13:27:05.654Z</time></trkpt><trkpt lat="44.8887433" lon="9.6371317"><ele>289.0</ele><time>2026-03-29T13:27:06.654Z</time></trkpt><trkpt lat="44.8886833" lon="9.6371667"><ele>289.0</ele><time>2026-03-29T13:27:07.654Z</time></trkpt><trkpt lat="44.888625" lon="9.6372317"><ele>289.0</ele><time>2026-03-29T13:27:08.655Z</time></trkpt><trkpt lat="44.88858" lon="9.6373167"><ele>289.0</ele><time>2026-03-29T13:27:09.653Z</time></trkpt><trkpt lat="44.8885467" lon="9.63743"><ele>289.0</ele><time>2026-03-29T13:27:10.653Z</time></trkpt><trkpt lat="44.8885083" lon="9.6375633"><ele>289.0</ele><time>2026-03-29T13:27:11.654Z</time></trkpt><trkpt lat="44.8884667" lon="9.6377033"><ele>289.4</ele><time>2026-03-29T13:27:12.654Z</time></trkpt><trkpt lat="44.88842" lon="9.63785"><ele>289.79999999999995</ele><time>2026-03-29T13:27:13.654Z</time></trkpt><trkpt lat="44.8883733" lon="9.637995"><ele>290.20000000000005</ele><time>2026-03-29T13:27:14.656Z</time></trkpt><trkpt lat="44.8883267" lon="9.638135"><ele>290.6</ele><time>2026-03-29T13:27:15.654Z</time></trkpt><trkpt lat="44.888285" lon="9.6382667"><ele>291.0</ele><time>2026-03-29T13:27:16.654Z</time></trkpt><trkpt lat="44.8882483" lon="9.638395"><ele>291.0</ele><time>2026-03-29T13:27:17.654Z</time></trkpt><trkpt lat="44.8882183" lon="9.6385233"><ele>291.0</ele><time>2026-03-29T13:27:18.653Z</time></trkpt><trkpt lat="44.88819" lon="9.6386617"><ele>291.0</ele><time>2026-03-29T13:27:19.655Z</time></trkpt><trkpt lat="44.888165" lon="9.6388033"><ele>291.0</ele><time>2026-03-29T13:27:20.656Z</time></trkpt><trkpt lat="44.8881417" lon="9.63895"><ele>291.0</ele><time>2026-03-29T13:27:21.654Z</time></trkpt><trkpt lat="44.88812" lon="9.6390933"><ele>290.8</ele><time>2026-03-29T13:27:22.654Z</time></trkpt><trkpt lat="44.8880983" lon="9.6392383"><ele>290.6</ele><time>2026-03-29T13:27:23.655Z</time></trkpt><trkpt lat="44.8880767" lon="9.6393817"><ele>290.4</ele><time>2026-03-29T13:27:24.655Z</time></trkpt><trkpt lat="44.8880567" lon="9.639525"><ele>290.2</ele><time>2026-03-29T13:27:25.654Z</time></trkpt><trkpt lat="44.8880383" lon="9.6396633"><ele>290.0</ele><time>2026-03-29T13:27:26.658Z</time></trkpt><trkpt lat="44.8880217" lon="9.6397983"><ele>290.0</ele><time>2026-03-29T13:27:27.653Z</time></trkpt><trkpt lat="44.888" lon="9.6399383"><ele>290.0</ele><time>2026-03-29T13:27:28.654Z</time></trkpt><trkpt lat="44.8879767" lon="9.6400833"><ele>290.0</ele><time>2026-03-29T13:27:29.654Z</time></trkpt><trkpt lat="44.8879517" lon="9.6402233"><ele>290.0</ele><time>2026-03-29T13:27:30.653Z</time></trkpt><trkpt lat="44.88792" lon="9.6403583"><ele>290.0</ele><time>2026-03-29T13:27:31.653Z</time></trkpt><trkpt lat="44.8878783" lon="9.64049"><ele>290.0</ele><time>2026-03-29T13:27:32.655Z</time></trkpt><trkpt lat="44.8878317" lon="9.64063"><ele>290.0</ele><time>2026-03-29T13:27:33.654Z</time></trkpt><trkpt lat="44.8877833" lon="9.640785"><ele>290.0</ele><time>2026-03-29T13:27:34.653Z</time></trkpt><trkpt lat="44.88774" lon="9.6409617"><ele>290.0</ele><time>2026-03-29T13:27:35.654Z</time></trkpt><trkpt lat="44.8876967" lon="9.641155"><ele>289.5</ele><time>2026-03-29T13:27:36.653Z</time></trkpt><trkpt lat="44.887655" lon="9.6413467"><ele>289.0</ele><time>2026-03-29T13:27:37.655Z</time></trkpt><trkpt lat="44.8876167" lon="9.6415283"><ele>288.5</ele><time>2026-03-29T13:27:38.655Z</time></trkpt><trkpt lat="44.8875817" lon="9.6417"><ele>288.0</ele><time>2026-03-29T13:27:39.654Z</time></trkpt><trkpt lat="44.8875483" lon="9.6418633"><ele>287.6</ele><time>2026-03-29T13:27:40.653Z</time></trkpt><trkpt lat="44.88752" lon="9.642005"><ele>287.20000000000005</ele><time>2026-03-29T13:27:41.654Z</time></trkpt><trkpt lat="44.887515" lon="9.64213"><ele>286.8</ele><time>2026-03-29T13:27:42.653Z</time></trkpt><trkpt lat="44.8875367" lon="9.6422467"><ele>286.40000000000003</ele><time>2026-03-29T13:27:43.654Z</time></trkpt><trkpt lat="44.8875833" lon="9.6423533"><ele>286.0</ele><time>2026-03-29T13:27:44.654Z</time></trkpt><trkpt lat="44.88766" lon="9.64246"><ele>286.0</ele><time>2026-03-29T13:27:45.654Z</time></trkpt><trkpt lat="44.8877533" lon="9.6425633"><ele>286.0</ele><time>2026-03-29T13:27:46.655Z</time></trkpt><trkpt lat="44.8878517" lon="9.642665"><ele>286.0</ele><time>2026-03-29T13:27:47.656Z</time></trkpt><trkpt lat="44.8879467" lon="9.6427667"><ele>286.0</ele><time>2026-03-29T13:27:48.654Z</time></trkpt><trkpt lat="44.8880417" lon="9.6428683"><ele>286.25</ele><time>2026-03-29T13:27:49.655Z</time></trkpt><trkpt lat="44.8881417" lon="9.6429733"><ele>286.5</ele><time>2026-03-29T13:27:50.654Z</time></trkpt><trkpt lat="44.888245" lon="9.643075"><ele>286.75</ele><time>2026-03-29T13:27:51.653Z</time></trkpt><trkpt lat="44.88835" lon="9.6431683"><ele>287.0</ele><time>2026-03-29T13:27:52.654Z</time></trkpt><trkpt lat="44.8884617" lon="9.643255"><ele>286.0</ele><time>2026-03-29T13:27:53.655Z</time></trkpt><trkpt lat="44.8885817" lon="9.64334"><ele>285.0</ele><time>2026-03-29T13:27:54.655Z</time></trkpt><trkpt lat="44.8887033" lon="9.6434233"><ele>284.0</ele><time>2026-03-29T13:27:55.656Z</time></trkpt><trkpt lat="44.8888217" lon="9.6435083"><ele>283.0</ele><time>2026-03-29T13:27:56.654Z</time></trkpt><trkpt lat="44.88894" lon="9.6435917"><ele>283.0</ele><time>2026-03-29T13:27:57.686Z</time></trkpt><trkpt lat="44.889055" lon="9.643675"><ele>283.0</ele><time>2026-03-29T13:27:58.654Z</time></trkpt><trkpt lat="44.88916" lon="9.643755"><ele>283.0</ele><time>2026-03-29T13:27:59.654Z</time></trkpt><trkpt lat="44.8892567" lon="9.6438317"><ele>283.0</ele><time>2026-03-29T13:28:00.654Z</time></trkpt><trkpt lat="44.8893433" lon="9.6439017"><ele>282.66666666666663</ele><time>2026-03-29T13:28:01.654Z</time></trkpt><trkpt lat="44.8894217" lon="9.6439617"><ele>282.3333333333333</ele><time>2026-03-29T13:28:02.654Z</time></trkpt><trkpt lat="44.8894867" lon="9.6440133"><ele>282.0</ele><time>2026-03-29T13:28:03.654Z</time></trkpt><trkpt lat="44.8895533" lon="9.6440933"><ele>281.6666666666667</ele><time>2026-03-29T13:28:05.654Z</time></trkpt><trkpt lat="44.8895383" lon="9.64419"><ele>281.33333333333337</ele><time>2026-03-29T13:28:07.655Z</time></trkpt><trkpt lat="44.8894617" lon="9.6443033"><ele>281.0</ele><time>2026-03-29T13:28:09.653Z</time></trkpt><trkpt lat="44.8894067" lon="9.6443633"><ele>281.0</ele><time>2026-03-29T13:28:10.655Z</time></trkpt><trkpt lat="44.889335" lon="9.6444217"><ele>281.0</ele><time>2026-03-29T13:28:11.654Z</time></trkpt><trkpt lat="44.88925" lon="9.6444633"><ele>281.0</ele><time>2026-03-29T13:28:12.654Z</time></trkpt><trkpt lat="44.8891567" lon="9.644495"><ele>281.0</ele><time>2026-03-29T13:28:13.654Z</time></trkpt><trkpt lat="44.88906" lon="9.644535"><ele>281.0</ele><time>2026-03-29T13:28:14.655Z</time></trkpt><trkpt lat="44.8889667" lon="9.6445867"><ele>281.0</ele><time>2026-03-29T13:28:15.656Z</time></trkpt><trkpt lat="44.8888767" lon="9.6446517"><ele>281.0</ele><time>2026-03-29T13:28:16.654Z</time></trkpt><trkpt lat="44.8888017" lon="9.64473"><ele>281.0</ele><time>2026-03-29T13:28:17.654Z</time></trkpt><trkpt lat="44.8887283" lon="9.6448267"><ele>281.0</ele><time>2026-03-29T13:28:18.655Z</time></trkpt><trkpt lat="44.8886633" lon="9.6449433"><ele>281.0</ele><time>2026-03-29T13:28:19.655Z</time></trkpt><trkpt lat="44.8886133" lon="9.6450817"><ele>281.0</ele><time>2026-03-29T13:28:20.654Z</time></trkpt><trkpt lat="44.8885767" lon="9.6452283"><ele>281.0</ele><time>2026-03-29T13:28:21.654Z</time></trkpt><trkpt lat="44.8885467" lon="9.6453867"><ele>281.0</ele><time>2026-03-29T13:28:22.654Z</time></trkpt><trkpt lat="44.8885133" lon="9.6455483"><ele>281.0</ele><time>2026-03-29T13:28:23.655Z</time></trkpt><trkpt lat="44.888465" lon="9.6457067"><ele>275.75</ele><time>2026-03-29T13:28:24.655Z</time></trkpt><trkpt lat="44.8884017" lon="9.6458633"><ele>270.5</ele><time>2026-03-29T13:28:25.658Z</time></trkpt><trkpt lat="44.8883317" lon="9.6460283"><ele>265.25</ele><time>2026-03-29T13:28:26.656Z</time></trkpt><trkpt lat="44.88826" lon="9.6461833"><ele>260.0</ele><time>2026-03-29T13:28:27.654Z</time></trkpt><trkpt lat="44.8881833" lon="9.6463117"><ele>257.8</ele><time>2026-03-29T13:28:28.653Z</time></trkpt><trkpt lat="44.8881083" lon="9.6464333"><ele>255.6</ele><time>2026-03-29T13:28:29.653Z</time></trkpt><trkpt lat="44.8880333" lon="9.6465417"><ele>253.39999999999998</ele><time>2026-03-29T13:28:30.655Z</time></trkpt><trkpt lat="44.887955" lon="9.6466383"><ele>251.2</ele><time>2026-03-29T13:28:31.654Z</time></trkpt><trkpt lat="44.8878667" lon="9.6467283"><ele>249.0</ele><time>2026-03-29T13:28:32.657Z</time></trkpt><trkpt lat="44.8877667" lon="9.6468083"><ele>249.0</ele><time>2026-03-29T13:28:33.653Z</time></trkpt><trkpt lat="44.8876483" lon="9.64687"><ele>249.0</ele><time>2026-03-29T13:28:34.655Z</time></trkpt><trkpt lat="44.8875233" lon="9.6469117"><ele>249.0</ele><time>2026-03-29T13:28:35.654Z</time></trkpt><trkpt lat="44.8873917" lon="9.6469467"><ele>249.0</ele><time>2026-03-29T13:28:36.655Z</time></trkpt><trkpt lat="44.8872633" lon="9.6469867"><ele>244.0</ele><time>2026-03-29T13:28:37.656Z</time></trkpt><trkpt lat="44.8871433" lon="9.6470533"><ele>239.0</ele><time>2026-03-29T13:28:38.656Z</time></trkpt><trkpt lat="44.8870317" lon="9.6471333"><ele>234.0</ele><time>2026-03-29T13:28:39.655Z</time></trkpt><trkpt lat="44.8869333" lon="9.6472067"><ele>229.0</ele><time>2026-03-29T13:28:40.657Z</time></trkpt><trkpt lat="44.8868433" lon="9.64726"><ele>228.99999999999997</ele><time>2026-03-29T13:28:41.655Z</time></trkpt><trkpt lat="44.8867617" lon="9.6472867"><ele>229.0</ele><time>2026-03-29T13:28:42.654Z</time></trkpt><trkpt lat="44.88668" lon="9.647305"><ele>229.0</ele><time>2026-03-29T13:28:43.654Z</time></trkpt><trkpt lat="44.8866033" lon="9.64734"><ele>229.0</ele><time>2026-03-29T13:28:44.654Z</time></trkpt><trkpt lat="44.8865367" lon="9.6474"><ele>228.99999999999997</ele><time>2026-03-29T13:28:45.654Z</time></trkpt><trkpt lat="44.8864783" lon="9.647505"><ele>229.0</ele><time>2026-03-29T13:28:46.654Z</time></trkpt><trkpt lat="44.886435" lon="9.6476467"><ele>228.0</ele><time>2026-03-29T13:28:47.654Z</time></trkpt><trkpt lat="44.886385" lon="9.6477883"><ele>226.99999999999997</ele><time>2026-03-29T13:28:48.653Z</time></trkpt><trkpt lat="44.8863317" lon="9.6479117"><ele>225.99999999999997</ele><time>2026-03-29T13:28:49.655Z</time></trkpt><trkpt lat="44.8862733" lon="9.64802"><ele>225.0</ele><time>2026-03-29T13:28:50.655Z</time></trkpt><trkpt lat="44.8862" lon="9.6481083"><ele>224.0</ele><time>2026-03-29T13:28:51.654Z</time></trkpt><trkpt lat="44.8861083" lon="9.6481783"><ele>222.79999999999998</ele><time>2026-03-29T13:28:52.654Z</time></trkpt><trkpt lat="44.8860067" lon="9.64824"><ele>221.59999999999997</ele><time>2026-03-29T13:28:53.655Z</time></trkpt><trkpt lat="44.885905" lon="9.6482967"><ele>220.4</ele><time>2026-03-29T13:28:54.655Z</time></trkpt><trkpt lat="44.8858083" lon="9.6483417"><ele>219.2</ele><time>2026-03-29T13:28:55.655Z</time></trkpt><trkpt lat="44.885725" lon="9.648375"><ele>218.0</ele><time>2026-03-29T13:28:56.655Z</time></trkpt><trkpt lat="44.8856433" lon="9.6484067"><ele>216.33333333333334</ele><time>2026-03-29T13:28:57.653Z</time></trkpt><trkpt lat="44.8855667" lon="9.64846"><ele>214.66666666666669</ele><time>2026-03-29T13:28:58.656Z</time></trkpt><trkpt lat="44.885495" lon="9.648535"><ele>213.0</ele><time>2026-03-29T13:28:59.654Z</time></trkpt><trkpt lat="44.8854233" lon="9.6486183"><ele>211.33333333333331</ele><time>2026-03-29T13:29:00.653Z</time></trkpt><trkpt lat="44.8853533" lon="9.648705"><ele>209.66666666666666</ele><time>2026-03-29T13:29:01.653Z</time></trkpt><trkpt lat="44.88529" lon="9.6487833"><ele>208.0</ele><time>2026-03-29T13:29:02.655Z</time></trkpt><trkpt lat="44.8852333" lon="9.6488467"><ele>206.83333333333331</ele><time>2026-03-29T13:29:03.654Z</time></trkpt><trkpt lat="44.8851533" lon="9.648915"><ele>205.66666666666666</ele><time>2026-03-29T13:29:05.653Z</time></trkpt><trkpt lat="44.8850833" lon="9.64891"><ele>204.5</ele><time>2026-03-29T13:29:08.655Z</time></trkpt><trkpt lat="44.8850183" lon="9.6488"><ele>203.33333333333331</ele><time>2026-03-29T13:29:10.654Z</time></trkpt><trkpt lat="44.88497" lon="9.6487233"><ele>202.16666666666666</ele><time>2026-03-29T13:29:11.654Z</time></trkpt><trkpt lat="44.88492" lon="9.64864"><ele>201.0</ele><time>2026-03-29T13:29:12.654Z</time></trkpt><trkpt lat="44.8848667" lon="9.648555"><ele>201.0</ele><time>2026-03-29T13:29:13.654Z</time></trkpt><trkpt lat="44.8848067" lon="9.6484783"><ele>201.0</ele><time>2026-03-29T13:29:14.655Z</time></trkpt><trkpt lat="44.8847417" lon="9.6484217"><ele>201.0</ele><time>2026-03-29T13:29:15.654Z</time></trkpt><trkpt lat="44.88468" lon="9.6483833"><ele>201.0</ele><time>2026-03-29T13:29:16.654Z</time></trkpt><trkpt lat="44.8846183" lon="9.64835"><ele>201.0</ele><time>2026-03-29T13:29:17.654Z</time></trkpt><trkpt lat="44.8844983" lon="9.648275"><ele>201.0</ele><time>2026-03-29T13:29:19.656Z</time></trkpt><trkpt lat="44.8844283" lon="9.64824"><ele>201.0</ele><time>2026-03-29T13:29:20.654Z</time></trkpt><trkpt lat="44.884355" lon="9.6482"><ele>201.0</ele><time>2026-03-29T13:29:21.654Z</time></trkpt><trkpt lat="44.884285" lon="9.6481583"><ele>201.0</ele><time>2026-03-29T13:29:22.654Z</time></trkpt><trkpt lat="44.8842133" lon="9.64811"><ele>201.0</ele><time>2026-03-29T13:29:23.653Z</time></trkpt><trkpt lat="44.884145" lon="9.648065"><ele>201.0</ele><time>2026-03-29T13:29:24.654Z</time></trkpt><trkpt lat="44.8840817" lon="9.6480183"><ele>201.0</ele><time>2026-03-29T13:29:25.654Z</time></trkpt><trkpt lat="44.8840183" lon="9.64797"><ele>200.85714285714286</ele><time>2026-03-29T13:29:26.653Z</time></trkpt><trkpt lat="44.8839517" lon="9.6479217"><ele>200.71428571428572</ele><time>2026-03-29T13:29:27.655Z</time></trkpt><trkpt lat="44.88389" lon="9.647875"><ele>200.57142857142858</ele><time>2026-03-29T13:29:28.654Z</time></trkpt><trkpt lat="44.88383" lon="9.6478267"><ele>200.42857142857144</ele><time>2026-03-29T13:29:29.653Z</time></trkpt><trkpt lat="44.8837667" lon="9.6477783"><ele>200.28571428571428</ele><time>2026-03-29T13:29:30.654Z</time></trkpt><trkpt lat="44.8837017" lon="9.647725"><ele>200.14285714285717</ele><time>2026-03-29T13:29:31.654Z</time></trkpt><trkpt lat="44.883625" lon="9.6476667"><ele>200.0</ele><time>2026-03-29T13:29:32.653Z</time></trkpt><trkpt lat="44.8835383" lon="9.6476"><ele>201.0</ele><time>2026-03-29T13:29:33.654Z</time></trkpt><trkpt lat="44.8834383" lon="9.6475267"><ele>202.0</ele><time>2026-03-29T13:29:34.654Z</time></trkpt><trkpt lat="44.8833183" lon="9.6474417"><ele>203.0</ele><time>2026-03-29T13:29:35.654Z</time></trkpt><trkpt lat="44.8831783" lon="9.64734"><ele>204.0</ele><time>2026-03-29T13:29:36.654Z</time></trkpt><trkpt lat="44.8830333" lon="9.6472367"><ele>204.0</ele><time>2026-03-29T13:29:37.653Z</time></trkpt><trkpt lat="44.8828933" lon="9.6471417"><ele>204.0</ele><time>2026-03-29T13:29:38.654Z</time></trkpt><trkpt lat="44.8827517" lon="9.6470417"><ele>204.0</ele><time>2026-03-29T13:29:39.655Z</time></trkpt><trkpt lat="44.8825933" lon="9.64693"><ele>205.66666666666669</ele><time>2026-03-29T13:29:40.654Z</time></trkpt><trkpt lat="44.8824217" lon="9.6468033"><ele>207.33333333333334</ele><time>2026-03-29T13:29:41.654Z</time></trkpt><trkpt lat="44.8822533" lon="9.6466833"><ele>209.0</ele><time>2026-03-29T13:29:42.655Z</time></trkpt><trkpt lat="44.8821017" lon="9.6465767"><ele>209.0</ele><time>2026-03-29T13:29:43.653Z</time></trkpt><trkpt lat="44.881955" lon="9.6464883"><ele>209.0</ele><time>2026-03-29T13:29:44.655Z</time></trkpt><trkpt lat="44.8817967" lon="9.6464317"><ele>209.0</ele><time>2026-03-29T13:29:45.654Z</time></trkpt><trkpt lat="44.8816083" lon="9.6464133"><ele>206.66666666666669</ele><time>2026-03-29T13:29:46.655Z</time></trkpt><trkpt lat="44.8814083" lon="9.6464367"><ele>204.33333333333331</ele><time>2026-03-29T13:29:47.655Z</time></trkpt><trkpt lat="44.8812117" lon="9.6464817"><ele>202.0</ele><time>2026-03-29T13:29:48.653Z</time></trkpt><trkpt lat="44.881025" lon="9.6465167"><ele>200.66666666666666</ele><time>2026-03-29T13:29:49.655Z</time></trkpt><trkpt lat="44.8808517" lon="9.646535"><ele>199.33333333333331</ele><time>2026-03-29T13:29:50.655Z</time></trkpt><trkpt lat="44.8806883" lon="9.64655"><ele>198.0</ele><time>2026-03-29T13:29:51.654Z</time></trkpt><trkpt lat="44.8805367" lon="9.6465717"><ele>198.0</ele><time>2026-03-29T13:29:52.653Z</time></trkpt><trkpt lat="44.8803967" lon="9.6466117"><ele>198.0</ele><time>2026-03-29T13:29:53.653Z</time></trkpt><trkpt lat="44.88027" lon="9.6466717"><ele>198.0</ele><time>2026-03-29T13:29:54.655Z</time></trkpt><trkpt lat="44.8801567" lon="9.6467583"><ele>198.0</ele><time>2026-03-29T13:29:55.654Z</time></trkpt><trkpt lat="44.8800533" lon="9.6468667"><ele>197.5</ele><time>2026-03-29T13:29:56.655Z</time></trkpt><trkpt lat="44.879955" lon="9.6469867"><ele>197.0</ele><time>2026-03-29T13:29:57.654Z</time></trkpt><trkpt lat="44.879855" lon="9.64711"><ele>196.5</ele><time>2026-03-29T13:29:58.654Z</time></trkpt><trkpt lat="44.8797533" lon="9.6472367"><ele>196.0</ele><time>2026-03-29T13:29:59.654Z</time></trkpt><trkpt lat="44.8796533" lon="9.6473617"><ele>196.0</ele><time>2026-03-29T13:30:00.654Z</time></trkpt><trkpt lat="44.879555" lon="9.647495"><ele>196.0</ele><time>2026-03-29T13:30:01.654Z</time></trkpt><trkpt lat="44.8794617" lon="9.6476217"><ele>196.0</ele><time>2026-03-29T13:30:02.655Z</time></trkpt><trkpt lat="44.879375" lon="9.6477433"><ele>196.0</ele><time>2026-03-29T13:30:03.654Z</time></trkpt><trkpt lat="44.8792933" lon="9.647855"><ele>196.60000000000002</ele><time>2026-03-29T13:30:04.654Z</time></trkpt><trkpt lat="44.8792167" lon="9.6479617"><ele>197.2</ele><time>2026-03-29T13:30:05.655Z</time></trkpt><trkpt lat="44.87914" lon="9.6480583"><ele>197.8</ele><time>2026-03-29T13:30:06.654Z</time></trkpt><trkpt lat="44.8790633" lon="9.6481467"><ele>198.39999999999998</ele><time>2026-03-29T13:30:07.655Z</time></trkpt><trkpt lat="44.8789883" lon="9.6482217"><ele>199.0</ele><time>2026-03-29T13:30:08.655Z</time></trkpt><trkpt lat="44.8789117" lon="9.6482767"><ele>199.0</ele><time>2026-03-29T13:30:09.654Z</time></trkpt><trkpt lat="44.878835" lon="9.64832"><ele>199.0</ele><time>2026-03-29T13:30:10.654Z</time></trkpt><trkpt lat="44.878745" lon="9.6483533"><ele>199.0</ele><time>2026-03-29T13:30:11.654Z</time></trkpt><trkpt lat="44.878645" lon="9.6483683"><ele>199.0</ele><time>2026-03-29T13:30:12.655Z</time></trkpt><trkpt lat="44.8785367" lon="9.6483667"><ele>199.0</ele><time>2026-03-29T13:30:13.654Z</time></trkpt><trkpt lat="44.8784267" lon="9.6483583"><ele>199.75</ele><time>2026-03-29T13:30:14.655Z</time></trkpt><trkpt lat="44.8783083" lon="9.6483417"><ele>200.5</ele><time>2026-03-29T13:30:15.654Z</time></trkpt><trkpt lat="44.8781817" lon="9.6483183"><ele>201.25</ele><time>2026-03-29T13:30:16.655Z</time></trkpt><trkpt lat="44.878055" lon="9.6482767"><ele>202.0</ele><time>2026-03-29T13:30:17.654Z</time></trkpt><trkpt lat="44.8779267" lon="9.64822"><ele>202.0</ele><time>2026-03-29T13:30:18.654Z</time></trkpt><trkpt lat="44.877795" lon="9.648145"><ele>202.0</ele><time>2026-03-29T13:30:19.654Z</time></trkpt><trkpt lat="44.8776582" lon="9.6480544"><ele>202.0</ele><time>2026-03-29T13:30:20.655Z</time></trkpt><trkpt lat="44.8775206" lon="9.6479468"><ele>201.66666666666666</ele><time>2026-03-29T13:30:21.653Z</time></trkpt><trkpt lat="44.8773845" lon="9.6478378"><ele>201.33333333333331</ele><time>2026-03-29T13:30:22.655Z</time></trkpt><trkpt lat="44.8772477" lon="9.6477266"><ele>201.0</ele><time>2026-03-29T13:30:23.655Z</time></trkpt><trkpt lat="44.8771115" lon="9.6476141"><ele>202.0</ele><time>2026-03-29T13:30:24.653Z</time></trkpt><trkpt lat="44.8769767" lon="9.6474954"><ele>203.0</ele><time>2026-03-29T13:30:25.654Z</time></trkpt><trkpt lat="44.8768431" lon="9.6473722"><ele>204.0</ele><time>2026-03-29T13:30:26.655Z</time></trkpt><trkpt lat="44.8767128" lon="9.6472446"><ele>204.0</ele><time>2026-03-29T13:30:27.654Z</time></trkpt><trkpt lat="44.8765855" lon="9.6471119"><ele>204.0</ele><time>2026-03-29T13:30:28.654Z</time></trkpt><trkpt lat="44.8764608" lon="9.6469735"><ele>204.0</ele><time>2026-03-29T13:30:29.654Z</time></trkpt><trkpt lat="44.8763388" lon="9.6468331"><ele>206.66666666666669</ele><time>2026-03-29T13:30:30.653Z</time></trkpt><trkpt lat="44.8762177" lon="9.6466912"><ele>209.33333333333334</ele><time>2026-03-29T13:30:31.656Z</time></trkpt><trkpt lat="44.8760949" lon="9.6465478"><ele>212.0</ele><time>2026-03-29T13:30:32.655Z</time></trkpt><trkpt lat="44.8759745" lon="9.6464025"><ele>212.33333333333334</ele><time>2026-03-29T13:30:33.654Z</time></trkpt><trkpt lat="44.8758598" lon="9.646253"><ele>212.66666666666669</ele><time>2026-03-29T13:30:34.654Z</time></trkpt><trkpt lat="44.8757504" lon="9.6460992"><ele>213.0</ele><time>2026-03-29T13:30:35.655Z</time></trkpt><trkpt lat="44.8756442" lon="9.6459457"><ele>213.0</ele><time>2026-03-29T13:30:36.654Z</time></trkpt><trkpt lat="44.8755421" lon="9.6457942"><ele>213.0</ele><time>2026-03-29T13:30:37.655Z</time></trkpt><trkpt lat="44.8754482" lon="9.6456504"><ele>213.0</ele><time>2026-03-29T13:30:38.655Z</time></trkpt><trkpt lat="44.8753583" lon="9.6455144"><ele>213.0</ele><time>2026-03-29T13:30:39.655Z</time></trkpt><trkpt lat="44.8752693" lon="9.645377"><ele>211.5</ele><time>2026-03-29T13:30:40.656Z</time></trkpt><trkpt lat="44.8751793" lon="9.6452348"><ele>210.0</ele><time>2026-03-29T13:30:41.654Z</time></trkpt><trkpt lat="44.8750881" lon="9.6450871"><ele>208.5</ele><time>2026-03-29T13:30:42.654Z</time></trkpt><trkpt lat="44.8749945" lon="9.6449337"><ele>207.0</ele><time>2026-03-29T13:30:43.653Z</time></trkpt><trkpt lat="44.8749022" lon="9.644773"><ele>207.0</ele><time>2026-03-29T13:30:44.655Z</time></trkpt><trkpt lat="44.8748121" lon="9.644607"><ele>207.0</ele><time>2026-03-29T13:30:45.654Z</time></trkpt><trkpt lat="44.8747239" lon="9.6444335"><ele>207.0</ele><time>2026-03-29T13:30:46.653Z</time></trkpt><trkpt lat="44.8746457" lon="9.6442636"><ele>207.0</ele><time>2026-03-29T13:30:47.654Z</time></trkpt><trkpt lat="44.8745751" lon="9.6441011"><ele>206.2</ele><time>2026-03-29T13:30:48.654Z</time></trkpt><trkpt lat="44.8745057" lon="9.6439484"><ele>205.39999999999998</ele><time>2026-03-29T13:30:49.654Z</time></trkpt><trkpt lat="44.8744403" lon="9.6438052"><ele>204.60000000000002</ele><time>2026-03-29T13:30:50.655Z</time></trkpt><trkpt lat="44.8743753" lon="9.6436853"><ele>203.8</ele><time>2026-03-29T13:30:51.654Z</time></trkpt><trkpt lat="44.8743027" lon="9.6436048"><ele>203.0</ele><time>2026-03-29T13:30:52.654Z</time></trkpt><trkpt lat="44.8742216" lon="9.6435674"><ele>203.0</ele><time>2026-03-29T13:30:53.655Z</time></trkpt><trkpt lat="44.8741267" lon="9.6435718"><ele>203.0</ele><time>2026-03-29T13:30:54.653Z</time></trkpt><trkpt lat="44.8740201" lon="9.6436144"><ele>203.0</ele><time>2026-03-29T13:30:55.654Z</time></trkpt><trkpt lat="44.8739143" lon="9.6436749"><ele>203.0</ele><time>2026-03-29T13:30:56.654Z</time></trkpt><trkpt lat="44.8738142" lon="9.6437316"><ele>203.0</ele><time>2026-03-29T13:30:57.654Z</time></trkpt><trkpt lat="44.8737204" lon="9.6437803"><ele>202.2</ele><time>2026-03-29T13:30:58.654Z</time></trkpt><trkpt lat="44.873628" lon="9.6438264"><ele>201.4</ele><time>2026-03-29T13:30:59.654Z</time></trkpt><trkpt lat="44.8735328" lon="9.6438717"><ele>200.6</ele><time>2026-03-29T13:31:00.654Z</time></trkpt><trkpt lat="44.8734395" lon="9.6439159"><ele>199.79999999999998</ele><time>2026-03-29T13:31:01.656Z</time></trkpt><trkpt lat="44.8733523" lon="9.6439571"><ele>199.0</ele><time>2026-03-29T13:31:02.655Z</time></trkpt><trkpt lat="44.8732721" lon="9.6439923"><ele>198.99999999999997</ele><time>2026-03-29T13:31:03.654Z</time></trkpt><trkpt lat="44.8731974" lon="9.6440235"><ele>199.0</ele><time>2026-03-29T13:31:04.655Z</time></trkpt><trkpt lat="44.8731276" lon="9.6440519"><ele>199.0</ele><time>2026-03-29T13:31:05.654Z</time></trkpt><trkpt lat="44.8730613" lon="9.6440722"><ele>199.0</ele><time>2026-03-29T13:31:06.654Z</time></trkpt><trkpt lat="44.8729945" lon="9.6440788"><ele>199.0</ele><time>2026-03-29T13:31:07.655Z</time></trkpt><trkpt lat="44.8729283" lon="9.6440617"><ele>198.99999999999997</ele><time>2026-03-29T13:31:08.655Z</time></trkpt><trkpt lat="44.8728667" lon="9.64402"><ele>199.0</ele><time>2026-03-29T13:31:09.654Z</time></trkpt><trkpt lat="44.8728067" lon="9.6439533"><ele>198.99999999999997</ele><time>2026-03-29T13:31:10.654Z</time></trkpt><trkpt lat="44.8727433" lon="9.64387"><ele>199.0</ele><time>2026-03-29T13:31:11.655Z</time></trkpt><trkpt lat="44.8726817" lon="9.64379"><ele>199.0</ele><time>2026-03-29T13:31:12.654Z</time></trkpt><trkpt lat="44.87262" lon="9.6437133"><ele>199.0</ele><time>2026-03-29T13:31:13.654Z</time></trkpt><trkpt lat="44.872555" lon="9.6436367"><ele>198.99999999999997</ele><time>2026-03-29T13:31:14.654Z</time></trkpt><trkpt lat="44.87249" lon="9.64355"><ele>199.0</ele><time>2026-03-29T13:31:15.654Z</time></trkpt><trkpt lat="44.8724217" lon="9.643455"><ele>200.25</ele><time>2026-03-29T13:31:16.654Z</time></trkpt><trkpt lat="44.8723483" lon="9.6433533"><ele>201.5</ele><time>2026-03-29T13:31:17.654Z</time></trkpt><trkpt lat="44.8722667" lon="9.6432417"><ele>202.75</ele><time>2026-03-29T13:31:18.654Z</time></trkpt><trkpt lat="44.87218" lon="9.6431233"><ele>204.0</ele><time>2026-03-29T13:31:19.654Z</time></trkpt><trkpt lat="44.8720933" lon="9.6430017"><ele>204.0</ele><time>2026-03-29T13:31:20.654Z</time></trkpt><trkpt lat="44.8720083" lon="9.6428817"><ele>204.0</ele><time>2026-03-29T13:31:21.653Z</time></trkpt><trkpt lat="44.8719267" lon="9.642765"><ele>204.0</ele><time>2026-03-29T13:31:22.653Z</time></trkpt><trkpt lat="44.8718417" lon="9.642645"><ele>204.0</ele><time>2026-03-29T13:31:23.654Z</time></trkpt><trkpt lat="44.8717517" lon="9.6425233"><ele>204.5</ele><time>2026-03-29T13:31:24.654Z</time></trkpt><trkpt lat="44.87166" lon="9.6424"><ele>205.0</ele><time>2026-03-29T13:31:25.654Z</time></trkpt><trkpt lat="44.8715683" lon="9.64227"><ele>205.5</ele><time>2026-03-29T13:31:26.654Z</time></trkpt><trkpt lat="44.8714717" lon="9.6421317"><ele>206.0</ele><time>2026-03-29T13:31:27.654Z</time></trkpt><trkpt lat="44.8713733" lon="9.642"><ele>205.25</ele><time>2026-03-29T13:31:28.654Z</time></trkpt><trkpt lat="44.87128" lon="9.6418633"><ele>204.5</ele><time>2026-03-29T13:31:29.654Z</time></trkpt><trkpt lat="44.871185" lon="9.6417383"><ele>203.75</ele><time>2026-03-29T13:31:30.654Z</time></trkpt><trkpt lat="44.8710883" lon="9.64162"><ele>203.0</ele><time>2026-03-29T13:31:31.654Z</time></trkpt><trkpt lat="44.8709883" lon="9.6415017"><ele>204.25</ele><time>2026-03-29T13:31:32.655Z</time></trkpt><trkpt lat="44.8708833" lon="9.6413933"><ele>205.5</ele><time>2026-03-29T13:31:33.654Z</time></trkpt><trkpt lat="44.8707767" lon="9.6412917"><ele>206.75</ele><time>2026-03-29T13:31:34.654Z</time></trkpt><trkpt lat="44.8706667" lon="9.641195"><ele>208.0</ele><time>2026-03-29T13:31:35.657Z</time></trkpt><trkpt lat="44.8705567" lon="9.641105"><ele>208.0</ele><time>2026-03-29T13:31:36.655Z</time></trkpt><trkpt lat="44.8704383" lon="9.6410183"><ele>208.0</ele><time>2026-03-29T13:31:37.655Z</time></trkpt><trkpt lat="44.87032" lon="9.6409433"><ele>208.0</ele><time>2026-03-29T13:31:38.655Z</time></trkpt><trkpt lat="44.8702" lon="9.6408783"><ele>208.0</ele><time>2026-03-29T13:31:39.654Z</time></trkpt><trkpt lat="44.8700833" lon="9.64082"><ele>208.5</ele><time>2026-03-29T13:31:40.654Z</time></trkpt><trkpt lat="44.86997" lon="9.64077"><ele>209.0</ele><time>2026-03-29T13:31:41.654Z</time></trkpt><trkpt lat="44.8698533" lon="9.6407267"><ele>209.5</ele><time>2026-03-29T13:31:42.655Z</time></trkpt><trkpt lat="44.8697383" lon="9.6406883"><ele>210.0</ele><time>2026-03-29T13:31:43.654Z</time></trkpt><trkpt lat="44.8696283" lon="9.6406517"><ele>210.0</ele><time>2026-03-29T13:31:44.655Z</time></trkpt><trkpt lat="44.8695233" lon="9.6406167"><ele>210.0</ele><time>2026-03-29T13:31:45.654Z</time></trkpt><trkpt lat="44.869425" lon="9.6405833"><ele>210.0</ele><time>2026-03-29T13:31:46.654Z</time></trkpt><trkpt lat="44.8693317" lon="9.64055"><ele>210.0</ele><time>2026-03-29T13:31:47.654Z</time></trkpt><trkpt lat="44.86924" lon="9.6405183"><ele>210.0</ele><time>2026-03-29T13:31:48.655Z</time></trkpt><trkpt lat="44.8691483" lon="9.640485"><ele>210.4</ele><time>2026-03-29T13:31:49.654Z</time></trkpt><trkpt lat="44.8690567" lon="9.6404467"><ele>210.8</ele><time>2026-03-29T13:31:50.656Z</time></trkpt><trkpt lat="44.8689667" lon="9.6404117"><ele>211.2</ele><time>2026-03-29T13:31:51.653Z</time></trkpt><trkpt lat="44.8688767" lon="9.64038"><ele>211.6</ele><time>2026-03-29T13:31:52.653Z</time></trkpt><trkpt lat="44.8687783" lon="9.64035"><ele>212.0</ele><time>2026-03-29T13:31:53.654Z</time></trkpt><trkpt lat="44.868665" lon="9.6403167"><ele>212.0</ele><time>2026-03-29T13:31:54.654Z</time></trkpt><trkpt lat="44.86854" lon="9.64028"><ele>212.0</ele><time>2026-03-29T13:31:55.653Z</time></trkpt><trkpt lat="44.868405" lon="9.6402417"><ele>212.0</ele><time>2026-03-29T13:31:56.659Z</time></trkpt><trkpt lat="44.86826" lon="9.6402067"><ele>212.0</ele><time>2026-03-29T13:31:57.653Z</time></trkpt><trkpt lat="44.8681117" lon="9.640185"><ele>212.0</ele><time>2026-03-29T13:31:58.655Z</time></trkpt><trkpt lat="44.867965" lon="9.64018"><ele>212.0</ele><time>2026-03-29T13:31:59.654Z</time></trkpt><trkpt lat="44.8678167" lon="9.6401917"><ele>212.0</ele><time>2026-03-29T13:32:00.654Z</time></trkpt><trkpt lat="44.8676683" lon="9.6402183"><ele>212.0</ele><time>2026-03-29T13:32:01.654Z</time></trkpt><trkpt lat="44.86752" lon="9.64026"><ele>213.0</ele><time>2026-03-29T13:32:02.655Z</time></trkpt><trkpt lat="44.8673733" lon="9.640325"><ele>214.0</ele><time>2026-03-29T13:32:03.654Z</time></trkpt><trkpt lat="44.86723" lon="9.6404"><ele>215.0</ele><time>2026-03-29T13:32:04.655Z</time></trkpt><trkpt lat="44.8670933" lon="9.6404817"><ele>215.0</ele><time>2026-03-29T13:32:05.654Z</time></trkpt><trkpt lat="44.8669667" lon="9.6405533"><ele>215.0</ele><time>2026-03-29T13:32:06.653Z</time></trkpt><trkpt lat="44.8668367" lon="9.6406167"><ele>215.0</ele><time>2026-03-29T13:32:07.655Z</time></trkpt><trkpt lat="44.8667017" lon="9.640665"><ele>215.0</ele><time>2026-03-29T13:32:08.655Z</time></trkpt><trkpt lat="44.8665633" lon="9.6406917"><ele>215.0</ele><time>2026-03-29T13:32:09.654Z</time></trkpt><trkpt lat="44.866425" lon="9.6407017"><ele>215.0</ele><time>2026-03-29T13:32:10.654Z</time></trkpt><trkpt lat="44.866295" lon="9.6406883"><ele>215.0</ele><time>2026-03-29T13:32:11.655Z</time></trkpt><trkpt lat="44.86617" lon="9.640655"><ele>215.0</ele><time>2026-03-29T13:32:12.653Z</time></trkpt><trkpt lat="44.8660467" lon="9.6405983"><ele>215.25</ele><time>2026-03-29T13:32:13.655Z</time></trkpt><trkpt lat="44.86593" lon="9.640525"><ele>215.5</ele><time>2026-03-29T13:32:14.655Z</time></trkpt><trkpt lat="44.8658217" lon="9.64043"><ele>215.75</ele><time>2026-03-29T13:32:15.654Z</time></trkpt><trkpt lat="44.8657217" lon="9.64032"><ele>216.0</ele><time>2026-03-29T13:32:16.654Z</time></trkpt><trkpt lat="44.8656283" lon="9.6402"><ele>216.0</ele><time>2026-03-29T13:32:17.654Z</time></trkpt><trkpt lat="44.8655467" lon="9.6400783"><ele>216.0</ele><time>2026-03-29T13:32:18.654Z</time></trkpt><trkpt lat="44.865465" lon="9.63995"><ele>216.0</ele><time>2026-03-29T13:32:19.653Z</time></trkpt><trkpt lat="44.8653783" lon="9.6398167"><ele>216.0</ele><time>2026-03-29T13:32:20.655Z</time></trkpt><trkpt lat="44.8652883" lon="9.6396783"><ele>216.0</ele><time>2026-03-29T13:32:21.654Z</time></trkpt><trkpt lat="44.8651917" lon="9.6395333"><ele>216.0</ele><time>2026-03-29T13:32:22.654Z</time></trkpt><trkpt lat="44.865095" lon="9.6393883"><ele>216.0</ele><time>2026-03-29T13:32:23.654Z</time></trkpt><trkpt lat="44.8650017" lon="9.639245"><ele>216.0</ele><time>2026-03-29T13:32:24.654Z</time></trkpt><trkpt lat="44.86491" lon="9.6391067"><ele>215.75</ele><time>2026-03-29T13:32:25.655Z</time></trkpt><trkpt lat="44.864815" lon="9.6389717"><ele>215.5</ele><time>2026-03-29T13:32:26.655Z</time></trkpt><trkpt lat="44.8647233" lon="9.6388383"><ele>215.25</ele><time>2026-03-29T13:32:27.654Z</time></trkpt><trkpt lat="44.864635" lon="9.638705"><ele>215.0</ele><time>2026-03-29T13:32:28.656Z</time></trkpt><trkpt lat="44.8645433" lon="9.6385733"><ele>215.25</ele><time>2026-03-29T13:32:29.654Z</time></trkpt><trkpt lat="44.8644483" lon="9.6384417"><ele>215.5</ele><time>2026-03-29T13:32:30.654Z</time></trkpt><trkpt lat="44.8643567" lon="9.6383167"><ele>215.75</ele><time>2026-03-29T13:32:31.655Z</time></trkpt><trkpt lat="44.864265" lon="9.6382017"><ele>216.0</ele><time>2026-03-29T13:32:32.655Z</time></trkpt><trkpt lat="44.8641767" lon="9.6380917"><ele>216.0</ele><time>2026-03-29T13:32:33.654Z</time></trkpt><trkpt lat="44.8640917" lon="9.637985"><ele>216.0</ele><time>2026-03-29T13:32:34.655Z</time></trkpt><trkpt lat="44.86401" lon="9.6378783"><ele>216.0</ele><time>2026-03-29T13:32:35.655Z</time></trkpt><trkpt lat="44.8639217" lon="9.6377717"><ele>216.0</ele><time>2026-03-29T13:32:36.654Z</time></trkpt><trkpt lat="44.8638283" lon="9.6376667"><ele>215.75</ele><time>2026-03-29T13:32:37.654Z</time></trkpt><trkpt lat="44.8637367" lon="9.6375617"><ele>215.5</ele><time>2026-03-29T13:32:38.656Z</time></trkpt><trkpt lat="44.8636467" lon="9.6374567"><ele>215.25</ele><time>2026-03-29T13:32:39.653Z</time></trkpt><trkpt lat="44.8635533" lon="9.6373483"><ele>215.0</ele><time>2026-03-29T13:32:40.654Z</time></trkpt><trkpt lat="44.8634567" lon="9.637245"><ele>215.75</ele><time>2026-03-29T13:32:41.653Z</time></trkpt><trkpt lat="44.8633633" lon="9.63714"><ele>216.5</ele><time>2026-03-29T13:32:42.654Z</time></trkpt><trkpt lat="44.8632717" lon="9.63703"><ele>217.25</ele><time>2026-03-29T13:32:43.653Z</time></trkpt><trkpt lat="44.8631767" lon="9.6369133"><ele>218.0</ele><time>2026-03-29T13:32:44.655Z</time></trkpt><trkpt lat="44.86308" lon="9.6367983"><ele>218.0</ele><time>2026-03-29T13:32:45.654Z</time></trkpt><trkpt lat="44.8629817" lon="9.6366817"><ele>218.0</ele><time>2026-03-29T13:32:46.654Z</time></trkpt><trkpt lat="44.86288" lon="9.63656"><ele>218.0</ele><time>2026-03-29T13:32:47.654Z</time></trkpt><trkpt lat="44.8627783" lon="9.636435"><ele>218.0</ele><time>2026-03-29T13:32:48.655Z</time></trkpt><trkpt lat="44.86268" lon="9.6363033"><ele>218.5</ele><time>2026-03-29T13:32:49.653Z</time></trkpt><trkpt lat="44.8625933" lon="9.6361633"><ele>219.0</ele><time>2026-03-29T13:32:50.655Z</time></trkpt><trkpt lat="44.8625167" lon="9.6360133"><ele>219.5</ele><time>2026-03-29T13:32:51.654Z</time></trkpt><trkpt lat="44.8624467" lon="9.6358633"><ele>220.0</ele><time>2026-03-29T13:32:52.655Z</time></trkpt><trkpt lat="44.8623783" lon="9.635715"><ele>220.0</ele><time>2026-03-29T13:32:53.654Z</time></trkpt><trkpt lat="44.8623133" lon="9.6355717"><ele>220.0</ele><time>2026-03-29T13:32:54.655Z</time></trkpt><trkpt lat="44.8622517" lon="9.6354333"><ele>220.0</ele><time>2026-03-29T13:32:55.654Z</time></trkpt><trkpt lat="44.8621933" lon="9.635295"><ele>220.0</ele><time>2026-03-29T13:32:56.656Z</time></trkpt><trkpt lat="44.86213" lon="9.6351533"><ele>219.0</ele><time>2026-03-29T13:32:57.654Z</time></trkpt><trkpt lat="44.862065" lon="9.6350067"><ele>218.0</ele><time>2026-03-29T13:32:58.655Z</time></trkpt><trkpt lat="44.8620017" lon="9.6348617"><ele>217.0</ele><time>2026-03-29T13:32:59.654Z</time></trkpt><trkpt lat="44.86194" lon="9.6347183"><ele>216.0</ele><time>2026-03-29T13:33:00.654Z</time></trkpt><trkpt lat="44.8618767" lon="9.6345733"><ele>215.5</ele><time>2026-03-29T13:33:01.655Z</time></trkpt><trkpt lat="44.8618133" lon="9.6344317"><ele>215.0</ele><time>2026-03-29T13:33:02.655Z</time></trkpt><trkpt lat="44.8617467" lon="9.63429"><ele>214.5</ele><time>2026-03-29T13:33:03.654Z</time></trkpt><trkpt lat="44.861675" lon="9.63415"><ele>214.0</ele><time>2026-03-29T13:33:04.655Z</time></trkpt><trkpt lat="44.8615983" lon="9.634015"><ele>215.5</ele><time>2026-03-29T13:33:05.655Z</time></trkpt><trkpt lat="44.86152" lon="9.6338867"><ele>217.0</ele><time>2026-03-29T13:33:06.654Z</time></trkpt><trkpt lat="44.86144" lon="9.6337667"><ele>218.5</ele><time>2026-03-29T13:33:07.654Z</time></trkpt><trkpt lat="44.8613583" lon="9.6336567"><ele>220.0</ele><time>2026-03-29T13:33:08.654Z</time></trkpt><trkpt lat="44.8612683" lon="9.633555"><ele>220.0</ele><time>2026-03-29T13:33:09.654Z</time></trkpt><trkpt lat="44.8611733" lon="9.63346"><ele>220.0</ele><time>2026-03-29T13:33:10.655Z</time></trkpt><trkpt lat="44.8610717" lon="9.6333783"><ele>220.0</ele><time>2026-03-29T13:33:11.654Z</time></trkpt><trkpt lat="44.8609667" lon="9.633305"><ele>220.0</ele><time>2026-03-29T13:33:12.654Z</time></trkpt><trkpt lat="44.860855" lon="9.6332383"><ele>220.5</ele><time>2026-03-29T13:33:13.654Z</time></trkpt><trkpt lat="44.86074" lon="9.633175"><ele>221.0</ele><time>2026-03-29T13:33:14.654Z</time></trkpt><trkpt lat="44.8606183" lon="9.6331217"><ele>221.5</ele><time>2026-03-29T13:33:15.654Z</time></trkpt><trkpt lat="44.860495" lon="9.633075"><ele>222.0</ele><time>2026-03-29T13:33:16.653Z</time></trkpt><trkpt lat="44.8603667" lon="9.633035"><ele>222.0</ele><time>2026-03-29T13:33:17.654Z</time></trkpt><trkpt lat="44.8602367" lon="9.6329967"><ele>222.0</ele><time>2026-03-29T13:33:18.654Z</time></trkpt><trkpt lat="44.8601033" lon="9.6329583"><ele>222.0</ele><time>2026-03-29T13:33:19.653Z</time></trkpt><trkpt lat="44.8599717" lon="9.63292"><ele>222.0</ele><time>2026-03-29T13:33:20.655Z</time></trkpt><trkpt lat="44.8598433" lon="9.6328817"><ele>222.75</ele><time>2026-03-29T13:33:21.653Z</time></trkpt><trkpt lat="44.8597183" lon="9.632845"><ele>223.5</ele><time>2026-03-29T13:33:22.654Z</time></trkpt><trkpt lat="44.8595967" lon="9.6328033"><ele>224.25</ele><time>2026-03-29T13:33:23.654Z</time></trkpt><trkpt lat="44.859475" lon="9.6327533"><ele>225.0</ele><time>2026-03-29T13:33:24.654Z</time></trkpt><trkpt lat="44.8593567" lon="9.6326933"><ele>225.75</ele><time>2026-03-29T13:33:25.654Z</time></trkpt><trkpt lat="44.85924" lon="9.6326267"><ele>226.5</ele><time>2026-03-29T13:33:26.654Z</time></trkpt><trkpt lat="44.8591267" lon="9.6325517"><ele>227.25</ele><time>2026-03-29T13:33:27.654Z</time></trkpt><trkpt lat="44.8590217" lon="9.632475"><ele>228.0</ele><time>2026-03-29T13:33:28.654Z</time></trkpt><trkpt lat="44.8589267" lon="9.6323967"><ele>228.0</ele><time>2026-03-29T13:33:29.654Z</time></trkpt><trkpt lat="44.8588417" lon="9.6323183"><ele>228.0</ele><time>2026-03-29T13:33:30.654Z</time></trkpt><trkpt lat="44.8587617" lon="9.6322433"><ele>228.0</ele><time>2026-03-29T13:33:31.656Z</time></trkpt><trkpt lat="44.85869" lon="9.63218"><ele>228.0</ele><time>2026-03-29T13:33:32.655Z</time></trkpt><trkpt lat="44.8586267" lon="9.6321367"><ele>228.0</ele><time>2026-03-29T13:33:33.654Z</time></trkpt><trkpt lat="44.8585367" lon="9.6321533"><ele>228.0</ele><time>2026-03-29T13:33:35.655Z</time></trkpt><trkpt lat="44.8585233" lon="9.6322717"><ele>228.0</ele><time>2026-03-29T13:33:37.654Z</time></trkpt><trkpt lat="44.8585583" lon="9.632365"><ele>228.0</ele><time>2026-03-29T13:33:39.654Z</time></trkpt><trkpt lat="44.858635" lon="9.6324167"><ele>228.0</ele><time>2026-03-29T13:33:42.653Z</time></trkpt><trkpt lat="44.8587134" lon="9.6325154"><ele>228.0</ele><time>2026-03-29T13:38:47.713Z</time></trkpt><trkpt lat="44.85878" lon="9.6326"><ele>228.0</ele><time>2026-03-29T13:39:12.652Z</time></trkpt><trkpt lat="44.85886" lon="9.632565"><ele>228.0</ele><time>2026-03-29T13:39:16.653Z</time></trkpt><trkpt lat="44.8588933" lon="9.63246"><ele>228.0</ele><time>2026-03-29T13:39:20.657Z</time></trkpt><trkpt lat="44.858845" lon="9.6323333"><ele>228.0</ele><time>2026-03-29T13:39:22.655Z</time></trkpt><trkpt lat="44.858745" lon="9.6322067"><ele>228.0</ele><time>2026-03-29T13:39:24.656Z</time></trkpt><trkpt lat="44.85867" lon="9.6321317"><ele>228.0</ele><time>2026-03-29T13:39:25.656Z</time></trkpt><trkpt lat="44.8585883" lon="9.6320433"><ele>228.0</ele><time>2026-03-29T13:39:26.656Z</time></trkpt><trkpt lat="44.8585033" lon="9.6319417"><ele>229.75</ele><time>2026-03-29T13:39:27.655Z</time></trkpt><trkpt lat="44.8584167" lon="9.6318267"><ele>231.5</ele><time>2026-03-29T13:39:28.656Z</time></trkpt><trkpt lat="44.8583233" lon="9.6317017"><ele>233.25</ele><time>2026-03-29T13:39:29.654Z</time></trkpt><trkpt lat="44.85823" lon="9.631575"><ele>235.0</ele><time>2026-03-29T13:39:30.653Z</time></trkpt><trkpt lat="44.8581317" lon="9.631445"><ele>235.0</ele><time>2026-03-29T13:39:31.654Z</time></trkpt><trkpt lat="44.8580317" lon="9.631305"><ele>235.0</ele><time>2026-03-29T13:39:32.654Z</time></trkpt><trkpt lat="44.8579217" lon="9.6311583"><ele>235.0</ele><time>2026-03-29T13:39:33.654Z</time></trkpt><trkpt lat="44.85781" lon="9.6310083"><ele>235.0</ele><time>2026-03-29T13:39:34.653Z</time></trkpt><trkpt lat="44.8577" lon="9.6308617"><ele>235.0</ele><time>2026-03-29T13:39:35.739Z</time></trkpt><trkpt lat="44.8575883" lon="9.6307117"><ele>235.0</ele><time>2026-03-29T13:39:36.654Z</time></trkpt><trkpt lat="44.8574767" lon="9.63056"><ele>235.0</ele><time>2026-03-29T13:39:37.653Z</time></trkpt><trkpt lat="44.8573583" lon="9.6304033"><ele>234.33333333333331</ele><time>2026-03-29T13:39:38.654Z</time></trkpt><trkpt lat="44.8572333" lon="9.6302417"><ele>233.66666666666669</ele><time>2026-03-29T13:39:39.653Z</time></trkpt><trkpt lat="44.8571033" lon="9.6300817"><ele>233.0</ele><time>2026-03-29T13:39:40.653Z</time></trkpt><trkpt lat="44.8569733" lon="9.6299217"><ele>233.0</ele><time>2026-03-29T13:39:41.653Z</time></trkpt><trkpt lat="44.8568433" lon="9.62976"><ele>233.0</ele><time>2026-03-29T13:39:42.653Z</time></trkpt><trkpt lat="44.8567083" lon="9.6295983"><ele>233.0</ele><time>2026-03-29T13:39:43.653Z</time></trkpt><trkpt lat="44.8565683" lon="9.62943"><ele>232.33333333333334</ele><time>2026-03-29T13:39:44.654Z</time></trkpt><trkpt lat="44.8564217" lon="9.6292617"><ele>231.66666666666669</ele><time>2026-03-29T13:39:45.653Z</time></trkpt><trkpt lat="44.8562733" lon="9.62909"><ele>231.0</ele><time>2026-03-29T13:39:46.653Z</time></trkpt><trkpt lat="44.8561233" lon="9.62892"><ele>231.0</ele><time>2026-03-29T13:39:47.653Z</time></trkpt><trkpt lat="44.8559733" lon="9.628745"><ele>231.0</ele><time>2026-03-29T13:39:48.654Z</time></trkpt><trkpt lat="44.8558217" lon="9.62857"><ele>231.0</ele><time>2026-03-29T13:39:49.653Z</time></trkpt><trkpt lat="44.8556717" lon="9.6283933"><ele>232.33333333333331</ele><time>2026-03-29T13:39:50.653Z</time></trkpt><trkpt lat="44.85552" lon="9.62822"><ele>233.66666666666666</ele><time>2026-03-29T13:39:51.653Z</time></trkpt><trkpt lat="44.8553667" lon="9.6280417"><ele>235.0</ele><time>2026-03-29T13:39:52.653Z</time></trkpt><trkpt lat="44.85521" lon="9.6278583"><ele>234.33333333333331</ele><time>2026-03-29T13:39:53.655Z</time></trkpt><trkpt lat="44.8550517" lon="9.62767"><ele>233.66666666666669</ele><time>2026-03-29T13:39:54.654Z</time></trkpt><trkpt lat="44.8548933" lon="9.627475"><ele>233.0</ele><time>2026-03-29T13:39:55.653Z</time></trkpt><trkpt lat="44.8547383" lon="9.6272717"><ele>233.0</ele><time>2026-03-29T13:39:56.654Z</time></trkpt><trkpt lat="44.8545883" lon="9.627065"><ele>233.0</ele><time>2026-03-29T13:39:57.652Z</time></trkpt><trkpt lat="44.8544417" lon="9.6268533"><ele>233.0</ele><time>2026-03-29T13:39:58.654Z</time></trkpt><trkpt lat="44.8542978" lon="9.6266413"><ele>233.66666666666669</ele><time>2026-03-29T13:39:59.654Z</time></trkpt><trkpt lat="44.8541583" lon="9.626426"><ele>234.33333333333331</ele><time>2026-03-29T13:40:00.654Z</time></trkpt><trkpt lat="44.8540261" lon="9.626213"><ele>235.0</ele><time>2026-03-29T13:40:01.654Z</time></trkpt><trkpt lat="44.8538982" lon="9.6260088"><ele>232.0</ele><time>2026-03-29T13:40:02.655Z</time></trkpt><trkpt lat="44.8537756" lon="9.6258114"><ele>229.0</ele><time>2026-03-29T13:40:03.654Z</time></trkpt><trkpt lat="44.8536539" lon="9.62562"><ele>226.0</ele><time>2026-03-29T13:40:04.653Z</time></trkpt><trkpt lat="44.8535383" lon="9.6254342"><ele>227.0</ele><time>2026-03-29T13:40:05.653Z</time></trkpt><trkpt lat="44.8534274" lon="9.6252527"><ele>228.0</ele><time>2026-03-29T13:40:06.654Z</time></trkpt><trkpt lat="44.8533151" lon="9.6250704"><ele>229.0</ele><time>2026-03-29T13:40:07.654Z</time></trkpt><trkpt lat="44.8532026" lon="9.6248915"><ele>229.0</ele><time>2026-03-29T13:40:08.653Z</time></trkpt><trkpt lat="44.8530924" lon="9.6247142"><ele>229.0</ele><time>2026-03-29T13:40:09.653Z</time></trkpt><trkpt lat="44.8529737" lon="9.6245331"><ele>229.0</ele><time>2026-03-29T13:40:10.654Z</time></trkpt><trkpt lat="44.8528448" lon="9.6243579"><ele>227.66666666666666</ele><time>2026-03-29T13:40:11.653Z</time></trkpt><trkpt lat="44.8527046" lon="9.6241958"><ele>226.33333333333331</ele><time>2026-03-29T13:40:12.654Z</time></trkpt><trkpt lat="44.8525546" lon="9.6240504"><ele>225.0</ele><time>2026-03-29T13:40:13.653Z</time></trkpt><trkpt lat="44.8523976" lon="9.6239177"><ele>225.66666666666669</ele><time>2026-03-29T13:40:14.653Z</time></trkpt><trkpt lat="44.8522286" lon="9.6237969"><ele>226.33333333333334</ele><time>2026-03-29T13:40:15.654Z</time></trkpt><trkpt lat="44.852046" lon="9.6236873"><ele>227.0</ele><time>2026-03-29T13:40:16.653Z</time></trkpt><trkpt lat="44.8518565" lon="9.6235824"><ele>229.0</ele><time>2026-03-29T13:40:17.653Z</time></trkpt><trkpt lat="44.8516644" lon="9.6234822"><ele>231.0</ele><time>2026-03-29T13:40:18.652Z</time></trkpt><trkpt lat="44.8514695" lon="9.6233834"><ele>233.0</ele><time>2026-03-29T13:40:19.654Z</time></trkpt><trkpt lat="44.8512726" lon="9.6232849"><ele>233.0</ele><time>2026-03-29T13:40:20.654Z</time></trkpt><trkpt lat="44.8510767" lon="9.6231877"><ele>233.0</ele><time>2026-03-29T13:40:21.653Z</time></trkpt><trkpt lat="44.8508799" lon="9.6230895"><ele>233.0</ele><time>2026-03-29T13:40:22.653Z</time></trkpt><trkpt lat="44.8506841" lon="9.622991"><ele>232.33333333333334</ele><time>2026-03-29T13:40:23.653Z</time></trkpt><trkpt lat="44.8504869" lon="9.6228928"><ele>231.66666666666669</ele><time>2026-03-29T13:40:24.653Z</time></trkpt><trkpt lat="44.8502886" lon="9.6227894"><ele>231.0</ele><time>2026-03-29T13:40:25.654Z</time></trkpt><trkpt lat="44.850094" lon="9.6226821"><ele>233.66666666666669</ele><time>2026-03-29T13:40:26.655Z</time></trkpt><trkpt lat="44.8499041" lon="9.6225613"><ele>236.33333333333334</ele><time>2026-03-29T13:40:27.653Z</time></trkpt><trkpt lat="44.8497162" lon="9.6224261"><ele>239.0</ele><time>2026-03-29T13:40:28.654Z</time></trkpt><trkpt lat="44.8495353" lon="9.6222718"><ele>239.0</ele><time>2026-03-29T13:40:29.654Z</time></trkpt><trkpt lat="44.8493654" lon="9.622101"><ele>239.0</ele><time>2026-03-29T13:40:30.654Z</time></trkpt><trkpt lat="44.8492058" lon="9.6219128"><ele>239.0</ele><time>2026-03-29T13:40:31.654Z</time></trkpt><trkpt lat="44.8490498" lon="9.621719"><ele>238.33333333333334</ele><time>2026-03-29T13:40:32.654Z</time></trkpt><trkpt lat="44.8488944" lon="9.6215257"><ele>237.66666666666669</ele><time>2026-03-29T13:40:33.653Z</time></trkpt><trkpt lat="44.848738" lon="9.6213322"><ele>237.0</ele><time>2026-03-29T13:40:34.658Z</time></trkpt><trkpt lat="44.8485831" lon="9.6211393"><ele>236.33333333333331</ele><time>2026-03-29T13:40:35.653Z</time></trkpt><trkpt lat="44.8484274" lon="9.6209479"><ele>235.66666666666666</ele><time>2026-03-29T13:40:36.654Z</time></trkpt><trkpt lat="44.8482733" lon="9.6207584"><ele>235.0</ele><time>2026-03-29T13:40:37.654Z</time></trkpt><trkpt lat="44.8481216" lon="9.6205718"><ele>235.0</ele><time>2026-03-29T13:40:38.654Z</time></trkpt><trkpt lat="44.84797" lon="9.62038"><ele>235.0</ele><time>2026-03-29T13:40:39.654Z</time></trkpt><trkpt lat="44.8478183" lon="9.6201883"><ele>235.0</ele><time>2026-03-29T13:40:40.653Z</time></trkpt><trkpt lat="44.8476683" lon="9.6199933"><ele>234.33333333333331</ele><time>2026-03-29T13:40:41.653Z</time></trkpt><trkpt lat="44.8475183" lon="9.6197983"><ele>233.66666666666669</ele><time>2026-03-29T13:40:42.654Z</time></trkpt><trkpt lat="44.84737" lon="9.6196033"><ele>233.0</ele><time>2026-03-29T13:40:43.653Z</time></trkpt><trkpt lat="44.8472233" lon="9.6194083"><ele>233.0</ele><time>2026-03-29T13:40:44.654Z</time></trkpt><trkpt lat="44.847075" lon="9.619215"><ele>233.0</ele><time>2026-03-29T13:40:45.653Z</time></trkpt><trkpt lat="44.8469283" lon="9.6190233"><ele>233.0</ele><time>2026-03-29T13:40:46.653Z</time></trkpt><trkpt lat="44.8467783" lon="9.6188317"><ele>234.66666666666669</ele><time>2026-03-29T13:40:47.654Z</time></trkpt><trkpt lat="44.8466283" lon="9.61864"><ele>236.33333333333331</ele><time>2026-03-29T13:40:48.654Z</time></trkpt><trkpt lat="44.8464767" lon="9.6184467"><ele>238.0</ele><time>2026-03-29T13:40:49.654Z</time></trkpt><trkpt lat="44.846325" lon="9.6182533"><ele>238.0</ele><time>2026-03-29T13:40:50.654Z</time></trkpt><trkpt lat="44.8461717" lon="9.6180567"><ele>238.0</ele><time>2026-03-29T13:40:51.652Z</time></trkpt><trkpt lat="44.84602" lon="9.6178617"><ele>238.0</ele><time>2026-03-29T13:40:52.654Z</time></trkpt><trkpt lat="44.84587" lon="9.6176683"><ele>238.33333333333331</ele><time>2026-03-29T13:40:53.654Z</time></trkpt><trkpt lat="44.8457167" lon="9.617475"><ele>238.66666666666669</ele><time>2026-03-29T13:40:54.653Z</time></trkpt><trkpt lat="44.845565" lon="9.61728"><ele>239.0</ele><time>2026-03-29T13:40:55.654Z</time></trkpt><trkpt lat="44.84541" lon="9.6170833"><ele>237.66666666666669</ele><time>2026-03-29T13:40:56.654Z</time></trkpt><trkpt lat="44.8452583" lon="9.6168867"><ele>236.33333333333331</ele><time>2026-03-29T13:40:57.653Z</time></trkpt><trkpt lat="44.845105" lon="9.6166883"><ele>235.0</ele><time>2026-03-29T13:40:58.654Z</time></trkpt><trkpt lat="44.8449517" lon="9.6164917"><ele>236.0</ele><time>2026-03-29T13:40:59.654Z</time></trkpt><trkpt lat="44.8448" lon="9.616295"><ele>237.0</ele><time>2026-03-29T13:41:00.653Z</time></trkpt><trkpt lat="44.84465" lon="9.6160967"><ele>238.0</ele><time>2026-03-29T13:41:01.654Z</time></trkpt><trkpt lat="44.8445033" lon="9.615895"><ele>238.0</ele><time>2026-03-29T13:41:02.654Z</time></trkpt><trkpt lat="44.84436" lon="9.6156783"><ele>238.0</ele><time>2026-03-29T13:41:03.654Z</time></trkpt><trkpt lat="44.8442233" lon="9.6154517"><ele>238.0</ele><time>2026-03-29T13:41:04.652Z</time></trkpt><trkpt lat="44.84409" lon="9.615215"><ele>237.66666666666666</ele><time>2026-03-29T13:41:05.653Z</time></trkpt><trkpt lat="44.84396" lon="9.6149733"><ele>237.33333333333331</ele><time>2026-03-29T13:41:06.653Z</time></trkpt><trkpt lat="44.8438317" lon="9.6147283"><ele>237.0</ele><time>2026-03-29T13:41:07.653Z</time></trkpt><trkpt lat="44.8437017" lon="9.6144867"><ele>237.0</ele><time>2026-03-29T13:41:08.654Z</time></trkpt><trkpt lat="44.8435717" lon="9.6142467"><ele>237.0</ele><time>2026-03-29T13:41:09.653Z</time></trkpt><trkpt lat="44.8434433" lon="9.6140083"><ele>237.0</ele><time>2026-03-29T13:41:10.653Z</time></trkpt><trkpt lat="44.843315" lon="9.6137733"><ele>239.0</ele><time>2026-03-29T13:41:11.652Z</time></trkpt><trkpt lat="44.84318" lon="9.6135483"><ele>241.0</ele><time>2026-03-29T13:41:12.654Z</time></trkpt><trkpt lat="44.843035" lon="9.61334"><ele>243.0</ele><time>2026-03-29T13:41:13.653Z</time></trkpt><trkpt lat="44.84288" lon="9.6131467"><ele>243.0</ele><time>2026-03-29T13:41:14.653Z</time></trkpt><trkpt lat="44.84272" lon="9.61297"><ele>243.0</ele><time>2026-03-29T13:41:15.653Z</time></trkpt><trkpt lat="44.8425483" lon="9.6128067"><ele>243.0</ele><time>2026-03-29T13:41:16.653Z</time></trkpt><trkpt lat="44.842365" lon="9.6126583"><ele>242.33333333333331</ele><time>2026-03-29T13:41:17.654Z</time></trkpt><trkpt lat="44.8421667" lon="9.61252"><ele>241.66666666666666</ele><time>2026-03-29T13:41:18.655Z</time></trkpt><trkpt lat="44.84196" lon="9.6123983"><ele>241.0</ele><time>2026-03-29T13:41:19.654Z</time></trkpt><trkpt lat="44.8417483" lon="9.6122933"><ele>243.0</ele><time>2026-03-29T13:41:20.654Z</time></trkpt><trkpt lat="44.8415333" lon="9.6122133"><ele>245.0</ele><time>2026-03-29T13:41:21.654Z</time></trkpt><trkpt lat="44.8413183" lon="9.6121567"><ele>247.0</ele><time>2026-03-29T13:41:22.654Z</time></trkpt><trkpt lat="44.841105" lon="9.612115"><ele>248.33333333333331</ele><time>2026-03-29T13:41:23.654Z</time></trkpt><trkpt lat="44.840895" lon="9.6120833"><ele>249.66666666666669</ele><time>2026-03-29T13:41:24.654Z</time></trkpt><trkpt lat="44.8406883" lon="9.61206"><ele>251.0</ele><time>2026-03-29T13:41:25.653Z</time></trkpt><trkpt lat="44.8404833" lon="9.6120333"><ele>251.0</ele><time>2026-03-29T13:41:26.654Z</time></trkpt><trkpt lat="44.840275" lon="9.6120083"><ele>251.0</ele><time>2026-03-29T13:41:27.652Z</time></trkpt><trkpt lat="44.8400667" lon="9.6119833"><ele>251.0</ele><time>2026-03-29T13:41:28.654Z</time></trkpt><trkpt lat="44.8398583" lon="9.61197"><ele>252.33333333333334</ele><time>2026-03-29T13:41:29.66Z</time></trkpt><trkpt lat="44.83965" lon="9.61197"><ele>253.66666666666669</ele><time>2026-03-29T13:41:30.653Z</time></trkpt><trkpt lat="44.8394417" lon="9.6119817"><ele>255.0</ele><time>2026-03-29T13:41:31.653Z</time></trkpt><trkpt lat="44.8392333" lon="9.6120083"><ele>255.0</ele><time>2026-03-29T13:41:32.654Z</time></trkpt><trkpt lat="44.8390283" lon="9.6120483"><ele>255.0</ele><time>2026-03-29T13:41:33.653Z</time></trkpt><trkpt lat="44.838825" lon="9.6121017"><ele>255.0</ele><time>2026-03-29T13:41:34.654Z</time></trkpt><trkpt lat="44.83862" lon="9.6121683"><ele>255.0</ele><time>2026-03-29T13:41:35.653Z</time></trkpt><trkpt lat="44.8384167" lon="9.6122467"><ele>255.0</ele><time>2026-03-29T13:41:36.654Z</time></trkpt><trkpt lat="44.83822" lon="9.61234"><ele>255.0</ele><time>2026-03-29T13:41:37.653Z</time></trkpt><trkpt lat="44.8380267" lon="9.6124483"><ele>255.0</ele><time>2026-03-29T13:41:38.654Z</time></trkpt><trkpt lat="44.83784" lon="9.6125667"><ele>255.0</ele><time>2026-03-29T13:41:39.654Z</time></trkpt><trkpt lat="44.837655" lon="9.61269"><ele>255.0</ele><time>2026-03-29T13:41:40.655Z</time></trkpt><trkpt lat="44.837475" lon="9.6128183"><ele>257.0</ele><time>2026-03-29T13:41:41.654Z</time></trkpt><trkpt lat="44.8372967" lon="9.6129433"><ele>259.0</ele><time>2026-03-29T13:41:42.653Z</time></trkpt><trkpt lat="44.8371183" lon="9.61307"><ele>261.0</ele><time>2026-03-29T13:41:43.653Z</time></trkpt><trkpt lat="44.8369467" lon="9.6131933"><ele>259.0</ele><time>2026-03-29T13:41:44.654Z</time></trkpt><trkpt lat="44.83678" lon="9.6133083"><ele>257.0</ele><time>2026-03-29T13:41:45.654Z</time></trkpt><trkpt lat="44.8366167" lon="9.6134233"><ele>255.0</ele><time>2026-03-29T13:41:46.655Z</time></trkpt><trkpt lat="44.8364533" lon="9.6135417"><ele>256.3333333333333</ele><time>2026-03-29T13:41:47.654Z</time></trkpt><trkpt lat="44.8362867" lon="9.6136617"><ele>257.66666666666663</ele><time>2026-03-29T13:41:48.654Z</time></trkpt><trkpt lat="44.836115" lon="9.61378"><ele>259.0</ele><time>2026-03-29T13:41:49.654Z</time></trkpt><trkpt lat="44.83594" lon="9.6139083"><ele>259.0</ele><time>2026-03-29T13:41:50.653Z</time></trkpt><trkpt lat="44.8357667" lon="9.614035"><ele>259.0</ele><time>2026-03-29T13:41:51.653Z</time></trkpt><trkpt lat="44.8356" lon="9.6141533"><ele>259.0</ele><time>2026-03-29T13:41:52.653Z</time></trkpt><trkpt lat="44.8354367" lon="9.6142717"><ele>259.0</ele><time>2026-03-29T13:41:53.654Z</time></trkpt><trkpt lat="44.8352717" lon="9.6143883"><ele>259.0</ele><time>2026-03-29T13:41:54.654Z</time></trkpt><trkpt lat="44.8351117" lon="9.6145017"><ele>259.0</ele><time>2026-03-29T13:41:55.652Z</time></trkpt><trkpt lat="44.8349583" lon="9.61461"><ele>261.66666666666663</ele><time>2026-03-29T13:41:56.652Z</time></trkpt><trkpt lat="44.8348133" lon="9.614715"><ele>264.3333333333333</ele><time>2026-03-29T13:41:57.652Z</time></trkpt><trkpt lat="44.8346733" lon="9.6148217"><ele>267.0</ele><time>2026-03-29T13:41:58.653Z</time></trkpt><trkpt lat="44.834535" lon="9.614935"><ele>267.0</ele><time>2026-03-29T13:41:59.653Z</time></trkpt><trkpt lat="44.8344017" lon="9.61506"><ele>267.0</ele><time>2026-03-29T13:42:00.653Z</time></trkpt><trkpt lat="44.8342633" lon="9.6151967"><ele>267.0</ele><time>2026-03-29T13:42:01.654Z</time></trkpt><trkpt lat="44.83413" lon="9.61535"><ele>268.6666666666667</ele><time>2026-03-29T13:42:02.654Z</time></trkpt><trkpt lat="44.834" lon="9.6155083"><ele>270.33333333333337</ele><time>2026-03-29T13:42:03.654Z</time></trkpt><trkpt lat="44.83387" lon="9.6156733"><ele>272.0</ele><time>2026-03-29T13:42:04.654Z</time></trkpt><trkpt lat="44.83374" lon="9.6158367"><ele>272.0</ele><time>2026-03-29T13:42:05.654Z</time></trkpt><trkpt lat="44.833605" lon="9.615995"><ele>272.0</ele><time>2026-03-29T13:42:06.654Z</time></trkpt><trkpt lat="44.8334683" lon="9.6161433"><ele>272.0</ele><time>2026-03-29T13:42:07.653Z</time></trkpt><trkpt lat="44.8333267" lon="9.61628"><ele>271.6666666666667</ele><time>2026-03-29T13:42:08.653Z</time></trkpt><trkpt lat="44.8331817" lon="9.616405"><ele>271.3333333333333</ele><time>2026-03-29T13:42:09.653Z</time></trkpt><trkpt lat="44.8330317" lon="9.6165183"><ele>271.0</ele><time>2026-03-29T13:42:10.654Z</time></trkpt><trkpt lat="44.83288" lon="9.616625"><ele>271.0</ele><time>2026-03-29T13:42:11.654Z</time></trkpt><trkpt lat="44.8327183" lon="9.61671"><ele>271.0</ele><time>2026-03-29T13:42:12.653Z</time></trkpt><trkpt lat="44.8325533" lon="9.61678"><ele>271.0</ele><time>2026-03-29T13:42:13.654Z</time></trkpt><trkpt lat="44.8323867" lon="9.6168383"><ele>268.0</ele><time>2026-03-29T13:42:14.654Z</time></trkpt><trkpt lat="44.8322167" lon="9.6168817"><ele>265.0</ele><time>2026-03-29T13:42:15.654Z</time></trkpt><trkpt lat="44.8320433" lon="9.6169083"><ele>262.0</ele><time>2026-03-29T13:42:16.652Z</time></trkpt><trkpt lat="44.8318667" lon="9.6169217"><ele>262.0</ele><time>2026-03-29T13:42:17.654Z</time></trkpt><trkpt lat="44.831685" lon="9.6169283"><ele>262.0</ele><time>2026-03-29T13:42:18.653Z</time></trkpt><trkpt lat="44.831505" lon="9.6169333"><ele>262.0</ele><time>2026-03-29T13:42:19.654Z</time></trkpt><trkpt lat="44.8313217" lon="9.616945"><ele>262.0</ele><time>2026-03-29T13:42:20.654Z</time></trkpt><trkpt lat="44.83114" lon="9.6169583"><ele>262.0</ele><time>2026-03-29T13:42:21.654Z</time></trkpt><trkpt lat="44.8309567" lon="9.6169717"><ele>262.0</ele><time>2026-03-29T13:42:22.653Z</time></trkpt><trkpt lat="44.8307733" lon="9.6169867"><ele>267.3333333333333</ele><time>2026-03-29T13:42:23.654Z</time></trkpt><trkpt lat="44.8305917" lon="9.6170083"><ele>272.6666666666667</ele><time>2026-03-29T13:42:24.654Z</time></trkpt><trkpt lat="44.8304083" lon="9.6170367"><ele>278.0</ele><time>2026-03-29T13:42:25.653Z</time></trkpt><trkpt lat="44.8302283" lon="9.6170783"><ele>277.33333333333337</ele><time>2026-03-29T13:42:26.654Z</time></trkpt><trkpt lat="44.8300517" lon="9.6171317"><ele>276.6666666666667</ele><time>2026-03-29T13:42:27.653Z</time></trkpt><trkpt lat="44.8298783" lon="9.6171967"><ele>276.0</ele><time>2026-03-29T13:42:28.653Z</time></trkpt><trkpt lat="44.8297083" lon="9.6172767"><ele>276.0</ele><time>2026-03-29T13:42:29.653Z</time></trkpt><trkpt lat="44.829535" lon="9.6173667"><ele>276.0</ele><time>2026-03-29T13:42:30.653Z</time></trkpt><trkpt lat="44.8293667" lon="9.6174683"><ele>276.0</ele><time>2026-03-29T13:42:31.653Z</time></trkpt><trkpt lat="44.8292017" lon="9.6175867"><ele>273.0</ele><time>2026-03-29T13:42:32.654Z</time></trkpt><trkpt lat="44.82904" lon="9.6177183"><ele>270.0</ele><time>2026-03-29T13:42:33.654Z</time></trkpt><trkpt lat="44.8288817" lon="9.6178617"><ele>267.0</ele><time>2026-03-29T13:42:34.654Z</time></trkpt><trkpt lat="44.828725" lon="9.6180167"><ele>267.3333333333333</ele><time>2026-03-29T13:42:35.653Z</time></trkpt><trkpt lat="44.82857" lon="9.6181817"><ele>267.66666666666663</ele><time>2026-03-29T13:42:36.654Z</time></trkpt><trkpt lat="44.82842" lon="9.6183483"><ele>268.0</ele><time>2026-03-29T13:42:37.653Z</time></trkpt><trkpt lat="44.8282717" lon="9.6185167"><ele>273.66666666666663</ele><time>2026-03-29T13:42:38.654Z</time></trkpt><trkpt lat="44.8281217" lon="9.6186733"><ele>279.3333333333333</ele><time>2026-03-29T13:42:39.654Z</time></trkpt><trkpt lat="44.82797" lon="9.6188267"><ele>285.0</ele><time>2026-03-29T13:42:40.653Z</time></trkpt><trkpt lat="44.8278167" lon="9.61897"><ele>285.0</ele><time>2026-03-29T13:42:41.654Z</time></trkpt><trkpt lat="44.8276583" lon="9.6191067"><ele>285.0</ele><time>2026-03-29T13:42:42.653Z</time></trkpt><trkpt lat="44.827495" lon="9.6192383"><ele>285.0</ele><time>2026-03-29T13:42:43.653Z</time></trkpt><trkpt lat="44.827325" lon="9.6193617"><ele>286.0</ele><time>2026-03-29T13:42:44.654Z</time></trkpt><trkpt lat="44.8271517" lon="9.6194733"><ele>287.0</ele><time>2026-03-29T13:42:45.653Z</time></trkpt><trkpt lat="44.8269783" lon="9.6195767"><ele>288.0</ele><time>2026-03-29T13:42:46.654Z</time></trkpt><trkpt lat="44.8268067" lon="9.6196733"><ele>283.6666666666667</ele><time>2026-03-29T13:42:47.656Z</time></trkpt><trkpt lat="44.8266317" lon="9.6197567"><ele>279.33333333333337</ele><time>2026-03-29T13:42:48.654Z</time></trkpt><trkpt lat="44.8264583" lon="9.61983"><ele>275.0</ele><time>2026-03-29T13:42:49.652Z</time></trkpt><trkpt lat="44.82628" lon="9.6198883"><ele>275.0</ele><time>2026-03-29T13:42:50.654Z</time></trkpt><trkpt lat="44.8261017" lon="9.619935"><ele>275.0</ele><time>2026-03-29T13:42:51.653Z</time></trkpt><trkpt lat="44.82592" lon="9.6199717"><ele>275.0</ele><time>2026-03-29T13:42:52.653Z</time></trkpt><trkpt lat="44.82574" lon="9.620005"><ele>272.0</ele><time>2026-03-29T13:42:53.654Z</time></trkpt><trkpt lat="44.825565" lon="9.62003"><ele>269.0</ele><time>2026-03-29T13:42:54.654Z</time></trkpt><trkpt lat="44.8254033" lon="9.620045"><ele>266.0</ele><time>2026-03-29T13:42:55.653Z</time></trkpt><trkpt lat="44.8252633" lon="9.6200517"><ele>266.0</ele><time>2026-03-29T13:42:56.654Z</time></trkpt><trkpt lat="44.8251467" lon="9.62005"><ele>266.0</ele><time>2026-03-29T13:42:57.654Z</time></trkpt><trkpt lat="44.8250517" lon="9.6200383"><ele>266.0</ele><time>2026-03-29T13:42:58.653Z</time></trkpt><trkpt lat="44.824975" lon="9.6200033"><ele>266.0</ele><time>2026-03-29T13:42:59.654Z</time></trkpt><trkpt lat="44.8249167" lon="9.6199367"><ele>266.0</ele><time>2026-03-29T13:43:00.653Z</time></trkpt><trkpt lat="44.8248817" lon="9.6198533"><ele>266.0</ele><time>2026-03-29T13:43:01.654Z</time></trkpt><trkpt lat="44.8248767" lon="9.6197467"><ele>266.0</ele><time>2026-03-29T13:43:02.654Z</time></trkpt><trkpt lat="44.8248917" lon="9.619605"><ele>266.0</ele><time>2026-03-29T13:43:03.654Z</time></trkpt><trkpt lat="44.8249083" lon="9.6194267"><ele>266.0</ele><time>2026-03-29T13:43:04.654Z</time></trkpt><trkpt lat="44.8249233" lon="9.6192167"><ele>266.0</ele><time>2026-03-29T13:43:05.654Z</time></trkpt><trkpt lat="44.8249333" lon="9.618995"><ele>265.0</ele><time>2026-03-29T13:43:06.654Z</time></trkpt><trkpt lat="44.8249467" lon="9.6187683"><ele>264.0</ele><time>2026-03-29T13:43:07.653Z</time></trkpt><trkpt lat="44.82496" lon="9.61855"><ele>263.0</ele><time>2026-03-29T13:43:08.655Z</time></trkpt><trkpt lat="44.82497" lon="9.618345"><ele>262.75</ele><time>2026-03-29T13:43:09.653Z</time></trkpt><trkpt lat="44.8249817" lon="9.6181483"><ele>262.5</ele><time>2026-03-29T13:43:10.653Z</time></trkpt><trkpt lat="44.82499" lon="9.61797"><ele>262.25</ele><time>2026-03-29T13:43:11.653Z</time></trkpt><trkpt lat="44.824995" lon="9.6178133"><ele>262.0</ele><time>2026-03-29T13:43:12.653Z</time></trkpt><trkpt lat="44.8249967" lon="9.6176883"><ele>262.0</ele><time>2026-03-29T13:43:13.653Z</time></trkpt><trkpt lat="44.8249883" lon="9.6175867"><ele>262.0</ele><time>2026-03-29T13:43:14.653Z</time></trkpt><trkpt lat="44.82494" lon="9.617445"><ele>262.0</ele><time>2026-03-29T13:43:16.653Z</time></trkpt><trkpt lat="44.824806" lon="9.6173533"><ele>262.0</ele><time>2026-03-29T13:44:40.655Z</time></trkpt><trkpt lat="44.8247129" lon="9.6173283"><ele>262.0</ele><time>2026-03-29T13:44:41.654Z</time></trkpt><trkpt lat="44.8246311" lon="9.6173171"><ele>262.0</ele><time>2026-03-29T13:44:42.655Z</time></trkpt><trkpt lat="44.8245645" lon="9.6173195"><ele>262.0</ele><time>2026-03-29T13:44:43.655Z</time></trkpt><trkpt lat="44.824464" lon="9.6173116"><ele>262.0</ele><time>2026-03-29T13:44:45.653Z</time></trkpt><trkpt lat="44.82443" lon="9.6172246"><ele>262.0</ele><time>2026-03-29T13:44:47.653Z</time></trkpt><trkpt lat="44.8244417" lon="9.6170017"><ele>262.0</ele><time>2026-03-29T13:44:49.653Z</time></trkpt><trkpt lat="44.8244533" lon="9.6168833"><ele>263.16666666666663</ele><time>2026-03-29T13:44:50.654Z</time></trkpt><trkpt lat="44.8244617" lon="9.6167683"><ele>264.3333333333333</ele><time>2026-03-29T13:44:51.653Z</time></trkpt><trkpt lat="44.8244667" lon="9.6166767"><ele>265.5</ele><time>2026-03-29T13:44:52.653Z</time></trkpt><trkpt lat="44.8244767" lon="9.61655"><ele>266.6666666666667</ele><time>2026-03-29T13:44:54.653Z</time></trkpt><trkpt lat="44.8244617" lon="9.616445"><ele>267.83333333333337</ele><time>2026-03-29T13:44:56.654Z</time></trkpt><trkpt lat="44.8243983" lon="9.6163883"><ele>269.0</ele><time>2026-03-29T13:44:58.654Z</time></trkpt><trkpt lat="44.82429" lon="9.61643"><ele>269.5</ele><time>2026-03-29T13:45:00.654Z</time></trkpt><trkpt lat="44.82422" lon="9.61646"><ele>270.0</ele><time>2026-03-29T13:45:01.653Z</time></trkpt><trkpt lat="44.8241367" lon="9.616485"><ele>270.5</ele><time>2026-03-29T13:45:02.655Z</time></trkpt><trkpt lat="44.8240533" lon="9.6165117"><ele>271.0</ele><time>2026-03-29T13:45:03.654Z</time></trkpt><trkpt lat="44.82397" lon="9.61653"><ele>271.5</ele><time>2026-03-29T13:45:04.654Z</time></trkpt><trkpt lat="44.82389" lon="9.61654"><ele>272.0</ele><time>2026-03-29T13:45:05.652Z</time></trkpt><trkpt lat="44.82381" lon="9.616545"><ele>272.0</ele><time>2026-03-29T13:45:06.653Z</time></trkpt><trkpt lat="44.82373" lon="9.6165383"><ele>272.0</ele><time>2026-03-29T13:45:07.655Z</time></trkpt><trkpt lat="44.8236467" lon="9.6165217"><ele>272.0</ele><time>2026-03-29T13:45:08.654Z</time></trkpt><trkpt lat="44.823565" lon="9.6164883"><ele>272.0</ele><time>2026-03-29T13:45:09.653Z</time></trkpt><trkpt lat="44.8234917" lon="9.6164517"><ele>272.0</ele><time>2026-03-29T13:45:10.654Z</time></trkpt><trkpt lat="44.8234267" lon="9.6164017"><ele>272.0</ele><time>2026-03-29T13:45:11.653Z</time></trkpt><trkpt lat="44.8233733" lon="9.61634"><ele>271.8</ele><time>2026-03-29T13:45:12.654Z</time></trkpt><trkpt lat="44.8233283" lon="9.6161817"><ele>271.6</ele><time>2026-03-29T13:45:14.654Z</time></trkpt><trkpt lat="44.8233267" lon="9.61607"><ele>271.40000000000003</ele><time>2026-03-29T13:45:15.654Z</time></trkpt><trkpt lat="44.82333" lon="9.615945"><ele>271.2</ele><time>2026-03-29T13:45:16.654Z</time></trkpt><trkpt lat="44.8233367" lon="9.6158067"><ele>271.0</ele><time>2026-03-29T13:45:17.652Z</time></trkpt><trkpt lat="44.8233383" lon="9.615655"><ele>272.0</ele><time>2026-03-29T13:45:18.654Z</time></trkpt><trkpt lat="44.8233383" lon="9.61551"><ele>273.0</ele><time>2026-03-29T13:45:19.652Z</time></trkpt><trkpt lat="44.8233383" lon="9.6153683"><ele>274.0</ele><time>2026-03-29T13:45:20.654Z</time></trkpt><trkpt lat="44.82334" lon="9.6152283"><ele>275.0</ele><time>2026-03-29T13:45:21.653Z</time></trkpt><trkpt lat="44.8233483" lon="9.615095"><ele>276.0</ele><time>2026-03-29T13:45:22.653Z</time></trkpt><trkpt lat="44.8233767" lon="9.6149767"><ele>276.8</ele><time>2026-03-29T13:45:23.654Z</time></trkpt><trkpt lat="44.8234283" lon="9.6148817"><ele>277.6</ele><time>2026-03-29T13:45:24.653Z</time></trkpt><trkpt lat="44.8235017" lon="9.614795"><ele>278.4</ele><time>2026-03-29T13:45:25.652Z</time></trkpt><trkpt lat="44.8235933" lon="9.61471"><ele>279.2</ele><time>2026-03-29T13:45:26.653Z</time></trkpt><trkpt lat="44.8236867" lon="9.6146217"><ele>280.0</ele><time>2026-03-29T13:45:27.654Z</time></trkpt><trkpt lat="44.8237767" lon="9.6145333"><ele>281.4</ele><time>2026-03-29T13:45:28.653Z</time></trkpt><trkpt lat="44.8238533" lon="9.6144383"><ele>282.8</ele><time>2026-03-29T13:45:29.654Z</time></trkpt><trkpt lat="44.8239183" lon="9.6143383"><ele>284.2</ele><time>2026-03-29T13:45:30.654Z</time></trkpt><trkpt lat="44.8239717" lon="9.6142283"><ele>285.6</ele><time>2026-03-29T13:45:31.656Z</time></trkpt><trkpt lat="44.8240217" lon="9.614105"><ele>287.0</ele><time>2026-03-29T13:45:32.656Z</time></trkpt><trkpt lat="44.8240683" lon="9.6139683"><ele>287.0</ele><time>2026-03-29T13:45:33.652Z</time></trkpt><trkpt lat="44.8241183" lon="9.6138317"><ele>287.0</ele><time>2026-03-29T13:45:34.653Z</time></trkpt><trkpt lat="44.8241767" lon="9.6137017"><ele>287.0</ele><time>2026-03-29T13:45:35.653Z</time></trkpt><trkpt lat="44.8242317" lon="9.61358"><ele>287.0</ele><time>2026-03-29T13:45:36.653Z</time></trkpt><trkpt lat="44.8242767" lon="9.6134717"><ele>287.0</ele><time>2026-03-29T13:45:37.653Z</time></trkpt><trkpt lat="44.8243183" lon="9.6133733"><ele>287.33333333333337</ele><time>2026-03-29T13:45:38.654Z</time></trkpt><trkpt lat="44.8243467" lon="9.6132767"><ele>287.6666666666667</ele><time>2026-03-29T13:45:39.654Z</time></trkpt><trkpt lat="44.8243533" lon="9.61318"><ele>288.0</ele><time>2026-03-29T13:45:40.653Z</time></trkpt><trkpt lat="44.8243417" lon="9.613085"><ele>288.3333333333333</ele><time>2026-03-29T13:45:41.654Z</time></trkpt><trkpt lat="44.8243133" lon="9.6130017"><ele>288.66666666666663</ele><time>2026-03-29T13:45:42.652Z</time></trkpt><trkpt lat="44.824255" lon="9.612915"><ele>289.0</ele><time>2026-03-29T13:45:43.652Z</time></trkpt><trkpt lat="44.8241917" lon="9.6128233"><ele>290.0</ele><time>2026-03-29T13:45:44.653Z</time></trkpt><trkpt lat="44.8241333" lon="9.61273"><ele>291.0</ele><time>2026-03-29T13:45:45.653Z</time></trkpt><trkpt lat="44.8240783" lon="9.6126433"><ele>292.0</ele><time>2026-03-29T13:45:46.653Z</time></trkpt><trkpt lat="44.82402" lon="9.6125783"><ele>293.0</ele><time>2026-03-29T13:45:47.653Z</time></trkpt><trkpt lat="44.8239583" lon="9.6125383"><ele>294.0</ele><time>2026-03-29T13:45:48.653Z</time></trkpt><trkpt lat="44.8238367" lon="9.61255"><ele>295.0</ele><time>2026-03-29T13:45:50.654Z</time></trkpt><trkpt lat="44.8238033" lon="9.6126517"><ele>295.0</ele><time>2026-03-29T13:45:51.653Z</time></trkpt><trkpt lat="44.8237683" lon="9.612765"><ele>295.0</ele><time>2026-03-29T13:45:52.654Z</time></trkpt><trkpt lat="44.823735" lon="9.6128967"><ele>295.0</ele><time>2026-03-29T13:45:53.653Z</time></trkpt><trkpt lat="44.8237" lon="9.6130167"><ele>295.0</ele><time>2026-03-29T13:45:54.653Z</time></trkpt><trkpt lat="44.8236583" lon="9.61313"><ele>295.0</ele><time>2026-03-29T13:45:55.652Z</time></trkpt><trkpt lat="44.8236017" lon="9.6132433"><ele>295.0</ele><time>2026-03-29T13:45:56.654Z</time></trkpt><trkpt lat="44.8235317" lon="9.6133533"><ele>295.0</ele><time>2026-03-29T13:45:57.652Z</time></trkpt><trkpt lat="44.8234533" lon="9.6134583"><ele>295.0</ele><time>2026-03-29T13:45:58.653Z</time></trkpt><trkpt lat="44.8233717" lon="9.6135567"><ele>295.0</ele><time>2026-03-29T13:45:59.653Z</time></trkpt><trkpt lat="44.823285" lon="9.613655"><ele>295.0</ele><time>2026-03-29T13:46:00.652Z</time></trkpt><trkpt lat="44.8231917" lon="9.6137433"><ele>296.8</ele><time>2026-03-29T13:46:01.653Z</time></trkpt><trkpt lat="44.823095" lon="9.6138317"><ele>298.6</ele><time>2026-03-29T13:46:02.654Z</time></trkpt><trkpt lat="44.8229983" lon="9.6139217"><ele>300.4</ele><time>2026-03-29T13:46:03.653Z</time></trkpt><trkpt lat="44.822905" lon="9.614"><ele>302.2</ele><time>2026-03-29T13:46:04.653Z</time></trkpt><trkpt lat="44.8228083" lon="9.6140567"><ele>304.0</ele><time>2026-03-29T13:46:05.653Z</time></trkpt><trkpt lat="44.822705" lon="9.6140967"><ele>309.5</ele><time>2026-03-29T13:46:06.653Z</time></trkpt><trkpt lat="44.8225933" lon="9.61412"><ele>315.0</ele><time>2026-03-29T13:46:07.653Z</time></trkpt><trkpt lat="44.8224717" lon="9.6141267"><ele>320.5</ele><time>2026-03-29T13:46:08.654Z</time></trkpt><trkpt lat="44.8223433" lon="9.614125"><ele>326.0</ele><time>2026-03-29T13:46:09.654Z</time></trkpt><trkpt lat="44.8222133" lon="9.61412"><ele>326.0</ele><time>2026-03-29T13:46:10.653Z</time></trkpt><trkpt lat="44.8220783" lon="9.61411"><ele>326.0</ele><time>2026-03-29T13:46:11.655Z</time></trkpt><trkpt lat="44.8219467" lon="9.614095"><ele>326.0</ele><time>2026-03-29T13:46:12.654Z</time></trkpt><trkpt lat="44.8218133" lon="9.614075"><ele>326.0</ele><time>2026-03-29T13:46:13.653Z</time></trkpt><trkpt lat="44.821685" lon="9.6140533"><ele>328.25</ele><time>2026-03-29T13:46:14.654Z</time></trkpt><trkpt lat="44.8215617" lon="9.6140233"><ele>330.5</ele><time>2026-03-29T13:46:15.653Z</time></trkpt><trkpt lat="44.8214417" lon="9.6139867"><ele>332.75</ele><time>2026-03-29T13:46:16.654Z</time></trkpt><trkpt lat="44.8213283" lon="9.6139467"><ele>335.0</ele><time>2026-03-29T13:46:17.653Z</time></trkpt><trkpt lat="44.8212283" lon="9.61391"><ele>335.0</ele><time>2026-03-29T13:46:18.655Z</time></trkpt><trkpt lat="44.82114" lon="9.6138767"><ele>335.0</ele><time>2026-03-29T13:46:19.654Z</time></trkpt><trkpt lat="44.8210633" lon="9.6138317"><ele>335.0</ele><time>2026-03-29T13:46:20.654Z</time></trkpt><trkpt lat="44.8209917" lon="9.6137633"><ele>335.0</ele><time>2026-03-29T13:46:21.653Z</time></trkpt><trkpt lat="44.8209167" lon="9.61367"><ele>335.0</ele><time>2026-03-29T13:46:22.654Z</time></trkpt><trkpt lat="44.82083" lon="9.6135867"><ele>343.0</ele><time>2026-03-29T13:46:23.652Z</time></trkpt><trkpt lat="44.8207283" lon="9.6135483"><ele>351.0</ele><time>2026-03-29T13:46:24.653Z</time></trkpt><trkpt lat="44.8206067" lon="9.6135367"><ele>359.0</ele><time>2026-03-29T13:46:25.654Z</time></trkpt><trkpt lat="44.8204767" lon="9.613535"><ele>367.0</ele><time>2026-03-29T13:46:26.654Z</time></trkpt><trkpt lat="44.8203483" lon="9.61353"><ele>367.0</ele><time>2026-03-29T13:46:27.653Z</time></trkpt><trkpt lat="44.8202267" lon="9.61354"><ele>367.0</ele><time>2026-03-29T13:46:28.653Z</time></trkpt><trkpt lat="44.8201067" lon="9.6135783"><ele>367.0</ele><time>2026-03-29T13:46:29.654Z</time></trkpt><trkpt lat="44.81999" lon="9.61363"><ele>367.0</ele><time>2026-03-29T13:46:30.655Z</time></trkpt><trkpt lat="44.8198783" lon="9.6136633"><ele>368.20000000000005</ele><time>2026-03-29T13:46:31.654Z</time></trkpt><trkpt lat="44.8197817" lon="9.613675"><ele>369.4</ele><time>2026-03-29T13:46:32.654Z</time></trkpt><trkpt lat="44.8196917" lon="9.613655"><ele>370.6</ele><time>2026-03-29T13:46:33.658Z</time></trkpt><trkpt lat="44.8196067" lon="9.6136067"><ele>371.79999999999995</ele><time>2026-03-29T13:46:34.654Z</time></trkpt><trkpt lat="44.8195183" lon="9.6135317"><ele>373.0</ele><time>2026-03-29T13:46:35.654Z</time></trkpt><trkpt lat="44.81943" lon="9.6134567"><ele>373.0</ele><time>2026-03-29T13:46:36.654Z</time></trkpt><trkpt lat="44.8193433" lon="9.6133667"><ele>373.0</ele><time>2026-03-29T13:46:37.654Z</time></trkpt><trkpt lat="44.8192533" lon="9.6132733"><ele>373.0</ele><time>2026-03-29T13:46:38.655Z</time></trkpt><trkpt lat="44.8191633" lon="9.6131733"><ele>373.0</ele><time>2026-03-29T13:46:39.654Z</time></trkpt><trkpt lat="44.819085" lon="9.6130683"><ele>373.0</ele><time>2026-03-29T13:46:40.654Z</time></trkpt><trkpt lat="44.819015" lon="9.6129483"><ele>377.4</ele><time>2026-03-29T13:46:41.652Z</time></trkpt><trkpt lat="44.8189467" lon="9.6128217"><ele>381.79999999999995</ele><time>2026-03-29T13:46:42.654Z</time></trkpt><trkpt lat="44.81889" lon="9.612705"><ele>386.2</ele><time>2026-03-29T13:46:43.652Z</time></trkpt><trkpt lat="44.8188417" lon="9.612595"><ele>390.6</ele><time>2026-03-29T13:46:44.654Z</time></trkpt><trkpt lat="44.8187933" lon="9.612505"><ele>395.0</ele><time>2026-03-29T13:46:45.653Z</time></trkpt><trkpt lat="44.8187267" lon="9.612445"><ele>394.99999999999994</ele><time>2026-03-29T13:46:46.654Z</time></trkpt><trkpt lat="44.8186483" lon="9.6124367"><ele>395.0</ele><time>2026-03-29T13:46:47.653Z</time></trkpt><trkpt lat="44.81857" lon="9.6124667"><ele>395.0</ele><time>2026-03-29T13:46:48.654Z</time></trkpt><trkpt lat="44.81848" lon="9.612505"><ele>395.0</ele><time>2026-03-29T13:46:49.653Z</time></trkpt><trkpt lat="44.8183833" lon="9.6125367"><ele>394.99999999999994</ele><time>2026-03-29T13:46:50.653Z</time></trkpt><trkpt lat="44.818295" lon="9.6125383"><ele>395.0</ele><time>2026-03-29T13:46:51.654Z</time></trkpt><trkpt lat="44.8182233" lon="9.6125183"><ele>392.99999999999994</ele><time>2026-03-29T13:46:52.654Z</time></trkpt><trkpt lat="44.81813" lon="9.6124617"><ele>391.0</ele><time>2026-03-29T13:46:54.655Z</time></trkpt><trkpt lat="44.8181283" lon="9.6123433"><ele>389.0</ele><time>2026-03-29T13:46:56.655Z</time></trkpt><trkpt lat="44.8181733" lon="9.612275"><ele>387.0</ele><time>2026-03-29T13:46:57.655Z</time></trkpt><trkpt lat="44.818245" lon="9.612205"><ele>385.0</ele><time>2026-03-29T13:46:58.653Z</time></trkpt><trkpt lat="44.818325" lon="9.6121233"><ele>383.0</ele><time>2026-03-29T13:46:59.653Z</time></trkpt><trkpt lat="44.818405" lon="9.612035"><ele>383.59999999999997</ele><time>2026-03-29T13:47:00.654Z</time></trkpt><trkpt lat="44.818475" lon="9.6119433"><ele>384.2</ele><time>2026-03-29T13:47:01.653Z</time></trkpt><trkpt lat="44.8185317" lon="9.6118367"><ele>384.8</ele><time>2026-03-29T13:47:02.654Z</time></trkpt><trkpt lat="44.8185633" lon="9.61171"><ele>385.4</ele><time>2026-03-29T13:47:03.653Z</time></trkpt><trkpt lat="44.8185667" lon="9.6115633"><ele>386.0</ele><time>2026-03-29T13:47:04.653Z</time></trkpt><trkpt lat="44.8185533" lon="9.6114133"><ele>389.3333333333333</ele><time>2026-03-29T13:47:05.654Z</time></trkpt><trkpt lat="44.8185467" lon="9.61128"><ele>392.66666666666663</ele><time>2026-03-29T13:47:06.654Z</time></trkpt><trkpt lat="44.8185583" lon="9.61116"><ele>396.0</ele><time>2026-03-29T13:47:07.654Z</time></trkpt><trkpt lat="44.8185917" lon="9.6110433"><ele>399.33333333333337</ele><time>2026-03-29T13:47:08.655Z</time></trkpt><trkpt lat="44.81864" lon="9.6109367"><ele>402.6666666666667</ele><time>2026-03-29T13:47:09.653Z</time></trkpt><trkpt lat="44.8187017" lon="9.6108483"><ele>406.0</ele><time>2026-03-29T13:47:10.653Z</time></trkpt><trkpt lat="44.8187717" lon="9.6107567"><ele>406.0</ele><time>2026-03-29T13:47:11.653Z</time></trkpt><trkpt lat="44.818835" lon="9.6106567"><ele>406.0</ele><time>2026-03-29T13:47:12.652Z</time></trkpt><trkpt lat="44.8188817" lon="9.610535"><ele>406.0</ele><time>2026-03-29T13:47:13.654Z</time></trkpt><trkpt lat="44.818915" lon="9.6104017"><ele>406.0</ele><time>2026-03-29T13:47:14.655Z</time></trkpt><trkpt lat="44.81894" lon="9.6102683"><ele>406.0</ele><time>2026-03-29T13:47:15.653Z</time></trkpt><trkpt lat="44.8189617" lon="9.6101383"><ele>403.83333333333337</ele><time>2026-03-29T13:47:16.654Z</time></trkpt><trkpt lat="44.818985" lon="9.6100117"><ele>401.6666666666667</ele><time>2026-03-29T13:47:17.654Z</time></trkpt><trkpt lat="44.81901" lon="9.609895"><ele>399.5</ele><time>2026-03-29T13:47:18.653Z</time></trkpt><trkpt lat="44.81904" lon="9.6097833"><ele>397.33333333333337</ele><time>2026-03-29T13:47:19.654Z</time></trkpt><trkpt lat="44.8190733" lon="9.60967"><ele>395.1666666666667</ele><time>2026-03-29T13:47:20.655Z</time></trkpt><trkpt lat="44.8191117" lon="9.60956"><ele>393.0</ele><time>2026-03-29T13:47:21.654Z</time></trkpt><trkpt lat="44.8191517" lon="9.6094583"><ele>393.0</ele><time>2026-03-29T13:47:22.654Z</time></trkpt><trkpt lat="44.8191933" lon="9.6093617"><ele>393.0</ele><time>2026-03-29T13:47:23.654Z</time></trkpt><trkpt lat="44.81923" lon="9.6092583"><ele>393.0</ele><time>2026-03-29T13:47:24.655Z</time></trkpt><trkpt lat="44.81926" lon="9.6091367"><ele>393.0</ele><time>2026-03-29T13:47:25.653Z</time></trkpt><trkpt lat="44.8192833" lon="9.6090017"><ele>393.0</ele><time>2026-03-29T13:47:26.654Z</time></trkpt><trkpt lat="44.8193" lon="9.6088683"><ele>393.0</ele><time>2026-03-29T13:47:27.654Z</time></trkpt><trkpt lat="44.819315" lon="9.60874"><ele>394.0</ele><time>2026-03-29T13:47:28.654Z</time></trkpt><trkpt lat="44.819325" lon="9.6086067"><ele>395.0</ele><time>2026-03-29T13:47:29.654Z</time></trkpt><trkpt lat="44.8193183" lon="9.6084683"><ele>396.0</ele><time>2026-03-29T13:47:30.653Z</time></trkpt><trkpt lat="44.8192983" lon="9.6083317"><ele>397.0</ele><time>2026-03-29T13:47:31.654Z</time></trkpt><trkpt lat="44.819275" lon="9.6082"><ele>398.0</ele><time>2026-03-29T13:47:32.656Z</time></trkpt><trkpt lat="44.819255" lon="9.6080867"><ele>397.99999999999994</ele><time>2026-03-29T13:47:33.653Z</time></trkpt><trkpt lat="44.8192433" lon="9.6079933"><ele>398.0</ele><time>2026-03-29T13:47:34.653Z</time></trkpt><trkpt lat="44.8192533" lon="9.6079033"><ele>398.0</ele><time>2026-03-29T13:47:35.654Z</time></trkpt><trkpt lat="44.819285" lon="9.607825"><ele>398.0</ele><time>2026-03-29T13:47:36.655Z</time></trkpt><trkpt lat="44.8193467" lon="9.6077867"><ele>398.0</ele><time>2026-03-29T13:47:37.652Z</time></trkpt><trkpt lat="44.8194283" lon="9.6077817"><ele>397.99999999999994</ele><time>2026-03-29T13:47:38.655Z</time></trkpt><trkpt lat="44.8195167" lon="9.6077833"><ele>398.0</ele><time>2026-03-29T13:47:39.653Z</time></trkpt><trkpt lat="44.8196033" lon="9.6077567"><ele>399.79999999999995</ele><time>2026-03-29T13:47:40.654Z</time></trkpt><trkpt lat="44.8196833" lon="9.6076933"><ele>401.6</ele><time>2026-03-29T13:47:41.653Z</time></trkpt><trkpt lat="44.8197483" lon="9.6075967"><ele>403.4</ele><time>2026-03-29T13:47:42.654Z</time></trkpt><trkpt lat="44.8198017" lon="9.60749"><ele>405.20000000000005</ele><time>2026-03-29T13:47:43.654Z</time></trkpt><trkpt lat="44.8198417" lon="9.60737"><ele>407.0</ele><time>2026-03-29T13:47:44.653Z</time></trkpt><trkpt lat="44.8198817" lon="9.6072483"><ele>407.0</ele><time>2026-03-29T13:47:45.654Z</time></trkpt><trkpt lat="44.81992" lon="9.6071183"><ele>407.0</ele><time>2026-03-29T13:47:46.654Z</time></trkpt><trkpt lat="44.8199583" lon="9.606985"><ele>407.0</ele><time>2026-03-29T13:47:47.654Z</time></trkpt><trkpt lat="44.8199967" lon="9.6068483"><ele>407.0</ele><time>2026-03-29T13:47:48.654Z</time></trkpt><trkpt lat="44.8200317" lon="9.606715"><ele>407.0</ele><time>2026-03-29T13:47:49.654Z</time></trkpt><trkpt lat="44.8200583" lon="9.606595"><ele>411.20000000000005</ele><time>2026-03-29T13:47:50.654Z</time></trkpt><trkpt lat="44.820065" lon="9.606475"><ele>415.4</ele><time>2026-03-29T13:47:51.654Z</time></trkpt><trkpt lat="44.8200483" lon="9.6063567"><ele>419.59999999999997</ele><time>2026-03-29T13:47:52.654Z</time></trkpt><trkpt lat="44.820005" lon="9.6062467"><ele>423.79999999999995</ele><time>2026-03-29T13:47:53.655Z</time></trkpt><trkpt lat="44.81994" lon="9.6061533"><ele>428.0</ele><time>2026-03-29T13:47:54.653Z</time></trkpt><trkpt lat="44.819855" lon="9.60608"><ele>430.59999999999997</ele><time>2026-03-29T13:47:55.654Z</time></trkpt><trkpt lat="44.8197617" lon="9.6060233"><ele>433.19999999999993</ele><time>2026-03-29T13:47:56.654Z</time></trkpt><trkpt lat="44.8196583" lon="9.6059783"><ele>435.8</ele><time>2026-03-29T13:47:57.653Z</time></trkpt><trkpt lat="44.8195533" lon="9.6059383"><ele>438.4</ele><time>2026-03-29T13:47:58.659Z</time></trkpt><trkpt lat="44.819445" lon="9.6059017"><ele>441.0</ele><time>2026-03-29T13:47:59.656Z</time></trkpt><trkpt lat="44.8193417" lon="9.60587"><ele>439.8</ele><time>2026-03-29T13:48:00.656Z</time></trkpt><trkpt lat="44.8192567" lon="9.6058417"><ele>438.6</ele><time>2026-03-29T13:48:01.655Z</time></trkpt><trkpt lat="44.8191883" lon="9.60581"><ele>437.4</ele><time>2026-03-29T13:48:02.653Z</time></trkpt><trkpt lat="44.8191033" lon="9.605705"><ele>436.2</ele><time>2026-03-29T13:48:04.655Z</time></trkpt><trkpt lat="44.8191033" lon="9.60552"><ele>435.0</ele><time>2026-03-29T13:48:06.652Z</time></trkpt><trkpt lat="44.81913" lon="9.6054167"><ele>436.3333333333333</ele><time>2026-03-29T13:48:07.654Z</time></trkpt><trkpt lat="44.8191667" lon="9.605305"><ele>437.66666666666663</ele><time>2026-03-29T13:48:08.653Z</time></trkpt><trkpt lat="44.8192033" lon="9.6051883"><ele>439.0</ele><time>2026-03-29T13:48:09.654Z</time></trkpt><trkpt lat="44.81924" lon="9.605075"><ele>440.3333333333333</ele><time>2026-03-29T13:48:10.656Z</time></trkpt><trkpt lat="44.8192717" lon="9.6049767"><ele>441.66666666666663</ele><time>2026-03-29T13:48:11.654Z</time></trkpt><trkpt lat="44.8192917" lon="9.6048833"><ele>443.0</ele><time>2026-03-29T13:48:12.654Z</time></trkpt><trkpt lat="44.819285" lon="9.6047933"><ele>442.99999999999994</ele><time>2026-03-29T13:48:13.655Z</time></trkpt><trkpt lat="44.8192483" lon="9.6047033"><ele>443.0</ele><time>2026-03-29T13:48:14.654Z</time></trkpt><trkpt lat="44.8191933" lon="9.6046083"><ele>443.0</ele><time>2026-03-29T13:48:15.653Z</time></trkpt><trkpt lat="44.819125" lon="9.6045183"><ele>443.0</ele><time>2026-03-29T13:48:16.654Z</time></trkpt><trkpt lat="44.81906" lon="9.6044317"><ele>442.99999999999994</ele><time>2026-03-29T13:48:17.656Z</time></trkpt><trkpt lat="44.819005" lon="9.6043433"><ele>443.0</ele><time>2026-03-29T13:48:18.653Z</time></trkpt><trkpt lat="44.8189667" lon="9.604245"><ele>447.0</ele><time>2026-03-29T13:48:19.654Z</time></trkpt><trkpt lat="44.8189417" lon="9.6041233"><ele>450.99999999999994</ele><time>2026-03-29T13:48:20.654Z</time></trkpt><trkpt lat="44.8189217" lon="9.6039917"><ele>454.99999999999994</ele><time>2026-03-29T13:48:21.654Z</time></trkpt><trkpt lat="44.8189033" lon="9.603865"><ele>459.0</ele><time>2026-03-29T13:48:22.654Z</time></trkpt><trkpt lat="44.8188917" lon="9.603735"><ele>463.0</ele><time>2026-03-29T13:48:23.654Z</time></trkpt><trkpt lat="44.8188883" lon="9.6036017"><ele>465.1666666666667</ele><time>2026-03-29T13:48:24.654Z</time></trkpt><trkpt lat="44.8188883" lon="9.6034733"><ele>467.33333333333337</ele><time>2026-03-29T13:48:25.654Z</time></trkpt><trkpt lat="44.81888" lon="9.603345"><ele>469.5</ele><time>2026-03-29T13:48:26.654Z</time></trkpt><trkpt lat="44.8188567" lon="9.6032233"><ele>471.66666666666663</ele><time>2026-03-29T13:48:27.654Z</time></trkpt><trkpt lat="44.81882" lon="9.603115"><ele>473.8333333333333</ele><time>2026-03-29T13:48:28.654Z</time></trkpt><trkpt lat="44.8187617" lon="9.6030233"><ele>476.0</ele><time>2026-03-29T13:48:29.654Z</time></trkpt><trkpt lat="44.8186967" lon="9.602945"><ele>476.0</ele><time>2026-03-29T13:48:30.654Z</time></trkpt><trkpt lat="44.8186183" lon="9.6028983"><ele>476.0</ele><time>2026-03-29T13:48:31.653Z</time></trkpt><trkpt lat="44.8185267" lon="9.60293"><ele>476.0</ele><time>2026-03-29T13:48:32.653Z</time></trkpt><trkpt lat="44.8184367" lon="9.6029767"><ele>476.0</ele><time>2026-03-29T13:48:33.654Z</time></trkpt><trkpt lat="44.8183417" lon="9.6030333"><ele>476.0</ele><time>2026-03-29T13:48:34.654Z</time></trkpt><trkpt lat="44.81824" lon="9.6030867"><ele>472.3333333333333</ele><time>2026-03-29T13:48:35.654Z</time></trkpt><trkpt lat="44.81814" lon="9.603125"><ele>468.66666666666663</ele><time>2026-03-29T13:48:36.653Z</time></trkpt><trkpt lat="44.81805" lon="9.60315"><ele>465.0</ele><time>2026-03-29T13:48:37.654Z</time></trkpt><trkpt lat="44.8179683" lon="9.6031583"><ele>461.33333333333337</ele><time>2026-03-29T13:48:38.654Z</time></trkpt><trkpt lat="44.8178983" lon="9.6031433"><ele>457.6666666666667</ele><time>2026-03-29T13:48:39.654Z</time></trkpt><trkpt lat="44.817835" lon="9.6031017"><ele>454.0</ele><time>2026-03-29T13:48:40.653Z</time></trkpt><trkpt lat="44.817775" lon="9.603025"><ele>454.00000000000006</ele><time>2026-03-29T13:48:41.652Z</time></trkpt><trkpt lat="44.8177167" lon="9.60293"><ele>454.0</ele><time>2026-03-29T13:48:42.654Z</time></trkpt><trkpt lat="44.8176583" lon="9.60283"><ele>454.0</ele><time>2026-03-29T13:48:43.654Z</time></trkpt><trkpt lat="44.8176033" lon="9.602735"><ele>454.0</ele><time>2026-03-29T13:48:44.654Z</time></trkpt><trkpt lat="44.8175467" lon="9.6026583"><ele>454.00000000000006</ele><time>2026-03-29T13:48:45.653Z</time></trkpt><trkpt lat="44.8174833" lon="9.6026017"><ele>454.0</ele><time>2026-03-29T13:48:46.655Z</time></trkpt><trkpt lat="44.8174117" lon="9.602575"><ele>454.00000000000006</ele><time>2026-03-29T13:48:47.655Z</time></trkpt><trkpt lat="44.8173383" lon="9.6025767"><ele>454.0</ele><time>2026-03-29T13:48:48.656Z</time></trkpt><trkpt lat="44.8172717" lon="9.60262"><ele>454.0</ele><time>2026-03-29T13:48:49.656Z</time></trkpt><trkpt lat="44.8172167" lon="9.6026967"><ele>454.0</ele><time>2026-03-29T13:48:50.656Z</time></trkpt><trkpt lat="44.8171683" lon="9.60278"><ele>454.00000000000006</ele><time>2026-03-29T13:48:51.656Z</time></trkpt><trkpt lat="44.8171183" lon="9.6028633"><ele>454.0</ele><time>2026-03-29T13:48:52.656Z</time></trkpt><trkpt lat="44.8170617" lon="9.6029417"><ele>454.0</ele><time>2026-03-29T13:48:53.657Z</time></trkpt><trkpt lat="44.816995" lon="9.6030117"><ele>454.0</ele><time>2026-03-29T13:48:54.654Z</time></trkpt><trkpt lat="44.81692" lon="9.6030733"><ele>454.0</ele><time>2026-03-29T13:48:55.654Z</time></trkpt><trkpt lat="44.8168417" lon="9.6031317"><ele>454.0</ele><time>2026-03-29T13:48:56.654Z</time></trkpt><trkpt lat="44.81676" lon="9.6032017"><ele>454.0</ele><time>2026-03-29T13:48:57.653Z</time></trkpt><trkpt lat="44.8166767" lon="9.6032833"><ele>454.83333333333337</ele><time>2026-03-29T13:48:58.653Z</time></trkpt><trkpt lat="44.8165967" lon="9.6033633"><ele>455.6666666666667</ele><time>2026-03-29T13:48:59.654Z</time></trkpt><trkpt lat="44.816525" lon="9.6034383"><ele>456.5</ele><time>2026-03-29T13:49:00.653Z</time></trkpt><trkpt lat="44.8164533" lon="9.6035067"><ele>457.33333333333337</ele><time>2026-03-29T13:49:01.654Z</time></trkpt><trkpt lat="44.81638" lon="9.6035617"><ele>458.1666666666667</ele><time>2026-03-29T13:49:02.654Z</time></trkpt><trkpt lat="44.8163017" lon="9.6036067"><ele>459.0</ele><time>2026-03-29T13:49:03.654Z</time></trkpt><trkpt lat="44.8162283" lon="9.6036533"><ele>459.2</ele><time>2026-03-29T13:49:04.653Z</time></trkpt><trkpt lat="44.8161633" lon="9.6037167"><ele>459.4</ele><time>2026-03-29T13:49:05.653Z</time></trkpt><trkpt lat="44.8161083" lon="9.603805"><ele>459.6</ele><time>2026-03-29T13:49:06.653Z</time></trkpt><trkpt lat="44.8160583" lon="9.60392"><ele>459.8</ele><time>2026-03-29T13:49:07.653Z</time></trkpt><trkpt lat="44.816005" lon="9.6040483"><ele>460.0</ele><time>2026-03-29T13:49:08.654Z</time></trkpt><trkpt lat="44.8159483" lon="9.6041817"><ele>460.0</ele><time>2026-03-29T13:49:09.654Z</time></trkpt><trkpt lat="44.8158917" lon="9.604315"><ele>460.0</ele><time>2026-03-29T13:49:10.653Z</time></trkpt><trkpt lat="44.81584" lon="9.6044583"><ele>460.0</ele><time>2026-03-29T13:49:11.652Z</time></trkpt><trkpt lat="44.8157917" lon="9.6046017"><ele>460.0</ele><time>2026-03-29T13:49:12.654Z</time></trkpt><trkpt lat="44.8157483" lon="9.6047417"><ele>460.0</ele><time>2026-03-29T13:49:13.654Z</time></trkpt><trkpt lat="44.81571" lon="9.6048683"><ele>458.83333333333337</ele><time>2026-03-29T13:49:14.653Z</time></trkpt><trkpt lat="44.8156767" lon="9.6049767"><ele>457.6666666666667</ele><time>2026-03-29T13:49:15.653Z</time></trkpt><trkpt lat="44.815645" lon="9.6050667"><ele>456.5</ele><time>2026-03-29T13:49:16.654Z</time></trkpt><trkpt lat="44.815605" lon="9.6051383"><ele>455.33333333333337</ele><time>2026-03-29T13:49:17.654Z</time></trkpt><trkpt lat="44.8155483" lon="9.6051917"><ele>454.1666666666667</ele><time>2026-03-29T13:49:18.653Z</time></trkpt><trkpt lat="44.8154667" lon="9.6052233"><ele>453.0</ele><time>2026-03-29T13:49:19.655Z</time></trkpt><trkpt lat="44.81537" lon="9.6052283"><ele>453.0</ele><time>2026-03-29T13:49:20.653Z</time></trkpt><trkpt lat="44.8152533" lon="9.6052117"><ele>453.0</ele><time>2026-03-29T13:49:21.653Z</time></trkpt><trkpt lat="44.8151333" lon="9.6051983"><ele>453.0</ele><time>2026-03-29T13:49:22.654Z</time></trkpt><trkpt lat="44.8150167" lon="9.60519"><ele>453.0</ele><time>2026-03-29T13:49:23.654Z</time></trkpt><trkpt lat="44.8148883" lon="9.6051833"><ele>452.0</ele><time>2026-03-29T13:49:24.654Z</time></trkpt><trkpt lat="44.8147583" lon="9.6051883"><ele>451.0</ele><time>2026-03-29T13:49:25.654Z</time></trkpt><trkpt lat="44.81464" lon="9.6052117"><ele>450.0</ele><time>2026-03-29T13:49:26.654Z</time></trkpt><trkpt lat="44.8145317" lon="9.60527"><ele>449.0</ele><time>2026-03-29T13:49:27.654Z</time></trkpt><trkpt lat="44.8144317" lon="9.6053517"><ele>449.0</ele><time>2026-03-29T13:49:28.654Z</time></trkpt><trkpt lat="44.8143433" lon="9.605465"><ele>449.0</ele><time>2026-03-29T13:49:29.654Z</time></trkpt><trkpt lat="44.8142583" lon="9.6056167"><ele>449.0</ele><time>2026-03-29T13:49:30.653Z</time></trkpt><trkpt lat="44.8141733" lon="9.6057817"><ele>449.0</ele><time>2026-03-29T13:49:31.653Z</time></trkpt><trkpt lat="44.8140917" lon="9.60594"><ele>453.25</ele><time>2026-03-29T13:49:32.654Z</time></trkpt><trkpt lat="44.8140133" lon="9.6060833"><ele>457.5</ele><time>2026-03-29T13:49:33.653Z</time></trkpt><trkpt lat="44.813935" lon="9.6062317"><ele>461.75</ele><time>2026-03-29T13:49:34.652Z</time></trkpt><trkpt lat="44.8138633" lon="9.6063817"><ele>466.0</ele><time>2026-03-29T13:49:35.653Z</time></trkpt><trkpt lat="44.8138033" lon="9.60652"><ele>466.0</ele><time>2026-03-29T13:49:36.654Z</time></trkpt><trkpt lat="44.8137533" lon="9.6066467"><ele>466.0</ele><time>2026-03-29T13:49:37.654Z</time></trkpt><trkpt lat="44.8137067" lon="9.6067533"><ele>466.0</ele><time>2026-03-29T13:49:38.653Z</time></trkpt><trkpt lat="44.8136567" lon="9.6068433"><ele>466.0</ele><time>2026-03-29T13:49:39.653Z</time></trkpt><trkpt lat="44.813595" lon="9.606925"><ele>466.0</ele><time>2026-03-29T13:49:40.654Z</time></trkpt><trkpt lat="44.81351" lon="9.6069983"><ele>466.6</ele><time>2026-03-29T13:49:41.654Z</time></trkpt><trkpt lat="44.81342" lon="9.6070717"><ele>467.20000000000005</ele><time>2026-03-29T13:49:42.654Z</time></trkpt><trkpt lat="44.81332" lon="9.607145"><ele>467.79999999999995</ele><time>2026-03-29T13:49:43.653Z</time></trkpt><trkpt lat="44.8132167" lon="9.6072133"><ele>468.4</ele><time>2026-03-29T13:49:44.654Z</time></trkpt><trkpt lat="44.81312" lon="9.6072617"><ele>469.0</ele><time>2026-03-29T13:49:45.653Z</time></trkpt><trkpt lat="44.8130167" lon="9.6072917"><ele>469.00000000000006</ele><time>2026-03-29T13:49:46.654Z</time></trkpt><trkpt lat="44.8129083" lon="9.6073017"><ele>469.0</ele><time>2026-03-29T13:49:47.653Z</time></trkpt><trkpt lat="44.8128083" lon="9.6073117"><ele>469.0</ele><time>2026-03-29T13:49:48.653Z</time></trkpt><trkpt lat="44.8127233" lon="9.6073267"><ele>469.0</ele><time>2026-03-29T13:49:49.654Z</time></trkpt><trkpt lat="44.8126433" lon="9.6073317"><ele>469.00000000000006</ele><time>2026-03-29T13:49:50.654Z</time></trkpt><trkpt lat="44.81257" lon="9.607315"><ele>469.0</ele><time>2026-03-29T13:49:51.654Z</time></trkpt><trkpt lat="44.8125033" lon="9.6072667"><ele>472.79999999999995</ele><time>2026-03-29T13:49:52.653Z</time></trkpt><trkpt lat="44.8124433" lon="9.6071817"><ele>476.59999999999997</ele><time>2026-03-29T13:49:53.653Z</time></trkpt><trkpt lat="44.8123917" lon="9.6070633"><ele>480.4</ele><time>2026-03-29T13:49:54.653Z</time></trkpt><trkpt lat="44.8123417" lon="9.60693"><ele>484.2</ele><time>2026-03-29T13:49:55.654Z</time></trkpt><trkpt lat="44.81229" lon="9.6067933"><ele>488.0</ele><time>2026-03-29T13:49:56.654Z</time></trkpt><trkpt lat="44.8122417" lon="9.6066567"><ele>492.2</ele><time>2026-03-29T13:49:57.654Z</time></trkpt><trkpt lat="44.812195" lon="9.60652"><ele>496.4</ele><time>2026-03-29T13:49:58.654Z</time></trkpt><trkpt lat="44.8121517" lon="9.6063817"><ele>500.59999999999997</ele><time>2026-03-29T13:49:59.652Z</time></trkpt><trkpt lat="44.812105" lon="9.6062383"><ele>504.79999999999995</ele><time>2026-03-29T13:50:00.653Z</time></trkpt><trkpt lat="44.8120467" lon="9.6060917"><ele>509.0</ele><time>2026-03-29T13:50:01.653Z</time></trkpt><trkpt lat="44.8119817" lon="9.6059467"><ele>504.75</ele><time>2026-03-29T13:50:02.655Z</time></trkpt><trkpt lat="44.81191" lon="9.6058017"><ele>500.5</ele><time>2026-03-29T13:50:03.652Z</time></trkpt><trkpt lat="44.811835" lon="9.6056583"><ele>496.25</ele><time>2026-03-29T13:50:04.655Z</time></trkpt><trkpt lat="44.8117617" lon="9.6055183"><ele>492.0</ele><time>2026-03-29T13:50:05.654Z</time></trkpt><trkpt lat="44.8116933" lon="9.60538"><ele>498.5</ele><time>2026-03-29T13:50:06.654Z</time></trkpt><trkpt lat="44.8116283" lon="9.605235"><ele>505.0</ele><time>2026-03-29T13:50:07.654Z</time></trkpt><trkpt lat="44.8115633" lon="9.6050867"><ele>511.5</ele><time>2026-03-29T13:50:08.654Z</time></trkpt><trkpt lat="44.811495" lon="9.6049383"><ele>518.0</ele><time>2026-03-29T13:50:09.654Z</time></trkpt><trkpt lat="44.8114217" lon="9.6048083"><ele>518.0</ele><time>2026-03-29T13:50:10.654Z</time></trkpt><trkpt lat="44.811345" lon="9.6047"><ele>518.0</ele><time>2026-03-29T13:50:11.652Z</time></trkpt><trkpt lat="44.811275" lon="9.6046067"><ele>518.0</ele><time>2026-03-29T13:50:12.653Z</time></trkpt><trkpt lat="44.8112217" lon="9.60452"><ele>518.0</ele><time>2026-03-29T13:50:13.653Z</time></trkpt><trkpt lat="44.811205" lon="9.6044333"><ele>518.0</ele><time>2026-03-29T13:50:14.654Z</time></trkpt><trkpt lat="44.8112133" lon="9.6043433"><ele>518.0</ele><time>2026-03-29T13:50:15.654Z</time></trkpt><trkpt lat="44.8112517" lon="9.6042483"><ele>520.8</ele><time>2026-03-29T13:50:16.653Z</time></trkpt><trkpt lat="44.8113117" lon="9.6041467"><ele>523.5999999999999</ele><time>2026-03-29T13:50:17.653Z</time></trkpt><trkpt lat="44.8113817" lon="9.6040383"><ele>526.4000000000001</ele><time>2026-03-29T13:50:18.653Z</time></trkpt><trkpt lat="44.811445" lon="9.6039133"><ele>529.2</ele><time>2026-03-29T13:50:19.655Z</time></trkpt><trkpt lat="44.81149" lon="9.6037867"><ele>532.0</ele><time>2026-03-29T13:50:20.654Z</time></trkpt><trkpt lat="44.8115033" lon="9.6036517"><ele>532.4</ele><time>2026-03-29T13:50:21.653Z</time></trkpt><trkpt lat="44.8114867" lon="9.603505"><ele>532.8000000000001</ele><time>2026-03-29T13:50:22.653Z</time></trkpt><trkpt lat="44.8114433" lon="9.6033667"><ele>533.2</ele><time>2026-03-29T13:50:23.653Z</time></trkpt><trkpt lat="44.8113767" lon="9.60323"><ele>533.6</ele><time>2026-03-29T13:50:24.654Z</time></trkpt><trkpt lat="44.8113117" lon="9.6031017"><ele>534.0</ele><time>2026-03-29T13:50:25.654Z</time></trkpt><trkpt lat="44.811255" lon="9.6029733"><ele>534.0</ele><time>2026-03-29T13:50:26.654Z</time></trkpt><trkpt lat="44.8112133" lon="9.6028383"><ele>534.0</ele><time>2026-03-29T13:50:27.654Z</time></trkpt><trkpt lat="44.811195" lon="9.6026967"><ele>534.0</ele><time>2026-03-29T13:50:28.653Z</time></trkpt><trkpt lat="44.8112017" lon="9.6025517"><ele>534.0</ele><time>2026-03-29T13:50:29.653Z</time></trkpt><trkpt lat="44.8112217" lon="9.6024"><ele>534.0</ele><time>2026-03-29T13:50:30.654Z</time></trkpt><trkpt lat="44.8112467" lon="9.6022417"><ele>534.25</ele><time>2026-03-29T13:50:31.654Z</time></trkpt><trkpt lat="44.8112783" lon="9.602075"><ele>534.5</ele><time>2026-03-29T13:50:32.654Z</time></trkpt><trkpt lat="44.8113117" lon="9.6019133"><ele>534.75</ele><time>2026-03-29T13:50:33.653Z</time></trkpt><trkpt lat="44.8113433" lon="9.6017667"><ele>535.0</ele><time>2026-03-29T13:50:34.653Z</time></trkpt><trkpt lat="44.811375" lon="9.6016283"><ele>534.4</ele><time>2026-03-29T13:50:35.653Z</time></trkpt><trkpt lat="44.81141" lon="9.6014917"><ele>533.8</ele><time>2026-03-29T13:50:36.654Z</time></trkpt><trkpt lat="44.811455" lon="9.6013633"><ele>533.2</ele><time>2026-03-29T13:50:37.652Z</time></trkpt><trkpt lat="44.8115083" lon="9.60124"><ele>532.6</ele><time>2026-03-29T13:50:38.654Z</time></trkpt><trkpt lat="44.811575" lon="9.6011233"><ele>532.0</ele><time>2026-03-29T13:50:39.652Z</time></trkpt><trkpt lat="44.8116583" lon="9.6010117"><ele>529.0</ele><time>2026-03-29T13:50:40.654Z</time></trkpt><trkpt lat="44.8117533" lon="9.600905"><ele>526.0</ele><time>2026-03-29T13:50:41.653Z</time></trkpt><trkpt lat="44.8118533" lon="9.60081"><ele>523.0</ele><time>2026-03-29T13:50:42.654Z</time></trkpt><trkpt lat="44.81195" lon="9.6007233"><ele>520.0</ele><time>2026-03-29T13:50:43.654Z</time></trkpt><trkpt lat="44.81204" lon="9.6006417"><ele>522.4</ele><time>2026-03-29T13:50:44.654Z</time></trkpt><trkpt lat="44.8121317" lon="9.60056"><ele>524.8</ele><time>2026-03-29T13:50:45.652Z</time></trkpt><trkpt lat="44.8122167" lon="9.600475"><ele>527.2</ele><time>2026-03-29T13:50:46.654Z</time></trkpt><trkpt lat="44.8122917" lon="9.600375"><ele>529.6</ele><time>2026-03-29T13:50:47.652Z</time></trkpt><trkpt lat="44.8123583" lon="9.6002483"><ele>532.0</ele><time>2026-03-29T13:50:48.654Z</time></trkpt><trkpt lat="44.8124117" lon="9.6001133"><ele>532.0</ele><time>2026-03-29T13:50:49.654Z</time></trkpt><trkpt lat="44.8124517" lon="9.5999767"><ele>532.0</ele><time>2026-03-29T13:50:50.653Z</time></trkpt><trkpt lat="44.8124833" lon="9.59984"><ele>532.0</ele><time>2026-03-29T13:50:51.654Z</time></trkpt><trkpt lat="44.8125067" lon="9.5997067"><ele>532.0</ele><time>2026-03-29T13:50:52.653Z</time></trkpt><trkpt lat="44.8125167" lon="9.5995717"><ele>532.0</ele><time>2026-03-29T13:50:53.657Z</time></trkpt><trkpt lat="44.812515" lon="9.5994383"><ele>531.3333333333334</ele><time>2026-03-29T13:50:54.654Z</time></trkpt><trkpt lat="44.8125" lon="9.5993117"><ele>530.6666666666667</ele><time>2026-03-29T13:50:55.653Z</time></trkpt><trkpt lat="44.8124717" lon="9.5992"><ele>530.0</ele><time>2026-03-29T13:50:56.654Z</time></trkpt><trkpt lat="44.81244" lon="9.5991117"><ele>529.3333333333334</ele><time>2026-03-29T13:50:57.653Z</time></trkpt><trkpt lat="44.81238" lon="9.5990033"><ele>528.6666666666666</ele><time>2026-03-29T13:50:59.653Z</time></trkpt><trkpt lat="44.812355" lon="9.5988983"><ele>528.0</ele><time>2026-03-29T13:51:03.655Z</time></trkpt><trkpt lat="44.812335" lon="9.5987633"><ele>529.6666666666666</ele><time>2026-03-29T13:51:05.655Z</time></trkpt><trkpt lat="44.8122617" lon="9.5986133"><ele>531.3333333333334</ele><time>2026-03-29T13:51:07.653Z</time></trkpt><trkpt lat="44.8122083" lon="9.5985483"><ele>533.0</ele><time>2026-03-29T13:51:08.654Z</time></trkpt><trkpt lat="44.8121517" lon="9.5984917"><ele>534.6666666666667</ele><time>2026-03-29T13:51:09.653Z</time></trkpt><trkpt lat="44.8120917" lon="9.5984333"><ele>536.3333333333334</ele><time>2026-03-29T13:51:10.653Z</time></trkpt><trkpt lat="44.8120317" lon="9.5983733"><ele>538.0</ele><time>2026-03-29T13:51:11.653Z</time></trkpt><trkpt lat="44.8119683" lon="9.5983183"><ele>538.0</ele><time>2026-03-29T13:51:12.653Z</time></trkpt><trkpt lat="44.8119033" lon="9.5982667"><ele>538.0</ele><time>2026-03-29T13:51:13.654Z</time></trkpt><trkpt lat="44.8118383" lon="9.5982167"><ele>538.0</ele><time>2026-03-29T13:51:14.654Z</time></trkpt><trkpt lat="44.81178" lon="9.59817"><ele>538.0</ele><time>2026-03-29T13:51:15.653Z</time></trkpt><trkpt lat="44.8117167" lon="9.59814"><ele>538.0</ele><time>2026-03-29T13:51:16.653Z</time></trkpt><trkpt lat="44.8116517" lon="9.598125"><ele>538.0</ele><time>2026-03-29T13:51:17.653Z</time></trkpt><trkpt lat="44.8115533" lon="9.5981433"><ele>538.0</ele><time>2026-03-29T13:51:19.653Z</time></trkpt><trkpt lat="44.8114633" lon="9.59816"><ele>538.8333333333334</ele><time>2026-03-29T13:51:21.653Z</time></trkpt><trkpt lat="44.811375" lon="9.598105"><ele>539.6666666666667</ele><time>2026-03-29T13:51:23.654Z</time></trkpt><trkpt lat="44.8113067" lon="9.5980133"><ele>540.5</ele><time>2026-03-29T13:51:25.654Z</time></trkpt><trkpt lat="44.8112633" lon="9.5979083"><ele>541.3333333333334</ele><time>2026-03-29T13:51:27.653Z</time></trkpt><trkpt lat="44.81125" lon="9.5977867"><ele>542.1666666666666</ele><time>2026-03-29T13:51:29.653Z</time></trkpt><trkpt lat="44.8112833" lon="9.5976933"><ele>543.0</ele><time>2026-03-29T13:51:31.655Z</time></trkpt><trkpt lat="44.8113833" lon="9.597655"><ele>543.0</ele><time>2026-03-29T13:51:33.653Z</time></trkpt><trkpt lat="44.81149" lon="9.5976417"><ele>543.0</ele><time>2026-03-29T13:51:35.652Z</time></trkpt><trkpt lat="44.81157" lon="9.5976417"><ele>543.0</ele><time>2026-03-29T13:51:37.653Z</time></trkpt><trkpt lat="44.81164" lon="9.597705"><ele>543.0</ele><time>2026-03-29T13:51:39.653Z</time></trkpt><trkpt lat="44.811715" lon="9.5978017"><ele>543.0</ele><time>2026-03-29T13:51:41.653Z</time></trkpt><trkpt lat="44.811835" lon="9.5978567"><ele>542.0</ele><time>2026-03-29T13:51:43.653Z</time></trkpt><trkpt lat="44.811905" lon="9.59785"><ele>541.0</ele><time>2026-03-29T13:51:44.654Z</time></trkpt><trkpt lat="44.8119717" lon="9.5978217"><ele>540.0</ele><time>2026-03-29T13:51:45.653Z</time></trkpt><trkpt lat="44.8120633" lon="9.5977367"><ele>539.0</ele><time>2026-03-29T13:51:47.653Z</time></trkpt><trkpt lat="44.8120567" lon="9.5975983"><ele>538.0</ele><time>2026-03-29T13:51:49.654Z</time></trkpt><trkpt lat="44.8120067" lon="9.59743"><ele>540.4285714285714</ele><time>2026-03-29T13:51:51.654Z</time></trkpt><trkpt lat="44.811995" lon="9.59734"><ele>542.8571428571429</ele><time>2026-03-29T13:51:52.654Z</time></trkpt><trkpt lat="44.8120083" lon="9.5972483"><ele>545.2857142857143</ele><time>2026-03-29T13:51:53.653Z</time></trkpt><trkpt lat="44.8120283" lon="9.597155"><ele>547.7142857142858</ele><time>2026-03-29T13:51:54.654Z</time></trkpt><trkpt lat="44.8120467" lon="9.5970667"><ele>550.1428571428571</ele><time>2026-03-29T13:51:55.655Z</time></trkpt><trkpt lat="44.8120683" lon="9.5969733"><ele>552.5714285714287</ele><time>2026-03-29T13:51:56.654Z</time></trkpt><trkpt lat="44.8120933" lon="9.596875"><ele>555.0</ele><time>2026-03-29T13:51:57.653Z</time></trkpt><trkpt lat="44.8121317" lon="9.5967783"><ele>556.4</ele><time>2026-03-29T13:51:58.654Z</time></trkpt><trkpt lat="44.8121883" lon="9.5966883"><ele>557.8</ele><time>2026-03-29T13:51:59.656Z</time></trkpt><trkpt lat="44.8122567" lon="9.596605"><ele>559.2</ele><time>2026-03-29T13:52:00.653Z</time></trkpt><trkpt lat="44.812335" lon="9.5965317"><ele>560.6</ele><time>2026-03-29T13:52:01.653Z</time></trkpt><trkpt lat="44.81242" lon="9.5964633"><ele>562.0</ele><time>2026-03-29T13:52:02.654Z</time></trkpt><trkpt lat="44.8125083" lon="9.5964033"><ele>562.0</ele><time>2026-03-29T13:52:03.653Z</time></trkpt><trkpt lat="44.8126033" lon="9.5963467"><ele>562.0</ele><time>2026-03-29T13:52:04.654Z</time></trkpt><trkpt lat="44.8127017" lon="9.5962983"><ele>562.0</ele><time>2026-03-29T13:52:05.654Z</time></trkpt><trkpt lat="44.8128" lon="9.596245"><ele>562.0</ele><time>2026-03-29T13:52:06.654Z</time></trkpt><trkpt lat="44.8128983" lon="9.596195"><ele>562.0</ele><time>2026-03-29T13:52:07.654Z</time></trkpt><trkpt lat="44.812995" lon="9.596145"><ele>565.0</ele><time>2026-03-29T13:52:08.653Z</time></trkpt><trkpt lat="44.81309" lon="9.5960967"><ele>568.0</ele><time>2026-03-29T13:52:09.653Z</time></trkpt><trkpt lat="44.8131833" lon="9.5960483"><ele>571.0</ele><time>2026-03-29T13:52:10.653Z</time></trkpt><trkpt lat="44.8132717" lon="9.5960083"><ele>574.0</ele><time>2026-03-29T13:52:11.654Z</time></trkpt><trkpt lat="44.8133467" lon="9.5959683"><ele>577.0</ele><time>2026-03-29T13:52:12.653Z</time></trkpt><trkpt lat="44.8134067" lon="9.5959183"><ele>580.0</ele><time>2026-03-29T13:52:13.654Z</time></trkpt><trkpt lat="44.813455" lon="9.5958467"><ele>584.8333333333334</ele><time>2026-03-29T13:52:14.653Z</time></trkpt><trkpt lat="44.8134983" lon="9.595755"><ele>589.6666666666667</ele><time>2026-03-29T13:52:15.653Z</time></trkpt><trkpt lat="44.8135417" lon="9.59566"><ele>594.5</ele><time>2026-03-29T13:52:16.654Z</time></trkpt><trkpt lat="44.8135867" lon="9.5955833"><ele>599.3333333333334</ele><time>2026-03-29T13:52:17.654Z</time></trkpt><trkpt lat="44.813675" lon="9.5954733"><ele>604.1666666666666</ele><time>2026-03-29T13:52:19.654Z</time></trkpt><trkpt lat="44.813715" lon="9.5954033"><ele>609.0</ele><time>2026-03-29T13:52:20.655Z</time></trkpt><trkpt lat="44.81375" lon="9.5953183"><ele>609.6666666666666</ele><time>2026-03-29T13:52:21.654Z</time></trkpt><trkpt lat="44.81378" lon="9.5952233"><ele>610.3333333333334</ele><time>2026-03-29T13:52:22.654Z</time></trkpt><trkpt lat="44.8138033" lon="9.59512"><ele>611.0</ele><time>2026-03-29T13:52:23.654Z</time></trkpt><trkpt lat="44.8138267" lon="9.5950117"><ele>611.6666666666667</ele><time>2026-03-29T13:52:24.654Z</time></trkpt><trkpt lat="44.81384" lon="9.5948983"><ele>612.3333333333334</ele><time>2026-03-29T13:52:25.654Z</time></trkpt><trkpt lat="44.81385" lon="9.5947867"><ele>613.0</ele><time>2026-03-29T13:52:26.654Z</time></trkpt><trkpt lat="44.8138617" lon="9.594685"><ele>613.0</ele><time>2026-03-29T13:52:27.654Z</time></trkpt><trkpt lat="44.81388" lon="9.5945933"><ele>613.0</ele><time>2026-03-29T13:52:28.654Z</time></trkpt><trkpt lat="44.813965" lon="9.5944517"><ele>613.0</ele><time>2026-03-29T13:52:30.653Z</time></trkpt><trkpt lat="44.8140283" lon="9.5944"><ele>613.0</ele><time>2026-03-29T13:52:31.653Z</time></trkpt><trkpt lat="44.8140967" lon="9.5943567"><ele>613.0</ele><time>2026-03-29T13:52:32.653Z</time></trkpt><trkpt lat="44.81416" lon="9.5943133"><ele>613.0</ele><time>2026-03-29T13:52:33.653Z</time></trkpt><trkpt lat="44.81422" lon="9.5942567"><ele>613.0</ele><time>2026-03-29T13:52:34.653Z</time></trkpt><trkpt lat="44.8142683" lon="9.5941967"><ele>613.0</ele><time>2026-03-29T13:52:35.654Z</time></trkpt><trkpt lat="44.8143383" lon="9.5940967"><ele>613.0</ele><time>2026-03-29T13:52:37.655Z</time></trkpt><trkpt lat="44.8144333" lon="9.5940733"><ele>613.0</ele><time>2026-03-29T13:52:39.653Z</time></trkpt><trkpt lat="44.8145233" lon="9.59413"><ele>613.0</ele><time>2026-03-29T13:52:41.653Z</time></trkpt><trkpt lat="44.81453" lon="9.5942717"><ele>618.5</ele><time>2026-03-29T13:52:43.653Z</time></trkpt><trkpt lat="44.8145067" lon="9.5943633"><ele>624.0</ele><time>2026-03-29T13:52:44.654Z</time></trkpt><trkpt lat="44.8144783" lon="9.594445"><ele>629.5</ele><time>2026-03-29T13:52:45.652Z</time></trkpt><trkpt lat="44.81447" lon="9.59454"><ele>635.0</ele><time>2026-03-29T13:52:47.654Z</time></trkpt><trkpt lat="44.81456" lon="9.5945283"><ele>640.5</ele><time>2026-03-29T13:52:50.654Z</time></trkpt><trkpt lat="44.8146467" lon="9.5944367"><ele>646.0</ele><time>2026-03-29T13:52:52.654Z</time></trkpt><trkpt lat="44.8146967" lon="9.5943817"><ele>646.0</ele><time>2026-03-29T13:52:53.653Z</time></trkpt><trkpt lat="44.8147917" lon="9.5942667"><ele>646.0</ele><time>2026-03-29T13:52:55.654Z</time></trkpt><trkpt lat="44.8148533" lon="9.5941183"><ele>646.0</ele><time>2026-03-29T13:52:57.654Z</time></trkpt><trkpt lat="44.8148683" lon="9.59403"><ele>646.0</ele><time>2026-03-29T13:52:58.653Z</time></trkpt><trkpt lat="44.814875" lon="9.5939333"><ele>646.0</ele><time>2026-03-29T13:52:59.653Z</time></trkpt><trkpt lat="44.81488" lon="9.59383"><ele>646.0</ele><time>2026-03-29T13:53:00.657Z</time></trkpt><trkpt lat="44.8148817" lon="9.5937217"><ele>646.0</ele><time>2026-03-29T13:53:01.653Z</time></trkpt><trkpt lat="44.81488" lon="9.5936083"><ele>646.0</ele><time>2026-03-29T13:53:02.654Z</time></trkpt><trkpt lat="44.81489" lon="9.593515"><ele>646.0</ele><time>2026-03-29T13:53:03.654Z</time></trkpt><trkpt lat="44.81494" lon="9.5933483"><ele>646.0</ele><time>2026-03-29T13:53:05.654Z</time></trkpt><trkpt lat="44.81498" lon="9.5932667"><ele>646.0</ele><time>2026-03-29T13:53:06.653Z</time></trkpt><trkpt lat="44.81503" lon="9.59313"><ele>647.0</ele><time>2026-03-29T13:53:08.654Z</time></trkpt><trkpt lat="44.8150817" lon="9.5930533"><ele>648.0</ele><time>2026-03-29T13:53:10.653Z</time></trkpt><trkpt lat="44.81516" lon="9.5931133"><ele>649.0</ele><time>2026-03-29T13:53:13.655Z</time></trkpt><trkpt lat="44.8152217" lon="9.5932133"><ele>650.0</ele><time>2026-03-29T13:53:15.654Z</time></trkpt><trkpt lat="44.8153" lon="9.5933"><ele>651.0</ele><time>2026-03-29T13:53:17.654Z</time></trkpt><trkpt lat="44.8153517" lon="9.5934167"><ele>656.8</ele><time>2026-03-29T13:53:19.654Z</time></trkpt><trkpt lat="44.8153733" lon="9.59359"><ele>662.5999999999999</ele><time>2026-03-29T13:53:21.653Z</time></trkpt><trkpt lat="44.8153717" lon="9.5936883"><ele>668.4</ele><time>2026-03-29T13:53:22.654Z</time></trkpt><trkpt lat="44.815365" lon="9.5937817"><ele>674.2</ele><time>2026-03-29T13:53:23.654Z</time></trkpt><trkpt lat="44.8153667" lon="9.5939517"><ele>680.0</ele><time>2026-03-29T13:53:25.654Z</time></trkpt><trkpt lat="44.8153717" lon="9.594085"><ele>680.0</ele><time>2026-03-29T13:53:27.654Z</time></trkpt><trkpt lat="44.8154267" lon="9.5941467"><ele>680.0</ele><time>2026-03-29T13:53:29.652Z</time></trkpt><trkpt lat="44.8154917" lon="9.5940767"><ele>680.0</ele><time>2026-03-29T13:53:32.654Z</time></trkpt><trkpt lat="44.8155017" lon="9.5939883"><ele>680.0</ele><time>2026-03-29T13:53:34.653Z</time></trkpt><trkpt lat="44.8155033" lon="9.5938967"><ele>680.0</ele><time>2026-03-29T13:53:36.653Z</time></trkpt><trkpt lat="44.8155183" lon="9.5937483"><ele>680.0</ele><time>2026-03-29T13:53:38.654Z</time></trkpt><trkpt lat="44.8155517" lon="9.5936017"><ele>680.6</ele><time>2026-03-29T13:53:40.652Z</time></trkpt><trkpt lat="44.81559" lon="9.5934467"><ele>681.2</ele><time>2026-03-29T13:53:42.654Z</time></trkpt><trkpt lat="44.815625" lon="9.59328"><ele>681.8</ele><time>2026-03-29T13:53:44.654Z</time></trkpt><trkpt lat="44.8155983" lon="9.5931117"><ele>682.4</ele><time>2026-03-29T13:53:46.654Z</time></trkpt><trkpt lat="44.8155633" lon="9.59303"><ele>683.0</ele><time>2026-03-29T13:53:47.652Z</time></trkpt><trkpt lat="44.8155233" lon="9.592945"><ele>683.0</ele><time>2026-03-29T13:53:48.653Z</time></trkpt><trkpt lat="44.8154883" lon="9.5928567"><ele>683.0</ele><time>2026-03-29T13:53:49.655Z</time></trkpt><trkpt lat="44.815455" lon="9.59277"><ele>683.0</ele><time>2026-03-29T13:53:50.653Z</time></trkpt><trkpt lat="44.815385" lon="9.5926283"><ele>683.0</ele><time>2026-03-29T13:53:52.654Z</time></trkpt><trkpt lat="44.8153367" lon="9.5925683"><ele>683.0</ele><time>2026-03-29T13:53:53.655Z</time></trkpt><trkpt lat="44.815285" lon="9.5925133"><ele>683.0</ele><time>2026-03-29T13:53:54.654Z</time></trkpt><trkpt lat="44.815235" lon="9.5924533"><ele>684.3333333333333</ele><time>2026-03-29T13:53:55.653Z</time></trkpt><trkpt lat="44.81517" lon="9.5923067"><ele>685.6666666666666</ele><time>2026-03-29T13:53:57.654Z</time></trkpt><trkpt lat="44.8151567" lon="9.5922167"><ele>687.0</ele><time>2026-03-29T13:53:58.654Z</time></trkpt><trkpt lat="44.81515" lon="9.5921133"><ele>688.3333333333334</ele><time>2026-03-29T13:53:59.653Z</time></trkpt><trkpt lat="44.8151567" lon="9.5920017"><ele>689.6666666666667</ele><time>2026-03-29T13:54:00.654Z</time></trkpt><trkpt lat="44.8151733" lon="9.5918917"><ele>691.0</ele><time>2026-03-29T13:54:01.653Z</time></trkpt><trkpt lat="44.8151967" lon="9.591785"><ele>691.6666666666667</ele><time>2026-03-29T13:54:02.654Z</time></trkpt><trkpt lat="44.8152183" lon="9.5916817"><ele>692.3333333333334</ele><time>2026-03-29T13:54:03.654Z</time></trkpt><trkpt lat="44.815235" lon="9.5915767"><ele>693.0</ele><time>2026-03-29T13:54:04.653Z</time></trkpt><trkpt lat="44.8152517" lon="9.59147"><ele>693.6666666666666</ele><time>2026-03-29T13:54:05.655Z</time></trkpt><trkpt lat="44.81527" lon="9.591365"><ele>694.3333333333333</ele><time>2026-03-29T13:54:06.654Z</time></trkpt><trkpt lat="44.8152883" lon="9.5912767"><ele>695.0</ele><time>2026-03-29T13:54:07.654Z</time></trkpt><trkpt lat="44.8153183" lon="9.5911217"><ele>695.5</ele><time>2026-03-29T13:54:09.654Z</time></trkpt><trkpt lat="44.81534" lon="9.59096"><ele>696.0</ele><time>2026-03-29T13:54:11.653Z</time></trkpt><trkpt lat="44.8153567" lon="9.590865"><ele>696.5</ele><time>2026-03-29T13:54:12.653Z</time></trkpt><trkpt lat="44.8153817" lon="9.5907733"><ele>697.0</ele><time>2026-03-29T13:54:13.655Z</time></trkpt><trkpt lat="44.81541" lon="9.59068"><ele>697.5</ele><time>2026-03-29T13:54:14.654Z</time></trkpt><trkpt lat="44.8154367" lon="9.5905967"><ele>698.0</ele><time>2026-03-29T13:54:15.653Z</time></trkpt><trkpt lat="44.8154783" lon="9.5905033"><ele>698.0</ele><time>2026-03-29T13:54:16.653Z</time></trkpt><trkpt lat="44.8155183" lon="9.590405"><ele>698.0</ele><time>2026-03-29T13:54:17.654Z</time></trkpt><trkpt lat="44.8155517" lon="9.590315"><ele>698.0</ele><time>2026-03-29T13:54:18.654Z</time></trkpt><trkpt lat="44.8156083" lon="9.59017"><ele>698.0</ele><time>2026-03-29T13:54:20.656Z</time></trkpt><trkpt lat="44.8156133" lon="9.590005"><ele>698.0</ele><time>2026-03-29T13:54:22.655Z</time></trkpt><trkpt lat="44.8156" lon="9.5899083"><ele>698.3333333333333</ele><time>2026-03-29T13:54:23.654Z</time></trkpt><trkpt lat="44.8155933" lon="9.5898033"><ele>698.6666666666666</ele><time>2026-03-29T13:54:24.652Z</time></trkpt><trkpt lat="44.8155933" lon="9.5897033"><ele>699.0</ele><time>2026-03-29T13:54:25.654Z</time></trkpt><trkpt lat="44.8155967" lon="9.5896067"><ele>699.3333333333334</ele><time>2026-03-29T13:54:26.655Z</time></trkpt><trkpt lat="44.8155783" lon="9.58943"><ele>699.6666666666667</ele><time>2026-03-29T13:54:28.654Z</time></trkpt><trkpt lat="44.8155583" lon="9.589335"><ele>700.0</ele><time>2026-03-29T13:54:29.654Z</time></trkpt><trkpt lat="44.8155317" lon="9.5892433"><ele>700.8333333333334</ele><time>2026-03-29T13:54:30.654Z</time></trkpt><trkpt lat="44.8155017" lon="9.5891617"><ele>701.6666666666667</ele><time>2026-03-29T13:54:31.653Z</time></trkpt><trkpt lat="44.8154617" lon="9.589085"><ele>702.5</ele><time>2026-03-29T13:54:32.654Z</time></trkpt><trkpt lat="44.8154067" lon="9.5890367"><ele>703.3333333333334</ele><time>2026-03-29T13:54:33.653Z</time></trkpt><trkpt lat="44.815325" lon="9.5889417"><ele>704.1666666666666</ele><time>2026-03-29T13:54:35.654Z</time></trkpt><trkpt lat="44.8152733" lon="9.5887867"><ele>705.0</ele><time>2026-03-29T13:54:37.653Z</time></trkpt><trkpt lat="44.8152617" lon="9.5886917"><ele>705.4285714285713</ele><time>2026-03-29T13:54:38.653Z</time></trkpt><trkpt lat="44.815245" lon="9.5885983"><ele>705.8571428571429</ele><time>2026-03-29T13:54:39.655Z</time></trkpt><trkpt lat="44.8152433" lon="9.5885067"><ele>706.2857142857142</ele><time>2026-03-29T13:54:40.653Z</time></trkpt><trkpt lat="44.8152517" lon="9.5884117"><ele>706.7142857142857</ele><time>2026-03-29T13:54:41.653Z</time></trkpt><trkpt lat="44.8152617" lon="9.58832"><ele>707.1428571428571</ele><time>2026-03-29T13:54:42.653Z</time></trkpt><trkpt lat="44.8152767" lon="9.58822"><ele>707.5714285714286</ele><time>2026-03-29T13:54:43.654Z</time></trkpt><trkpt lat="44.8152917" lon="9.5881083"><ele>708.0</ele><time>2026-03-29T13:54:44.654Z</time></trkpt><trkpt lat="44.8153067" lon="9.587995"><ele>708.0</ele><time>2026-03-29T13:54:45.654Z</time></trkpt><trkpt lat="44.81531" lon="9.587875"><ele>708.0</ele><time>2026-03-29T13:54:46.653Z</time></trkpt><trkpt lat="44.815315" lon="9.5877567"><ele>708.0</ele><time>2026-03-29T13:54:47.654Z</time></trkpt><trkpt lat="44.815315" lon="9.58764"><ele>708.0</ele><time>2026-03-29T13:54:48.653Z</time></trkpt><trkpt lat="44.8153167" lon="9.5875167"><ele>708.0</ele><time>2026-03-29T13:54:49.654Z</time></trkpt><trkpt lat="44.81532" lon="9.5873917"><ele>708.0</ele><time>2026-03-29T13:54:50.654Z</time></trkpt><trkpt lat="44.815325" lon="9.5872467"><ele>708.0</ele><time>2026-03-29T13:54:51.653Z</time></trkpt><trkpt lat="44.8153283" lon="9.5870967"><ele>708.0</ele><time>2026-03-29T13:54:52.653Z</time></trkpt><trkpt lat="44.8153267" lon="9.5869517"><ele>708.0</ele><time>2026-03-29T13:54:53.654Z</time></trkpt><trkpt lat="44.81532" lon="9.5868083"><ele>708.0</ele><time>2026-03-29T13:54:54.655Z</time></trkpt><trkpt lat="44.815315" lon="9.5866683"><ele>708.0</ele><time>2026-03-29T13:54:55.653Z</time></trkpt><trkpt lat="44.8153117" lon="9.586525"><ele>709.2</ele><time>2026-03-29T13:54:56.654Z</time></trkpt><trkpt lat="44.815305" lon="9.58639"><ele>710.4</ele><time>2026-03-29T13:54:57.654Z</time></trkpt><trkpt lat="44.8153" lon="9.58626"><ele>711.6</ele><time>2026-03-29T13:54:58.654Z</time></trkpt><trkpt lat="44.81529" lon="9.5861317"><ele>712.8000000000001</ele><time>2026-03-29T13:54:59.654Z</time></trkpt><trkpt lat="44.8152767" lon="9.5860067"><ele>714.0</ele><time>2026-03-29T13:55:00.652Z</time></trkpt><trkpt lat="44.81526" lon="9.5858767"><ele>715.0</ele><time>2026-03-29T13:55:01.653Z</time></trkpt><trkpt lat="44.8152467" lon="9.5857517"><ele>716.0</ele><time>2026-03-29T13:55:02.653Z</time></trkpt><trkpt lat="44.8152433" lon="9.58563"><ele>717.0</ele><time>2026-03-29T13:55:03.653Z</time></trkpt><trkpt lat="44.8152517" lon="9.585515"><ele>718.0</ele><time>2026-03-29T13:55:04.654Z</time></trkpt><trkpt lat="44.8152633" lon="9.58541"><ele>719.0</ele><time>2026-03-29T13:55:05.654Z</time></trkpt><trkpt lat="44.8152733" lon="9.5853167"><ele>720.0</ele><time>2026-03-29T13:55:06.655Z</time></trkpt><trkpt lat="44.8152583" lon="9.5851567"><ele>720.8</ele><time>2026-03-29T13:55:08.654Z</time></trkpt><trkpt lat="44.81517" lon="9.58509"><ele>721.6</ele><time>2026-03-29T13:55:10.654Z</time></trkpt><trkpt lat="44.81504" lon="9.5851117"><ele>722.4000000000001</ele><time>2026-03-29T13:55:12.653Z</time></trkpt><trkpt lat="44.81496" lon="9.5851317"><ele>723.2</ele><time>2026-03-29T13:55:13.653Z</time></trkpt><trkpt lat="44.814875" lon="9.5851483"><ele>724.0</ele><time>2026-03-29T13:55:14.654Z</time></trkpt><trkpt lat="44.814795" lon="9.5851433"><ele>721.1666666666667</ele><time>2026-03-29T13:55:15.654Z</time></trkpt><trkpt lat="44.8147183" lon="9.58512"><ele>718.3333333333334</ele><time>2026-03-29T13:55:16.654Z</time></trkpt><trkpt lat="44.8146417" lon="9.585075"><ele>715.5</ele><time>2026-03-29T13:55:17.654Z</time></trkpt><trkpt lat="44.8145833" lon="9.5850083"><ele>712.6666666666666</ele><time>2026-03-29T13:55:18.654Z</time></trkpt><trkpt lat="44.81453" lon="9.5849533"><ele>709.8333333333333</ele><time>2026-03-29T13:55:19.654Z</time></trkpt><trkpt lat="44.8144717" lon="9.5849067"><ele>707.0</ele><time>2026-03-29T13:55:20.655Z</time></trkpt><trkpt lat="44.8143583" lon="9.5849017"><ele>705.5</ele><time>2026-03-29T13:55:22.653Z</time></trkpt><trkpt lat="44.8142617" lon="9.5849383"><ele>704.0</ele><time>2026-03-29T13:55:24.654Z</time></trkpt><trkpt lat="44.8142" lon="9.5849617"><ele>702.5</ele><time>2026-03-29T13:55:25.654Z</time></trkpt><trkpt lat="44.8141233" lon="9.5849817"><ele>701.0</ele><time>2026-03-29T13:55:26.654Z</time></trkpt><trkpt lat="44.81404" lon="9.585005"><ele>699.5</ele><time>2026-03-29T13:55:27.653Z</time></trkpt><trkpt lat="44.81396" lon="9.5850333"><ele>698.0</ele><time>2026-03-29T13:55:28.654Z</time></trkpt><trkpt lat="44.81389" lon="9.5850467"><ele>698.0</ele><time>2026-03-29T13:55:29.655Z</time></trkpt><trkpt lat="44.8137883" lon="9.585"><ele>698.0</ele><time>2026-03-29T13:55:31.653Z</time></trkpt><trkpt lat="44.8137267" lon="9.5848333"><ele>698.0</ele><time>2026-03-29T13:55:33.654Z</time></trkpt><trkpt lat="44.8136967" lon="9.58471"><ele>698.0</ele><time>2026-03-29T13:55:34.655Z</time></trkpt><trkpt lat="44.81366" lon="9.5845933"><ele>698.0</ele><time>2026-03-29T13:55:35.653Z</time></trkpt><trkpt lat="44.81361" lon="9.5844917"><ele>699.0</ele><time>2026-03-29T13:55:36.654Z</time></trkpt><trkpt lat="44.813545" lon="9.5844083"><ele>700.0</ele><time>2026-03-29T13:55:37.653Z</time></trkpt><trkpt lat="44.8134717" lon="9.5843383"><ele>701.0</ele><time>2026-03-29T13:55:38.657Z</time></trkpt><trkpt lat="44.8133933" lon="9.5842817"><ele>702.0</ele><time>2026-03-29T13:55:39.654Z</time></trkpt><trkpt lat="44.81331" lon="9.5842483"><ele>703.0</ele><time>2026-03-29T13:55:40.654Z</time></trkpt><trkpt lat="44.8132317" lon="9.5842217"><ele>704.0</ele><time>2026-03-29T13:55:41.654Z</time></trkpt><trkpt lat="44.8131583" lon="9.584195"><ele>704.0</ele><time>2026-03-29T13:55:42.654Z</time></trkpt><trkpt lat="44.8130967" lon="9.584145"><ele>704.0</ele><time>2026-03-29T13:55:43.654Z</time></trkpt><trkpt lat="44.8130367" lon="9.5840667"><ele>704.0</ele><time>2026-03-29T13:55:44.654Z</time></trkpt><trkpt lat="44.812975" lon="9.5839633"><ele>704.0</ele><time>2026-03-29T13:55:45.654Z</time></trkpt><trkpt lat="44.812915" lon="9.5838333"><ele>704.0</ele><time>2026-03-29T13:55:46.652Z</time></trkpt><trkpt lat="44.8128483" lon="9.58369"><ele>703.4000000000001</ele><time>2026-03-29T13:55:47.653Z</time></trkpt><trkpt lat="44.8127817" lon="9.583555"><ele>702.8</ele><time>2026-03-29T13:55:48.653Z</time></trkpt><trkpt lat="44.81272" lon="9.58343"><ele>702.2</ele><time>2026-03-29T13:55:49.654Z</time></trkpt><trkpt lat="44.8126567" lon="9.5833033"><ele>701.5999999999999</ele><time>2026-03-29T13:55:50.654Z</time></trkpt><trkpt lat="44.8125983" lon="9.5831817"><ele>701.0</ele><time>2026-03-29T13:55:51.653Z</time></trkpt><trkpt lat="44.8125367" lon="9.583075"><ele>701.0</ele><time>2026-03-29T13:55:52.654Z</time></trkpt><trkpt lat="44.81248" lon="9.5829867"><ele>701.0</ele><time>2026-03-29T13:55:53.654Z</time></trkpt><trkpt lat="44.8124183" lon="9.5829117"><ele>701.0</ele><time>2026-03-29T13:55:54.653Z</time></trkpt><trkpt lat="44.81235" lon="9.582855"><ele>701.0</ele><time>2026-03-29T13:55:55.653Z</time></trkpt><trkpt lat="44.8122717" lon="9.5828183"><ele>701.0</ele><time>2026-03-29T13:55:56.653Z</time></trkpt><trkpt lat="44.81218" lon="9.58279"><ele>701.0</ele><time>2026-03-29T13:55:57.654Z</time></trkpt><trkpt lat="44.8120917" lon="9.5827633"><ele>702.6666666666666</ele><time>2026-03-29T13:55:58.654Z</time></trkpt><trkpt lat="44.8120083" lon="9.58273"><ele>704.3333333333333</ele><time>2026-03-29T13:55:59.654Z</time></trkpt><trkpt lat="44.81193" lon="9.58269"><ele>706.0</ele><time>2026-03-29T13:56:00.653Z</time></trkpt><trkpt lat="44.81186" lon="9.5826317"><ele>707.6666666666666</ele><time>2026-03-29T13:56:01.653Z</time></trkpt><trkpt lat="44.8117983" lon="9.5825567"><ele>709.3333333333334</ele><time>2026-03-29T13:56:02.654Z</time></trkpt><trkpt lat="44.8117383" lon="9.5824767"><ele>711.0</ele><time>2026-03-29T13:56:03.653Z</time></trkpt><trkpt lat="44.8116817" lon="9.582405"><ele>711.0</ele><time>2026-03-29T13:56:04.655Z</time></trkpt><trkpt lat="44.8116133" lon="9.5823517"><ele>711.0</ele><time>2026-03-29T13:56:05.654Z</time></trkpt><trkpt lat="44.81154" lon="9.5823217"><ele>711.0</ele><time>2026-03-29T13:56:06.654Z</time></trkpt><trkpt lat="44.8114633" lon="9.5823083"><ele>711.0</ele><time>2026-03-29T13:56:07.654Z</time></trkpt><trkpt lat="44.8113917" lon="9.5823267"><ele>711.0</ele><time>2026-03-29T13:56:08.655Z</time></trkpt><trkpt lat="44.811315" lon="9.5823683"><ele>711.0</ele><time>2026-03-29T13:56:09.653Z</time></trkpt><trkpt lat="44.81125" lon="9.5824467"><ele>711.0</ele><time>2026-03-29T13:56:10.654Z</time></trkpt><trkpt lat="44.81118" lon="9.5825383"><ele>711.0</ele><time>2026-03-29T13:56:11.653Z</time></trkpt><trkpt lat="44.8111117" lon="9.5826367"><ele>711.0</ele><time>2026-03-29T13:56:12.653Z</time></trkpt><trkpt lat="44.81104" lon="9.58274"><ele>711.0</ele><time>2026-03-29T13:56:13.654Z</time></trkpt><trkpt lat="44.810965" lon="9.5828483"><ele>711.0</ele><time>2026-03-29T13:56:14.654Z</time></trkpt><trkpt lat="44.8108917" lon="9.5829483"><ele>708.1999999999999</ele><time>2026-03-29T13:56:15.653Z</time></trkpt><trkpt lat="44.8108183" lon="9.5830467"><ele>705.4</ele><time>2026-03-29T13:56:16.652Z</time></trkpt><trkpt lat="44.8107433" lon="9.5831183"><ele>702.6</ele><time>2026-03-29T13:56:17.654Z</time></trkpt><trkpt lat="44.8106633" lon="9.583175"><ele>699.8</ele><time>2026-03-29T13:56:18.653Z</time></trkpt><trkpt lat="44.8105833" lon="9.5832183"><ele>697.0</ele><time>2026-03-29T13:56:19.654Z</time></trkpt><trkpt lat="44.8104983" lon="9.5832567"><ele>697.0</ele><time>2026-03-29T13:56:20.654Z</time></trkpt><trkpt lat="44.8104083" lon="9.58329"><ele>697.0</ele><time>2026-03-29T13:56:21.654Z</time></trkpt><trkpt lat="44.8103033" lon="9.5833133"><ele>697.0</ele><time>2026-03-29T13:56:22.654Z</time></trkpt><trkpt lat="44.8101883" lon="9.583335"><ele>697.0</ele><time>2026-03-29T13:56:23.653Z</time></trkpt><trkpt lat="44.8100733" lon="9.5833467"><ele>697.0</ele><time>2026-03-29T13:56:24.653Z</time></trkpt><trkpt lat="44.8099667" lon="9.5833633"><ele>698.6</ele><time>2026-03-29T13:56:25.653Z</time></trkpt><trkpt lat="44.8098633" lon="9.5833833"><ele>700.2</ele><time>2026-03-29T13:56:26.654Z</time></trkpt><trkpt lat="44.8097633" lon="9.5834133"><ele>701.8</ele><time>2026-03-29T13:56:27.653Z</time></trkpt><trkpt lat="44.80967" lon="9.58344"><ele>703.4</ele><time>2026-03-29T13:56:28.652Z</time></trkpt><trkpt lat="44.80958" lon="9.5834683"><ele>705.0</ele><time>2026-03-29T13:56:29.653Z</time></trkpt><trkpt lat="44.8094917" lon="9.5834983"><ele>705.0</ele><time>2026-03-29T13:56:30.654Z</time></trkpt><trkpt lat="44.8093967" lon="9.5835317"><ele>705.0</ele><time>2026-03-29T13:56:31.654Z</time></trkpt><trkpt lat="44.8093017" lon="9.58357"><ele>705.0</ele><time>2026-03-29T13:56:32.654Z</time></trkpt><trkpt lat="44.8092" lon="9.5836117"><ele>705.0</ele><time>2026-03-29T13:56:33.652Z</time></trkpt><trkpt lat="44.8090983" lon="9.583645"><ele>705.0</ele><time>2026-03-29T13:56:34.653Z</time></trkpt><trkpt lat="44.8090017" lon="9.58367"><ele>699.2</ele><time>2026-03-29T13:56:35.654Z</time></trkpt><trkpt lat="44.8089083" lon="9.5836833"><ele>693.4</ele><time>2026-03-29T13:56:36.653Z</time></trkpt><trkpt lat="44.8088217" lon="9.58369"><ele>687.5999999999999</ele><time>2026-03-29T13:56:37.653Z</time></trkpt><trkpt lat="44.8087367" lon="9.5837167"><ele>681.8</ele><time>2026-03-29T13:56:38.654Z</time></trkpt><trkpt lat="44.808655" lon="9.5837667"><ele>676.0</ele><time>2026-03-29T13:56:39.653Z</time></trkpt><trkpt lat="44.8085767" lon="9.5838467"><ele>676.0</ele><time>2026-03-29T13:56:40.653Z</time></trkpt><trkpt lat="44.8085067" lon="9.5839467"><ele>676.0</ele><time>2026-03-29T13:56:41.653Z</time></trkpt><trkpt lat="44.8084417" lon="9.5840383"><ele>676.0</ele><time>2026-03-29T13:56:42.653Z</time></trkpt><trkpt lat="44.8083767" lon="9.5841217"><ele>676.0</ele><time>2026-03-29T13:56:43.654Z</time></trkpt><trkpt lat="44.8083083" lon="9.5841833"><ele>676.0</ele><time>2026-03-29T13:56:44.654Z</time></trkpt><trkpt lat="44.8082383" lon="9.5842217"><ele>676.0</ele><time>2026-03-29T13:56:45.654Z</time></trkpt><trkpt lat="44.8081683" lon="9.58424"><ele>676.7142857142858</ele><time>2026-03-29T13:56:46.653Z</time></trkpt><trkpt lat="44.8080967" lon="9.58425"><ele>677.4285714285714</ele><time>2026-03-29T13:56:47.654Z</time></trkpt><trkpt lat="44.8080317" lon="9.58426"><ele>678.1428571428571</ele><time>2026-03-29T13:56:48.654Z</time></trkpt><trkpt lat="44.8079683" lon="9.5842717"><ele>678.8571428571429</ele><time>2026-03-29T13:56:49.654Z</time></trkpt><trkpt lat="44.8079" lon="9.584295"><ele>679.5714285714286</ele><time>2026-03-29T13:56:50.654Z</time></trkpt><trkpt lat="44.8078317" lon="9.58433"><ele>680.2857142857143</ele><time>2026-03-29T13:56:51.653Z</time></trkpt><trkpt lat="44.8077617" lon="9.5843683"><ele>681.0</ele><time>2026-03-29T13:56:52.655Z</time></trkpt><trkpt lat="44.8076933" lon="9.5844"><ele>681.8571428571429</ele><time>2026-03-29T13:56:53.653Z</time></trkpt><trkpt lat="44.8076283" lon="9.5844367"><ele>682.7142857142858</ele><time>2026-03-29T13:56:54.654Z</time></trkpt><trkpt lat="44.8075667" lon="9.5844767"><ele>683.5714285714287</ele><time>2026-03-29T13:56:55.652Z</time></trkpt><trkpt lat="44.807505" lon="9.5845267"><ele>684.4285714285714</ele><time>2026-03-29T13:56:56.653Z</time></trkpt><trkpt lat="44.8074433" lon="9.5845733"><ele>685.2857142857142</ele><time>2026-03-29T13:56:57.654Z</time></trkpt><trkpt lat="44.80737" lon="9.5846167"><ele>686.1428571428572</ele><time>2026-03-29T13:56:58.654Z</time></trkpt><trkpt lat="44.8072917" lon="9.58464"><ele>687.0</ele><time>2026-03-29T13:56:59.655Z</time></trkpt><trkpt lat="44.8072033" lon="9.5846633"><ele>683.3333333333334</ele><time>2026-03-29T13:57:00.654Z</time></trkpt><trkpt lat="44.807115" lon="9.58469"><ele>679.6666666666666</ele><time>2026-03-29T13:57:01.653Z</time></trkpt><trkpt lat="44.8070317" lon="9.5847167"><ele>676.0</ele><time>2026-03-29T13:57:02.653Z</time></trkpt><trkpt lat="44.8069517" lon="9.5847617"><ele>672.3333333333333</ele><time>2026-03-29T13:57:03.653Z</time></trkpt><trkpt lat="44.806875" lon="9.5848117"><ele>668.6666666666666</ele><time>2026-03-29T13:57:04.656Z</time></trkpt><trkpt lat="44.8068033" lon="9.5848867"><ele>665.0</ele><time>2026-03-29T13:57:05.654Z</time></trkpt><trkpt lat="44.8067367" lon="9.5849583"><ele>665.0</ele><time>2026-03-29T13:57:06.654Z</time></trkpt><trkpt lat="44.8066717" lon="9.58504"><ele>665.0</ele><time>2026-03-29T13:57:07.653Z</time></trkpt><trkpt lat="44.8066067" lon="9.5851217"><ele>665.0</ele><time>2026-03-29T13:57:08.655Z</time></trkpt><trkpt lat="44.80654" lon="9.5852033"><ele>665.0</ele><time>2026-03-29T13:57:09.654Z</time></trkpt><trkpt lat="44.80648" lon="9.5852867"><ele>665.0</ele><time>2026-03-29T13:57:10.654Z</time></trkpt><trkpt lat="44.8064267" lon="9.585385"><ele>665.0</ele><time>2026-03-29T13:57:11.654Z</time></trkpt><trkpt lat="44.80638" lon="9.585495"><ele>663.0</ele><time>2026-03-29T13:57:12.653Z</time></trkpt><trkpt lat="44.8063383" lon="9.5856133"><ele>661.0</ele><time>2026-03-29T13:57:13.654Z</time></trkpt><trkpt lat="44.8063017" lon="9.58573"><ele>659.0</ele><time>2026-03-29T13:57:14.654Z</time></trkpt><trkpt lat="44.8062633" lon="9.5858283"><ele>657.0</ele><time>2026-03-29T13:57:15.653Z</time></trkpt><trkpt lat="44.8062117" lon="9.585905"><ele>655.0</ele><time>2026-03-29T13:57:16.654Z</time></trkpt><trkpt lat="44.806155" lon="9.585965"><ele>653.0</ele><time>2026-03-29T13:57:17.654Z</time></trkpt><trkpt lat="44.8060967" lon="9.5860133"><ele>653.0</ele><time>2026-03-29T13:57:18.654Z</time></trkpt><trkpt lat="44.8060333" lon="9.5860567"><ele>653.0</ele><time>2026-03-29T13:57:19.654Z</time></trkpt><trkpt lat="44.8059617" lon="9.5860833"><ele>653.0</ele><time>2026-03-29T13:57:20.655Z</time></trkpt><trkpt lat="44.8058867" lon="9.5861083"><ele>653.0</ele><time>2026-03-29T13:57:21.653Z</time></trkpt><trkpt lat="44.80582" lon="9.586125"><ele>653.0</ele><time>2026-03-29T13:57:22.654Z</time></trkpt><trkpt lat="44.805755" lon="9.58614"><ele>653.0</ele><time>2026-03-29T13:57:23.653Z</time></trkpt><trkpt lat="44.80564" lon="9.58613"><ele>656.8</ele><time>2026-03-29T13:57:25.653Z</time></trkpt><trkpt lat="44.8055517" lon="9.58607"><ele>660.5999999999999</ele><time>2026-03-29T13:57:27.654Z</time></trkpt><trkpt lat="44.80548" lon="9.5859567"><ele>664.4000000000001</ele><time>2026-03-29T13:57:29.654Z</time></trkpt><trkpt lat="44.8054367" lon="9.5858133"><ele>668.2</ele><time>2026-03-29T13:57:31.654Z</time></trkpt><trkpt lat="44.8054283" lon="9.5856333"><ele>672.0</ele><time>2026-03-29T13:57:33.655Z</time></trkpt><trkpt lat="44.8054183" lon="9.5855267"><ele>672.0</ele><time>2026-03-29T13:57:34.655Z</time></trkpt><trkpt lat="44.8054017" lon="9.585425"><ele>672.0</ele><time>2026-03-29T13:57:35.653Z</time></trkpt><trkpt lat="44.8053733" lon="9.585325"><ele>672.0</ele><time>2026-03-29T13:57:36.654Z</time></trkpt><trkpt lat="44.805335" lon="9.5852217"><ele>672.0</ele><time>2026-03-29T13:57:37.654Z</time></trkpt><trkpt lat="44.8052883" lon="9.5851217"><ele>672.0</ele><time>2026-03-29T13:57:38.654Z</time></trkpt><trkpt lat="44.8052383" lon="9.5850317"><ele>672.0</ele><time>2026-03-29T13:57:39.655Z</time></trkpt><trkpt lat="44.8051817" lon="9.584945"><ele>672.1428571428571</ele><time>2026-03-29T13:57:40.654Z</time></trkpt><trkpt lat="44.8051267" lon="9.584865"><ele>672.2857142857142</ele><time>2026-03-29T13:57:41.654Z</time></trkpt><trkpt lat="44.8050733" lon="9.5847833"><ele>672.4285714285714</ele><time>2026-03-29T13:57:42.653Z</time></trkpt><trkpt lat="44.8050233" lon="9.5847"><ele>672.5714285714286</ele><time>2026-03-29T13:57:43.654Z</time></trkpt><trkpt lat="44.8049767" lon="9.5846283"><ele>672.7142857142857</ele><time>2026-03-29T13:57:44.654Z</time></trkpt><trkpt lat="44.8049283" lon="9.5845617"><ele>672.8571428571429</ele><time>2026-03-29T13:57:45.655Z</time></trkpt><trkpt lat="44.80489" lon="9.58449"><ele>673.0</ele><time>2026-03-29T13:57:46.652Z</time></trkpt><trkpt lat="44.8048583" lon="9.5844133"><ele>673.0</ele><time>2026-03-29T13:57:47.654Z</time></trkpt><trkpt lat="44.8048267" lon="9.58433"><ele>673.0</ele><time>2026-03-29T13:57:48.653Z</time></trkpt><trkpt lat="44.8047883" lon="9.5842467"><ele>673.0</ele><time>2026-03-29T13:57:49.654Z</time></trkpt><trkpt lat="44.8047417" lon="9.5841783"><ele>673.0</ele><time>2026-03-29T13:57:50.654Z</time></trkpt><trkpt lat="44.8046917" lon="9.58412"><ele>673.0</ele><time>2026-03-29T13:57:51.653Z</time></trkpt><trkpt lat="44.804635" lon="9.58407"><ele>673.0</ele><time>2026-03-29T13:57:52.654Z</time></trkpt><trkpt lat="44.8045617" lon="9.5840333"><ele>673.0</ele><time>2026-03-29T13:57:53.654Z</time></trkpt><trkpt lat="44.8044833" lon="9.5840133"><ele>673.0</ele><time>2026-03-29T13:57:54.653Z</time></trkpt><trkpt lat="44.804405" lon="9.5840133"><ele>673.0</ele><time>2026-03-29T13:57:55.653Z</time></trkpt><trkpt lat="44.8043233" lon="9.5840233"><ele>673.0</ele><time>2026-03-29T13:57:56.653Z</time></trkpt><trkpt lat="44.8042483" lon="9.58404"><ele>673.0</ele><time>2026-03-29T13:57:57.653Z</time></trkpt><trkpt lat="44.8041783" lon="9.5840533"><ele>673.0</ele><time>2026-03-29T13:57:58.653Z</time></trkpt><trkpt lat="44.8041133" lon="9.58406"><ele>673.0</ele><time>2026-03-29T13:57:59.653Z</time></trkpt><trkpt lat="44.804045" lon="9.58405"><ele>673.0</ele><time>2026-03-29T13:58:00.653Z</time></trkpt><trkpt lat="44.80397" lon="9.584025"><ele>671.8333333333334</ele><time>2026-03-29T13:58:01.653Z</time></trkpt><trkpt lat="44.8038933" lon="9.5839767"><ele>670.6666666666667</ele><time>2026-03-29T13:58:02.654Z</time></trkpt><trkpt lat="44.80381" lon="9.583915"><ele>669.5</ele><time>2026-03-29T13:58:03.654Z</time></trkpt><trkpt lat="44.8037267" lon="9.58386"><ele>668.3333333333334</ele><time>2026-03-29T13:58:04.653Z</time></trkpt><trkpt lat="44.8036483" lon="9.5838117"><ele>667.1666666666666</ele><time>2026-03-29T13:58:05.653Z</time></trkpt><trkpt lat="44.8035783" lon="9.5837683"><ele>666.0</ele><time>2026-03-29T13:58:06.653Z</time></trkpt><trkpt lat="44.8035117" lon="9.5837183"><ele>664.1666666666666</ele><time>2026-03-29T13:58:07.653Z</time></trkpt><trkpt lat="44.8034517" lon="9.583655"><ele>662.3333333333334</ele><time>2026-03-29T13:58:08.654Z</time></trkpt><trkpt lat="44.8034083" lon="9.5835783"><ele>660.5</ele><time>2026-03-29T13:58:09.653Z</time></trkpt><trkpt lat="44.8033883" lon="9.583485"><ele>658.6666666666667</ele><time>2026-03-29T13:58:10.653Z</time></trkpt><trkpt lat="44.8033867" lon="9.5833767"><ele>656.8333333333334</ele><time>2026-03-29T13:58:11.654Z</time></trkpt><trkpt lat="44.8033967" lon="9.58326"><ele>655.0</ele><time>2026-03-29T13:58:12.654Z</time></trkpt><trkpt lat="44.803405" lon="9.5831383"><ele>655.0</ele><time>2026-03-29T13:58:13.654Z</time></trkpt><trkpt lat="44.80341" lon="9.5830217"><ele>655.0</ele><time>2026-03-29T13:58:14.653Z</time></trkpt><trkpt lat="44.80341" lon="9.5829117"><ele>655.0</ele><time>2026-03-29T13:58:15.654Z</time></trkpt><trkpt lat="44.8034117" lon="9.58281"><ele>655.0</ele><time>2026-03-29T13:58:16.654Z</time></trkpt><trkpt lat="44.80342" lon="9.5827167"><ele>655.0</ele><time>2026-03-29T13:58:17.654Z</time></trkpt><trkpt lat="44.80346" lon="9.5825483"><ele>655.0</ele><time>2026-03-29T13:58:19.654Z</time></trkpt><trkpt lat="44.8034933" lon="9.5824667"><ele>656.5</ele><time>2026-03-29T13:58:20.654Z</time></trkpt><trkpt lat="44.8035267" lon="9.5823867"><ele>658.0</ele><time>2026-03-29T13:58:21.653Z</time></trkpt><trkpt lat="44.8035617" lon="9.5823117"><ele>659.5</ele><time>2026-03-29T13:58:22.654Z</time></trkpt><trkpt lat="44.8036317" lon="9.5821583"><ele>661.0</ele><time>2026-03-29T13:58:24.653Z</time></trkpt><trkpt lat="44.80367" lon="9.582075"><ele>662.5</ele><time>2026-03-29T13:58:25.654Z</time></trkpt><trkpt lat="44.8037083" lon="9.58199"><ele>664.0</ele><time>2026-03-29T13:58:26.654Z</time></trkpt><trkpt lat="44.8037517" lon="9.5819067"><ele>664.0</ele><time>2026-03-29T13:58:27.654Z</time></trkpt><trkpt lat="44.8038" lon="9.5818267"><ele>664.0</ele><time>2026-03-29T13:58:28.654Z</time></trkpt><trkpt lat="44.8038617" lon="9.5817567"><ele>664.0</ele><time>2026-03-29T13:58:29.652Z</time></trkpt><trkpt lat="44.80393" lon="9.58169"><ele>664.0</ele><time>2026-03-29T13:58:30.654Z</time></trkpt><trkpt lat="44.80401" lon="9.5816283"><ele>664.0</ele><time>2026-03-29T13:58:31.653Z</time></trkpt><trkpt lat="44.804105" lon="9.58158"><ele>664.0</ele><time>2026-03-29T13:58:32.654Z</time></trkpt><trkpt lat="44.8042" lon="9.5815467"><ele>664.0</ele><time>2026-03-29T13:58:33.653Z</time></trkpt><trkpt lat="44.804295" lon="9.5815183"><ele>664.0</ele><time>2026-03-29T13:58:34.652Z</time></trkpt><trkpt lat="44.804385" lon="9.5814783"><ele>664.0</ele><time>2026-03-29T13:58:35.654Z</time></trkpt><trkpt lat="44.8044583" lon="9.581425"><ele>664.0</ele><time>2026-03-29T13:58:36.652Z</time></trkpt><trkpt lat="44.8045117" lon="9.581345"><ele>664.0</ele><time>2026-03-29T13:58:37.654Z</time></trkpt><trkpt lat="44.8045567" lon="9.5812367"><ele>664.0</ele><time>2026-03-29T13:58:38.654Z</time></trkpt><trkpt lat="44.8046" lon="9.5810933"><ele>667.25</ele><time>2026-03-29T13:58:39.652Z</time></trkpt><trkpt lat="44.8046417" lon="9.580925"><ele>670.5</ele><time>2026-03-29T13:58:40.653Z</time></trkpt><trkpt lat="44.80469" lon="9.5807383"><ele>673.75</ele><time>2026-03-29T13:58:41.653Z</time></trkpt><trkpt lat="44.80474" lon="9.5805417"><ele>677.0</ele><time>2026-03-29T13:58:42.654Z</time></trkpt><trkpt lat="44.8047867" lon="9.580365"><ele>678.2</ele><time>2026-03-29T13:58:43.654Z</time></trkpt><trkpt lat="44.80482" lon="9.5802017"><ele>679.4000000000001</ele><time>2026-03-29T13:58:44.654Z</time></trkpt><trkpt lat="44.80484" lon="9.5800567"><ele>680.5999999999999</ele><time>2026-03-29T13:58:45.654Z</time></trkpt><trkpt lat="44.8048333" lon="9.5799183"><ele>681.8</ele><time>2026-03-29T13:58:46.654Z</time></trkpt><trkpt lat="44.804805" lon="9.57978"><ele>683.0</ele><time>2026-03-29T13:58:47.654Z</time></trkpt><trkpt lat="44.804755" lon="9.5796417"><ele>683.0</ele><time>2026-03-29T13:58:48.654Z</time></trkpt><trkpt lat="44.8047" lon="9.57952"><ele>683.0</ele><time>2026-03-29T13:58:49.654Z</time></trkpt><trkpt lat="44.804665" lon="9.5794033"><ele>683.0</ele><time>2026-03-29T13:58:50.654Z</time></trkpt><trkpt lat="44.8046433" lon="9.57929"><ele>683.0</ele><time>2026-03-29T13:58:51.654Z</time></trkpt><trkpt lat="44.80465" lon="9.579185"><ele>683.0</ele><time>2026-03-29T13:58:52.653Z</time></trkpt><trkpt lat="44.8046817" lon="9.5790883"><ele>683.0</ele><time>2026-03-29T13:58:53.653Z</time></trkpt><trkpt lat="44.8047617" lon="9.57902"><ele>682.75</ele><time>2026-03-29T13:58:54.654Z</time></trkpt><trkpt lat="44.8048733" lon="9.5789683"><ele>682.5</ele><time>2026-03-29T13:58:55.653Z</time></trkpt><trkpt lat="44.8050033" lon="9.5789167"><ele>682.25</ele><time>2026-03-29T13:58:56.653Z</time></trkpt><trkpt lat="44.8051367" lon="9.578865"><ele>682.0</ele><time>2026-03-29T13:58:57.654Z</time></trkpt><trkpt lat="44.805255" lon="9.5788083"><ele>684.25</ele><time>2026-03-29T13:58:58.654Z</time></trkpt><trkpt lat="44.8053533" lon="9.5787367"><ele>686.5</ele><time>2026-03-29T13:58:59.655Z</time></trkpt><trkpt lat="44.8054283" lon="9.578635"><ele>688.75</ele><time>2026-03-29T13:59:00.653Z</time></trkpt><trkpt lat="44.8054717" lon="9.5784933"><ele>691.0</ele><time>2026-03-29T13:59:01.654Z</time></trkpt><trkpt lat="44.805495" lon="9.578315"><ele>691.0</ele><time>2026-03-29T13:59:02.654Z</time></trkpt><trkpt lat="44.8055117" lon="9.5781217"><ele>691.0</ele><time>2026-03-29T13:59:03.653Z</time></trkpt><trkpt lat="44.8055267" lon="9.5779333"><ele>691.0</ele><time>2026-03-29T13:59:04.653Z</time></trkpt><trkpt lat="44.8055333" lon="9.5777367"><ele>691.0</ele><time>2026-03-29T13:59:05.654Z</time></trkpt><trkpt lat="44.8055333" lon="9.57754"><ele>692.25</ele><time>2026-03-29T13:59:06.654Z</time></trkpt><trkpt lat="44.8055283" lon="9.5773567"><ele>693.5</ele><time>2026-03-29T13:59:07.653Z</time></trkpt><trkpt lat="44.8055217" lon="9.5771833"><ele>694.75</ele><time>2026-03-29T13:59:08.653Z</time></trkpt><trkpt lat="44.8055167" lon="9.5770133"><ele>696.0</ele><time>2026-03-29T13:59:09.654Z</time></trkpt><trkpt lat="44.80552" lon="9.576845"><ele>696.25</ele><time>2026-03-29T13:59:10.654Z</time></trkpt><trkpt lat="44.80554" lon="9.5766767"><ele>696.5</ele><time>2026-03-29T13:59:11.653Z</time></trkpt><trkpt lat="44.8055733" lon="9.57651"><ele>696.75</ele><time>2026-03-29T13:59:12.654Z</time></trkpt><trkpt lat="44.8056267" lon="9.57635"><ele>697.0</ele><time>2026-03-29T13:59:13.655Z</time></trkpt><trkpt lat="44.8056933" lon="9.5762033"><ele>697.0</ele><time>2026-03-29T13:59:14.655Z</time></trkpt><trkpt lat="44.8057567" lon="9.5760683"><ele>697.0</ele><time>2026-03-29T13:59:15.653Z</time></trkpt><trkpt lat="44.8058167" lon="9.57594"><ele>697.0</ele><time>2026-03-29T13:59:16.654Z</time></trkpt><trkpt lat="44.8058667" lon="9.5757917"><ele>697.0</ele><time>2026-03-29T13:59:17.655Z</time></trkpt><trkpt lat="44.8059017" lon="9.5756267"><ele>697.0</ele><time>2026-03-29T13:59:18.654Z</time></trkpt><trkpt lat="44.8059217" lon="9.5754533"><ele>697.0</ele><time>2026-03-29T13:59:19.654Z</time></trkpt><trkpt lat="44.8059333" lon="9.5752833"><ele>697.0</ele><time>2026-03-29T13:59:20.656Z</time></trkpt><trkpt lat="44.8059367" lon="9.5751133"><ele>697.0</ele><time>2026-03-29T13:59:21.653Z</time></trkpt><trkpt lat="44.8059383" lon="9.5749417"><ele>697.5</ele><time>2026-03-29T13:59:22.654Z</time></trkpt><trkpt lat="44.805945" lon="9.57477"><ele>698.0</ele><time>2026-03-29T13:59:23.655Z</time></trkpt><trkpt lat="44.80596" lon="9.5746033"><ele>698.5</ele><time>2026-03-29T13:59:24.653Z</time></trkpt><trkpt lat="44.8059883" lon="9.574445"><ele>699.0</ele><time>2026-03-29T13:59:25.653Z</time></trkpt><trkpt lat="44.8060317" lon="9.5743033"><ele>703.25</ele><time>2026-03-29T13:59:26.653Z</time></trkpt><trkpt lat="44.8060933" lon="9.574185"><ele>707.5</ele><time>2026-03-29T13:59:27.653Z</time></trkpt><trkpt lat="44.8061733" lon="9.5740833"><ele>711.75</ele><time>2026-03-29T13:59:28.653Z</time></trkpt><trkpt lat="44.806275" lon="9.5739933"><ele>716.0</ele><time>2026-03-29T13:59:29.653Z</time></trkpt><trkpt lat="44.806385" lon="9.573905"><ele>716.0</ele><time>2026-03-29T13:59:30.654Z</time></trkpt><trkpt lat="44.8064983" lon="9.5738033"><ele>716.0</ele><time>2026-03-29T13:59:31.657Z</time></trkpt><trkpt lat="44.80661" lon="9.5736883"><ele>716.0</ele><time>2026-03-29T13:59:32.653Z</time></trkpt><trkpt lat="44.806715" lon="9.5735767"><ele>716.0</ele><time>2026-03-29T13:59:33.652Z</time></trkpt><trkpt lat="44.806805" lon="9.5734767"><ele>719.75</ele><time>2026-03-29T13:59:34.654Z</time></trkpt><trkpt lat="44.8068767" lon="9.5733733"><ele>723.5</ele><time>2026-03-29T13:59:35.654Z</time></trkpt><trkpt lat="44.8069317" lon="9.57324"><ele>727.25</ele><time>2026-03-29T13:59:36.653Z</time></trkpt><trkpt lat="44.8069733" lon="9.5730783"><ele>731.0</ele><time>2026-03-29T13:59:37.654Z</time></trkpt><trkpt lat="44.807015" lon="9.5728983"><ele>731.25</ele><time>2026-03-29T13:59:38.654Z</time></trkpt><trkpt lat="44.80706" lon="9.572715"><ele>731.5</ele><time>2026-03-29T13:59:39.654Z</time></trkpt><trkpt lat="44.8071067" lon="9.57254"><ele>731.75</ele><time>2026-03-29T13:59:40.653Z</time></trkpt><trkpt lat="44.80715" lon="9.5723767"><ele>732.0</ele><time>2026-03-29T13:59:41.654Z</time></trkpt><trkpt lat="44.8071967" lon="9.5722133"><ele>732.0</ele><time>2026-03-29T13:59:42.653Z</time></trkpt><trkpt lat="44.8072467" lon="9.5720617"><ele>732.0</ele><time>2026-03-29T13:59:43.654Z</time></trkpt><trkpt lat="44.8073017" lon="9.571925"><ele>732.0</ele><time>2026-03-29T13:59:44.653Z</time></trkpt><trkpt lat="44.8073567" lon="9.5717967"><ele>732.0</ele><time>2026-03-29T13:59:45.653Z</time></trkpt><trkpt lat="44.8074083" lon="9.5716867"><ele>732.0</ele><time>2026-03-29T13:59:46.654Z</time></trkpt><trkpt lat="44.8074533" lon="9.5715867"><ele>731.4285714285714</ele><time>2026-03-29T13:59:47.653Z</time></trkpt><trkpt lat="44.807485" lon="9.571495"><ele>730.8571428571429</ele><time>2026-03-29T13:59:48.655Z</time></trkpt><trkpt lat="44.8075033" lon="9.5713967"><ele>730.2857142857142</ele><time>2026-03-29T13:59:49.654Z</time></trkpt><trkpt lat="44.8075117" lon="9.5712883"><ele>729.7142857142858</ele><time>2026-03-29T13:59:50.654Z</time></trkpt><trkpt lat="44.8075117" lon="9.5711767"><ele>729.1428571428571</ele><time>2026-03-29T13:59:51.654Z</time></trkpt><trkpt lat="44.8075083" lon="9.571075"><ele>728.5714285714286</ele><time>2026-03-29T13:59:52.654Z</time></trkpt><trkpt lat="44.8075083" lon="9.57098"><ele>728.0</ele><time>2026-03-29T13:59:53.654Z</time></trkpt><trkpt lat="44.8075617" lon="9.5708183"><ele>727.1666666666666</ele><time>2026-03-29T13:59:55.653Z</time></trkpt><trkpt lat="44.8075983" lon="9.57073"><ele>726.3333333333333</ele><time>2026-03-29T13:59:56.656Z</time></trkpt><trkpt lat="44.8076433" lon="9.5706467"><ele>725.5</ele><time>2026-03-29T13:59:57.654Z</time></trkpt><trkpt lat="44.8076933" lon="9.5705733"><ele>724.6666666666666</ele><time>2026-03-29T13:59:58.654Z</time></trkpt><trkpt lat="44.8077567" lon="9.57051"><ele>723.8333333333334</ele><time>2026-03-29T13:59:59.654Z</time></trkpt><trkpt lat="44.8078283" lon="9.5704483"><ele>723.0</ele><time>2026-03-29T14:00:00.655Z</time></trkpt><trkpt lat="44.8079033" lon="9.5703833"><ele>725.6666666666666</ele><time>2026-03-29T14:00:01.656Z</time></trkpt><trkpt lat="44.807975" lon="9.570315"><ele>728.3333333333334</ele><time>2026-03-29T14:00:02.654Z</time></trkpt><trkpt lat="44.8080367" lon="9.5702317"><ele>731.0</ele><time>2026-03-29T14:00:03.653Z</time></trkpt><trkpt lat="44.8080867" lon="9.5701367"><ele>733.6666666666667</ele><time>2026-03-29T14:00:04.655Z</time></trkpt><trkpt lat="44.8081183" lon="9.5700283"><ele>736.3333333333334</ele><time>2026-03-29T14:00:05.654Z</time></trkpt><trkpt lat="44.8081267" lon="9.5699167"><ele>739.0</ele><time>2026-03-29T14:00:06.654Z</time></trkpt><trkpt lat="44.8081" lon="9.5697983"><ele>739.0</ele><time>2026-03-29T14:00:07.654Z</time></trkpt><trkpt lat="44.8080667" lon="9.569685"><ele>739.0</ele><time>2026-03-29T14:00:08.654Z</time></trkpt><trkpt lat="44.8080417" lon="9.56957"><ele>739.0</ele><time>2026-03-29T14:00:09.653Z</time></trkpt><trkpt lat="44.8080283" lon="9.569455"><ele>739.0</ele><time>2026-03-29T14:00:10.654Z</time></trkpt><trkpt lat="44.8080217" lon="9.5693267"><ele>739.0</ele><time>2026-03-29T14:00:11.654Z</time></trkpt><trkpt lat="44.8080217" lon="9.569195"><ele>739.0</ele><time>2026-03-29T14:00:12.654Z</time></trkpt><trkpt lat="44.808035" lon="9.5690567"><ele>738.6</ele><time>2026-03-29T14:00:13.654Z</time></trkpt><trkpt lat="44.8080583" lon="9.568915"><ele>738.2</ele><time>2026-03-29T14:00:14.654Z</time></trkpt><trkpt lat="44.8080817" lon="9.5687767"><ele>737.8000000000001</ele><time>2026-03-29T14:00:15.653Z</time></trkpt><trkpt lat="44.808105" lon="9.5686533"><ele>737.4000000000001</ele><time>2026-03-29T14:00:16.656Z</time></trkpt><trkpt lat="44.8081367" lon="9.5685417"><ele>737.0</ele><time>2026-03-29T14:00:17.653Z</time></trkpt><trkpt lat="44.8081783" lon="9.568445"><ele>735.4000000000001</ele><time>2026-03-29T14:00:18.655Z</time></trkpt><trkpt lat="44.808235" lon="9.568355"><ele>733.8000000000001</ele><time>2026-03-29T14:00:19.655Z</time></trkpt><trkpt lat="44.8083083" lon="9.56826"><ele>732.2</ele><time>2026-03-29T14:00:20.654Z</time></trkpt><trkpt lat="44.808395" lon="9.5681467"><ele>730.6</ele><time>2026-03-29T14:00:21.655Z</time></trkpt><trkpt lat="44.8084833" lon="9.56801"><ele>729.0</ele><time>2026-03-29T14:00:22.654Z</time></trkpt><trkpt lat="44.8085683" lon="9.5678617"><ele>732.0</ele><time>2026-03-29T14:00:23.655Z</time></trkpt><trkpt lat="44.8086467" lon="9.5677167"><ele>735.0</ele><time>2026-03-29T14:00:24.654Z</time></trkpt><trkpt lat="44.8087067" lon="9.56758"><ele>738.0</ele><time>2026-03-29T14:00:25.653Z</time></trkpt><trkpt lat="44.8087567" lon="9.567455"><ele>741.0</ele><time>2026-03-29T14:00:26.653Z</time></trkpt><trkpt lat="44.8088117" lon="9.5673383"><ele>744.0</ele><time>2026-03-29T14:00:27.653Z</time></trkpt><trkpt lat="44.8088783" lon="9.5672317"><ele>744.0</ele><time>2026-03-29T14:00:28.655Z</time></trkpt><trkpt lat="44.8089517" lon="9.5671517"><ele>744.0</ele><time>2026-03-29T14:00:29.655Z</time></trkpt><trkpt lat="44.809025" lon="9.5670967"><ele>744.0</ele><time>2026-03-29T14:00:30.655Z</time></trkpt><trkpt lat="44.8090933" lon="9.5670683"><ele>744.0</ele><time>2026-03-29T14:00:31.654Z</time></trkpt><trkpt lat="44.80916" lon="9.567075"><ele>744.0</ele><time>2026-03-29T14:00:32.656Z</time></trkpt><trkpt lat="44.8092333" lon="9.5671167"><ele>744.0</ele><time>2026-03-29T14:00:33.655Z</time></trkpt><trkpt lat="44.80931" lon="9.5671633"><ele>748.3333333333334</ele><time>2026-03-29T14:00:34.654Z</time></trkpt><trkpt lat="44.809385" lon="9.5671767"><ele>752.6666666666667</ele><time>2026-03-29T14:00:35.655Z</time></trkpt><trkpt lat="44.8094383" lon="9.567125"><ele>757.0</ele><time>2026-03-29T14:00:36.654Z</time></trkpt><trkpt lat="44.8094817" lon="9.5670417"><ele>761.3333333333334</ele><time>2026-03-29T14:00:37.655Z</time></trkpt><trkpt lat="44.8095033" lon="9.5669217"><ele>765.6666666666667</ele><time>2026-03-29T14:00:38.654Z</time></trkpt><trkpt lat="44.8095083" lon="9.5667867"><ele>770.0</ele><time>2026-03-29T14:00:39.653Z</time></trkpt><trkpt lat="44.8094883" lon="9.56664"><ele>770.0</ele><time>2026-03-29T14:00:40.653Z</time></trkpt><trkpt lat="44.8094683" lon="9.5664967"><ele>770.0</ele><time>2026-03-29T14:00:41.654Z</time></trkpt><trkpt lat="44.8094667" lon="9.5663667"><ele>770.0</ele><time>2026-03-29T14:00:42.652Z</time></trkpt><trkpt lat="44.8094767" lon="9.5662367"><ele>770.0</ele><time>2026-03-29T14:00:43.652Z</time></trkpt><trkpt lat="44.809485" lon="9.566115"><ele>770.0</ele><time>2026-03-29T14:00:44.654Z</time></trkpt><trkpt lat="44.8094817" lon="9.5659967"><ele>768.7142857142857</ele><time>2026-03-29T14:00:45.655Z</time></trkpt><trkpt lat="44.809465" lon="9.5658933"><ele>767.4285714285714</ele><time>2026-03-29T14:00:46.653Z</time></trkpt><trkpt lat="44.8094467" lon="9.5658"><ele>766.1428571428571</ele><time>2026-03-29T14:00:47.655Z</time></trkpt><trkpt lat="44.809435" lon="9.5657117"><ele>764.8571428571429</ele><time>2026-03-29T14:00:48.654Z</time></trkpt><trkpt lat="44.8094417" lon="9.5656233"><ele>763.5714285714286</ele><time>2026-03-29T14:00:49.653Z</time></trkpt><trkpt lat="44.80946" lon="9.5655333"><ele>762.2857142857142</ele><time>2026-03-29T14:00:50.655Z</time></trkpt><trkpt lat="44.8094617" lon="9.565435"><ele>761.0</ele><time>2026-03-29T14:00:51.655Z</time></trkpt><trkpt lat="44.80944" lon="9.565345"><ele>760.5</ele><time>2026-03-29T14:00:52.654Z</time></trkpt><trkpt lat="44.8093983" lon="9.5652767"><ele>760.0</ele><time>2026-03-29T14:00:53.655Z</time></trkpt><trkpt lat="44.809295" lon="9.5651667"><ele>759.5</ele><time>2026-03-29T14:00:55.653Z</time></trkpt><trkpt lat="44.80925" lon="9.5650967"><ele>759.0</ele><time>2026-03-29T14:00:56.654Z</time></trkpt><trkpt lat="44.8092217" lon="9.5650033"><ele>758.5</ele><time>2026-03-29T14:00:57.654Z</time></trkpt><trkpt lat="44.8092083" lon="9.5648933"><ele>758.0</ele><time>2026-03-29T14:00:58.653Z</time></trkpt><trkpt lat="44.8092067" lon="9.56477"><ele>755.3333333333333</ele><time>2026-03-29T14:00:59.654Z</time></trkpt><trkpt lat="44.8092033" lon="9.5646433"><ele>752.6666666666666</ele><time>2026-03-29T14:01:00.654Z</time></trkpt><trkpt lat="44.80918" lon="9.5645267"><ele>750.0</ele><time>2026-03-29T14:01:01.654Z</time></trkpt><trkpt lat="44.8091317" lon="9.5644283"><ele>747.3333333333334</ele><time>2026-03-29T14:01:02.655Z</time></trkpt><trkpt lat="44.8090717" lon="9.5643567"><ele>744.6666666666667</ele><time>2026-03-29T14:01:03.654Z</time></trkpt><trkpt lat="44.80898" lon="9.5643167"><ele>742.0</ele><time>2026-03-29T14:01:04.654Z</time></trkpt><trkpt lat="44.8088867" lon="9.5642917"><ele>742.0</ele><time>2026-03-29T14:01:05.654Z</time></trkpt><trkpt lat="44.8088017" lon="9.5642617"><ele>742.0</ele><time>2026-03-29T14:01:06.654Z</time></trkpt><trkpt lat="44.8087233" lon="9.5642167"><ele>742.0</ele><time>2026-03-29T14:01:07.654Z</time></trkpt><trkpt lat="44.8086617" lon="9.5641533"><ele>742.0</ele><time>2026-03-29T14:01:08.655Z</time></trkpt><trkpt lat="44.8086133" lon="9.5640617"><ele>742.0</ele><time>2026-03-29T14:01:09.653Z</time></trkpt><trkpt lat="44.8085783" lon="9.5639383"><ele>742.0</ele><time>2026-03-29T14:01:10.655Z</time></trkpt><trkpt lat="44.8085567" lon="9.5637767"><ele>743.0</ele><time>2026-03-29T14:01:11.655Z</time></trkpt><trkpt lat="44.8085217" lon="9.56361"><ele>744.0</ele><time>2026-03-29T14:01:12.654Z</time></trkpt><trkpt lat="44.8084633" lon="9.5634567"><ele>745.0</ele><time>2026-03-29T14:01:13.653Z</time></trkpt><trkpt lat="44.808375" lon="9.5633067"><ele>746.0</ele><time>2026-03-29T14:01:14.653Z</time></trkpt><trkpt lat="44.8082717" lon="9.5631717"><ele>740.5</ele><time>2026-03-29T14:01:15.654Z</time></trkpt><trkpt lat="44.8081633" lon="9.5630283"><ele>735.0</ele><time>2026-03-29T14:01:16.653Z</time></trkpt><trkpt lat="44.808055" lon="9.5628767"><ele>729.5</ele><time>2026-03-29T14:01:17.654Z</time></trkpt><trkpt lat="44.8079517" lon="9.5627333"><ele>724.0</ele><time>2026-03-29T14:01:18.654Z</time></trkpt><trkpt lat="44.8078533" lon="9.562605"><ele>724.0</ele><time>2026-03-29T14:01:19.653Z</time></trkpt><trkpt lat="44.8077633" lon="9.5624833"><ele>724.0</ele><time>2026-03-29T14:01:20.656Z</time></trkpt><trkpt lat="44.8076867" lon="9.5623617"><ele>724.0</ele><time>2026-03-29T14:01:21.655Z</time></trkpt><trkpt lat="44.80762" lon="9.56225"><ele>724.0</ele><time>2026-03-29T14:01:22.653Z</time></trkpt><trkpt lat="44.8075567" lon="9.562145"><ele>724.0</ele><time>2026-03-29T14:01:23.656Z</time></trkpt><trkpt lat="44.8075017" lon="9.5620417"><ele>723.1666666666667</ele><time>2026-03-29T14:01:24.654Z</time></trkpt><trkpt lat="44.8074617" lon="9.5619283"><ele>722.3333333333334</ele><time>2026-03-29T14:01:25.654Z</time></trkpt><trkpt lat="44.8074383" lon="9.56181"><ele>721.5</ele><time>2026-03-29T14:01:26.653Z</time></trkpt><trkpt lat="44.807425" lon="9.5616917"><ele>720.6666666666666</ele><time>2026-03-29T14:01:27.654Z</time></trkpt><trkpt lat="44.807415" lon="9.5615733"><ele>719.8333333333333</ele><time>2026-03-29T14:01:28.654Z</time></trkpt><trkpt lat="44.8074017" lon="9.56146"><ele>719.0</ele><time>2026-03-29T14:01:29.654Z</time></trkpt><trkpt lat="44.8073783" lon="9.5613533"><ele>719.0</ele><time>2026-03-29T14:01:30.654Z</time></trkpt><trkpt lat="44.807345" lon="9.5612583"><ele>719.0</ele><time>2026-03-29T14:01:31.656Z</time></trkpt><trkpt lat="44.8073067" lon="9.561175"><ele>719.0</ele><time>2026-03-29T14:01:32.655Z</time></trkpt><trkpt lat="44.80726" lon="9.5610967"><ele>719.0</ele><time>2026-03-29T14:01:33.655Z</time></trkpt><trkpt lat="44.8072017" lon="9.5610167"><ele>719.0</ele><time>2026-03-29T14:01:34.655Z</time></trkpt><trkpt lat="44.8071333" lon="9.56094"><ele>719.0</ele><time>2026-03-29T14:01:35.654Z</time></trkpt><trkpt lat="44.80706" lon="9.5608667"><ele>718.0</ele><time>2026-03-29T14:01:36.654Z</time></trkpt><trkpt lat="44.80698" lon="9.5607983"><ele>717.0</ele><time>2026-03-29T14:01:37.654Z</time></trkpt><trkpt lat="44.8068967" lon="9.56073"><ele>716.0</ele><time>2026-03-29T14:01:38.655Z</time></trkpt><trkpt lat="44.80681" lon="9.5606633"><ele>715.0</ele><time>2026-03-29T14:01:39.656Z</time></trkpt><trkpt lat="44.8067217" lon="9.5606067"><ele>714.0</ele><time>2026-03-29T14:01:40.655Z</time></trkpt><trkpt lat="44.806635" lon="9.560565"><ele>713.8333333333334</ele><time>2026-03-29T14:01:41.653Z</time></trkpt><trkpt lat="44.80655" lon="9.56053"><ele>713.6666666666666</ele><time>2026-03-29T14:01:42.653Z</time></trkpt><trkpt lat="44.8064683" lon="9.560495"><ele>713.5</ele><time>2026-03-29T14:01:43.654Z</time></trkpt><trkpt lat="44.8063917" lon="9.560455"><ele>713.3333333333333</ele><time>2026-03-29T14:01:44.655Z</time></trkpt><trkpt lat="44.8063233" lon="9.5604167"><ele>713.1666666666666</ele><time>2026-03-29T14:01:45.653Z</time></trkpt><trkpt lat="44.8062617" lon="9.56038"><ele>713.0</ele><time>2026-03-29T14:01:46.654Z</time></trkpt><trkpt lat="44.8062033" lon="9.5603383"><ele>712.4</ele><time>2026-03-29T14:01:47.654Z</time></trkpt><trkpt lat="44.806105" lon="9.5602483"><ele>711.8</ele><time>2026-03-29T14:01:49.653Z</time></trkpt><trkpt lat="44.8060167" lon="9.5601433"><ele>711.2</ele><time>2026-03-29T14:01:51.653Z</time></trkpt><trkpt lat="44.8059317" lon="9.560065"><ele>710.6</ele><time>2026-03-29T14:01:53.653Z</time></trkpt><trkpt lat="44.8058417" lon="9.5599667"><ele>710.0</ele><time>2026-03-29T14:01:55.653Z</time></trkpt><trkpt lat="44.8057767" lon="9.5599067"><ele>710.0</ele><time>2026-03-29T14:01:56.654Z</time></trkpt><trkpt lat="44.8057033" lon="9.5598483"><ele>710.0</ele><time>2026-03-29T14:01:57.653Z</time></trkpt><trkpt lat="44.805625" lon="9.5597983"><ele>710.0</ele><time>2026-03-29T14:01:58.654Z</time></trkpt><trkpt lat="44.8055433" lon="9.559755"><ele>710.0</ele><time>2026-03-29T14:01:59.654Z</time></trkpt><trkpt lat="44.8054567" lon="9.5597167"><ele>710.0</ele><time>2026-03-29T14:02:00.654Z</time></trkpt><trkpt lat="44.805365" lon="9.5596867"><ele>710.0</ele><time>2026-03-29T14:02:01.654Z</time></trkpt><trkpt lat="44.8052733" lon="9.5596717"><ele>710.0</ele><time>2026-03-29T14:02:02.653Z</time></trkpt><trkpt lat="44.805185" lon="9.5596617"><ele>710.0</ele><time>2026-03-29T14:02:03.653Z</time></trkpt><trkpt lat="44.8051" lon="9.559645"><ele>710.0</ele><time>2026-03-29T14:02:04.653Z</time></trkpt><trkpt lat="44.8050183" lon="9.5596183"><ele>710.0</ele><time>2026-03-29T14:02:05.654Z</time></trkpt><trkpt lat="44.80494" lon="9.5595783"><ele>710.0</ele><time>2026-03-29T14:02:06.653Z</time></trkpt><trkpt lat="44.8048633" lon="9.5595333"><ele>710.0</ele><time>2026-03-29T14:02:07.655Z</time></trkpt><trkpt lat="44.80478" lon="9.559485"><ele>711.6</ele><time>2026-03-29T14:02:08.654Z</time></trkpt><trkpt lat="44.8046917" lon="9.55945"><ele>713.2</ele><time>2026-03-29T14:02:09.653Z</time></trkpt><trkpt lat="44.8045967" lon="9.5594267"><ele>714.8</ele><time>2026-03-29T14:02:10.653Z</time></trkpt><trkpt lat="44.804495" lon="9.5594033"><ele>716.4</ele><time>2026-03-29T14:02:11.654Z</time></trkpt><trkpt lat="44.804395" lon="9.5593783"><ele>718.0</ele><time>2026-03-29T14:02:12.652Z</time></trkpt><trkpt lat="44.8043" lon="9.5593617"><ele>718.0</ele><time>2026-03-29T14:02:13.655Z</time></trkpt><trkpt lat="44.8042117" lon="9.55934"><ele>718.0</ele><time>2026-03-29T14:02:14.654Z</time></trkpt><trkpt lat="44.8041317" lon="9.5593067"><ele>718.0</ele><time>2026-03-29T14:02:15.654Z</time></trkpt><trkpt lat="44.8040567" lon="9.5592617"><ele>718.0</ele><time>2026-03-29T14:02:16.654Z</time></trkpt><trkpt lat="44.8039867" lon="9.559195"><ele>718.0</ele><time>2026-03-29T14:02:17.654Z</time></trkpt><trkpt lat="44.8039217" lon="9.55912"><ele>718.0</ele><time>2026-03-29T14:02:18.654Z</time></trkpt><trkpt lat="44.80386" lon="9.559045"><ele>718.0</ele><time>2026-03-29T14:02:19.653Z</time></trkpt><trkpt lat="44.80381" lon="9.5589767"><ele>718.0</ele><time>2026-03-29T14:02:20.654Z</time></trkpt><trkpt lat="44.8037367" lon="9.5588517"><ele>718.0</ele><time>2026-03-29T14:02:22.656Z</time></trkpt><trkpt lat="44.803645" lon="9.5587567"><ele>718.0</ele><time>2026-03-29T14:02:24.652Z</time></trkpt><trkpt lat="44.80352" lon="9.5587367"><ele>718.0</ele><time>2026-03-29T14:02:26.653Z</time></trkpt><trkpt lat="44.8034517" lon="9.5587467"><ele>718.1666666666667</ele><time>2026-03-29T14:02:27.654Z</time></trkpt><trkpt lat="44.8033767" lon="9.5587667"><ele>718.3333333333334</ele><time>2026-03-29T14:02:28.654Z</time></trkpt><trkpt lat="44.8032933" lon="9.55879"><ele>718.5</ele><time>2026-03-29T14:02:29.654Z</time></trkpt><trkpt lat="44.803205" lon="9.558815"><ele>718.6666666666666</ele><time>2026-03-29T14:02:30.654Z</time></trkpt><trkpt lat="44.8031233" lon="9.5588267"><ele>718.8333333333333</ele><time>2026-03-29T14:02:31.654Z</time></trkpt><trkpt lat="44.80305" lon="9.55882"><ele>719.0</ele><time>2026-03-29T14:02:32.655Z</time></trkpt><trkpt lat="44.8029833" lon="9.5587883"><ele>719.0</ele><time>2026-03-29T14:02:33.654Z</time></trkpt><trkpt lat="44.8029367" lon="9.558725"><ele>719.0</ele><time>2026-03-29T14:02:34.654Z</time></trkpt><trkpt lat="44.8029117" lon="9.5586317"><ele>719.0</ele><time>2026-03-29T14:02:35.654Z</time></trkpt><trkpt lat="44.8029017" lon="9.55852"><ele>719.0</ele><time>2026-03-29T14:02:36.654Z</time></trkpt><trkpt lat="44.8028867" lon="9.5584033"><ele>719.0</ele><time>2026-03-29T14:02:37.654Z</time></trkpt><trkpt lat="44.8028717" lon="9.5582917"><ele>719.0</ele><time>2026-03-29T14:02:38.654Z</time></trkpt><trkpt lat="44.8028517" lon="9.5581867"><ele>720.1666666666666</ele><time>2026-03-29T14:02:39.653Z</time></trkpt><trkpt lat="44.8028433" lon="9.5580867"><ele>721.3333333333333</ele><time>2026-03-29T14:02:40.654Z</time></trkpt><trkpt lat="44.8028433" lon="9.5579867"><ele>722.5</ele><time>2026-03-29T14:02:41.653Z</time></trkpt><trkpt lat="44.80285" lon="9.5578733"><ele>723.6666666666666</ele><time>2026-03-29T14:02:42.654Z</time></trkpt><trkpt lat="44.8028483" lon="9.5577567"><ele>724.8333333333334</ele><time>2026-03-29T14:02:43.653Z</time></trkpt><trkpt lat="44.8028383" lon="9.5576317"><ele>726.0</ele><time>2026-03-29T14:02:44.654Z</time></trkpt><trkpt lat="44.8028283" lon="9.5575033"><ele>726.0</ele><time>2026-03-29T14:02:45.658Z</time></trkpt><trkpt lat="44.80282" lon="9.5573733"><ele>726.0</ele><time>2026-03-29T14:02:46.653Z</time></trkpt><trkpt lat="44.8028217" lon="9.55725"><ele>726.0</ele><time>2026-03-29T14:02:47.654Z</time></trkpt><trkpt lat="44.8028283" lon="9.5571283"><ele>726.0</ele><time>2026-03-29T14:02:48.653Z</time></trkpt><trkpt lat="44.8028367" lon="9.5570133"><ele>726.0</ele><time>2026-03-29T14:02:49.653Z</time></trkpt><trkpt lat="44.8028333" lon="9.556895"><ele>726.0</ele><time>2026-03-29T14:02:50.653Z</time></trkpt><trkpt lat="44.802815" lon="9.5567667"><ele>725.6666666666666</ele><time>2026-03-29T14:02:51.653Z</time></trkpt><trkpt lat="44.802795" lon="9.556635"><ele>725.3333333333334</ele><time>2026-03-29T14:02:52.652Z</time></trkpt><trkpt lat="44.8027733" lon="9.556505"><ele>725.0</ele><time>2026-03-29T14:02:53.653Z</time></trkpt><trkpt lat="44.802755" lon="9.5563883"><ele>724.6666666666667</ele><time>2026-03-29T14:02:54.654Z</time></trkpt><trkpt lat="44.8027117" lon="9.5562817"><ele>724.3333333333334</ele><time>2026-03-29T14:02:55.653Z</time></trkpt><trkpt lat="44.80266" lon="9.5561967"><ele>724.0</ele><time>2026-03-29T14:02:56.653Z</time></trkpt><trkpt lat="44.8026017" lon="9.5561267"><ele>726.8571428571429</ele><time>2026-03-29T14:02:57.652Z</time></trkpt><trkpt lat="44.8025367" lon="9.5560767"><ele>729.7142857142857</ele><time>2026-03-29T14:02:58.655Z</time></trkpt><trkpt lat="44.8024717" lon="9.556035"><ele>732.5714285714287</ele><time>2026-03-29T14:02:59.654Z</time></trkpt><trkpt lat="44.8024167" lon="9.5559783"><ele>735.4285714285714</ele><time>2026-03-29T14:03:00.654Z</time></trkpt><trkpt lat="44.8023733" lon="9.5559017"><ele>738.2857142857143</ele><time>2026-03-29T14:03:01.654Z</time></trkpt><trkpt lat="44.8023483" lon="9.55581"><ele>741.1428571428572</ele><time>2026-03-29T14:03:02.654Z</time></trkpt><trkpt lat="44.8023317" lon="9.5556933"><ele>744.0</ele><time>2026-03-29T14:03:03.653Z</time></trkpt><trkpt lat="44.8023117" lon="9.55555"><ele>744.0</ele><time>2026-03-29T14:03:04.654Z</time></trkpt><trkpt lat="44.8023033" lon="9.5553867"><ele>744.0</ele><time>2026-03-29T14:03:05.655Z</time></trkpt><trkpt lat="44.802305" lon="9.5552167"><ele>744.0</ele><time>2026-03-29T14:03:06.654Z</time></trkpt><trkpt lat="44.80231" lon="9.5550467"><ele>744.0</ele><time>2026-03-29T14:03:07.655Z</time></trkpt><trkpt lat="44.8023167" lon="9.5548733"><ele>744.0</ele><time>2026-03-29T14:03:08.655Z</time></trkpt><trkpt lat="44.8023283" lon="9.5547017"><ele>744.0</ele><time>2026-03-29T14:03:09.655Z</time></trkpt><trkpt lat="44.8023433" lon="9.5545433"><ele>744.0</ele><time>2026-03-29T14:03:10.654Z</time></trkpt><trkpt lat="44.8023583" lon="9.55439"><ele>744.0</ele><time>2026-03-29T14:03:11.655Z</time></trkpt><trkpt lat="44.802385" lon="9.55424"><ele>744.0</ele><time>2026-03-29T14:03:12.655Z</time></trkpt><trkpt lat="44.8024233" lon="9.5540917"><ele>744.0</ele><time>2026-03-29T14:03:13.653Z</time></trkpt><trkpt lat="44.8024683" lon="9.553945"><ele>744.0</ele><time>2026-03-29T14:03:14.655Z</time></trkpt><trkpt lat="44.802505" lon="9.5538133"><ele>744.0</ele><time>2026-03-29T14:03:15.654Z</time></trkpt><trkpt lat="44.8025367" lon="9.5537"><ele>744.0</ele><time>2026-03-29T14:03:16.654Z</time></trkpt><trkpt lat="44.8025567" lon="9.5536033"><ele>744.3333333333334</ele><time>2026-03-29T14:03:17.654Z</time></trkpt><trkpt lat="44.80256" lon="9.55351"><ele>744.6666666666666</ele><time>2026-03-29T14:03:18.653Z</time></trkpt><trkpt lat="44.8025367" lon="9.553425"><ele>745.0</ele><time>2026-03-29T14:03:19.656Z</time></trkpt><trkpt lat="44.8025017" lon="9.5533333"><ele>745.3333333333333</ele><time>2026-03-29T14:03:20.655Z</time></trkpt><trkpt lat="44.802455" lon="9.553235"><ele>745.6666666666666</ele><time>2026-03-29T14:03:21.656Z</time></trkpt><trkpt lat="44.8024033" lon="9.553135"><ele>746.0</ele><time>2026-03-29T14:03:22.655Z</time></trkpt><trkpt lat="44.8023483" lon="9.5530383"><ele>746.0</ele><time>2026-03-29T14:03:23.659Z</time></trkpt><trkpt lat="44.802295" lon="9.5529517"><ele>746.0</ele><time>2026-03-29T14:03:24.655Z</time></trkpt><trkpt lat="44.8022433" lon="9.552875"><ele>746.0</ele><time>2026-03-29T14:03:25.654Z</time></trkpt><trkpt lat="44.8021917" lon="9.5528067"><ele>746.0</ele><time>2026-03-29T14:03:26.655Z</time></trkpt><trkpt lat="44.8021033" lon="9.5527183"><ele>746.0</ele><time>2026-03-29T14:03:28.654Z</time></trkpt><trkpt lat="44.8020433" lon="9.5526883"><ele>746.0</ele><time>2026-03-29T14:03:30.654Z</time></trkpt><trkpt lat="44.801935" lon="9.5526867"><ele>745.5</ele><time>2026-03-29T14:03:56.653Z</time></trkpt><trkpt lat="44.8018367" lon="9.55268"><ele>745.0</ele><time>2026-03-29T14:03:58.654Z</time></trkpt><trkpt lat="44.8017483" lon="9.552685"><ele>744.5</ele><time>2026-03-29T14:04:00.656Z</time></trkpt><trkpt lat="44.8016733" lon="9.55273"><ele>744.0</ele><time>2026-03-29T14:04:02.654Z</time></trkpt><trkpt lat="44.8016067" lon="9.552795"><ele>743.5</ele><time>2026-03-29T14:04:04.653Z</time></trkpt><trkpt lat="44.8015383" lon="9.5528617"><ele>743.0</ele><time>2026-03-29T14:04:06.653Z</time></trkpt><trkpt lat="44.80147" lon="9.55288"><ele>744.8333333333333</ele><time>2026-03-29T14:04:08.653Z</time></trkpt><trkpt lat="44.8014017" lon="9.55284"><ele>746.6666666666666</ele><time>2026-03-29T14:04:10.652Z</time></trkpt><trkpt lat="44.8013283" lon="9.552765"><ele>748.5</ele><time>2026-03-29T14:04:12.655Z</time></trkpt><trkpt lat="44.8012433" lon="9.5526667"><ele>750.3333333333334</ele><time>2026-03-29T14:04:14.654Z</time></trkpt><trkpt lat="44.8011933" lon="9.5526083"><ele>752.1666666666667</ele><time>2026-03-29T14:04:15.653Z</time></trkpt><trkpt lat="44.8011333" lon="9.5525417"><ele>754.0</ele><time>2026-03-29T14:04:16.653Z</time></trkpt><trkpt lat="44.8010633" lon="9.5524683"><ele>755.1666666666667</ele><time>2026-03-29T14:04:17.653Z</time></trkpt><trkpt lat="44.8009967" lon="9.5524"><ele>756.3333333333334</ele><time>2026-03-29T14:04:18.655Z</time></trkpt><trkpt lat="44.8009367" lon="9.552345"><ele>757.5</ele><time>2026-03-29T14:04:19.654Z</time></trkpt><trkpt lat="44.80082" lon="9.5522867"><ele>758.6666666666666</ele><time>2026-03-29T14:04:21.654Z</time></trkpt><trkpt lat="44.80075" lon="9.552285"><ele>759.8333333333333</ele><time>2026-03-29T14:04:22.653Z</time></trkpt><trkpt lat="44.80067" lon="9.5523"><ele>761.0</ele><time>2026-03-29T14:04:23.653Z</time></trkpt><trkpt lat="44.80058" lon="9.5523317"><ele>761.0</ele><time>2026-03-29T14:04:24.653Z</time></trkpt><trkpt lat="44.8004817" lon="9.5523633"><ele>761.0</ele><time>2026-03-29T14:04:25.654Z</time></trkpt><trkpt lat="44.8003783" lon="9.5523883"><ele>761.0</ele><time>2026-03-29T14:04:26.653Z</time></trkpt><trkpt lat="44.8002717" lon="9.5524067"><ele>761.0</ele><time>2026-03-29T14:04:27.653Z</time></trkpt><trkpt lat="44.80017" lon="9.55242"><ele>761.0</ele><time>2026-03-29T14:04:28.653Z</time></trkpt><trkpt lat="44.8000733" lon="9.552435"><ele>762.3333333333333</ele><time>2026-03-29T14:04:29.653Z</time></trkpt><trkpt lat="44.7999833" lon="9.5524483"><ele>763.6666666666666</ele><time>2026-03-29T14:04:30.654Z</time></trkpt><trkpt lat="44.7999017" lon="9.552455"><ele>765.0</ele><time>2026-03-29T14:04:31.654Z</time></trkpt><trkpt lat="44.7998367" lon="9.552445"><ele>766.3333333333333</ele><time>2026-03-29T14:04:32.654Z</time></trkpt><trkpt lat="44.799755" lon="9.5523317"><ele>767.6666666666666</ele><time>2026-03-29T14:04:34.653Z</time></trkpt><trkpt lat="44.79973" lon="9.5522417"><ele>769.0</ele><time>2026-03-29T14:04:35.653Z</time></trkpt><trkpt lat="44.7997067" lon="9.5521433"><ele>768.9999999999999</ele><time>2026-03-29T14:04:36.653Z</time></trkpt><trkpt lat="44.7996717" lon="9.5520583"><ele>769.0</ele><time>2026-03-29T14:04:37.654Z</time></trkpt><trkpt lat="44.7996183" lon="9.55198"><ele>769.0</ele><time>2026-03-29T14:04:38.655Z</time></trkpt><trkpt lat="44.7995483" lon="9.55191"><ele>769.0</ele><time>2026-03-29T14:04:39.654Z</time></trkpt><trkpt lat="44.7994867" lon="9.5518367"><ele>768.9999999999999</ele><time>2026-03-29T14:04:40.653Z</time></trkpt><trkpt lat="44.79944" lon="9.5517483"><ele>769.0</ele><time>2026-03-29T14:04:41.653Z</time></trkpt><trkpt lat="44.79941" lon="9.5516467"><ele>769.1666666666666</ele><time>2026-03-29T14:04:42.654Z</time></trkpt><trkpt lat="44.7993883" lon="9.5515567"><ele>769.3333333333333</ele><time>2026-03-29T14:04:43.653Z</time></trkpt><trkpt lat="44.7993283" lon="9.5514433"><ele>769.5</ele><time>2026-03-29T14:04:45.653Z</time></trkpt><trkpt lat="44.799205" lon="9.5514517"><ele>769.6666666666667</ele><time>2026-03-29T14:04:47.653Z</time></trkpt><trkpt lat="44.7991333" lon="9.551495"><ele>769.8333333333334</ele><time>2026-03-29T14:04:48.654Z</time></trkpt><trkpt lat="44.79906" lon="9.5515233"><ele>770.0</ele><time>2026-03-29T14:04:49.653Z</time></trkpt><trkpt lat="44.7989833" lon="9.5515317"><ele>770.0000000000001</ele><time>2026-03-29T14:04:50.654Z</time></trkpt><trkpt lat="44.7989067" lon="9.5515067"><ele>770.0</ele><time>2026-03-29T14:04:51.653Z</time></trkpt><trkpt lat="44.7988267" lon="9.55146"><ele>770.0</ele><time>2026-03-29T14:04:52.653Z</time></trkpt><trkpt lat="44.79875" lon="9.5514067"><ele>770.0</ele><time>2026-03-29T14:04:53.654Z</time></trkpt><trkpt lat="44.7986717" lon="9.5513467"><ele>770.0000000000001</ele><time>2026-03-29T14:04:54.654Z</time></trkpt><trkpt lat="44.798615" lon="9.551275"><ele>770.0</ele><time>2026-03-29T14:04:55.655Z</time></trkpt><trkpt lat="44.7985817" lon="9.551195"><ele>771.4</ele><time>2026-03-29T14:04:56.655Z</time></trkpt><trkpt lat="44.7985817" lon="9.551015"><ele>772.8</ele><time>2026-03-29T14:04:58.655Z</time></trkpt><trkpt lat="44.7985883" lon="9.5509217"><ele>774.2</ele><time>2026-03-29T14:04:59.655Z</time></trkpt><trkpt lat="44.7985683" lon="9.550765"><ele>775.6</ele><time>2026-03-29T14:05:01.654Z</time></trkpt><trkpt lat="44.79847" lon="9.550645"><ele>777.0</ele><time>2026-03-29T14:05:03.653Z</time></trkpt><trkpt lat="44.7984117" lon="9.5505833"><ele>777.0</ele><time>2026-03-29T14:05:04.655Z</time></trkpt><trkpt lat="44.798365" lon="9.5505083"><ele>777.0</ele><time>2026-03-29T14:05:05.655Z</time></trkpt><trkpt lat="44.79833" lon="9.5504117"><ele>777.0</ele><time>2026-03-29T14:05:06.653Z</time></trkpt><trkpt lat="44.7983" lon="9.5503033"><ele>777.0</ele><time>2026-03-29T14:05:07.653Z</time></trkpt><trkpt lat="44.7982633" lon="9.5502017"><ele>777.0</ele><time>2026-03-29T14:05:08.654Z</time></trkpt><trkpt lat="44.7982267" lon="9.5501167"><ele>777.0</ele><time>2026-03-29T14:05:09.653Z</time></trkpt><trkpt lat="44.7981867" lon="9.5500317"><ele>776.1666666666666</ele><time>2026-03-29T14:05:10.654Z</time></trkpt><trkpt lat="44.798155" lon="9.54994"><ele>775.3333333333333</ele><time>2026-03-29T14:05:11.656Z</time></trkpt><trkpt lat="44.798145" lon="9.5498383"><ele>774.5</ele><time>2026-03-29T14:05:12.653Z</time></trkpt><trkpt lat="44.7981583" lon="9.5497217"><ele>773.6666666666666</ele><time>2026-03-29T14:05:13.653Z</time></trkpt><trkpt lat="44.7981817" lon="9.5495817"><ele>772.8333333333333</ele><time>2026-03-29T14:05:14.654Z</time></trkpt><trkpt lat="44.79821" lon="9.549435"><ele>772.0</ele><time>2026-03-29T14:05:15.653Z</time></trkpt><trkpt lat="44.79824" lon="9.5492967"><ele>772.0</ele><time>2026-03-29T14:05:16.654Z</time></trkpt><trkpt lat="44.798275" lon="9.5491717"><ele>772.0</ele><time>2026-03-29T14:05:17.654Z</time></trkpt><trkpt lat="44.7983133" lon="9.5490617"><ele>772.0</ele><time>2026-03-29T14:05:18.655Z</time></trkpt><trkpt lat="44.7983567" lon="9.54895"><ele>772.0</ele><time>2026-03-29T14:05:19.654Z</time></trkpt><trkpt lat="44.7983917" lon="9.5488267"><ele>772.0</ele><time>2026-03-29T14:05:20.655Z</time></trkpt><trkpt lat="44.79841" lon="9.5486933"><ele>772.2</ele><time>2026-03-29T14:05:21.655Z</time></trkpt><trkpt lat="44.7984233" lon="9.5485533"><ele>772.4000000000001</ele><time>2026-03-29T14:05:22.654Z</time></trkpt><trkpt lat="44.79844" lon="9.5484167"><ele>772.5999999999999</ele><time>2026-03-29T14:05:23.654Z</time></trkpt><trkpt lat="44.798465" lon="9.548285"><ele>772.8</ele><time>2026-03-29T14:05:24.654Z</time></trkpt><trkpt lat="44.7985" lon="9.54816"><ele>773.0</ele><time>2026-03-29T14:05:25.655Z</time></trkpt><trkpt lat="44.7985433" lon="9.5480433"><ele>768.6666666666667</ele><time>2026-03-29T14:05:26.655Z</time></trkpt><trkpt lat="44.7985817" lon="9.5479333"><ele>764.3333333333334</ele><time>2026-03-29T14:05:27.653Z</time></trkpt><trkpt lat="44.7986117" lon="9.5478267"><ele>760.0</ele><time>2026-03-29T14:05:28.653Z</time></trkpt><trkpt lat="44.798635" lon="9.5477217"><ele>755.6666666666667</ele><time>2026-03-29T14:05:29.654Z</time></trkpt><trkpt lat="44.7986417" lon="9.5476117"><ele>751.3333333333334</ele><time>2026-03-29T14:05:30.653Z</time></trkpt><trkpt lat="44.7986317" lon="9.54749"><ele>747.0</ele><time>2026-03-29T14:05:31.654Z</time></trkpt><trkpt lat="44.7986067" lon="9.547355"><ele>747.0</ele><time>2026-03-29T14:05:32.655Z</time></trkpt><trkpt lat="44.79858" lon="9.547215"><ele>747.0</ele><time>2026-03-29T14:05:33.652Z</time></trkpt><trkpt lat="44.7985633" lon="9.5470733"><ele>747.0</ele><time>2026-03-29T14:05:34.653Z</time></trkpt><trkpt lat="44.7985417" lon="9.54693"><ele>747.0</ele><time>2026-03-29T14:05:35.653Z</time></trkpt><trkpt lat="44.79852" lon="9.54679"><ele>747.0</ele><time>2026-03-29T14:05:36.653Z</time></trkpt><trkpt lat="44.7985" lon="9.5466633"><ele>749.0</ele><time>2026-03-29T14:05:37.653Z</time></trkpt><trkpt lat="44.7984817" lon="9.5465533"><ele>751.0</ele><time>2026-03-29T14:05:38.654Z</time></trkpt><trkpt lat="44.7984583" lon="9.54645"><ele>753.0</ele><time>2026-03-29T14:05:39.653Z</time></trkpt><trkpt lat="44.7984233" lon="9.546355"><ele>755.0</ele><time>2026-03-29T14:05:40.653Z</time></trkpt><trkpt lat="44.798375" lon="9.5462683"><ele>757.0</ele><time>2026-03-29T14:05:41.653Z</time></trkpt><trkpt lat="44.798315" lon="9.546195"><ele>759.0</ele><time>2026-03-29T14:05:42.654Z</time></trkpt><trkpt lat="44.798245" lon="9.5461283"><ele>759.0</ele><time>2026-03-29T14:05:43.653Z</time></trkpt><trkpt lat="44.7981717" lon="9.5460767"><ele>759.0</ele><time>2026-03-29T14:05:44.654Z</time></trkpt><trkpt lat="44.79809" lon="9.546045"><ele>759.0</ele><time>2026-03-29T14:05:45.654Z</time></trkpt><trkpt lat="44.7980083" lon="9.546045"><ele>759.0</ele><time>2026-03-29T14:05:46.652Z</time></trkpt><trkpt lat="44.7979233" lon="9.5460667"><ele>759.0</ele><time>2026-03-29T14:05:47.655Z</time></trkpt><trkpt lat="44.7978317" lon="9.5460717"><ele>759.0</ele><time>2026-03-29T14:05:48.653Z</time></trkpt><trkpt lat="44.79773" lon="9.5460633"><ele>759.8000000000001</ele><time>2026-03-29T14:05:49.654Z</time></trkpt><trkpt lat="44.7976283" lon="9.546055"><ele>760.6</ele><time>2026-03-29T14:05:50.657Z</time></trkpt><trkpt lat="44.7975317" lon="9.5460517"><ele>761.4</ele><time>2026-03-29T14:05:51.654Z</time></trkpt><trkpt lat="44.7974367" lon="9.5460533"><ele>762.2</ele><time>2026-03-29T14:05:52.654Z</time></trkpt><trkpt lat="44.79734" lon="9.54607"><ele>763.0</ele><time>2026-03-29T14:05:53.656Z</time></trkpt><trkpt lat="44.797235" lon="9.5460983"><ele>763.0</ele><time>2026-03-29T14:05:54.653Z</time></trkpt><trkpt lat="44.7971283" lon="9.5461333"><ele>763.0</ele><time>2026-03-29T14:05:55.654Z</time></trkpt><trkpt lat="44.7970217" lon="9.5461633"><ele>763.0</ele><time>2026-03-29T14:05:56.654Z</time></trkpt><trkpt lat="44.7969183" lon="9.546195"><ele>763.0</ele><time>2026-03-29T14:05:57.654Z</time></trkpt><trkpt lat="44.7968217" lon="9.5462333"><ele>763.0</ele><time>2026-03-29T14:05:58.654Z</time></trkpt><trkpt lat="44.79673" lon="9.5462667"><ele>762.0</ele><time>2026-03-29T14:05:59.654Z</time></trkpt><trkpt lat="44.7966433" lon="9.546285"><ele>761.0</ele><time>2026-03-29T14:06:00.655Z</time></trkpt><trkpt lat="44.7965583" lon="9.546275"><ele>760.0</ele><time>2026-03-29T14:06:01.654Z</time></trkpt><trkpt lat="44.7964733" lon="9.5462333"><ele>759.0</ele><time>2026-03-29T14:06:02.654Z</time></trkpt><trkpt lat="44.7963883" lon="9.546185"><ele>758.0</ele><time>2026-03-29T14:06:03.654Z</time></trkpt><trkpt lat="44.796305" lon="9.5461333"><ele>757.0</ele><time>2026-03-29T14:06:04.657Z</time></trkpt><trkpt lat="44.7962233" lon="9.5460783"><ele>757.0</ele><time>2026-03-29T14:06:05.653Z</time></trkpt><trkpt lat="44.79614" lon="9.5460183"><ele>757.0</ele><time>2026-03-29T14:06:06.654Z</time></trkpt><trkpt lat="44.79606" lon="9.5459433"><ele>757.0</ele><time>2026-03-29T14:06:07.654Z</time></trkpt><trkpt lat="44.7959867" lon="9.5458567"><ele>757.0</ele><time>2026-03-29T14:06:08.653Z</time></trkpt><trkpt lat="44.7959217" lon="9.5457617"><ele>757.0</ele><time>2026-03-29T14:06:09.653Z</time></trkpt><trkpt lat="44.7958617" lon="9.5456733"><ele>757.7142857142858</ele><time>2026-03-29T14:06:10.654Z</time></trkpt><trkpt lat="44.7958067" lon="9.54559"><ele>758.4285714285713</ele><time>2026-03-29T14:06:11.653Z</time></trkpt><trkpt lat="44.7957517" lon="9.545525"><ele>759.1428571428571</ele><time>2026-03-29T14:06:12.654Z</time></trkpt><trkpt lat="44.795695" lon="9.54548"><ele>759.8571428571429</ele><time>2026-03-29T14:06:13.654Z</time></trkpt><trkpt lat="44.7956283" lon="9.5454667"><ele>760.5714285714287</ele><time>2026-03-29T14:06:14.655Z</time></trkpt><trkpt lat="44.7955633" lon="9.5454917"><ele>761.2857142857142</ele><time>2026-03-29T14:06:15.653Z</time></trkpt><trkpt lat="44.7955033" lon="9.545555"><ele>762.0</ele><time>2026-03-29T14:06:16.653Z</time></trkpt><trkpt lat="44.7954583" lon="9.545645"><ele>762.0</ele><time>2026-03-29T14:06:17.653Z</time></trkpt><trkpt lat="44.7954233" lon="9.54575"><ele>762.0</ele><time>2026-03-29T14:06:18.654Z</time></trkpt><trkpt lat="44.7953933" lon="9.5458567"><ele>762.0</ele><time>2026-03-29T14:06:19.653Z</time></trkpt><trkpt lat="44.7953633" lon="9.54596"><ele>762.0</ele><time>2026-03-29T14:06:20.653Z</time></trkpt><trkpt lat="44.7953333" lon="9.546055"><ele>762.0</ele><time>2026-03-29T14:06:21.653Z</time></trkpt><trkpt lat="44.795305" lon="9.5461417"><ele>762.0</ele><time>2026-03-29T14:06:22.654Z</time></trkpt><trkpt lat="44.79523" lon="9.5462783"><ele>763.6666666666666</ele><time>2026-03-29T14:06:24.652Z</time></trkpt><trkpt lat="44.79517" lon="9.5463333"><ele>765.3333333333333</ele><time>2026-03-29T14:06:25.653Z</time></trkpt><trkpt lat="44.7950983" lon="9.54639"><ele>767.0</ele><time>2026-03-29T14:06:26.654Z</time></trkpt><trkpt lat="44.7950183" lon="9.5464467"><ele>768.6666666666666</ele><time>2026-03-29T14:06:27.654Z</time></trkpt><trkpt lat="44.7949367" lon="9.5464967"><ele>770.3333333333333</ele><time>2026-03-29T14:06:28.654Z</time></trkpt><trkpt lat="44.7948567" lon="9.5465433"><ele>772.0</ele><time>2026-03-29T14:06:29.654Z</time></trkpt><trkpt lat="44.7947717" lon="9.54657"><ele>771.9999999999999</ele><time>2026-03-29T14:06:30.653Z</time></trkpt><trkpt lat="44.79468" lon="9.5465817"><ele>772.0</ele><time>2026-03-29T14:06:31.655Z</time></trkpt><trkpt lat="44.7945867" lon="9.5466017"><ele>772.0</ele><time>2026-03-29T14:06:32.653Z</time></trkpt><trkpt lat="44.7944967" lon="9.546635"><ele>772.0</ele><time>2026-03-29T14:06:33.654Z</time></trkpt><trkpt lat="44.7944117" lon="9.54667"><ele>771.9999999999999</ele><time>2026-03-29T14:06:34.654Z</time></trkpt><trkpt lat="44.7943317" lon="9.5466833"><ele>772.0</ele><time>2026-03-29T14:06:35.654Z</time></trkpt><trkpt lat="44.7942567" lon="9.5466717"><ele>770.9999999999999</ele><time>2026-03-29T14:06:36.653Z</time></trkpt><trkpt lat="44.794185" lon="9.5466533"><ele>770.0</ele><time>2026-03-29T14:06:37.654Z</time></trkpt><trkpt lat="44.7941017" lon="9.5466567"><ele>769.0</ele><time>2026-03-29T14:06:38.654Z</time></trkpt><trkpt lat="44.794015" lon="9.546685"><ele>768.0</ele><time>2026-03-29T14:06:39.653Z</time></trkpt><trkpt lat="44.79393" lon="9.5467217"><ele>767.0</ele><time>2026-03-29T14:06:40.654Z</time></trkpt><trkpt lat="44.79385" lon="9.5467583"><ele>766.0</ele><time>2026-03-29T14:06:41.653Z</time></trkpt><trkpt lat="44.7937767" lon="9.546805"><ele>766.0</ele><time>2026-03-29T14:06:42.654Z</time></trkpt><trkpt lat="44.7937117" lon="9.5468683"><ele>766.0</ele><time>2026-03-29T14:06:43.654Z</time></trkpt><trkpt lat="44.79366" lon="9.5469583"><ele>766.0</ele><time>2026-03-29T14:06:44.653Z</time></trkpt><trkpt lat="44.7936217" lon="9.5470617"><ele>766.0</ele><time>2026-03-29T14:06:45.653Z</time></trkpt><trkpt lat="44.793575" lon="9.5471533"><ele>766.0</ele><time>2026-03-29T14:06:46.653Z</time></trkpt><trkpt lat="44.793515" lon="9.5472183"><ele>766.0</ele><time>2026-03-29T14:06:47.653Z</time></trkpt><trkpt lat="44.7934283" lon="9.5472733"><ele>767.0</ele><time>2026-03-29T14:06:48.652Z</time></trkpt><trkpt lat="44.793335" lon="9.5473333"><ele>768.0</ele><time>2026-03-29T14:06:49.653Z</time></trkpt><trkpt lat="44.79324" lon="9.5473967"><ele>769.0</ele><time>2026-03-29T14:06:50.654Z</time></trkpt><trkpt lat="44.7931467" lon="9.5474467"><ele>770.0</ele><time>2026-03-29T14:06:51.654Z</time></trkpt><trkpt lat="44.7930567" lon="9.5474733"><ele>771.0</ele><time>2026-03-29T14:06:52.654Z</time></trkpt><trkpt lat="44.7929683" lon="9.5474783"><ele>771.0</ele><time>2026-03-29T14:06:53.653Z</time></trkpt><trkpt lat="44.79288" lon="9.5474633"><ele>771.0</ele><time>2026-03-29T14:06:54.653Z</time></trkpt><trkpt lat="44.7927867" lon="9.5474283"><ele>771.0</ele><time>2026-03-29T14:06:55.654Z</time></trkpt><trkpt lat="44.7926867" lon="9.5473783"><ele>771.0</ele><time>2026-03-29T14:06:56.655Z</time></trkpt><trkpt lat="44.7925833" lon="9.547325"><ele>771.0</ele><time>2026-03-29T14:06:57.654Z</time></trkpt><trkpt lat="44.7924833" lon="9.5472717"><ele>770.0</ele><time>2026-03-29T14:06:58.652Z</time></trkpt><trkpt lat="44.7923967" lon="9.5472217"><ele>769.0</ele><time>2026-03-29T14:06:59.653Z</time></trkpt><trkpt lat="44.7923067" lon="9.5471717"><ele>768.0</ele><time>2026-03-29T14:07:00.653Z</time></trkpt><trkpt lat="44.7922183" lon="9.5471217"><ele>767.0</ele><time>2026-03-29T14:07:01.654Z</time></trkpt><trkpt lat="44.7921367" lon="9.5470733"><ele>766.0</ele><time>2026-03-29T14:07:02.654Z</time></trkpt><trkpt lat="44.7920583" lon="9.5470367"><ele>763.0</ele><time>2026-03-29T14:07:03.652Z</time></trkpt><trkpt lat="44.7919767" lon="9.547005"><ele>760.0</ele><time>2026-03-29T14:07:04.654Z</time></trkpt><trkpt lat="44.7918917" lon="9.5469917"><ele>757.0</ele><time>2026-03-29T14:07:05.654Z</time></trkpt><trkpt lat="44.7917933" lon="9.5469967"><ele>754.0</ele><time>2026-03-29T14:07:06.654Z</time></trkpt><trkpt lat="44.7916917" lon="9.54701"><ele>751.0</ele><time>2026-03-29T14:07:07.653Z</time></trkpt><trkpt lat="44.791595" lon="9.5470083"><ele>750.5999999999999</ele><time>2026-03-29T14:07:08.653Z</time></trkpt><trkpt lat="44.7914983" lon="9.5469833"><ele>750.2</ele><time>2026-03-29T14:07:09.653Z</time></trkpt><trkpt lat="44.7914117" lon="9.5469483"><ele>749.8</ele><time>2026-03-29T14:07:10.653Z</time></trkpt><trkpt lat="44.7913317" lon="9.5469233"><ele>749.4000000000001</ele><time>2026-03-29T14:07:11.653Z</time></trkpt><trkpt lat="44.79122" lon="9.54697"><ele>749.0</ele><time>2026-03-29T14:07:13.652Z</time></trkpt><trkpt lat="44.79122" lon="9.547145"><ele>747.8333333333333</ele><time>2026-03-29T14:07:15.653Z</time></trkpt><trkpt lat="44.7912383" lon="9.5472417"><ele>746.6666666666666</ele><time>2026-03-29T14:07:16.654Z</time></trkpt><trkpt lat="44.7912517" lon="9.547345"><ele>745.5</ele><time>2026-03-29T14:07:17.653Z</time></trkpt><trkpt lat="44.7912333" lon="9.54743"><ele>744.3333333333334</ele><time>2026-03-29T14:07:18.654Z</time></trkpt><trkpt lat="44.7911283" lon="9.547535"><ele>743.1666666666667</ele><time>2026-03-29T14:07:20.654Z</time></trkpt><trkpt lat="44.7910617" lon="9.5476033"><ele>742.0</ele><time>2026-03-29T14:07:21.654Z</time></trkpt><trkpt lat="44.7909983" lon="9.547705"><ele>742.0</ele><time>2026-03-29T14:07:22.654Z</time></trkpt><trkpt lat="44.7909333" lon="9.547825"><ele>742.0</ele><time>2026-03-29T14:07:23.653Z</time></trkpt><trkpt lat="44.790865" lon="9.5479283"><ele>742.0</ele><time>2026-03-29T14:07:24.653Z</time></trkpt><trkpt lat="44.7907983" lon="9.54801"><ele>742.0</ele><time>2026-03-29T14:07:25.653Z</time></trkpt><trkpt lat="44.7907333" lon="9.5480767"><ele>742.0</ele><time>2026-03-29T14:07:26.652Z</time></trkpt><trkpt lat="44.79067" lon="9.5481233"><ele>742.0</ele><time>2026-03-29T14:07:27.653Z</time></trkpt><trkpt lat="44.7905633" lon="9.5481583"><ele>742.0</ele><time>2026-03-29T14:07:29.654Z</time></trkpt><trkpt lat="44.7905" lon="9.548135"><ele>742.0</ele><time>2026-03-29T14:07:31.654Z</time></trkpt><trkpt lat="44.7905467" lon="9.5480633"><ele>742.0</ele><time>2026-03-29T14:08:11.654Z</time></trkpt><trkpt lat="44.7906417" lon="9.5480267"><ele>742.0</ele><time>2026-03-29T14:08:14.654Z</time></trkpt><trkpt lat="44.79073" lon="9.54788"><ele>742.0</ele><time>2026-03-29T14:08:16.654Z</time></trkpt><trkpt lat="44.7907617" lon="9.5477533"><ele>742.0</ele><time>2026-03-29T14:08:17.657Z</time></trkpt><trkpt lat="44.7907733" lon="9.5475967"><ele>742.0</ele><time>2026-03-29T14:08:18.654Z</time></trkpt><trkpt lat="44.7907867" lon="9.547435"><ele>742.0</ele><time>2026-03-29T14:08:19.654Z</time></trkpt><trkpt lat="44.7908117" lon="9.5472733"><ele>742.0</ele><time>2026-03-29T14:08:20.654Z</time></trkpt><trkpt lat="44.7908467" lon="9.5471183"><ele>740.25</ele><time>2026-03-29T14:08:21.654Z</time></trkpt><trkpt lat="44.790885" lon="9.5469717"><ele>738.5</ele><time>2026-03-29T14:08:22.652Z</time></trkpt><trkpt lat="44.7909167" lon="9.5468233"><ele>736.75</ele><time>2026-03-29T14:08:23.654Z</time></trkpt><trkpt lat="44.7909317" lon="9.546665"><ele>735.0</ele><time>2026-03-29T14:08:24.652Z</time></trkpt><trkpt lat="44.79094" lon="9.5464983"><ele>735.0</ele><time>2026-03-29T14:08:25.653Z</time></trkpt><trkpt lat="44.7909517" lon="9.5463417"><ele>735.0</ele><time>2026-03-29T14:08:26.654Z</time></trkpt><trkpt lat="44.7909733" lon="9.546195"><ele>735.0</ele><time>2026-03-29T14:08:27.653Z</time></trkpt><trkpt lat="44.7910017" lon="9.5460567"><ele>735.0</ele><time>2026-03-29T14:08:28.654Z</time></trkpt><trkpt lat="44.7910333" lon="9.5459133"><ele>735.0</ele><time>2026-03-29T14:08:29.653Z</time></trkpt><trkpt lat="44.791065" lon="9.5457683"><ele>734.4</ele><time>2026-03-29T14:08:30.654Z</time></trkpt><trkpt lat="44.7910933" lon="9.5456283"><ele>733.8</ele><time>2026-03-29T14:08:31.654Z</time></trkpt><trkpt lat="44.7911317" lon="9.545495"><ele>733.2</ele><time>2026-03-29T14:08:32.654Z</time></trkpt><trkpt lat="44.7911833" lon="9.545375"><ele>732.6</ele><time>2026-03-29T14:08:33.652Z</time></trkpt><trkpt lat="44.79125" lon="9.545285"><ele>732.0</ele><time>2026-03-29T14:08:34.657Z</time></trkpt><trkpt lat="44.7913167" lon="9.54523"><ele>732.0</ele><time>2026-03-29T14:08:35.653Z</time></trkpt><trkpt lat="44.7913867" lon="9.5452417"><ele>732.0</ele><time>2026-03-29T14:08:36.654Z</time></trkpt><trkpt lat="44.7914683" lon="9.5452833"><ele>732.0</ele><time>2026-03-29T14:08:37.654Z</time></trkpt><trkpt lat="44.79154" lon="9.5453733"><ele>732.0</ele><time>2026-03-29T14:08:38.654Z</time></trkpt><trkpt lat="44.79159" lon="9.5454967"><ele>732.0</ele><time>2026-03-29T14:08:39.653Z</time></trkpt><trkpt lat="44.7916483" lon="9.5455983"><ele>732.0</ele><time>2026-03-29T14:08:40.656Z</time></trkpt><trkpt lat="44.7917167" lon="9.545685"><ele>732.0</ele><time>2026-03-29T14:08:41.653Z</time></trkpt><trkpt lat="44.7918" lon="9.5457333"><ele>732.0</ele><time>2026-03-29T14:08:42.654Z</time></trkpt><trkpt lat="44.7918917" lon="9.54574"><ele>732.0</ele><time>2026-03-29T14:08:43.654Z</time></trkpt><trkpt lat="44.7919967" lon="9.54567"><ele>732.0</ele><time>2026-03-29T14:08:44.653Z</time></trkpt><trkpt lat="44.7921083" lon="9.545565"><ele>732.0</ele><time>2026-03-29T14:08:45.652Z</time></trkpt><trkpt lat="44.792215" lon="9.5454533"><ele>728.75</ele><time>2026-03-29T14:08:46.655Z</time></trkpt><trkpt lat="44.7923083" lon="9.5453433"><ele>725.5</ele><time>2026-03-29T14:08:47.654Z</time></trkpt><trkpt lat="44.7923817" lon="9.5452183"><ele>722.25</ele><time>2026-03-29T14:08:48.654Z</time></trkpt><trkpt lat="44.79244" lon="9.5450717"><ele>719.0</ele><time>2026-03-29T14:08:49.653Z</time></trkpt><trkpt lat="44.79249" lon="9.5449167"><ele>719.0</ele><time>2026-03-29T14:08:50.652Z</time></trkpt><trkpt lat="44.7925467" lon="9.5447667"><ele>719.0</ele><time>2026-03-29T14:08:51.653Z</time></trkpt><trkpt lat="44.792615" lon="9.544635"><ele>719.0</ele><time>2026-03-29T14:08:52.655Z</time></trkpt><trkpt lat="44.7927017" lon="9.5445183"><ele>719.0</ele><time>2026-03-29T14:08:53.652Z</time></trkpt><trkpt lat="44.7927883" lon="9.5444083"><ele>717.75</ele><time>2026-03-29T14:08:54.654Z</time></trkpt><trkpt lat="44.7928883" lon="9.54431"><ele>716.5</ele><time>2026-03-29T14:08:55.652Z</time></trkpt><trkpt lat="44.7929933" lon="9.54423"><ele>715.25</ele><time>2026-03-29T14:08:56.654Z</time></trkpt><trkpt lat="44.7930883" lon="9.54415"><ele>714.0</ele><time>2026-03-29T14:08:57.653Z</time></trkpt><trkpt lat="44.7931767" lon="9.5440717"><ele>714.0</ele><time>2026-03-29T14:08:58.654Z</time></trkpt><trkpt lat="44.7932567" lon="9.5440167"><ele>714.0</ele><time>2026-03-29T14:08:59.654Z</time></trkpt><trkpt lat="44.79334" lon="9.5439933"><ele>714.0</ele><time>2026-03-29T14:09:00.653Z</time></trkpt><trkpt lat="44.7934217" lon="9.5440133"><ele>714.0</ele><time>2026-03-29T14:09:01.652Z</time></trkpt><trkpt lat="44.793495" lon="9.5441117"><ele>714.0</ele><time>2026-03-29T14:09:02.655Z</time></trkpt><trkpt lat="44.7935833" lon="9.5442"><ele>713.0</ele><time>2026-03-29T14:09:03.653Z</time></trkpt><trkpt lat="44.79369" lon="9.5442667"><ele>712.0</ele><time>2026-03-29T14:09:04.654Z</time></trkpt><trkpt lat="44.7937983" lon="9.5443017"><ele>711.0</ele><time>2026-03-29T14:09:05.656Z</time></trkpt><trkpt lat="44.79391" lon="9.5443233"><ele>710.0</ele><time>2026-03-29T14:09:06.653Z</time></trkpt><trkpt lat="44.7940267" lon="9.54433"><ele>710.0</ele><time>2026-03-29T14:09:07.654Z</time></trkpt><trkpt lat="44.7941467" lon="9.5443133"><ele>710.0</ele><time>2026-03-29T14:09:08.654Z</time></trkpt><trkpt lat="44.7942633" lon="9.544275"><ele>710.0</ele><time>2026-03-29T14:09:09.654Z</time></trkpt><trkpt lat="44.7943733" lon="9.544215"><ele>710.0</ele><time>2026-03-29T14:09:10.654Z</time></trkpt><trkpt lat="44.7944683" lon="9.5441417"><ele>711.0</ele><time>2026-03-29T14:09:11.654Z</time></trkpt><trkpt lat="44.794535" lon="9.5440267"><ele>712.0</ele><time>2026-03-29T14:09:12.654Z</time></trkpt><trkpt lat="44.79458" lon="9.5438733"><ele>713.0</ele><time>2026-03-29T14:09:13.654Z</time></trkpt><trkpt lat="44.7946133" lon="9.5437017"><ele>714.0</ele><time>2026-03-29T14:09:14.653Z</time></trkpt><trkpt lat="44.79464" lon="9.5435283"><ele>714.0</ele><time>2026-03-29T14:09:15.653Z</time></trkpt><trkpt lat="44.79466" lon="9.5433667"><ele>714.0</ele><time>2026-03-29T14:09:16.654Z</time></trkpt><trkpt lat="44.7946783" lon="9.5432233"><ele>714.0</ele><time>2026-03-29T14:09:17.653Z</time></trkpt><trkpt lat="44.794715" lon="9.5431117"><ele>714.0</ele><time>2026-03-29T14:09:18.654Z</time></trkpt><trkpt lat="44.7947817" lon="9.54302"><ele>714.0</ele><time>2026-03-29T14:09:19.653Z</time></trkpt><trkpt lat="44.7948733" lon="9.5429233"><ele>713.5</ele><time>2026-03-29T14:09:20.654Z</time></trkpt><trkpt lat="44.7949733" lon="9.54281"><ele>713.0</ele><time>2026-03-29T14:09:21.654Z</time></trkpt><trkpt lat="44.79507" lon="9.5426783"><ele>712.5</ele><time>2026-03-29T14:09:22.653Z</time></trkpt><trkpt lat="44.7951583" lon="9.5425333"><ele>712.0</ele><time>2026-03-29T14:09:23.653Z</time></trkpt><trkpt lat="44.7952383" lon="9.542385"><ele>712.0</ele><time>2026-03-29T14:09:24.653Z</time></trkpt><trkpt lat="44.7953117" lon="9.5422483"><ele>712.0</ele><time>2026-03-29T14:09:25.654Z</time></trkpt><trkpt lat="44.7953833" lon="9.542125"><ele>712.0</ele><time>2026-03-29T14:09:26.654Z</time></trkpt><trkpt lat="44.795465" lon="9.5420333"><ele>712.0</ele><time>2026-03-29T14:09:27.654Z</time></trkpt><trkpt lat="44.7955583" lon="9.5419667"><ele>712.0</ele><time>2026-03-29T14:09:28.654Z</time></trkpt><trkpt lat="44.7956633" lon="9.5419367"><ele>708.75</ele><time>2026-03-29T14:09:29.654Z</time></trkpt><trkpt lat="44.7957733" lon="9.5419167"><ele>705.5</ele><time>2026-03-29T14:09:30.653Z</time></trkpt><trkpt lat="44.7958867" lon="9.541885"><ele>702.25</ele><time>2026-03-29T14:09:31.654Z</time></trkpt><trkpt lat="44.7959967" lon="9.5418217"><ele>699.0</ele><time>2026-03-29T14:09:32.656Z</time></trkpt><trkpt lat="44.7961083" lon="9.54172"><ele>699.0</ele><time>2026-03-29T14:09:33.656Z</time></trkpt><trkpt lat="44.7962167" lon="9.541595"><ele>699.0</ele><time>2026-03-29T14:09:34.654Z</time></trkpt><trkpt lat="44.7963167" lon="9.541465"><ele>699.0</ele><time>2026-03-29T14:09:35.654Z</time></trkpt><trkpt lat="44.7964033" lon="9.54133"><ele>699.0</ele><time>2026-03-29T14:09:36.655Z</time></trkpt><trkpt lat="44.79648" lon="9.54118"><ele>696.25</ele><time>2026-03-29T14:09:37.654Z</time></trkpt><trkpt lat="44.79655" lon="9.5410167"><ele>693.5</ele><time>2026-03-29T14:09:38.655Z</time></trkpt><trkpt lat="44.7966133" lon="9.540845"><ele>690.75</ele><time>2026-03-29T14:09:39.655Z</time></trkpt><trkpt lat="44.796675" lon="9.5406767"><ele>688.0</ele><time>2026-03-29T14:09:40.654Z</time></trkpt><trkpt lat="44.796735" lon="9.5405117"><ele>686.0</ele><time>2026-03-29T14:09:41.654Z</time></trkpt><trkpt lat="44.7967917" lon="9.5403617"><ele>684.0</ele><time>2026-03-29T14:09:42.655Z</time></trkpt><trkpt lat="44.7968467" lon="9.5402317"><ele>682.0</ele><time>2026-03-29T14:09:43.654Z</time></trkpt><trkpt lat="44.7969033" lon="9.54013"><ele>680.0</ele><time>2026-03-29T14:09:44.655Z</time></trkpt><trkpt lat="44.79697" lon="9.540045"><ele>678.0</ele><time>2026-03-29T14:09:45.654Z</time></trkpt><trkpt lat="44.7970633" lon="9.5400167"><ele>678.0</ele><time>2026-03-29T14:09:46.654Z</time></trkpt><trkpt lat="44.7971633" lon="9.54001"><ele>678.0</ele><time>2026-03-29T14:09:47.654Z</time></trkpt><trkpt lat="44.7972633" lon="9.5400117"><ele>678.0</ele><time>2026-03-29T14:09:48.653Z</time></trkpt><trkpt lat="44.7973467" lon="9.5400333"><ele>678.0</ele><time>2026-03-29T14:09:49.654Z</time></trkpt><trkpt lat="44.797415" lon="9.540085"><ele>678.0</ele><time>2026-03-29T14:09:50.654Z</time></trkpt><trkpt lat="44.7974483" lon="9.5401983"><ele>678.0</ele><time>2026-03-29T14:09:51.653Z</time></trkpt><trkpt lat="44.797455" lon="9.540345"><ele>678.8</ele><time>2026-03-29T14:09:52.654Z</time></trkpt><trkpt lat="44.79744" lon="9.54051"><ele>679.5999999999999</ele><time>2026-03-29T14:09:53.653Z</time></trkpt><trkpt lat="44.7974233" lon="9.5406567"><ele>680.4000000000001</ele><time>2026-03-29T14:09:54.654Z</time></trkpt><trkpt lat="44.7974317" lon="9.5407967"><ele>681.2</ele><time>2026-03-29T14:09:55.653Z</time></trkpt><trkpt lat="44.7974767" lon="9.5409183"><ele>682.0</ele><time>2026-03-29T14:09:56.654Z</time></trkpt><trkpt lat="44.7975533" lon="9.5410183"><ele>682.0</ele><time>2026-03-29T14:09:57.654Z</time></trkpt><trkpt lat="44.79765" lon="9.54109"><ele>682.0</ele><time>2026-03-29T14:09:58.654Z</time></trkpt><trkpt lat="44.7977567" lon="9.541125"><ele>682.0</ele><time>2026-03-29T14:09:59.654Z</time></trkpt><trkpt lat="44.7978717" lon="9.5411133"><ele>682.0</ele><time>2026-03-29T14:10:00.654Z</time></trkpt><trkpt lat="44.798" lon="9.54107"><ele>680.0</ele><time>2026-03-29T14:10:01.654Z</time></trkpt><trkpt lat="44.79815" lon="9.5410317"><ele>678.0</ele><time>2026-03-29T14:10:02.656Z</time></trkpt><trkpt lat="44.798315" lon="9.541015"><ele>676.0</ele><time>2026-03-29T14:10:03.653Z</time></trkpt><trkpt lat="44.798475" lon="9.5410167"><ele>675.5</ele><time>2026-03-29T14:10:04.654Z</time></trkpt><trkpt lat="44.7986233" lon="9.5410333"><ele>675.0</ele><time>2026-03-29T14:10:05.655Z</time></trkpt><trkpt lat="44.798765" lon="9.5410567"><ele>674.5</ele><time>2026-03-29T14:10:06.654Z</time></trkpt><trkpt lat="44.7989033" lon="9.5410667"><ele>674.0</ele><time>2026-03-29T14:10:07.656Z</time></trkpt><trkpt lat="44.7990333" lon="9.5410433"><ele>674.0</ele><time>2026-03-29T14:10:08.655Z</time></trkpt><trkpt lat="44.79915" lon="9.5409917"><ele>674.0</ele><time>2026-03-29T14:10:09.655Z</time></trkpt><trkpt lat="44.799255" lon="9.5409067"><ele>674.0</ele><time>2026-03-29T14:10:10.654Z</time></trkpt><trkpt lat="44.7993533" lon="9.54078"><ele>674.0</ele><time>2026-03-29T14:10:11.653Z</time></trkpt><trkpt lat="44.7994483" lon="9.54063"><ele>674.75</ele><time>2026-03-29T14:10:12.654Z</time></trkpt><trkpt lat="44.7995383" lon="9.5404883"><ele>675.5</ele><time>2026-03-29T14:10:13.655Z</time></trkpt><trkpt lat="44.799635" lon="9.5403783"><ele>676.25</ele><time>2026-03-29T14:10:14.654Z</time></trkpt><trkpt lat="44.7997333" lon="9.5403167"><ele>677.0</ele><time>2026-03-29T14:10:15.654Z</time></trkpt><trkpt lat="44.79983" lon="9.540305"><ele>677.0</ele><time>2026-03-29T14:10:16.654Z</time></trkpt><trkpt lat="44.799925" lon="9.5403417"><ele>677.0</ele><time>2026-03-29T14:10:17.654Z</time></trkpt><trkpt lat="44.80002" lon="9.540415"><ele>677.0</ele><time>2026-03-29T14:10:18.654Z</time></trkpt><trkpt lat="44.8001283" lon="9.5404833"><ele>677.0</ele><time>2026-03-29T14:10:19.653Z</time></trkpt><trkpt lat="44.8002483" lon="9.540515"><ele>677.0</ele><time>2026-03-29T14:10:20.653Z</time></trkpt><trkpt lat="44.8003733" lon="9.5405217"><ele>675.6</ele><time>2026-03-29T14:10:21.654Z</time></trkpt><trkpt lat="44.8004883" lon="9.540515"><ele>674.2</ele><time>2026-03-29T14:10:22.654Z</time></trkpt><trkpt lat="44.8005917" lon="9.5404867"><ele>672.8</ele><time>2026-03-29T14:10:23.653Z</time></trkpt><trkpt lat="44.800685" lon="9.5404283"><ele>671.4</ele><time>2026-03-29T14:10:24.654Z</time></trkpt><trkpt lat="44.8007733" lon="9.5403467"><ele>670.0</ele><time>2026-03-29T14:10:25.653Z</time></trkpt><trkpt lat="44.8008617" lon="9.54025"><ele>668.0</ele><time>2026-03-29T14:10:26.653Z</time></trkpt><trkpt lat="44.800945" lon="9.5401533"><ele>666.0</ele><time>2026-03-29T14:10:27.653Z</time></trkpt><trkpt lat="44.8010083" lon="9.5400433"><ele>664.0</ele><time>2026-03-29T14:10:28.657Z</time></trkpt><trkpt lat="44.8010483" lon="9.5399117"><ele>662.0</ele><time>2026-03-29T14:10:29.653Z</time></trkpt><trkpt lat="44.8010683" lon="9.5397533"><ele>660.0</ele><time>2026-03-29T14:10:30.654Z</time></trkpt><trkpt lat="44.8010783" lon="9.53957"><ele>658.0</ele><time>2026-03-29T14:10:31.654Z</time></trkpt><trkpt lat="44.8010767" lon="9.5393833"><ele>656.0</ele><time>2026-03-29T14:10:32.654Z</time></trkpt><trkpt lat="44.80106" lon="9.5391983"><ele>654.0</ele><time>2026-03-29T14:10:33.654Z</time></trkpt><trkpt lat="44.8010267" lon="9.5390267"><ele>652.0</ele><time>2026-03-29T14:10:34.654Z</time></trkpt><trkpt lat="44.8009917" lon="9.5388717"><ele>652.0</ele><time>2026-03-29T14:10:35.653Z</time></trkpt><trkpt lat="44.8009683" lon="9.5387283"><ele>652.0</ele><time>2026-03-29T14:10:36.654Z</time></trkpt><trkpt lat="44.80097" lon="9.5385883"><ele>652.0</ele><time>2026-03-29T14:10:37.655Z</time></trkpt><trkpt lat="44.8010033" lon="9.5384483"><ele>652.0</ele><time>2026-03-29T14:10:38.654Z</time></trkpt><trkpt lat="44.8010617" lon="9.538315"><ele>652.0</ele><time>2026-03-29T14:10:39.653Z</time></trkpt><trkpt lat="44.8011317" lon="9.5381917"><ele>650.2</ele><time>2026-03-29T14:10:40.654Z</time></trkpt><trkpt lat="44.8012067" lon="9.5380717"><ele>648.4000000000001</ele><time>2026-03-29T14:10:41.653Z</time></trkpt><trkpt lat="44.8012833" lon="9.5379633"><ele>646.5999999999999</ele><time>2026-03-29T14:10:42.653Z</time></trkpt><trkpt lat="44.8013617" lon="9.5378667"><ele>644.8</ele><time>2026-03-29T14:10:43.655Z</time></trkpt><trkpt lat="44.8014483" lon="9.537805"><ele>643.0</ele><time>2026-03-29T14:10:44.654Z</time></trkpt><trkpt lat="44.8015283" lon="9.5377617"><ele>641.1999999999999</ele><time>2026-03-29T14:10:45.654Z</time></trkpt><trkpt lat="44.8015967" lon="9.537715"><ele>639.4</ele><time>2026-03-29T14:10:46.654Z</time></trkpt><trkpt lat="44.801585" lon="9.5375817"><ele>637.5999999999999</ele><time>2026-03-29T14:10:48.654Z</time></trkpt><trkpt lat="44.801515" lon="9.5375367"><ele>635.8</ele><time>2026-03-29T14:10:49.654Z</time></trkpt><trkpt lat="44.8014167" lon="9.5375383"><ele>634.0</ele><time>2026-03-29T14:10:50.656Z</time></trkpt><trkpt lat="44.8013017" lon="9.5375917"><ele>634.0</ele><time>2026-03-29T14:10:51.655Z</time></trkpt><trkpt lat="44.8011817" lon="9.5376617"><ele>634.0</ele><time>2026-03-29T14:10:52.655Z</time></trkpt><trkpt lat="44.8010583" lon="9.5377067"><ele>634.0</ele><time>2026-03-29T14:10:53.654Z</time></trkpt><trkpt lat="44.80093" lon="9.5377283"><ele>634.0</ele><time>2026-03-29T14:10:54.654Z</time></trkpt><trkpt lat="44.8008133" lon="9.5377667"><ele>632.4</ele><time>2026-03-29T14:10:55.653Z</time></trkpt><trkpt lat="44.8007067" lon="9.5378333"><ele>630.8</ele><time>2026-03-29T14:10:56.654Z</time></trkpt><trkpt lat="44.800605" lon="9.5378917"><ele>629.2</ele><time>2026-03-29T14:10:57.654Z</time></trkpt><trkpt lat="44.80051" lon="9.537905"><ele>627.6</ele><time>2026-03-29T14:10:58.654Z</time></trkpt><trkpt lat="44.8004283" lon="9.53786"><ele>626.0</ele><time>2026-03-29T14:10:59.653Z</time></trkpt><trkpt lat="44.800355" lon="9.5377867"><ele>626.0</ele><time>2026-03-29T14:11:00.654Z</time></trkpt><trkpt lat="44.8002817" lon="9.5377283"><ele>626.0</ele><time>2026-03-29T14:11:01.653Z</time></trkpt><trkpt lat="44.8001983" lon="9.5377317"><ele>626.0</ele><time>2026-03-29T14:11:02.654Z</time></trkpt><trkpt lat="44.8001" lon="9.5377917"><ele>626.0</ele><time>2026-03-29T14:11:03.653Z</time></trkpt><trkpt lat="44.7999833" lon="9.5378933"><ele>626.0</ele><time>2026-03-29T14:11:04.654Z</time></trkpt><trkpt lat="44.7998517" lon="9.5379783"><ele>627.5</ele><time>2026-03-29T14:11:05.655Z</time></trkpt><trkpt lat="44.799725" lon="9.5380433"><ele>629.0</ele><time>2026-03-29T14:11:06.654Z</time></trkpt><trkpt lat="44.7996117" lon="9.5381217"><ele>630.5</ele><time>2026-03-29T14:11:07.654Z</time></trkpt><trkpt lat="44.7995117" lon="9.5382083"><ele>632.0</ele><time>2026-03-29T14:11:08.655Z</time></trkpt><trkpt lat="44.79942" lon="9.5382733"><ele>632.0</ele><time>2026-03-29T14:11:09.655Z</time></trkpt><trkpt lat="44.799335" lon="9.53828"><ele>632.0</ele><time>2026-03-29T14:11:10.654Z</time></trkpt><trkpt lat="44.799255" lon="9.5382383"><ele>632.0</ele><time>2026-03-29T14:11:11.655Z</time></trkpt><trkpt lat="44.7991817" lon="9.5381183"><ele>632.0</ele><time>2026-03-29T14:11:12.654Z</time></trkpt><trkpt lat="44.7991267" lon="9.5379533"><ele>632.0</ele><time>2026-03-29T14:11:13.654Z</time></trkpt><trkpt lat="44.79908" lon="9.5377917"><ele>628.8000000000001</ele><time>2026-03-29T14:11:14.654Z</time></trkpt><trkpt lat="44.7990333" lon="9.5376567"><ele>625.6</ele><time>2026-03-29T14:11:15.653Z</time></trkpt><trkpt lat="44.7989817" lon="9.5375517"><ele>622.4000000000001</ele><time>2026-03-29T14:11:16.654Z</time></trkpt><trkpt lat="44.7989167" lon="9.537475"><ele>619.2</ele><time>2026-03-29T14:11:17.654Z</time></trkpt><trkpt lat="44.7988433" lon="9.53743"><ele>616.0</ele><time>2026-03-29T14:11:18.654Z</time></trkpt><trkpt lat="44.7987467" lon="9.5374067"><ele>616.0</ele><time>2026-03-29T14:11:19.655Z</time></trkpt><trkpt lat="44.7986483" lon="9.5373467"><ele>616.0</ele><time>2026-03-29T14:11:20.654Z</time></trkpt><trkpt lat="44.7985617" lon="9.5372433"><ele>616.0</ele><time>2026-03-29T14:11:21.654Z</time></trkpt><trkpt lat="44.7985033" lon="9.5371117"><ele>616.0</ele><time>2026-03-29T14:11:22.653Z</time></trkpt><trkpt lat="44.7984883" lon="9.5369567"><ele>616.0</ele><time>2026-03-29T14:11:23.654Z</time></trkpt><trkpt lat="44.7985067" lon="9.5367883"><ele>613.6</ele><time>2026-03-29T14:11:24.654Z</time></trkpt><trkpt lat="44.7985483" lon="9.536625"><ele>611.2</ele><time>2026-03-29T14:11:25.652Z</time></trkpt><trkpt lat="44.7985933" lon="9.5364833"><ele>608.8</ele><time>2026-03-29T14:11:26.654Z</time></trkpt><trkpt lat="44.7986117" lon="9.5363533"><ele>606.4</ele><time>2026-03-29T14:11:27.653Z</time></trkpt><trkpt lat="44.7986" lon="9.5362317"><ele>604.0</ele><time>2026-03-29T14:11:28.654Z</time></trkpt><trkpt lat="44.79854" lon="9.5361033"><ele>605.5</ele><time>2026-03-29T14:11:29.658Z</time></trkpt><trkpt lat="44.7984683" lon="9.5359533"><ele>607.0</ele><time>2026-03-29T14:11:30.654Z</time></trkpt><trkpt lat="44.7984067" lon="9.5357817"><ele>608.5</ele><time>2026-03-29T14:11:31.654Z</time></trkpt><trkpt lat="44.7983667" lon="9.5356"><ele>610.0</ele><time>2026-03-29T14:11:32.654Z</time></trkpt><trkpt lat="44.7983383" lon="9.5354317"><ele>607.8</ele><time>2026-03-29T14:11:33.653Z</time></trkpt><trkpt lat="44.7982967" lon="9.5352967"><ele>605.6</ele><time>2026-03-29T14:11:34.654Z</time></trkpt><trkpt lat="44.798235" lon="9.5351983"><ele>603.4</ele><time>2026-03-29T14:11:35.654Z</time></trkpt><trkpt lat="44.7981683" lon="9.5351267"><ele>601.2</ele><time>2026-03-29T14:11:36.654Z</time></trkpt><trkpt lat="44.79808" lon="9.5351083"><ele>599.0</ele><time>2026-03-29T14:11:37.652Z</time></trkpt><trkpt lat="44.7979583" lon="9.5351883"><ele>599.0</ele><time>2026-03-29T14:11:38.655Z</time></trkpt><trkpt lat="44.7978317" lon="9.5352983"><ele>599.0</ele><time>2026-03-29T14:11:39.656Z</time></trkpt><trkpt lat="44.79771" lon="9.53541"><ele>599.0</ele><time>2026-03-29T14:11:40.653Z</time></trkpt><trkpt lat="44.7976167" lon="9.5355083"><ele>599.0</ele><time>2026-03-29T14:11:41.653Z</time></trkpt><trkpt lat="44.7975617" lon="9.5356317"><ele>599.25</ele><time>2026-03-29T14:11:42.654Z</time></trkpt><trkpt lat="44.79753" lon="9.535795"><ele>599.5</ele><time>2026-03-29T14:11:43.656Z</time></trkpt><trkpt lat="44.797515" lon="9.53598"><ele>599.75</ele><time>2026-03-29T14:11:44.654Z</time></trkpt><trkpt lat="44.797495" lon="9.5361683"><ele>600.0</ele><time>2026-03-29T14:11:45.653Z</time></trkpt><trkpt lat="44.7974617" lon="9.53634"><ele>601.75</ele><time>2026-03-29T14:11:46.655Z</time></trkpt><trkpt lat="44.797405" lon="9.5364917"><ele>603.5</ele><time>2026-03-29T14:11:47.654Z</time></trkpt><trkpt lat="44.7973233" lon="9.53662"><ele>605.25</ele><time>2026-03-29T14:11:48.654Z</time></trkpt><trkpt lat="44.7972133" lon="9.5367317"><ele>607.0</ele><time>2026-03-29T14:11:49.654Z</time></trkpt><trkpt lat="44.7970933" lon="9.5368333"><ele>607.0</ele><time>2026-03-29T14:11:50.654Z</time></trkpt><trkpt lat="44.7969783" lon="9.536925"><ele>607.0</ele><time>2026-03-29T14:11:51.654Z</time></trkpt><trkpt lat="44.7968567" lon="9.536995"><ele>607.0</ele><time>2026-03-29T14:11:52.654Z</time></trkpt><trkpt lat="44.7967283" lon="9.5370417"><ele>607.0</ele><time>2026-03-29T14:11:53.655Z</time></trkpt><trkpt lat="44.796605" lon="9.5370617"><ele>609.25</ele><time>2026-03-29T14:11:54.654Z</time></trkpt><trkpt lat="44.796485" lon="9.537055"><ele>611.5</ele><time>2026-03-29T14:11:55.652Z</time></trkpt><trkpt lat="44.7963683" lon="9.5370117"><ele>613.75</ele><time>2026-03-29T14:11:56.654Z</time></trkpt><trkpt lat="44.79625" lon="9.536975"><ele>616.0</ele><time>2026-03-29T14:11:57.653Z</time></trkpt><trkpt lat="44.7961367" lon="9.536975"><ele>611.2</ele><time>2026-03-29T14:11:58.654Z</time></trkpt><trkpt lat="44.79602" lon="9.5370083"><ele>606.4000000000001</ele><time>2026-03-29T14:11:59.654Z</time></trkpt><trkpt lat="44.7959033" lon="9.53703"><ele>601.6</ele><time>2026-03-29T14:12:00.654Z</time></trkpt><trkpt lat="44.7957983" lon="9.53701"><ele>596.8000000000001</ele><time>2026-03-29T14:12:01.654Z</time></trkpt><trkpt lat="44.79571" lon="9.536945"><ele>592.0</ele><time>2026-03-29T14:12:02.654Z</time></trkpt><trkpt lat="44.7956433" lon="9.53684"><ele>591.6</ele><time>2026-03-29T14:12:03.654Z</time></trkpt><trkpt lat="44.795595" lon="9.536715"><ele>591.2</ele><time>2026-03-29T14:12:04.653Z</time></trkpt><trkpt lat="44.795535" lon="9.53659"><ele>590.8</ele><time>2026-03-29T14:12:05.654Z</time></trkpt><trkpt lat="44.79547" lon="9.5364783"><ele>590.4</ele><time>2026-03-29T14:12:06.654Z</time></trkpt><trkpt lat="44.7954" lon="9.536395"><ele>590.0</ele><time>2026-03-29T14:12:07.655Z</time></trkpt><trkpt lat="44.7953217" lon="9.5363583"><ele>590.0</ele><time>2026-03-29T14:12:08.654Z</time></trkpt><trkpt lat="44.7952467" lon="9.5363617"><ele>590.0</ele><time>2026-03-29T14:12:09.653Z</time></trkpt><trkpt lat="44.7951717" lon="9.5364233"><ele>590.0</ele><time>2026-03-29T14:12:10.653Z</time></trkpt><trkpt lat="44.7950917" lon="9.53653"><ele>590.0</ele><time>2026-03-29T14:12:11.653Z</time></trkpt><trkpt lat="44.7950017" lon="9.5366383"><ele>590.0</ele><time>2026-03-29T14:12:12.654Z</time></trkpt><trkpt lat="44.794895" lon="9.5367483"><ele>589.5</ele><time>2026-03-29T14:12:13.652Z</time></trkpt><trkpt lat="44.7948017" lon="9.53686"><ele>589.0</ele><time>2026-03-29T14:12:14.655Z</time></trkpt><trkpt lat="44.7947267" lon="9.5369983"><ele>588.5</ele><time>2026-03-29T14:12:15.654Z</time></trkpt><trkpt lat="44.79467" lon="9.537145"><ele>588.0</ele><time>2026-03-29T14:12:16.654Z</time></trkpt><trkpt lat="44.7946167" lon="9.5372833"><ele>588.0</ele><time>2026-03-29T14:12:17.654Z</time></trkpt><trkpt lat="44.7945433" lon="9.537395"><ele>588.0</ele><time>2026-03-29T14:12:18.654Z</time></trkpt><trkpt lat="44.7944417" lon="9.5374783"><ele>588.0</ele><time>2026-03-29T14:12:19.653Z</time></trkpt><trkpt lat="44.7943233" lon="9.537545"><ele>588.0</ele><time>2026-03-29T14:12:20.654Z</time></trkpt><trkpt lat="44.7941917" lon="9.5375883"><ele>588.0</ele><time>2026-03-29T14:12:21.654Z</time></trkpt><trkpt lat="44.794065" lon="9.5376083"><ele>588.0</ele><time>2026-03-29T14:12:22.654Z</time></trkpt><trkpt lat="44.7939383" lon="9.5376"><ele>588.0</ele><time>2026-03-29T14:12:23.654Z</time></trkpt><trkpt lat="44.7938183" lon="9.5375667"><ele>588.0</ele><time>2026-03-29T14:12:24.654Z</time></trkpt><trkpt lat="44.7937" lon="9.53751"><ele>588.0</ele><time>2026-03-29T14:12:25.654Z</time></trkpt><trkpt lat="44.79358" lon="9.5374283"><ele>588.0</ele><time>2026-03-29T14:12:26.654Z</time></trkpt><trkpt lat="44.79346" lon="9.5373267"><ele>588.0</ele><time>2026-03-29T14:12:27.654Z</time></trkpt><trkpt lat="44.793345" lon="9.5372167"><ele>588.0</ele><time>2026-03-29T14:12:28.654Z</time></trkpt><trkpt lat="44.7932383" lon="9.5371133"><ele>587.8</ele><time>2026-03-29T14:12:29.654Z</time></trkpt><trkpt lat="44.7931367" lon="9.5370333"><ele>587.5999999999999</ele><time>2026-03-29T14:12:30.654Z</time></trkpt><trkpt lat="44.7930333" lon="9.5370033"><ele>587.4000000000001</ele><time>2026-03-29T14:12:31.654Z</time></trkpt><trkpt lat="44.7929283" lon="9.5370183"><ele>587.2</ele><time>2026-03-29T14:12:32.653Z</time></trkpt><trkpt lat="44.7928217" lon="9.5370583"><ele>587.0</ele><time>2026-03-29T14:12:33.654Z</time></trkpt><trkpt lat="44.792715" lon="9.5370733"><ele>583.0</ele><time>2026-03-29T14:12:34.653Z</time></trkpt><trkpt lat="44.79261" lon="9.5370417"><ele>579.0</ele><time>2026-03-29T14:12:35.654Z</time></trkpt><trkpt lat="44.7925067" lon="9.53701"><ele>575.0</ele><time>2026-03-29T14:12:36.653Z</time></trkpt><trkpt lat="44.7923983" lon="9.5370117"><ele>571.0</ele><time>2026-03-29T14:12:37.654Z</time></trkpt><trkpt lat="44.7922833" lon="9.5370333"><ele>567.0</ele><time>2026-03-29T14:12:38.655Z</time></trkpt><trkpt lat="44.7921667" lon="9.5370333"><ele>567.0</ele><time>2026-03-29T14:12:39.653Z</time></trkpt><trkpt lat="44.79205" lon="9.5369933"><ele>567.0</ele><time>2026-03-29T14:12:40.654Z</time></trkpt><trkpt lat="44.7919383" lon="9.536915"><ele>567.0</ele><time>2026-03-29T14:12:41.653Z</time></trkpt><trkpt lat="44.7918367" lon="9.5368267"><ele>567.0</ele><time>2026-03-29T14:12:42.654Z</time></trkpt><trkpt lat="44.7917467" lon="9.5367467"><ele>565.75</ele><time>2026-03-29T14:12:43.652Z</time></trkpt><trkpt lat="44.79165" lon="9.5367067"><ele>564.5</ele><time>2026-03-29T14:12:44.652Z</time></trkpt><trkpt lat="44.79154" lon="9.5367067"><ele>563.25</ele><time>2026-03-29T14:12:45.653Z</time></trkpt><trkpt lat="44.7914167" lon="9.53675"><ele>562.0</ele><time>2026-03-29T14:12:46.653Z</time></trkpt><trkpt lat="44.79129" lon="9.5367983"><ele>562.0</ele><time>2026-03-29T14:12:47.655Z</time></trkpt><trkpt lat="44.7911633" lon="9.5368383"><ele>562.0</ele><time>2026-03-29T14:12:48.654Z</time></trkpt><trkpt lat="44.7910433" lon="9.5368467"><ele>562.0</ele><time>2026-03-29T14:12:49.655Z</time></trkpt><trkpt lat="44.7909317" lon="9.5368083"><ele>562.0</ele><time>2026-03-29T14:12:50.655Z</time></trkpt><trkpt lat="44.7908317" lon="9.536725"><ele>561.0</ele><time>2026-03-29T14:12:51.655Z</time></trkpt><trkpt lat="44.7907367" lon="9.5366167"><ele>560.0</ele><time>2026-03-29T14:12:52.655Z</time></trkpt><trkpt lat="44.7906433" lon="9.5365033"><ele>559.0</ele><time>2026-03-29T14:12:53.655Z</time></trkpt><trkpt lat="44.7905533" lon="9.536405"><ele>558.0</ele><time>2026-03-29T14:12:54.654Z</time></trkpt><trkpt lat="44.7904683" lon="9.53633"><ele>558.0</ele><time>2026-03-29T14:12:55.654Z</time></trkpt><trkpt lat="44.7903917" lon="9.5362867"><ele>558.0</ele><time>2026-03-29T14:12:56.654Z</time></trkpt><trkpt lat="44.79031" lon="9.5362783"><ele>558.0</ele><time>2026-03-29T14:12:57.654Z</time></trkpt><trkpt lat="44.790245" lon="9.5363233"><ele>558.0</ele><time>2026-03-29T14:12:58.654Z</time></trkpt><trkpt lat="44.7902117" lon="9.5364933"><ele>558.0</ele><time>2026-03-29T14:12:59.654Z</time></trkpt><trkpt lat="44.79018" lon="9.5366583"><ele>558.1999999999999</ele><time>2026-03-29T14:13:00.654Z</time></trkpt><trkpt lat="44.7901467" lon="9.5368217"><ele>558.4</ele><time>2026-03-29T14:13:01.653Z</time></trkpt><trkpt lat="44.7900983" lon="9.5369617"><ele>558.5999999999999</ele><time>2026-03-29T14:13:02.654Z</time></trkpt><trkpt lat="44.79003" lon="9.5370683"><ele>558.8</ele><time>2026-03-29T14:13:03.654Z</time></trkpt><trkpt lat="44.7899433" lon="9.5371283"><ele>559.0</ele><time>2026-03-29T14:13:04.654Z</time></trkpt><trkpt lat="44.789835" lon="9.5371467"><ele>559.0</ele><time>2026-03-29T14:13:05.653Z</time></trkpt><trkpt lat="44.789705" lon="9.537135"><ele>559.0</ele><time>2026-03-29T14:13:06.653Z</time></trkpt><trkpt lat="44.7895683" lon="9.5371167"><ele>559.0</ele><time>2026-03-29T14:13:07.653Z</time></trkpt><trkpt lat="44.789435" lon="9.537095"><ele>559.0</ele><time>2026-03-29T14:13:08.654Z</time></trkpt><trkpt lat="44.7893017" lon="9.5370683"><ele>554.75</ele><time>2026-03-29T14:13:09.654Z</time></trkpt><trkpt lat="44.7891767" lon="9.5370183"><ele>550.5</ele><time>2026-03-29T14:13:10.654Z</time></trkpt><trkpt lat="44.789065" lon="9.5369367"><ele>546.25</ele><time>2026-03-29T14:13:11.654Z</time></trkpt><trkpt lat="44.7889717" lon="9.5368367"><ele>542.0</ele><time>2026-03-29T14:13:12.656Z</time></trkpt><trkpt lat="44.7888883" lon="9.5367433"><ele>542.0</ele><time>2026-03-29T14:13:13.655Z</time></trkpt><trkpt lat="44.7887967" lon="9.536695"><ele>542.0</ele><time>2026-03-29T14:13:14.655Z</time></trkpt><trkpt lat="44.7887" lon="9.5367083"><ele>542.0</ele><time>2026-03-29T14:13:15.656Z</time></trkpt><trkpt lat="44.7885983" lon="9.5367667"><ele>542.0</ele><time>2026-03-29T14:13:16.653Z</time></trkpt><trkpt lat="44.7884967" lon="9.5367967"><ele>542.0</ele><time>2026-03-29T14:13:17.654Z</time></trkpt><trkpt lat="44.7884" lon="9.5367567"><ele>543.0</ele><time>2026-03-29T14:13:18.654Z</time></trkpt><trkpt lat="44.7883217" lon="9.5366533"><ele>544.0</ele><time>2026-03-29T14:13:19.654Z</time></trkpt><trkpt lat="44.7882517" lon="9.53652"><ele>545.0</ele><time>2026-03-29T14:13:20.654Z</time></trkpt><trkpt lat="44.7881867" lon="9.53638"><ele>546.0</ele><time>2026-03-29T14:13:21.654Z</time></trkpt><trkpt lat="44.7881267" lon="9.5362533"><ele>543.4</ele><time>2026-03-29T14:13:22.653Z</time></trkpt><trkpt lat="44.788055" lon="9.5361467"><ele>540.8</ele><time>2026-03-29T14:13:23.654Z</time></trkpt><trkpt lat="44.78798" lon="9.5360733"><ele>538.1999999999999</ele><time>2026-03-29T14:13:24.654Z</time></trkpt><trkpt lat="44.787885" lon="9.5360667"><ele>535.6</ele><time>2026-03-29T14:13:25.654Z</time></trkpt><trkpt lat="44.787775" lon="9.5361"><ele>533.0</ele><time>2026-03-29T14:13:26.655Z</time></trkpt><trkpt lat="44.7876567" lon="9.5361717"><ele>535.75</ele><time>2026-03-29T14:13:27.653Z</time></trkpt><trkpt lat="44.78754" lon="9.53626"><ele>538.5</ele><time>2026-03-29T14:13:28.655Z</time></trkpt><trkpt lat="44.7874317" lon="9.5363583"><ele>541.25</ele><time>2026-03-29T14:13:29.654Z</time></trkpt><trkpt lat="44.7873283" lon="9.53646"><ele>544.0</ele><time>2026-03-29T14:13:30.653Z</time></trkpt><trkpt lat="44.7872317" lon="9.5365567"><ele>544.0</ele><time>2026-03-29T14:13:31.654Z</time></trkpt><trkpt lat="44.7871317" lon="9.536635"><ele>544.0</ele><time>2026-03-29T14:13:32.655Z</time></trkpt><trkpt lat="44.7870283" lon="9.5366783"><ele>544.0</ele><time>2026-03-29T14:13:33.654Z</time></trkpt><trkpt lat="44.786915" lon="9.5366833"><ele>544.0</ele><time>2026-03-29T14:13:34.653Z</time></trkpt><trkpt lat="44.7867967" lon="9.5366567"><ele>543.4</ele><time>2026-03-29T14:13:35.654Z</time></trkpt><trkpt lat="44.78669" lon="9.5365983"><ele>542.8</ele><time>2026-03-29T14:13:36.653Z</time></trkpt><trkpt lat="44.786595" lon="9.53651"><ele>542.2</ele><time>2026-03-29T14:13:37.654Z</time></trkpt><trkpt lat="44.7865233" lon="9.53639"><ele>541.6</ele><time>2026-03-29T14:13:38.655Z</time></trkpt><trkpt lat="44.7864833" lon="9.536255"><ele>541.0</ele><time>2026-03-29T14:13:39.654Z</time></trkpt><trkpt lat="44.78645" lon="9.5361183"><ele>539.0</ele><time>2026-03-29T14:13:40.654Z</time></trkpt><trkpt lat="44.7863983" lon="9.536"><ele>537.0</ele><time>2026-03-29T14:13:41.653Z</time></trkpt><trkpt lat="44.7863167" lon="9.5359033"><ele>535.0</ele><time>2026-03-29T14:13:42.653Z</time></trkpt><trkpt lat="44.7862017" lon="9.5358367"><ele>533.0</ele><time>2026-03-29T14:13:43.756Z</time></trkpt><trkpt lat="44.7859467" lon="9.5358283"><ele>533.0</ele><time>2026-03-29T14:13:45.654Z</time></trkpt><trkpt lat="44.7858333" lon="9.53583"><ele>533.0</ele><time>2026-03-29T14:13:46.653Z</time></trkpt><trkpt lat="44.785735" lon="9.5357817"><ele>533.0</ele><time>2026-03-29T14:13:47.652Z</time></trkpt><trkpt lat="44.7856567" lon="9.535675"><ele>533.0</ele><time>2026-03-29T14:13:48.653Z</time></trkpt><trkpt lat="44.7856067" lon="9.53552"><ele>533.0</ele><time>2026-03-29T14:13:49.654Z</time></trkpt><trkpt lat="44.7855717" lon="9.5353183"><ele>529.6666666666666</ele><time>2026-03-29T14:13:50.654Z</time></trkpt><trkpt lat="44.7855383" lon="9.5350783"><ele>526.3333333333334</ele><time>2026-03-29T14:13:51.653Z</time></trkpt><trkpt lat="44.7855" lon="9.5348283"><ele>523.0</ele><time>2026-03-29T14:13:52.654Z</time></trkpt><trkpt lat="44.7854583" lon="9.5345917"><ele>521.5</ele><time>2026-03-29T14:13:53.653Z</time></trkpt><trkpt lat="44.7854183" lon="9.5343817"><ele>520.0</ele><time>2026-03-29T14:13:54.653Z</time></trkpt><trkpt lat="44.78537" lon="9.5342083"><ele>518.5</ele><time>2026-03-29T14:13:55.654Z</time></trkpt><trkpt lat="44.78531" lon="9.5340683"><ele>517.0</ele><time>2026-03-29T14:13:56.655Z</time></trkpt><trkpt lat="44.78523" lon="9.5339717"><ele>519.0</ele><time>2026-03-29T14:13:57.654Z</time></trkpt><trkpt lat="44.78513" lon="9.5339183"><ele>521.0</ele><time>2026-03-29T14:13:58.654Z</time></trkpt><trkpt lat="44.785" lon="9.5339083"><ele>523.0</ele><time>2026-03-29T14:13:59.655Z</time></trkpt><trkpt lat="44.7848417" lon="9.533925"><ele>525.0</ele><time>2026-03-29T14:14:00.654Z</time></trkpt><trkpt lat="44.78467" lon="9.53394"><ele>525.0</ele><time>2026-03-29T14:14:01.654Z</time></trkpt><trkpt lat="44.784495" lon="9.533935"><ele>525.0</ele><time>2026-03-29T14:14:02.654Z</time></trkpt><trkpt lat="44.784325" lon="9.5339017"><ele>525.0</ele><time>2026-03-29T14:14:03.654Z</time></trkpt><trkpt lat="44.7841633" lon="9.5338333"><ele>520.6666666666666</ele><time>2026-03-29T14:14:04.654Z</time></trkpt><trkpt lat="44.7839967" lon="9.53372"><ele>516.3333333333333</ele><time>2026-03-29T14:14:05.655Z</time></trkpt><trkpt lat="44.7838217" lon="9.533595"><ele>512.0</ele><time>2026-03-29T14:14:06.654Z</time></trkpt><trkpt lat="44.7836533" lon="9.5334783"><ele>513.6666666666666</ele><time>2026-03-29T14:14:07.654Z</time></trkpt><trkpt lat="44.7834917" lon="9.5333783"><ele>515.3333333333334</ele><time>2026-03-29T14:14:08.654Z</time></trkpt><trkpt lat="44.7833517" lon="9.533295"><ele>517.0</ele><time>2026-03-29T14:14:09.654Z</time></trkpt><trkpt lat="44.7832333" lon="9.53323"><ele>517.0</ele><time>2026-03-29T14:14:10.653Z</time></trkpt><trkpt lat="44.7831417" lon="9.533165"><ele>517.0</ele><time>2026-03-29T14:14:11.657Z</time></trkpt><trkpt lat="44.783085" lon="9.5330867"><ele>517.0</ele><time>2026-03-29T14:14:12.654Z</time></trkpt><trkpt lat="44.78305" lon="9.53299"><ele>517.0</ele><time>2026-03-29T14:14:13.654Z</time></trkpt><trkpt lat="44.7830717" lon="9.5328833"><ele>517.0</ele><time>2026-03-29T14:14:14.656Z</time></trkpt><trkpt lat="44.78313" lon="9.5327917"><ele>517.0</ele><time>2026-03-29T14:14:15.655Z</time></trkpt><trkpt lat="44.7832017" lon="9.5327017"><ele>516.2</ele><time>2026-03-29T14:14:16.654Z</time></trkpt><trkpt lat="44.78327" lon="9.5326"><ele>515.4000000000001</ele><time>2026-03-29T14:14:17.655Z</time></trkpt><trkpt lat="44.7833167" lon="9.5324783"><ele>514.5999999999999</ele><time>2026-03-29T14:14:18.655Z</time></trkpt><trkpt lat="44.7833317" lon="9.5323533"><ele>513.8</ele><time>2026-03-29T14:14:19.652Z</time></trkpt><trkpt lat="44.783325" lon="9.5322283"><ele>513.0</ele><time>2026-03-29T14:14:20.655Z</time></trkpt><trkpt lat="44.7832883" lon="9.5321067"><ele>511.25</ele><time>2026-03-29T14:14:21.654Z</time></trkpt><trkpt lat="44.783225" lon="9.5319917"><ele>509.5</ele><time>2026-03-29T14:14:22.654Z</time></trkpt><trkpt lat="44.783135" lon="9.5318767"><ele>507.75</ele><time>2026-03-29T14:14:23.653Z</time></trkpt><trkpt lat="44.7830283" lon="9.53175"><ele>506.0</ele><time>2026-03-29T14:14:24.654Z</time></trkpt><trkpt lat="44.7829217" lon="9.531615"><ele>506.0</ele><time>2026-03-29T14:14:25.653Z</time></trkpt><trkpt lat="44.78283" lon="9.5314833"><ele>506.0</ele><time>2026-03-29T14:14:26.654Z</time></trkpt><trkpt lat="44.7827433" lon="9.531375"><ele>506.0</ele><time>2026-03-29T14:14:27.654Z</time></trkpt><trkpt lat="44.782655" lon="9.5313117"><ele>506.0</ele><time>2026-03-29T14:14:28.655Z</time></trkpt><trkpt lat="44.78255" lon="9.5312967"><ele>506.0</ele><time>2026-03-29T14:14:29.654Z</time></trkpt><trkpt lat="44.782425" lon="9.5313233"><ele>506.0</ele><time>2026-03-29T14:14:30.653Z</time></trkpt><trkpt lat="44.782285" lon="9.5313683"><ele>506.0</ele><time>2026-03-29T14:14:31.654Z</time></trkpt><trkpt lat="44.78215" lon="9.5314183"><ele>506.0</ele><time>2026-03-29T14:14:32.655Z</time></trkpt><trkpt lat="44.7820283" lon="9.53145"><ele>506.0</ele><time>2026-03-29T14:14:33.654Z</time></trkpt><trkpt lat="44.7819233" lon="9.5314533"><ele>506.0</ele><time>2026-03-29T14:14:34.654Z</time></trkpt><trkpt lat="44.78183" lon="9.531415"><ele>506.0</ele><time>2026-03-29T14:14:35.654Z</time></trkpt><trkpt lat="44.7817483" lon="9.5313283"><ele>506.0</ele><time>2026-03-29T14:14:36.654Z</time></trkpt><trkpt lat="44.781675" lon="9.5312133"><ele>506.0</ele><time>2026-03-29T14:14:37.654Z</time></trkpt><trkpt lat="44.78161" lon="9.5310917"><ele>503.75</ele><time>2026-03-29T14:14:38.653Z</time></trkpt><trkpt lat="44.7815633" lon="9.53096"><ele>501.5</ele><time>2026-03-29T14:14:39.654Z</time></trkpt><trkpt lat="44.7815417" lon="9.53081"><ele>499.25</ele><time>2026-03-29T14:14:40.654Z</time></trkpt><trkpt lat="44.78154" lon="9.53064"><ele>497.0</ele><time>2026-03-29T14:14:41.654Z</time></trkpt><trkpt lat="44.7815483" lon="9.5304633"><ele>497.0</ele><time>2026-03-29T14:14:42.654Z</time></trkpt><trkpt lat="44.7815633" lon="9.5302883"><ele>497.0</ele><time>2026-03-29T14:14:43.654Z</time></trkpt><trkpt lat="44.7816" lon="9.5301233"><ele>497.0</ele><time>2026-03-29T14:14:44.655Z</time></trkpt><trkpt lat="44.78166" lon="9.5299583"><ele>497.0</ele><time>2026-03-29T14:14:45.653Z</time></trkpt><trkpt lat="44.7817333" lon="9.5297833"><ele>497.0</ele><time>2026-03-29T14:14:46.654Z</time></trkpt><trkpt lat="44.781805" lon="9.5296067"><ele>497.0</ele><time>2026-03-29T14:14:47.654Z</time></trkpt><trkpt lat="44.7818783" lon="9.5294433"><ele>497.0</ele><time>2026-03-29T14:14:48.653Z</time></trkpt><trkpt lat="44.7819583" lon="9.5293017"><ele>497.0</ele><time>2026-03-29T14:14:49.654Z</time></trkpt><trkpt lat="44.7820383" lon="9.529185"><ele>493.75</ele><time>2026-03-29T14:14:50.654Z</time></trkpt><trkpt lat="44.7820933" lon="9.5290733"><ele>490.5</ele><time>2026-03-29T14:14:51.654Z</time></trkpt><trkpt lat="44.7821117" lon="9.52893"><ele>487.25</ele><time>2026-03-29T14:14:52.654Z</time></trkpt><trkpt lat="44.78211" lon="9.5287417"><ele>484.0</ele><time>2026-03-29T14:14:53.654Z</time></trkpt><trkpt lat="44.7821117" lon="9.5285383"><ele>484.0</ele><time>2026-03-29T14:14:54.652Z</time></trkpt><trkpt lat="44.782125" lon="9.5283467"><ele>484.0</ele><time>2026-03-29T14:14:55.654Z</time></trkpt><trkpt lat="44.78215" lon="9.5281683"><ele>484.0</ele><time>2026-03-29T14:14:56.654Z</time></trkpt><trkpt lat="44.7821933" lon="9.5280067"><ele>484.0</ele><time>2026-03-29T14:14:57.654Z</time></trkpt><trkpt lat="44.7822583" lon="9.5278767"><ele>485.2</ele><time>2026-03-29T14:14:58.654Z</time></trkpt><trkpt lat="44.7823467" lon="9.5278017"><ele>486.4</ele><time>2026-03-29T14:14:59.654Z</time></trkpt><trkpt lat="44.7824383" lon="9.52775"><ele>487.6</ele><time>2026-03-29T14:15:00.653Z</time></trkpt><trkpt lat="44.78252" lon="9.52769"><ele>488.8</ele><time>2026-03-29T14:15:01.655Z</time></trkpt><trkpt lat="44.7825767" lon="9.5275883"><ele>490.0</ele><time>2026-03-29T14:15:02.654Z</time></trkpt><trkpt lat="44.782615" lon="9.5274433"><ele>490.0</ele><time>2026-03-29T14:15:03.653Z</time></trkpt><trkpt lat="44.78266" lon="9.5272967"><ele>490.0</ele><time>2026-03-29T14:15:04.654Z</time></trkpt><trkpt lat="44.782725" lon="9.52717"><ele>490.0</ele><time>2026-03-29T14:15:05.654Z</time></trkpt><trkpt lat="44.7828083" lon="9.52707"><ele>490.0</ele><time>2026-03-29T14:15:06.653Z</time></trkpt><trkpt lat="44.782895" lon="9.5270017"><ele>490.0</ele><time>2026-03-29T14:15:07.655Z</time></trkpt><trkpt lat="44.78297" lon="9.5269433"><ele>486.6</ele><time>2026-03-29T14:15:08.654Z</time></trkpt><trkpt lat="44.7830267" lon="9.5268717"><ele>483.2</ele><time>2026-03-29T14:15:09.654Z</time></trkpt><trkpt lat="44.7830583" lon="9.52678"><ele>479.79999999999995</ele><time>2026-03-29T14:15:10.654Z</time></trkpt><trkpt lat="44.7830567" lon="9.5266517"><ele>476.4</ele><time>2026-03-29T14:15:11.654Z</time></trkpt><trkpt lat="44.7830583" lon="9.5265033"><ele>473.0</ele><time>2026-03-29T14:15:12.654Z</time></trkpt><trkpt lat="44.7830767" lon="9.5263417"><ele>473.0</ele><time>2026-03-29T14:15:13.656Z</time></trkpt><trkpt lat="44.7831117" lon="9.5261867"><ele>472.99999999999994</ele><time>2026-03-29T14:15:14.654Z</time></trkpt><trkpt lat="44.7831517" lon="9.52605"><ele>472.99999999999994</ele><time>2026-03-29T14:15:15.654Z</time></trkpt><trkpt lat="44.7831833" lon="9.52593"><ele>473.0</ele><time>2026-03-29T14:15:16.655Z</time></trkpt><trkpt lat="44.7831917" lon="9.5258167"><ele>473.0</ele><time>2026-03-29T14:15:17.652Z</time></trkpt><trkpt lat="44.78317" lon="9.525695"><ele>473.0</ele><time>2026-03-29T14:15:18.653Z</time></trkpt><trkpt lat="44.7831183" lon="9.5255567"><ele>473.0</ele><time>2026-03-29T14:15:19.654Z</time></trkpt><trkpt lat="44.78306" lon="9.5254083"><ele>473.0</ele><time>2026-03-29T14:15:20.655Z</time></trkpt><trkpt lat="44.783015" lon="9.525255"><ele>473.0</ele><time>2026-03-29T14:15:21.653Z</time></trkpt><trkpt lat="44.782985" lon="9.5250967"><ele>472.0</ele><time>2026-03-29T14:15:22.654Z</time></trkpt><trkpt lat="44.78296" lon="9.5249333"><ele>470.99999999999994</ele><time>2026-03-29T14:15:23.654Z</time></trkpt><trkpt lat="44.78295" lon="9.524775"><ele>469.99999999999994</ele><time>2026-03-29T14:15:24.654Z</time></trkpt><trkpt lat="44.7829567" lon="9.5246217"><ele>469.0</ele><time>2026-03-29T14:15:25.657Z</time></trkpt><trkpt lat="44.78298" lon="9.5244767"><ele>468.0</ele><time>2026-03-29T14:15:26.658Z</time></trkpt><trkpt lat="44.783015" lon="9.52434"><ele>467.2</ele><time>2026-03-29T14:15:27.653Z</time></trkpt><trkpt lat="44.783035" lon="9.5242033"><ele>466.4</ele><time>2026-03-29T14:15:28.655Z</time></trkpt><trkpt lat="44.7830317" lon="9.5240667"><ele>465.59999999999997</ele><time>2026-03-29T14:15:29.654Z</time></trkpt><trkpt lat="44.7829983" lon="9.5239383"><ele>464.79999999999995</ele><time>2026-03-29T14:15:30.653Z</time></trkpt><trkpt lat="44.782975" lon="9.5238083"><ele>464.0</ele><time>2026-03-29T14:15:31.654Z</time></trkpt><trkpt lat="44.7829733" lon="9.523675"><ele>463.66666666666663</ele><time>2026-03-29T14:15:32.654Z</time></trkpt><trkpt lat="44.78299" lon="9.523555"><ele>463.3333333333333</ele><time>2026-03-29T14:15:33.654Z</time></trkpt><trkpt lat="44.783035" lon="9.5234567"><ele>463.0</ele><time>2026-03-29T14:15:34.653Z</time></trkpt><trkpt lat="44.7830833" lon="9.5233667"><ele>462.66666666666663</ele><time>2026-03-29T14:15:35.654Z</time></trkpt><trkpt lat="44.7831183" lon="9.5232683"><ele>462.3333333333333</ele><time>2026-03-29T14:15:36.654Z</time></trkpt><trkpt lat="44.7831267" lon="9.5231733"><ele>462.0</ele><time>2026-03-29T14:15:37.653Z</time></trkpt><trkpt lat="44.78311" lon="9.5230867"><ele>462.0</ele><time>2026-03-29T14:15:38.653Z</time></trkpt><trkpt lat="44.78305" lon="9.523005"><ele>462.00000000000006</ele><time>2026-03-29T14:15:39.653Z</time></trkpt><trkpt lat="44.7829867" lon="9.5229133"><ele>462.00000000000006</ele><time>2026-03-29T14:15:40.654Z</time></trkpt><trkpt lat="44.7829333" lon="9.5228017"><ele>462.0</ele><time>2026-03-29T14:15:41.655Z</time></trkpt><trkpt lat="44.7828983" lon="9.5226533"><ele>462.0</ele><time>2026-03-29T14:15:42.654Z</time></trkpt><trkpt lat="44.7829033" lon="9.522495"><ele>462.20000000000005</ele><time>2026-03-29T14:15:43.653Z</time></trkpt><trkpt lat="44.78293" lon="9.5223333"><ele>462.40000000000003</ele><time>2026-03-29T14:15:44.655Z</time></trkpt><trkpt lat="44.7829767" lon="9.522185"><ele>462.59999999999997</ele><time>2026-03-29T14:15:45.653Z</time></trkpt><trkpt lat="44.7830267" lon="9.5220533"><ele>462.79999999999995</ele><time>2026-03-29T14:15:46.654Z</time></trkpt><trkpt lat="44.7830967" lon="9.5219433"><ele>463.0</ele><time>2026-03-29T14:15:47.653Z</time></trkpt><trkpt lat="44.7831883" lon="9.5218583"><ele>463.0</ele><time>2026-03-29T14:15:48.653Z</time></trkpt><trkpt lat="44.7832983" lon="9.5217917"><ele>463.0</ele><time>2026-03-29T14:15:49.654Z</time></trkpt><trkpt lat="44.7834083" lon="9.5217317"><ele>463.0</ele><time>2026-03-29T14:15:50.653Z</time></trkpt><trkpt lat="44.7835233" lon="9.52167"><ele>463.0</ele><time>2026-03-29T14:15:51.653Z</time></trkpt><trkpt lat="44.7836317" lon="9.5215983"><ele>460.0</ele><time>2026-03-29T14:15:52.654Z</time></trkpt><trkpt lat="44.783735" lon="9.5215233"><ele>456.99999999999994</ele><time>2026-03-29T14:15:53.654Z</time></trkpt><trkpt lat="44.7838383" lon="9.5214583"><ele>453.99999999999994</ele><time>2026-03-29T14:15:54.654Z</time></trkpt><trkpt lat="44.783935" lon="9.5214067"><ele>451.0</ele><time>2026-03-29T14:15:55.654Z</time></trkpt><trkpt lat="44.7840217" lon="9.521355"><ele>448.0</ele><time>2026-03-29T14:15:56.655Z</time></trkpt><trkpt lat="44.7840883" lon="9.5212783"><ele>449.0</ele><time>2026-03-29T14:15:57.653Z</time></trkpt><trkpt lat="44.7841367" lon="9.5211683"><ele>449.99999999999994</ele><time>2026-03-29T14:15:58.653Z</time></trkpt><trkpt lat="44.7841767" lon="9.5210267"><ele>450.99999999999994</ele><time>2026-03-29T14:15:59.653Z</time></trkpt><trkpt lat="44.78421" lon="9.5208733"><ele>452.0</ele><time>2026-03-29T14:16:00.653Z</time></trkpt><trkpt lat="44.7842383" lon="9.52072"><ele>453.0</ele><time>2026-03-29T14:16:01.653Z</time></trkpt><trkpt lat="44.784255" lon="9.5205767"><ele>453.0</ele><time>2026-03-29T14:16:02.653Z</time></trkpt><trkpt lat="44.7842483" lon="9.5204433"><ele>452.99999999999994</ele><time>2026-03-29T14:16:03.654Z</time></trkpt><trkpt lat="44.7842133" lon="9.5203167"><ele>452.99999999999994</ele><time>2026-03-29T14:16:04.654Z</time></trkpt><trkpt lat="44.7841517" lon="9.520185"><ele>453.0</ele><time>2026-03-29T14:16:05.654Z</time></trkpt><trkpt lat="44.78407" lon="9.5200517"><ele>453.0</ele><time>2026-03-29T14:16:06.657Z</time></trkpt><trkpt lat="44.7839817" lon="9.5199167"><ele>451.25</ele><time>2026-03-29T14:16:07.655Z</time></trkpt><trkpt lat="44.7839067" lon="9.5197717"><ele>449.5</ele><time>2026-03-29T14:16:08.655Z</time></trkpt><trkpt lat="44.7838417" lon="9.51962"><ele>447.75</ele><time>2026-03-29T14:16:09.654Z</time></trkpt><trkpt lat="44.7837867" lon="9.519455"><ele>446.0</ele><time>2026-03-29T14:16:10.652Z</time></trkpt><trkpt lat="44.783745" lon="9.5192917"><ele>444.0</ele><time>2026-03-29T14:16:11.654Z</time></trkpt><trkpt lat="44.78371" lon="9.5191367"><ele>442.0</ele><time>2026-03-29T14:16:12.653Z</time></trkpt><trkpt lat="44.7836983" lon="9.5189967"><ele>440.0</ele><time>2026-03-29T14:16:13.654Z</time></trkpt><trkpt lat="44.783715" lon="9.51887"><ele>438.0</ele><time>2026-03-29T14:16:14.653Z</time></trkpt><trkpt lat="44.7837517" lon="9.5187567"><ele>436.0</ele><time>2026-03-29T14:16:15.654Z</time></trkpt><trkpt lat="44.7838067" lon="9.5186783"><ele>434.8</ele><time>2026-03-29T14:16:16.654Z</time></trkpt><trkpt lat="44.7838483" lon="9.5186017"><ele>433.6</ele><time>2026-03-29T14:16:17.654Z</time></trkpt><trkpt lat="44.783845" lon="9.5184233"><ele>432.4</ele><time>2026-03-29T14:16:19.654Z</time></trkpt><trkpt lat="44.7837833" lon="9.5183083"><ele>431.2</ele><time>2026-03-29T14:16:20.654Z</time></trkpt><trkpt lat="44.7837067" lon="9.5181883"><ele>430.0</ele><time>2026-03-29T14:16:21.653Z</time></trkpt><trkpt lat="44.7836317" lon="9.5180817"><ele>430.00000000000006</ele><time>2026-03-29T14:16:22.655Z</time></trkpt><trkpt lat="44.7835683" lon="9.5180033"><ele>430.0</ele><time>2026-03-29T14:16:23.653Z</time></trkpt><trkpt lat="44.783505" lon="9.5179567"><ele>430.0</ele><time>2026-03-29T14:16:24.654Z</time></trkpt><trkpt lat="44.78343" lon="9.517965"><ele>430.0</ele><time>2026-03-29T14:16:25.655Z</time></trkpt><trkpt lat="44.783335" lon="9.518015"><ele>430.00000000000006</ele><time>2026-03-29T14:16:26.653Z</time></trkpt><trkpt lat="44.783235" lon="9.51805"><ele>430.0</ele><time>2026-03-29T14:16:27.654Z</time></trkpt><trkpt lat="44.7831417" lon="9.5180183"><ele>429.0</ele><time>2026-03-29T14:16:28.654Z</time></trkpt><trkpt lat="44.7830433" lon="9.5179667"><ele>428.0</ele><time>2026-03-29T14:16:29.652Z</time></trkpt><trkpt lat="44.782945" lon="9.5179133"><ele>427.0</ele><time>2026-03-29T14:16:30.653Z</time></trkpt><trkpt lat="44.7828467" lon="9.5178783"><ele>426.0</ele><time>2026-03-29T14:16:31.654Z</time></trkpt><trkpt lat="44.7827533" lon="9.5178733"><ele>425.0</ele><time>2026-03-29T14:16:32.654Z</time></trkpt><trkpt lat="44.7826567" lon="9.517905"><ele>428.8</ele><time>2026-03-29T14:16:33.653Z</time></trkpt><trkpt lat="44.782555" lon="9.5179633"><ele>432.6</ele><time>2026-03-29T14:16:34.653Z</time></trkpt><trkpt lat="44.7824583" lon="9.518035"><ele>436.4</ele><time>2026-03-29T14:16:35.654Z</time></trkpt><trkpt lat="44.78237" lon="9.5181117"><ele>440.2</ele><time>2026-03-29T14:16:36.654Z</time></trkpt><trkpt lat="44.7822867" lon="9.5181817"><ele>444.0</ele><time>2026-03-29T14:16:37.653Z</time></trkpt><trkpt lat="44.7822" lon="9.5182117"><ele>444.0</ele><time>2026-03-29T14:16:38.655Z</time></trkpt><trkpt lat="44.7821133" lon="9.5181967"><ele>444.0</ele><time>2026-03-29T14:16:39.654Z</time></trkpt><trkpt lat="44.7820417" lon="9.518115"><ele>444.0</ele><time>2026-03-29T14:16:40.653Z</time></trkpt><trkpt lat="44.7819733" lon="9.5180167"><ele>444.0</ele><time>2026-03-29T14:16:41.653Z</time></trkpt><trkpt lat="44.78189" lon="9.51794"><ele>444.0</ele><time>2026-03-29T14:16:42.654Z</time></trkpt><trkpt lat="44.7817983" lon="9.51789"><ele>440.6</ele><time>2026-03-29T14:16:43.654Z</time></trkpt><trkpt lat="44.7817017" lon="9.5178567"><ele>437.2</ele><time>2026-03-29T14:16:44.654Z</time></trkpt><trkpt lat="44.7816117" lon="9.5177983"><ele>433.80000000000007</ele><time>2026-03-29T14:16:45.652Z</time></trkpt><trkpt lat="44.7815417" lon="9.5177017"><ele>430.40000000000003</ele><time>2026-03-29T14:16:46.654Z</time></trkpt><trkpt lat="44.7814933" lon="9.5175867"><ele>427.0</ele><time>2026-03-29T14:16:47.654Z</time></trkpt><trkpt lat="44.7814617" lon="9.5174817"><ele>427.00000000000006</ele><time>2026-03-29T14:16:48.654Z</time></trkpt><trkpt lat="44.7814383" lon="9.5173917"><ele>427.0</ele><time>2026-03-29T14:16:49.656Z</time></trkpt><trkpt lat="44.781405" lon="9.5172783"><ele>427.0</ele><time>2026-03-29T14:16:51.653Z</time></trkpt><trkpt lat="44.7813517" lon="9.5171217"><ele>427.0</ele><time>2026-03-29T14:17:44.655Z</time></trkpt><trkpt lat="44.781345" lon="9.517015"><ele>427.00000000000006</ele><time>2026-03-29T14:17:46.654Z</time></trkpt><trkpt lat="44.7813983" lon="9.5169167"><ele>427.0</ele><time>2026-03-29T14:17:48.653Z</time></trkpt><trkpt lat="44.7815117" lon="9.5168733"><ele>427.00000000000006</ele><time>2026-03-29T14:17:50.654Z</time></trkpt><trkpt lat="44.7815833" lon="9.5168833"><ele>427.0</ele><time>2026-03-29T14:17:51.654Z</time></trkpt><trkpt lat="44.78166" lon="9.5169133"><ele>427.0</ele><time>2026-03-29T14:17:52.652Z</time></trkpt><trkpt lat="44.781735" lon="9.51696"><ele>427.0</ele><time>2026-03-29T14:17:53.654Z</time></trkpt><trkpt lat="44.78181" lon="9.5170217"><ele>427.00000000000006</ele><time>2026-03-29T14:17:54.654Z</time></trkpt><trkpt lat="44.7818867" lon="9.51709"><ele>427.0</ele><time>2026-03-29T14:17:55.653Z</time></trkpt><trkpt lat="44.7819633" lon="9.5171583"><ele>427.0</ele><time>2026-03-29T14:17:56.658Z</time></trkpt><trkpt lat="44.7820417" lon="9.51721"><ele>427.00000000000006</ele><time>2026-03-29T14:17:57.652Z</time></trkpt><trkpt lat="44.7821283" lon="9.51722"><ele>427.00000000000006</ele><time>2026-03-29T14:17:58.654Z</time></trkpt><trkpt lat="44.7822167" lon="9.5171933"><ele>427.0</ele><time>2026-03-29T14:17:59.655Z</time></trkpt><trkpt lat="44.78231" lon="9.51715"><ele>427.0</ele><time>2026-03-29T14:18:00.653Z</time></trkpt><trkpt lat="44.7824017" lon="9.5171017"><ele>424.1666666666667</ele><time>2026-03-29T14:18:01.654Z</time></trkpt><trkpt lat="44.7824833" lon="9.5170433"><ele>421.33333333333337</ele><time>2026-03-29T14:18:02.654Z</time></trkpt><trkpt lat="44.7825467" lon="9.5169617"><ele>418.5</ele><time>2026-03-29T14:18:03.653Z</time></trkpt><trkpt lat="44.7825933" lon="9.5168633"><ele>415.66666666666663</ele><time>2026-03-29T14:18:04.653Z</time></trkpt><trkpt lat="44.7826333" lon="9.5167733"><ele>412.8333333333333</ele><time>2026-03-29T14:18:05.654Z</time></trkpt><trkpt lat="44.7826783" lon="9.5167"><ele>410.0</ele><time>2026-03-29T14:18:06.653Z</time></trkpt><trkpt lat="44.7827317" lon="9.5166483"><ele>409.7142857142857</ele><time>2026-03-29T14:18:07.654Z</time></trkpt><trkpt lat="44.7827933" lon="9.51662"><ele>409.4285714285714</ele><time>2026-03-29T14:18:08.654Z</time></trkpt><trkpt lat="44.7828583" lon="9.5166033"><ele>409.1428571428571</ele><time>2026-03-29T14:18:09.654Z</time></trkpt><trkpt lat="44.7829217" lon="9.5166033"><ele>408.8571428571429</ele><time>2026-03-29T14:18:10.654Z</time></trkpt><trkpt lat="44.7829883" lon="9.5166383"><ele>408.57142857142856</ele><time>2026-03-29T14:18:11.653Z</time></trkpt><trkpt lat="44.783065" lon="9.51667"><ele>408.2857142857143</ele><time>2026-03-29T14:18:12.654Z</time></trkpt><trkpt lat="44.7831467" lon="9.5166967"><ele>408.0</ele><time>2026-03-29T14:18:13.654Z</time></trkpt><trkpt lat="44.7832317" lon="9.51672"><ele>408.0</ele><time>2026-03-29T14:18:14.654Z</time></trkpt><trkpt lat="44.7833167" lon="9.51674"><ele>408.0</ele><time>2026-03-29T14:18:15.652Z</time></trkpt><trkpt lat="44.7833983" lon="9.5167583"><ele>408.0</ele><time>2026-03-29T14:18:16.654Z</time></trkpt><trkpt lat="44.783485" lon="9.5167567"><ele>408.0</ele><time>2026-03-29T14:18:17.654Z</time></trkpt><trkpt lat="44.7835717" lon="9.5167283"><ele>408.0</ele><time>2026-03-29T14:18:18.653Z</time></trkpt><trkpt lat="44.7836633" lon="9.5166583"><ele>408.0</ele><time>2026-03-29T14:18:19.654Z</time></trkpt><trkpt lat="44.7837667" lon="9.5165567"><ele>407.75</ele><time>2026-03-29T14:18:20.655Z</time></trkpt><trkpt lat="44.7838767" lon="9.5164533"><ele>407.5</ele><time>2026-03-29T14:18:21.653Z</time></trkpt><trkpt lat="44.7839967" lon="9.5163633"><ele>407.25</ele><time>2026-03-29T14:18:22.655Z</time></trkpt><trkpt lat="44.7841167" lon="9.516285"><ele>407.0</ele><time>2026-03-29T14:18:23.653Z</time></trkpt><trkpt lat="44.7842317" lon="9.5162167"><ele>404.25</ele><time>2026-03-29T14:18:24.653Z</time></trkpt><trkpt lat="44.784345" lon="9.516165"><ele>401.5</ele><time>2026-03-29T14:18:25.654Z</time></trkpt><trkpt lat="44.7844667" lon="9.5161467"><ele>398.75</ele><time>2026-03-29T14:18:26.654Z</time></trkpt><trkpt lat="44.7845933" lon="9.5161633"><ele>396.0</ele><time>2026-03-29T14:18:27.654Z</time></trkpt><trkpt lat="44.7847367" lon="9.5161833"><ele>394.75</ele><time>2026-03-29T14:18:28.654Z</time></trkpt><trkpt lat="44.784885" lon="9.5161817"><ele>393.5</ele><time>2026-03-29T14:18:29.654Z</time></trkpt><trkpt lat="44.7850233" lon="9.5161533"><ele>392.25</ele><time>2026-03-29T14:18:30.653Z</time></trkpt><trkpt lat="44.7851433" lon="9.5161233"><ele>391.0</ele><time>2026-03-29T14:18:31.654Z</time></trkpt><trkpt lat="44.7852483" lon="9.5161183"><ele>390.8</ele><time>2026-03-29T14:18:32.654Z</time></trkpt><trkpt lat="44.7853417" lon="9.5161533"><ele>390.6</ele><time>2026-03-29T14:18:33.653Z</time></trkpt><trkpt lat="44.78541" lon="9.5162367"><ele>390.4</ele><time>2026-03-29T14:18:34.654Z</time></trkpt><trkpt lat="44.7854717" lon="9.51636"><ele>390.2</ele><time>2026-03-29T14:18:35.654Z</time></trkpt><trkpt lat="44.78556" lon="9.51651"><ele>390.0</ele><time>2026-03-29T14:18:36.654Z</time></trkpt><trkpt lat="44.785665" lon="9.5166533"><ele>390.0</ele><time>2026-03-29T14:18:37.654Z</time></trkpt><trkpt lat="44.785765" lon="9.5167967"><ele>390.0</ele><time>2026-03-29T14:18:38.653Z</time></trkpt><trkpt lat="44.7858517" lon="9.5169617"><ele>390.0</ele><time>2026-03-29T14:18:39.654Z</time></trkpt><trkpt lat="44.785925" lon="9.51715"><ele>390.0</ele><time>2026-03-29T14:18:40.654Z</time></trkpt><trkpt lat="44.7859933" lon="9.5173333"><ele>388.25</ele><time>2026-03-29T14:18:41.655Z</time></trkpt><trkpt lat="44.7860617" lon="9.5175117"><ele>386.5</ele><time>2026-03-29T14:18:42.657Z</time></trkpt><trkpt lat="44.78614" lon="9.517675"><ele>384.75</ele><time>2026-03-29T14:18:43.654Z</time></trkpt><trkpt lat="44.7862283" lon="9.5178233"><ele>383.0</ele><time>2026-03-29T14:18:44.655Z</time></trkpt><trkpt lat="44.7863383" lon="9.5179517"><ele>383.0</ele><time>2026-03-29T14:18:45.653Z</time></trkpt><trkpt lat="44.7864617" lon="9.5180567"><ele>383.0</ele><time>2026-03-29T14:18:46.654Z</time></trkpt><trkpt lat="44.7865883" lon="9.5181383"><ele>383.0</ele><time>2026-03-29T14:18:47.654Z</time></trkpt><trkpt lat="44.7867167" lon="9.5182017"><ele>383.0</ele><time>2026-03-29T14:18:48.654Z</time></trkpt><trkpt lat="44.786835" lon="9.5182633"><ele>381.0</ele><time>2026-03-29T14:18:49.654Z</time></trkpt><trkpt lat="44.7869383" lon="9.5183467"><ele>379.0</ele><time>2026-03-29T14:18:50.654Z</time></trkpt><trkpt lat="44.7870167" lon="9.5184617"><ele>377.0</ele><time>2026-03-29T14:18:51.654Z</time></trkpt><trkpt lat="44.7870733" lon="9.5186033"><ele>375.0</ele><time>2026-03-29T14:18:52.653Z</time></trkpt><trkpt lat="44.7871167" lon="9.5187433"><ele>375.0</ele><time>2026-03-29T14:18:53.655Z</time></trkpt><trkpt lat="44.7871683" lon="9.5188583"><ele>375.0</ele><time>2026-03-29T14:18:54.653Z</time></trkpt><trkpt lat="44.7872467" lon="9.5189283"><ele>375.0</ele><time>2026-03-29T14:18:55.654Z</time></trkpt><trkpt lat="44.7873617" lon="9.5189267"><ele>375.0</ele><time>2026-03-29T14:18:56.654Z</time></trkpt><trkpt lat="44.7875" lon="9.5188633"><ele>375.0</ele><time>2026-03-29T14:18:57.654Z</time></trkpt><trkpt lat="44.7876333" lon="9.518785"><ele>375.0</ele><time>2026-03-29T14:18:58.653Z</time></trkpt><trkpt lat="44.7877517" lon="9.5187117"><ele>375.0</ele><time>2026-03-29T14:18:59.652Z</time></trkpt><trkpt lat="44.787855" lon="9.5186633"><ele>375.0</ele><time>2026-03-29T14:19:00.654Z</time></trkpt><trkpt lat="44.7879417" lon="9.5186633"><ele>372.8</ele><time>2026-03-29T14:19:01.654Z</time></trkpt><trkpt lat="44.7879983" lon="9.5187167"><ele>370.6</ele><time>2026-03-29T14:19:02.654Z</time></trkpt><trkpt lat="44.78799" lon="9.518905"><ele>368.4</ele><time>2026-03-29T14:19:04.653Z</time></trkpt><trkpt lat="44.787945" lon="9.5190217"><ele>366.2</ele><time>2026-03-29T14:19:05.653Z</time></trkpt><trkpt lat="44.7878767" lon="9.5191383"><ele>364.0</ele><time>2026-03-29T14:19:06.653Z</time></trkpt><trkpt lat="44.7878167" lon="9.51926"><ele>363.4</ele><time>2026-03-29T14:19:07.654Z</time></trkpt><trkpt lat="44.7877733" lon="9.5194"><ele>362.79999999999995</ele><time>2026-03-29T14:19:08.655Z</time></trkpt><trkpt lat="44.7877517" lon="9.5195517"><ele>362.20000000000005</ele><time>2026-03-29T14:19:09.653Z</time></trkpt><trkpt lat="44.7877467" lon="9.5197033"><ele>361.6</ele><time>2026-03-29T14:19:10.654Z</time></trkpt><trkpt lat="44.787755" lon="9.5198517"><ele>361.0</ele><time>2026-03-29T14:19:11.653Z</time></trkpt><trkpt lat="44.7877717" lon="9.519995"><ele>360.75</ele><time>2026-03-29T14:19:12.653Z</time></trkpt><trkpt lat="44.7877883" lon="9.5201383"><ele>360.5</ele><time>2026-03-29T14:19:13.655Z</time></trkpt><trkpt lat="44.7878083" lon="9.5202933"><ele>360.25</ele><time>2026-03-29T14:19:14.654Z</time></trkpt><trkpt lat="44.78783" lon="9.520455"><ele>360.0</ele><time>2026-03-29T14:19:15.654Z</time></trkpt><trkpt lat="44.7878533" lon="9.52062"><ele>360.0</ele><time>2026-03-29T14:19:16.654Z</time></trkpt><trkpt lat="44.7878817" lon="9.5207783"><ele>360.0</ele><time>2026-03-29T14:19:17.654Z</time></trkpt><trkpt lat="44.7879233" lon="9.520925"><ele>360.0</ele><time>2026-03-29T14:19:18.654Z</time></trkpt><trkpt lat="44.7879883" lon="9.5210483"><ele>360.0</ele><time>2026-03-29T14:19:19.653Z</time></trkpt><trkpt lat="44.7880783" lon="9.521145"><ele>360.0</ele><time>2026-03-29T14:19:20.655Z</time></trkpt><trkpt lat="44.78819" lon="9.5212183"><ele>360.0</ele><time>2026-03-29T14:19:21.653Z</time></trkpt><trkpt lat="44.788325" lon="9.5212583"><ele>360.0</ele><time>2026-03-29T14:19:22.654Z</time></trkpt><trkpt lat="44.7884783" lon="9.5212633"><ele>360.0</ele><time>2026-03-29T14:19:23.654Z</time></trkpt><trkpt lat="44.788635" lon="9.521245"><ele>358.5</ele><time>2026-03-29T14:19:24.654Z</time></trkpt><trkpt lat="44.78878" lon="9.5212167"><ele>357.0</ele><time>2026-03-29T14:19:25.653Z</time></trkpt><trkpt lat="44.7889133" lon="9.5211917"><ele>355.5</ele><time>2026-03-29T14:19:26.653Z</time></trkpt><trkpt lat="44.789035" lon="9.5211733"><ele>354.0</ele><time>2026-03-29T14:19:27.654Z</time></trkpt><trkpt lat="44.78915" lon="9.5211783"><ele>354.0</ele><time>2026-03-29T14:19:28.654Z</time></trkpt><trkpt lat="44.7892617" lon="9.5212267"><ele>354.0</ele><time>2026-03-29T14:19:29.654Z</time></trkpt><trkpt lat="44.7893683" lon="9.5213333"><ele>354.0</ele><time>2026-03-29T14:19:30.653Z</time></trkpt><trkpt lat="44.7894667" lon="9.5214683"><ele>354.0</ele><time>2026-03-29T14:19:31.653Z</time></trkpt><trkpt lat="44.7895583" lon="9.5215983"><ele>354.79999999999995</ele><time>2026-03-29T14:19:32.653Z</time></trkpt><trkpt lat="44.7896467" lon="9.521705"><ele>355.59999999999997</ele><time>2026-03-29T14:19:33.654Z</time></trkpt><trkpt lat="44.7897367" lon="9.521765"><ele>356.4</ele><time>2026-03-29T14:19:34.654Z</time></trkpt><trkpt lat="44.7898267" lon="9.5217717"><ele>357.2</ele><time>2026-03-29T14:19:35.654Z</time></trkpt><trkpt lat="44.789925" lon="9.5217133"><ele>358.0</ele><time>2026-03-29T14:19:36.653Z</time></trkpt><trkpt lat="44.79004" lon="9.52163"><ele>358.0</ele><time>2026-03-29T14:19:37.653Z</time></trkpt><trkpt lat="44.7901733" lon="9.5215583"><ele>358.0</ele><time>2026-03-29T14:19:38.654Z</time></trkpt><trkpt lat="44.7903117" lon="9.5215067"><ele>358.0</ele><time>2026-03-29T14:19:39.653Z</time></trkpt><trkpt lat="44.7904317" lon="9.5214683"><ele>358.0</ele><time>2026-03-29T14:19:40.653Z</time></trkpt><trkpt lat="44.79053" lon="9.5214467"><ele>355.0</ele><time>2026-03-29T14:19:41.654Z</time></trkpt><trkpt lat="44.7906117" lon="9.5214683"><ele>352.0</ele><time>2026-03-29T14:19:42.654Z</time></trkpt><trkpt lat="44.7906883" lon="9.5215417"><ele>349.0</ele><time>2026-03-29T14:19:43.653Z</time></trkpt><trkpt lat="44.790755" lon="9.52168"><ele>346.0</ele><time>2026-03-29T14:19:44.653Z</time></trkpt><trkpt lat="44.79083" lon="9.5218533"><ele>343.0</ele><time>2026-03-29T14:19:45.653Z</time></trkpt><trkpt lat="44.7909117" lon="9.5220283"><ele>345.25</ele><time>2026-03-29T14:19:46.654Z</time></trkpt><trkpt lat="44.790995" lon="9.5221867"><ele>347.5</ele><time>2026-03-29T14:19:47.654Z</time></trkpt><trkpt lat="44.7910917" lon="9.5223217"><ele>349.75</ele><time>2026-03-29T14:19:48.654Z</time></trkpt><trkpt lat="44.7911933" lon="9.5224183"><ele>352.0</ele><time>2026-03-29T14:19:49.655Z</time></trkpt><trkpt lat="44.7912917" lon="9.5224717"><ele>352.0</ele><time>2026-03-29T14:19:50.655Z</time></trkpt><trkpt lat="44.791385" lon="9.52248"><ele>352.0</ele><time>2026-03-29T14:19:51.653Z</time></trkpt><trkpt lat="44.7914683" lon="9.5224517"><ele>352.0</ele><time>2026-03-29T14:19:52.653Z</time></trkpt><trkpt lat="44.791535" lon="9.522355"><ele>352.0</ele><time>2026-03-29T14:19:53.653Z</time></trkpt><trkpt lat="44.7915933" lon="9.52222"><ele>352.0</ele><time>2026-03-29T14:19:54.653Z</time></trkpt><trkpt lat="44.7916433" lon="9.5220667"><ele>350.6</ele><time>2026-03-29T14:19:55.653Z</time></trkpt><trkpt lat="44.791695" lon="9.52192"><ele>349.20000000000005</ele><time>2026-03-29T14:19:56.654Z</time></trkpt><trkpt lat="44.791735" lon="9.5217817"><ele>347.8</ele><time>2026-03-29T14:19:57.653Z</time></trkpt><trkpt lat="44.7917583" lon="9.5216433"><ele>346.4</ele><time>2026-03-29T14:19:58.654Z</time></trkpt><trkpt lat="44.791755" lon="9.5214833"><ele>345.0</ele><time>2026-03-29T14:19:59.653Z</time></trkpt><trkpt lat="44.79174" lon="9.5212983"><ele>343.0</ele><time>2026-03-29T14:20:00.654Z</time></trkpt><trkpt lat="44.7917283" lon="9.521095"><ele>341.0</ele><time>2026-03-29T14:20:01.653Z</time></trkpt><trkpt lat="44.7917283" lon="9.5208867"><ele>339.0</ele><time>2026-03-29T14:20:02.652Z</time></trkpt><trkpt lat="44.7917317" lon="9.5206933"><ele>337.0</ele><time>2026-03-29T14:20:03.654Z</time></trkpt><trkpt lat="44.7917317" lon="9.5205233"><ele>337.20000000000005</ele><time>2026-03-29T14:20:04.653Z</time></trkpt><trkpt lat="44.7917367" lon="9.5203783"><ele>337.4</ele><time>2026-03-29T14:20:05.654Z</time></trkpt><trkpt lat="44.7917583" lon="9.5202517"><ele>337.6</ele><time>2026-03-29T14:20:06.652Z</time></trkpt><trkpt lat="44.7918167" lon="9.52013"><ele>337.79999999999995</ele><time>2026-03-29T14:20:07.653Z</time></trkpt><trkpt lat="44.7919" lon="9.5200083"><ele>338.0</ele><time>2026-03-29T14:20:08.653Z</time></trkpt><trkpt lat="44.7919867" lon="9.5198833"><ele>338.0</ele><time>2026-03-29T14:20:09.653Z</time></trkpt><trkpt lat="44.7920667" lon="9.519755"><ele>338.0</ele><time>2026-03-29T14:20:10.653Z</time></trkpt><trkpt lat="44.7921383" lon="9.51963"><ele>338.0</ele><time>2026-03-29T14:20:11.653Z</time></trkpt><trkpt lat="44.7922083" lon="9.51953"><ele>338.0</ele><time>2026-03-29T14:20:12.654Z</time></trkpt><trkpt lat="44.7922917" lon="9.519465"><ele>338.0</ele><time>2026-03-29T14:20:13.654Z</time></trkpt><trkpt lat="44.7923933" lon="9.5194483"><ele>336.5</ele><time>2026-03-29T14:20:14.654Z</time></trkpt><trkpt lat="44.7925067" lon="9.519435"><ele>335.0</ele><time>2026-03-29T14:20:15.653Z</time></trkpt><trkpt lat="44.7926283" lon="9.5193917"><ele>333.5</ele><time>2026-03-29T14:20:16.653Z</time></trkpt><trkpt lat="44.7927483" lon="9.5193083"><ele>332.0</ele><time>2026-03-29T14:20:17.654Z</time></trkpt><trkpt lat="44.7928667" lon="9.519215"><ele>332.0</ele><time>2026-03-29T14:20:18.654Z</time></trkpt><trkpt lat="44.7929817" lon="9.51912"><ele>332.0</ele><time>2026-03-29T14:20:19.653Z</time></trkpt><trkpt lat="44.7930933" lon="9.5190267"><ele>332.0</ele><time>2026-03-29T14:20:20.653Z</time></trkpt><trkpt lat="44.7932" lon="9.5189333"><ele>332.0</ele><time>2026-03-29T14:20:21.653Z</time></trkpt><trkpt lat="44.79331" lon="9.5188567"><ele>332.0</ele><time>2026-03-29T14:20:22.654Z</time></trkpt><trkpt lat="44.79342" lon="9.5187883"><ele>332.0</ele><time>2026-03-29T14:20:23.654Z</time></trkpt><trkpt lat="44.7935217" lon="9.5187167"><ele>332.0</ele><time>2026-03-29T14:20:24.653Z</time></trkpt><trkpt lat="44.7936067" lon="9.5186017"><ele>332.0</ele><time>2026-03-29T14:20:25.654Z</time></trkpt><trkpt lat="44.793675" lon="9.5184583"><ele>330.8</ele><time>2026-03-29T14:20:26.653Z</time></trkpt><trkpt lat="44.793735" lon="9.5183167"><ele>329.6</ele><time>2026-03-29T14:20:27.653Z</time></trkpt><trkpt lat="44.7938017" lon="9.518195"><ele>328.40000000000003</ele><time>2026-03-29T14:20:28.653Z</time></trkpt><trkpt lat="44.7938767" lon="9.51811"><ele>327.20000000000005</ele><time>2026-03-29T14:20:29.654Z</time></trkpt><trkpt lat="44.7939783" lon="9.518075"><ele>326.0</ele><time>2026-03-29T14:20:30.654Z</time></trkpt><trkpt lat="44.7940933" lon="9.5180767"><ele>326.0</ele><time>2026-03-29T14:20:31.654Z</time></trkpt><trkpt lat="44.7942117" lon="9.5180967"><ele>326.0</ele><time>2026-03-29T14:20:32.654Z</time></trkpt><trkpt lat="44.79433" lon="9.5181117"><ele>326.0</ele><time>2026-03-29T14:20:33.654Z</time></trkpt><trkpt lat="44.7944417" lon="9.518145"><ele>326.0</ele><time>2026-03-29T14:20:34.654Z</time></trkpt><trkpt lat="44.7945433" lon="9.5182217"><ele>324.6</ele><time>2026-03-29T14:20:35.653Z</time></trkpt><trkpt lat="44.79463" lon="9.5183217"><ele>323.20000000000005</ele><time>2026-03-29T14:20:36.653Z</time></trkpt><trkpt lat="44.7947033" lon="9.51842"><ele>321.79999999999995</ele><time>2026-03-29T14:20:37.653Z</time></trkpt><trkpt lat="44.7947917" lon="9.51849"><ele>320.4</ele><time>2026-03-29T14:20:38.654Z</time></trkpt><trkpt lat="44.794875" lon="9.5185117"><ele>319.0</ele><time>2026-03-29T14:20:39.653Z</time></trkpt><trkpt lat="44.7949533" lon="9.5185083"><ele>319.0</ele><time>2026-03-29T14:20:40.654Z</time></trkpt><trkpt lat="44.7950217" lon="9.5184333"><ele>319.0</ele><time>2026-03-29T14:20:41.653Z</time></trkpt><trkpt lat="44.7950933" lon="9.5183167"><ele>319.0</ele><time>2026-03-29T14:20:42.654Z</time></trkpt><trkpt lat="44.7951717" lon="9.5181883"><ele>319.0</ele><time>2026-03-29T14:20:43.653Z</time></trkpt><trkpt lat="44.795245" lon="9.5180667"><ele>319.0</ele><time>2026-03-29T14:20:44.654Z</time></trkpt><trkpt lat="44.7953133" lon="9.51796"><ele>317.8</ele><time>2026-03-29T14:20:45.652Z</time></trkpt><trkpt lat="44.7953867" lon="9.5178783"><ele>316.59999999999997</ele><time>2026-03-29T14:20:46.654Z</time></trkpt><trkpt lat="44.7954683" lon="9.5178383"><ele>315.4</ele><time>2026-03-29T14:20:47.654Z</time></trkpt><trkpt lat="44.7955567" lon="9.51783"><ele>314.2</ele><time>2026-03-29T14:20:48.654Z</time></trkpt><trkpt lat="44.795655" lon="9.5178817"><ele>313.0</ele><time>2026-03-29T14:20:49.654Z</time></trkpt><trkpt lat="44.79576" lon="9.517965"><ele>313.0</ele><time>2026-03-29T14:20:50.654Z</time></trkpt><trkpt lat="44.79585" lon="9.5180717"><ele>313.0</ele><time>2026-03-29T14:20:51.653Z</time></trkpt><trkpt lat="44.7959117" lon="9.518195"><ele>313.0</ele><time>2026-03-29T14:20:52.654Z</time></trkpt><trkpt lat="44.7959633" lon="9.5183033"><ele>313.0</ele><time>2026-03-29T14:20:53.654Z</time></trkpt><trkpt lat="44.796015" lon="9.5183733"><ele>313.0</ele><time>2026-03-29T14:20:54.654Z</time></trkpt><trkpt lat="44.79608" lon="9.5183833"><ele>312.75</ele><time>2026-03-29T14:20:55.654Z</time></trkpt><trkpt lat="44.79614" lon="9.5183233"><ele>312.5</ele><time>2026-03-29T14:20:56.654Z</time></trkpt><trkpt lat="44.7961767" lon="9.5181883"><ele>312.25</ele><time>2026-03-29T14:20:57.654Z</time></trkpt><trkpt lat="44.79619" lon="9.5179983"><ele>312.0</ele><time>2026-03-29T14:20:58.654Z</time></trkpt><trkpt lat="44.7961683" lon="9.5177767"><ele>312.0</ele><time>2026-03-29T14:20:59.653Z</time></trkpt><trkpt lat="44.79615" lon="9.51757"><ele>312.0</ele><time>2026-03-29T14:21:00.653Z</time></trkpt><trkpt lat="44.796155" lon="9.517375"><ele>312.0</ele><time>2026-03-29T14:21:01.653Z</time></trkpt><trkpt lat="44.7961783" lon="9.5171983"><ele>312.0</ele><time>2026-03-29T14:21:02.654Z</time></trkpt><trkpt lat="44.7962317" lon="9.5170417"><ele>307.0</ele><time>2026-03-29T14:21:03.653Z</time></trkpt><trkpt lat="44.79631" lon="9.516885"><ele>302.0</ele><time>2026-03-29T14:21:04.653Z</time></trkpt><trkpt lat="44.79644" lon="9.5167233"><ele>297.0</ele><time>2026-03-29T14:21:05.654Z</time></trkpt><trkpt lat="44.7965817" lon="9.5165683"><ele>297.0</ele><time>2026-03-29T14:21:06.653Z</time></trkpt><trkpt lat="44.7967217" lon="9.516435"><ele>297.0</ele><time>2026-03-29T14:21:07.654Z</time></trkpt><trkpt lat="44.7968733" lon="9.5163317"><ele>297.0</ele><time>2026-03-29T14:21:08.654Z</time></trkpt><trkpt lat="44.7970433" lon="9.5162617"><ele>292.0</ele><time>2026-03-29T14:21:09.653Z</time></trkpt><trkpt lat="44.7972267" lon="9.5161983"><ele>287.0</ele><time>2026-03-29T14:21:10.654Z</time></trkpt><trkpt lat="44.7974183" lon="9.5161233"><ele>282.0</ele><time>2026-03-29T14:21:11.654Z</time></trkpt><trkpt lat="44.7976033" lon="9.516025"><ele>285.0</ele><time>2026-03-29T14:21:12.654Z</time></trkpt><trkpt lat="44.7977767" lon="9.5159133"><ele>288.0</ele><time>2026-03-29T14:21:13.654Z</time></trkpt><trkpt lat="44.7979467" lon="9.5158083"><ele>291.0</ele><time>2026-03-29T14:21:14.654Z</time></trkpt><trkpt lat="44.7981117" lon="9.5157083"><ele>291.0</ele><time>2026-03-29T14:21:15.653Z</time></trkpt><trkpt lat="44.798275" lon="9.5155933"><ele>291.0</ele><time>2026-03-29T14:21:16.654Z</time></trkpt><trkpt lat="44.7984367" lon="9.515445"><ele>291.0</ele><time>2026-03-29T14:21:17.653Z</time></trkpt><trkpt lat="44.79859" lon="9.515275"><ele>289.3333333333333</ele><time>2026-03-29T14:21:18.654Z</time></trkpt><trkpt lat="44.79875" lon="9.5151067"><ele>287.66666666666663</ele><time>2026-03-29T14:21:19.654Z</time></trkpt><trkpt lat="44.7989183" lon="9.5149433"><ele>286.0</ele><time>2026-03-29T14:21:20.654Z</time></trkpt><trkpt lat="44.7990883" lon="9.5147933"><ele>286.0</ele><time>2026-03-29T14:21:21.653Z</time></trkpt><trkpt lat="44.7992583" lon="9.5146583"><ele>286.0</ele><time>2026-03-29T14:21:22.654Z</time></trkpt><trkpt lat="44.7994217" lon="9.5145317"><ele>286.0</ele><time>2026-03-29T14:21:23.658Z</time></trkpt><trkpt lat="44.7995733" lon="9.51441"><ele>281.0</ele><time>2026-03-29T14:21:24.653Z</time></trkpt><trkpt lat="44.7997117" lon="9.5142983"><ele>276.0</ele><time>2026-03-29T14:21:25.655Z</time></trkpt><trkpt lat="44.7998317" lon="9.514185"><ele>271.0</ele><time>2026-03-29T14:21:26.653Z</time></trkpt><trkpt lat="44.7999317" lon="9.5140567"><ele>266.0</ele><time>2026-03-29T14:21:27.654Z</time></trkpt><trkpt lat="44.8000117" lon="9.513915"><ele>266.0</ele><time>2026-03-29T14:21:28.654Z</time></trkpt><trkpt lat="44.8000517" lon="9.513745"><ele>266.0</ele><time>2026-03-29T14:21:29.653Z</time></trkpt><trkpt lat="44.8000617" lon="9.5135667"><ele>266.0</ele><time>2026-03-29T14:21:30.653Z</time></trkpt><trkpt lat="44.80004" lon="9.5133867"><ele>266.0</ele><time>2026-03-29T14:21:31.653Z</time></trkpt><trkpt lat="44.8" lon="9.5132133"><ele>266.40000000000003</ele><time>2026-03-29T14:21:32.654Z</time></trkpt><trkpt lat="44.799945" lon="9.5130567"><ele>266.8</ele><time>2026-03-29T14:21:33.654Z</time></trkpt><trkpt lat="44.7998983" lon="9.5129233"><ele>267.20000000000005</ele><time>2026-03-29T14:21:34.652Z</time></trkpt><trkpt lat="44.7998667" lon="9.51281"><ele>267.6</ele><time>2026-03-29T14:21:35.654Z</time></trkpt><trkpt lat="44.7998533" lon="9.512705"><ele>268.0</ele><time>2026-03-29T14:21:36.653Z</time></trkpt><trkpt lat="44.7999167" lon="9.512565"><ele>268.0</ele><time>2026-03-29T14:21:38.654Z</time></trkpt><trkpt lat="44.7999833" lon="9.5125067"><ele>268.0</ele><time>2026-03-29T14:21:39.653Z</time></trkpt><trkpt lat="44.8000767" lon="9.512445"><ele>268.0</ele><time>2026-03-29T14:21:40.654Z</time></trkpt><trkpt lat="44.8001667" lon="9.5123633"><ele>268.0</ele><time>2026-03-29T14:21:41.654Z</time></trkpt><trkpt lat="44.8002533" lon="9.51225"><ele>268.0</ele><time>2026-03-29T14:21:42.655Z</time></trkpt><trkpt lat="44.8003317" lon="9.5120983"><ele>265.3333333333333</ele><time>2026-03-29T14:21:43.654Z</time></trkpt><trkpt lat="44.8004083" lon="9.5119183"><ele>262.6666666666667</ele><time>2026-03-29T14:21:44.654Z</time></trkpt><trkpt lat="44.8004833" lon="9.5117283"><ele>260.0</ele><time>2026-03-29T14:21:45.653Z</time></trkpt><trkpt lat="44.8005567" lon="9.5115483"><ele>260.0</ele><time>2026-03-29T14:21:46.653Z</time></trkpt><trkpt lat="44.8006317" lon="9.51137"><ele>260.0</ele><time>2026-03-29T14:21:47.653Z</time></trkpt><trkpt lat="44.8007083" lon="9.5111917"><ele>260.0</ele><time>2026-03-29T14:21:48.653Z</time></trkpt><trkpt lat="44.8007883" lon="9.5110117"><ele>260.0</ele><time>2026-03-29T14:21:49.653Z</time></trkpt><trkpt lat="44.80087" lon="9.5108317"><ele>261.5</ele><time>2026-03-29T14:21:50.655Z</time></trkpt><trkpt lat="44.800955" lon="9.5106633"><ele>263.0</ele><time>2026-03-29T14:21:51.654Z</time></trkpt><trkpt lat="44.801055" lon="9.5105217"><ele>264.5</ele><time>2026-03-29T14:21:52.654Z</time></trkpt><trkpt lat="44.801175" lon="9.5103967"><ele>266.0</ele><time>2026-03-29T14:21:53.654Z</time></trkpt><trkpt lat="44.8013033" lon="9.5102633"><ele>266.0</ele><time>2026-03-29T14:21:54.653Z</time></trkpt><trkpt lat="44.80143" lon="9.510105"><ele>266.0</ele><time>2026-03-29T14:21:55.653Z</time></trkpt><trkpt lat="44.8015617" lon="9.50993"><ele>266.0</ele><time>2026-03-29T14:21:56.654Z</time></trkpt><trkpt lat="44.8016917" lon="9.50974"><ele>266.33333333333337</ele><time>2026-03-29T14:21:57.653Z</time></trkpt><trkpt lat="44.8018183" lon="9.5095583"><ele>266.6666666666667</ele><time>2026-03-29T14:21:58.653Z</time></trkpt><trkpt lat="44.80194" lon="9.5093917"><ele>267.0</ele><time>2026-03-29T14:21:59.653Z</time></trkpt><trkpt lat="44.80206" lon="9.5092283"><ele>267.0</ele><time>2026-03-29T14:22:00.654Z</time></trkpt><trkpt lat="44.8021783" lon="9.5090733"><ele>267.0</ele><time>2026-03-29T14:22:01.655Z</time></trkpt><trkpt lat="44.8022967" lon="9.5089483"><ele>267.0</ele><time>2026-03-29T14:22:02.655Z</time></trkpt><trkpt lat="44.80242" lon="9.5088617"><ele>267.0</ele><time>2026-03-29T14:22:03.654Z</time></trkpt><trkpt lat="44.8025467" lon="9.5088167"><ele>268.0</ele><time>2026-03-29T14:22:04.653Z</time></trkpt><trkpt lat="44.8026767" lon="9.50879"><ele>269.0</ele><time>2026-03-29T14:22:05.654Z</time></trkpt><trkpt lat="44.8028083" lon="9.5087733"><ele>270.0</ele><time>2026-03-29T14:22:06.653Z</time></trkpt><trkpt lat="44.8029367" lon="9.5087433"><ele>271.0</ele><time>2026-03-29T14:22:07.654Z</time></trkpt><trkpt lat="44.8030567" lon="9.508695"><ele>271.0</ele><time>2026-03-29T14:22:08.654Z</time></trkpt><trkpt lat="44.8031667" lon="9.5086267"><ele>271.0</ele><time>2026-03-29T14:22:09.654Z</time></trkpt><trkpt lat="44.8032683" lon="9.5085467"><ele>271.0</ele><time>2026-03-29T14:22:10.654Z</time></trkpt><trkpt lat="44.803365" lon="9.5084883"><ele>271.0</ele><time>2026-03-29T14:22:11.656Z</time></trkpt><trkpt lat="44.803455" lon="9.508455"><ele>271.0</ele><time>2026-03-29T14:22:12.653Z</time></trkpt><trkpt lat="44.8035333" lon="9.5084383"><ele>271.0</ele><time>2026-03-29T14:22:13.654Z</time></trkpt><trkpt lat="44.8036267" lon="9.50843"><ele>271.0</ele><time>2026-03-29T14:22:15.652Z</time></trkpt><trkpt lat="44.8036783" lon="9.50837"><ele>271.0</ele><time>2026-03-29T14:22:23.653Z</time></trkpt><trkpt lat="44.8036233" lon="9.508255"><ele>271.0</ele><time>2026-03-29T14:22:25.653Z</time></trkpt><trkpt lat="44.8035783" lon="9.5081817"><ele>271.0</ele><time>2026-03-29T14:22:26.654Z</time></trkpt><trkpt lat="44.8035317" lon="9.5081133"><ele>271.0</ele><time>2026-03-29T14:22:27.654Z</time></trkpt><trkpt lat="44.8034783" lon="9.508065"><ele>271.0</ele><time>2026-03-29T14:22:28.654Z</time></trkpt><trkpt lat="44.8033517" lon="9.5080917"><ele>271.0</ele><time>2026-03-29T14:22:30.653Z</time></trkpt><trkpt lat="44.8032767" lon="9.5081667"><ele>271.0</ele><time>2026-03-29T14:22:31.653Z</time></trkpt><trkpt lat="44.8032017" lon="9.508245"><ele>271.0</ele><time>2026-03-29T14:22:32.654Z</time></trkpt><trkpt lat="44.80313" lon="9.5083317"><ele>271.0</ele><time>2026-03-29T14:22:33.653Z</time></trkpt><trkpt lat="44.8030733" lon="9.5084133"><ele>271.0</ele><time>2026-03-29T14:22:34.654Z</time></trkpt><trkpt lat="44.80302" lon="9.5084817"><ele>271.0</ele><time>2026-03-29T14:22:35.653Z</time></trkpt><trkpt lat="44.8029067" lon="9.5085567"><ele>271.0</ele><time>2026-03-29T14:22:37.653Z</time></trkpt><trkpt lat="44.8028283" lon="9.5085583"><ele>271.0</ele><time>2026-03-29T14:22:38.653Z</time></trkpt><trkpt lat="44.8027333" lon="9.5085383"><ele>271.0</ele><time>2026-03-29T14:22:39.654Z</time></trkpt><trkpt lat="44.802635" lon="9.50852"><ele>274.2</ele><time>2026-03-29T14:22:40.652Z</time></trkpt><trkpt lat="44.802535" lon="9.508505"><ele>277.40000000000003</ele><time>2026-03-29T14:22:41.653Z</time></trkpt><trkpt lat="44.802435" lon="9.508515"><ele>280.6</ele><time>2026-03-29T14:22:42.652Z</time></trkpt><trkpt lat="44.8023383" lon="9.5085517"><ele>283.8</ele><time>2026-03-29T14:22:43.653Z</time></trkpt><trkpt lat="44.8022467" lon="9.5086017"><ele>287.0</ele><time>2026-03-29T14:22:44.653Z</time></trkpt><trkpt lat="44.8021583" lon="9.5086667"><ele>287.0</ele><time>2026-03-29T14:22:45.653Z</time></trkpt><trkpt lat="44.8020867" lon="9.50873"><ele>287.0</ele><time>2026-03-29T14:22:46.653Z</time></trkpt><trkpt lat="44.8020233" lon="9.5087967"><ele>287.0</ele><time>2026-03-29T14:22:47.654Z</time></trkpt><trkpt lat="44.8019467" lon="9.5088683"><ele>287.0</ele><time>2026-03-29T14:22:48.653Z</time></trkpt><trkpt lat="44.801855" lon="9.5089383"><ele>287.0</ele><time>2026-03-29T14:22:49.654Z</time></trkpt><trkpt lat="44.8017683" lon="9.509"><ele>286.6666666666667</ele><time>2026-03-29T14:22:50.654Z</time></trkpt><trkpt lat="44.801685" lon="9.50905"><ele>286.33333333333337</ele><time>2026-03-29T14:22:51.654Z</time></trkpt><trkpt lat="44.8015983" lon="9.5090933"><ele>286.0</ele><time>2026-03-29T14:22:52.654Z</time></trkpt><trkpt lat="44.8015133" lon="9.5091133"><ele>285.6666666666667</ele><time>2026-03-29T14:22:53.654Z</time></trkpt><trkpt lat="44.8014417" lon="9.50912"><ele>285.3333333333333</ele><time>2026-03-29T14:22:54.654Z</time></trkpt><trkpt lat="44.80135" lon="9.5090467"><ele>285.0</ele><time>2026-03-29T14:22:56.654Z</time></trkpt><trkpt lat="44.80132" lon="9.5089133"><ele>285.0</ele><time>2026-03-29T14:22:58.654Z</time></trkpt><trkpt lat="44.8012833" lon="9.5088233"><ele>285.0</ele><time>2026-03-29T14:23:00.654Z</time></trkpt><trkpt lat="44.8013167" lon="9.5089033"><ele>285.0</ele><time>2026-03-29T14:25:58.654Z</time></trkpt><trkpt lat="44.8013367" lon="9.50902"><ele>285.0</ele><time>2026-03-29T14:26:01.653Z</time></trkpt><trkpt lat="44.80144" lon="9.5091133"><ele>285.0</ele><time>2026-03-29T14:26:33.653Z</time></trkpt><trkpt lat="44.80155" lon="9.50911"><ele>285.0</ele><time>2026-03-29T14:26:35.654Z</time></trkpt><trkpt lat="44.8016183" lon="9.5090967"><ele>285.0</ele><time>2026-03-29T14:26:36.656Z</time></trkpt><trkpt lat="44.8016933" lon="9.5090717"><ele>285.0</ele><time>2026-03-29T14:26:37.654Z</time></trkpt><trkpt lat="44.8017683" lon="9.5090367"><ele>285.0</ele><time>2026-03-29T14:26:38.653Z</time></trkpt><trkpt lat="44.8018367" lon="9.5089883"><ele>285.0</ele><time>2026-03-29T14:26:39.653Z</time></trkpt><trkpt lat="44.80191" lon="9.5089267"><ele>285.0</ele><time>2026-03-29T14:26:40.655Z</time></trkpt><trkpt lat="44.80198" lon="9.5088583"><ele>285.3333333333333</ele><time>2026-03-29T14:26:41.653Z</time></trkpt><trkpt lat="44.8020467" lon="9.5087933"><ele>285.6666666666667</ele><time>2026-03-29T14:26:42.653Z</time></trkpt><trkpt lat="44.8021117" lon="9.50873"><ele>286.0</ele><time>2026-03-29T14:26:43.653Z</time></trkpt><trkpt lat="44.80218" lon="9.5086883"><ele>286.33333333333337</ele><time>2026-03-29T14:26:44.654Z</time></trkpt><trkpt lat="44.802255" lon="9.5086583"><ele>286.6666666666667</ele><time>2026-03-29T14:26:45.653Z</time></trkpt><trkpt lat="44.80234" lon="9.508635"><ele>287.0</ele><time>2026-03-29T14:26:46.653Z</time></trkpt><trkpt lat="44.80243" lon="9.5086067"><ele>287.0</ele><time>2026-03-29T14:26:47.654Z</time></trkpt><trkpt lat="44.802515" lon="9.5085817"><ele>287.0</ele><time>2026-03-29T14:26:48.654Z</time></trkpt><trkpt lat="44.8026067" lon="9.5085883"><ele>287.0</ele><time>2026-03-29T14:26:49.654Z</time></trkpt><trkpt lat="44.8027017" lon="9.5085983"><ele>287.0</ele><time>2026-03-29T14:26:50.655Z</time></trkpt><trkpt lat="44.80281" lon="9.5085967"><ele>287.0</ele><time>2026-03-29T14:26:51.654Z</time></trkpt><trkpt lat="44.8029167" lon="9.5085683"><ele>283.8</ele><time>2026-03-29T14:26:52.654Z</time></trkpt><trkpt lat="44.8029967" lon="9.50851"><ele>280.6</ele><time>2026-03-29T14:26:53.654Z</time></trkpt><trkpt lat="44.8030633" lon="9.508425"><ele>277.40000000000003</ele><time>2026-03-29T14:26:54.654Z</time></trkpt><trkpt lat="44.80314" lon="9.508335"><ele>274.2</ele><time>2026-03-29T14:26:55.654Z</time></trkpt><trkpt lat="44.803225" lon="9.50825"><ele>271.0</ele><time>2026-03-29T14:26:56.654Z</time></trkpt><trkpt lat="44.8033067" lon="9.5081717"><ele>271.0</ele><time>2026-03-29T14:26:57.654Z</time></trkpt><trkpt lat="44.803375" lon="9.508105"><ele>271.0</ele><time>2026-03-29T14:26:58.654Z</time></trkpt><trkpt lat="44.8034883" lon="9.5080883"><ele>271.0</ele><time>2026-03-29T14:27:00.655Z</time></trkpt><trkpt lat="44.8035733" lon="9.5081967"><ele>271.0</ele><time>2026-03-29T14:27:02.654Z</time></trkpt><trkpt lat="44.8036283" lon="9.5083067"><ele>271.0</ele><time>2026-03-29T14:27:04.654Z</time></trkpt><trkpt lat="44.8036767" lon="9.5083883"><ele>269.2</ele><time>2026-03-29T14:27:07.654Z</time></trkpt><trkpt lat="44.8037983" lon="9.5084217"><ele>267.40000000000003</ele><time>2026-03-29T14:27:09.654Z</time></trkpt><trkpt lat="44.8038717" lon="9.50841"><ele>265.6</ele><time>2026-03-29T14:27:10.654Z</time></trkpt><trkpt lat="44.8039583" lon="9.50839"><ele>263.8</ele><time>2026-03-29T14:27:11.654Z</time></trkpt><trkpt lat="44.80407" lon="9.5083683"><ele>262.0</ele><time>2026-03-29T14:27:12.654Z</time></trkpt><trkpt lat="44.8041967" lon="9.5083417"><ele>262.0</ele><time>2026-03-29T14:27:13.655Z</time></trkpt><trkpt lat="44.804325" lon="9.50835"><ele>262.0</ele><time>2026-03-29T14:27:14.654Z</time></trkpt><trkpt lat="44.8044733" lon="9.5084233"><ele>262.0</ele><time>2026-03-29T14:27:15.654Z</time></trkpt><trkpt lat="44.804625" lon="9.5085317"><ele>263.25</ele><time>2026-03-29T14:27:16.653Z</time></trkpt><trkpt lat="44.80475" lon="9.508635"><ele>264.5</ele><time>2026-03-29T14:27:17.654Z</time></trkpt><trkpt lat="44.8048717" lon="9.508715"><ele>265.75</ele><time>2026-03-29T14:27:18.653Z</time></trkpt><trkpt lat="44.8050033" lon="9.508755"><ele>267.0</ele><time>2026-03-29T14:27:19.654Z</time></trkpt><trkpt lat="44.8051767" lon="9.5087617"><ele>268.3333333333333</ele><time>2026-03-29T14:27:20.654Z</time></trkpt><trkpt lat="44.80537" lon="9.5087417"><ele>269.66666666666663</ele><time>2026-03-29T14:27:21.654Z</time></trkpt><trkpt lat="44.8055467" lon="9.5087233"><ele>271.0</ele><time>2026-03-29T14:27:22.655Z</time></trkpt><trkpt lat="44.8057233" lon="9.50871"><ele>271.0</ele><time>2026-03-29T14:27:23.654Z</time></trkpt><trkpt lat="44.805905" lon="9.5086767"><ele>271.0</ele><time>2026-03-29T14:27:24.654Z</time></trkpt><trkpt lat="44.806075" lon="9.5086183"><ele>271.0</ele><time>2026-03-29T14:27:25.653Z</time></trkpt><trkpt lat="44.8062367" lon="9.5085567"><ele>269.66666666666663</ele><time>2026-03-29T14:27:26.655Z</time></trkpt><trkpt lat="44.8064" lon="9.5085083"><ele>268.3333333333333</ele><time>2026-03-29T14:27:27.654Z</time></trkpt><trkpt lat="44.8065617" lon="9.5084717"><ele>267.0</ele><time>2026-03-29T14:27:28.654Z</time></trkpt><trkpt lat="44.8067217" lon="9.5084467"><ele>267.5</ele><time>2026-03-29T14:27:29.653Z</time></trkpt><trkpt lat="44.8068683" lon="9.5084383"><ele>268.0</ele><time>2026-03-29T14:27:30.654Z</time></trkpt><trkpt lat="44.8069983" lon="9.5084733"><ele>268.5</ele><time>2026-03-29T14:27:31.654Z</time></trkpt><trkpt lat="44.807135" lon="9.50856"><ele>269.0</ele><time>2026-03-29T14:27:32.654Z</time></trkpt><trkpt lat="44.80728" lon="9.5086467"><ele>269.0</ele><time>2026-03-29T14:27:33.654Z</time></trkpt><trkpt lat="44.8074267" lon="9.5087017"><ele>269.0</ele><time>2026-03-29T14:27:34.654Z</time></trkpt><trkpt lat="44.8075667" lon="9.50872"><ele>269.0</ele><time>2026-03-29T14:27:35.654Z</time></trkpt><trkpt lat="44.8077033" lon="9.5086967"><ele>269.0</ele><time>2026-03-29T14:27:36.654Z</time></trkpt><trkpt lat="44.8078383" lon="9.508615"><ele>267.0</ele><time>2026-03-29T14:27:37.653Z</time></trkpt><trkpt lat="44.8079733" lon="9.5085117"><ele>265.0</ele><time>2026-03-29T14:27:38.655Z</time></trkpt><trkpt lat="44.8081233" lon="9.508435"><ele>263.0</ele><time>2026-03-29T14:27:39.653Z</time></trkpt><trkpt lat="44.8082833" lon="9.5084017"><ele>263.0</ele><time>2026-03-29T14:27:40.654Z</time></trkpt><trkpt lat="44.8084417" lon="9.5083817"><ele>263.0</ele><time>2026-03-29T14:27:41.654Z</time></trkpt><trkpt lat="44.8085883" lon="9.5083567"><ele>263.0</ele><time>2026-03-29T14:27:42.654Z</time></trkpt><trkpt lat="44.808725" lon="9.50833"><ele>263.0</ele><time>2026-03-29T14:27:43.654Z</time></trkpt><trkpt lat="44.8088467" lon="9.5083333"><ele>261.0</ele><time>2026-03-29T14:27:44.655Z</time></trkpt><trkpt lat="44.8089583" lon="9.5083733"><ele>259.0</ele><time>2026-03-29T14:27:45.654Z</time></trkpt><trkpt lat="44.809065" lon="9.5084183"><ele>257.0</ele><time>2026-03-29T14:27:46.654Z</time></trkpt><trkpt lat="44.8091767" lon="9.508445"><ele>255.0</ele><time>2026-03-29T14:27:47.654Z</time></trkpt><trkpt lat="44.8092933" lon="9.5084433"><ele>253.0</ele><time>2026-03-29T14:27:48.654Z</time></trkpt><trkpt lat="44.8094117" lon="9.50843"><ele>251.0</ele><time>2026-03-29T14:27:49.654Z</time></trkpt><trkpt lat="44.8095267" lon="9.5084133"><ele>249.0</ele><time>2026-03-29T14:27:50.654Z</time></trkpt><trkpt lat="44.8096417" lon="9.5083983"><ele>247.0</ele><time>2026-03-29T14:27:51.653Z</time></trkpt><trkpt lat="44.8097617" lon="9.5083767"><ele>247.0</ele><time>2026-03-29T14:27:52.654Z</time></trkpt><trkpt lat="44.8098817" lon="9.5083483"><ele>247.0</ele><time>2026-03-29T14:27:53.654Z</time></trkpt><trkpt lat="44.8099983" lon="9.5083117"><ele>247.0</ele><time>2026-03-29T14:27:54.654Z</time></trkpt><trkpt lat="44.81011" lon="9.5082667"><ele>247.0</ele><time>2026-03-29T14:27:55.654Z</time></trkpt><trkpt lat="44.81022" lon="9.5082133"><ele>243.5</ele><time>2026-03-29T14:27:56.655Z</time></trkpt><trkpt lat="44.8103267" lon="9.50816"><ele>240.0</ele><time>2026-03-29T14:27:57.654Z</time></trkpt><trkpt lat="44.8104317" lon="9.5081083"><ele>236.5</ele><time>2026-03-29T14:27:58.654Z</time></trkpt><trkpt lat="44.8105417" lon="9.5080517"><ele>233.0</ele><time>2026-03-29T14:27:59.655Z</time></trkpt><trkpt lat="44.8106583" lon="9.507975"><ele>234.0</ele><time>2026-03-29T14:28:00.653Z</time></trkpt><trkpt lat="44.81079" lon="9.5078567"><ele>235.0</ele><time>2026-03-29T14:28:01.654Z</time></trkpt><trkpt lat="44.8109383" lon="9.5077067"><ele>236.0</ele><time>2026-03-29T14:28:02.655Z</time></trkpt><trkpt lat="44.8110933" lon="9.5075533"><ele>236.0</ele><time>2026-03-29T14:28:03.653Z</time></trkpt><trkpt lat="44.8112433" lon="9.5074117"><ele>236.0</ele><time>2026-03-29T14:28:04.655Z</time></trkpt><trkpt lat="44.811385" lon="9.5072783"><ele>236.0</ele><time>2026-03-29T14:28:05.654Z</time></trkpt><trkpt lat="44.81152" lon="9.50716"><ele>243.0</ele><time>2026-03-29T14:28:06.654Z</time></trkpt><trkpt lat="44.8116583" lon="9.5070567"><ele>250.0</ele><time>2026-03-29T14:28:07.654Z</time></trkpt><trkpt lat="44.8118067" lon="9.5069933"><ele>257.0</ele><time>2026-03-29T14:28:08.654Z</time></trkpt><trkpt lat="44.81196" lon="9.5069817"><ele>257.0</ele><time>2026-03-29T14:28:09.654Z</time></trkpt><trkpt lat="44.8121033" lon="9.5070183"><ele>257.0</ele><time>2026-03-29T14:28:10.654Z</time></trkpt><trkpt lat="44.8122383" lon="9.507085"><ele>257.0</ele><time>2026-03-29T14:28:11.653Z</time></trkpt><trkpt lat="44.8123683" lon="9.5071317"><ele>257.0</ele><time>2026-03-29T14:28:12.654Z</time></trkpt><trkpt lat="44.8125033" lon="9.5071283"><ele>257.0</ele><time>2026-03-29T14:28:13.654Z</time></trkpt><trkpt lat="44.8126433" lon="9.5070517"><ele>257.0</ele><time>2026-03-29T14:28:14.654Z</time></trkpt><trkpt lat="44.81281" lon="9.5069217"><ele>257.0</ele><time>2026-03-29T14:28:15.654Z</time></trkpt><trkpt lat="44.8129833" lon="9.5067933"><ele>249.33333333333334</ele><time>2026-03-29T14:28:16.654Z</time></trkpt><trkpt lat="44.8131483" lon="9.50669"><ele>241.66666666666669</ele><time>2026-03-29T14:28:17.653Z</time></trkpt><trkpt lat="44.813305" lon="9.5065917"><ele>234.0</ele><time>2026-03-29T14:28:18.653Z</time></trkpt><trkpt lat="44.81345" lon="9.50648"><ele>232.75</ele><time>2026-03-29T14:28:19.654Z</time></trkpt><trkpt lat="44.8135767" lon="9.5063533"><ele>231.5</ele><time>2026-03-29T14:28:20.655Z</time></trkpt><trkpt lat="44.81369" lon="9.506225"><ele>230.25</ele><time>2026-03-29T14:28:21.654Z</time></trkpt><trkpt lat="44.8138083" lon="9.50612"><ele>229.0</ele><time>2026-03-29T14:28:22.654Z</time></trkpt><trkpt lat="44.8139433" lon="9.5060567"><ele>229.0</ele><time>2026-03-29T14:28:23.655Z</time></trkpt><trkpt lat="44.8140817" lon="9.5060233"><ele>229.0</ele><time>2026-03-29T14:28:24.654Z</time></trkpt><trkpt lat="44.81421" lon="9.506"><ele>229.0</ele><time>2026-03-29T14:28:25.655Z</time></trkpt><trkpt lat="44.8143317" lon="9.5059567"><ele>229.0</ele><time>2026-03-29T14:28:26.654Z</time></trkpt><trkpt lat="44.8144433" lon="9.5058717"><ele>228.0</ele><time>2026-03-29T14:28:27.654Z</time></trkpt><trkpt lat="44.8145467" lon="9.505725"><ele>227.0</ele><time>2026-03-29T14:28:28.654Z</time></trkpt><trkpt lat="44.8146367" lon="9.5055167"><ele>226.0</ele><time>2026-03-29T14:28:29.654Z</time></trkpt><trkpt lat="44.81472" lon="9.5052617"><ele>226.0</ele><time>2026-03-29T14:28:30.653Z</time></trkpt><trkpt lat="44.8147983" lon="9.5050083"><ele>226.0</ele><time>2026-03-29T14:28:31.653Z</time></trkpt><trkpt lat="44.8148733" lon="9.5047783"><ele>226.0</ele><time>2026-03-29T14:28:32.655Z</time></trkpt><trkpt lat="44.81495" lon="9.5045683"><ele>224.5</ele><time>2026-03-29T14:28:33.654Z</time></trkpt><trkpt lat="44.8150333" lon="9.5043917"><ele>223.0</ele><time>2026-03-29T14:28:34.654Z</time></trkpt><trkpt lat="44.815135" lon="9.5042517"><ele>221.5</ele><time>2026-03-29T14:28:35.654Z</time></trkpt><trkpt lat="44.8152483" lon="9.5041483"><ele>220.0</ele><time>2026-03-29T14:28:36.655Z</time></trkpt><trkpt lat="44.8153733" lon="9.5040783"><ele>220.0</ele><time>2026-03-29T14:28:37.654Z</time></trkpt><trkpt lat="44.8155117" lon="9.5040533"><ele>220.0</ele><time>2026-03-29T14:28:38.654Z</time></trkpt><trkpt lat="44.81566" lon="9.50407"><ele>220.0</ele><time>2026-03-29T14:28:39.654Z</time></trkpt><trkpt lat="44.815825" lon="9.50411"><ele>218.66666666666666</ele><time>2026-03-29T14:28:40.654Z</time></trkpt><trkpt lat="44.8159933" lon="9.50416"><ele>217.33333333333331</ele><time>2026-03-29T14:28:41.653Z</time></trkpt><trkpt lat="44.8161517" lon="9.5042033"><ele>216.0</ele><time>2026-03-29T14:28:42.653Z</time></trkpt><trkpt lat="44.8163033" lon="9.5042383"><ele>216.0</ele><time>2026-03-29T14:28:43.654Z</time></trkpt><trkpt lat="44.816445" lon="9.5042583"><ele>216.0</ele><time>2026-03-29T14:28:44.654Z</time></trkpt><trkpt lat="44.8165833" lon="9.5042467"><ele>216.0</ele><time>2026-03-29T14:28:45.654Z</time></trkpt><trkpt lat="44.8167117" lon="9.5042117"><ele>216.0</ele><time>2026-03-29T14:28:46.654Z</time></trkpt><trkpt lat="44.8168333" lon="9.504165"><ele>215.75</ele><time>2026-03-29T14:28:47.654Z</time></trkpt><trkpt lat="44.8169467" lon="9.5040917"><ele>215.5</ele><time>2026-03-29T14:28:48.654Z</time></trkpt><trkpt lat="44.81705" lon="9.5039817"><ele>215.25</ele><time>2026-03-29T14:28:49.653Z</time></trkpt><trkpt lat="44.8171433" lon="9.5038483"><ele>215.0</ele><time>2026-03-29T14:28:50.654Z</time></trkpt><trkpt lat="44.8172367" lon="9.503715"><ele>215.0</ele><time>2026-03-29T14:28:51.654Z</time></trkpt><trkpt lat="44.8173383" lon="9.5035983"><ele>215.0</ele><time>2026-03-29T14:28:52.655Z</time></trkpt><trkpt lat="44.817445" lon="9.5034967"><ele>215.0</ele><time>2026-03-29T14:28:53.654Z</time></trkpt><trkpt lat="44.8175533" lon="9.5034017"><ele>215.0</ele><time>2026-03-29T14:28:54.653Z</time></trkpt><trkpt lat="44.81766" lon="9.5033083"><ele>213.5</ele><time>2026-03-29T14:28:55.654Z</time></trkpt><trkpt lat="44.8177583" lon="9.5032133"><ele>212.0</ele><time>2026-03-29T14:28:56.654Z</time></trkpt><trkpt lat="44.8178517" lon="9.503115"><ele>210.5</ele><time>2026-03-29T14:28:57.654Z</time></trkpt><trkpt lat="44.8179367" lon="9.5030183"><ele>209.0</ele><time>2026-03-29T14:28:58.654Z</time></trkpt><trkpt lat="44.81802" lon="9.5029283"><ele>210.0</ele><time>2026-03-29T14:28:59.654Z</time></trkpt><trkpt lat="44.8181083" lon="9.5028483"><ele>211.0</ele><time>2026-03-29T14:29:00.654Z</time></trkpt><trkpt lat="44.81821" lon="9.502775"><ele>212.0</ele><time>2026-03-29T14:29:01.653Z</time></trkpt><trkpt lat="44.8183217" lon="9.50271"><ele>213.0</ele><time>2026-03-29T14:29:02.654Z</time></trkpt><trkpt lat="44.81844" lon="9.5026517"><ele>211.75</ele><time>2026-03-29T14:29:03.654Z</time></trkpt><trkpt lat="44.8185583" lon="9.5025917"><ele>210.5</ele><time>2026-03-29T14:29:04.655Z</time></trkpt><trkpt lat="44.818675" lon="9.5025333"><ele>209.25</ele><time>2026-03-29T14:29:05.653Z</time></trkpt><trkpt lat="44.8187867" lon="9.5024767"><ele>208.0</ele><time>2026-03-29T14:29:06.654Z</time></trkpt><trkpt lat="44.8188917" lon="9.5024233"><ele>208.0</ele><time>2026-03-29T14:29:07.653Z</time></trkpt><trkpt lat="44.8189883" lon="9.5023733"><ele>208.0</ele><time>2026-03-29T14:29:08.655Z</time></trkpt><trkpt lat="44.8190767" lon="9.5023217"><ele>208.0</ele><time>2026-03-29T14:29:09.653Z</time></trkpt><trkpt lat="44.81916" lon="9.5022733"><ele>208.0</ele><time>2026-03-29T14:29:10.654Z</time></trkpt><trkpt lat="44.8192367" lon="9.5022283"><ele>208.0</ele><time>2026-03-29T14:29:11.654Z</time></trkpt><trkpt lat="44.8193117" lon="9.50219"><ele>207.4</ele><time>2026-03-29T14:29:12.655Z</time></trkpt><trkpt lat="44.8193833" lon="9.5021617"><ele>206.8</ele><time>2026-03-29T14:29:13.654Z</time></trkpt><trkpt lat="44.8194467" lon="9.5021517"><ele>206.2</ele><time>2026-03-29T14:29:14.655Z</time></trkpt><trkpt lat="44.819545" lon="9.50221"><ele>205.6</ele><time>2026-03-29T14:29:16.652Z</time></trkpt><trkpt lat="44.8196117" lon="9.5023633"><ele>205.0</ele><time>2026-03-29T14:29:18.654Z</time></trkpt><trkpt lat="44.819645" lon="9.502465"><ele>204.99999999999997</ele><time>2026-03-29T14:29:19.655Z</time></trkpt><trkpt lat="44.8196867" lon="9.5025783"><ele>205.0</ele><time>2026-03-29T14:29:20.654Z</time></trkpt><trkpt lat="44.8197317" lon="9.5026933"><ele>205.0</ele><time>2026-03-29T14:29:21.654Z</time></trkpt><trkpt lat="44.8197717" lon="9.502805"><ele>205.0</ele><time>2026-03-29T14:29:22.655Z</time></trkpt><trkpt lat="44.8198117" lon="9.5029067"><ele>204.99999999999997</ele><time>2026-03-29T14:29:23.654Z</time></trkpt><trkpt lat="44.819845" lon="9.503005"><ele>205.0</ele><time>2026-03-29T14:29:24.653Z</time></trkpt><trkpt lat="44.8198733" lon="9.5030917"><ele>204.83333333333331</ele><time>2026-03-29T14:29:25.655Z</time></trkpt><trkpt lat="44.8199217" lon="9.5032317"><ele>204.66666666666666</ele><time>2026-03-29T14:29:27.653Z</time></trkpt><trkpt lat="44.8199483" lon="9.503325"><ele>204.5</ele><time>2026-03-29T14:29:29.653Z</time></trkpt><trkpt lat="44.82" lon="9.5033767"><ele>204.33333333333331</ele><time>2026-03-29T15:13:12.654Z</time></trkpt><trkpt lat="44.8200733" lon="9.503385"><ele>204.16666666666666</ele><time>2026-03-29T15:13:13.652Z</time></trkpt><trkpt lat="44.820145" lon="9.503375"><ele>204.0</ele><time>2026-03-29T15:13:14.654Z</time></trkpt><trkpt lat="44.8202517" lon="9.50331"><ele>202.0</ele><time>2026-03-29T15:13:16.654Z</time></trkpt><trkpt lat="44.82036" lon="9.5032283"><ele>200.0</ele><time>2026-03-29T15:13:18.654Z</time></trkpt><trkpt lat="44.8204217" lon="9.5031867"><ele>198.0</ele><time>2026-03-29T15:13:19.654Z</time></trkpt><trkpt lat="44.8204967" lon="9.5031367"><ele>196.0</ele><time>2026-03-29T15:13:20.654Z</time></trkpt><trkpt lat="44.8205867" lon="9.5030783"><ele>194.0</ele><time>2026-03-29T15:13:21.654Z</time></trkpt><trkpt lat="44.8206883" lon="9.503005"><ele>194.0</ele><time>2026-03-29T15:13:22.656Z</time></trkpt><trkpt lat="44.8208017" lon="9.5029317"><ele>194.0</ele><time>2026-03-29T15:13:23.656Z</time></trkpt><trkpt lat="44.8209183" lon="9.5028683"><ele>194.0</ele><time>2026-03-29T15:13:24.655Z</time></trkpt><trkpt lat="44.8210317" lon="9.5028133"><ele>194.0</ele><time>2026-03-29T15:13:25.655Z</time></trkpt><trkpt lat="44.8211417" lon="9.5027617"><ele>194.0</ele><time>2026-03-29T15:13:26.656Z</time></trkpt><trkpt lat="44.8212517" lon="9.5026967"><ele>194.0</ele><time>2026-03-29T15:13:27.655Z</time></trkpt><trkpt lat="44.8213633" lon="9.5026267"><ele>194.0</ele><time>2026-03-29T15:13:28.654Z</time></trkpt><trkpt lat="44.821475" lon="9.5025483"><ele>194.0</ele><time>2026-03-29T15:13:29.655Z</time></trkpt><trkpt lat="44.821575" lon="9.502475"><ele>194.00000000000003</ele><time>2026-03-29T15:13:30.654Z</time></trkpt><trkpt lat="44.8216633" lon="9.5024083"><ele>194.0</ele><time>2026-03-29T15:13:31.655Z</time></trkpt><trkpt lat="44.8217467" lon="9.5023467"><ele>194.0</ele><time>2026-03-29T15:13:32.654Z</time></trkpt><trkpt lat="44.821815" lon="9.5022833"><ele>194.0</ele><time>2026-03-29T15:13:33.653Z</time></trkpt><trkpt lat="44.82187" lon="9.5022233"><ele>194.00000000000003</ele><time>2026-03-29T15:13:34.653Z</time></trkpt><trkpt lat="44.8219" lon="9.5021117"><ele>194.0</ele><time>2026-03-29T15:13:36.653Z</time></trkpt><trkpt lat="44.8218617" lon="9.5019517"><ele>193.5</ele><time>2026-03-29T15:13:38.654Z</time></trkpt><trkpt lat="44.8218033" lon="9.50184"><ele>193.0</ele><time>2026-03-29T15:13:39.654Z</time></trkpt><trkpt lat="44.8217183" lon="9.5017033"><ele>192.5</ele><time>2026-03-29T15:13:40.657Z</time></trkpt><trkpt lat="44.8216183" lon="9.501545"><ele>192.0</ele><time>2026-03-29T15:13:41.655Z</time></trkpt><trkpt lat="44.8215067" lon="9.5013633"><ele>191.0</ele><time>2026-03-29T15:13:42.655Z</time></trkpt><trkpt lat="44.8213917" lon="9.5011667"><ele>190.0</ele><time>2026-03-29T15:13:43.655Z</time></trkpt><trkpt lat="44.8212817" lon="9.50096"><ele>189.0</ele><time>2026-03-29T15:13:44.654Z</time></trkpt><trkpt lat="44.82118" lon="9.5007433"><ele>189.0</ele><time>2026-03-29T15:13:45.655Z</time></trkpt><trkpt lat="44.8210867" lon="9.5005183"><ele>189.0</ele><time>2026-03-29T15:13:46.654Z</time></trkpt><trkpt lat="44.8210033" lon="9.500285"><ele>189.0</ele><time>2026-03-29T15:13:47.655Z</time></trkpt><trkpt lat="44.8209283" lon="9.5000467"><ele>190.33333333333331</ele><time>2026-03-29T15:13:48.655Z</time></trkpt><trkpt lat="44.8208617" lon="9.4998167"><ele>191.66666666666666</ele><time>2026-03-29T15:13:49.654Z</time></trkpt><trkpt lat="44.8208" lon="9.4995967"><ele>193.0</ele><time>2026-03-29T15:13:50.655Z</time></trkpt><trkpt lat="44.820745" lon="9.4993867"><ele>193.0</ele><time>2026-03-29T15:13:51.653Z</time></trkpt><trkpt lat="44.820695" lon="9.4991833"><ele>193.0</ele><time>2026-03-29T15:13:52.653Z</time></trkpt><trkpt lat="44.8206433" lon="9.498985"><ele>193.0</ele><time>2026-03-29T15:13:53.654Z</time></trkpt><trkpt lat="44.8205917" lon="9.4987883"><ele>192.75</ele><time>2026-03-29T15:13:54.655Z</time></trkpt><trkpt lat="44.82054" lon="9.4985933"><ele>192.5</ele><time>2026-03-29T15:13:55.654Z</time></trkpt><trkpt lat="44.8204883" lon="9.498395"><ele>192.25</ele><time>2026-03-29T15:13:56.655Z</time></trkpt><trkpt lat="44.8204433" lon="9.4982033"><ele>192.0</ele><time>2026-03-29T15:13:57.653Z</time></trkpt><trkpt lat="44.8204017" lon="9.4980217"><ele>191.8</ele><time>2026-03-29T15:13:58.654Z</time></trkpt><trkpt lat="44.8203617" lon="9.4978533"><ele>191.6</ele><time>2026-03-29T15:13:59.654Z</time></trkpt><trkpt lat="44.8203283" lon="9.4977033"><ele>191.4</ele><time>2026-03-29T15:14:00.654Z</time></trkpt><trkpt lat="44.8203083" lon="9.497575"><ele>191.20000000000002</ele><time>2026-03-29T15:14:01.654Z</time></trkpt><trkpt lat="44.8203067" lon="9.4974567"><ele>191.0</ele><time>2026-03-29T15:14:02.654Z</time></trkpt><trkpt lat="44.8203317" lon="9.497345"><ele>191.0</ele><time>2026-03-29T15:14:03.653Z</time></trkpt><trkpt lat="44.8203867" lon="9.49724"><ele>191.0</ele><time>2026-03-29T15:14:04.655Z</time></trkpt><trkpt lat="44.8204817" lon="9.4971417"><ele>191.0</ele><time>2026-03-29T15:14:05.654Z</time></trkpt><trkpt lat="44.8206033" lon="9.4970483"><ele>191.0</ele><time>2026-03-29T15:14:06.654Z</time></trkpt><trkpt lat="44.82075" lon="9.4969533"><ele>191.0</ele><time>2026-03-29T15:14:07.654Z</time></trkpt><trkpt lat="44.8209017" lon="9.4968567"><ele>191.0</ele><time>2026-03-29T15:14:08.655Z</time></trkpt><trkpt lat="44.8210467" lon="9.4967633"><ele>191.0</ele><time>2026-03-29T15:14:09.655Z</time></trkpt><trkpt lat="44.82118" lon="9.49668"><ele>191.75</ele><time>2026-03-29T15:14:10.655Z</time></trkpt><trkpt lat="44.8213017" lon="9.4966"><ele>192.5</ele><time>2026-03-29T15:14:11.655Z</time></trkpt><trkpt lat="44.8214183" lon="9.496525"><ele>193.25</ele><time>2026-03-29T15:14:12.654Z</time></trkpt><trkpt lat="44.8215267" lon="9.4964533"><ele>194.0</ele><time>2026-03-29T15:14:13.654Z</time></trkpt><trkpt lat="44.8217167" lon="9.496325"><ele>194.0</ele><time>2026-03-29T15:14:15.654Z</time></trkpt><trkpt lat="44.8218033" lon="9.496275"><ele>194.0</ele><time>2026-03-29T15:14:16.653Z</time></trkpt><trkpt lat="44.8218917" lon="9.4962483"><ele>194.0</ele><time>2026-03-29T15:14:17.654Z</time></trkpt><trkpt lat="44.8219917" lon="9.4962583"><ele>194.0</ele><time>2026-03-29T15:14:18.654Z</time></trkpt><trkpt lat="44.8221067" lon="9.4963067"><ele>194.0</ele><time>2026-03-29T15:14:19.654Z</time></trkpt><trkpt lat="44.8222433" lon="9.4963783"><ele>194.0</ele><time>2026-03-29T15:14:20.653Z</time></trkpt><trkpt lat="44.822395" lon="9.496455"><ele>194.0</ele><time>2026-03-29T15:14:21.654Z</time></trkpt><trkpt lat="44.82254" lon="9.49653"><ele>194.0</ele><time>2026-03-29T15:14:22.654Z</time></trkpt><trkpt lat="44.8226783" lon="9.4965933"><ele>194.0</ele><time>2026-03-29T15:14:23.654Z</time></trkpt><trkpt lat="44.8228233" lon="9.4966367"><ele>194.0</ele><time>2026-03-29T15:14:24.653Z</time></trkpt><trkpt lat="44.8229783" lon="9.496645"><ele>194.0</ele><time>2026-03-29T15:14:25.653Z</time></trkpt><trkpt lat="44.8231367" lon="9.4966033"><ele>194.0</ele><time>2026-03-29T15:14:26.654Z</time></trkpt><trkpt lat="44.8232833" lon="9.4965333"><ele>194.0</ele><time>2026-03-29T15:14:27.654Z</time></trkpt><trkpt lat="44.8234117" lon="9.496455"><ele>194.0</ele><time>2026-03-29T15:14:28.654Z</time></trkpt><trkpt lat="44.823535" lon="9.4963833"><ele>194.0</ele><time>2026-03-29T15:14:29.654Z</time></trkpt><trkpt lat="44.8236533" lon="9.4963333"><ele>195.25</ele><time>2026-03-29T15:14:30.654Z</time></trkpt><trkpt lat="44.8237683" lon="9.4963133"><ele>196.5</ele><time>2026-03-29T15:14:31.654Z</time></trkpt><trkpt lat="44.8238817" lon="9.4963233"><ele>197.75</ele><time>2026-03-29T15:14:32.655Z</time></trkpt><trkpt lat="44.82399" lon="9.496375"><ele>199.0</ele><time>2026-03-29T15:14:33.654Z</time></trkpt><trkpt lat="44.82409" lon="9.4964583"><ele>199.0</ele><time>2026-03-29T15:14:34.654Z</time></trkpt><trkpt lat="44.8241833" lon="9.4965633"><ele>199.0</ele><time>2026-03-29T15:14:35.654Z</time></trkpt><trkpt lat="44.8242733" lon="9.49668"><ele>199.0</ele><time>2026-03-29T15:14:36.658Z</time></trkpt><trkpt lat="44.8243617" lon="9.496805"><ele>199.0</ele><time>2026-03-29T15:14:37.653Z</time></trkpt><trkpt lat="44.82445" lon="9.49693"><ele>200.99999999999997</ele><time>2026-03-29T15:14:38.653Z</time></trkpt><trkpt lat="44.82453" lon="9.4970433"><ele>203.0</ele><time>2026-03-29T15:14:39.654Z</time></trkpt><trkpt lat="44.8245983" lon="9.4971417"><ele>205.0</ele><time>2026-03-29T15:14:40.653Z</time></trkpt><trkpt lat="44.82466" lon="9.49722"><ele>207.0</ele><time>2026-03-29T15:14:41.654Z</time></trkpt><trkpt lat="44.8247183" lon="9.4972767"><ele>208.99999999999997</ele><time>2026-03-29T15:14:42.654Z</time></trkpt><trkpt lat="44.8247783" lon="9.4973067"><ele>211.0</ele><time>2026-03-29T15:14:43.654Z</time></trkpt><trkpt lat="44.8248483" lon="9.4973133"><ele>211.49999999999997</ele><time>2026-03-29T15:14:44.654Z</time></trkpt><trkpt lat="44.8249333" lon="9.4972883"><ele>212.0</ele><time>2026-03-29T15:14:45.655Z</time></trkpt><trkpt lat="44.8250167" lon="9.4972617"><ele>212.5</ele><time>2026-03-29T15:14:46.655Z</time></trkpt><trkpt lat="44.825085" lon="9.49728"><ele>213.0</ele><time>2026-03-29T15:14:47.655Z</time></trkpt><trkpt lat="44.8251083" lon="9.4973817"><ele>213.49999999999997</ele><time>2026-03-29T15:14:48.654Z</time></trkpt><trkpt lat="44.82514" lon="9.4974967"><ele>214.0</ele><time>2026-03-29T15:14:49.654Z</time></trkpt><trkpt lat="44.8251933" lon="9.4976083"><ele>218.0</ele><time>2026-03-29T15:14:50.654Z</time></trkpt><trkpt lat="44.8252867" lon="9.4977167"><ele>222.0</ele><time>2026-03-29T15:14:51.654Z</time></trkpt><trkpt lat="44.825395" lon="9.4978067"><ele>226.0</ele><time>2026-03-29T15:14:52.653Z</time></trkpt><trkpt lat="44.8255033" lon="9.4978883"><ele>230.0</ele><time>2026-03-29T15:14:53.655Z</time></trkpt><trkpt lat="44.82561" lon="9.4979667"><ele>230.6</ele><time>2026-03-29T15:14:54.656Z</time></trkpt><trkpt lat="44.8257183" lon="9.4980383"><ele>231.2</ele><time>2026-03-29T15:14:55.654Z</time></trkpt><trkpt lat="44.8258183" lon="9.4980967"><ele>231.8</ele><time>2026-03-29T15:14:56.655Z</time></trkpt><trkpt lat="44.8259167" lon="9.4981433"><ele>232.4</ele><time>2026-03-29T15:14:57.653Z</time></trkpt><trkpt lat="44.8260183" lon="9.4981767"><ele>233.0</ele><time>2026-03-29T15:14:58.655Z</time></trkpt><trkpt lat="44.82612" lon="9.4981867"><ele>235.8</ele><time>2026-03-29T15:14:59.654Z</time></trkpt><trkpt lat="44.8262217" lon="9.4981667"><ele>238.60000000000002</ele><time>2026-03-29T15:15:00.654Z</time></trkpt><trkpt lat="44.8263117" lon="9.4981267"><ele>241.39999999999998</ele><time>2026-03-29T15:15:01.654Z</time></trkpt><trkpt lat="44.8263983" lon="9.4980733"><ele>244.2</ele><time>2026-03-29T15:15:02.654Z</time></trkpt><trkpt lat="44.8264817" lon="9.4980083"><ele>247.0</ele><time>2026-03-29T15:15:03.654Z</time></trkpt><trkpt lat="44.826565" lon="9.4979367"><ele>246.39999999999998</ele><time>2026-03-29T15:15:04.653Z</time></trkpt><trkpt lat="44.8266467" lon="9.4978583"><ele>245.79999999999998</ele><time>2026-03-29T15:15:05.654Z</time></trkpt><trkpt lat="44.8267317" lon="9.497785"><ele>245.2</ele><time>2026-03-29T15:15:06.653Z</time></trkpt><trkpt lat="44.8268233" lon="9.4977233"><ele>244.6</ele><time>2026-03-29T15:15:07.655Z</time></trkpt><trkpt lat="44.8269317" lon="9.4976767"><ele>244.0</ele><time>2026-03-29T15:15:08.653Z</time></trkpt><trkpt lat="44.8270433" lon="9.4976383"><ele>246.0</ele><time>2026-03-29T15:15:09.654Z</time></trkpt><trkpt lat="44.8271383" lon="9.4975833"><ele>247.99999999999997</ele><time>2026-03-29T15:15:10.654Z</time></trkpt><trkpt lat="44.8272233" lon="9.4975017"><ele>249.99999999999997</ele><time>2026-03-29T15:15:11.654Z</time></trkpt><trkpt lat="44.8273017" lon="9.4973883"><ele>252.0</ele><time>2026-03-29T15:15:12.654Z</time></trkpt><trkpt lat="44.827375" lon="9.497275"><ele>254.0</ele><time>2026-03-29T15:15:13.655Z</time></trkpt><trkpt lat="44.8274467" lon="9.4971817"><ele>254.0</ele><time>2026-03-29T15:15:14.654Z</time></trkpt><trkpt lat="44.8275283" lon="9.4971183"><ele>253.99999999999997</ele><time>2026-03-29T15:15:15.653Z</time></trkpt><trkpt lat="44.827625" lon="9.497075"><ele>253.99999999999997</ele><time>2026-03-29T15:15:16.654Z</time></trkpt><trkpt lat="44.8277383" lon="9.49704"><ele>254.0</ele><time>2026-03-29T15:15:17.654Z</time></trkpt><trkpt lat="44.8278533" lon="9.497005"><ele>254.0</ele><time>2026-03-29T15:15:18.653Z</time></trkpt><trkpt lat="44.8279567" lon="9.4969783"><ele>256.2</ele><time>2026-03-29T15:15:19.654Z</time></trkpt><trkpt lat="44.8280467" lon="9.4969667"><ele>258.4</ele><time>2026-03-29T15:15:20.654Z</time></trkpt><trkpt lat="44.8281183" lon="9.4969883"><ele>260.6</ele><time>2026-03-29T15:15:21.653Z</time></trkpt><trkpt lat="44.8281767" lon="9.4970583"><ele>262.8</ele><time>2026-03-29T15:15:22.655Z</time></trkpt><trkpt lat="44.8282283" lon="9.49718"><ele>265.0</ele><time>2026-03-29T15:15:23.655Z</time></trkpt><trkpt lat="44.8282683" lon="9.497345"><ele>265.4</ele><time>2026-03-29T15:15:24.655Z</time></trkpt><trkpt lat="44.8282933" lon="9.49751"><ele>265.8</ele><time>2026-03-29T15:15:25.655Z</time></trkpt><trkpt lat="44.82831" lon="9.4976483"><ele>266.2</ele><time>2026-03-29T15:15:26.655Z</time></trkpt><trkpt lat="44.8283283" lon="9.4977633"><ele>266.6</ele><time>2026-03-29T15:15:27.655Z</time></trkpt><trkpt lat="44.8283567" lon="9.4978617"><ele>267.0</ele><time>2026-03-29T15:15:28.655Z</time></trkpt><trkpt lat="44.8284017" lon="9.4979467"><ele>267.1666666666667</ele><time>2026-03-29T15:15:29.653Z</time></trkpt><trkpt lat="44.8284667" lon="9.49802"><ele>267.3333333333333</ele><time>2026-03-29T15:15:30.654Z</time></trkpt><trkpt lat="44.82854" lon="9.4980933"><ele>267.5</ele><time>2026-03-29T15:15:31.654Z</time></trkpt><trkpt lat="44.8286183" lon="9.4981633"><ele>267.66666666666663</ele><time>2026-03-29T15:15:32.654Z</time></trkpt><trkpt lat="44.828695" lon="9.4982217"><ele>267.8333333333333</ele><time>2026-03-29T15:15:33.654Z</time></trkpt><trkpt lat="44.8287683" lon="9.4982583"><ele>268.0</ele><time>2026-03-29T15:15:34.654Z</time></trkpt><trkpt lat="44.82884" lon="9.4982617"><ele>268.42857142857144</ele><time>2026-03-29T15:15:35.654Z</time></trkpt><trkpt lat="44.8289167" lon="9.4982367"><ele>268.85714285714283</ele><time>2026-03-29T15:15:36.655Z</time></trkpt><trkpt lat="44.8289917" lon="9.498195"><ele>269.2857142857143</ele><time>2026-03-29T15:15:37.653Z</time></trkpt><trkpt lat="44.8290583" lon="9.4981533"><ele>269.7142857142857</ele><time>2026-03-29T15:15:38.655Z</time></trkpt><trkpt lat="44.8291233" lon="9.49812"><ele>270.14285714285717</ele><time>2026-03-29T15:15:39.654Z</time></trkpt><trkpt lat="44.8291867" lon="9.498105"><ele>270.57142857142856</ele><time>2026-03-29T15:15:40.654Z</time></trkpt><trkpt lat="44.82925" lon="9.4981167"><ele>271.0</ele><time>2026-03-29T15:15:41.654Z</time></trkpt><trkpt lat="44.8293283" lon="9.498165"><ele>272.0</ele><time>2026-03-29T15:15:42.653Z</time></trkpt><trkpt lat="44.8294183" lon="9.4982167"><ele>273.0</ele><time>2026-03-29T15:15:43.652Z</time></trkpt><trkpt lat="44.8295167" lon="9.4982533"><ele>274.0</ele><time>2026-03-29T15:15:44.654Z</time></trkpt><trkpt lat="44.829615" lon="9.49828"><ele>275.0</ele><time>2026-03-29T15:15:45.654Z</time></trkpt><trkpt lat="44.8297017" lon="9.4983"><ele>276.0</ele><time>2026-03-29T15:15:46.658Z</time></trkpt><trkpt lat="44.8297683" lon="9.4983283"><ele>276.0</ele><time>2026-03-29T15:15:47.655Z</time></trkpt><trkpt lat="44.8298267" lon="9.498435"><ele>276.0</ele><time>2026-03-29T15:15:49.654Z</time></trkpt><trkpt lat="44.829715" lon="9.4985767"><ele>276.0</ele><time>2026-03-29T15:15:51.655Z</time></trkpt><trkpt lat="44.8296283" lon="9.49864"><ele>276.0</ele><time>2026-03-29T15:15:52.655Z</time></trkpt><trkpt lat="44.8295383" lon="9.4987017"><ele>276.0</ele><time>2026-03-29T15:15:53.655Z</time></trkpt><trkpt lat="44.8294583" lon="9.498765"><ele>276.6</ele><time>2026-03-29T15:15:54.655Z</time></trkpt><trkpt lat="44.8293867" lon="9.4988367"><ele>277.20000000000005</ele><time>2026-03-29T15:15:55.656Z</time></trkpt><trkpt lat="44.829315" lon="9.49894"><ele>277.79999999999995</ele><time>2026-03-29T15:15:56.655Z</time></trkpt><trkpt lat="44.829245" lon="9.4990583"><ele>278.4</ele><time>2026-03-29T15:15:57.655Z</time></trkpt><trkpt lat="44.829165" lon="9.499185"><ele>279.0</ele><time>2026-03-29T15:15:58.655Z</time></trkpt><trkpt lat="44.8290817" lon="9.4993183"><ele>277.25</ele><time>2026-03-29T15:15:59.654Z</time></trkpt><trkpt lat="44.8289983" lon="9.4994517"><ele>275.5</ele><time>2026-03-29T15:16:00.653Z</time></trkpt><trkpt lat="44.8289217" lon="9.4995967"><ele>273.75</ele><time>2026-03-29T15:16:01.654Z</time></trkpt><trkpt lat="44.8288433" lon="9.4997483"><ele>272.0</ele><time>2026-03-29T15:16:02.654Z</time></trkpt><trkpt lat="44.8287617" lon="9.4999017"><ele>272.0</ele><time>2026-03-29T15:16:03.653Z</time></trkpt><trkpt lat="44.8286767" lon="9.5000483"><ele>272.0</ele><time>2026-03-29T15:16:04.654Z</time></trkpt><trkpt lat="44.8285967" lon="9.5001883"><ele>272.0</ele><time>2026-03-29T15:16:05.654Z</time></trkpt><trkpt lat="44.8285217" lon="9.5003217"><ele>272.0</ele><time>2026-03-29T15:16:06.654Z</time></trkpt><trkpt lat="44.8284533" lon="9.5004517"><ele>269.8</ele><time>2026-03-29T15:16:07.654Z</time></trkpt><trkpt lat="44.8283933" lon="9.500575"><ele>267.6</ele><time>2026-03-29T15:16:08.654Z</time></trkpt><trkpt lat="44.8283433" lon="9.5006917"><ele>265.40000000000003</ele><time>2026-03-29T15:16:09.654Z</time></trkpt><trkpt lat="44.8283067" lon="9.5008067"><ele>263.2</ele><time>2026-03-29T15:16:10.653Z</time></trkpt><trkpt lat="44.82829" lon="9.5009217"><ele>261.0</ele><time>2026-03-29T15:16:11.654Z</time></trkpt><trkpt lat="44.8283033" lon="9.5010317"><ele>261.0</ele><time>2026-03-29T15:16:12.654Z</time></trkpt><trkpt lat="44.8283383" lon="9.5011367"><ele>261.0</ele><time>2026-03-29T15:16:13.654Z</time></trkpt><trkpt lat="44.828415" lon="9.50124"><ele>261.0</ele><time>2026-03-29T15:16:14.654Z</time></trkpt><trkpt lat="44.82853" lon="9.5013333"><ele>261.0</ele><time>2026-03-29T15:16:15.654Z</time></trkpt><trkpt lat="44.828635" lon="9.5014267"><ele>261.0</ele><time>2026-03-29T15:16:16.653Z</time></trkpt><trkpt lat="44.828735" lon="9.5015133"><ele>260.75</ele><time>2026-03-29T15:16:17.654Z</time></trkpt><trkpt lat="44.8288383" lon="9.5015917"><ele>260.5</ele><time>2026-03-29T15:16:18.654Z</time></trkpt><trkpt lat="44.8289533" lon="9.5016567"><ele>260.25</ele><time>2026-03-29T15:16:19.654Z</time></trkpt><trkpt lat="44.8290767" lon="9.5017117"><ele>260.0</ele><time>2026-03-29T15:16:20.655Z</time></trkpt><trkpt lat="44.8291917" lon="9.50176"><ele>260.0</ele><time>2026-03-29T15:16:21.656Z</time></trkpt><trkpt lat="44.8292883" lon="9.5017933"><ele>260.0</ele><time>2026-03-29T15:16:22.655Z</time></trkpt><trkpt lat="44.8293717" lon="9.5018067"><ele>260.0</ele><time>2026-03-29T15:16:23.655Z</time></trkpt><trkpt lat="44.829445" lon="9.50179"><ele>260.0</ele><time>2026-03-29T15:16:24.654Z</time></trkpt><trkpt lat="44.8295183" lon="9.50173"><ele>260.0</ele><time>2026-03-29T15:16:25.655Z</time></trkpt><trkpt lat="44.8295917" lon="9.5016117"><ele>260.75</ele><time>2026-03-29T15:16:26.655Z</time></trkpt><trkpt lat="44.8296667" lon="9.5014833"><ele>261.5</ele><time>2026-03-29T15:16:27.655Z</time></trkpt><trkpt lat="44.8297433" lon="9.5013633"><ele>262.25</ele><time>2026-03-29T15:16:28.657Z</time></trkpt><trkpt lat="44.8298217" lon="9.5012467"><ele>263.0</ele><time>2026-03-29T15:16:29.653Z</time></trkpt><trkpt lat="44.8299117" lon="9.5011467"><ele>263.0</ele><time>2026-03-29T15:16:30.653Z</time></trkpt><trkpt lat="44.8300033" lon="9.5010583"><ele>263.0</ele><time>2026-03-29T15:16:31.654Z</time></trkpt><trkpt lat="44.83009" lon="9.5009783"><ele>263.0</ele><time>2026-03-29T15:16:32.654Z</time></trkpt><trkpt lat="44.83017" lon="9.500905"><ele>263.0</ele><time>2026-03-29T15:16:33.654Z</time></trkpt><trkpt lat="44.8302383" lon="9.5008467"><ele>263.0</ele><time>2026-03-29T15:16:34.654Z</time></trkpt><trkpt lat="44.830345" lon="9.5008083"><ele>265.0</ele><time>2026-03-29T15:16:36.653Z</time></trkpt><trkpt lat="44.8303833" lon="9.5008983"><ele>267.0</ele><time>2026-03-29T15:16:38.654Z</time></trkpt><trkpt lat="44.83037" lon="9.5010233"><ele>269.0</ele><time>2026-03-29T15:16:39.654Z</time></trkpt><trkpt lat="44.830315" lon="9.5011717"><ele>271.0</ele><time>2026-03-29T15:16:40.654Z</time></trkpt><trkpt lat="44.8302683" lon="9.501335"><ele>273.0</ele><time>2026-03-29T15:16:41.652Z</time></trkpt><trkpt lat="44.83024" lon="9.5014933"><ele>273.0</ele><time>2026-03-29T15:16:42.655Z</time></trkpt><trkpt lat="44.83023" lon="9.5016783"><ele>273.0</ele><time>2026-03-29T15:16:43.654Z</time></trkpt><trkpt lat="44.8302283" lon="9.5018567"><ele>273.0</ele><time>2026-03-29T15:16:44.654Z</time></trkpt><trkpt lat="44.8302117" lon="9.5020217"><ele>273.0</ele><time>2026-03-29T15:16:45.654Z</time></trkpt><trkpt lat="44.8301767" lon="9.5021683"><ele>271.5</ele><time>2026-03-29T15:16:46.654Z</time></trkpt><trkpt lat="44.8301517" lon="9.5023033"><ele>270.0</ele><time>2026-03-29T15:16:47.654Z</time></trkpt><trkpt lat="44.830155" lon="9.5024417"><ele>268.5</ele><time>2026-03-29T15:16:48.655Z</time></trkpt><trkpt lat="44.8301917" lon="9.5026033"><ele>267.0</ele><time>2026-03-29T15:16:49.655Z</time></trkpt><trkpt lat="44.8302367" lon="9.5027817"><ele>264.5</ele><time>2026-03-29T15:16:50.655Z</time></trkpt><trkpt lat="44.8302867" lon="9.50297"><ele>262.0</ele><time>2026-03-29T15:16:51.655Z</time></trkpt><trkpt lat="44.830335" lon="9.503155"><ele>259.5</ele><time>2026-03-29T15:16:52.655Z</time></trkpt><trkpt lat="44.8303833" lon="9.503325"><ele>257.0</ele><time>2026-03-29T15:16:53.656Z</time></trkpt><trkpt lat="44.8304333" lon="9.5034917"><ele>257.0</ele><time>2026-03-29T15:16:54.654Z</time></trkpt><trkpt lat="44.8304817" lon="9.503655"><ele>257.0</ele><time>2026-03-29T15:16:55.655Z</time></trkpt><trkpt lat="44.8305308" lon="9.5038272"><ele>257.0</ele><time>2026-03-29T15:16:56.655Z</time></trkpt><trkpt lat="44.8305735" lon="9.504015"><ele>257.0</ele><time>2026-03-29T15:16:57.655Z</time></trkpt><trkpt lat="44.830611" lon="9.5042104"><ele>254.25</ele><time>2026-03-29T15:16:58.655Z</time></trkpt><trkpt lat="44.8306429" lon="9.5044021"><ele>251.5</ele><time>2026-03-29T15:16:59.655Z</time></trkpt><trkpt lat="44.8306698" lon="9.5045846"><ele>248.75</ele><time>2026-03-29T15:17:00.655Z</time></trkpt><trkpt lat="44.8306926" lon="9.5047559"><ele>246.0</ele><time>2026-03-29T15:17:01.654Z</time></trkpt><trkpt lat="44.8307175" lon="9.5049198"><ele>244.25</ele><time>2026-03-29T15:17:02.655Z</time></trkpt><trkpt lat="44.8307518" lon="9.5050848"><ele>242.5</ele><time>2026-03-29T15:17:03.655Z</time></trkpt><trkpt lat="44.8308036" lon="9.5052591"><ele>240.75</ele><time>2026-03-29T15:17:04.655Z</time></trkpt><trkpt lat="44.8308725" lon="9.5054364"><ele>239.0</ele><time>2026-03-29T15:17:05.655Z</time></trkpt><trkpt lat="44.8309464" lon="9.5056059"><ele>241.25</ele><time>2026-03-29T15:17:06.654Z</time></trkpt><trkpt lat="44.8310118" lon="9.5057755"><ele>243.5</ele><time>2026-03-29T15:17:07.655Z</time></trkpt><trkpt lat="44.8310631" lon="9.5059398"><ele>245.75</ele><time>2026-03-29T15:17:08.655Z</time></trkpt><trkpt lat="44.8311023" lon="9.5060881"><ele>248.0</ele><time>2026-03-29T15:17:09.654Z</time></trkpt><trkpt lat="44.8311518" lon="9.5062112"><ele>245.25</ele><time>2026-03-29T15:17:10.655Z</time></trkpt><trkpt lat="44.8312255" lon="9.5063181"><ele>242.5</ele><time>2026-03-29T15:17:11.655Z</time></trkpt><trkpt lat="44.8313216" lon="9.5064215"><ele>239.75</ele><time>2026-03-29T15:17:12.654Z</time></trkpt><trkpt lat="44.8314164" lon="9.5065186"><ele>237.0</ele><time>2026-03-29T15:17:13.654Z</time></trkpt><trkpt lat="44.8314933" lon="9.5066271"><ele>237.0</ele><time>2026-03-29T15:17:14.655Z</time></trkpt><trkpt lat="44.8315413" lon="9.5067675"><ele>237.0</ele><time>2026-03-29T15:17:15.654Z</time></trkpt><trkpt lat="44.8315559" lon="9.5069312"><ele>237.0</ele><time>2026-03-29T15:17:16.654Z</time></trkpt><trkpt lat="44.8315637" lon="9.5070856"><ele>237.0</ele><time>2026-03-29T15:17:17.653Z</time></trkpt><trkpt lat="44.8315942" lon="9.5072148"><ele>237.0</ele><time>2026-03-29T15:17:18.654Z</time></trkpt><trkpt lat="44.8316436" lon="9.5073181"><ele>236.8</ele><time>2026-03-29T15:17:19.654Z</time></trkpt><trkpt lat="44.8317073" lon="9.5073953"><ele>236.6</ele><time>2026-03-29T15:17:20.655Z</time></trkpt><trkpt lat="44.8317814" lon="9.5074623"><ele>236.40000000000003</ele><time>2026-03-29T15:17:21.655Z</time></trkpt><trkpt lat="44.8318594" lon="9.5075371"><ele>236.20000000000002</ele><time>2026-03-29T15:17:22.654Z</time></trkpt><trkpt lat="44.8319466" lon="9.5076291"><ele>236.0</ele><time>2026-03-29T15:17:23.655Z</time></trkpt><trkpt lat="44.8320521" lon="9.5077335"><ele>236.0</ele><time>2026-03-29T15:17:24.654Z</time></trkpt><trkpt lat="44.8321795" lon="9.50785"><ele>236.0</ele><time>2026-03-29T15:17:25.653Z</time></trkpt><trkpt lat="44.832338" lon="9.5079771"><ele>236.0</ele><time>2026-03-29T15:17:26.653Z</time></trkpt><trkpt lat="44.8325143" lon="9.5081001"><ele>233.66666666666669</ele><time>2026-03-29T15:17:27.654Z</time></trkpt><trkpt lat="44.8326827" lon="9.5082048"><ele>231.33333333333331</ele><time>2026-03-29T15:17:28.654Z</time></trkpt><trkpt lat="44.8328352" lon="9.5083083"><ele>229.0</ele><time>2026-03-29T15:17:29.654Z</time></trkpt><trkpt lat="44.8329729" lon="9.5084202"><ele>229.0</ele><time>2026-03-29T15:17:30.654Z</time></trkpt><trkpt lat="44.8330912" lon="9.5085428"><ele>229.0</ele><time>2026-03-29T15:17:31.654Z</time></trkpt><trkpt lat="44.8331812" lon="9.5086746"><ele>229.0</ele><time>2026-03-29T15:17:32.655Z</time></trkpt><trkpt lat="44.833246" lon="9.5088042"><ele>229.0</ele><time>2026-03-29T15:17:33.654Z</time></trkpt><trkpt lat="44.8332917" lon="9.508934"><ele>227.39999999999998</ele><time>2026-03-29T15:17:34.653Z</time></trkpt><trkpt lat="44.8333153" lon="9.5090735"><ele>225.79999999999998</ele><time>2026-03-29T15:17:35.654Z</time></trkpt><trkpt lat="44.8333049" lon="9.5092251"><ele>224.20000000000002</ele><time>2026-03-29T15:17:36.654Z</time></trkpt><trkpt lat="44.833267" lon="9.5093789"><ele>222.60000000000002</ele><time>2026-03-29T15:17:37.654Z</time></trkpt><trkpt lat="44.833227" lon="9.509525"><ele>221.0</ele><time>2026-03-29T15:17:38.655Z</time></trkpt><trkpt lat="44.8332041" lon="9.5096639"><ele>219.0</ele><time>2026-03-29T15:17:39.654Z</time></trkpt><trkpt lat="44.8332178" lon="9.5097972"><ele>217.0</ele><time>2026-03-29T15:17:40.654Z</time></trkpt><trkpt lat="44.8332683" lon="9.5099352"><ele>215.0</ele><time>2026-03-29T15:17:41.654Z</time></trkpt><trkpt lat="44.8333406" lon="9.5100792"><ele>213.0</ele><time>2026-03-29T15:17:42.658Z</time></trkpt><trkpt lat="44.8334113" lon="9.5102216"><ele>213.2</ele><time>2026-03-29T15:17:43.653Z</time></trkpt><trkpt lat="44.8334767" lon="9.510355"><ele>213.4</ele><time>2026-03-29T15:17:44.654Z</time></trkpt><trkpt lat="44.833545" lon="9.5104733"><ele>213.59999999999997</ele><time>2026-03-29T15:17:45.653Z</time></trkpt><trkpt lat="44.8336217" lon="9.5105667"><ele>213.79999999999998</ele><time>2026-03-29T15:17:46.655Z</time></trkpt><trkpt lat="44.8337133" lon="9.5106233"><ele>214.0</ele><time>2026-03-29T15:17:47.655Z</time></trkpt><trkpt lat="44.8338267" lon="9.5106483"><ele>214.0</ele><time>2026-03-29T15:17:48.654Z</time></trkpt><trkpt lat="44.8339433" lon="9.5106667"><ele>214.0</ele><time>2026-03-29T15:17:49.654Z</time></trkpt><trkpt lat="44.8340517" lon="9.51072"><ele>214.0</ele><time>2026-03-29T15:17:50.654Z</time></trkpt><trkpt lat="44.8341417" lon="9.51082"><ele>214.0</ele><time>2026-03-29T15:17:51.654Z</time></trkpt><trkpt lat="44.8341983" lon="9.5109533"><ele>214.0</ele><time>2026-03-29T15:17:52.653Z</time></trkpt><trkpt lat="44.8342267" lon="9.511105"><ele>214.0</ele><time>2026-03-29T15:17:53.654Z</time></trkpt><trkpt lat="44.83424" lon="9.511265"><ele>214.0</ele><time>2026-03-29T15:17:54.655Z</time></trkpt><trkpt lat="44.834255" lon="9.5114233"><ele>214.0</ele><time>2026-03-29T15:17:55.656Z</time></trkpt><trkpt lat="44.834285" lon="9.511585"><ele>213.75</ele><time>2026-03-29T15:17:56.653Z</time></trkpt><trkpt lat="44.8343367" lon="9.5117467"><ele>213.5</ele><time>2026-03-29T15:17:57.653Z</time></trkpt><trkpt lat="44.8344133" lon="9.511905"><ele>213.25</ele><time>2026-03-29T15:17:58.654Z</time></trkpt><trkpt lat="44.8345083" lon="9.512045"><ele>213.0</ele><time>2026-03-29T15:17:59.655Z</time></trkpt><trkpt lat="44.834605" lon="9.5121683"><ele>213.0</ele><time>2026-03-29T15:18:00.654Z</time></trkpt><trkpt lat="44.8346983" lon="9.5122833"><ele>213.0</ele><time>2026-03-29T15:18:01.659Z</time></trkpt><trkpt lat="44.834785" lon="9.5123967"><ele>213.0</ele><time>2026-03-29T15:18:02.654Z</time></trkpt><trkpt lat="44.834865" lon="9.5125117"><ele>213.0</ele><time>2026-03-29T15:18:03.654Z</time></trkpt><trkpt lat="44.8349583" lon="9.512625"><ele>213.0</ele><time>2026-03-29T15:18:04.654Z</time></trkpt><trkpt lat="44.8350667" lon="9.5127317"><ele>213.0</ele><time>2026-03-29T15:18:05.654Z</time></trkpt><trkpt lat="44.835185" lon="9.5128333"><ele>213.0</ele><time>2026-03-29T15:18:06.654Z</time></trkpt><trkpt lat="44.835305" lon="9.512925"><ele>213.0</ele><time>2026-03-29T15:18:07.655Z</time></trkpt><trkpt lat="44.8354333" lon="9.513"><ele>211.0</ele><time>2026-03-29T15:18:08.653Z</time></trkpt><trkpt lat="44.8355833" lon="9.5130467"><ele>209.0</ele><time>2026-03-29T15:18:09.653Z</time></trkpt><trkpt lat="44.8357667" lon="9.513085"><ele>207.0</ele><time>2026-03-29T15:18:10.652Z</time></trkpt><trkpt lat="44.8359633" lon="9.51313"><ele>208.66666666666669</ele><time>2026-03-29T15:18:11.654Z</time></trkpt><trkpt lat="44.83615" lon="9.513175"><ele>210.33333333333334</ele><time>2026-03-29T15:18:12.654Z</time></trkpt><trkpt lat="44.8363183" lon="9.513215"><ele>212.0</ele><time>2026-03-29T15:18:13.653Z</time></trkpt><trkpt lat="44.8364783" lon="9.51325"><ele>212.0</ele><time>2026-03-29T15:18:14.654Z</time></trkpt><trkpt lat="44.8366383" lon="9.5132783"><ele>212.0</ele><time>2026-03-29T15:18:15.652Z</time></trkpt><trkpt lat="44.8367983" lon="9.513305"><ele>212.0</ele><time>2026-03-29T15:18:16.653Z</time></trkpt><trkpt lat="44.8369467" lon="9.5133317"><ele>212.75</ele><time>2026-03-29T15:18:17.654Z</time></trkpt><trkpt lat="44.8370833" lon="9.5133567"><ele>213.5</ele><time>2026-03-29T15:18:18.654Z</time></trkpt><trkpt lat="44.8372133" lon="9.5133683"><ele>214.25</ele><time>2026-03-29T15:18:19.655Z</time></trkpt><trkpt lat="44.83733" lon="9.513375"><ele>215.0</ele><time>2026-03-29T15:18:20.656Z</time></trkpt><trkpt lat="44.8374317" lon="9.5133967"><ele>215.0</ele><time>2026-03-29T15:18:21.655Z</time></trkpt><trkpt lat="44.8375283" lon="9.5134533"><ele>215.0</ele><time>2026-03-29T15:18:22.655Z</time></trkpt><trkpt lat="44.8376233" lon="9.513545"><ele>215.0</ele><time>2026-03-29T15:18:23.654Z</time></trkpt><trkpt lat="44.8377167" lon="9.51365"><ele>215.0</ele><time>2026-03-29T15:18:24.653Z</time></trkpt><trkpt lat="44.837805" lon="9.513745"><ele>212.0</ele><time>2026-03-29T15:18:25.655Z</time></trkpt><trkpt lat="44.837905" lon="9.5138283"><ele>209.0</ele><time>2026-03-29T15:18:26.654Z</time></trkpt><trkpt lat="44.8380217" lon="9.5138883"><ele>206.0</ele><time>2026-03-29T15:18:27.654Z</time></trkpt><trkpt lat="44.8381483" lon="9.51394"><ele>203.0</ele><time>2026-03-29T15:18:28.654Z</time></trkpt><trkpt lat="44.838275" lon="9.5139867"><ele>203.0</ele><time>2026-03-29T15:18:29.653Z</time></trkpt><trkpt lat="44.83839" lon="9.5140367"><ele>203.0</ele><time>2026-03-29T15:18:30.653Z</time></trkpt><trkpt lat="44.8385" lon="9.5140783"><ele>203.0</ele><time>2026-03-29T15:18:31.654Z</time></trkpt><trkpt lat="44.838605" lon="9.5141083"><ele>203.0</ele><time>2026-03-29T15:18:32.654Z</time></trkpt><trkpt lat="44.838705" lon="9.5141133"><ele>203.0</ele><time>2026-03-29T15:18:33.654Z</time></trkpt><trkpt lat="44.8388" lon="9.51409"><ele>204.2</ele><time>2026-03-29T15:18:34.654Z</time></trkpt><trkpt lat="44.83888" lon="9.5140317"><ele>205.4</ele><time>2026-03-29T15:18:35.656Z</time></trkpt><trkpt lat="44.83895" lon="9.513945"><ele>206.6</ele><time>2026-03-29T15:18:36.654Z</time></trkpt><trkpt lat="44.8390117" lon="9.5138517"><ele>207.79999999999998</ele><time>2026-03-29T15:18:37.654Z</time></trkpt><trkpt lat="44.8390667" lon="9.5137767"><ele>209.0</ele><time>2026-03-29T15:18:38.654Z</time></trkpt><trkpt lat="44.839175" lon="9.5137483"><ele>209.0</ele><time>2026-03-29T15:18:40.653Z</time></trkpt><trkpt lat="44.8392533" lon="9.5138833"><ele>209.0</ele><time>2026-03-29T15:18:42.654Z</time></trkpt><trkpt lat="44.8392733" lon="9.5139817"><ele>209.0</ele><time>2026-03-29T15:18:43.653Z</time></trkpt><trkpt lat="44.8392683" lon="9.5141167"><ele>209.0</ele><time>2026-03-29T15:18:44.654Z</time></trkpt><trkpt lat="44.8392417" lon="9.5142583"><ele>209.0</ele><time>2026-03-29T15:18:45.654Z</time></trkpt><trkpt lat="44.8392083" lon="9.514385"><ele>209.0</ele><time>2026-03-29T15:18:46.654Z</time></trkpt><trkpt lat="44.8391917" lon="9.5145067"><ele>209.0</ele><time>2026-03-29T15:18:47.653Z</time></trkpt><trkpt lat="44.83919" lon="9.5146483"><ele>209.0</ele><time>2026-03-29T15:18:48.654Z</time></trkpt><trkpt lat="44.8392083" lon="9.514795"><ele>209.0</ele><time>2026-03-29T15:18:49.654Z</time></trkpt><trkpt lat="44.8392483" lon="9.5149367"><ele>209.0</ele><time>2026-03-29T15:18:50.655Z</time></trkpt><trkpt lat="44.8393033" lon="9.5150617"><ele>213.0</ele><time>2026-03-29T15:18:51.654Z</time></trkpt><trkpt lat="44.8393533" lon="9.51518"><ele>217.0</ele><time>2026-03-29T15:18:52.654Z</time></trkpt><trkpt lat="44.8393883" lon="9.5153067"><ele>220.99999999999997</ele><time>2026-03-29T15:18:53.653Z</time></trkpt><trkpt lat="44.83942" lon="9.5154317"><ele>225.0</ele><time>2026-03-29T15:18:54.655Z</time></trkpt><trkpt lat="44.839465" lon="9.5155467"><ele>229.0</ele><time>2026-03-29T15:18:55.654Z</time></trkpt><trkpt lat="44.8395367" lon="9.5156617"><ele>229.0</ele><time>2026-03-29T15:18:56.654Z</time></trkpt><trkpt lat="44.8396233" lon="9.5157733"><ele>229.0</ele><time>2026-03-29T15:18:57.654Z</time></trkpt><trkpt lat="44.8397133" lon="9.5158817"><ele>229.0</ele><time>2026-03-29T15:18:58.655Z</time></trkpt><trkpt lat="44.839795" lon="9.51599"><ele>229.0</ele><time>2026-03-29T15:18:59.654Z</time></trkpt><trkpt lat="44.8398617" lon="9.516105"><ele>225.39999999999998</ele><time>2026-03-29T15:19:00.652Z</time></trkpt><trkpt lat="44.8399233" lon="9.5162433"><ele>221.79999999999998</ele><time>2026-03-29T15:19:01.653Z</time></trkpt><trkpt lat="44.83998" lon="9.5163867"><ele>218.2</ele><time>2026-03-29T15:19:02.653Z</time></trkpt><trkpt lat="44.8400317" lon="9.5165217"><ele>214.60000000000002</ele><time>2026-03-29T15:19:03.652Z</time></trkpt><trkpt lat="44.8400767" lon="9.51665"><ele>211.0</ele><time>2026-03-29T15:19:04.653Z</time></trkpt><trkpt lat="44.8401233" lon="9.5167533"><ele>212.4</ele><time>2026-03-29T15:19:05.654Z</time></trkpt><trkpt lat="44.84018" lon="9.516835"><ele>213.8</ele><time>2026-03-29T15:19:06.653Z</time></trkpt><trkpt lat="44.8402567" lon="9.51691"><ele>215.20000000000002</ele><time>2026-03-29T15:19:07.655Z</time></trkpt><trkpt lat="44.8403517" lon="9.5169717"><ele>216.60000000000002</ele><time>2026-03-29T15:19:08.654Z</time></trkpt><trkpt lat="44.8404517" lon="9.51703"><ele>218.0</ele><time>2026-03-29T15:19:09.653Z</time></trkpt><trkpt lat="44.840545" lon="9.5171117"><ele>218.0</ele><time>2026-03-29T15:19:10.652Z</time></trkpt><trkpt lat="44.840645" lon="9.5172033"><ele>218.0</ele><time>2026-03-29T15:19:11.653Z</time></trkpt><trkpt lat="44.8407417" lon="9.5172933"><ele>218.0</ele><time>2026-03-29T15:19:12.653Z</time></trkpt><trkpt lat="44.84083" lon="9.517385"><ele>218.0</ele><time>2026-03-29T15:19:13.653Z</time></trkpt><trkpt lat="44.8409067" lon="9.51749"><ele>218.2</ele><time>2026-03-29T15:19:14.654Z</time></trkpt><trkpt lat="44.84097" lon="9.517595"><ele>218.4</ele><time>2026-03-29T15:19:15.654Z</time></trkpt><trkpt lat="44.8410183" lon="9.5177217"><ele>218.59999999999997</ele><time>2026-03-29T15:19:16.654Z</time></trkpt><trkpt lat="44.841055" lon="9.517855"><ele>218.79999999999998</ele><time>2026-03-29T15:19:17.653Z</time></trkpt><trkpt lat="44.841095" lon="9.5179917"><ele>219.0</ele><time>2026-03-29T15:19:18.652Z</time></trkpt><trkpt lat="44.8411467" lon="9.5181217"><ele>219.0</ele><time>2026-03-29T15:19:19.654Z</time></trkpt><trkpt lat="44.841205" lon="9.5182433"><ele>219.0</ele><time>2026-03-29T15:19:20.655Z</time></trkpt><trkpt lat="44.84128" lon="9.5183383"><ele>219.0</ele><time>2026-03-29T15:19:21.654Z</time></trkpt><trkpt lat="44.84138" lon="9.5184267"><ele>219.0</ele><time>2026-03-29T15:19:22.653Z</time></trkpt><trkpt lat="44.8415033" lon="9.5185217"><ele>219.0</ele><time>2026-03-29T15:19:23.654Z</time></trkpt><trkpt lat="44.8416383" lon="9.518625"><ele>219.0</ele><time>2026-03-29T15:19:24.654Z</time></trkpt><trkpt lat="44.8417667" lon="9.5187317"><ele>219.0</ele><time>2026-03-29T15:19:25.653Z</time></trkpt><trkpt lat="44.8418833" lon="9.5188283"><ele>219.0</ele><time>2026-03-29T15:19:26.656Z</time></trkpt><trkpt lat="44.8420017" lon="9.51892"><ele>215.25</ele><time>2026-03-29T15:19:27.656Z</time></trkpt><trkpt lat="44.8421183" lon="9.5189933"><ele>211.5</ele><time>2026-03-29T15:19:28.654Z</time></trkpt><trkpt lat="44.8422367" lon="9.5190433"><ele>207.75</ele><time>2026-03-29T15:19:29.654Z</time></trkpt><trkpt lat="44.8423567" lon="9.5190817"><ele>204.0</ele><time>2026-03-29T15:19:30.654Z</time></trkpt><trkpt lat="44.8424783" lon="9.5190967"><ele>204.0</ele><time>2026-03-29T15:19:31.654Z</time></trkpt><trkpt lat="44.8426" lon="9.51909"><ele>204.0</ele><time>2026-03-29T15:19:32.654Z</time></trkpt><trkpt lat="44.8427167" lon="9.5190667"><ele>204.0</ele><time>2026-03-29T15:19:33.654Z</time></trkpt><trkpt lat="44.8428267" lon="9.5190533"><ele>204.0</ele><time>2026-03-29T15:19:34.654Z</time></trkpt><trkpt lat="44.8429333" lon="9.5190617"><ele>207.25</ele><time>2026-03-29T15:19:35.654Z</time></trkpt><trkpt lat="44.8430267" lon="9.51912"><ele>210.5</ele><time>2026-03-29T15:19:36.654Z</time></trkpt><trkpt lat="44.8431217" lon="9.5192117"><ele>213.75</ele><time>2026-03-29T15:19:37.655Z</time></trkpt><trkpt lat="44.8432283" lon="9.5193317"><ele>217.0</ele><time>2026-03-29T15:19:38.656Z</time></trkpt><trkpt lat="44.8433383" lon="9.5194583"><ele>217.0</ele><time>2026-03-29T15:19:39.654Z</time></trkpt><trkpt lat="44.843445" lon="9.51956"><ele>217.0</ele><time>2026-03-29T15:19:40.655Z</time></trkpt><trkpt lat="44.843545" lon="9.5196517"><ele>217.0</ele><time>2026-03-29T15:19:41.654Z</time></trkpt><trkpt lat="44.843635" lon="9.5197333"><ele>217.0</ele><time>2026-03-29T15:19:42.655Z</time></trkpt><trkpt lat="44.8437183" lon="9.5198217"><ele>216.2</ele><time>2026-03-29T15:19:43.655Z</time></trkpt><trkpt lat="44.843795" lon="9.5199183"><ele>215.39999999999998</ele><time>2026-03-29T15:19:44.655Z</time></trkpt><trkpt lat="44.8438783" lon="9.5200183"><ele>214.60000000000002</ele><time>2026-03-29T15:19:45.654Z</time></trkpt><trkpt lat="44.8439717" lon="9.5200983"><ele>213.8</ele><time>2026-03-29T15:19:46.655Z</time></trkpt><trkpt lat="44.8440783" lon="9.520155"><ele>213.0</ele><time>2026-03-29T15:19:47.653Z</time></trkpt><trkpt lat="44.844185" lon="9.5202033"><ele>213.0</ele><time>2026-03-29T15:19:48.653Z</time></trkpt><trkpt lat="44.8442833" lon="9.5202533"><ele>213.0</ele><time>2026-03-29T15:19:49.655Z</time></trkpt><trkpt lat="44.8443667" lon="9.5203183"><ele>213.0</ele><time>2026-03-29T15:19:50.653Z</time></trkpt><trkpt lat="44.8444333" lon="9.520405"><ele>213.0</ele><time>2026-03-29T15:19:51.653Z</time></trkpt><trkpt lat="44.8444833" lon="9.520515"><ele>213.0</ele><time>2026-03-29T15:19:52.654Z</time></trkpt><trkpt lat="44.8445083" lon="9.5206317"><ele>211.8</ele><time>2026-03-29T15:19:53.654Z</time></trkpt><trkpt lat="44.844505" lon="9.5207467"><ele>210.60000000000002</ele><time>2026-03-29T15:19:54.654Z</time></trkpt><trkpt lat="44.8445067" lon="9.5208533"><ele>209.39999999999998</ele><time>2026-03-29T15:19:55.654Z</time></trkpt><trkpt lat="44.844525" lon="9.52094"><ele>208.2</ele><time>2026-03-29T15:19:56.655Z</time></trkpt><trkpt lat="44.8446667" lon="9.520995"><ele>207.0</ele><time>2026-03-29T15:19:58.653Z</time></trkpt><trkpt lat="44.8447733" lon="9.5209983"><ele>207.0</ele><time>2026-03-29T15:19:59.653Z</time></trkpt><trkpt lat="44.84489" lon="9.52103"><ele>207.0</ele><time>2026-03-29T15:20:00.654Z</time></trkpt><trkpt lat="44.8449983" lon="9.5211"><ele>207.0</ele><time>2026-03-29T15:20:01.653Z</time></trkpt><trkpt lat="44.845095" lon="9.52117"><ele>207.0</ele><time>2026-03-29T15:20:02.654Z</time></trkpt><trkpt lat="44.845165" lon="9.5212367"><ele>207.0</ele><time>2026-03-29T15:20:03.654Z</time></trkpt><trkpt lat="44.8452067" lon="9.5213317"><ele>207.0</ele><time>2026-03-29T15:20:04.654Z</time></trkpt><trkpt lat="44.84522" lon="9.5214483"><ele>207.0</ele><time>2026-03-29T15:20:05.654Z</time></trkpt><trkpt lat="44.845215" lon="9.5215933"><ele>207.0</ele><time>2026-03-29T15:20:06.654Z</time></trkpt><trkpt lat="44.84519" lon="9.521785"><ele>207.0</ele><time>2026-03-29T15:20:07.654Z</time></trkpt><trkpt lat="44.845175" lon="9.521965"><ele>205.8</ele><time>2026-03-29T15:20:08.656Z</time></trkpt><trkpt lat="44.8451517" lon="9.5221183"><ele>204.6</ele><time>2026-03-29T15:20:09.653Z</time></trkpt><trkpt lat="44.8451217" lon="9.5222467"><ele>203.4</ele><time>2026-03-29T15:20:10.654Z</time></trkpt><trkpt lat="44.8450967" lon="9.52236"><ele>202.20000000000002</ele><time>2026-03-29T15:20:11.654Z</time></trkpt><trkpt lat="44.8450833" lon="9.5224683"><ele>201.0</ele><time>2026-03-29T15:20:12.654Z</time></trkpt><trkpt lat="44.8450917" lon="9.5225867"><ele>201.0</ele><time>2026-03-29T15:20:13.654Z</time></trkpt><trkpt lat="44.8451267" lon="9.52273"><ele>201.0</ele><time>2026-03-29T15:20:14.654Z</time></trkpt><trkpt lat="44.84517" lon="9.5228917"><ele>201.0</ele><time>2026-03-29T15:20:15.652Z</time></trkpt><trkpt lat="44.84521" lon="9.5230583"><ele>201.0</ele><time>2026-03-29T15:20:16.654Z</time></trkpt><trkpt lat="44.8452517" lon="9.52322"><ele>198.25</ele><time>2026-03-29T15:20:17.654Z</time></trkpt><trkpt lat="44.8453083" lon="9.5233783"><ele>195.5</ele><time>2026-03-29T15:20:18.653Z</time></trkpt><trkpt lat="44.845375" lon="9.523535"><ele>192.75</ele><time>2026-03-29T15:20:19.653Z</time></trkpt><trkpt lat="44.8454433" lon="9.52369"><ele>190.0</ele><time>2026-03-29T15:20:20.653Z</time></trkpt><trkpt lat="44.8455067" lon="9.5238367"><ele>188.6</ele><time>2026-03-29T15:20:21.653Z</time></trkpt><trkpt lat="44.8455667" lon="9.5239833"><ele>187.2</ele><time>2026-03-29T15:20:22.653Z</time></trkpt><trkpt lat="44.8456133" lon="9.5241283"><ele>185.8</ele><time>2026-03-29T15:20:23.654Z</time></trkpt><trkpt lat="44.8456483" lon="9.5242683"><ele>184.4</ele><time>2026-03-29T15:20:24.654Z</time></trkpt><trkpt lat="44.845675" lon="9.5243917"><ele>183.0</ele><time>2026-03-29T15:20:25.653Z</time></trkpt><trkpt lat="44.8457133" lon="9.524495"><ele>182.8</ele><time>2026-03-29T15:20:26.654Z</time></trkpt><trkpt lat="44.845775" lon="9.5245883"><ele>182.60000000000002</ele><time>2026-03-29T15:20:27.656Z</time></trkpt><trkpt lat="44.8458583" lon="9.5246717"><ele>182.39999999999998</ele><time>2026-03-29T15:20:28.653Z</time></trkpt><trkpt lat="44.8459633" lon="9.5247533"><ele>182.2</ele><time>2026-03-29T15:20:29.654Z</time></trkpt><trkpt lat="44.8460817" lon="9.5248417"><ele>182.0</ele><time>2026-03-29T15:20:30.654Z</time></trkpt><trkpt lat="44.8462083" lon="9.5249367"><ele>182.0</ele><time>2026-03-29T15:20:31.653Z</time></trkpt><trkpt lat="44.846335" lon="9.5250367"><ele>182.0</ele><time>2026-03-29T15:20:32.654Z</time></trkpt><trkpt lat="44.84646" lon="9.525135"><ele>182.0</ele><time>2026-03-29T15:20:33.653Z</time></trkpt><trkpt lat="44.846585" lon="9.52523"><ele>182.0</ele><time>2026-03-29T15:20:34.654Z</time></trkpt><trkpt lat="44.8467083" lon="9.5253233"><ele>181.5</ele><time>2026-03-29T15:20:35.654Z</time></trkpt><trkpt lat="44.8468283" lon="9.5254117"><ele>181.0</ele><time>2026-03-29T15:20:36.653Z</time></trkpt><trkpt lat="44.8469433" lon="9.5254983"><ele>180.5</ele><time>2026-03-29T15:20:37.655Z</time></trkpt><trkpt lat="44.84706" lon="9.5255867"><ele>180.0</ele><time>2026-03-29T15:20:38.655Z</time></trkpt><trkpt lat="44.84718" lon="9.5256817"><ele>180.0</ele><time>2026-03-29T15:20:39.654Z</time></trkpt><trkpt lat="44.8473" lon="9.525775"><ele>180.0</ele><time>2026-03-29T15:20:40.654Z</time></trkpt><trkpt lat="44.84742" lon="9.5258633"><ele>180.0</ele><time>2026-03-29T15:20:41.654Z</time></trkpt><trkpt lat="44.8475417" lon="9.5259517"><ele>180.0</ele><time>2026-03-29T15:20:42.655Z</time></trkpt><trkpt lat="44.8476683" lon="9.5260433"><ele>180.33333333333334</ele><time>2026-03-29T15:20:43.654Z</time></trkpt><trkpt lat="44.8478017" lon="9.5261417"><ele>180.66666666666669</ele><time>2026-03-29T15:20:44.654Z</time></trkpt><trkpt lat="44.84794" lon="9.526245"><ele>181.0</ele><time>2026-03-29T15:20:45.654Z</time></trkpt><trkpt lat="44.84808" lon="9.52635"><ele>181.33333333333334</ele><time>2026-03-29T15:20:46.653Z</time></trkpt><trkpt lat="44.8482233" lon="9.5264567"><ele>181.66666666666666</ele><time>2026-03-29T15:20:47.654Z</time></trkpt><trkpt lat="44.8483667" lon="9.5265667"><ele>182.0</ele><time>2026-03-29T15:20:48.654Z</time></trkpt><trkpt lat="44.84851" lon="9.5266767"><ele>182.0</ele><time>2026-03-29T15:20:49.653Z</time></trkpt><trkpt lat="44.848655" lon="9.5267883"><ele>182.0</ele><time>2026-03-29T15:20:50.655Z</time></trkpt><trkpt lat="44.8488033" lon="9.5269"><ele>182.0</ele><time>2026-03-29T15:20:51.655Z</time></trkpt><trkpt lat="44.8489517" lon="9.5270117"><ele>181.75</ele><time>2026-03-29T15:20:52.654Z</time></trkpt><trkpt lat="44.8490883" lon="9.527115"><ele>181.5</ele><time>2026-03-29T15:20:53.654Z</time></trkpt><trkpt lat="44.8492183" lon="9.5272133"><ele>181.25</ele><time>2026-03-29T15:20:54.656Z</time></trkpt><trkpt lat="44.8493383" lon="9.527305"><ele>181.0</ele><time>2026-03-29T15:20:55.655Z</time></trkpt><trkpt lat="44.8494483" lon="9.52739"><ele>181.5</ele><time>2026-03-29T15:20:56.654Z</time></trkpt><trkpt lat="44.84954" lon="9.527465"><ele>182.0</ele><time>2026-03-29T15:20:57.654Z</time></trkpt><trkpt lat="44.8496117" lon="9.52753"><ele>182.5</ele><time>2026-03-29T15:20:58.654Z</time></trkpt><trkpt lat="44.8496667" lon="9.5276"><ele>183.0</ele><time>2026-03-29T15:20:59.654Z</time></trkpt><trkpt lat="44.8497017" lon="9.5276817"><ele>183.5</ele><time>2026-03-29T15:21:00.653Z</time></trkpt><trkpt lat="44.8497233" lon="9.52778"><ele>184.0</ele><time>2026-03-29T15:21:01.654Z</time></trkpt><trkpt lat="44.849735" lon="9.52789"><ele>183.83333333333334</ele><time>2026-03-29T15:21:02.654Z</time></trkpt><trkpt lat="44.8497433" lon="9.528"><ele>183.66666666666669</ele><time>2026-03-29T15:21:03.652Z</time></trkpt><trkpt lat="44.8497467" lon="9.5281117"><ele>183.5</ele><time>2026-03-29T15:21:04.654Z</time></trkpt><trkpt lat="44.8497533" lon="9.5282233"><ele>183.33333333333334</ele><time>2026-03-29T15:21:05.655Z</time></trkpt><trkpt lat="44.8497533" lon="9.528325"><ele>183.16666666666666</ele><time>2026-03-29T15:21:06.654Z</time></trkpt><trkpt lat="44.8497567" lon="9.5284333"><ele>183.0</ele><time>2026-03-29T15:21:07.654Z</time></trkpt><trkpt lat="44.8497617" lon="9.528555"><ele>183.0</ele><time>2026-03-29T15:21:08.653Z</time></trkpt><trkpt lat="44.8497767" lon="9.5287"><ele>183.0</ele><time>2026-03-29T15:21:09.654Z</time></trkpt><trkpt lat="44.8498033" lon="9.5288667"><ele>183.0</ele><time>2026-03-29T15:21:10.654Z</time></trkpt><trkpt lat="44.8498383" lon="9.5290483"><ele>183.0</ele><time>2026-03-29T15:21:11.654Z</time></trkpt><trkpt lat="44.8498867" lon="9.5292367"><ele>182.25</ele><time>2026-03-29T15:21:12.654Z</time></trkpt><trkpt lat="44.84994" lon="9.5294183"><ele>181.5</ele><time>2026-03-29T15:21:13.655Z</time></trkpt><trkpt lat="44.849995" lon="9.5295883"><ele>180.75</ele><time>2026-03-29T15:21:14.655Z</time></trkpt><trkpt lat="44.85004" lon="9.5297517"><ele>180.0</ele><time>2026-03-29T15:21:15.654Z</time></trkpt><trkpt lat="44.850085" lon="9.529905"><ele>179.4</ele><time>2026-03-29T15:21:16.655Z</time></trkpt><trkpt lat="44.8501283" lon="9.5300433"><ele>178.8</ele><time>2026-03-29T15:21:17.653Z</time></trkpt><trkpt lat="44.8501717" lon="9.5301733"><ele>178.2</ele><time>2026-03-29T15:21:18.654Z</time></trkpt><trkpt lat="44.8502183" lon="9.5302933"><ele>177.6</ele><time>2026-03-29T15:21:19.654Z</time></trkpt><trkpt lat="44.8502767" lon="9.5303983"><ele>177.0</ele><time>2026-03-29T15:21:20.654Z</time></trkpt><trkpt lat="44.8503567" lon="9.5304883"><ele>176.5</ele><time>2026-03-29T15:21:21.654Z</time></trkpt><trkpt lat="44.85046" lon="9.53054"><ele>176.0</ele><time>2026-03-29T15:21:22.654Z</time></trkpt><trkpt lat="44.85058" lon="9.5305633"><ele>175.5</ele><time>2026-03-29T15:21:23.653Z</time></trkpt><trkpt lat="44.85071" lon="9.5305767"><ele>175.0</ele><time>2026-03-29T15:21:24.659Z</time></trkpt><trkpt lat="44.8508367" lon="9.5305883"><ele>175.2</ele><time>2026-03-29T15:21:25.655Z</time></trkpt><trkpt lat="44.85096" lon="9.5306067"><ele>175.4</ele><time>2026-03-29T15:21:26.657Z</time></trkpt><trkpt lat="44.8510733" lon="9.5306467"><ele>175.60000000000002</ele><time>2026-03-29T15:21:27.653Z</time></trkpt><trkpt lat="44.8511717" lon="9.5307083"><ele>175.8</ele><time>2026-03-29T15:21:28.654Z</time></trkpt><trkpt lat="44.8512417" lon="9.53081"><ele>176.0</ele><time>2026-03-29T15:21:29.655Z</time></trkpt><trkpt lat="44.851275" lon="9.5309533"><ele>176.0</ele><time>2026-03-29T15:21:30.655Z</time></trkpt><trkpt lat="44.8512867" lon="9.5311417"><ele>176.0</ele><time>2026-03-29T15:21:31.654Z</time></trkpt><trkpt lat="44.8512867" lon="9.531365"><ele>176.0</ele><time>2026-03-29T15:21:32.654Z</time></trkpt><trkpt lat="44.8512833" lon="9.53159"><ele>175.5</ele><time>2026-03-29T15:21:33.653Z</time></trkpt><trkpt lat="44.8512783" lon="9.5318"><ele>175.0</ele><time>2026-03-29T15:21:34.656Z</time></trkpt><trkpt lat="44.8512767" lon="9.531995"><ele>174.5</ele><time>2026-03-29T15:21:35.653Z</time></trkpt><trkpt lat="44.8512767" lon="9.5321817"><ele>174.0</ele><time>2026-03-29T15:21:36.654Z</time></trkpt><trkpt lat="44.8512783" lon="9.5323583"><ele>173.79999999999998</ele><time>2026-03-29T15:21:37.655Z</time></trkpt><trkpt lat="44.8512883" lon="9.5325217"><ele>173.6</ele><time>2026-03-29T15:21:38.655Z</time></trkpt><trkpt lat="44.851315" lon="9.5326667"><ele>173.4</ele><time>2026-03-29T15:21:39.652Z</time></trkpt><trkpt lat="44.851365" lon="9.5327833"><ele>173.2</ele><time>2026-03-29T15:21:40.654Z</time></trkpt><trkpt lat="44.8514317" lon="9.5328667"><ele>173.0</ele><time>2026-03-29T15:21:41.654Z</time></trkpt><trkpt lat="44.8515167" lon="9.5329267"><ele>172.5</ele><time>2026-03-29T15:21:42.654Z</time></trkpt><trkpt lat="44.851635" lon="9.5329467"><ele>172.0</ele><time>2026-03-29T15:21:43.653Z</time></trkpt><trkpt lat="44.8517567" lon="9.53296"><ele>171.5</ele><time>2026-03-29T15:21:44.654Z</time></trkpt><trkpt lat="44.8518733" lon="9.53298"><ele>171.0</ele><time>2026-03-29T15:21:45.653Z</time></trkpt><trkpt lat="44.8519883" lon="9.533005"><ele>171.0</ele><time>2026-03-29T15:21:46.654Z</time></trkpt><trkpt lat="44.8521067" lon="9.5330267"><ele>171.0</ele><time>2026-03-29T15:21:47.654Z</time></trkpt><trkpt lat="44.852225" lon="9.5330533"><ele>171.0</ele><time>2026-03-29T15:21:48.655Z</time></trkpt><trkpt lat="44.852345" lon="9.533085"><ele>171.0</ele><time>2026-03-29T15:21:49.653Z</time></trkpt><trkpt lat="44.8524667" lon="9.53312"><ele>171.0</ele><time>2026-03-29T15:21:50.654Z</time></trkpt><trkpt lat="44.85259" lon="9.5331683"><ele>171.0</ele><time>2026-03-29T15:21:51.654Z</time></trkpt><trkpt lat="44.8527083" lon="9.5332333"><ele>171.0</ele><time>2026-03-29T15:21:52.655Z</time></trkpt><trkpt lat="44.8528217" lon="9.53331"><ele>171.0</ele><time>2026-03-29T15:21:53.653Z</time></trkpt><trkpt lat="44.852935" lon="9.5333733"><ele>171.5</ele><time>2026-03-29T15:21:54.654Z</time></trkpt><trkpt lat="44.8530517" lon="9.533415"><ele>172.0</ele><time>2026-03-29T15:21:55.654Z</time></trkpt><trkpt lat="44.8531683" lon="9.5334483"><ele>172.5</ele><time>2026-03-29T15:21:56.654Z</time></trkpt><trkpt lat="44.8532883" lon="9.5334867"><ele>173.0</ele><time>2026-03-29T15:21:57.653Z</time></trkpt><trkpt lat="44.8534167" lon="9.533525"><ele>172.75</ele><time>2026-03-29T15:21:58.653Z</time></trkpt><trkpt lat="44.8535517" lon="9.5335583"><ele>172.5</ele><time>2026-03-29T15:21:59.653Z</time></trkpt><trkpt lat="44.853685" lon="9.5335917"><ele>172.25</ele><time>2026-03-29T15:22:00.655Z</time></trkpt><trkpt lat="44.8538133" lon="9.5336283"><ele>172.0</ele><time>2026-03-29T15:22:01.652Z</time></trkpt><trkpt lat="44.8539333" lon="9.533665"><ele>172.0</ele><time>2026-03-29T15:22:02.655Z</time></trkpt><trkpt lat="44.8540483" lon="9.5337017"><ele>172.0</ele><time>2026-03-29T15:22:03.653Z</time></trkpt><trkpt lat="44.8541583" lon="9.5337317"><ele>172.0</ele><time>2026-03-29T15:22:04.655Z</time></trkpt><trkpt lat="44.8542683" lon="9.5337567"><ele>172.0</ele><time>2026-03-29T15:22:05.654Z</time></trkpt><trkpt lat="44.8543783" lon="9.533775"><ele>172.75</ele><time>2026-03-29T15:22:06.655Z</time></trkpt><trkpt lat="44.8544917" lon="9.5337867"><ele>173.5</ele><time>2026-03-29T15:22:07.653Z</time></trkpt><trkpt lat="44.85461" lon="9.5337783"><ele>174.25</ele><time>2026-03-29T15:22:08.654Z</time></trkpt><trkpt lat="44.854735" lon="9.5337433"><ele>175.0</ele><time>2026-03-29T15:22:09.655Z</time></trkpt><trkpt lat="44.854865" lon="9.5336817"><ele>175.0</ele><time>2026-03-29T15:22:10.653Z</time></trkpt><trkpt lat="44.8549933" lon="9.5336067"><ele>175.0</ele><time>2026-03-29T15:22:11.654Z</time></trkpt><trkpt lat="44.8551133" lon="9.533535"><ele>175.0</ele><time>2026-03-29T15:22:12.653Z</time></trkpt><trkpt lat="44.8552317" lon="9.53348"><ele>175.0</ele><time>2026-03-29T15:22:13.654Z</time></trkpt><trkpt lat="44.85535" lon="9.533445"><ele>176.8</ele><time>2026-03-29T15:22:14.653Z</time></trkpt><trkpt lat="44.8554667" lon="9.53343"><ele>178.6</ele><time>2026-03-29T15:22:15.654Z</time></trkpt><trkpt lat="44.8555733" lon="9.5334283"><ele>180.39999999999998</ele><time>2026-03-29T15:22:16.653Z</time></trkpt><trkpt lat="44.855675" lon="9.5334367"><ele>182.2</ele><time>2026-03-29T15:22:17.653Z</time></trkpt><trkpt lat="44.85577" lon="9.533465"><ele>184.0</ele><time>2026-03-29T15:22:18.654Z</time></trkpt><trkpt lat="44.85585" lon="9.533515"><ele>184.0</ele><time>2026-03-29T15:22:19.654Z</time></trkpt><trkpt lat="44.8559283" lon="9.533565"><ele>184.0</ele><time>2026-03-29T15:22:20.654Z</time></trkpt><trkpt lat="44.85602" lon="9.53361"><ele>184.0</ele><time>2026-03-29T15:22:21.654Z</time></trkpt><trkpt lat="44.8561233" lon="9.5336467"><ele>184.0</ele><time>2026-03-29T15:22:22.653Z</time></trkpt><trkpt lat="44.8562317" lon="9.5336983"><ele>184.0</ele><time>2026-03-29T15:22:23.654Z</time></trkpt><trkpt lat="44.85635" lon="9.53377"><ele>182.25</ele><time>2026-03-29T15:22:24.653Z</time></trkpt><trkpt lat="44.8564733" lon="9.5338533"><ele>180.5</ele><time>2026-03-29T15:22:25.654Z</time></trkpt><trkpt lat="44.8565933" lon="9.5339367"><ele>178.75</ele><time>2026-03-29T15:22:26.654Z</time></trkpt><trkpt lat="44.85671" lon="9.534015"><ele>177.0</ele><time>2026-03-29T15:22:27.654Z</time></trkpt><trkpt lat="44.8568233" lon="9.5340867"><ele>177.75</ele><time>2026-03-29T15:22:28.653Z</time></trkpt><trkpt lat="44.8569417" lon="9.5341717"><ele>178.5</ele><time>2026-03-29T15:22:29.653Z</time></trkpt><trkpt lat="44.857065" lon="9.5342883"><ele>179.25</ele><time>2026-03-29T15:22:30.653Z</time></trkpt><trkpt lat="44.8571833" lon="9.5344217"><ele>180.0</ele><time>2026-03-29T15:22:31.654Z</time></trkpt><trkpt lat="44.8572917" lon="9.5345617"><ele>180.0</ele><time>2026-03-29T15:22:32.655Z</time></trkpt><trkpt lat="44.8573833" lon="9.5346917"><ele>180.0</ele><time>2026-03-29T15:22:33.654Z</time></trkpt><trkpt lat="44.8574667" lon="9.5348217"><ele>180.0</ele><time>2026-03-29T15:22:34.653Z</time></trkpt><trkpt lat="44.8575517" lon="9.5349483"><ele>180.0</ele><time>2026-03-29T15:22:35.654Z</time></trkpt><trkpt lat="44.85764" lon="9.535065"><ele>179.25</ele><time>2026-03-29T15:22:36.653Z</time></trkpt><trkpt lat="44.85774" lon="9.535175"><ele>178.5</ele><time>2026-03-29T15:22:37.654Z</time></trkpt><trkpt lat="44.8578567" lon="9.535265"><ele>177.75</ele><time>2026-03-29T15:22:38.653Z</time></trkpt><trkpt lat="44.857975" lon="9.53534"><ele>177.0</ele><time>2026-03-29T15:22:39.654Z</time></trkpt><trkpt lat="44.8580867" lon="9.5354133"><ele>177.0</ele><time>2026-03-29T15:22:40.654Z</time></trkpt><trkpt lat="44.8581833" lon="9.5354983"><ele>177.0</ele><time>2026-03-29T15:22:41.655Z</time></trkpt><trkpt lat="44.8582667" lon="9.535605"><ele>177.0</ele><time>2026-03-29T15:22:42.654Z</time></trkpt><trkpt lat="44.8583367" lon="9.535725"><ele>177.0</ele><time>2026-03-29T15:22:43.654Z</time></trkpt><trkpt lat="44.8584017" lon="9.5358333"><ele>177.0</ele><time>2026-03-29T15:22:44.654Z</time></trkpt><trkpt lat="44.8584783" lon="9.5359233"><ele>180.75</ele><time>2026-03-29T15:22:45.654Z</time></trkpt><trkpt lat="44.85858" lon="9.535995"><ele>184.5</ele><time>2026-03-29T15:22:46.653Z</time></trkpt><trkpt lat="44.8587067" lon="9.53606"><ele>188.25</ele><time>2026-03-29T15:22:47.653Z</time></trkpt><trkpt lat="44.85884" lon="9.5361283"><ele>192.0</ele><time>2026-03-29T15:22:48.654Z</time></trkpt><trkpt lat="44.8589633" lon="9.5361833"><ele>192.0</ele><time>2026-03-29T15:22:49.654Z</time></trkpt><trkpt lat="44.8590783" lon="9.536215"><ele>192.0</ele><time>2026-03-29T15:22:50.654Z</time></trkpt><trkpt lat="44.8592033" lon="9.536215"><ele>192.0</ele><time>2026-03-29T15:22:51.653Z</time></trkpt><trkpt lat="44.859345" lon="9.5362033"><ele>192.0</ele><time>2026-03-29T15:22:52.654Z</time></trkpt><trkpt lat="44.8594933" lon="9.536205"><ele>192.0</ele><time>2026-03-29T15:22:53.654Z</time></trkpt><trkpt lat="44.8596367" lon="9.5362267"><ele>192.0</ele><time>2026-03-29T15:22:54.654Z</time></trkpt><trkpt lat="44.8597683" lon="9.536265"><ele>192.0</ele><time>2026-03-29T15:22:55.654Z</time></trkpt><trkpt lat="44.8598833" lon="9.5363217"><ele>192.0</ele><time>2026-03-29T15:22:56.654Z</time></trkpt><trkpt lat="44.859975" lon="9.536395"><ele>192.0</ele><time>2026-03-29T15:22:57.652Z</time></trkpt><trkpt lat="44.86004" lon="9.53648"><ele>192.0</ele><time>2026-03-29T15:22:58.653Z</time></trkpt><trkpt lat="44.8600833" lon="9.5365833"><ele>192.0</ele><time>2026-03-29T15:22:59.654Z</time></trkpt><trkpt lat="44.8601117" lon="9.536695"><ele>192.0</ele><time>2026-03-29T15:23:00.654Z</time></trkpt><trkpt lat="44.8601383" lon="9.5367933"><ele>192.0</ele><time>2026-03-29T15:23:01.653Z</time></trkpt><trkpt lat="44.8601667" lon="9.5368983"><ele>192.0</ele><time>2026-03-29T15:23:02.654Z</time></trkpt><trkpt lat="44.8601833" lon="9.537035"><ele>195.0</ele><time>2026-03-29T15:23:03.653Z</time></trkpt><trkpt lat="44.8602017" lon="9.537205"><ele>198.0</ele><time>2026-03-29T15:23:04.654Z</time></trkpt><trkpt lat="44.8602283" lon="9.5374117"><ele>201.0</ele><time>2026-03-29T15:23:05.653Z</time></trkpt><trkpt lat="44.86027" lon="9.5376417"><ele>204.0</ele><time>2026-03-29T15:23:06.654Z</time></trkpt><trkpt lat="44.8603183" lon="9.53788"><ele>203.66666666666669</ele><time>2026-03-29T15:23:07.653Z</time></trkpt><trkpt lat="44.860365" lon="9.5381183"><ele>203.33333333333334</ele><time>2026-03-29T15:23:08.655Z</time></trkpt><trkpt lat="44.8604033" lon="9.5383317"><ele>203.0</ele><time>2026-03-29T15:23:09.654Z</time></trkpt><trkpt lat="44.8604367" lon="9.5385217"><ele>203.0</ele><time>2026-03-29T15:23:10.654Z</time></trkpt><trkpt lat="44.860475" lon="9.5386917"><ele>203.0</ele><time>2026-03-29T15:23:11.655Z</time></trkpt><trkpt lat="44.86053" lon="9.5388583"><ele>203.0</ele><time>2026-03-29T15:23:12.661Z</time></trkpt><trkpt lat="44.8605933" lon="9.5390217"><ele>203.0</ele><time>2026-03-29T15:23:13.655Z</time></trkpt><trkpt lat="44.86065" lon="9.5391817"><ele>202.25</ele><time>2026-03-29T15:23:14.655Z</time></trkpt><trkpt lat="44.8606767" lon="9.5393383"><ele>201.5</ele><time>2026-03-29T15:23:15.655Z</time></trkpt><trkpt lat="44.8606667" lon="9.5394967"><ele>200.75</ele><time>2026-03-29T15:23:16.654Z</time></trkpt><trkpt lat="44.8606333" lon="9.5396617"><ele>200.0</ele><time>2026-03-29T15:23:17.656Z</time></trkpt><trkpt lat="44.8605983" lon="9.5398283"><ele>199.5</ele><time>2026-03-29T15:23:18.653Z</time></trkpt><trkpt lat="44.860575" lon="9.5399917"><ele>199.0</ele><time>2026-03-29T15:23:19.655Z</time></trkpt><trkpt lat="44.8605817" lon="9.54016"><ele>198.5</ele><time>2026-03-29T15:23:20.654Z</time></trkpt><trkpt lat="44.860625" lon="9.5403367"><ele>198.0</ele><time>2026-03-29T15:23:21.654Z</time></trkpt><trkpt lat="44.8607" lon="9.5405183"><ele>196.33333333333331</ele><time>2026-03-29T15:23:22.654Z</time></trkpt><trkpt lat="44.8607917" lon="9.540695"><ele>194.66666666666666</ele><time>2026-03-29T15:23:23.654Z</time></trkpt><trkpt lat="44.8608867" lon="9.5408633"><ele>193.0</ele><time>2026-03-29T15:23:24.655Z</time></trkpt><trkpt lat="44.8609767" lon="9.5410217"><ele>193.0</ele><time>2026-03-29T15:23:25.654Z</time></trkpt><trkpt lat="44.8610667" lon="9.5411717"><ele>193.0</ele><time>2026-03-29T15:23:26.653Z</time></trkpt><trkpt lat="44.8611583" lon="9.541315"><ele>193.0</ele><time>2026-03-29T15:23:27.653Z</time></trkpt><trkpt lat="44.8612483" lon="9.5414533"><ele>193.0</ele><time>2026-03-29T15:23:28.653Z</time></trkpt><trkpt lat="44.8613367" lon="9.541585"><ele>191.5</ele><time>2026-03-29T15:23:29.654Z</time></trkpt><trkpt lat="44.8614217" lon="9.5417117"><ele>190.0</ele><time>2026-03-29T15:23:30.653Z</time></trkpt><trkpt lat="44.8615083" lon="9.5418267"><ele>188.5</ele><time>2026-03-29T15:23:31.654Z</time></trkpt><trkpt lat="44.86159" lon="9.5419467"><ele>187.0</ele><time>2026-03-29T15:23:32.654Z</time></trkpt><trkpt lat="44.8616567" lon="9.5420767"><ele>186.39999999999998</ele><time>2026-03-29T15:23:33.654Z</time></trkpt><trkpt lat="44.8617033" lon="9.54222"><ele>185.79999999999998</ele><time>2026-03-29T15:23:34.654Z</time></trkpt><trkpt lat="44.8617417" lon="9.5423617"><ele>185.2</ele><time>2026-03-29T15:23:35.654Z</time></trkpt><trkpt lat="44.8617767" lon="9.54249"><ele>184.6</ele><time>2026-03-29T15:23:36.655Z</time></trkpt><trkpt lat="44.86181" lon="9.5425983"><ele>184.0</ele><time>2026-03-29T15:23:37.655Z</time></trkpt><trkpt lat="44.8618383" lon="9.5426783"><ele>183.83333333333334</ele><time>2026-03-29T15:23:38.654Z</time></trkpt><trkpt lat="44.86188" lon="9.5427667"><ele>183.66666666666669</ele><time>2026-03-29T15:23:40.654Z</time></trkpt><trkpt lat="44.86196" lon="9.5428"><ele>183.5</ele><time>2026-03-29T15:23:42.653Z</time></trkpt><trkpt lat="44.8620233" lon="9.542825"><ele>183.33333333333334</ele><time>2026-03-29T15:23:43.654Z</time></trkpt><trkpt lat="44.8620933" lon="9.542865"><ele>183.16666666666666</ele><time>2026-03-29T15:23:44.654Z</time></trkpt><trkpt lat="44.8621683" lon="9.5429183"><ele>183.0</ele><time>2026-03-29T15:23:45.653Z</time></trkpt><trkpt lat="44.862245" lon="9.5429817"><ele>182.5</ele><time>2026-03-29T15:23:46.654Z</time></trkpt><trkpt lat="44.862325" lon="9.5430467"><ele>182.0</ele><time>2026-03-29T15:23:47.655Z</time></trkpt><trkpt lat="44.8624033" lon="9.5431117"><ele>181.5</ele><time>2026-03-29T15:23:48.654Z</time></trkpt><trkpt lat="44.8624767" lon="9.543175"><ele>181.0</ele><time>2026-03-29T15:23:49.655Z</time></trkpt><trkpt lat="44.8625467" lon="9.5432367"><ele>180.5</ele><time>2026-03-29T15:23:50.656Z</time></trkpt><trkpt lat="44.8626217" lon="9.5432967"><ele>180.0</ele><time>2026-03-29T15:23:51.654Z</time></trkpt><trkpt lat="44.8627083" lon="9.543355"><ele>180.0</ele><time>2026-03-29T15:23:52.654Z</time></trkpt><trkpt lat="44.862815" lon="9.5434217"><ele>180.0</ele><time>2026-03-29T15:23:53.655Z</time></trkpt><trkpt lat="44.8629267" lon="9.5435017"><ele>180.0</ele><time>2026-03-29T15:23:54.654Z</time></trkpt><trkpt lat="44.8630383" lon="9.5435883"><ele>180.0</ele><time>2026-03-29T15:23:55.654Z</time></trkpt><trkpt lat="44.8631467" lon="9.5436767"><ele>179.75</ele><time>2026-03-29T15:23:56.654Z</time></trkpt><trkpt lat="44.863255" lon="9.54376"><ele>179.5</ele><time>2026-03-29T15:23:57.653Z</time></trkpt><trkpt lat="44.8633617" lon="9.5438417"><ele>179.25</ele><time>2026-03-29T15:23:58.653Z</time></trkpt><trkpt lat="44.863465" lon="9.5439217"><ele>179.0</ele><time>2026-03-29T15:23:59.653Z</time></trkpt><trkpt lat="44.86356" lon="9.5439983"><ele>179.0</ele><time>2026-03-29T15:24:00.654Z</time></trkpt><trkpt lat="44.86365" lon="9.54407"><ele>179.0</ele><time>2026-03-29T15:24:01.655Z</time></trkpt><trkpt lat="44.8637333" lon="9.5441383"><ele>179.0</ele><time>2026-03-29T15:24:02.655Z</time></trkpt><trkpt lat="44.8638117" lon="9.5441983"><ele>179.0</ele><time>2026-03-29T15:24:03.654Z</time></trkpt><trkpt lat="44.86389" lon="9.5442583"><ele>179.0</ele><time>2026-03-29T15:24:04.653Z</time></trkpt><trkpt lat="44.8639783" lon="9.544325"><ele>179.0</ele><time>2026-03-29T15:24:05.654Z</time></trkpt><trkpt lat="44.8640767" lon="9.5443983"><ele>179.0</ele><time>2026-03-29T15:24:06.654Z</time></trkpt><trkpt lat="44.8641817" lon="9.5444733"><ele>179.0</ele><time>2026-03-29T15:24:07.654Z</time></trkpt><trkpt lat="44.8642833" lon="9.5445433"><ele>179.0</ele><time>2026-03-29T15:24:08.654Z</time></trkpt><trkpt lat="44.8643783" lon="9.5446167"><ele>178.79999999999998</ele><time>2026-03-29T15:24:09.654Z</time></trkpt><trkpt lat="44.8644683" lon="9.5446867"><ele>178.6</ele><time>2026-03-29T15:24:10.655Z</time></trkpt><trkpt lat="44.86455" lon="9.5447533"><ele>178.4</ele><time>2026-03-29T15:24:11.654Z</time></trkpt><trkpt lat="44.8646133" lon="9.5448083"><ele>178.2</ele><time>2026-03-29T15:24:12.654Z</time></trkpt><trkpt lat="44.8646683" lon="9.5449317"><ele>178.0</ele><time>2026-03-29T15:24:14.654Z</time></trkpt><trkpt lat="44.86464" lon="9.5451117"><ele>178.0</ele><time>2026-03-29T15:24:16.654Z</time></trkpt><trkpt lat="44.864605" lon="9.54524"><ele>178.0</ele><time>2026-03-29T15:24:17.654Z</time></trkpt><trkpt lat="44.8645683" lon="9.5453867"><ele>178.0</ele><time>2026-03-29T15:24:18.654Z</time></trkpt><trkpt lat="44.8645333" lon="9.5455333"><ele>178.0</ele><time>2026-03-29T15:24:19.654Z</time></trkpt><trkpt lat="44.8645017" lon="9.5456717"><ele>178.0</ele><time>2026-03-29T15:24:20.655Z</time></trkpt><trkpt lat="44.8644733" lon="9.5457883"><ele>177.5</ele><time>2026-03-29T15:24:21.655Z</time></trkpt><trkpt lat="44.8644483" lon="9.54588"><ele>177.0</ele><time>2026-03-29T15:24:22.654Z</time></trkpt><trkpt lat="44.86442" lon="9.546"><ele>176.5</ele><time>2026-03-29T15:24:24.654Z</time></trkpt><trkpt lat="44.864485" lon="9.5461067"><ele>176.0</ele><time>2026-03-29T15:24:29.654Z</time></trkpt><trkpt lat="44.864555" lon="9.54614"><ele>175.5</ele><time>2026-03-29T15:24:30.653Z</time></trkpt><trkpt lat="44.8646483" lon="9.5461683"><ele>175.0</ele><time>2026-03-29T15:24:31.654Z</time></trkpt><trkpt lat="44.8647633" lon="9.5461967"><ele>174.5</ele><time>2026-03-29T15:24:32.655Z</time></trkpt><trkpt lat="44.8648917" lon="9.5462267"><ele>174.0</ele><time>2026-03-29T15:24:33.653Z</time></trkpt><trkpt lat="44.865025" lon="9.54626"><ele>173.5</ele><time>2026-03-29T15:24:34.654Z</time></trkpt><trkpt lat="44.8651633" lon="9.54629"><ele>173.0</ele><time>2026-03-29T15:24:35.654Z</time></trkpt><trkpt lat="44.8653017" lon="9.5463217"><ele>173.0</ele><time>2026-03-29T15:24:36.654Z</time></trkpt><trkpt lat="44.8654367" lon="9.5463517"><ele>173.0</ele><time>2026-03-29T15:24:37.655Z</time></trkpt><trkpt lat="44.865565" lon="9.5463767"><ele>173.0</ele><time>2026-03-29T15:24:38.655Z</time></trkpt><trkpt lat="44.8656917" lon="9.5464033"><ele>173.0</ele><time>2026-03-29T15:24:39.653Z</time></trkpt><trkpt lat="44.8658233" lon="9.5464317"><ele>173.0</ele><time>2026-03-29T15:24:40.653Z</time></trkpt><trkpt lat="44.8659583" lon="9.5464733"><ele>173.0</ele><time>2026-03-29T15:24:41.654Z</time></trkpt><trkpt lat="44.8661" lon="9.546525"><ele>173.0</ele><time>2026-03-29T15:24:42.654Z</time></trkpt><trkpt lat="44.8662467" lon="9.546585"><ele>173.0</ele><time>2026-03-29T15:24:43.655Z</time></trkpt><trkpt lat="44.8663933" lon="9.5466467"><ele>173.0</ele><time>2026-03-29T15:24:44.654Z</time></trkpt><trkpt lat="44.8665367" lon="9.5467033"><ele>173.0</ele><time>2026-03-29T15:24:45.654Z</time></trkpt><trkpt lat="44.866675" lon="9.54676"><ele>173.0</ele><time>2026-03-29T15:24:46.652Z</time></trkpt><trkpt lat="44.8668083" lon="9.546815"><ele>173.0</ele><time>2026-03-29T15:24:47.653Z</time></trkpt><trkpt lat="44.8669433" lon="9.5468733"><ele>173.0</ele><time>2026-03-29T15:24:48.653Z</time></trkpt><trkpt lat="44.86708" lon="9.54694"><ele>173.0</ele><time>2026-03-29T15:24:49.655Z</time></trkpt><trkpt lat="44.86722" lon="9.547015"><ele>173.0</ele><time>2026-03-29T15:24:50.654Z</time></trkpt><trkpt lat="44.8673567" lon="9.5471"><ele>173.0</ele><time>2026-03-29T15:24:51.653Z</time></trkpt><trkpt lat="44.8674883" lon="9.54719"><ele>172.0</ele><time>2026-03-29T15:24:52.654Z</time></trkpt><trkpt lat="44.8676233" lon="9.5472817"><ele>171.0</ele><time>2026-03-29T15:24:53.655Z</time></trkpt><trkpt lat="44.8677667" lon="9.54737"><ele>170.0</ele><time>2026-03-29T15:24:54.654Z</time></trkpt><trkpt lat="44.8679117" lon="9.5474517"><ele>170.0</ele><time>2026-03-29T15:24:55.653Z</time></trkpt><trkpt lat="44.8680467" lon="9.5475233"><ele>170.0</ele><time>2026-03-29T15:24:56.654Z</time></trkpt><trkpt lat="44.86818" lon="9.547585"><ele>170.0</ele><time>2026-03-29T15:24:57.654Z</time></trkpt><trkpt lat="44.8683117" lon="9.5476417"><ele>170.0</ele><time>2026-03-29T15:24:58.654Z</time></trkpt><trkpt lat="44.8684417" lon="9.5476983"><ele>170.25</ele><time>2026-03-29T15:24:59.654Z</time></trkpt><trkpt lat="44.8685717" lon="9.5477533"><ele>170.5</ele><time>2026-03-29T15:25:00.654Z</time></trkpt><trkpt lat="44.8687067" lon="9.5478067"><ele>170.75</ele><time>2026-03-29T15:25:01.653Z</time></trkpt><trkpt lat="44.8688483" lon="9.54786"><ele>171.0</ele><time>2026-03-29T15:25:02.654Z</time></trkpt><trkpt lat="44.86899" lon="9.5479167"><ele>171.0</ele><time>2026-03-29T15:25:03.652Z</time></trkpt><trkpt lat="44.8691317" lon="9.5479817"><ele>171.0</ele><time>2026-03-29T15:25:04.654Z</time></trkpt><trkpt lat="44.869275" lon="9.5480517"><ele>171.0</ele><time>2026-03-29T15:25:05.654Z</time></trkpt><trkpt lat="44.8694167" lon="9.5481217"><ele>171.0</ele><time>2026-03-29T15:25:06.657Z</time></trkpt><trkpt lat="44.869555" lon="9.5481867"><ele>171.0</ele><time>2026-03-29T15:25:07.653Z</time></trkpt><trkpt lat="44.86969" lon="9.54825"><ele>171.0</ele><time>2026-03-29T15:25:08.654Z</time></trkpt><trkpt lat="44.86983" lon="9.5483117"><ele>171.0</ele><time>2026-03-29T15:25:09.654Z</time></trkpt><trkpt lat="44.869975" lon="9.5483733"><ele>170.66666666666666</ele><time>2026-03-29T15:25:10.654Z</time></trkpt><trkpt lat="44.8701233" lon="9.5484333"><ele>170.33333333333331</ele><time>2026-03-29T15:25:11.655Z</time></trkpt><trkpt lat="44.870275" lon="9.54849"><ele>170.0</ele><time>2026-03-29T15:25:12.654Z</time></trkpt><trkpt lat="44.8704267" lon="9.5485433"><ele>170.0</ele><time>2026-03-29T15:25:13.654Z</time></trkpt><trkpt lat="44.8705767" lon="9.5485917"><ele>170.0</ele><time>2026-03-29T15:25:14.654Z</time></trkpt><trkpt lat="44.8707283" lon="9.5486367"><ele>170.0</ele><time>2026-03-29T15:25:15.654Z</time></trkpt><trkpt lat="44.8708767" lon="9.548675"><ele>170.0</ele><time>2026-03-29T15:25:16.653Z</time></trkpt><trkpt lat="44.871025" lon="9.54871"><ele>170.0</ele><time>2026-03-29T15:25:17.654Z</time></trkpt><trkpt lat="44.87117" lon="9.5487433"><ele>170.0</ele><time>2026-03-29T15:25:18.654Z</time></trkpt><trkpt lat="44.8713133" lon="9.5487733"><ele>170.0</ele><time>2026-03-29T15:25:19.654Z</time></trkpt><trkpt lat="44.8714533" lon="9.5487933"><ele>170.0</ele><time>2026-03-29T15:25:20.656Z</time></trkpt><trkpt lat="44.871595" lon="9.5487983"><ele>170.0</ele><time>2026-03-29T15:25:21.652Z</time></trkpt><trkpt lat="44.8717317" lon="9.5487917"><ele>170.0</ele><time>2026-03-29T15:25:22.654Z</time></trkpt><trkpt lat="44.8718667" lon="9.5487783"><ele>170.0</ele><time>2026-03-29T15:25:23.657Z</time></trkpt><trkpt lat="44.8719933" lon="9.5487633"><ele>170.0</ele><time>2026-03-29T15:25:24.654Z</time></trkpt><trkpt lat="44.872115" lon="9.5487517"><ele>170.0</ele><time>2026-03-29T15:25:25.654Z</time></trkpt><trkpt lat="44.8722317" lon="9.5487383"><ele>170.0</ele><time>2026-03-29T15:25:26.654Z</time></trkpt><trkpt lat="44.872345" lon="9.5487167"><ele>170.0</ele><time>2026-03-29T15:25:27.653Z</time></trkpt><trkpt lat="44.8724583" lon="9.5486833"><ele>169.8</ele><time>2026-03-29T15:25:28.653Z</time></trkpt><trkpt lat="44.8725683" lon="9.5486333"><ele>169.6</ele><time>2026-03-29T15:25:29.654Z</time></trkpt><trkpt lat="44.87267" lon="9.5485733"><ele>169.39999999999998</ele><time>2026-03-29T15:25:30.652Z</time></trkpt><trkpt lat="44.8727617" lon="9.5485"><ele>169.2</ele><time>2026-03-29T15:25:31.654Z</time></trkpt><trkpt lat="44.8728433" lon="9.5484183"><ele>169.0</ele><time>2026-03-29T15:25:32.654Z</time></trkpt><trkpt lat="44.8729183" lon="9.5483267"><ele>169.0</ele><time>2026-03-29T15:25:33.653Z</time></trkpt><trkpt lat="44.8729883" lon="9.5482317"><ele>169.0</ele><time>2026-03-29T15:25:34.654Z</time></trkpt><trkpt lat="44.87305" lon="9.5481367"><ele>169.0</ele><time>2026-03-29T15:25:35.654Z</time></trkpt><trkpt lat="44.873105" lon="9.548055"><ele>169.0</ele><time>2026-03-29T15:25:36.654Z</time></trkpt><trkpt lat="44.8731483" lon="9.5479883"><ele>169.0</ele><time>2026-03-29T15:25:37.653Z</time></trkpt><trkpt lat="44.8732383" lon="9.54793"><ele>169.0</ele><time>2026-03-29T15:25:39.653Z</time></trkpt><trkpt lat="44.8733433" lon="9.547935"><ele>172.0</ele><time>2026-03-29T15:25:41.654Z</time></trkpt><trkpt lat="44.8734533" lon="9.5479567"><ele>175.0</ele><time>2026-03-29T15:25:43.654Z</time></trkpt><trkpt lat="44.8735567" lon="9.5480267"><ele>178.0</ele><time>2026-03-29T15:25:45.653Z</time></trkpt><trkpt lat="44.8735967" lon="9.5481"><ele>181.0</ele><time>2026-03-29T15:25:46.654Z</time></trkpt><trkpt lat="44.87362" lon="9.5481933"><ele>184.0</ele><time>2026-03-29T15:25:47.654Z</time></trkpt><trkpt lat="44.873625" lon="9.5482883"><ele>187.0</ele><time>2026-03-29T15:25:48.654Z</time></trkpt><trkpt lat="44.8736233" lon="9.5483883"><ele>187.0</ele><time>2026-03-29T15:25:49.653Z</time></trkpt><trkpt lat="44.8736233" lon="9.5484817"><ele>187.0</ele><time>2026-03-29T15:25:50.654Z</time></trkpt><trkpt lat="44.8736217" lon="9.548655"><ele>187.0</ele><time>2026-03-29T15:25:52.653Z</time></trkpt><trkpt lat="44.8736367" lon="9.548825"><ele>187.0</ele><time>2026-03-29T15:25:54.654Z</time></trkpt><trkpt lat="44.8736667" lon="9.5489833"><ele>187.0</ele><time>2026-03-29T15:25:56.654Z</time></trkpt><trkpt lat="44.8737117" lon="9.549135"><ele>185.16666666666669</ele><time>2026-03-29T15:25:58.654Z</time></trkpt><trkpt lat="44.873745" lon="9.5492167"><ele>183.33333333333334</ele><time>2026-03-29T15:25:59.653Z</time></trkpt><trkpt lat="44.87379" lon="9.5493033"><ele>181.5</ele><time>2026-03-29T15:26:00.652Z</time></trkpt><trkpt lat="44.8738483" lon="9.549385"><ele>179.66666666666666</ele><time>2026-03-29T15:26:01.653Z</time></trkpt><trkpt lat="44.8739267" lon="9.5494633"><ele>177.83333333333331</ele><time>2026-03-29T15:26:02.655Z</time></trkpt><trkpt lat="44.874015" lon="9.5495383"><ele>176.0</ele><time>2026-03-29T15:26:03.654Z</time></trkpt><trkpt lat="44.8741033" lon="9.54961"><ele>174.4</ele><time>2026-03-29T15:26:04.654Z</time></trkpt><trkpt lat="44.874195" lon="9.5496767"><ele>172.8</ele><time>2026-03-29T15:26:05.654Z</time></trkpt><trkpt lat="44.8742933" lon="9.5497317"><ele>171.20000000000002</ele><time>2026-03-29T15:26:06.653Z</time></trkpt><trkpt lat="44.8744033" lon="9.5497767"><ele>169.60000000000002</ele><time>2026-03-29T15:26:07.657Z</time></trkpt><trkpt lat="44.8745167" lon="9.54982"><ele>168.0</ele><time>2026-03-29T15:26:08.653Z</time></trkpt><trkpt lat="44.8746333" lon="9.54986"><ele>168.0</ele><time>2026-03-29T15:26:09.654Z</time></trkpt><trkpt lat="44.8747483" lon="9.5499033"><ele>168.0</ele><time>2026-03-29T15:26:10.653Z</time></trkpt><trkpt lat="44.8748567" lon="9.54994"><ele>168.0</ele><time>2026-03-29T15:26:11.654Z</time></trkpt><trkpt lat="44.8749533" lon="9.5499683"><ele>168.0</ele><time>2026-03-29T15:26:12.654Z</time></trkpt><trkpt lat="44.8750417" lon="9.5499733"><ele>168.0</ele><time>2026-03-29T15:26:13.655Z</time></trkpt><trkpt lat="44.8751267" lon="9.54995"><ele>168.5</ele><time>2026-03-29T15:26:14.654Z</time></trkpt><trkpt lat="44.8752" lon="9.5498983"><ele>169.0</ele><time>2026-03-29T15:26:15.653Z</time></trkpt><trkpt lat="44.8752433" lon="9.5497967"><ele>169.5</ele><time>2026-03-29T15:26:16.653Z</time></trkpt><trkpt lat="44.8752633" lon="9.5496583"><ele>170.0</ele><time>2026-03-29T15:26:17.652Z</time></trkpt><trkpt lat="44.87529" lon="9.5495317"><ele>170.5</ele><time>2026-03-29T15:26:18.655Z</time></trkpt><trkpt lat="44.875325" lon="9.5494217"><ele>171.0</ele><time>2026-03-29T15:26:19.654Z</time></trkpt><trkpt lat="44.8753717" lon="9.5493367"><ele>171.16666666666666</ele><time>2026-03-29T15:26:20.655Z</time></trkpt><trkpt lat="44.875435" lon="9.54929"><ele>171.33333333333334</ele><time>2026-03-29T15:26:21.652Z</time></trkpt><trkpt lat="44.875515" lon="9.549295"><ele>171.5</ele><time>2026-03-29T15:26:22.654Z</time></trkpt><trkpt lat="44.8756083" lon="9.54933"><ele>171.66666666666669</ele><time>2026-03-29T15:26:23.653Z</time></trkpt><trkpt lat="44.8757033" lon="9.5493767"><ele>171.83333333333334</ele><time>2026-03-29T15:26:24.654Z</time></trkpt><trkpt lat="44.87579" lon="9.5494217"><ele>172.0</ele><time>2026-03-29T15:26:25.653Z</time></trkpt><trkpt lat="44.87587" lon="9.5494583"><ele>176.2</ele><time>2026-03-29T15:26:26.654Z</time></trkpt><trkpt lat="44.8759417" lon="9.5494883"><ele>180.39999999999998</ele><time>2026-03-29T15:26:27.653Z</time></trkpt><trkpt lat="44.8760117" lon="9.549435"><ele>184.60000000000002</ele><time>2026-03-29T15:26:29.654Z</time></trkpt><trkpt lat="44.8760533" lon="9.549295"><ele>188.8</ele><time>2026-03-29T15:26:31.653Z</time></trkpt><trkpt lat="44.8761" lon="9.5491517"><ele>193.0</ele><time>2026-03-29T15:26:33.653Z</time></trkpt><trkpt lat="44.8761267" lon="9.549045"><ele>193.0</ele><time>2026-03-29T15:26:35.654Z</time></trkpt><trkpt lat="44.8761517" lon="9.5489067"><ele>193.0</ele><time>2026-03-29T15:27:09.653Z</time></trkpt><trkpt lat="44.8761833" lon="9.548715"><ele>193.0</ele><time>2026-03-29T15:27:11.654Z</time></trkpt><trkpt lat="44.8761867" lon="9.5485983"><ele>193.0</ele><time>2026-03-29T15:27:12.654Z</time></trkpt><trkpt lat="44.876195" lon="9.54847"><ele>193.0</ele><time>2026-03-29T15:27:13.654Z</time></trkpt><trkpt lat="44.87621" lon="9.5483333"><ele>193.0</ele><time>2026-03-29T15:27:14.654Z</time></trkpt><trkpt lat="44.8762283" lon="9.54819"><ele>193.0</ele><time>2026-03-29T15:27:15.654Z</time></trkpt><trkpt lat="44.87626" lon="9.5480483"><ele>193.0</ele><time>2026-03-29T15:27:16.654Z</time></trkpt><trkpt lat="44.8762933" lon="9.5479133"><ele>193.0</ele><time>2026-03-29T15:27:17.654Z</time></trkpt><trkpt lat="44.8763267" lon="9.5477917"><ele>193.0</ele><time>2026-03-29T15:27:18.653Z</time></trkpt><trkpt lat="44.876365" lon="9.5476833"><ele>193.2</ele><time>2026-03-29T15:27:19.655Z</time></trkpt><trkpt lat="44.8764117" lon="9.54758"><ele>193.4</ele><time>2026-03-29T15:27:20.654Z</time></trkpt><trkpt lat="44.87647" lon="9.547475"><ele>193.6</ele><time>2026-03-29T15:27:21.653Z</time></trkpt><trkpt lat="44.876535" lon="9.5473717"><ele>193.79999999999998</ele><time>2026-03-29T15:27:22.654Z</time></trkpt><trkpt lat="44.8766017" lon="9.54728"><ele>194.0</ele><time>2026-03-29T15:27:23.654Z</time></trkpt><trkpt lat="44.87666" lon="9.5471833"><ele>194.0</ele><time>2026-03-29T15:27:24.653Z</time></trkpt><trkpt lat="44.87671" lon="9.54708"><ele>194.0</ele><time>2026-03-29T15:27:25.658Z</time></trkpt><trkpt lat="44.8767383" lon="9.5469567"><ele>194.0</ele><time>2026-03-29T15:27:26.653Z</time></trkpt><trkpt lat="44.876755" lon="9.54682"><ele>194.0</ele><time>2026-03-29T15:27:27.653Z</time></trkpt><trkpt lat="44.87677" lon="9.5466883"><ele>194.0</ele><time>2026-03-29T15:27:28.654Z</time></trkpt><trkpt lat="44.8767867" lon="9.5465583"><ele>197.39999999999998</ele><time>2026-03-29T15:27:29.654Z</time></trkpt><trkpt lat="44.8768067" lon="9.5464333"><ele>200.8</ele><time>2026-03-29T15:27:30.653Z</time></trkpt><trkpt lat="44.8768267" lon="9.5463"><ele>204.2</ele><time>2026-03-29T15:27:31.654Z</time></trkpt><trkpt lat="44.8768383" lon="9.5461583"><ele>207.60000000000002</ele><time>2026-03-29T15:27:32.656Z</time></trkpt><trkpt lat="44.8768383" lon="9.54602"><ele>211.0</ele><time>2026-03-29T15:27:33.654Z</time></trkpt><trkpt lat="44.8768333" lon="9.5458867"><ele>210.99999999999997</ele><time>2026-03-29T15:27:34.654Z</time></trkpt><trkpt lat="44.876825" lon="9.5457517"><ele>211.0</ele><time>2026-03-29T15:27:35.654Z</time></trkpt><trkpt lat="44.8768183" lon="9.5456283"><ele>211.0</ele><time>2026-03-29T15:27:36.654Z</time></trkpt><trkpt lat="44.8768167" lon="9.5455117"><ele>211.0</ele><time>2026-03-29T15:27:37.654Z</time></trkpt><trkpt lat="44.8768317" lon="9.5453917"><ele>210.99999999999997</ele><time>2026-03-29T15:27:38.654Z</time></trkpt><trkpt lat="44.8768633" lon="9.5452783"><ele>211.0</ele><time>2026-03-29T15:27:39.654Z</time></trkpt><trkpt lat="44.87691" lon="9.545175"><ele>210.20000000000002</ele><time>2026-03-29T15:27:40.655Z</time></trkpt><trkpt lat="44.8769717" lon="9.545085"><ele>209.4</ele><time>2026-03-29T15:27:41.652Z</time></trkpt><trkpt lat="44.8770383" lon="9.5450083"><ele>208.6</ele><time>2026-03-29T15:27:42.654Z</time></trkpt><trkpt lat="44.8770917" lon="9.5449433"><ele>207.8</ele><time>2026-03-29T15:27:43.652Z</time></trkpt><trkpt lat="44.8771817" lon="9.54486"><ele>207.0</ele><time>2026-03-29T15:27:45.653Z</time></trkpt><trkpt lat="44.8772767" lon="9.5448267"><ele>207.0</ele><time>2026-03-29T15:27:47.652Z</time></trkpt><trkpt lat="44.8773833" lon="9.54482"><ele>207.0</ele><time>2026-03-29T15:27:49.654Z</time></trkpt><trkpt lat="44.8774833" lon="9.5447583"><ele>207.0</ele><time>2026-03-29T15:27:51.653Z</time></trkpt><trkpt lat="44.8775333" lon="9.5446833"><ele>207.0</ele><time>2026-03-29T15:27:52.654Z</time></trkpt><trkpt lat="44.877585" lon="9.5445967"><ele>207.0</ele><time>2026-03-29T15:27:53.654Z</time></trkpt><trkpt lat="44.8776333" lon="9.5445067"><ele>207.0</ele><time>2026-03-29T15:27:54.654Z</time></trkpt><trkpt lat="44.8776833" lon="9.5444133"><ele>208.5</ele><time>2026-03-29T15:27:55.654Z</time></trkpt><trkpt lat="44.87774" lon="9.5443217"><ele>210.0</ele><time>2026-03-29T15:27:56.655Z</time></trkpt><trkpt lat="44.8778017" lon="9.5442283"><ele>211.5</ele><time>2026-03-29T15:27:57.654Z</time></trkpt><trkpt lat="44.8778633" lon="9.5441367"><ele>213.0</ele><time>2026-03-29T15:27:58.655Z</time></trkpt><trkpt lat="44.8779233" lon="9.54404"><ele>214.5</ele><time>2026-03-29T15:27:59.655Z</time></trkpt><trkpt lat="44.8779833" lon="9.5439433"><ele>216.0</ele><time>2026-03-29T15:28:00.652Z</time></trkpt><trkpt lat="44.8780333" lon="9.5438517"><ele>216.0</ele><time>2026-03-29T15:28:01.654Z</time></trkpt><trkpt lat="44.8780817" lon="9.5437617"><ele>216.00000000000003</ele><time>2026-03-29T15:28:02.655Z</time></trkpt><trkpt lat="44.8781383" lon="9.54367"><ele>216.00000000000003</ele><time>2026-03-29T15:28:03.653Z</time></trkpt><trkpt lat="44.878205" lon="9.5435617"><ele>216.0</ele><time>2026-03-29T15:28:04.652Z</time></trkpt><trkpt lat="44.8782717" lon="9.5434467"><ele>216.0</ele><time>2026-03-29T15:28:05.654Z</time></trkpt><trkpt lat="44.878335" lon="9.5433383"><ele>216.66666666666666</ele><time>2026-03-29T15:28:06.653Z</time></trkpt><trkpt lat="44.8783883" lon="9.5432367"><ele>217.33333333333331</ele><time>2026-03-29T15:28:07.654Z</time></trkpt><trkpt lat="44.8784317" lon="9.54314"><ele>218.0</ele><time>2026-03-29T15:28:08.654Z</time></trkpt><trkpt lat="44.8784817" lon="9.5430517"><ele>218.66666666666666</ele><time>2026-03-29T15:28:09.653Z</time></trkpt><trkpt lat="44.8785417" lon="9.5429667"><ele>219.33333333333331</ele><time>2026-03-29T15:28:10.654Z</time></trkpt><trkpt lat="44.8786133" lon="9.5428767"><ele>220.0</ele><time>2026-03-29T15:28:11.654Z</time></trkpt><trkpt lat="44.8787083" lon="9.5427783"><ele>218.0</ele><time>2026-03-29T15:28:12.653Z</time></trkpt><trkpt lat="44.8787983" lon="9.5426783"><ele>216.0</ele><time>2026-03-29T15:28:13.653Z</time></trkpt><trkpt lat="44.8788867" lon="9.5425817"><ele>214.0</ele><time>2026-03-29T15:28:14.654Z</time></trkpt><trkpt lat="44.8789733" lon="9.542495"><ele>212.0</ele><time>2026-03-29T15:28:15.654Z</time></trkpt><trkpt lat="44.87906" lon="9.5424217"><ele>210.0</ele><time>2026-03-29T15:28:16.653Z</time></trkpt><trkpt lat="44.8791433" lon="9.5423583"><ele>210.0</ele><time>2026-03-29T15:28:17.654Z</time></trkpt><trkpt lat="44.8792183" lon="9.5422967"><ele>210.0</ele><time>2026-03-29T15:28:18.654Z</time></trkpt><trkpt lat="44.8792867" lon="9.542235"><ele>210.0</ele><time>2026-03-29T15:28:19.655Z</time></trkpt><trkpt lat="44.87935" lon="9.542175"><ele>210.0</ele><time>2026-03-29T15:28:20.654Z</time></trkpt><trkpt lat="44.8794083" lon="9.5421267"><ele>210.0</ele><time>2026-03-29T15:28:21.654Z</time></trkpt><trkpt lat="44.8795333" lon="9.5421133"><ele>210.0</ele><time>2026-03-29T15:28:23.654Z</time></trkpt><trkpt lat="44.8795917" lon="9.5421583"><ele>211.33333333333334</ele><time>2026-03-29T15:28:24.653Z</time></trkpt><trkpt lat="44.8796467" lon="9.5422167"><ele>212.66666666666669</ele><time>2026-03-29T15:28:25.653Z</time></trkpt><trkpt lat="44.8797067" lon="9.54227"><ele>214.0</ele><time>2026-03-29T15:28:26.654Z</time></trkpt><trkpt lat="44.8797683" lon="9.5423033"><ele>215.33333333333334</ele><time>2026-03-29T15:28:27.652Z</time></trkpt><trkpt lat="44.8798367" lon="9.5423"><ele>216.66666666666669</ele><time>2026-03-29T15:28:28.654Z</time></trkpt><trkpt lat="44.87991" lon="9.5422483"><ele>218.0</ele><time>2026-03-29T15:28:29.653Z</time></trkpt><trkpt lat="44.8799983" lon="9.5421567"><ele>219.0</ele><time>2026-03-29T15:28:30.653Z</time></trkpt><trkpt lat="44.880105" lon="9.5420067"><ele>220.0</ele><time>2026-03-29T15:28:31.654Z</time></trkpt><trkpt lat="44.8802033" lon="9.5418833"><ele>221.0</ele><time>2026-03-29T15:28:32.654Z</time></trkpt><trkpt lat="44.8803" lon="9.5417817"><ele>222.0</ele><time>2026-03-29T15:28:33.654Z</time></trkpt><trkpt lat="44.8804033" lon="9.5416917"><ele>222.0</ele><time>2026-03-29T15:28:34.656Z</time></trkpt><trkpt lat="44.88053" lon="9.5416183"><ele>222.0</ele><time>2026-03-29T15:28:35.655Z</time></trkpt><trkpt lat="44.8806583" lon="9.54153"><ele>222.0</ele><time>2026-03-29T15:28:36.654Z</time></trkpt><trkpt lat="44.8807933" lon="9.5414317"><ele>222.0</ele><time>2026-03-29T15:28:37.654Z</time></trkpt><trkpt lat="44.88093" lon="9.5413167"><ele>225.66666666666669</ele><time>2026-03-29T15:28:38.654Z</time></trkpt><trkpt lat="44.8810633" lon="9.54119"><ele>229.33333333333334</ele><time>2026-03-29T15:28:39.653Z</time></trkpt><trkpt lat="44.8811817" lon="9.5410417"><ele>233.0</ele><time>2026-03-29T15:28:40.652Z</time></trkpt><trkpt lat="44.8812967" lon="9.5408933"><ele>233.0</ele><time>2026-03-29T15:28:41.654Z</time></trkpt><trkpt lat="44.8814" lon="9.5407417"><ele>233.0</ele><time>2026-03-29T15:28:42.654Z</time></trkpt><trkpt lat="44.8814917" lon="9.5405933"><ele>233.0</ele><time>2026-03-29T15:28:43.654Z</time></trkpt><trkpt lat="44.881575" lon="9.5404417"><ele>233.0</ele><time>2026-03-29T15:28:44.654Z</time></trkpt><trkpt lat="44.88165" lon="9.5402817"><ele>235.75</ele><time>2026-03-29T15:28:45.654Z</time></trkpt><trkpt lat="44.88171" lon="9.5401317"><ele>238.5</ele><time>2026-03-29T15:28:46.653Z</time></trkpt><trkpt lat="44.8817767" lon="9.5399933"><ele>241.25</ele><time>2026-03-29T15:28:47.654Z</time></trkpt><trkpt lat="44.881855" lon="9.5398633"><ele>244.0</ele><time>2026-03-29T15:28:48.654Z</time></trkpt><trkpt lat="44.8819383" lon="9.53974"><ele>244.0</ele><time>2026-03-29T15:28:49.656Z</time></trkpt><trkpt lat="44.8820117" lon="9.5396217"><ele>243.99999999999997</ele><time>2026-03-29T15:28:50.656Z</time></trkpt><trkpt lat="44.8821017" lon="9.5395367"><ele>243.99999999999997</ele><time>2026-03-29T15:28:51.655Z</time></trkpt><trkpt lat="44.8821967" lon="9.5394667"><ele>244.0</ele><time>2026-03-29T15:28:52.654Z</time></trkpt><trkpt lat="44.8823067" lon="9.5394117"><ele>244.0</ele><time>2026-03-29T15:28:53.655Z</time></trkpt><trkpt lat="44.8824183" lon="9.5393583"><ele>241.25</ele><time>2026-03-29T15:28:54.655Z</time></trkpt><trkpt lat="44.88254" lon="9.539305"><ele>238.5</ele><time>2026-03-29T15:28:55.656Z</time></trkpt><trkpt lat="44.8826633" lon="9.539245"><ele>235.75</ele><time>2026-03-29T15:28:56.656Z</time></trkpt><trkpt lat="44.882785" lon="9.5391933"><ele>233.0</ele><time>2026-03-29T15:28:57.655Z</time></trkpt><trkpt lat="44.882905" lon="9.5391367"><ele>233.0</ele><time>2026-03-29T15:28:58.656Z</time></trkpt><trkpt lat="44.8830217" lon="9.5390767"><ele>233.0</ele><time>2026-03-29T15:28:59.655Z</time></trkpt><trkpt lat="44.8831433" lon="9.53903"><ele>233.0</ele><time>2026-03-29T15:29:00.655Z</time></trkpt><trkpt lat="44.88326" lon="9.5389833"><ele>233.0</ele><time>2026-03-29T15:29:01.656Z</time></trkpt><trkpt lat="44.8833767" lon="9.538965"><ele>237.25</ele><time>2026-03-29T15:29:02.656Z</time></trkpt><trkpt lat="44.8834983" lon="9.5389533"><ele>241.5</ele><time>2026-03-29T15:29:03.654Z</time></trkpt><trkpt lat="44.8836067" lon="9.5389133"><ele>245.75</ele><time>2026-03-29T15:29:04.655Z</time></trkpt><trkpt lat="44.883715" lon="9.5388767"><ele>250.0</ele><time>2026-03-29T15:29:05.656Z</time></trkpt><trkpt lat="44.883825" lon="9.5388183"><ele>250.0</ele><time>2026-03-29T15:29:06.656Z</time></trkpt><trkpt lat="44.8839383" lon="9.53874"><ele>250.0</ele><time>2026-03-29T15:29:07.659Z</time></trkpt><trkpt lat="44.8840683" lon="9.53865"><ele>250.0</ele><time>2026-03-29T15:29:08.655Z</time></trkpt><trkpt lat="44.8842083" lon="9.5385717"><ele>250.0</ele><time>2026-03-29T15:29:09.653Z</time></trkpt><trkpt lat="44.88435" lon="9.53848"><ele>247.33333333333331</ele><time>2026-03-29T15:29:10.653Z</time></trkpt><trkpt lat="44.8844967" lon="9.53839"><ele>244.66666666666669</ele><time>2026-03-29T15:29:11.654Z</time></trkpt><trkpt lat="44.884645" lon="9.538305"><ele>242.0</ele><time>2026-03-29T15:29:12.654Z</time></trkpt><trkpt lat="44.884785" lon="9.5382217"><ele>242.0</ele><time>2026-03-29T15:29:13.653Z</time></trkpt><trkpt lat="44.8849117" lon="9.5381467"><ele>242.0</ele><time>2026-03-29T15:29:14.654Z</time></trkpt><trkpt lat="44.885025" lon="9.5380783"><ele>242.0</ele><time>2026-03-29T15:29:15.653Z</time></trkpt><trkpt lat="44.8851217" lon="9.5380183"><ele>242.0</ele><time>2026-03-29T15:29:16.653Z</time></trkpt><trkpt lat="44.8852" lon="9.5379733"><ele>243.83333333333334</ele><time>2026-03-29T15:29:17.654Z</time></trkpt><trkpt lat="44.88527" lon="9.5379483"><ele>245.66666666666669</ele><time>2026-03-29T15:29:18.653Z</time></trkpt><trkpt lat="44.8853383" lon="9.53794"><ele>247.5</ele><time>2026-03-29T15:29:19.654Z</time></trkpt><trkpt lat="44.885405" lon="9.5379417"><ele>249.33333333333331</ele><time>2026-03-29T15:29:20.654Z</time></trkpt><trkpt lat="44.8854683" lon="9.5379417"><ele>251.16666666666666</ele><time>2026-03-29T15:29:21.654Z</time></trkpt><trkpt lat="44.8855883" lon="9.5379433"><ele>253.0</ele><time>2026-03-29T15:29:23.654Z</time></trkpt><trkpt lat="44.8857083" lon="9.5379283"><ele>253.00000000000003</ele><time>2026-03-29T15:29:25.653Z</time></trkpt><trkpt lat="44.885775" lon="9.5379133"><ele>253.0</ele><time>2026-03-29T15:29:26.654Z</time></trkpt><trkpt lat="44.8858467" lon="9.5379033"><ele>253.00000000000003</ele><time>2026-03-29T15:29:27.653Z</time></trkpt><trkpt lat="44.88592" lon="9.5378967"><ele>253.00000000000003</ele><time>2026-03-29T15:29:28.653Z</time></trkpt><trkpt lat="44.8859983" lon="9.537895"><ele>253.0</ele><time>2026-03-29T15:29:29.653Z</time></trkpt><trkpt lat="44.8860783" lon="9.5378967"><ele>253.00000000000003</ele><time>2026-03-29T15:29:30.653Z</time></trkpt><trkpt lat="44.886155" lon="9.5378867"><ele>253.00000000000003</ele><time>2026-03-29T15:29:31.653Z</time></trkpt><trkpt lat="44.8862283" lon="9.537855"><ele>251.66666666666666</ele><time>2026-03-29T15:29:32.654Z</time></trkpt><trkpt lat="44.886295" lon="9.537805"><ele>250.33333333333331</ele><time>2026-03-29T15:29:33.653Z</time></trkpt><trkpt lat="44.8863483" lon="9.5377283"><ele>249.0</ele><time>2026-03-29T15:29:34.655Z</time></trkpt><trkpt lat="44.8864" lon="9.5376467"><ele>247.66666666666669</ele><time>2026-03-29T15:29:35.654Z</time></trkpt><trkpt lat="44.88646" lon="9.5375617"><ele>246.33333333333334</ele><time>2026-03-29T15:29:36.654Z</time></trkpt><trkpt lat="44.8865233" lon="9.53747"><ele>245.0</ele><time>2026-03-29T15:29:37.654Z</time></trkpt><trkpt lat="44.8865967" lon="9.5373883"><ele>245.00000000000003</ele><time>2026-03-29T15:29:38.656Z</time></trkpt><trkpt lat="44.8866783" lon="9.5373117"><ele>245.0</ele><time>2026-03-29T15:29:39.654Z</time></trkpt><trkpt lat="44.8867667" lon="9.5372467"><ele>245.0</ele><time>2026-03-29T15:29:40.654Z</time></trkpt><trkpt lat="44.88685" lon="9.5371867"><ele>245.0</ele><time>2026-03-29T15:29:41.653Z</time></trkpt><trkpt lat="44.8869217" lon="9.5371433"><ele>245.00000000000003</ele><time>2026-03-29T15:29:42.654Z</time></trkpt><trkpt lat="44.8869933" lon="9.5371233"><ele>245.0</ele><time>2026-03-29T15:29:43.654Z</time></trkpt><trkpt lat="44.8870683" lon="9.5371283"><ele>245.50000000000003</ele><time>2026-03-29T15:29:44.654Z</time></trkpt><trkpt lat="44.8871483" lon="9.53715"><ele>246.0</ele><time>2026-03-29T15:29:45.654Z</time></trkpt><trkpt lat="44.887225" lon="9.53719"><ele>246.5</ele><time>2026-03-29T15:29:46.654Z</time></trkpt><trkpt lat="44.8873017" lon="9.5372583"><ele>247.0</ele><time>2026-03-29T15:29:47.654Z</time></trkpt><trkpt lat="44.8873683" lon="9.5373433"><ele>247.50000000000003</ele><time>2026-03-29T15:29:48.653Z</time></trkpt><trkpt lat="44.8874283" lon="9.5374417"><ele>248.0</ele><time>2026-03-29T15:29:49.654Z</time></trkpt><trkpt lat="44.8874867" lon="9.5375483"><ele>248.0</ele><time>2026-03-29T15:29:50.654Z</time></trkpt><trkpt lat="44.8875467" lon="9.53766"><ele>248.0</ele><time>2026-03-29T15:29:51.653Z</time></trkpt><trkpt lat="44.8876083" lon="9.5377667"><ele>248.0</ele><time>2026-03-29T15:29:52.653Z</time></trkpt><trkpt lat="44.88767" lon="9.5378683"><ele>248.0</ele><time>2026-03-29T15:29:53.653Z</time></trkpt><trkpt lat="44.8877317" lon="9.537965"><ele>248.0</ele><time>2026-03-29T15:29:54.655Z</time></trkpt><trkpt lat="44.8877933" lon="9.5380617"><ele>251.16666666666669</ele><time>2026-03-29T15:29:55.654Z</time></trkpt><trkpt lat="44.8878417" lon="9.5381583"><ele>254.33333333333334</ele><time>2026-03-29T15:29:56.654Z</time></trkpt><trkpt lat="44.8878917" lon="9.5382633"><ele>257.5</ele><time>2026-03-29T15:29:57.654Z</time></trkpt><trkpt lat="44.88794" lon="9.538375"><ele>260.6666666666667</ele><time>2026-03-29T15:29:58.656Z</time></trkpt><trkpt lat="44.8879967" lon="9.53847"><ele>263.8333333333333</ele><time>2026-03-29T15:29:59.654Z</time></trkpt><trkpt lat="44.8880617" lon="9.538545"><ele>267.0</ele><time>2026-03-29T15:30:00.654Z</time></trkpt><trkpt lat="44.8881367" lon="9.5385833"><ele>267.0</ele><time>2026-03-29T15:30:01.654Z</time></trkpt><trkpt lat="44.8882167" lon="9.5385733"><ele>267.0</ele><time>2026-03-29T15:30:02.654Z</time></trkpt><trkpt lat="44.8883017" lon="9.5385533"><ele>267.0</ele><time>2026-03-29T15:30:03.653Z</time></trkpt><trkpt lat="44.8883717" lon="9.5384733"><ele>267.0</ele><time>2026-03-29T15:30:04.654Z</time></trkpt><trkpt lat="44.8884533" lon="9.5383983"><ele>267.0</ele><time>2026-03-29T15:30:05.653Z</time></trkpt><trkpt lat="44.8885383" lon="9.538315"><ele>269.8</ele><time>2026-03-29T15:30:06.654Z</time></trkpt><trkpt lat="44.8886183" lon="9.5382317"><ele>272.6</ele><time>2026-03-29T15:30:07.655Z</time></trkpt><trkpt lat="44.8886833" lon="9.5381317"><ele>275.40000000000003</ele><time>2026-03-29T15:30:08.654Z</time></trkpt><trkpt lat="44.8887317" lon="9.5380217"><ele>278.2</ele><time>2026-03-29T15:30:09.654Z</time></trkpt><trkpt lat="44.88876" lon="9.5378833"><ele>281.0</ele><time>2026-03-29T15:30:10.654Z</time></trkpt><trkpt lat="44.8887917" lon="9.53773"><ele>281.0</ele><time>2026-03-29T15:30:11.654Z</time></trkpt><trkpt lat="44.8888183" lon="9.5375917"><ele>281.0</ele><time>2026-03-29T15:30:12.653Z</time></trkpt><trkpt lat="44.8888467" lon="9.5374633"><ele>281.0</ele><time>2026-03-29T15:30:13.653Z</time></trkpt><trkpt lat="44.8888833" lon="9.5373567"><ele>281.0</ele><time>2026-03-29T15:30:14.654Z</time></trkpt><trkpt lat="44.88893" lon="9.5372567"><ele>281.0</ele><time>2026-03-29T15:30:15.654Z</time></trkpt><trkpt lat="44.8889867" lon="9.5371767"><ele>281.0</ele><time>2026-03-29T15:30:16.654Z</time></trkpt><trkpt lat="44.8890483" lon="9.5371017"><ele>281.0</ele><time>2026-03-29T15:30:17.654Z</time></trkpt><trkpt lat="44.8891317" lon="9.5370633"><ele>281.0</ele><time>2026-03-29T15:30:18.653Z</time></trkpt><trkpt lat="44.88922" lon="9.5370383"><ele>281.0</ele><time>2026-03-29T15:30:19.654Z</time></trkpt><trkpt lat="44.889315" lon="9.5370317"><ele>281.0</ele><time>2026-03-29T15:30:20.654Z</time></trkpt><trkpt lat="44.8894067" lon="9.5370233"><ele>281.0</ele><time>2026-03-29T15:30:21.654Z</time></trkpt><trkpt lat="44.8894917" lon="9.5370167"><ele>281.8</ele><time>2026-03-29T15:30:22.654Z</time></trkpt><trkpt lat="44.8895783" lon="9.5370233"><ele>282.6</ele><time>2026-03-29T15:30:23.653Z</time></trkpt><trkpt lat="44.8896517" lon="9.5370267"><ele>283.4</ele><time>2026-03-29T15:30:24.653Z</time></trkpt><trkpt lat="44.889765" lon="9.53699"><ele>284.2</ele><time>2026-03-29T15:30:26.654Z</time></trkpt><trkpt lat="44.8898767" lon="9.53689"><ele>285.0</ele><time>2026-03-29T15:30:28.654Z</time></trkpt><trkpt lat="44.8899483" lon="9.5368283"><ele>285.0</ele><time>2026-03-29T15:30:29.654Z</time></trkpt><trkpt lat="44.8900267" lon="9.536785"><ele>285.0</ele><time>2026-03-29T15:30:30.654Z</time></trkpt><trkpt lat="44.8901033" lon="9.536765"><ele>285.0</ele><time>2026-03-29T15:30:31.656Z</time></trkpt><trkpt lat="44.890175" lon="9.53677"><ele>285.0</ele><time>2026-03-29T15:30:32.654Z</time></trkpt><trkpt lat="44.8902367" lon="9.5367967"><ele>285.0</ele><time>2026-03-29T15:30:33.654Z</time></trkpt><trkpt lat="44.89031" lon="9.5369533"><ele>285.0</ele><time>2026-03-29T15:30:35.654Z</time></trkpt><trkpt lat="44.89033" lon="9.5370533"><ele>289.4</ele><time>2026-03-29T15:30:36.654Z</time></trkpt><trkpt lat="44.890345" lon="9.53715"><ele>293.8</ele><time>2026-03-29T15:30:37.654Z</time></trkpt><trkpt lat="44.890355" lon="9.5372467"><ele>298.2</ele><time>2026-03-29T15:30:38.655Z</time></trkpt><trkpt lat="44.8904083" lon="9.53739"><ele>302.6</ele><time>2026-03-29T15:30:40.655Z</time></trkpt><trkpt lat="44.8904967" lon="9.5374633"><ele>307.0</ele><time>2026-03-29T15:30:42.653Z</time></trkpt><trkpt lat="44.8906067" lon="9.537385"><ele>306.99999999999994</ele><time>2026-03-29T15:30:44.654Z</time></trkpt><trkpt lat="44.8906567" lon="9.5373183"><ele>307.0</ele><time>2026-03-29T15:30:45.653Z</time></trkpt><trkpt lat="44.8907017" lon="9.5372517"><ele>307.0</ele><time>2026-03-29T15:30:46.653Z</time></trkpt><trkpt lat="44.8907467" lon="9.5371833"><ele>307.0</ele><time>2026-03-29T15:30:47.654Z</time></trkpt><trkpt lat="44.8907967" lon="9.537115"><ele>307.0</ele><time>2026-03-29T15:30:48.654Z</time></trkpt><trkpt lat="44.8908417" lon="9.53705"><ele>306.99999999999994</ele><time>2026-03-29T15:30:49.654Z</time></trkpt><trkpt lat="44.8909233" lon="9.5369717"><ele>307.0</ele><time>2026-03-29T15:30:51.653Z</time></trkpt><trkpt lat="44.8910183" lon="9.5369583"><ele>307.2</ele><time>2026-03-29T15:30:53.654Z</time></trkpt><trkpt lat="44.89114" lon="9.5370283"><ele>307.4</ele><time>2026-03-29T15:30:55.653Z</time></trkpt><trkpt lat="44.8912167" lon="9.5370833"><ele>307.6</ele><time>2026-03-29T15:30:56.653Z</time></trkpt><trkpt lat="44.8912967" lon="9.5371267"><ele>307.8</ele><time>2026-03-29T15:30:57.654Z</time></trkpt><trkpt lat="44.8913717" lon="9.537145"><ele>308.0</ele><time>2026-03-29T15:30:58.654Z</time></trkpt><trkpt lat="44.8914417" lon="9.5371317"><ele>308.0</ele><time>2026-03-29T15:30:59.654Z</time></trkpt><trkpt lat="44.89151" lon="9.5370933"><ele>308.0</ele><time>2026-03-29T15:31:00.653Z</time></trkpt><trkpt lat="44.8915717" lon="9.5370267"><ele>308.0</ele><time>2026-03-29T15:31:01.653Z</time></trkpt><trkpt lat="44.8916283" lon="9.5369383"><ele>308.0</ele><time>2026-03-29T15:31:02.654Z</time></trkpt><trkpt lat="44.89167" lon="9.5368267"><ele>308.0</ele><time>2026-03-29T15:31:03.653Z</time></trkpt><trkpt lat="44.8917067" lon="9.5367267"><ele>308.0</ele><time>2026-03-29T15:31:04.654Z</time></trkpt><trkpt lat="44.8917417" lon="9.5366417"><ele>310.2</ele><time>2026-03-29T15:31:05.654Z</time></trkpt><trkpt lat="44.8918233" lon="9.53656"><ele>312.4</ele><time>2026-03-29T15:31:07.654Z</time></trkpt><trkpt lat="44.8919317" lon="9.5366083"><ele>314.59999999999997</ele><time>2026-03-29T15:31:09.654Z</time></trkpt><trkpt lat="44.8919817" lon="9.5366717"><ele>316.8</ele><time>2026-03-29T15:31:10.654Z</time></trkpt><trkpt lat="44.8920267" lon="9.536755"><ele>319.0</ele><time>2026-03-29T15:31:11.654Z</time></trkpt><trkpt lat="44.8920817" lon="9.536865"><ele>319.0</ele><time>2026-03-29T15:31:12.654Z</time></trkpt><trkpt lat="44.8921333" lon="9.53696"><ele>319.0</ele><time>2026-03-29T15:31:13.653Z</time></trkpt><trkpt lat="44.8921817" lon="9.5370417"><ele>319.0</ele><time>2026-03-29T15:31:14.654Z</time></trkpt><trkpt lat="44.89224" lon="9.5371033"><ele>319.0</ele><time>2026-03-29T15:31:15.652Z</time></trkpt><trkpt lat="44.8923183" lon="9.5371567"><ele>319.0</ele><time>2026-03-29T15:31:16.654Z</time></trkpt><trkpt lat="44.8923917" lon="9.5371683"><ele>319.0</ele><time>2026-03-29T15:31:17.653Z</time></trkpt><trkpt lat="44.892475" lon="9.5371517"><ele>321.0</ele><time>2026-03-29T15:31:18.654Z</time></trkpt><trkpt lat="44.8925467" lon="9.5371133"><ele>323.0</ele><time>2026-03-29T15:31:19.654Z</time></trkpt><trkpt lat="44.8926167" lon="9.537055"><ele>325.0</ele><time>2026-03-29T15:31:20.654Z</time></trkpt><trkpt lat="44.89267" lon="9.5369583"><ele>327.0</ele><time>2026-03-29T15:31:21.653Z</time></trkpt><trkpt lat="44.89271" lon="9.5368567"><ele>329.0</ele><time>2026-03-29T15:31:22.652Z</time></trkpt><trkpt lat="44.8927383" lon="9.536745"><ele>331.0</ele><time>2026-03-29T15:31:23.652Z</time></trkpt><trkpt lat="44.892745" lon="9.53662"><ele>331.8</ele><time>2026-03-29T15:31:24.655Z</time></trkpt><trkpt lat="44.8927383" lon="9.5365"><ele>332.6</ele><time>2026-03-29T15:31:25.653Z</time></trkpt><trkpt lat="44.8926967" lon="9.5363667"><ele>333.4</ele><time>2026-03-29T15:31:26.654Z</time></trkpt><trkpt lat="44.892635" lon="9.5362383"><ele>334.2</ele><time>2026-03-29T15:31:27.653Z</time></trkpt><trkpt lat="44.892585" lon="9.5361217"><ele>335.0</ele><time>2026-03-29T15:31:28.653Z</time></trkpt><trkpt lat="44.8925467" lon="9.53601"><ele>334.0</ele><time>2026-03-29T15:31:29.654Z</time></trkpt><trkpt lat="44.892525" lon="9.5359017"><ele>333.0</ele><time>2026-03-29T15:31:30.653Z</time></trkpt><trkpt lat="44.8925167" lon="9.5357867"><ele>332.0</ele><time>2026-03-29T15:31:31.653Z</time></trkpt><trkpt lat="44.8925183" lon="9.53566"><ele>331.0</ele><time>2026-03-29T15:31:32.654Z</time></trkpt><trkpt lat="44.8925267" lon="9.53553"><ele>330.0</ele><time>2026-03-29T15:31:33.654Z</time></trkpt><trkpt lat="44.892535" lon="9.535405"><ele>329.0</ele><time>2026-03-29T15:31:34.653Z</time></trkpt><trkpt lat="44.8925467" lon="9.53528"><ele>329.0</ele><time>2026-03-29T15:31:35.654Z</time></trkpt><trkpt lat="44.8925617" lon="9.5351667"><ele>329.0</ele><time>2026-03-29T15:31:36.654Z</time></trkpt><trkpt lat="44.89258" lon="9.5350517"><ele>329.0</ele><time>2026-03-29T15:31:37.654Z</time></trkpt><trkpt lat="44.8926067" lon="9.534945"><ele>329.0</ele><time>2026-03-29T15:31:38.654Z</time></trkpt><trkpt lat="44.8926367" lon="9.5348467"><ele>329.0</ele><time>2026-03-29T15:31:39.654Z</time></trkpt><trkpt lat="44.8926767" lon="9.534745"><ele>329.0</ele><time>2026-03-29T15:31:40.654Z</time></trkpt><trkpt lat="44.89272" lon="9.5346367"><ele>333.79999999999995</ele><time>2026-03-29T15:31:41.654Z</time></trkpt><trkpt lat="44.892775" lon="9.53453"><ele>338.59999999999997</ele><time>2026-03-29T15:31:42.653Z</time></trkpt><trkpt lat="44.89284" lon="9.5344217"><ele>343.4</ele><time>2026-03-29T15:31:43.654Z</time></trkpt><trkpt lat="44.8929017" lon="9.53431"><ele>348.2</ele><time>2026-03-29T15:31:44.654Z</time></trkpt><trkpt lat="44.8929583" lon="9.53418"><ele>353.0</ele><time>2026-03-29T15:31:45.653Z</time></trkpt><trkpt lat="44.893015" lon="9.5340367"><ele>353.0</ele><time>2026-03-29T15:31:46.653Z</time></trkpt><trkpt lat="44.8930667" lon="9.5338867"><ele>353.0</ele><time>2026-03-29T15:31:47.653Z</time></trkpt><trkpt lat="44.8931167" lon="9.5337383"><ele>353.0</ele><time>2026-03-29T15:31:48.652Z</time></trkpt><trkpt lat="44.89316" lon="9.533595"><ele>353.0</ele><time>2026-03-29T15:31:49.653Z</time></trkpt><trkpt lat="44.8931967" lon="9.533455"><ele>352.5</ele><time>2026-03-29T15:31:50.653Z</time></trkpt><trkpt lat="44.8932283" lon="9.5333217"><ele>352.0</ele><time>2026-03-29T15:31:51.653Z</time></trkpt><trkpt lat="44.8932533" lon="9.53321"><ele>351.5</ele><time>2026-03-29T15:31:52.653Z</time></trkpt><trkpt lat="44.8932783" lon="9.5331267"><ele>351.0</ele><time>2026-03-29T15:31:53.654Z</time></trkpt><trkpt lat="44.893335" lon="9.53304"><ele>350.5</ele><time>2026-03-29T15:31:55.653Z</time></trkpt><trkpt lat="44.8933967" lon="9.5330683"><ele>350.0</ele><time>2026-03-29T15:31:57.653Z</time></trkpt><trkpt lat="44.8934683" lon="9.5332283"><ele>354.6</ele><time>2026-03-29T15:31:59.653Z</time></trkpt><trkpt lat="44.89351" lon="9.533345"><ele>359.2</ele><time>2026-03-29T15:32:00.654Z</time></trkpt><trkpt lat="44.89355" lon="9.53346"><ele>363.79999999999995</ele><time>2026-03-29T15:32:01.653Z</time></trkpt><trkpt lat="44.8936017" lon="9.533585"><ele>368.4</ele><time>2026-03-29T15:32:02.655Z</time></trkpt><trkpt lat="44.8936567" lon="9.53372"><ele>373.0</ele><time>2026-03-29T15:32:03.653Z</time></trkpt><trkpt lat="44.8936983" lon="9.53385"><ele>372.8333333333333</ele><time>2026-03-29T15:32:04.656Z</time></trkpt><trkpt lat="44.8937267" lon="9.5339767"><ele>372.66666666666663</ele><time>2026-03-29T15:32:05.655Z</time></trkpt><trkpt lat="44.8937467" lon="9.5340967"><ele>372.5</ele><time>2026-03-29T15:32:06.656Z</time></trkpt><trkpt lat="44.8937533" lon="9.5342133"><ele>372.3333333333333</ele><time>2026-03-29T15:32:07.655Z</time></trkpt><trkpt lat="44.89375" lon="9.5343417"><ele>372.1666666666667</ele><time>2026-03-29T15:32:08.656Z</time></trkpt><trkpt lat="44.893745" lon="9.53447"><ele>372.0</ele><time>2026-03-29T15:32:09.654Z</time></trkpt><trkpt lat="44.8937383" lon="9.5345833"><ele>372.0</ele><time>2026-03-29T15:32:10.656Z</time></trkpt><trkpt lat="44.893745" lon="9.5346733"><ele>372.0</ele><time>2026-03-29T15:32:11.656Z</time></trkpt><trkpt lat="44.893825" lon="9.5347867"><ele>372.0</ele><time>2026-03-29T15:32:13.653Z</time></trkpt><trkpt lat="44.89389" lon="9.5348"><ele>372.0</ele><time>2026-03-29T15:32:14.654Z</time></trkpt><trkpt lat="44.8940017" lon="9.5347867"><ele>372.0</ele><time>2026-03-29T15:32:16.653Z</time></trkpt><trkpt lat="44.894065" lon="9.5347567"><ele>372.0</ele><time>2026-03-29T15:32:17.654Z</time></trkpt><trkpt lat="44.894135" lon="9.53471"><ele>372.0</ele><time>2026-03-29T15:32:18.653Z</time></trkpt><trkpt lat="44.894205" lon="9.5346467"><ele>372.0</ele><time>2026-03-29T15:32:19.655Z</time></trkpt><trkpt lat="44.8942767" lon="9.53457"><ele>372.0</ele><time>2026-03-29T15:32:20.655Z</time></trkpt><trkpt lat="44.8943533" lon="9.534495"><ele>372.0</ele><time>2026-03-29T15:32:21.653Z</time></trkpt><trkpt lat="44.8944367" lon="9.5344267"><ele>372.0</ele><time>2026-03-29T15:32:22.653Z</time></trkpt><trkpt lat="44.8945217" lon="9.5343733"><ele>375.8333333333333</ele><time>2026-03-29T15:32:23.656Z</time></trkpt><trkpt lat="44.894605" lon="9.5343333"><ele>379.66666666666663</ele><time>2026-03-29T15:32:24.653Z</time></trkpt><trkpt lat="44.8946917" lon="9.5343183"><ele>383.5</ele><time>2026-03-29T15:32:25.654Z</time></trkpt><trkpt lat="44.8947733" lon="9.53433"><ele>387.3333333333333</ele><time>2026-03-29T15:32:26.654Z</time></trkpt><trkpt lat="44.8948483" lon="9.5343717"><ele>391.16666666666663</ele><time>2026-03-29T15:32:27.654Z</time></trkpt><trkpt lat="44.89491" lon="9.5344417"><ele>395.0</ele><time>2026-03-29T15:32:28.654Z</time></trkpt><trkpt lat="44.8949567" lon="9.5345267"><ele>393.8333333333333</ele><time>2026-03-29T15:32:29.654Z</time></trkpt><trkpt lat="44.8949967" lon="9.5346133"><ele>392.66666666666663</ele><time>2026-03-29T15:32:30.654Z</time></trkpt><trkpt lat="44.895025" lon="9.534715"><ele>391.5</ele><time>2026-03-29T15:32:31.654Z</time></trkpt><trkpt lat="44.8950467" lon="9.5348267"><ele>390.33333333333337</ele><time>2026-03-29T15:32:32.654Z</time></trkpt><trkpt lat="44.89506" lon="9.5349517"><ele>389.1666666666667</ele><time>2026-03-29T15:32:33.657Z</time></trkpt><trkpt lat="44.8950717" lon="9.5350917"><ele>388.0</ele><time>2026-03-29T15:32:34.654Z</time></trkpt><trkpt lat="44.89508" lon="9.5352433"><ele>392.59999999999997</ele><time>2026-03-29T15:32:35.654Z</time></trkpt><trkpt lat="44.8950917" lon="9.5353883"><ele>397.2</ele><time>2026-03-29T15:32:36.654Z</time></trkpt><trkpt lat="44.8951067" lon="9.535535"><ele>401.8</ele><time>2026-03-29T15:32:37.655Z</time></trkpt><trkpt lat="44.89513" lon="9.5356967"><ele>406.4</ele><time>2026-03-29T15:32:38.653Z</time></trkpt><trkpt lat="44.8951567" lon="9.535865"><ele>411.0</ele><time>2026-03-29T15:32:39.654Z</time></trkpt><trkpt lat="44.8951867" lon="9.5360433"><ele>411.0</ele><time>2026-03-29T15:32:40.654Z</time></trkpt><trkpt lat="44.8952117" lon="9.536215"><ele>411.0</ele><time>2026-03-29T15:32:41.653Z</time></trkpt><trkpt lat="44.8952333" lon="9.53638"><ele>411.0</ele><time>2026-03-29T15:32:42.654Z</time></trkpt><trkpt lat="44.895255" lon="9.5365383"><ele>411.0</ele><time>2026-03-29T15:32:43.654Z</time></trkpt><trkpt lat="44.8952767" lon="9.5366817"><ele>410.0</ele><time>2026-03-29T15:32:44.654Z</time></trkpt><trkpt lat="44.895295" lon="9.5368083"><ele>409.0</ele><time>2026-03-29T15:32:45.654Z</time></trkpt><trkpt lat="44.895315" lon="9.53692"><ele>408.0</ele><time>2026-03-29T15:32:46.652Z</time></trkpt><trkpt lat="44.895345" lon="9.5370217"><ele>407.0</ele><time>2026-03-29T15:32:47.654Z</time></trkpt><trkpt lat="44.8953917" lon="9.5371133"><ele>406.0</ele><time>2026-03-29T15:32:48.655Z</time></trkpt><trkpt lat="44.895465" lon="9.53719"><ele>405.0</ele><time>2026-03-29T15:32:49.654Z</time></trkpt><trkpt lat="44.8955583" lon="9.5372533"><ele>406.2</ele><time>2026-03-29T15:32:50.654Z</time></trkpt><trkpt lat="44.895665" lon="9.5372983"><ele>407.4</ele><time>2026-03-29T15:32:51.654Z</time></trkpt><trkpt lat="44.8957617" lon="9.5373333"><ele>408.6</ele><time>2026-03-29T15:32:52.652Z</time></trkpt><trkpt lat="44.8958433" lon="9.5373667"><ele>409.8</ele><time>2026-03-29T15:32:53.653Z</time></trkpt><trkpt lat="44.89591" lon="9.537405"><ele>411.0</ele><time>2026-03-29T15:32:54.653Z</time></trkpt><trkpt lat="44.89597" lon="9.5375217"><ele>411.0</ele><time>2026-03-29T15:32:56.654Z</time></trkpt><trkpt lat="44.8959667" lon="9.5377117"><ele>411.0</ele><time>2026-03-29T15:32:58.653Z</time></trkpt><trkpt lat="44.8959583" lon="9.5378367"><ele>411.0</ele><time>2026-03-29T15:32:59.654Z</time></trkpt><trkpt lat="44.8959483" lon="9.5379533"><ele>411.0</ele><time>2026-03-29T15:33:00.653Z</time></trkpt><trkpt lat="44.89592" lon="9.5380617"><ele>411.0</ele><time>2026-03-29T15:33:01.654Z</time></trkpt><trkpt lat="44.8958567" lon="9.5381717"><ele>409.20000000000005</ele><time>2026-03-29T15:33:02.654Z</time></trkpt><trkpt lat="44.895785" lon="9.538275"><ele>407.40000000000003</ele><time>2026-03-29T15:33:03.654Z</time></trkpt><trkpt lat="44.89572" lon="9.5383833"><ele>405.6</ele><time>2026-03-29T15:33:04.653Z</time></trkpt><trkpt lat="44.895655" lon="9.5384733"><ele>403.8</ele><time>2026-03-29T15:33:05.654Z</time></trkpt><trkpt lat="44.8955833" lon="9.538545"><ele>402.0</ele><time>2026-03-29T15:33:06.654Z</time></trkpt><trkpt lat="44.8955033" lon="9.5386083"><ele>402.0</ele><time>2026-03-29T15:33:07.654Z</time></trkpt><trkpt lat="44.8954283" lon="9.5386783"><ele>402.0</ele><time>2026-03-29T15:33:08.656Z</time></trkpt><trkpt lat="44.8953667" lon="9.5387633"><ele>402.0</ele><time>2026-03-29T15:33:09.654Z</time></trkpt><trkpt lat="44.8953267" lon="9.5388583"><ele>402.0</ele><time>2026-03-29T15:33:10.655Z</time></trkpt><trkpt lat="44.8953083" lon="9.5389617"><ele>402.0</ele><time>2026-03-29T15:33:11.655Z</time></trkpt><trkpt lat="44.8953133" lon="9.5390767"><ele>402.0</ele><time>2026-03-29T15:33:12.652Z</time></trkpt><trkpt lat="44.89533" lon="9.5391967"><ele>404.0</ele><time>2026-03-29T15:33:13.653Z</time></trkpt><trkpt lat="44.8953833" lon="9.5393433"><ele>406.0</ele><time>2026-03-29T15:33:14.656Z</time></trkpt><trkpt lat="44.8954717" lon="9.5395017"><ele>408.0</ele><time>2026-03-29T15:33:15.654Z</time></trkpt><trkpt lat="44.89554" lon="9.5396283"><ele>410.0</ele><time>2026-03-29T15:33:16.653Z</time></trkpt><trkpt lat="44.895615" lon="9.5397383"><ele>410.0</ele><time>2026-03-29T15:33:17.653Z</time></trkpt><trkpt lat="44.8956833" lon="9.5398433"><ele>410.0</ele><time>2026-03-29T15:33:18.653Z</time></trkpt><trkpt lat="44.8957333" lon="9.539955"><ele>410.0</ele><time>2026-03-29T15:33:19.654Z</time></trkpt><trkpt lat="44.89576" lon="9.5400833"><ele>410.0</ele><time>2026-03-29T15:33:20.654Z</time></trkpt><trkpt lat="44.895755" lon="9.540225"><ele>410.0</ele><time>2026-03-29T15:33:21.654Z</time></trkpt><trkpt lat="44.895725" lon="9.5403883"><ele>409.75</ele><time>2026-03-29T15:33:22.654Z</time></trkpt><trkpt lat="44.8956883" lon="9.5405583"><ele>409.5</ele><time>2026-03-29T15:33:23.654Z</time></trkpt><trkpt lat="44.8956467" lon="9.5407333"><ele>409.25</ele><time>2026-03-29T15:33:24.652Z</time></trkpt><trkpt lat="44.8956067" lon="9.54091"><ele>409.0</ele><time>2026-03-29T15:33:25.654Z</time></trkpt><trkpt lat="44.8955717" lon="9.5410833"><ele>409.6</ele><time>2026-03-29T15:33:26.654Z</time></trkpt><trkpt lat="44.8955583" lon="9.5412433"><ele>410.2</ele><time>2026-03-29T15:33:27.654Z</time></trkpt><trkpt lat="44.895545" lon="9.5413983"><ele>410.8</ele><time>2026-03-29T15:33:28.654Z</time></trkpt><trkpt lat="44.8955183" lon="9.54155"><ele>411.40000000000003</ele><time>2026-03-29T15:33:29.655Z</time></trkpt><trkpt lat="44.8954767" lon="9.54169"><ele>412.0</ele><time>2026-03-29T15:33:30.655Z</time></trkpt><trkpt lat="44.8954233" lon="9.5418167"><ele>412.00000000000006</ele><time>2026-03-29T15:33:31.655Z</time></trkpt><trkpt lat="44.895375" lon="9.5419317"><ele>412.0</ele><time>2026-03-29T15:33:32.653Z</time></trkpt><trkpt lat="44.89534" lon="9.5420317"><ele>412.0</ele><time>2026-03-29T15:33:33.656Z</time></trkpt><trkpt lat="44.8953267" lon="9.542125"><ele>412.0</ele><time>2026-03-29T15:33:34.654Z</time></trkpt><trkpt lat="44.8953683" lon="9.542275"><ele>412.00000000000006</ele><time>2026-03-29T15:33:36.655Z</time></trkpt><trkpt lat="44.8954367" lon="9.5423317"><ele>412.0</ele><time>2026-03-29T15:33:37.654Z</time></trkpt><trkpt lat="44.8955267" lon="9.5423967"><ele>414.25</ele><time>2026-03-29T15:33:38.654Z</time></trkpt><trkpt lat="44.8956267" lon="9.54248"><ele>416.5</ele><time>2026-03-29T15:33:39.654Z</time></trkpt><trkpt lat="44.8957217" lon="9.5425883"><ele>418.75</ele><time>2026-03-29T15:33:40.654Z</time></trkpt><trkpt lat="44.8958167" lon="9.5426733"><ele>421.0</ele><time>2026-03-29T15:33:41.653Z</time></trkpt><trkpt lat="44.8959117" lon="9.5427333"><ele>423.20000000000005</ele><time>2026-03-29T15:33:42.653Z</time></trkpt><trkpt lat="44.8960133" lon="9.5427667"><ele>425.40000000000003</ele><time>2026-03-29T15:33:43.652Z</time></trkpt><trkpt lat="44.8961183" lon="9.542785"><ele>427.6</ele><time>2026-03-29T15:33:44.654Z</time></trkpt><trkpt lat="44.8962333" lon="9.5427767"><ele>429.8</ele><time>2026-03-29T15:33:45.654Z</time></trkpt><trkpt lat="44.8963467" lon="9.542755"><ele>432.0</ele><time>2026-03-29T15:33:46.654Z</time></trkpt><trkpt lat="44.8964483" lon="9.5427117"><ele>432.0</ele><time>2026-03-29T15:33:47.654Z</time></trkpt><trkpt lat="44.8965383" lon="9.5426783"><ele>432.00000000000006</ele><time>2026-03-29T15:33:48.654Z</time></trkpt><trkpt lat="44.896625" lon="9.54266"><ele>432.00000000000006</ele><time>2026-03-29T15:33:49.653Z</time></trkpt><trkpt lat="44.89672" lon="9.542665"><ele>432.0</ele><time>2026-03-29T15:33:50.654Z</time></trkpt><trkpt lat="44.8968317" lon="9.5427017"><ele>432.0</ele><time>2026-03-29T15:33:51.653Z</time></trkpt><trkpt lat="44.8969567" lon="9.5427533"><ele>434.25</ele><time>2026-03-29T15:33:52.652Z</time></trkpt><trkpt lat="44.8970783" lon="9.5428"><ele>436.5</ele><time>2026-03-29T15:33:53.654Z</time></trkpt><trkpt lat="44.8972017" lon="9.54283"><ele>438.75</ele><time>2026-03-29T15:33:54.653Z</time></trkpt><trkpt lat="44.8973167" lon="9.5428583"><ele>441.0</ele><time>2026-03-29T15:33:55.653Z</time></trkpt><trkpt lat="44.897425" lon="9.5428933"><ele>443.0</ele><time>2026-03-29T15:33:56.654Z</time></trkpt><trkpt lat="44.8975367" lon="9.5429317"><ele>445.0</ele><time>2026-03-29T15:33:57.653Z</time></trkpt><trkpt lat="44.8976433" lon="9.5429617"><ele>447.0</ele><time>2026-03-29T15:33:58.655Z</time></trkpt><trkpt lat="44.8977433" lon="9.542975"><ele>449.0</ele><time>2026-03-29T15:33:59.656Z</time></trkpt><trkpt lat="44.8978483" lon="9.542965"><ele>451.0</ele><time>2026-03-29T15:34:00.656Z</time></trkpt><trkpt lat="44.8979667" lon="9.542945"><ele>452.25</ele><time>2026-03-29T15:34:01.656Z</time></trkpt><trkpt lat="44.8980933" lon="9.5429067"><ele>453.5</ele><time>2026-03-29T15:34:02.655Z</time></trkpt><trkpt lat="44.8982183" lon="9.542845"><ele>454.75</ele><time>2026-03-29T15:34:03.656Z</time></trkpt><trkpt lat="44.8983217" lon="9.5427783"><ele>456.0</ele><time>2026-03-29T15:34:04.655Z</time></trkpt><trkpt lat="44.8984083" lon="9.5427017"><ele>458.5</ele><time>2026-03-29T15:34:05.656Z</time></trkpt><trkpt lat="44.8984717" lon="9.5426117"><ele>461.0</ele><time>2026-03-29T15:34:06.656Z</time></trkpt><trkpt lat="44.898515" lon="9.54252"><ele>463.5</ele><time>2026-03-29T15:34:07.659Z</time></trkpt><trkpt lat="44.8985517" lon="9.5424267"><ele>466.0</ele><time>2026-03-29T15:34:08.656Z</time></trkpt><trkpt lat="44.8986283" lon="9.542315"><ele>468.5</ele><time>2026-03-29T15:34:10.655Z</time></trkpt><trkpt lat="44.8986967" lon="9.542335"><ele>471.0</ele><time>2026-03-29T15:34:12.653Z</time></trkpt><trkpt lat="44.898765" lon="9.542485"><ele>471.0</ele><time>2026-03-29T15:34:14.654Z</time></trkpt><trkpt lat="44.8987983" lon="9.5425833"><ele>471.0</ele><time>2026-03-29T15:34:15.654Z</time></trkpt><trkpt lat="44.8988283" lon="9.5426917"><ele>471.0</ele><time>2026-03-29T15:34:16.654Z</time></trkpt><trkpt lat="44.8988583" lon="9.5427983"><ele>471.0</ele><time>2026-03-29T15:34:17.654Z</time></trkpt><trkpt lat="44.8988817" lon="9.5428933"><ele>471.0</ele><time>2026-03-29T15:34:18.654Z</time></trkpt><trkpt lat="44.8988983" lon="9.5429883"><ele>471.0</ele><time>2026-03-29T15:34:19.653Z</time></trkpt><trkpt lat="44.8989233" lon="9.54311"><ele>471.3333333333333</ele><time>2026-03-29T15:34:20.654Z</time></trkpt><trkpt lat="44.89895" lon="9.5432333"><ele>471.66666666666663</ele><time>2026-03-29T15:34:21.654Z</time></trkpt><trkpt lat="44.898975" lon="9.54335"><ele>472.0</ele><time>2026-03-29T15:34:22.654Z</time></trkpt><trkpt lat="44.8989883" lon="9.54346"><ele>472.3333333333333</ele><time>2026-03-29T15:34:23.655Z</time></trkpt><trkpt lat="44.8989917" lon="9.5435733"><ele>472.66666666666663</ele><time>2026-03-29T15:34:24.652Z</time></trkpt><trkpt lat="44.8989833" lon="9.5436817"><ele>473.0</ele><time>2026-03-29T15:34:25.654Z</time></trkpt><trkpt lat="44.8989767" lon="9.543795"><ele>473.8333333333333</ele><time>2026-03-29T15:34:26.654Z</time></trkpt><trkpt lat="44.8989783" lon="9.5439117"><ele>474.66666666666663</ele><time>2026-03-29T15:34:27.653Z</time></trkpt><trkpt lat="44.8989917" lon="9.5440283"><ele>475.5</ele><time>2026-03-29T15:34:28.655Z</time></trkpt><trkpt lat="44.8990083" lon="9.5441433"><ele>476.33333333333337</ele><time>2026-03-29T15:34:29.654Z</time></trkpt><trkpt lat="44.8990333" lon="9.54426"><ele>477.1666666666667</ele><time>2026-03-29T15:34:30.654Z</time></trkpt><trkpt lat="44.8990633" lon="9.5443617"><ele>478.0</ele><time>2026-03-29T15:34:31.654Z</time></trkpt><trkpt lat="44.8991033" lon="9.54445"><ele>478.00000000000006</ele><time>2026-03-29T15:34:32.655Z</time></trkpt><trkpt lat="44.89916" lon="9.5445083"><ele>478.0</ele><time>2026-03-29T15:34:33.653Z</time></trkpt><trkpt lat="44.89923" lon="9.544555"><ele>478.00000000000006</ele><time>2026-03-29T15:34:34.654Z</time></trkpt><trkpt lat="44.8993017" lon="9.5446033"><ele>478.00000000000006</ele><time>2026-03-29T15:34:35.654Z</time></trkpt><trkpt lat="44.8993667" lon="9.54465"><ele>478.0</ele><time>2026-03-29T15:34:36.653Z</time></trkpt><trkpt lat="44.8994267" lon="9.5446967"><ele>478.00000000000006</ele><time>2026-03-29T15:34:37.655Z</time></trkpt><trkpt lat="44.8994833" lon="9.5447417"><ele>478.00000000000006</ele><time>2026-03-29T15:34:38.655Z</time></trkpt><trkpt lat="44.8995833" lon="9.5448217"><ele>478.79999999999995</ele><time>2026-03-29T15:34:40.654Z</time></trkpt><trkpt lat="44.89968" lon="9.5448967"><ele>479.59999999999997</ele><time>2026-03-29T15:34:42.654Z</time></trkpt><trkpt lat="44.8997833" lon="9.54495"><ele>480.40000000000003</ele><time>2026-03-29T15:34:44.654Z</time></trkpt><trkpt lat="44.8999083" lon="9.5450033"><ele>481.20000000000005</ele><time>2026-03-29T15:34:46.654Z</time></trkpt><trkpt lat="44.8999867" lon="9.5450317"><ele>482.0</ele><time>2026-03-29T15:34:47.654Z</time></trkpt><trkpt lat="44.9000667" lon="9.5450567"><ele>482.66666666666663</ele><time>2026-03-29T15:34:48.654Z</time></trkpt><trkpt lat="44.9001483" lon="9.5450767"><ele>483.3333333333333</ele><time>2026-03-29T15:34:49.655Z</time></trkpt><trkpt lat="44.900235" lon="9.5450867"><ele>484.0</ele><time>2026-03-29T15:34:50.654Z</time></trkpt><trkpt lat="44.9003267" lon="9.5450933"><ele>484.66666666666663</ele><time>2026-03-29T15:34:51.653Z</time></trkpt><trkpt lat="44.9004183" lon="9.5451"><ele>485.3333333333333</ele><time>2026-03-29T15:34:52.654Z</time></trkpt><trkpt lat="44.9005083" lon="9.545105"><ele>486.0</ele><time>2026-03-29T15:34:53.655Z</time></trkpt><trkpt lat="44.9005967" lon="9.5451033"><ele>486.0</ele><time>2026-03-29T15:34:54.654Z</time></trkpt><trkpt lat="44.9006867" lon="9.5451033"><ele>486.0</ele><time>2026-03-29T15:34:55.654Z</time></trkpt><trkpt lat="44.9007933" lon="9.545105"><ele>486.0</ele><time>2026-03-29T15:34:56.655Z</time></trkpt><trkpt lat="44.9009083" lon="9.54511"><ele>486.0</ele><time>2026-03-29T15:34:57.653Z</time></trkpt><trkpt lat="44.9010183" lon="9.5451117"><ele>486.0</ele><time>2026-03-29T15:34:58.654Z</time></trkpt><trkpt lat="44.9011233" lon="9.5451133"><ele>485.3333333333333</ele><time>2026-03-29T15:34:59.654Z</time></trkpt><trkpt lat="44.9012217" lon="9.5451217"><ele>484.66666666666663</ele><time>2026-03-29T15:35:00.654Z</time></trkpt><trkpt lat="44.9013083" lon="9.5451317"><ele>484.0</ele><time>2026-03-29T15:35:01.654Z</time></trkpt><trkpt lat="44.90138" lon="9.5451533"><ele>483.3333333333333</ele><time>2026-03-29T15:35:02.655Z</time></trkpt><trkpt lat="44.9014417" lon="9.54519"><ele>482.66666666666663</ele><time>2026-03-29T15:35:03.653Z</time></trkpt><trkpt lat="44.9014933" lon="9.5452433"><ele>482.0</ele><time>2026-03-29T15:35:04.654Z</time></trkpt><trkpt lat="44.9015333" lon="9.5453183"><ele>481.6</ele><time>2026-03-29T15:35:05.653Z</time></trkpt><trkpt lat="44.90156" lon="9.54541"><ele>481.20000000000005</ele><time>2026-03-29T15:35:06.654Z</time></trkpt><trkpt lat="44.901575" lon="9.545535"><ele>480.8</ele><time>2026-03-29T15:35:07.654Z</time></trkpt><trkpt lat="44.9015767" lon="9.5456733"><ele>480.4</ele><time>2026-03-29T15:35:08.654Z</time></trkpt><trkpt lat="44.9015633" lon="9.5458167"><ele>480.0</ele><time>2026-03-29T15:35:09.654Z</time></trkpt><trkpt lat="44.90154" lon="9.545955"><ele>480.0</ele><time>2026-03-29T15:35:10.654Z</time></trkpt><trkpt lat="44.9015033" lon="9.5461"><ele>480.0</ele><time>2026-03-29T15:35:11.654Z</time></trkpt><trkpt lat="44.9014567" lon="9.546245"><ele>480.0</ele><time>2026-03-29T15:35:12.654Z</time></trkpt><trkpt lat="44.9014117" lon="9.54638"><ele>480.0</ele><time>2026-03-29T15:35:13.654Z</time></trkpt><trkpt lat="44.90137" lon="9.5465"><ele>480.0</ele><time>2026-03-29T15:35:14.655Z</time></trkpt><trkpt lat="44.9013383" lon="9.5466267"><ele>480.2</ele><time>2026-03-29T15:35:15.654Z</time></trkpt><trkpt lat="44.9013117" lon="9.54676"><ele>480.4</ele><time>2026-03-29T15:35:16.653Z</time></trkpt><trkpt lat="44.9012933" lon="9.5469117"><ele>480.6</ele><time>2026-03-29T15:35:17.653Z</time></trkpt><trkpt lat="44.9012833" lon="9.5470767"><ele>480.8</ele><time>2026-03-29T15:35:18.653Z</time></trkpt><trkpt lat="44.90128" lon="9.547235"><ele>481.0</ele><time>2026-03-29T15:35:19.655Z</time></trkpt><trkpt lat="44.901275" lon="9.5473883"><ele>482.6</ele><time>2026-03-29T15:35:20.656Z</time></trkpt><trkpt lat="44.901245" lon="9.54753"><ele>484.20000000000005</ele><time>2026-03-29T15:35:21.653Z</time></trkpt><trkpt lat="44.9012017" lon="9.547665"><ele>485.79999999999995</ele><time>2026-03-29T15:35:22.654Z</time></trkpt><trkpt lat="44.90116" lon="9.5478067"><ele>487.4</ele><time>2026-03-29T15:35:23.655Z</time></trkpt><trkpt lat="44.9011267" lon="9.5479583"><ele>489.0</ele><time>2026-03-29T15:35:24.654Z</time></trkpt><trkpt lat="44.9010983" lon="9.54812"><ele>491.0</ele><time>2026-03-29T15:35:25.655Z</time></trkpt><trkpt lat="44.9010767" lon="9.5482917"><ele>493.0</ele><time>2026-03-29T15:35:26.654Z</time></trkpt><trkpt lat="44.9010617" lon="9.54847"><ele>495.0</ele><time>2026-03-29T15:35:27.654Z</time></trkpt><trkpt lat="44.9010517" lon="9.5486267"><ele>497.0</ele><time>2026-03-29T15:35:28.654Z</time></trkpt><trkpt lat="44.9010433" lon="9.5487617"><ele>496.99999999999994</ele><time>2026-03-29T15:35:29.654Z</time></trkpt><trkpt lat="44.9010333" lon="9.5488983"><ele>497.0</ele><time>2026-03-29T15:35:30.653Z</time></trkpt><trkpt lat="44.9010217" lon="9.5490267"><ele>497.0</ele><time>2026-03-29T15:35:31.654Z</time></trkpt><trkpt lat="44.9010133" lon="9.5491383"><ele>497.0</ele><time>2026-03-29T15:35:32.653Z</time></trkpt><trkpt lat="44.9010083" lon="9.54923"><ele>496.99999999999994</ele><time>2026-03-29T15:35:33.654Z</time></trkpt><trkpt lat="44.901" lon="9.549345"><ele>497.0</ele><time>2026-03-29T15:35:35.654Z</time></trkpt><trkpt lat="44.9009817" lon="9.549435"><ele>495.66666666666663</ele><time>2026-03-29T15:35:37.654Z</time></trkpt><trkpt lat="44.900995" lon="9.54955"><ele>494.3333333333333</ele><time>2026-03-29T15:35:39.654Z</time></trkpt><trkpt lat="44.9010433" lon="9.5496967"><ele>493.0</ele><time>2026-03-29T15:35:41.655Z</time></trkpt><trkpt lat="44.9010783" lon="9.5497833"><ele>491.66666666666663</ele><time>2026-03-29T15:35:42.653Z</time></trkpt><trkpt lat="44.901125" lon="9.54987"><ele>490.3333333333333</ele><time>2026-03-29T15:35:43.652Z</time></trkpt><trkpt lat="44.9011883" lon="9.5499683"><ele>489.0</ele><time>2026-03-29T15:35:44.653Z</time></trkpt><trkpt lat="44.9012683" lon="9.55009"><ele>489.0</ele><time>2026-03-29T15:35:45.653Z</time></trkpt><trkpt lat="44.9013567" lon="9.55023"><ele>489.0</ele><time>2026-03-29T15:35:46.657Z</time></trkpt><trkpt lat="44.901455" lon="9.55039"><ele>489.0</ele><time>2026-03-29T15:35:47.653Z</time></trkpt><trkpt lat="44.9015533" lon="9.5505567"><ele>489.0</ele><time>2026-03-29T15:35:48.653Z</time></trkpt><trkpt lat="44.9016517" lon="9.550725"><ele>489.0</ele><time>2026-03-29T15:35:49.654Z</time></trkpt><trkpt lat="44.9017483" lon="9.550885"><ele>489.0</ele><time>2026-03-29T15:35:50.653Z</time></trkpt><trkpt lat="44.901845" lon="9.5510333"><ele>489.0</ele><time>2026-03-29T15:35:51.654Z</time></trkpt><trkpt lat="44.9019467" lon="9.5511817"><ele>489.0</ele><time>2026-03-29T15:35:52.655Z</time></trkpt><trkpt lat="44.9020517" lon="9.551335"><ele>487.75</ele><time>2026-03-29T15:35:53.654Z</time></trkpt><trkpt lat="44.9021467" lon="9.5515"><ele>486.5</ele><time>2026-03-29T15:35:54.654Z</time></trkpt><trkpt lat="44.902235" lon="9.5516733"><ele>485.25</ele><time>2026-03-29T15:35:55.654Z</time></trkpt><trkpt lat="44.9023167" lon="9.5518433"><ele>484.0</ele><time>2026-03-29T15:35:56.653Z</time></trkpt><trkpt lat="44.9023967" lon="9.552005"><ele>482.0</ele><time>2026-03-29T15:35:57.654Z</time></trkpt><trkpt lat="44.9024717" lon="9.5521633"><ele>480.0</ele><time>2026-03-29T15:35:58.654Z</time></trkpt><trkpt lat="44.902535" lon="9.55232"><ele>478.0</ele><time>2026-03-29T15:35:59.656Z</time></trkpt><trkpt lat="44.90259" lon="9.552485"><ele>476.0</ele><time>2026-03-29T15:36:00.654Z</time></trkpt><trkpt lat="44.9026367" lon="9.552665"><ele>477.0</ele><time>2026-03-29T15:36:01.653Z</time></trkpt><trkpt lat="44.9026833" lon="9.5528467"><ele>478.0</ele><time>2026-03-29T15:36:02.656Z</time></trkpt><trkpt lat="44.9027367" lon="9.553025"><ele>479.0</ele><time>2026-03-29T15:36:03.654Z</time></trkpt><trkpt lat="44.902795" lon="9.5532"><ele>480.0</ele><time>2026-03-29T15:36:04.652Z</time></trkpt><trkpt lat="44.9028533" lon="9.553365"><ele>480.0</ele><time>2026-03-29T15:36:05.653Z</time></trkpt><trkpt lat="44.9029033" lon="9.5535133"><ele>480.0</ele><time>2026-03-29T15:36:06.655Z</time></trkpt><trkpt lat="44.9029517" lon="9.55365"><ele>480.0</ele><time>2026-03-29T15:36:07.653Z</time></trkpt><trkpt lat="44.9030083" lon="9.5537683"><ele>480.0</ele><time>2026-03-29T15:36:08.654Z</time></trkpt><trkpt lat="44.9030817" lon="9.5538717"><ele>480.0</ele><time>2026-03-29T15:36:09.656Z</time></trkpt><trkpt lat="44.9031667" lon="9.5539617"><ele>477.6</ele><time>2026-03-29T15:36:10.654Z</time></trkpt><trkpt lat="44.9032583" lon="9.5540467"><ele>475.2</ele><time>2026-03-29T15:36:11.653Z</time></trkpt><trkpt lat="44.9033467" lon="9.5541283"><ele>472.79999999999995</ele><time>2026-03-29T15:36:12.654Z</time></trkpt><trkpt lat="44.903425" lon="9.5542067"><ele>470.4</ele><time>2026-03-29T15:36:13.653Z</time></trkpt><trkpt lat="44.90349" lon="9.5542833"><ele>468.0</ele><time>2026-03-29T15:36:14.653Z</time></trkpt><trkpt lat="44.9035317" lon="9.5543633"><ele>468.0</ele><time>2026-03-29T15:36:15.653Z</time></trkpt><trkpt lat="44.90356" lon="9.55453"><ele>467.99999999999994</ele><time>2026-03-29T15:36:17.653Z</time></trkpt><trkpt lat="44.9035583" lon="9.554685"><ele>467.99999999999994</ele><time>2026-03-29T15:36:19.654Z</time></trkpt><trkpt lat="44.9035633" lon="9.5547917"><ele>468.0</ele><time>2026-03-29T15:36:21.652Z</time></trkpt><trkpt lat="44.90362" lon="9.554845"><ele>468.0</ele><time>2026-03-29T15:36:24.653Z</time></trkpt><trkpt lat="44.9037218" lon="9.55484"><ele>466.5</ele><time>2026-03-29T15:36:26.654Z</time></trkpt><trkpt lat="44.9037964" lon="9.5548406"><ele>465.0</ele><time>2026-03-29T15:36:27.654Z</time></trkpt><trkpt lat="44.9038747" lon="9.5548399"><ele>463.5</ele><time>2026-03-29T15:36:28.655Z</time></trkpt><trkpt lat="44.903961" lon="9.5548269"><ele>462.0</ele><time>2026-03-29T15:36:29.656Z</time></trkpt><trkpt lat="44.9040531" lon="9.5547858"><ele>460.5</ele><time>2026-03-29T15:36:30.654Z</time></trkpt><trkpt lat="44.9041444" lon="9.5547115"><ele>459.0</ele><time>2026-03-29T15:36:31.656Z</time></trkpt><trkpt lat="44.9042316" lon="9.5546265"><ele>456.79999999999995</ele><time>2026-03-29T15:36:32.655Z</time></trkpt><trkpt lat="44.904315" lon="9.5545419"><ele>454.59999999999997</ele><time>2026-03-29T15:36:33.655Z</time></trkpt><trkpt lat="44.9043968" lon="9.5544613"><ele>452.4</ele><time>2026-03-29T15:36:34.654Z</time></trkpt><trkpt lat="44.904475" lon="9.554379"><ele>450.2</ele><time>2026-03-29T15:36:35.655Z</time></trkpt><trkpt lat="44.9045487" lon="9.5542968"><ele>448.0</ele><time>2026-03-29T15:36:36.654Z</time></trkpt><trkpt lat="44.9046218" lon="9.5542132"><ele>448.0</ele><time>2026-03-29T15:36:37.656Z</time></trkpt><trkpt lat="44.9046963" lon="9.5541281"><ele>447.99999999999994</ele><time>2026-03-29T15:36:38.655Z</time></trkpt><trkpt lat="44.9047703" lon="9.5540381"><ele>447.99999999999994</ele><time>2026-03-29T15:36:39.653Z</time></trkpt><trkpt lat="44.9048411" lon="9.5539402"><ele>448.0</ele><time>2026-03-29T15:36:40.653Z</time></trkpt><trkpt lat="44.9049084" lon="9.5538298"><ele>448.0</ele><time>2026-03-29T15:36:41.653Z</time></trkpt><trkpt lat="44.9049719" lon="9.5537158"><ele>448.4</ele><time>2026-03-29T15:36:42.654Z</time></trkpt><trkpt lat="44.9050358" lon="9.5536111"><ele>448.79999999999995</ele><time>2026-03-29T15:36:43.654Z</time></trkpt><trkpt lat="44.9051075" lon="9.5535308"><ele>449.2</ele><time>2026-03-29T15:36:44.654Z</time></trkpt><trkpt lat="44.9051982" lon="9.5534861"><ele>449.6</ele><time>2026-03-29T15:36:45.653Z</time></trkpt><trkpt lat="44.9053092" lon="9.5534846"><ele>450.0</ele><time>2026-03-29T15:36:46.654Z</time></trkpt><trkpt lat="44.9054401" lon="9.5535196"><ele>450.0</ele><time>2026-03-29T15:36:47.655Z</time></trkpt><trkpt lat="44.9055818" lon="9.5535718"><ele>450.0</ele><time>2026-03-29T15:36:48.656Z</time></trkpt><trkpt lat="44.905725" lon="9.5536246"><ele>450.0</ele><time>2026-03-29T15:36:49.655Z</time></trkpt><trkpt lat="44.9058673" lon="9.55367"><ele>450.0</ele><time>2026-03-29T15:36:50.656Z</time></trkpt><trkpt lat="44.9060021" lon="9.5537084"><ele>447.5</ele><time>2026-03-29T15:36:51.656Z</time></trkpt><trkpt lat="44.9061297" lon="9.5537551"><ele>445.0</ele><time>2026-03-29T15:36:52.655Z</time></trkpt><trkpt lat="44.9062518" lon="9.5538172"><ele>442.5</ele><time>2026-03-29T15:36:53.656Z</time></trkpt><trkpt lat="44.9063585" lon="9.5539014"><ele>440.0</ele><time>2026-03-29T15:36:54.659Z</time></trkpt><trkpt lat="44.9064384" lon="9.55401"><ele>440.0</ele><time>2026-03-29T15:36:55.656Z</time></trkpt><trkpt lat="44.9065114" lon="9.5541223"><ele>440.0</ele><time>2026-03-29T15:36:56.658Z</time></trkpt><trkpt lat="44.9065926" lon="9.5542062"><ele>440.0</ele><time>2026-03-29T15:36:57.653Z</time></trkpt><trkpt lat="44.9066854" lon="9.5542441"><ele>440.0</ele><time>2026-03-29T15:36:58.653Z</time></trkpt><trkpt lat="44.9067832" lon="9.5542454"><ele>440.0</ele><time>2026-03-29T15:36:59.653Z</time></trkpt><trkpt lat="44.9068855" lon="9.5542316"><ele>439.0</ele><time>2026-03-29T15:37:00.653Z</time></trkpt><trkpt lat="44.9069865" lon="9.5542135"><ele>438.0</ele><time>2026-03-29T15:37:01.654Z</time></trkpt><trkpt lat="44.9070869" lon="9.5541931"><ele>437.0</ele><time>2026-03-29T15:37:02.657Z</time></trkpt><trkpt lat="44.9071853" lon="9.5541719"><ele>436.0</ele><time>2026-03-29T15:37:03.654Z</time></trkpt><trkpt lat="44.9072835" lon="9.554155"><ele>435.0</ele><time>2026-03-29T15:37:04.654Z</time></trkpt><trkpt lat="44.9073818" lon="9.5541377"><ele>435.0</ele><time>2026-03-29T15:37:05.654Z</time></trkpt><trkpt lat="44.9074799" lon="9.5541161"><ele>435.0</ele><time>2026-03-29T15:37:06.654Z</time></trkpt><trkpt lat="44.9075754" lon="9.554095"><ele>435.0</ele><time>2026-03-29T15:37:07.653Z</time></trkpt><trkpt lat="44.9076676" lon="9.55408"><ele>435.0</ele><time>2026-03-29T15:37:08.654Z</time></trkpt><trkpt lat="44.9077502" lon="9.5540782"><ele>435.0</ele><time>2026-03-29T15:37:09.652Z</time></trkpt><trkpt lat="44.9078255" lon="9.5541022"><ele>435.0</ele><time>2026-03-29T15:37:10.654Z</time></trkpt><trkpt lat="44.9078959" lon="9.5541479"><ele>433.75</ele><time>2026-03-29T15:37:11.654Z</time></trkpt><trkpt lat="44.9079687" lon="9.5542237"><ele>432.5</ele><time>2026-03-29T15:37:12.652Z</time></trkpt><trkpt lat="44.9080658" lon="9.5543404"><ele>431.25</ele><time>2026-03-29T15:37:13.654Z</time></trkpt><trkpt lat="44.9081833" lon="9.554515"><ele>430.0</ele><time>2026-03-29T15:37:14.654Z</time></trkpt><trkpt lat="44.908295" lon="9.5546783"><ele>427.8</ele><time>2026-03-29T15:37:15.654Z</time></trkpt><trkpt lat="44.90839" lon="9.5548183"><ele>425.6</ele><time>2026-03-29T15:37:16.654Z</time></trkpt><trkpt lat="44.90846" lon="9.55494"><ele>423.4</ele><time>2026-03-29T15:37:17.653Z</time></trkpt><trkpt lat="44.9085033" lon="9.5550683"><ele>421.2</ele><time>2026-03-29T15:37:18.654Z</time></trkpt><trkpt lat="44.9085" lon="9.5552"><ele>419.0</ele><time>2026-03-29T15:37:19.653Z</time></trkpt><trkpt lat="44.90846" lon="9.55532"><ele>416.5</ele><time>2026-03-29T15:37:20.655Z</time></trkpt><trkpt lat="44.9083733" lon="9.5554067"><ele>414.0</ele><time>2026-03-29T15:37:21.653Z</time></trkpt><trkpt lat="44.9082367" lon="9.5554667"><ele>411.5</ele><time>2026-03-29T15:37:22.653Z</time></trkpt><trkpt lat="44.9080867" lon="9.55553"><ele>409.0</ele><time>2026-03-29T15:37:23.654Z</time></trkpt><trkpt lat="44.9079367" lon="9.555585"><ele>409.0</ele><time>2026-03-29T15:37:24.654Z</time></trkpt><trkpt lat="44.907795" lon="9.555645"><ele>409.0</ele><time>2026-03-29T15:37:25.654Z</time></trkpt><trkpt lat="44.9076533" lon="9.555695"><ele>409.0</ele><time>2026-03-29T15:37:26.654Z</time></trkpt><trkpt lat="44.9075233" lon="9.5557433"><ele>409.0</ele><time>2026-03-29T15:37:27.654Z</time></trkpt><trkpt lat="44.9074117" lon="9.555785"><ele>409.6</ele><time>2026-03-29T15:37:28.653Z</time></trkpt><trkpt lat="44.90732" lon="9.555845"><ele>410.2</ele><time>2026-03-29T15:37:29.654Z</time></trkpt><trkpt lat="44.9072567" lon="9.55593"><ele>410.8</ele><time>2026-03-29T15:37:30.654Z</time></trkpt><trkpt lat="44.9072183" lon="9.556035"><ele>411.40000000000003</ele><time>2026-03-29T15:37:31.653Z</time></trkpt><trkpt lat="44.9072317" lon="9.5561583"><ele>412.0</ele><time>2026-03-29T15:37:32.654Z</time></trkpt><trkpt lat="44.9073" lon="9.5562667"><ele>409.5</ele><time>2026-03-29T15:37:33.654Z</time></trkpt><trkpt lat="44.9074067" lon="9.5563417"><ele>407.0</ele><time>2026-03-29T15:37:34.654Z</time></trkpt><trkpt lat="44.9075533" lon="9.5563733"><ele>404.5</ele><time>2026-03-29T15:37:35.654Z</time></trkpt><trkpt lat="44.9077133" lon="9.5564"><ele>402.0</ele><time>2026-03-29T15:37:36.653Z</time></trkpt><trkpt lat="44.9078817" lon="9.55643"><ele>401.5</ele><time>2026-03-29T15:37:37.654Z</time></trkpt><trkpt lat="44.90803" lon="9.5564783"><ele>401.0</ele><time>2026-03-29T15:37:38.658Z</time></trkpt><trkpt lat="44.90817" lon="9.5565333"><ele>400.5</ele><time>2026-03-29T15:37:39.654Z</time></trkpt><trkpt lat="44.9082983" lon="9.5565783"><ele>400.0</ele><time>2026-03-29T15:37:40.653Z</time></trkpt><trkpt lat="44.90841" lon="9.556595"><ele>397.0</ele><time>2026-03-29T15:37:41.653Z</time></trkpt><trkpt lat="44.90852" lon="9.5565633"><ele>394.0</ele><time>2026-03-29T15:37:42.654Z</time></trkpt><trkpt lat="44.9086317" lon="9.5564817"><ele>391.0</ele><time>2026-03-29T15:37:43.653Z</time></trkpt><trkpt lat="44.908745" lon="9.5563617"><ele>388.0</ele><time>2026-03-29T15:37:44.653Z</time></trkpt><trkpt lat="44.908865" lon="9.556255"><ele>389.0</ele><time>2026-03-29T15:37:45.654Z</time></trkpt><trkpt lat="44.9089933" lon="9.556185"><ele>390.0</ele><time>2026-03-29T15:37:46.652Z</time></trkpt><trkpt lat="44.90912" lon="9.5561233"><ele>391.0</ele><time>2026-03-29T15:37:47.654Z</time></trkpt><trkpt lat="44.909245" lon="9.5560667"><ele>392.0</ele><time>2026-03-29T15:37:48.654Z</time></trkpt><trkpt lat="44.9093617" lon="9.5560167"><ele>391.99999999999994</ele><time>2026-03-29T15:37:49.655Z</time></trkpt><trkpt lat="44.9094667" lon="9.5559917"><ele>392.0</ele><time>2026-03-29T15:37:50.653Z</time></trkpt><trkpt lat="44.9095533" lon="9.556"><ele>392.0</ele><time>2026-03-29T15:37:51.653Z</time></trkpt><trkpt lat="44.90962" lon="9.55605"><ele>392.0</ele><time>2026-03-29T15:37:52.653Z</time></trkpt><trkpt lat="44.90964" lon="9.5561533"><ele>391.99999999999994</ele><time>2026-03-29T15:37:53.654Z</time></trkpt><trkpt lat="44.9096283" lon="9.556265"><ele>392.0</ele><time>2026-03-29T15:37:54.653Z</time></trkpt><trkpt lat="44.90955" lon="9.5563467"><ele>391.0</ele><time>2026-03-29T15:37:55.655Z</time></trkpt><trkpt lat="44.9094533" lon="9.55641"><ele>390.0</ele><time>2026-03-29T15:37:56.655Z</time></trkpt><trkpt lat="44.909315" lon="9.5564367"><ele>389.0</ele><time>2026-03-29T15:37:57.655Z</time></trkpt><trkpt lat="44.90919" lon="9.5564683"><ele>388.0</ele><time>2026-03-29T15:37:58.656Z</time></trkpt><trkpt lat="44.9090733" lon="9.5565267"><ele>388.0</ele><time>2026-03-29T15:37:59.655Z</time></trkpt><trkpt lat="44.908975" lon="9.5566517"><ele>388.0</ele><time>2026-03-29T15:38:00.655Z</time></trkpt><trkpt lat="44.9089033" lon="9.55683"><ele>388.0</ele><time>2026-03-29T15:38:01.655Z</time></trkpt><trkpt lat="44.908855" lon="9.5570383"><ele>388.0</ele><time>2026-03-29T15:38:02.654Z</time></trkpt><trkpt lat="44.908825" lon="9.5572517"><ele>385.0</ele><time>2026-03-29T15:38:03.654Z</time></trkpt><trkpt lat="44.9087967" lon="9.5574617"><ele>382.0</ele><time>2026-03-29T15:38:04.654Z</time></trkpt><trkpt lat="44.9087567" lon="9.55767"><ele>379.0</ele><time>2026-03-29T15:38:05.655Z</time></trkpt><trkpt lat="44.9087033" lon="9.557865"><ele>377.0</ele><time>2026-03-29T15:38:06.653Z</time></trkpt><trkpt lat="44.90864" lon="9.5580483"><ele>375.0</ele><time>2026-03-29T15:38:07.656Z</time></trkpt><trkpt lat="44.908585" lon="9.5582317"><ele>373.0</ele><time>2026-03-29T15:38:08.655Z</time></trkpt><trkpt lat="44.9085483" lon="9.5584233"><ele>371.0</ele><time>2026-03-29T15:38:09.653Z</time></trkpt><trkpt lat="44.90853" lon="9.558625"><ele>368.75</ele><time>2026-03-29T15:38:10.655Z</time></trkpt><trkpt lat="44.9085217" lon="9.558825"><ele>366.5</ele><time>2026-03-29T15:38:11.652Z</time></trkpt><trkpt lat="44.9085117" lon="9.5590183"><ele>364.25</ele><time>2026-03-29T15:38:12.655Z</time></trkpt><trkpt lat="44.9084867" lon="9.5592167"><ele>362.0</ele><time>2026-03-29T15:38:13.652Z</time></trkpt><trkpt lat="44.9084433" lon="9.5594167"><ele>362.75</ele><time>2026-03-29T15:38:14.652Z</time></trkpt><trkpt lat="44.9083967" lon="9.55961"><ele>363.5</ele><time>2026-03-29T15:38:15.653Z</time></trkpt><trkpt lat="44.9083517" lon="9.5598"><ele>364.25</ele><time>2026-03-29T15:38:16.652Z</time></trkpt><trkpt lat="44.9083033" lon="9.5599783"><ele>365.0</ele><time>2026-03-29T15:38:17.654Z</time></trkpt><trkpt lat="44.9082583" lon="9.5601417"><ele>365.0</ele><time>2026-03-29T15:38:18.654Z</time></trkpt><trkpt lat="44.9082" lon="9.5602733"><ele>365.0</ele><time>2026-03-29T15:38:19.653Z</time></trkpt><trkpt lat="44.908115" lon="9.5603667"><ele>365.0</ele><time>2026-03-29T15:38:20.654Z</time></trkpt><trkpt lat="44.9079917" lon="9.5604117"><ele>365.0</ele><time>2026-03-29T15:38:21.654Z</time></trkpt><trkpt lat="44.9078483" lon="9.560435"><ele>363.0</ele><time>2026-03-29T15:38:22.653Z</time></trkpt><trkpt lat="44.90769" lon="9.56043"><ele>361.0</ele><time>2026-03-29T15:38:23.652Z</time></trkpt><trkpt lat="44.90754" lon="9.56042"><ele>359.0</ele><time>2026-03-29T15:38:24.653Z</time></trkpt><trkpt lat="44.907395" lon="9.5604233"><ele>358.25</ele><time>2026-03-29T15:38:25.654Z</time></trkpt><trkpt lat="44.907255" lon="9.5604533"><ele>357.5</ele><time>2026-03-29T15:38:26.653Z</time></trkpt><trkpt lat="44.9071183" lon="9.5605333"><ele>356.75</ele><time>2026-03-29T15:38:27.653Z</time></trkpt><trkpt lat="44.9069917" lon="9.5606583"><ele>356.0</ele><time>2026-03-29T15:38:28.653Z</time></trkpt><trkpt lat="44.9068783" lon="9.5608067"><ele>356.0</ele><time>2026-03-29T15:38:29.654Z</time></trkpt><trkpt lat="44.9067733" lon="9.5609517"><ele>356.0</ele><time>2026-03-29T15:38:30.653Z</time></trkpt><trkpt lat="44.9066767" lon="9.5610867"><ele>356.0</ele><time>2026-03-29T15:38:31.654Z</time></trkpt><trkpt lat="44.9065867" lon="9.5612"><ele>356.0</ele><time>2026-03-29T15:38:32.654Z</time></trkpt><trkpt lat="44.9064967" lon="9.561285"><ele>354.25</ele><time>2026-03-29T15:38:33.654Z</time></trkpt><trkpt lat="44.90639" lon="9.56134"><ele>352.5</ele><time>2026-03-29T15:38:34.653Z</time></trkpt><trkpt lat="44.906265" lon="9.5613833"><ele>350.75</ele><time>2026-03-29T15:38:35.655Z</time></trkpt><trkpt lat="44.9061333" lon="9.56142"><ele>349.0</ele><time>2026-03-29T15:38:36.653Z</time></trkpt><trkpt lat="44.9060083" lon="9.5614583"><ele>348.5</ele><time>2026-03-29T15:38:37.654Z</time></trkpt><trkpt lat="44.90589" lon="9.5615183"><ele>348.0</ele><time>2026-03-29T15:38:38.654Z</time></trkpt><trkpt lat="44.905795" lon="9.5616117"><ele>347.5</ele><time>2026-03-29T15:38:39.654Z</time></trkpt><trkpt lat="44.9057317" lon="9.56175"><ele>347.0</ele><time>2026-03-29T15:38:40.653Z</time></trkpt><trkpt lat="44.9057083" lon="9.5618967"><ele>345.0</ele><time>2026-03-29T15:38:41.654Z</time></trkpt><trkpt lat="44.905715" lon="9.5620383"><ele>343.0</ele><time>2026-03-29T15:38:42.654Z</time></trkpt><trkpt lat="44.905735" lon="9.5621933"><ele>341.0</ele><time>2026-03-29T15:38:43.654Z</time></trkpt><trkpt lat="44.90575" lon="9.56238"><ele>339.0</ele><time>2026-03-29T15:38:44.654Z</time></trkpt><trkpt lat="44.9057517" lon="9.5626117"><ele>336.6666666666667</ele><time>2026-03-29T15:38:45.654Z</time></trkpt><trkpt lat="44.9057467" lon="9.5628917"><ele>334.33333333333337</ele><time>2026-03-29T15:38:46.653Z</time></trkpt><trkpt lat="44.9057433" lon="9.5631917"><ele>332.0</ele><time>2026-03-29T15:38:47.652Z</time></trkpt><trkpt lat="44.9057367" lon="9.5634667"><ele>330.6666666666667</ele><time>2026-03-29T15:38:48.654Z</time></trkpt><trkpt lat="44.9057317" lon="9.563715"><ele>329.3333333333333</ele><time>2026-03-29T15:38:49.655Z</time></trkpt><trkpt lat="44.9057283" lon="9.5639367"><ele>328.0</ele><time>2026-03-29T15:38:50.654Z</time></trkpt><trkpt lat="44.905735" lon="9.56413"><ele>328.0</ele><time>2026-03-29T15:38:51.652Z</time></trkpt><trkpt lat="44.9057683" lon="9.564295"><ele>328.0</ele><time>2026-03-29T15:38:52.652Z</time></trkpt><trkpt lat="44.905845" lon="9.56444"><ele>328.0</ele><time>2026-03-29T15:38:53.655Z</time></trkpt><trkpt lat="44.9059783" lon="9.56458"><ele>328.0</ele><time>2026-03-29T15:38:54.652Z</time></trkpt><trkpt lat="44.906155" lon="9.5647283"><ele>326.0</ele><time>2026-03-29T15:38:55.654Z</time></trkpt><trkpt lat="44.9063333" lon="9.5648817"><ele>324.0</ele><time>2026-03-29T15:38:56.655Z</time></trkpt><trkpt lat="44.9064933" lon="9.5650283"><ele>322.0</ele><time>2026-03-29T15:38:57.654Z</time></trkpt><trkpt lat="44.9066417" lon="9.5651667"><ele>323.3333333333333</ele><time>2026-03-29T15:38:58.653Z</time></trkpt><trkpt lat="44.9067867" lon="9.5653117"><ele>324.6666666666667</ele><time>2026-03-29T15:38:59.653Z</time></trkpt><trkpt lat="44.9069283" lon="9.5654633"><ele>326.0</ele><time>2026-03-29T15:39:00.654Z</time></trkpt><trkpt lat="44.90706" lon="9.5656133"><ele>322.6666666666667</ele><time>2026-03-29T15:39:01.653Z</time></trkpt><trkpt lat="44.9071817" lon="9.5657633"><ele>319.3333333333333</ele><time>2026-03-29T15:39:02.654Z</time></trkpt><trkpt lat="44.9072967" lon="9.5659117"><ele>316.0</ele><time>2026-03-29T15:39:03.654Z</time></trkpt><trkpt lat="44.9074017" lon="9.5660483"><ele>316.0</ele><time>2026-03-29T15:39:04.654Z</time></trkpt><trkpt lat="44.907485" lon="9.5661667"><ele>316.0</ele><time>2026-03-29T15:39:05.655Z</time></trkpt><trkpt lat="44.90755" lon="9.566265"><ele>316.0</ele><time>2026-03-29T15:39:06.652Z</time></trkpt><trkpt lat="44.9075883" lon="9.5663667"><ele>316.0</ele><time>2026-03-29T15:39:07.655Z</time></trkpt><trkpt lat="44.9076033" lon="9.5664767"><ele>316.0</ele><time>2026-03-29T15:39:08.654Z</time></trkpt><trkpt lat="44.9075633" lon="9.5665733"><ele>312.75</ele><time>2026-03-29T15:39:09.653Z</time></trkpt><trkpt lat="44.9075" lon="9.5666583"><ele>309.5</ele><time>2026-03-29T15:39:10.654Z</time></trkpt><trkpt lat="44.907405" lon="9.5667167"><ele>306.25</ele><time>2026-03-29T15:39:11.654Z</time></trkpt><trkpt lat="44.9072383" lon="9.5667583"><ele>303.0</ele><time>2026-03-29T15:39:12.654Z</time></trkpt><trkpt lat="44.9070517" lon="9.5668367"><ele>303.0</ele><time>2026-03-29T15:39:13.655Z</time></trkpt><trkpt lat="44.90688" lon="9.5669617"><ele>303.0</ele><time>2026-03-29T15:39:14.654Z</time></trkpt><trkpt lat="44.9067317" lon="9.5671133"><ele>303.0</ele><time>2026-03-29T15:39:15.652Z</time></trkpt><trkpt lat="44.9066067" lon="9.5672567"><ele>301.0</ele><time>2026-03-29T15:39:16.654Z</time></trkpt><trkpt lat="44.906505" lon="9.5673783"><ele>299.0</ele><time>2026-03-29T15:39:17.653Z</time></trkpt><trkpt lat="44.906425" lon="9.5674917"><ele>297.0</ele><time>2026-03-29T15:39:18.653Z</time></trkpt><trkpt lat="44.9063667" lon="9.567615"><ele>295.0</ele><time>2026-03-29T15:39:19.653Z</time></trkpt><trkpt lat="44.9063433" lon="9.5677683"><ele>293.75</ele><time>2026-03-29T15:39:20.654Z</time></trkpt><trkpt lat="44.90635" lon="9.5679467"><ele>292.5</ele><time>2026-03-29T15:39:21.653Z</time></trkpt><trkpt lat="44.9063733" lon="9.5681283"><ele>291.25</ele><time>2026-03-29T15:39:22.655Z</time></trkpt><trkpt lat="44.9064033" lon="9.5682933"><ele>290.0</ele><time>2026-03-29T15:39:23.654Z</time></trkpt><trkpt lat="44.9064433" lon="9.5684283"><ele>290.0</ele><time>2026-03-29T15:39:24.654Z</time></trkpt><trkpt lat="44.90651" lon="9.5685233"><ele>290.0</ele><time>2026-03-29T15:39:25.654Z</time></trkpt><trkpt lat="44.9065933" lon="9.5685867"><ele>290.0</ele><time>2026-03-29T15:39:26.656Z</time></trkpt><trkpt lat="44.9067017" lon="9.56862"><ele>290.0</ele><time>2026-03-29T15:39:27.654Z</time></trkpt><trkpt lat="44.9068183" lon="9.5686483"><ele>290.0</ele><time>2026-03-29T15:39:28.657Z</time></trkpt><trkpt lat="44.9069433" lon="9.5686767"><ele>287.25</ele><time>2026-03-29T15:39:29.654Z</time></trkpt><trkpt lat="44.9070683" lon="9.5687133"><ele>284.5</ele><time>2026-03-29T15:39:30.653Z</time></trkpt><trkpt lat="44.90719" lon="9.568765"><ele>281.75</ele><time>2026-03-29T15:39:31.654Z</time></trkpt><trkpt lat="44.907315" lon="9.568845"><ele>279.0</ele><time>2026-03-29T15:39:32.654Z</time></trkpt><trkpt lat="44.9074367" lon="9.568945"><ele>279.0</ele><time>2026-03-29T15:39:33.652Z</time></trkpt><trkpt lat="44.9075567" lon="9.5690483"><ele>279.0</ele><time>2026-03-29T15:39:34.653Z</time></trkpt><trkpt lat="44.9076733" lon="9.5691483"><ele>279.0</ele><time>2026-03-29T15:39:35.654Z</time></trkpt><trkpt lat="44.9077867" lon="9.56925"><ele>279.0</ele><time>2026-03-29T15:39:36.653Z</time></trkpt><trkpt lat="44.9079" lon="9.5693467"><ele>278.75</ele><time>2026-03-29T15:39:37.654Z</time></trkpt><trkpt lat="44.9080183" lon="9.5694367"><ele>278.5</ele><time>2026-03-29T15:39:38.653Z</time></trkpt><trkpt lat="44.90815" lon="9.569525"><ele>278.25</ele><time>2026-03-29T15:39:39.653Z</time></trkpt><trkpt lat="44.9082933" lon="9.5696167"><ele>278.0</ele><time>2026-03-29T15:39:40.654Z</time></trkpt><trkpt lat="44.9084417" lon="9.5697133"><ele>274.33333333333337</ele><time>2026-03-29T15:39:41.654Z</time></trkpt><trkpt lat="44.9085917" lon="9.5698083"><ele>270.6666666666667</ele><time>2026-03-29T15:39:42.653Z</time></trkpt><trkpt lat="44.9087383" lon="9.5699017"><ele>267.0</ele><time>2026-03-29T15:39:43.654Z</time></trkpt><trkpt lat="44.9088833" lon="9.569995"><ele>267.0</ele><time>2026-03-29T15:39:44.653Z</time></trkpt><trkpt lat="44.9090267" lon="9.570085"><ele>267.0</ele><time>2026-03-29T15:39:45.653Z</time></trkpt><trkpt lat="44.9091767" lon="9.570175"><ele>267.0</ele><time>2026-03-29T15:39:46.653Z</time></trkpt><trkpt lat="44.9093267" lon="9.5702683"><ele>265.5</ele><time>2026-03-29T15:39:47.652Z</time></trkpt><trkpt lat="44.9094633" lon="9.57036"><ele>264.0</ele><time>2026-03-29T15:39:48.653Z</time></trkpt><trkpt lat="44.90958" lon="9.5704417"><ele>262.5</ele><time>2026-03-29T15:39:49.653Z</time></trkpt><trkpt lat="44.9096767" lon="9.5705167"><ele>261.0</ele><time>2026-03-29T15:39:50.655Z</time></trkpt><trkpt lat="44.909745" lon="9.570595"><ele>261.0</ele><time>2026-03-29T15:39:51.654Z</time></trkpt><trkpt lat="44.90979" lon="9.5706917"><ele>261.0</ele><time>2026-03-29T15:39:52.654Z</time></trkpt><trkpt lat="44.9098083" lon="9.57081"><ele>261.0</ele><time>2026-03-29T15:39:53.655Z</time></trkpt><trkpt lat="44.9097983" lon="9.57094"><ele>261.0</ele><time>2026-03-29T15:39:54.654Z</time></trkpt><trkpt lat="44.9097383" lon="9.5710517"><ele>261.0</ele><time>2026-03-29T15:39:55.654Z</time></trkpt><trkpt lat="44.909645" lon="9.5711517"><ele>259.75</ele><time>2026-03-29T15:39:56.655Z</time></trkpt><trkpt lat="44.9095217" lon="9.5712383"><ele>258.5</ele><time>2026-03-29T15:39:57.653Z</time></trkpt><trkpt lat="44.9093883" lon="9.5713233"><ele>257.25</ele><time>2026-03-29T15:39:58.653Z</time></trkpt><trkpt lat="44.9092567" lon="9.5714033"><ele>256.0</ele><time>2026-03-29T15:39:59.654Z</time></trkpt><trkpt lat="44.9091317" lon="9.5714817"><ele>255.0</ele><time>2026-03-29T15:40:00.654Z</time></trkpt><trkpt lat="44.90902" lon="9.57156"><ele>254.0</ele><time>2026-03-29T15:40:01.653Z</time></trkpt><trkpt lat="44.9089267" lon="9.5716533"><ele>253.0</ele><time>2026-03-29T15:40:02.654Z</time></trkpt><trkpt lat="44.908855" lon="9.5717767"><ele>252.0</ele><time>2026-03-29T15:40:03.654Z</time></trkpt><trkpt lat="44.90881" lon="9.5719267"><ele>250.8</ele><time>2026-03-29T15:40:04.658Z</time></trkpt><trkpt lat="44.9087883" lon="9.572085"><ele>249.6</ele><time>2026-03-29T15:40:05.654Z</time></trkpt><trkpt lat="44.9087783" lon="9.5722433"><ele>248.40000000000003</ele><time>2026-03-29T15:40:06.654Z</time></trkpt><trkpt lat="44.90877" lon="9.572395"><ele>247.20000000000002</ele><time>2026-03-29T15:40:07.655Z</time></trkpt><trkpt lat="44.9087567" lon="9.57253"><ele>246.0</ele><time>2026-03-29T15:40:08.653Z</time></trkpt><trkpt lat="44.908735" lon="9.5726467"><ele>246.0</ele><time>2026-03-29T15:40:09.653Z</time></trkpt><trkpt lat="44.908695" lon="9.5727433"><ele>246.0</ele><time>2026-03-29T15:40:10.659Z</time></trkpt><trkpt lat="44.908635" lon="9.5728133"><ele>246.0</ele><time>2026-03-29T15:40:11.654Z</time></trkpt><trkpt lat="44.90856" lon="9.5728533"><ele>246.0</ele><time>2026-03-29T15:40:12.654Z</time></trkpt><trkpt lat="44.90848" lon="9.5728683"><ele>246.0</ele><time>2026-03-29T15:40:13.652Z</time></trkpt><trkpt lat="44.908395" lon="9.572855"><ele>246.0</ele><time>2026-03-29T15:40:14.654Z</time></trkpt><trkpt lat="44.9083117" lon="9.5728267"><ele>245.5</ele><time>2026-03-29T15:40:15.653Z</time></trkpt><trkpt lat="44.90823" lon="9.572805"><ele>245.0</ele><time>2026-03-29T15:40:16.654Z</time></trkpt><trkpt lat="44.90815" lon="9.57279"><ele>244.5</ele><time>2026-03-29T15:40:17.654Z</time></trkpt><trkpt lat="44.9080717" lon="9.5727867"><ele>244.0</ele><time>2026-03-29T15:40:18.653Z</time></trkpt><trkpt lat="44.9079967" lon="9.5727933"><ele>243.5</ele><time>2026-03-29T15:40:19.656Z</time></trkpt><trkpt lat="44.907935" lon="9.572825"><ele>243.0</ele><time>2026-03-29T15:40:20.655Z</time></trkpt><trkpt lat="44.90785" lon="9.572935"><ele>240.75</ele><time>2026-03-29T15:40:22.654Z</time></trkpt><trkpt lat="44.9078333" lon="9.5731067"><ele>238.5</ele><time>2026-03-29T15:40:24.655Z</time></trkpt><trkpt lat="44.90787" lon="9.573215"><ele>236.25</ele><time>2026-03-29T15:40:25.655Z</time></trkpt><trkpt lat="44.907945" lon="9.5733583"><ele>234.0</ele><time>2026-03-29T15:40:26.655Z</time></trkpt><trkpt lat="44.908035" lon="9.573545"><ele>231.0</ele><time>2026-03-29T15:40:27.655Z</time></trkpt><trkpt lat="44.908115" lon="9.5737617"><ele>228.0</ele><time>2026-03-29T15:40:28.653Z</time></trkpt><trkpt lat="44.9081817" lon="9.574015"><ele>225.0</ele><time>2026-03-29T15:40:29.654Z</time></trkpt><trkpt lat="44.9082283" lon="9.5742933"><ele>223.66666666666669</ele><time>2026-03-29T15:40:30.653Z</time></trkpt><trkpt lat="44.9082633" lon="9.5746"><ele>222.33333333333334</ele><time>2026-03-29T15:40:31.655Z</time></trkpt><trkpt lat="44.908295" lon="9.5749083"><ele>221.0</ele><time>2026-03-29T15:40:32.653Z</time></trkpt><trkpt lat="44.90833" lon="9.5752083"><ele>221.33333333333334</ele><time>2026-03-29T15:40:33.653Z</time></trkpt><trkpt lat="44.9083683" lon="9.5754917"><ele>221.66666666666669</ele><time>2026-03-29T15:40:34.654Z</time></trkpt><trkpt lat="44.908405" lon="9.57576"><ele>222.0</ele><time>2026-03-29T15:40:35.654Z</time></trkpt><trkpt lat="44.9084417" lon="9.5760183"><ele>220.33333333333331</ele><time>2026-03-29T15:40:36.653Z</time></trkpt><trkpt lat="44.9084783" lon="9.5762633"><ele>218.66666666666666</ele><time>2026-03-29T15:40:37.653Z</time></trkpt><trkpt lat="44.9085183" lon="9.5765033"><ele>217.0</ele><time>2026-03-29T15:40:38.656Z</time></trkpt><trkpt lat="44.9085533" lon="9.5767333"><ele>217.0</ele><time>2026-03-29T15:40:39.652Z</time></trkpt><trkpt lat="44.9085767" lon="9.5769583"><ele>217.0</ele><time>2026-03-29T15:40:40.654Z</time></trkpt><trkpt lat="44.908575" lon="9.5771717"><ele>217.0</ele><time>2026-03-29T15:40:41.654Z</time></trkpt><trkpt lat="44.90854" lon="9.5773717"><ele>215.66666666666666</ele><time>2026-03-29T15:40:42.655Z</time></trkpt><trkpt lat="44.9084933" lon="9.5775683"><ele>214.33333333333331</ele><time>2026-03-29T15:40:43.653Z</time></trkpt><trkpt lat="44.9084483" lon="9.5777783"><ele>213.0</ele><time>2026-03-29T15:40:44.655Z</time></trkpt><trkpt lat="44.90842" lon="9.57802"><ele>210.66666666666669</ele><time>2026-03-29T15:40:45.653Z</time></trkpt><trkpt lat="44.90841" lon="9.5782817"><ele>208.33333333333334</ele><time>2026-03-29T15:40:46.654Z</time></trkpt><trkpt lat="44.9084117" lon="9.57854"><ele>206.0</ele><time>2026-03-29T15:40:47.654Z</time></trkpt><trkpt lat="44.9084133" lon="9.5787883"><ele>204.0</ele><time>2026-03-29T15:40:48.655Z</time></trkpt><trkpt lat="44.9084133" lon="9.5790283"><ele>202.0</ele><time>2026-03-29T15:40:49.654Z</time></trkpt><trkpt lat="44.9084117" lon="9.57926"><ele>200.0</ele><time>2026-03-29T15:40:50.653Z</time></trkpt><trkpt lat="44.9084133" lon="9.5794867"><ele>198.33333333333334</ele><time>2026-03-29T15:40:51.653Z</time></trkpt><trkpt lat="44.9084183" lon="9.5797067"><ele>196.66666666666669</ele><time>2026-03-29T15:40:52.652Z</time></trkpt><trkpt lat="44.908425" lon="9.57992"><ele>195.0</ele><time>2026-03-29T15:40:53.654Z</time></trkpt><trkpt lat="44.9084433" lon="9.5801283"><ele>195.0</ele><time>2026-03-29T15:40:54.653Z</time></trkpt><trkpt lat="44.9084733" lon="9.5803283"><ele>195.0</ele><time>2026-03-29T15:40:55.654Z</time></trkpt><trkpt lat="44.9085117" lon="9.5805183"><ele>195.0</ele><time>2026-03-29T15:40:56.654Z</time></trkpt><trkpt lat="44.90855" lon="9.5807033"><ele>195.0</ele><time>2026-03-29T15:40:57.654Z</time></trkpt><trkpt lat="44.9085783" lon="9.5808883"><ele>194.0</ele><time>2026-03-29T15:40:58.653Z</time></trkpt><trkpt lat="44.908595" lon="9.58107"><ele>193.0</ele><time>2026-03-29T15:40:59.657Z</time></trkpt><trkpt lat="44.9085967" lon="9.5812467"><ele>192.0</ele><time>2026-03-29T15:41:00.654Z</time></trkpt><trkpt lat="44.9085917" lon="9.5814167"><ele>191.0</ele><time>2026-03-29T15:41:01.654Z</time></trkpt><trkpt lat="44.90858" lon="9.5815683"><ele>190.60000000000002</ele><time>2026-03-29T15:41:02.654Z</time></trkpt><trkpt lat="44.9085683" lon="9.5816967"><ele>190.2</ele><time>2026-03-29T15:41:03.655Z</time></trkpt><trkpt lat="44.9085583" lon="9.581795"><ele>189.8</ele><time>2026-03-29T15:41:04.653Z</time></trkpt><trkpt lat="44.9085267" lon="9.581905"><ele>189.39999999999998</ele><time>2026-03-29T15:41:06.653Z</time></trkpt><trkpt lat="44.9084533" lon="9.5817733"><ele>189.0</ele><time>2026-03-29T15:41:10.655Z</time></trkpt><trkpt lat="44.908415" lon="9.5816583"><ele>188.25</ele><time>2026-03-29T15:41:11.654Z</time></trkpt><trkpt lat="44.9083567" lon="9.5815"><ele>187.5</ele><time>2026-03-29T15:41:12.653Z</time></trkpt><trkpt lat="44.90826" lon="9.581345"><ele>186.75</ele><time>2026-03-29T15:41:13.652Z</time></trkpt><trkpt lat="44.908145" lon="9.5811967"><ele>186.0</ele><time>2026-03-29T15:41:14.652Z</time></trkpt><trkpt lat="44.908035" lon="9.5810683"><ele>186.0</ele><time>2026-03-29T15:41:15.653Z</time></trkpt><trkpt lat="44.9079283" lon="9.5809517"><ele>186.0</ele><time>2026-03-29T15:41:16.653Z</time></trkpt><trkpt lat="44.9078233" lon="9.5808467"><ele>186.0</ele><time>2026-03-29T15:41:17.654Z</time></trkpt><trkpt lat="44.90772" lon="9.5807617"><ele>186.0</ele><time>2026-03-29T15:41:18.653Z</time></trkpt><trkpt lat="44.9076067" lon="9.5807033"><ele>184.5</ele><time>2026-03-29T15:41:19.653Z</time></trkpt><trkpt lat="44.9074817" lon="9.580675"><ele>183.0</ele><time>2026-03-29T15:41:20.654Z</time></trkpt><trkpt lat="44.9073483" lon="9.58065"><ele>181.5</ele><time>2026-03-29T15:41:21.654Z</time></trkpt><trkpt lat="44.9072083" lon="9.5806117"><ele>180.0</ele><time>2026-03-29T15:41:22.652Z</time></trkpt><trkpt lat="44.9070583" lon="9.5805417"><ele>180.0</ele><time>2026-03-29T15:41:23.655Z</time></trkpt><trkpt lat="44.906895" lon="9.58045"><ele>180.0</ele><time>2026-03-29T15:41:24.653Z</time></trkpt><trkpt lat="44.9067167" lon="9.5803533"><ele>180.0</ele><time>2026-03-29T15:41:25.653Z</time></trkpt><trkpt lat="44.9065317" lon="9.580275"><ele>180.33333333333334</ele><time>2026-03-29T15:41:26.654Z</time></trkpt><trkpt lat="44.90635" lon="9.5802133"><ele>180.66666666666669</ele><time>2026-03-29T15:41:27.653Z</time></trkpt><trkpt lat="44.9061717" lon="9.5801517"><ele>181.0</ele><time>2026-03-29T15:41:28.653Z</time></trkpt><trkpt lat="44.9059817" lon="9.5800783"><ele>179.0</ele><time>2026-03-29T15:41:29.654Z</time></trkpt><trkpt lat="44.90578" lon="9.5800083"><ele>177.0</ele><time>2026-03-29T15:41:30.653Z</time></trkpt><trkpt lat="44.9055833" lon="9.5799417"><ele>175.0</ele><time>2026-03-29T15:41:31.655Z</time></trkpt><trkpt lat="44.9054017" lon="9.57988"><ele>175.0</ele><time>2026-03-29T15:41:32.653Z</time></trkpt><trkpt lat="44.90522" lon="9.5798283"><ele>175.0</ele><time>2026-03-29T15:41:33.652Z</time></trkpt><trkpt lat="44.9050417" lon="9.5797817"><ele>175.0</ele><time>2026-03-29T15:41:34.654Z</time></trkpt><trkpt lat="44.9048717" lon="9.5797417"><ele>173.66666666666669</ele><time>2026-03-29T15:41:35.654Z</time></trkpt><trkpt lat="44.9047033" lon="9.5796933"><ele>172.33333333333334</ele><time>2026-03-29T15:41:36.654Z</time></trkpt><trkpt lat="44.9045317" lon="9.57962"><ele>171.0</ele><time>2026-03-29T15:41:37.654Z</time></trkpt><trkpt lat="44.90436" lon="9.5795083"><ele>172.0</ele><time>2026-03-29T15:41:38.654Z</time></trkpt><trkpt lat="44.9041833" lon="9.5793733"><ele>173.0</ele><time>2026-03-29T15:41:39.653Z</time></trkpt><trkpt lat="44.9040067" lon="9.5792267"><ele>174.0</ele><time>2026-03-29T15:41:40.654Z</time></trkpt><trkpt lat="44.9038333" lon="9.57908"><ele>174.0</ele><time>2026-03-29T15:41:41.653Z</time></trkpt><trkpt lat="44.9036467" lon="9.5789517"><ele>174.0</ele><time>2026-03-29T15:41:42.654Z</time></trkpt><trkpt lat="44.903455" lon="9.5788333"><ele>174.0</ele><time>2026-03-29T15:41:43.653Z</time></trkpt><trkpt lat="44.9032683" lon="9.5787267"><ele>173.66666666666666</ele><time>2026-03-29T15:41:44.654Z</time></trkpt><trkpt lat="44.9030917" lon="9.57863"><ele>173.33333333333331</ele><time>2026-03-29T15:41:45.654Z</time></trkpt><trkpt lat="44.9029233" lon="9.57854"><ele>173.0</ele><time>2026-03-29T15:41:46.653Z</time></trkpt><trkpt lat="44.9027633" lon="9.578455"><ele>173.0</ele><time>2026-03-29T15:41:47.653Z</time></trkpt><trkpt lat="44.9026083" lon="9.5783783"><ele>173.0</ele><time>2026-03-29T15:41:48.654Z</time></trkpt><trkpt lat="44.9024533" lon="9.57832"><ele>173.0</ele><time>2026-03-29T15:41:49.654Z</time></trkpt><trkpt lat="44.9023067" lon="9.5782767"><ele>172.75</ele><time>2026-03-29T15:41:50.654Z</time></trkpt><trkpt lat="44.9021667" lon="9.578245"><ele>172.5</ele><time>2026-03-29T15:41:51.653Z</time></trkpt><trkpt lat="44.9020304" lon="9.5782237"><ele>172.25</ele><time>2026-03-29T15:41:52.653Z</time></trkpt><trkpt lat="44.9019025" lon="9.5782173"><ele>172.0</ele><time>2026-03-29T15:41:53.653Z</time></trkpt><trkpt lat="44.9017733" lon="9.5782431"><ele>172.33333333333334</ele><time>2026-03-29T15:41:54.654Z</time></trkpt><trkpt lat="44.9016368" lon="9.5783003"><ele>172.66666666666666</ele><time>2026-03-29T15:41:55.653Z</time></trkpt><trkpt lat="44.9014916" lon="9.5783731"><ele>173.0</ele><time>2026-03-29T15:41:56.654Z</time></trkpt><trkpt lat="44.901347" lon="9.5784707"><ele>173.0</ele><time>2026-03-29T15:41:57.655Z</time></trkpt><trkpt lat="44.9012166" lon="9.5785903"><ele>173.0</ele><time>2026-03-29T15:41:58.654Z</time></trkpt><trkpt lat="44.9011002" lon="9.5787246"><ele>173.0</ele><time>2026-03-29T15:41:59.654Z</time></trkpt><trkpt lat="44.900995" lon="9.5788531"><ele>173.0</ele><time>2026-03-29T15:42:00.652Z</time></trkpt><trkpt lat="44.9008943" lon="9.5789617"><ele>171.8</ele><time>2026-03-29T15:42:01.654Z</time></trkpt><trkpt lat="44.9007954" lon="9.5790447"><ele>170.60000000000002</ele><time>2026-03-29T15:42:02.653Z</time></trkpt><trkpt lat="44.9006934" lon="9.5790848"><ele>169.39999999999998</ele><time>2026-03-29T15:42:03.655Z</time></trkpt><trkpt lat="44.900588" lon="9.5790805"><ele>168.2</ele><time>2026-03-29T15:42:04.654Z</time></trkpt><trkpt lat="44.900479" lon="9.5790257"><ele>167.0</ele><time>2026-03-29T15:42:05.653Z</time></trkpt><trkpt lat="44.9003592" lon="9.5789436"><ele>167.0</ele><time>2026-03-29T15:42:06.654Z</time></trkpt><trkpt lat="44.9002357" lon="9.5788545"><ele>167.0</ele><time>2026-03-29T15:42:07.654Z</time></trkpt><trkpt lat="44.900115" lon="9.5787801"><ele>167.0</ele><time>2026-03-29T15:42:08.653Z</time></trkpt><trkpt lat="44.8999903" lon="9.5787308"><ele>167.0</ele><time>2026-03-29T15:42:09.653Z</time></trkpt><trkpt lat="44.8998518" lon="9.5787238"><ele>166.75</ele><time>2026-03-29T15:42:10.653Z</time></trkpt><trkpt lat="44.8997094" lon="9.5787318"><ele>166.5</ele><time>2026-03-29T15:42:11.652Z</time></trkpt><trkpt lat="44.8995727" lon="9.578711"><ele>166.25</ele><time>2026-03-29T15:42:12.654Z</time></trkpt><trkpt lat="44.8994419" lon="9.5786641"><ele>166.0</ele><time>2026-03-29T15:42:13.655Z</time></trkpt><trkpt lat="44.8993213" lon="9.5786049"><ele>166.75</ele><time>2026-03-29T15:42:14.654Z</time></trkpt><trkpt lat="44.8992054" lon="9.5785443"><ele>167.5</ele><time>2026-03-29T15:42:15.653Z</time></trkpt><trkpt lat="44.8990903" lon="9.5784854"><ele>168.25</ele><time>2026-03-29T15:42:16.652Z</time></trkpt><trkpt lat="44.8989759" lon="9.5784295"><ele>169.0</ele><time>2026-03-29T15:42:17.653Z</time></trkpt><trkpt lat="44.8988664" lon="9.578371"><ele>169.0</ele><time>2026-03-29T15:42:18.653Z</time></trkpt><trkpt lat="44.8987599" lon="9.5783057"><ele>169.0</ele><time>2026-03-29T15:42:19.653Z</time></trkpt><trkpt lat="44.8986486" lon="9.5782341"><ele>169.0</ele><time>2026-03-29T15:42:20.655Z</time></trkpt><trkpt lat="44.8985393" lon="9.5781475"><ele>169.0</ele><time>2026-03-29T15:42:21.653Z</time></trkpt><trkpt lat="44.8984342" lon="9.5780455"><ele>170.0</ele><time>2026-03-29T15:42:22.653Z</time></trkpt><trkpt lat="44.8983356" lon="9.5779365"><ele>171.0</ele><time>2026-03-29T15:42:23.654Z</time></trkpt><trkpt lat="44.8982412" lon="9.5778249"><ele>172.0</ele><time>2026-03-29T15:42:24.653Z</time></trkpt><trkpt lat="44.8981442" lon="9.5777163"><ele>173.0</ele><time>2026-03-29T15:42:25.654Z</time></trkpt><trkpt lat="44.8980357" lon="9.577616"><ele>173.0</ele><time>2026-03-29T15:42:26.655Z</time></trkpt><trkpt lat="44.8979132" lon="9.5775299"><ele>173.0</ele><time>2026-03-29T15:42:27.653Z</time></trkpt><trkpt lat="44.8977841" lon="9.5774573"><ele>173.0</ele><time>2026-03-29T15:42:28.654Z</time></trkpt><trkpt lat="44.8976582" lon="9.577395"><ele>173.0</ele><time>2026-03-29T15:42:29.654Z</time></trkpt><trkpt lat="44.8975405" lon="9.5773451"><ele>171.60000000000002</ele><time>2026-03-29T15:42:30.652Z</time></trkpt><trkpt lat="44.8974317" lon="9.5773068"><ele>170.20000000000002</ele><time>2026-03-29T15:42:31.654Z</time></trkpt><trkpt lat="44.8973451" lon="9.5773007"><ele>168.8</ele><time>2026-03-29T15:42:32.654Z</time></trkpt><trkpt lat="44.8972825" lon="9.5773336"><ele>167.4</ele><time>2026-03-29T15:42:33.653Z</time></trkpt><trkpt lat="44.8972663" lon="9.5774879"><ele>166.0</ele><time>2026-03-29T15:42:35.653Z</time></trkpt><trkpt lat="44.8973539" lon="9.5776296"><ele>166.0</ele><time>2026-03-29T15:42:36.655Z</time></trkpt><trkpt lat="44.8974761" lon="9.5778005"><ele>166.0</ele><time>2026-03-29T15:42:37.655Z</time></trkpt><trkpt lat="44.8976163" lon="9.5779896"><ele>166.0</ele><time>2026-03-29T15:42:38.653Z</time></trkpt><trkpt lat="44.8977518" lon="9.5781731"><ele>165.0</ele><time>2026-03-29T15:42:39.653Z</time></trkpt><trkpt lat="44.8978752" lon="9.5783416"><ele>164.0</ele><time>2026-03-29T15:42:40.655Z</time></trkpt><trkpt lat="44.8979863" lon="9.5784991"><ele>163.0</ele><time>2026-03-29T15:42:41.656Z</time></trkpt><trkpt lat="44.8980891" lon="9.5786478"><ele>162.5</ele><time>2026-03-29T15:42:42.653Z</time></trkpt><trkpt lat="44.8981849" lon="9.5787883"><ele>162.0</ele><time>2026-03-29T15:42:43.653Z</time></trkpt><trkpt lat="44.8982776" lon="9.5789241"><ele>161.5</ele><time>2026-03-29T15:42:44.656Z</time></trkpt><trkpt lat="44.8983702" lon="9.579048"><ele>161.0</ele><time>2026-03-29T15:42:45.655Z</time></trkpt><trkpt lat="44.8984631" lon="9.5791593"><ele>161.0</ele><time>2026-03-29T15:42:46.654Z</time></trkpt><trkpt lat="44.8985596" lon="9.5792593"><ele>161.0</ele><time>2026-03-29T15:42:47.653Z</time></trkpt><trkpt lat="44.8986635" lon="9.5793494"><ele>161.0</ele><time>2026-03-29T15:42:48.654Z</time></trkpt><trkpt lat="44.8987739" lon="9.5794337"><ele>161.0</ele><time>2026-03-29T15:42:49.653Z</time></trkpt><trkpt lat="44.8988877" lon="9.5795152"><ele>159.5</ele><time>2026-03-29T15:42:50.652Z</time></trkpt><trkpt lat="44.8990019" lon="9.5795972"><ele>158.0</ele><time>2026-03-29T15:42:51.653Z</time></trkpt><trkpt lat="44.8991125" lon="9.5796758"><ele>156.5</ele><time>2026-03-29T15:42:52.653Z</time></trkpt><trkpt lat="44.8992209" lon="9.5797519"><ele>155.0</ele><time>2026-03-29T15:42:53.654Z</time></trkpt><trkpt lat="44.8993248" lon="9.5798266"><ele>155.0</ele><time>2026-03-29T15:42:54.652Z</time></trkpt><trkpt lat="44.8994248" lon="9.5799032"><ele>155.0</ele><time>2026-03-29T15:42:55.654Z</time></trkpt><trkpt lat="44.8995238" lon="9.5799758"><ele>155.0</ele><time>2026-03-29T15:42:56.654Z</time></trkpt><trkpt lat="44.8996234" lon="9.5800445"><ele>155.0</ele><time>2026-03-29T15:42:57.654Z</time></trkpt><trkpt lat="44.8997213" lon="9.5801073"><ele>155.0</ele><time>2026-03-29T15:42:58.654Z</time></trkpt><trkpt lat="44.8998165" lon="9.5801655"><ele>155.0</ele><time>2026-03-29T15:42:59.652Z</time></trkpt><trkpt lat="44.8999119" lon="9.5802198"><ele>155.0</ele><time>2026-03-29T15:43:00.652Z</time></trkpt><trkpt lat="44.900005" lon="9.5802686"><ele>155.0</ele><time>2026-03-29T15:43:01.653Z</time></trkpt><trkpt lat="44.9000927" lon="9.5803061"><ele>155.0</ele><time>2026-03-29T15:43:02.653Z</time></trkpt><trkpt lat="44.9001789" lon="9.5803341"><ele>155.0</ele><time>2026-03-29T15:43:03.653Z</time></trkpt><trkpt lat="44.9002626" lon="9.5803591"><ele>153.0</ele><time>2026-03-29T15:43:04.653Z</time></trkpt><trkpt lat="44.9003417" lon="9.5803945"><ele>151.0</ele><time>2026-03-29T15:43:05.654Z</time></trkpt><trkpt lat="44.9004111" lon="9.5804491"><ele>149.0</ele><time>2026-03-29T15:43:06.653Z</time></trkpt><trkpt lat="44.9004564" lon="9.5805269"><ele>147.0</ele><time>2026-03-29T15:43:07.654Z</time></trkpt><trkpt lat="44.9004797" lon="9.5806235"><ele>145.0</ele><time>2026-03-29T15:43:08.654Z</time></trkpt><trkpt lat="44.9004831" lon="9.5807365"><ele>143.0</ele><time>2026-03-29T15:43:09.652Z</time></trkpt><trkpt lat="44.9004732" lon="9.5808633"><ele>143.0</ele><time>2026-03-29T15:43:10.654Z</time></trkpt><trkpt lat="44.9004555" lon="9.5810053"><ele>143.0</ele><time>2026-03-29T15:43:11.653Z</time></trkpt><trkpt lat="44.900436" lon="9.5811509"><ele>143.0</ele><time>2026-03-29T15:43:12.654Z</time></trkpt><trkpt lat="44.9004201" lon="9.5812949"><ele>143.0</ele><time>2026-03-29T15:43:13.653Z</time></trkpt><trkpt lat="44.9004074" lon="9.5814503"><ele>143.0</ele><time>2026-03-29T15:43:14.654Z</time></trkpt><trkpt lat="44.9003929" lon="9.581616"><ele>141.4</ele><time>2026-03-29T15:43:15.654Z</time></trkpt><trkpt lat="44.9003802" lon="9.5817785"><ele>139.8</ele><time>2026-03-29T15:43:16.655Z</time></trkpt><trkpt lat="44.9003685" lon="9.5819267"><ele>138.2</ele><time>2026-03-29T15:43:17.653Z</time></trkpt><trkpt lat="44.9003537" lon="9.5820648"><ele>136.6</ele><time>2026-03-29T15:43:18.653Z</time></trkpt><trkpt lat="44.90034" lon="9.5822061"><ele>135.0</ele><time>2026-03-29T15:43:19.652Z</time></trkpt><trkpt lat="44.9003279" lon="9.5823571"><ele>135.0</ele><time>2026-03-29T15:43:20.653Z</time></trkpt><trkpt lat="44.9003148" lon="9.5825142"><ele>135.0</ele><time>2026-03-29T15:43:21.653Z</time></trkpt><trkpt lat="44.9003003" lon="9.5826744"><ele>135.0</ele><time>2026-03-29T15:43:22.653Z</time></trkpt><trkpt lat="44.9002825" lon="9.5828408"><ele>135.0</ele><time>2026-03-29T15:43:23.652Z</time></trkpt><trkpt lat="44.9002659" lon="9.5830083"><ele>136.75</ele><time>2026-03-29T15:43:24.653Z</time></trkpt><trkpt lat="44.9002506" lon="9.5831707"><ele>138.5</ele><time>2026-03-29T15:43:25.655Z</time></trkpt><trkpt lat="44.9002449" lon="9.5833349"><ele>140.25</ele><time>2026-03-29T15:43:26.653Z</time></trkpt><trkpt lat="44.9002525" lon="9.5834987"><ele>142.0</ele><time>2026-03-29T15:43:27.654Z</time></trkpt><trkpt lat="44.9002782" lon="9.583662"><ele>143.0</ele><time>2026-03-29T15:43:28.654Z</time></trkpt><trkpt lat="44.9003155" lon="9.5838207"><ele>144.0</ele><time>2026-03-29T15:43:29.654Z</time></trkpt><trkpt lat="44.9003573" lon="9.5839788"><ele>145.0</ele><time>2026-03-29T15:43:30.654Z</time></trkpt><trkpt lat="44.9003995" lon="9.5841427"><ele>146.0</ele><time>2026-03-29T15:43:31.654Z</time></trkpt><trkpt lat="44.900443" lon="9.5843162"><ele>146.0</ele><time>2026-03-29T15:43:32.653Z</time></trkpt><trkpt lat="44.9004943" lon="9.5844946"><ele>146.0</ele><time>2026-03-29T15:43:33.654Z</time></trkpt><trkpt lat="44.900554" lon="9.5846691"><ele>146.0</ele><time>2026-03-29T15:43:34.654Z</time></trkpt><trkpt lat="44.9006196" lon="9.5848343"><ele>146.0</ele><time>2026-03-29T15:43:35.655Z</time></trkpt><trkpt lat="44.9006912" lon="9.5849927"><ele>145.75</ele><time>2026-03-29T15:43:36.652Z</time></trkpt><trkpt lat="44.9007622" lon="9.5851432"><ele>145.5</ele><time>2026-03-29T15:43:37.654Z</time></trkpt><trkpt lat="44.9008351" lon="9.5852865"><ele>145.25</ele><time>2026-03-29T15:43:38.655Z</time></trkpt><trkpt lat="44.900907" lon="9.585423"><ele>145.0</ele><time>2026-03-29T15:43:39.653Z</time></trkpt><trkpt lat="44.9009739" lon="9.5855555"><ele>145.0</ele><time>2026-03-29T15:43:40.653Z</time></trkpt><trkpt lat="44.9010357" lon="9.5856796"><ele>145.0</ele><time>2026-03-29T15:43:41.653Z</time></trkpt><trkpt lat="44.9010926" lon="9.5858006"><ele>145.0</ele><time>2026-03-29T15:43:42.653Z</time></trkpt><trkpt lat="44.9011481" lon="9.585923"><ele>145.0</ele><time>2026-03-29T15:43:43.653Z</time></trkpt><trkpt lat="44.9012092" lon="9.5860477"><ele>145.0</ele><time>2026-03-29T15:43:44.653Z</time></trkpt><trkpt lat="44.9012817" lon="9.5861658"><ele>148.5</ele><time>2026-03-29T15:43:45.653Z</time></trkpt><trkpt lat="44.9013633" lon="9.5862765"><ele>152.0</ele><time>2026-03-29T15:43:46.654Z</time></trkpt><trkpt lat="44.9014533" lon="9.5863829"><ele>155.5</ele><time>2026-03-29T15:43:47.654Z</time></trkpt><trkpt lat="44.9015518" lon="9.5864885"><ele>159.0</ele><time>2026-03-29T15:43:48.653Z</time></trkpt><trkpt lat="44.9016544" lon="9.5865918"><ele>159.0</ele><time>2026-03-29T15:43:49.654Z</time></trkpt><trkpt lat="44.9017536" lon="9.5866918"><ele>159.0</ele><time>2026-03-29T15:43:50.654Z</time></trkpt><trkpt lat="44.901845" lon="9.5867841"><ele>159.0</ele><time>2026-03-29T15:43:51.653Z</time></trkpt><trkpt lat="44.9019305" lon="9.5868718"><ele>159.0</ele><time>2026-03-29T15:43:52.653Z</time></trkpt><trkpt lat="44.9020148" lon="9.5869567"><ele>159.0</ele><time>2026-03-29T15:43:53.654Z</time></trkpt><trkpt lat="44.9020951" lon="9.5870365"><ele>159.0</ele><time>2026-03-29T15:43:54.656Z</time></trkpt><trkpt lat="44.9021672" lon="9.587111"><ele>159.0</ele><time>2026-03-29T15:43:55.653Z</time></trkpt><trkpt lat="44.902235" lon="9.5871823"><ele>159.0</ele><time>2026-03-29T15:43:56.654Z</time></trkpt><trkpt lat="44.9023026" lon="9.5872492"><ele>159.0</ele><time>2026-03-29T15:43:57.653Z</time></trkpt><trkpt lat="44.9023649" lon="9.5873132"><ele>159.0</ele><time>2026-03-29T15:43:58.654Z</time></trkpt><trkpt lat="44.9024356" lon="9.5873985"><ele>159.0</ele><time>2026-03-29T15:44:00.652Z</time></trkpt><trkpt lat="44.9024562" lon="9.5874972"><ele>159.0</ele><time>2026-03-29T15:44:18.653Z</time></trkpt><trkpt lat="44.9024414" lon="9.5875932"><ele>159.0</ele><time>2026-03-29T15:44:24.653Z</time></trkpt><trkpt lat="44.9024755" lon="9.5877056"><ele>159.0</ele><time>2026-03-29T15:44:28.652Z</time></trkpt><trkpt lat="44.9025431" lon="9.5877971"><ele>159.0</ele><time>2026-03-29T15:44:29.653Z</time></trkpt><trkpt lat="44.9026574" lon="9.587909"><ele>159.0</ele><time>2026-03-29T15:44:30.654Z</time></trkpt><trkpt lat="44.9028036" lon="9.5880323"><ele>156.66666666666666</ele><time>2026-03-29T15:44:31.653Z</time></trkpt><trkpt lat="44.9029567" lon="9.5881537"><ele>154.33333333333331</ele><time>2026-03-29T15:44:32.653Z</time></trkpt><trkpt lat="44.9031033" lon="9.5882667"><ele>152.0</ele><time>2026-03-29T15:44:33.654Z</time></trkpt><trkpt lat="44.9032383" lon="9.588375"><ele>152.0</ele><time>2026-03-29T15:44:34.656Z</time></trkpt><trkpt lat="44.903375" lon="9.5884867"><ele>152.0</ele><time>2026-03-29T15:44:35.654Z</time></trkpt><trkpt lat="44.903515" lon="9.5885983"><ele>152.0</ele><time>2026-03-29T15:44:36.653Z</time></trkpt><trkpt lat="44.9036517" lon="9.5887133"><ele>152.0</ele><time>2026-03-29T15:44:37.654Z</time></trkpt><trkpt lat="44.9037867" lon="9.5888267"><ele>152.0</ele><time>2026-03-29T15:44:38.653Z</time></trkpt><trkpt lat="44.9039217" lon="9.5889433"><ele>152.0</ele><time>2026-03-29T15:44:39.653Z</time></trkpt><trkpt lat="44.9040583" lon="9.5890533"><ele>152.0</ele><time>2026-03-29T15:44:40.653Z</time></trkpt><trkpt lat="44.90419" lon="9.58916"><ele>152.0</ele><time>2026-03-29T15:44:41.653Z</time></trkpt><trkpt lat="44.904315" lon="9.589265"><ele>152.0</ele><time>2026-03-29T15:44:42.653Z</time></trkpt><trkpt lat="44.9044383" lon="9.5893667"><ele>152.0</ele><time>2026-03-29T15:44:43.654Z</time></trkpt><trkpt lat="44.9045583" lon="9.589465"><ele>150.75</ele><time>2026-03-29T15:44:44.654Z</time></trkpt><trkpt lat="44.904675" lon="9.5895617"><ele>149.5</ele><time>2026-03-29T15:44:45.652Z</time></trkpt><trkpt lat="44.9047933" lon="9.58966"><ele>148.25</ele><time>2026-03-29T15:44:46.653Z</time></trkpt><trkpt lat="44.9049133" lon="9.58976"><ele>147.0</ele><time>2026-03-29T15:44:47.654Z</time></trkpt><trkpt lat="44.9050383" lon="9.5898683"><ele>144.66666666666666</ele><time>2026-03-29T15:44:48.654Z</time></trkpt><trkpt lat="44.9051667" lon="9.5899783"><ele>142.33333333333331</ele><time>2026-03-29T15:44:49.653Z</time></trkpt><trkpt lat="44.9052983" lon="9.59009"><ele>140.0</ele><time>2026-03-29T15:44:50.654Z</time></trkpt><trkpt lat="44.905435" lon="9.5902017"><ele>140.0</ele><time>2026-03-29T15:44:51.653Z</time></trkpt><trkpt lat="44.9055717" lon="9.590315"><ele>140.0</ele><time>2026-03-29T15:44:52.656Z</time></trkpt><trkpt lat="44.90571" lon="9.5904267"><ele>140.0</ele><time>2026-03-29T15:44:53.654Z</time></trkpt><trkpt lat="44.9058433" lon="9.5905367"><ele>140.0</ele><time>2026-03-29T15:44:54.652Z</time></trkpt><trkpt lat="44.9059667" lon="9.59064"><ele>140.0</ele><time>2026-03-29T15:44:55.653Z</time></trkpt><trkpt lat="44.9060867" lon="9.59074"><ele>140.0</ele><time>2026-03-29T15:44:56.653Z</time></trkpt><trkpt lat="44.9062033" lon="9.5908367"><ele>140.0</ele><time>2026-03-29T15:44:57.654Z</time></trkpt><trkpt lat="44.906315" lon="9.5909267"><ele>140.0</ele><time>2026-03-29T15:44:58.652Z</time></trkpt><trkpt lat="44.9064233" lon="9.5910167"><ele>140.0</ele><time>2026-03-29T15:44:59.652Z</time></trkpt><trkpt lat="44.90653" lon="9.5911067"><ele>140.0</ele><time>2026-03-29T15:45:00.653Z</time></trkpt><trkpt lat="44.9066417" lon="9.5911967"><ele>140.0</ele><time>2026-03-29T15:45:01.654Z</time></trkpt><trkpt lat="44.9067533" lon="9.59129"><ele>138.75</ele><time>2026-03-29T15:45:02.654Z</time></trkpt><trkpt lat="44.906865" lon="9.5913817"><ele>137.5</ele><time>2026-03-29T15:45:03.654Z</time></trkpt><trkpt lat="44.906975" lon="9.5914767"><ele>136.25</ele><time>2026-03-29T15:45:04.653Z</time></trkpt><trkpt lat="44.9070833" lon="9.5915683"><ele>135.0</ele><time>2026-03-29T15:45:05.653Z</time></trkpt><trkpt lat="44.9071917" lon="9.5916617"><ele>135.0</ele><time>2026-03-29T15:45:06.653Z</time></trkpt><trkpt lat="44.9073017" lon="9.5917517"><ele>135.0</ele><time>2026-03-29T15:45:07.652Z</time></trkpt><trkpt lat="44.90741" lon="9.5918383"><ele>135.0</ele><time>2026-03-29T15:45:08.653Z</time></trkpt><trkpt lat="44.907515" lon="9.5919233"><ele>135.0</ele><time>2026-03-29T15:45:09.653Z</time></trkpt><trkpt lat="44.9076183" lon="9.5920067"><ele>134.75</ele><time>2026-03-29T15:45:10.653Z</time></trkpt><trkpt lat="44.9077217" lon="9.59209"><ele>134.5</ele><time>2026-03-29T15:45:11.653Z</time></trkpt><trkpt lat="44.9078267" lon="9.592175"><ele>134.25</ele><time>2026-03-29T15:45:12.654Z</time></trkpt><trkpt lat="44.90793" lon="9.592255"><ele>134.0</ele><time>2026-03-29T15:45:13.653Z</time></trkpt><trkpt lat="44.9080367" lon="9.5923367"><ele>134.0</ele><time>2026-03-29T15:45:14.654Z</time></trkpt><trkpt lat="44.9081383" lon="9.5924267"><ele>134.0</ele><time>2026-03-29T15:45:15.653Z</time></trkpt><trkpt lat="44.9082367" lon="9.592525"><ele>134.0</ele><time>2026-03-29T15:45:16.653Z</time></trkpt><trkpt lat="44.9083317" lon="9.59263"><ele>134.0</ele><time>2026-03-29T15:45:17.654Z</time></trkpt><trkpt lat="44.90842" lon="9.5927417"><ele>134.0</ele><time>2026-03-29T15:45:18.654Z</time></trkpt><trkpt lat="44.9085033" lon="9.59286"><ele>134.0</ele><time>2026-03-29T15:45:19.652Z</time></trkpt><trkpt lat="44.9085817" lon="9.5929817"><ele>134.0</ele><time>2026-03-29T15:45:20.653Z</time></trkpt><trkpt lat="44.9086617" lon="9.5931"><ele>134.0</ele><time>2026-03-29T15:45:21.654Z</time></trkpt><trkpt lat="44.90874" lon="9.5932183"><ele>134.0</ele><time>2026-03-29T15:45:22.652Z</time></trkpt><trkpt lat="44.90882" lon="9.5933383"><ele>134.0</ele><time>2026-03-29T15:45:23.654Z</time></trkpt><trkpt lat="44.9088983" lon="9.5934583"><ele>134.0</ele><time>2026-03-29T15:45:24.653Z</time></trkpt><trkpt lat="44.9089783" lon="9.5935833"><ele>134.0</ele><time>2026-03-29T15:45:25.653Z</time></trkpt><trkpt lat="44.9090583" lon="9.5937083"><ele>134.5</ele><time>2026-03-29T15:45:26.655Z</time></trkpt><trkpt lat="44.9091417" lon="9.593835"><ele>135.0</ele><time>2026-03-29T15:45:27.653Z</time></trkpt><trkpt lat="44.9092267" lon="9.5939667"><ele>135.5</ele><time>2026-03-29T15:45:28.654Z</time></trkpt><trkpt lat="44.9093117" lon="9.5941"><ele>136.0</ele><time>2026-03-29T15:45:29.654Z</time></trkpt><trkpt lat="44.9093983" lon="9.5942333"><ele>135.0</ele><time>2026-03-29T15:45:30.653Z</time></trkpt><trkpt lat="44.9094817" lon="9.5943633"><ele>134.0</ele><time>2026-03-29T15:45:31.653Z</time></trkpt><trkpt lat="44.9095617" lon="9.5944883"><ele>133.0</ele><time>2026-03-29T15:45:32.654Z</time></trkpt><trkpt lat="44.90964" lon="9.59461"><ele>132.0</ele><time>2026-03-29T15:45:33.653Z</time></trkpt><trkpt lat="44.9097183" lon="9.59473"><ele>132.0</ele><time>2026-03-29T15:45:34.656Z</time></trkpt><trkpt lat="44.909795" lon="9.5948467"><ele>132.0</ele><time>2026-03-29T15:45:35.653Z</time></trkpt><trkpt lat="44.9098717" lon="9.5949567"><ele>132.0</ele><time>2026-03-29T15:45:36.654Z</time></trkpt><trkpt lat="44.9099533" lon="9.5950617"><ele>132.0</ele><time>2026-03-29T15:45:37.652Z</time></trkpt><trkpt lat="44.9100383" lon="9.5951583"><ele>132.0</ele><time>2026-03-29T15:45:38.653Z</time></trkpt><trkpt lat="44.9101267" lon="9.5952533"><ele>132.75</ele><time>2026-03-29T15:45:39.653Z</time></trkpt><trkpt lat="44.9102167" lon="9.595345"><ele>133.5</ele><time>2026-03-29T15:45:40.654Z</time></trkpt><trkpt lat="44.9103133" lon="9.5954283"><ele>134.25</ele><time>2026-03-29T15:45:41.653Z</time></trkpt><trkpt lat="44.9104133" lon="9.595505"><ele>135.0</ele><time>2026-03-29T15:45:42.653Z</time></trkpt><trkpt lat="44.910515" lon="9.5955717"><ele>135.0</ele><time>2026-03-29T15:45:43.654Z</time></trkpt><trkpt lat="44.9106133" lon="9.5956333"><ele>135.0</ele><time>2026-03-29T15:45:44.654Z</time></trkpt><trkpt lat="44.9107117" lon="9.5956883"><ele>135.0</ele><time>2026-03-29T15:45:45.653Z</time></trkpt><trkpt lat="44.9108117" lon="9.5957417"><ele>135.0</ele><time>2026-03-29T15:45:46.653Z</time></trkpt><trkpt lat="44.9109117" lon="9.5957917"><ele>135.0</ele><time>2026-03-29T15:45:47.653Z</time></trkpt><trkpt lat="44.911015" lon="9.5958417"><ele>134.4</ele><time>2026-03-29T15:45:48.653Z</time></trkpt><trkpt lat="44.9111167" lon="9.5958933"><ele>133.8</ele><time>2026-03-29T15:45:49.653Z</time></trkpt><trkpt lat="44.91122" lon="9.59595"><ele>133.2</ele><time>2026-03-29T15:45:50.654Z</time></trkpt><trkpt lat="44.911325" lon="9.59601"><ele>132.6</ele><time>2026-03-29T15:45:51.654Z</time></trkpt><trkpt lat="44.9114317" lon="9.5960717"><ele>132.0</ele><time>2026-03-29T15:45:52.654Z</time></trkpt><trkpt lat="44.9115417" lon="9.5961333"><ele>133.4</ele><time>2026-03-29T15:45:53.654Z</time></trkpt><trkpt lat="44.9116533" lon="9.5961917"><ele>134.79999999999998</ele><time>2026-03-29T15:45:54.654Z</time></trkpt><trkpt lat="44.9117617" lon="9.5962467"><ele>136.2</ele><time>2026-03-29T15:45:55.652Z</time></trkpt><trkpt lat="44.9118633" lon="9.5963"><ele>137.6</ele><time>2026-03-29T15:45:56.654Z</time></trkpt><trkpt lat="44.9119633" lon="9.5963517"><ele>139.0</ele><time>2026-03-29T15:45:57.654Z</time></trkpt><trkpt lat="44.9120667" lon="9.5964083"><ele>139.0</ele><time>2026-03-29T15:45:58.654Z</time></trkpt><trkpt lat="44.9121683" lon="9.5964667"><ele>139.0</ele><time>2026-03-29T15:45:59.652Z</time></trkpt><trkpt lat="44.9122717" lon="9.5965333"><ele>139.0</ele><time>2026-03-29T15:46:00.653Z</time></trkpt><trkpt lat="44.91237" lon="9.5966083"><ele>139.0</ele><time>2026-03-29T15:46:01.653Z</time></trkpt><trkpt lat="44.9124633" lon="9.5966883"><ele>139.0</ele><time>2026-03-29T15:46:02.654Z</time></trkpt><trkpt lat="44.9125567" lon="9.5967767"><ele>138.75</ele><time>2026-03-29T15:46:03.654Z</time></trkpt><trkpt lat="44.9126483" lon="9.5968817"><ele>138.5</ele><time>2026-03-29T15:46:04.653Z</time></trkpt><trkpt lat="44.9127367" lon="9.596995"><ele>138.25</ele><time>2026-03-29T15:46:05.653Z</time></trkpt><trkpt lat="44.9128217" lon="9.59711"><ele>138.0</ele><time>2026-03-29T15:46:06.653Z</time></trkpt><trkpt lat="44.9128983" lon="9.5972317"><ele>137.75</ele><time>2026-03-29T15:46:07.652Z</time></trkpt><trkpt lat="44.9129683" lon="9.5973633"><ele>137.5</ele><time>2026-03-29T15:46:08.654Z</time></trkpt><trkpt lat="44.913035" lon="9.5975067"><ele>137.25</ele><time>2026-03-29T15:46:09.653Z</time></trkpt><trkpt lat="44.9130983" lon="9.59766"><ele>137.0</ele><time>2026-03-29T15:46:10.652Z</time></trkpt><trkpt lat="44.9131617" lon="9.597815"><ele>137.25</ele><time>2026-03-29T15:46:11.654Z</time></trkpt><trkpt lat="44.9132183" lon="9.5979667"><ele>137.5</ele><time>2026-03-29T15:46:12.653Z</time></trkpt><trkpt lat="44.913275" lon="9.59811"><ele>137.75</ele><time>2026-03-29T15:46:13.653Z</time></trkpt><trkpt lat="44.9133317" lon="9.59825"><ele>138.0</ele><time>2026-03-29T15:46:14.654Z</time></trkpt><trkpt lat="44.9133883" lon="9.598395"><ele>138.0</ele><time>2026-03-29T15:46:15.652Z</time></trkpt><trkpt lat="44.9134483" lon="9.59855"><ele>138.0</ele><time>2026-03-29T15:46:16.654Z</time></trkpt><trkpt lat="44.913515" lon="9.5987167"><ele>138.0</ele><time>2026-03-29T15:46:17.654Z</time></trkpt><trkpt lat="44.9135833" lon="9.5988883"><ele>138.0</ele><time>2026-03-29T15:46:18.652Z</time></trkpt><trkpt lat="44.9136533" lon="9.599065"><ele>137.75</ele><time>2026-03-29T15:46:19.654Z</time></trkpt><trkpt lat="44.9137233" lon="9.59924"><ele>137.5</ele><time>2026-03-29T15:46:20.655Z</time></trkpt><trkpt lat="44.91379" lon="9.5994083"><ele>137.25</ele><time>2026-03-29T15:46:21.654Z</time></trkpt><trkpt lat="44.913855" lon="9.5995717"><ele>137.0</ele><time>2026-03-29T15:46:22.653Z</time></trkpt><trkpt lat="44.9139267" lon="9.5997367"><ele>136.75</ele><time>2026-03-29T15:46:23.654Z</time></trkpt><trkpt lat="44.9139933" lon="9.5999033"><ele>136.5</ele><time>2026-03-29T15:46:24.654Z</time></trkpt><trkpt lat="44.9140617" lon="9.6000683"><ele>136.25</ele><time>2026-03-29T15:46:25.655Z</time></trkpt><trkpt lat="44.9141283" lon="9.6002367"><ele>136.0</ele><time>2026-03-29T15:46:26.654Z</time></trkpt><trkpt lat="44.9141967" lon="9.6004033"><ele>135.5</ele><time>2026-03-29T15:46:27.653Z</time></trkpt><trkpt lat="44.9142633" lon="9.6005683"><ele>135.0</ele><time>2026-03-29T15:46:28.652Z</time></trkpt><trkpt lat="44.9143267" lon="9.600735"><ele>134.5</ele><time>2026-03-29T15:46:29.654Z</time></trkpt><trkpt lat="44.91439" lon="9.6009"><ele>134.0</ele><time>2026-03-29T15:46:30.654Z</time></trkpt><trkpt lat="44.9144533" lon="9.60106"><ele>134.25</ele><time>2026-03-29T15:46:31.654Z</time></trkpt><trkpt lat="44.9145167" lon="9.6012167"><ele>134.5</ele><time>2026-03-29T15:46:32.654Z</time></trkpt><trkpt lat="44.91458" lon="9.6013733"><ele>134.75</ele><time>2026-03-29T15:46:33.653Z</time></trkpt><trkpt lat="44.9146433" lon="9.6015317"><ele>135.0</ele><time>2026-03-29T15:46:34.654Z</time></trkpt><trkpt lat="44.91471" lon="9.6016883"><ele>135.0</ele><time>2026-03-29T15:46:35.656Z</time></trkpt><trkpt lat="44.9147767" lon="9.6018533"><ele>135.0</ele><time>2026-03-29T15:46:36.653Z</time></trkpt><trkpt lat="44.914845" lon="9.6020233"><ele>135.0</ele><time>2026-03-29T15:46:37.653Z</time></trkpt><trkpt lat="44.9149167" lon="9.602195"><ele>135.0</ele><time>2026-03-29T15:46:38.653Z</time></trkpt><trkpt lat="44.9149867" lon="9.60237"><ele>135.5</ele><time>2026-03-29T15:46:39.653Z</time></trkpt><trkpt lat="44.915055" lon="9.6025383"><ele>136.0</ele><time>2026-03-29T15:46:40.654Z</time></trkpt><trkpt lat="44.91512" lon="9.6027"><ele>136.5</ele><time>2026-03-29T15:46:41.653Z</time></trkpt><trkpt lat="44.91518" lon="9.602855"><ele>137.0</ele><time>2026-03-29T15:46:42.652Z</time></trkpt><trkpt lat="44.9152367" lon="9.6030033"><ele>138.0</ele><time>2026-03-29T15:46:43.653Z</time></trkpt><trkpt lat="44.9152933" lon="9.6031533"><ele>139.0</ele><time>2026-03-29T15:46:44.653Z</time></trkpt><trkpt lat="44.91535" lon="9.6033"><ele>140.0</ele><time>2026-03-29T15:46:45.652Z</time></trkpt><trkpt lat="44.9154067" lon="9.6034467"><ele>141.0</ele><time>2026-03-29T15:46:46.653Z</time></trkpt><trkpt lat="44.915465" lon="9.6035967"><ele>141.5</ele><time>2026-03-29T15:46:47.653Z</time></trkpt><trkpt lat="44.9155233" lon="9.60375"><ele>142.0</ele><time>2026-03-29T15:46:48.653Z</time></trkpt><trkpt lat="44.9155817" lon="9.6038967"><ele>142.5</ele><time>2026-03-29T15:46:49.654Z</time></trkpt><trkpt lat="44.91564" lon="9.6040467"><ele>143.0</ele><time>2026-03-29T15:46:50.653Z</time></trkpt><trkpt lat="44.9156967" lon="9.604195"><ele>143.0</ele><time>2026-03-29T15:46:51.652Z</time></trkpt><trkpt lat="44.915755" lon="9.6043367"><ele>143.0</ele><time>2026-03-29T15:46:52.654Z</time></trkpt><trkpt lat="44.9158167" lon="9.60448"><ele>143.0</ele><time>2026-03-29T15:46:53.654Z</time></trkpt><trkpt lat="44.915885" lon="9.60462"><ele>143.0</ele><time>2026-03-29T15:46:54.653Z</time></trkpt><trkpt lat="44.9159533" lon="9.6047533"><ele>142.5</ele><time>2026-03-29T15:46:55.653Z</time></trkpt><trkpt lat="44.9160233" lon="9.6048917"><ele>142.0</ele><time>2026-03-29T15:46:56.653Z</time></trkpt><trkpt lat="44.9161033" lon="9.60503"><ele>141.5</ele><time>2026-03-29T15:46:57.654Z</time></trkpt><trkpt lat="44.9161933" lon="9.6051717"><ele>141.0</ele><time>2026-03-29T15:46:58.653Z</time></trkpt><trkpt lat="44.9162883" lon="9.6053133"><ele>141.0</ele><time>2026-03-29T15:46:59.652Z</time></trkpt><trkpt lat="44.9163833" lon="9.60545"><ele>141.0</ele><time>2026-03-29T15:47:00.653Z</time></trkpt><trkpt lat="44.91648" lon="9.6055783"><ele>141.0</ele><time>2026-03-29T15:47:01.654Z</time></trkpt><trkpt lat="44.9165767" lon="9.6056967"><ele>141.0</ele><time>2026-03-29T15:47:02.654Z</time></trkpt><trkpt lat="44.9166733" lon="9.6058133"><ele>141.0</ele><time>2026-03-29T15:47:03.653Z</time></trkpt><trkpt lat="44.9167783" lon="9.6059317"><ele>141.0</ele><time>2026-03-29T15:47:04.653Z</time></trkpt><trkpt lat="44.91689" lon="9.60605"><ele>141.0</ele><time>2026-03-29T15:47:05.654Z</time></trkpt><trkpt lat="44.9170033" lon="9.6061717"><ele>141.0</ele><time>2026-03-29T15:47:06.653Z</time></trkpt><trkpt lat="44.9171183" lon="9.6062983"><ele>141.0</ele><time>2026-03-29T15:47:07.653Z</time></trkpt><trkpt lat="44.917235" lon="9.6064317"><ele>141.0</ele><time>2026-03-29T15:47:08.654Z</time></trkpt><trkpt lat="44.9173583" lon="9.6065667"><ele>141.0</ele><time>2026-03-29T15:47:09.654Z</time></trkpt><trkpt lat="44.9174917" lon="9.6066967"><ele>140.33333333333334</ele><time>2026-03-29T15:47:10.653Z</time></trkpt><trkpt lat="44.9176367" lon="9.60682"><ele>139.66666666666669</ele><time>2026-03-29T15:47:11.653Z</time></trkpt><trkpt lat="44.9177917" lon="9.6069417"><ele>139.0</ele><time>2026-03-29T15:47:12.653Z</time></trkpt><trkpt lat="44.917955" lon="9.6070583"><ele>139.0</ele><time>2026-03-29T15:47:13.653Z</time></trkpt><trkpt lat="44.9181217" lon="9.6071717"><ele>139.0</ele><time>2026-03-29T15:47:14.653Z</time></trkpt><trkpt lat="44.9182933" lon="9.607285"><ele>139.0</ele><time>2026-03-29T15:47:15.653Z</time></trkpt><trkpt lat="44.9184683" lon="9.6074033"><ele>138.0</ele><time>2026-03-29T15:47:16.654Z</time></trkpt><trkpt lat="44.9186483" lon="9.60752"><ele>137.0</ele><time>2026-03-29T15:47:17.654Z</time></trkpt><trkpt lat="44.91883" lon="9.60764"><ele>136.0</ele><time>2026-03-29T15:47:18.653Z</time></trkpt><trkpt lat="44.9190183" lon="9.6077617"><ele>136.33333333333334</ele><time>2026-03-29T15:47:19.653Z</time></trkpt><trkpt lat="44.9192033" lon="9.6078833"><ele>136.66666666666666</ele><time>2026-03-29T15:47:20.653Z</time></trkpt><trkpt lat="44.9193883" lon="9.608005"><ele>137.0</ele><time>2026-03-29T15:47:21.653Z</time></trkpt><trkpt lat="44.9195733" lon="9.6081317"><ele>136.33333333333331</ele><time>2026-03-29T15:47:22.653Z</time></trkpt><trkpt lat="44.919755" lon="9.6082633"><ele>135.66666666666666</ele><time>2026-03-29T15:47:23.654Z</time></trkpt><trkpt lat="44.9199333" lon="9.6084033"><ele>135.0</ele><time>2026-03-29T15:47:24.653Z</time></trkpt><trkpt lat="44.9201083" lon="9.6085533"><ele>134.66666666666666</ele><time>2026-03-29T15:47:25.654Z</time></trkpt><trkpt lat="44.920275" lon="9.6087133"><ele>134.33333333333331</ele><time>2026-03-29T15:47:26.655Z</time></trkpt><trkpt lat="44.92044" lon="9.6088783"><ele>134.0</ele><time>2026-03-29T15:47:27.653Z</time></trkpt><trkpt lat="44.9206067" lon="9.6090483"><ele>134.0</ele><time>2026-03-29T15:47:28.652Z</time></trkpt><trkpt lat="44.9207667" lon="9.6092233"><ele>134.0</ele><time>2026-03-29T15:47:29.653Z</time></trkpt><trkpt lat="44.92092" lon="9.6093917"><ele>134.0</ele><time>2026-03-29T15:47:30.654Z</time></trkpt><trkpt lat="44.9210633" lon="9.6095533"><ele>133.33333333333331</ele><time>2026-03-29T15:47:31.653Z</time></trkpt><trkpt lat="44.9212017" lon="9.60971"><ele>132.66666666666666</ele><time>2026-03-29T15:47:32.653Z</time></trkpt><trkpt lat="44.9213433" lon="9.609865"><ele>132.0</ele><time>2026-03-29T15:47:33.653Z</time></trkpt><trkpt lat="44.9214867" lon="9.610025"><ele>132.0</ele><time>2026-03-29T15:47:34.654Z</time></trkpt><trkpt lat="44.92163" lon="9.61018"><ele>132.0</ele><time>2026-03-29T15:47:35.654Z</time></trkpt><trkpt lat="44.9217683" lon="9.6103317"><ele>132.0</ele><time>2026-03-29T15:47:36.653Z</time></trkpt><trkpt lat="44.921905" lon="9.6104833"><ele>131.66666666666666</ele><time>2026-03-29T15:47:37.654Z</time></trkpt><trkpt lat="44.9220417" lon="9.610635"><ele>131.33333333333331</ele><time>2026-03-29T15:47:38.655Z</time></trkpt><trkpt lat="44.9221767" lon="9.610785"><ele>131.0</ele><time>2026-03-29T15:47:39.653Z</time></trkpt><trkpt lat="44.9223067" lon="9.6109283"><ele>131.0</ele><time>2026-03-29T15:47:40.654Z</time></trkpt><trkpt lat="44.9224356" lon="9.6110704"><ele>131.0</ele><time>2026-03-29T15:47:41.653Z</time></trkpt><trkpt lat="44.9225657" lon="9.6112115"><ele>131.0</ele><time>2026-03-29T15:47:42.653Z</time></trkpt><trkpt lat="44.9227002" lon="9.6113561"><ele>131.66666666666666</ele><time>2026-03-29T15:47:43.652Z</time></trkpt><trkpt lat="44.9228397" lon="9.6115021"><ele>132.33333333333334</ele><time>2026-03-29T15:47:44.653Z</time></trkpt><trkpt lat="44.9229813" lon="9.6116527"><ele>133.0</ele><time>2026-03-29T15:47:45.654Z</time></trkpt><trkpt lat="44.9231268" lon="9.611803"><ele>133.0</ele><time>2026-03-29T15:47:46.654Z</time></trkpt><trkpt lat="44.9232738" lon="9.6119498"><ele>133.0</ele><time>2026-03-29T15:47:47.653Z</time></trkpt><trkpt lat="44.9234234" lon="9.6120908"><ele>133.0</ele><time>2026-03-29T15:47:48.653Z</time></trkpt><trkpt lat="44.9235721" lon="9.6122283"><ele>132.33333333333334</ele><time>2026-03-29T15:47:49.653Z</time></trkpt><trkpt lat="44.9237205" lon="9.6123639"><ele>131.66666666666666</ele><time>2026-03-29T15:47:50.654Z</time></trkpt><trkpt lat="44.9238726" lon="9.6124968"><ele>131.0</ele><time>2026-03-29T15:47:51.652Z</time></trkpt><trkpt lat="44.924022" lon="9.6126296"><ele>131.0</ele><time>2026-03-29T15:47:52.653Z</time></trkpt><trkpt lat="44.924172" lon="9.6127582"><ele>131.0</ele><time>2026-03-29T15:47:53.653Z</time></trkpt><trkpt lat="44.9243181" lon="9.6128863"><ele>131.0</ele><time>2026-03-29T15:47:54.653Z</time></trkpt><trkpt lat="44.9244625" lon="9.6130159"><ele>131.66666666666666</ele><time>2026-03-29T15:47:55.654Z</time></trkpt><trkpt lat="44.9246086" lon="9.6131449"><ele>132.33333333333334</ele><time>2026-03-29T15:47:56.654Z</time></trkpt><trkpt lat="44.9247539" lon="9.6132769"><ele>133.0</ele><time>2026-03-29T15:47:57.653Z</time></trkpt><trkpt lat="44.9249027" lon="9.6134089"><ele>133.0</ele><time>2026-03-29T15:47:58.653Z</time></trkpt><trkpt lat="44.9250549" lon="9.6135417"><ele>133.0</ele><time>2026-03-29T15:47:59.653Z</time></trkpt><trkpt lat="44.9252075" lon="9.6136765"><ele>133.0</ele><time>2026-03-29T15:48:00.654Z</time></trkpt><trkpt lat="44.9253593" lon="9.6138092"><ele>133.33333333333334</ele><time>2026-03-29T15:48:01.652Z</time></trkpt><trkpt lat="44.925509" lon="9.613943"><ele>133.66666666666666</ele><time>2026-03-29T15:48:02.653Z</time></trkpt><trkpt lat="44.9256556" lon="9.6140733"><ele>134.0</ele><time>2026-03-29T15:48:03.652Z</time></trkpt><trkpt lat="44.9258051" lon="9.6142024"><ele>134.0</ele><time>2026-03-29T15:48:04.655Z</time></trkpt><trkpt lat="44.9259566" lon="9.6143349"><ele>134.0</ele><time>2026-03-29T15:48:05.654Z</time></trkpt><trkpt lat="44.9261095" lon="9.6144696"><ele>134.0</ele><time>2026-03-29T15:48:06.654Z</time></trkpt><trkpt lat="44.926262" lon="9.6146096"><ele>134.0</ele><time>2026-03-29T15:48:07.653Z</time></trkpt><trkpt lat="44.9264125" lon="9.6147595"><ele>134.0</ele><time>2026-03-29T15:48:08.654Z</time></trkpt><trkpt lat="44.9265607" lon="9.6149189"><ele>134.0</ele><time>2026-03-29T15:48:09.655Z</time></trkpt><trkpt lat="44.9267062" lon="9.6150825"><ele>134.0</ele><time>2026-03-29T15:48:10.656Z</time></trkpt><trkpt lat="44.9268463" lon="9.6152572"><ele>134.0</ele><time>2026-03-29T15:48:11.653Z</time></trkpt><trkpt lat="44.9269843" lon="9.6154356"><ele>134.0</ele><time>2026-03-29T15:48:12.654Z</time></trkpt><trkpt lat="44.9271157" lon="9.6156232"><ele>134.0</ele><time>2026-03-29T15:48:13.653Z</time></trkpt><trkpt lat="44.9272418" lon="9.6158189"><ele>134.0</ele><time>2026-03-29T15:48:14.654Z</time></trkpt><trkpt lat="44.9273635" lon="9.6160173"><ele>134.0</ele><time>2026-03-29T15:48:15.653Z</time></trkpt><trkpt lat="44.9274828" lon="9.6162113"><ele>134.0</ele><time>2026-03-29T15:48:16.654Z</time></trkpt><trkpt lat="44.9276027" lon="9.616401"><ele>134.0</ele><time>2026-03-29T15:48:17.656Z</time></trkpt><trkpt lat="44.9277208" lon="9.6165874"><ele>134.0</ele><time>2026-03-29T15:48:18.655Z</time></trkpt><trkpt lat="44.9278414" lon="9.6167764"><ele>134.0</ele><time>2026-03-29T15:48:19.654Z</time></trkpt><trkpt lat="44.9279633" lon="9.6169692"><ele>134.0</ele><time>2026-03-29T15:48:20.654Z</time></trkpt><trkpt lat="44.9280905" lon="9.6171658"><ele>134.0</ele><time>2026-03-29T15:48:21.654Z</time></trkpt><trkpt lat="44.928224" lon="9.6173581"><ele>134.33333333333331</ele><time>2026-03-29T15:48:22.653Z</time></trkpt><trkpt lat="44.9283652" lon="9.6175441"><ele>134.66666666666666</ele><time>2026-03-29T15:48:23.653Z</time></trkpt><trkpt lat="44.9285126" lon="9.6177248"><ele>135.0</ele><time>2026-03-29T15:48:24.654Z</time></trkpt><trkpt lat="44.9286639" lon="9.6179001"><ele>135.33333333333334</ele><time>2026-03-29T15:48:25.653Z</time></trkpt><trkpt lat="44.9288224" lon="9.6180681"><ele>135.66666666666669</ele><time>2026-03-29T15:48:26.653Z</time></trkpt><trkpt lat="44.9289847" lon="9.6182347"><ele>136.0</ele><time>2026-03-29T15:48:27.652Z</time></trkpt><trkpt lat="44.9291499" lon="9.6184007"><ele>135.33333333333334</ele><time>2026-03-29T15:48:28.652Z</time></trkpt><trkpt lat="44.9293167" lon="9.6185733"><ele>134.66666666666666</ele><time>2026-03-29T15:48:29.653Z</time></trkpt><trkpt lat="44.9294867" lon="9.6187467"><ele>134.0</ele><time>2026-03-29T15:48:30.653Z</time></trkpt><trkpt lat="44.9296567" lon="9.6189233"><ele>134.0</ele><time>2026-03-29T15:48:31.653Z</time></trkpt><trkpt lat="44.92983" lon="9.6191017"><ele>134.0</ele><time>2026-03-29T15:48:32.653Z</time></trkpt><trkpt lat="44.9300067" lon="9.619285"><ele>134.0</ele><time>2026-03-29T15:48:33.653Z</time></trkpt><trkpt lat="44.930185" lon="9.61947"><ele>134.66666666666666</ele><time>2026-03-29T15:48:34.653Z</time></trkpt><trkpt lat="44.9303633" lon="9.6196567"><ele>135.33333333333334</ele><time>2026-03-29T15:48:35.654Z</time></trkpt><trkpt lat="44.93054" lon="9.6198467"><ele>136.0</ele><time>2026-03-29T15:48:36.653Z</time></trkpt><trkpt lat="44.9307183" lon="9.6200367"><ele>135.33333333333334</ele><time>2026-03-29T15:48:37.653Z</time></trkpt><trkpt lat="44.930895" lon="9.6202283"><ele>134.66666666666666</ele><time>2026-03-29T15:48:38.655Z</time></trkpt><trkpt lat="44.9310717" lon="9.6204183"><ele>134.0</ele><time>2026-03-29T15:48:39.654Z</time></trkpt><trkpt lat="44.931245" lon="9.6206083"><ele>134.0</ele><time>2026-03-29T15:48:40.654Z</time></trkpt><trkpt lat="44.9314183" lon="9.6208"><ele>134.0</ele><time>2026-03-29T15:48:41.653Z</time></trkpt><trkpt lat="44.9315917" lon="9.6209917"><ele>134.0</ele><time>2026-03-29T15:48:42.653Z</time></trkpt><trkpt lat="44.931765" lon="9.6211817"><ele>134.33333333333331</ele><time>2026-03-29T15:48:43.654Z</time></trkpt><trkpt lat="44.9319383" lon="9.621375"><ele>134.66666666666666</ele><time>2026-03-29T15:48:44.654Z</time></trkpt><trkpt lat="44.93211" lon="9.621565"><ele>135.0</ele><time>2026-03-29T15:48:45.652Z</time></trkpt><trkpt lat="44.9322833" lon="9.6217583"><ele>135.0</ele><time>2026-03-29T15:48:46.653Z</time></trkpt><trkpt lat="44.932455" lon="9.6219533"><ele>135.0</ele><time>2026-03-29T15:48:47.653Z</time></trkpt><trkpt lat="44.932625" lon="9.62215"><ele>135.0</ele><time>2026-03-29T15:48:48.654Z</time></trkpt><trkpt lat="44.9327983" lon="9.6223483"><ele>135.0</ele><time>2026-03-29T15:48:49.654Z</time></trkpt><trkpt lat="44.9329717" lon="9.6225467"><ele>135.0</ele><time>2026-03-29T15:48:50.654Z</time></trkpt><trkpt lat="44.93314" lon="9.6227383"><ele>135.0</ele><time>2026-03-29T15:48:51.653Z</time></trkpt><trkpt lat="44.9333067" lon="9.6229217"><ele>134.0</ele><time>2026-03-29T15:48:52.654Z</time></trkpt><trkpt lat="44.9334717" lon="9.6231033"><ele>133.0</ele><time>2026-03-29T15:48:53.655Z</time></trkpt><trkpt lat="44.9336383" lon="9.62329"><ele>132.0</ele><time>2026-03-29T15:48:54.654Z</time></trkpt><trkpt lat="44.9338067" lon="9.62348"><ele>132.66666666666666</ele><time>2026-03-29T15:48:55.653Z</time></trkpt><trkpt lat="44.933975" lon="9.62367"><ele>133.33333333333331</ele><time>2026-03-29T15:48:56.654Z</time></trkpt><trkpt lat="44.9341417" lon="9.6238567"><ele>134.0</ele><time>2026-03-29T15:48:57.652Z</time></trkpt><trkpt lat="44.9343083" lon="9.624045"><ele>133.66666666666666</ele><time>2026-03-29T15:48:58.655Z</time></trkpt><trkpt lat="44.9344733" lon="9.6242333"><ele>133.33333333333334</ele><time>2026-03-29T15:48:59.655Z</time></trkpt><trkpt lat="44.9346417" lon="9.62442"><ele>133.0</ele><time>2026-03-29T15:49:00.653Z</time></trkpt><trkpt lat="44.9348133" lon="9.624605"><ele>133.0</ele><time>2026-03-29T15:49:01.654Z</time></trkpt><trkpt lat="44.9349867" lon="9.62479"><ele>133.0</ele><time>2026-03-29T15:49:02.654Z</time></trkpt><trkpt lat="44.9351583" lon="9.6249733"><ele>133.0</ele><time>2026-03-29T15:49:03.652Z</time></trkpt><trkpt lat="44.9353267" lon="9.6251533"><ele>133.33333333333334</ele><time>2026-03-29T15:49:04.653Z</time></trkpt><trkpt lat="44.935495" lon="9.6253317"><ele>133.66666666666666</ele><time>2026-03-29T15:49:05.655Z</time></trkpt><trkpt lat="44.9356633" lon="9.6255117"><ele>134.0</ele><time>2026-03-29T15:49:06.653Z</time></trkpt><trkpt lat="44.9358317" lon="9.6256933"><ele>134.33333333333331</ele><time>2026-03-29T15:49:07.654Z</time></trkpt><trkpt lat="44.936" lon="9.625875"><ele>134.66666666666666</ele><time>2026-03-29T15:49:08.655Z</time></trkpt><trkpt lat="44.9361683" lon="9.6260533"><ele>135.0</ele><time>2026-03-29T15:49:09.658Z</time></trkpt><trkpt lat="44.9363367" lon="9.626235"><ele>135.0</ele><time>2026-03-29T15:49:10.653Z</time></trkpt><trkpt lat="44.9365017" lon="9.6264167"><ele>135.0</ele><time>2026-03-29T15:49:11.655Z</time></trkpt><trkpt lat="44.9366667" lon="9.6265933"><ele>135.0</ele><time>2026-03-29T15:49:12.653Z</time></trkpt><trkpt lat="44.9368283" lon="9.6267667"><ele>134.0</ele><time>2026-03-29T15:49:13.652Z</time></trkpt><trkpt lat="44.936985" lon="9.6269367"><ele>133.0</ele><time>2026-03-29T15:49:14.655Z</time></trkpt><trkpt lat="44.9371417" lon="9.6271033"><ele>132.0</ele><time>2026-03-29T15:49:15.653Z</time></trkpt><trkpt lat="44.9372983" lon="9.6272683"><ele>132.0</ele><time>2026-03-29T15:49:16.654Z</time></trkpt><trkpt lat="44.9374533" lon="9.6274317"><ele>132.0</ele><time>2026-03-29T15:49:17.654Z</time></trkpt><trkpt lat="44.9376083" lon="9.6275967"><ele>132.0</ele><time>2026-03-29T15:49:18.653Z</time></trkpt><trkpt lat="44.9377617" lon="9.6277583"><ele>132.0</ele><time>2026-03-29T15:49:19.653Z</time></trkpt><trkpt lat="44.9379133" lon="9.6279183"><ele>132.0</ele><time>2026-03-29T15:49:20.653Z</time></trkpt><trkpt lat="44.9380633" lon="9.62808"><ele>132.0</ele><time>2026-03-29T15:49:21.654Z</time></trkpt><trkpt lat="44.9382083" lon="9.6282417"><ele>132.0</ele><time>2026-03-29T15:49:22.653Z</time></trkpt><trkpt lat="44.9383483" lon="9.6284067"><ele>132.0</ele><time>2026-03-29T15:49:23.654Z</time></trkpt><trkpt lat="44.9384817" lon="9.6285783"><ele>132.0</ele><time>2026-03-29T15:49:24.654Z</time></trkpt><trkpt lat="44.9386117" lon="9.6287517"><ele>131.66666666666666</ele><time>2026-03-29T15:49:25.654Z</time></trkpt><trkpt lat="44.9387367" lon="9.6289233"><ele>131.33333333333331</ele><time>2026-03-29T15:49:26.655Z</time></trkpt><trkpt lat="44.938855" lon="9.6290933"><ele>131.0</ele><time>2026-03-29T15:49:27.653Z</time></trkpt><trkpt lat="44.9389667" lon="9.62926"><ele>131.0</ele><time>2026-03-29T15:49:28.653Z</time></trkpt><trkpt lat="44.9390733" lon="9.6294233"><ele>131.0</ele><time>2026-03-29T15:49:29.653Z</time></trkpt><trkpt lat="44.939175" lon="9.62959"><ele>131.0</ele><time>2026-03-29T15:49:30.654Z</time></trkpt><trkpt lat="44.939275" lon="9.6297583"><ele>130.66666666666666</ele><time>2026-03-29T15:49:31.654Z</time></trkpt><trkpt lat="44.9393767" lon="9.6299283"><ele>130.33333333333334</ele><time>2026-03-29T15:49:32.654Z</time></trkpt><trkpt lat="44.9394817" lon="9.6301"><ele>130.0</ele><time>2026-03-29T15:49:33.653Z</time></trkpt><trkpt lat="44.9395867" lon="9.6302667"><ele>130.0</ele><time>2026-03-29T15:49:34.653Z</time></trkpt><trkpt lat="44.9396883" lon="9.630425"><ele>130.0</ele><time>2026-03-29T15:49:35.654Z</time></trkpt><trkpt lat="44.93979" lon="9.630575"><ele>130.0</ele><time>2026-03-29T15:49:36.652Z</time></trkpt><trkpt lat="44.9398867" lon="9.6307167"><ele>130.0</ele><time>2026-03-29T15:49:37.654Z</time></trkpt><trkpt lat="44.9399817" lon="9.6308517"><ele>129.25</ele><time>2026-03-29T15:49:38.654Z</time></trkpt><trkpt lat="44.9400733" lon="9.63098"><ele>128.5</ele><time>2026-03-29T15:49:39.653Z</time></trkpt><trkpt lat="44.94016" lon="9.6311"><ele>127.75</ele><time>2026-03-29T15:49:40.653Z</time></trkpt><trkpt lat="44.9402433" lon="9.6312167"><ele>127.0</ele><time>2026-03-29T15:49:41.654Z</time></trkpt><trkpt lat="44.9403283" lon="9.631325"><ele>126.75</ele><time>2026-03-29T15:49:42.654Z</time></trkpt><trkpt lat="44.9404183" lon="9.6314333"><ele>126.5</ele><time>2026-03-29T15:49:43.654Z</time></trkpt><trkpt lat="44.9405133" lon="9.6315467"><ele>126.25</ele><time>2026-03-29T15:49:44.654Z</time></trkpt><trkpt lat="44.9406133" lon="9.6316567"><ele>126.0</ele><time>2026-03-29T15:49:45.653Z</time></trkpt><trkpt lat="44.9407117" lon="9.6317633"><ele>126.0</ele><time>2026-03-29T15:49:46.653Z</time></trkpt><trkpt lat="44.9408033" lon="9.631865"><ele>126.0</ele><time>2026-03-29T15:49:47.653Z</time></trkpt><trkpt lat="44.9408983" lon="9.63197"><ele>126.0</ele><time>2026-03-29T15:49:48.653Z</time></trkpt><trkpt lat="44.9410017" lon="9.632085"><ele>126.0</ele><time>2026-03-29T15:49:49.654Z</time></trkpt><trkpt lat="44.941115" lon="9.6322067"><ele>126.0</ele><time>2026-03-29T15:49:50.653Z</time></trkpt><trkpt lat="44.9412333" lon="9.6323367"><ele>126.0</ele><time>2026-03-29T15:49:51.654Z</time></trkpt><trkpt lat="44.9413517" lon="9.632465"><ele>126.0</ele><time>2026-03-29T15:49:52.653Z</time></trkpt><trkpt lat="44.9414717" lon="9.63259"><ele>126.0</ele><time>2026-03-29T15:49:53.653Z</time></trkpt><trkpt lat="44.9415917" lon="9.6327083"><ele>126.0</ele><time>2026-03-29T15:49:54.653Z</time></trkpt><trkpt lat="44.941715" lon="9.632825"><ele>126.0</ele><time>2026-03-29T15:49:55.653Z</time></trkpt><trkpt lat="44.9418383" lon="9.6329433"><ele>126.0</ele><time>2026-03-29T15:49:56.653Z</time></trkpt><trkpt lat="44.9419617" lon="9.6330633"><ele>126.0</ele><time>2026-03-29T15:49:57.653Z</time></trkpt><trkpt lat="44.94209" lon="9.6331883"><ele>125.0</ele><time>2026-03-29T15:49:58.653Z</time></trkpt><trkpt lat="44.9422167" lon="9.633315"><ele>124.0</ele><time>2026-03-29T15:49:59.654Z</time></trkpt><trkpt lat="44.9423467" lon="9.6334417"><ele>123.0</ele><time>2026-03-29T15:50:00.653Z</time></trkpt><trkpt lat="44.942475" lon="9.633565"><ele>122.33333333333334</ele><time>2026-03-29T15:50:01.652Z</time></trkpt><trkpt lat="44.9426" lon="9.6336883"><ele>121.66666666666667</ele><time>2026-03-29T15:50:02.654Z</time></trkpt><trkpt lat="44.942725" lon="9.6338133"><ele>121.0</ele><time>2026-03-29T15:50:03.653Z</time></trkpt><trkpt lat="44.9428483" lon="9.6339367"><ele>121.0</ele><time>2026-03-29T15:50:04.654Z</time></trkpt><trkpt lat="44.9429733" lon="9.6340633"><ele>121.0</ele><time>2026-03-29T15:50:05.653Z</time></trkpt><trkpt lat="44.9431017" lon="9.634185"><ele>121.0</ele><time>2026-03-29T15:50:06.652Z</time></trkpt><trkpt lat="44.94323" lon="9.6343083"><ele>121.0</ele><time>2026-03-29T15:50:07.652Z</time></trkpt><trkpt lat="44.9433611" lon="9.6344245"><ele>121.0</ele><time>2026-03-29T15:50:08.653Z</time></trkpt><trkpt lat="44.9434943" lon="9.6345332"><ele>121.0</ele><time>2026-03-29T15:50:09.653Z</time></trkpt><trkpt lat="44.9436252" lon="9.6346342"><ele>120.66666666666667</ele><time>2026-03-29T15:50:10.652Z</time></trkpt><trkpt lat="44.9437591" lon="9.6347333"><ele>120.33333333333334</ele><time>2026-03-29T15:50:11.653Z</time></trkpt><trkpt lat="44.9438969" lon="9.6348302"><ele>120.0</ele><time>2026-03-29T15:50:12.653Z</time></trkpt><trkpt lat="44.94404" lon="9.63493"><ele>120.0</ele><time>2026-03-29T15:50:13.654Z</time></trkpt><trkpt lat="44.9441851" lon="9.6350301"><ele>120.0</ele><time>2026-03-29T15:50:14.654Z</time></trkpt><trkpt lat="44.9443243" lon="9.6351291"><ele>120.0</ele><time>2026-03-29T15:50:15.653Z</time></trkpt><trkpt lat="44.9444605" lon="9.6352223"><ele>120.33333333333334</ele><time>2026-03-29T15:50:16.654Z</time></trkpt><trkpt lat="44.9445953" lon="9.6353163"><ele>120.66666666666667</ele><time>2026-03-29T15:50:17.655Z</time></trkpt><trkpt lat="44.9447301" lon="9.635411"><ele>121.0</ele><time>2026-03-29T15:50:18.655Z</time></trkpt><trkpt lat="44.9448641" lon="9.6355071"><ele>121.0</ele><time>2026-03-29T15:50:19.655Z</time></trkpt><trkpt lat="44.9450026" lon="9.6356027"><ele>121.0</ele><time>2026-03-29T15:50:20.655Z</time></trkpt><trkpt lat="44.9451432" lon="9.6357022"><ele>121.0</ele><time>2026-03-29T15:50:21.656Z</time></trkpt><trkpt lat="44.9452874" lon="9.6358059"><ele>121.0</ele><time>2026-03-29T15:50:22.653Z</time></trkpt><trkpt lat="44.9454343" lon="9.63591"><ele>121.0</ele><time>2026-03-29T15:50:23.653Z</time></trkpt><trkpt lat="44.9455827" lon="9.6360139"><ele>121.0</ele><time>2026-03-29T15:50:24.653Z</time></trkpt><trkpt lat="44.9457342" lon="9.6361168"><ele>121.33333333333334</ele><time>2026-03-29T15:50:25.654Z</time></trkpt><trkpt lat="44.9458865" lon="9.6362227"><ele>121.66666666666666</ele><time>2026-03-29T15:50:26.654Z</time></trkpt><trkpt lat="44.9460401" lon="9.6363308"><ele>122.0</ele><time>2026-03-29T15:50:27.654Z</time></trkpt><trkpt lat="44.9461974" lon="9.6364405"><ele>122.0</ele><time>2026-03-29T15:50:28.652Z</time></trkpt><trkpt lat="44.9463561" lon="9.6365496"><ele>122.0</ele><time>2026-03-29T15:50:29.654Z</time></trkpt><trkpt lat="44.9465161" lon="9.6366609"><ele>122.0</ele><time>2026-03-29T15:50:30.654Z</time></trkpt><trkpt lat="44.9466765" lon="9.636775"><ele>121.0</ele><time>2026-03-29T15:50:31.654Z</time></trkpt><trkpt lat="44.9468367" lon="9.6368923"><ele>120.0</ele><time>2026-03-29T15:50:32.657Z</time></trkpt><trkpt lat="44.9470019" lon="9.6370107"><ele>119.0</ele><time>2026-03-29T15:50:33.654Z</time></trkpt><trkpt lat="44.9471796" lon="9.6371347"><ele>119.0</ele><time>2026-03-29T15:50:34.655Z</time></trkpt><trkpt lat="44.9473641" lon="9.6372637"><ele>119.0</ele><time>2026-03-29T15:50:35.653Z</time></trkpt><trkpt lat="44.947545" lon="9.6373903"><ele>119.0</ele><time>2026-03-29T15:50:36.654Z</time></trkpt><trkpt lat="44.9477169" lon="9.6375088"><ele>119.0</ele><time>2026-03-29T15:50:37.653Z</time></trkpt><trkpt lat="44.9478769" lon="9.6376187"><ele>119.0</ele><time>2026-03-29T15:50:38.654Z</time></trkpt><trkpt lat="44.9480377" lon="9.6377313"><ele>119.0</ele><time>2026-03-29T15:50:39.655Z</time></trkpt><trkpt lat="44.9482007" lon="9.637845"><ele>119.0</ele><time>2026-03-29T15:50:40.652Z</time></trkpt><trkpt lat="44.9483634" lon="9.6379568"><ele>119.0</ele><time>2026-03-29T15:50:41.654Z</time></trkpt><trkpt lat="44.9485255" lon="9.6380721"><ele>119.0</ele><time>2026-03-29T15:50:42.653Z</time></trkpt><trkpt lat="44.9486897" lon="9.638191"><ele>119.0</ele><time>2026-03-29T15:50:43.654Z</time></trkpt><trkpt lat="44.9488546" lon="9.6383085"><ele>119.0</ele><time>2026-03-29T15:50:44.654Z</time></trkpt><trkpt lat="44.9490202" lon="9.6384256"><ele>119.0</ele><time>2026-03-29T15:50:45.653Z</time></trkpt><trkpt lat="44.9491867" lon="9.6385413"><ele>118.66666666666666</ele><time>2026-03-29T15:50:46.654Z</time></trkpt><trkpt lat="44.94935" lon="9.638655"><ele>118.33333333333334</ele><time>2026-03-29T15:50:47.653Z</time></trkpt><trkpt lat="44.9495083" lon="9.6387683"><ele>118.0</ele><time>2026-03-29T15:50:48.654Z</time></trkpt><trkpt lat="44.9496633" lon="9.6388817"><ele>118.0</ele><time>2026-03-29T15:50:49.654Z</time></trkpt><trkpt lat="44.9498217" lon="9.6389967"><ele>118.0</ele><time>2026-03-29T15:50:50.656Z</time></trkpt><trkpt lat="44.9499783" lon="9.639115"><ele>118.0</ele><time>2026-03-29T15:50:51.652Z</time></trkpt><trkpt lat="44.9501367" lon="9.639235"><ele>117.66666666666667</ele><time>2026-03-29T15:50:52.654Z</time></trkpt><trkpt lat="44.9502933" lon="9.6393583"><ele>117.33333333333334</ele><time>2026-03-29T15:50:53.654Z</time></trkpt><trkpt lat="44.9504483" lon="9.6394833"><ele>117.0</ele><time>2026-03-29T15:50:54.653Z</time></trkpt><trkpt lat="44.9506017" lon="9.6396067"><ele>116.66666666666666</ele><time>2026-03-29T15:50:55.654Z</time></trkpt><trkpt lat="44.950755" lon="9.639735"><ele>116.33333333333333</ele><time>2026-03-29T15:50:56.654Z</time></trkpt><trkpt lat="44.9509117" lon="9.639865"><ele>116.0</ele><time>2026-03-29T15:50:57.654Z</time></trkpt><trkpt lat="44.9510683" lon="9.6400033"><ele>115.66666666666666</ele><time>2026-03-29T15:50:58.654Z</time></trkpt><trkpt lat="44.9512217" lon="9.6401433"><ele>115.33333333333334</ele><time>2026-03-29T15:50:59.653Z</time></trkpt><trkpt lat="44.9513733" lon="9.6402833"><ele>115.0</ele><time>2026-03-29T15:51:00.655Z</time></trkpt><trkpt lat="44.9515217" lon="9.6404217"><ele>115.0</ele><time>2026-03-29T15:51:01.654Z</time></trkpt><trkpt lat="44.951665" lon="9.6405583"><ele>115.0</ele><time>2026-03-29T15:51:02.655Z</time></trkpt><trkpt lat="44.9518067" lon="9.6406983"><ele>115.0</ele><time>2026-03-29T15:51:03.654Z</time></trkpt><trkpt lat="44.9519467" lon="9.6408417"><ele>115.0</ele><time>2026-03-29T15:51:04.656Z</time></trkpt><trkpt lat="44.9520833" lon="9.640985"><ele>115.0</ele><time>2026-03-29T15:51:05.653Z</time></trkpt><trkpt lat="44.95222" lon="9.64113"><ele>115.0</ele><time>2026-03-29T15:51:06.653Z</time></trkpt><trkpt lat="44.952355" lon="9.6412717"><ele>115.0</ele><time>2026-03-29T15:51:07.654Z</time></trkpt><trkpt lat="44.952485" lon="9.6414117"><ele>115.0</ele><time>2026-03-29T15:51:08.654Z</time></trkpt><trkpt lat="44.9526133" lon="9.641555"><ele>115.0</ele><time>2026-03-29T15:51:09.654Z</time></trkpt><trkpt lat="44.9527433" lon="9.6417"><ele>114.66666666666667</ele><time>2026-03-29T15:51:10.653Z</time></trkpt><trkpt lat="44.9528767" lon="9.64185"><ele>114.33333333333334</ele><time>2026-03-29T15:51:11.653Z</time></trkpt><trkpt lat="44.95301" lon="9.6420017"><ele>114.0</ele><time>2026-03-29T15:51:12.653Z</time></trkpt><trkpt lat="44.9531383" lon="9.642155"><ele>114.0</ele><time>2026-03-29T15:51:13.652Z</time></trkpt><trkpt lat="44.9532667" lon="9.6423117"><ele>114.0</ele><time>2026-03-29T15:51:14.653Z</time></trkpt><trkpt lat="44.953395" lon="9.6424717"><ele>114.0</ele><time>2026-03-29T15:51:15.653Z</time></trkpt><trkpt lat="44.953525" lon="9.642635"><ele>113.66666666666666</ele><time>2026-03-29T15:51:16.654Z</time></trkpt><trkpt lat="44.9536533" lon="9.6427983"><ele>113.33333333333333</ele><time>2026-03-29T15:51:17.653Z</time></trkpt><trkpt lat="44.95378" lon="9.6429583"><ele>113.0</ele><time>2026-03-29T15:51:18.653Z</time></trkpt><trkpt lat="44.9539033" lon="9.6431217"><ele>113.0</ele><time>2026-03-29T15:51:19.655Z</time></trkpt><trkpt lat="44.9540283" lon="9.643285"><ele>113.0</ele><time>2026-03-29T15:51:20.654Z</time></trkpt><trkpt lat="44.9541533" lon="9.6434517"><ele>113.0</ele><time>2026-03-29T15:51:21.653Z</time></trkpt><trkpt lat="44.95428" lon="9.64362"><ele>112.0</ele><time>2026-03-29T15:51:22.654Z</time></trkpt><trkpt lat="44.9544067" lon="9.6437917"><ele>111.0</ele><time>2026-03-29T15:51:23.653Z</time></trkpt><trkpt lat="44.9545333" lon="9.6439617"><ele>110.0</ele><time>2026-03-29T15:51:24.653Z</time></trkpt><trkpt lat="44.95466" lon="9.64413"><ele>110.0</ele><time>2026-03-29T15:51:25.654Z</time></trkpt><trkpt lat="44.954785" lon="9.6442983"><ele>110.0</ele><time>2026-03-29T15:51:26.654Z</time></trkpt><trkpt lat="44.9549083" lon="9.6444683"><ele>110.0</ele><time>2026-03-29T15:51:27.652Z</time></trkpt><trkpt lat="44.9550333" lon="9.6446383"><ele>110.0</ele><time>2026-03-29T15:51:28.653Z</time></trkpt><trkpt lat="44.9551583" lon="9.6448083"><ele>110.0</ele><time>2026-03-29T15:51:29.654Z</time></trkpt><trkpt lat="44.9552833" lon="9.644975"><ele>110.0</ele><time>2026-03-29T15:51:30.654Z</time></trkpt><trkpt lat="44.9554117" lon="9.6451367"><ele>109.66666666666666</ele><time>2026-03-29T15:51:31.652Z</time></trkpt><trkpt lat="44.9555417" lon="9.6452983"><ele>109.33333333333334</ele><time>2026-03-29T15:51:32.653Z</time></trkpt><trkpt lat="44.955675" lon="9.6454533"><ele>109.0</ele><time>2026-03-29T15:51:33.653Z</time></trkpt><trkpt lat="44.95581" lon="9.645605"><ele>108.33333333333334</ele><time>2026-03-29T15:51:34.653Z</time></trkpt><trkpt lat="44.9559433" lon="9.6457567"><ele>107.66666666666666</ele><time>2026-03-29T15:51:35.653Z</time></trkpt><trkpt lat="44.95608" lon="9.6459017"><ele>107.0</ele><time>2026-03-29T15:51:36.652Z</time></trkpt><trkpt lat="44.9562167" lon="9.646045"><ele>107.33333333333333</ele><time>2026-03-29T15:51:37.658Z</time></trkpt><trkpt lat="44.9563583" lon="9.6461883"><ele>107.66666666666666</ele><time>2026-03-29T15:51:38.654Z</time></trkpt><trkpt lat="44.9565033" lon="9.6463233"><ele>108.0</ele><time>2026-03-29T15:51:39.653Z</time></trkpt><trkpt lat="44.95665" lon="9.6464583"><ele>107.66666666666666</ele><time>2026-03-29T15:51:40.654Z</time></trkpt><trkpt lat="44.9567967" lon="9.6465917"><ele>107.33333333333333</ele><time>2026-03-29T15:51:41.652Z</time></trkpt><trkpt lat="44.9569433" lon="9.6467133"><ele>107.0</ele><time>2026-03-29T15:51:42.654Z</time></trkpt><trkpt lat="44.9570817" lon="9.6468267"><ele>107.0</ele><time>2026-03-29T15:51:43.653Z</time></trkpt><trkpt lat="44.9572133" lon="9.646935"><ele>107.0</ele><time>2026-03-29T15:51:44.653Z</time></trkpt><trkpt lat="44.9573433" lon="9.64704"><ele>107.0</ele><time>2026-03-29T15:51:45.653Z</time></trkpt><trkpt lat="44.95747" lon="9.64714"><ele>107.0</ele><time>2026-03-29T15:51:46.654Z</time></trkpt><trkpt lat="44.9575967" lon="9.6472433"><ele>106.5</ele><time>2026-03-29T15:51:47.654Z</time></trkpt><trkpt lat="44.9577267" lon="9.6473483"><ele>106.0</ele><time>2026-03-29T15:51:48.653Z</time></trkpt><trkpt lat="44.9578567" lon="9.6474567"><ele>105.5</ele><time>2026-03-29T15:51:49.653Z</time></trkpt><trkpt lat="44.957985" lon="9.6475617"><ele>105.0</ele><time>2026-03-29T15:51:50.654Z</time></trkpt><trkpt lat="44.9581133" lon="9.647665"><ele>105.0</ele><time>2026-03-29T15:51:51.652Z</time></trkpt><trkpt lat="44.9582433" lon="9.6477667"><ele>105.0</ele><time>2026-03-29T15:51:52.654Z</time></trkpt><trkpt lat="44.9583767" lon="9.6478683"><ele>105.0</ele><time>2026-03-29T15:51:53.653Z</time></trkpt><trkpt lat="44.9585117" lon="9.6479733"><ele>105.0</ele><time>2026-03-29T15:51:54.653Z</time></trkpt><trkpt lat="44.958645" lon="9.6480783"><ele>105.0</ele><time>2026-03-29T15:51:55.654Z</time></trkpt><trkpt lat="44.9587817" lon="9.6481883"><ele>105.0</ele><time>2026-03-29T15:51:56.654Z</time></trkpt><trkpt lat="44.95892" lon="9.6482967"><ele>105.0</ele><time>2026-03-29T15:51:57.653Z</time></trkpt><trkpt lat="44.95906" lon="9.6484067"><ele>105.0</ele><time>2026-03-29T15:51:58.654Z</time></trkpt><trkpt lat="44.9592" lon="9.64852"><ele>105.0</ele><time>2026-03-29T15:51:59.655Z</time></trkpt><trkpt lat="44.9593383" lon="9.6486283"><ele>104.66666666666666</ele><time>2026-03-29T15:52:00.653Z</time></trkpt><trkpt lat="44.9594733" lon="9.648735"><ele>104.33333333333333</ele><time>2026-03-29T15:52:01.653Z</time></trkpt><trkpt lat="44.9596083" lon="9.6488417"><ele>104.0</ele><time>2026-03-29T15:52:02.654Z</time></trkpt><trkpt lat="44.959745" lon="9.6489467"><ele>104.0</ele><time>2026-03-29T15:52:03.654Z</time></trkpt><trkpt lat="44.9598767" lon="9.6490517"><ele>104.0</ele><time>2026-03-29T15:52:04.654Z</time></trkpt><trkpt lat="44.96001" lon="9.649155"><ele>104.0</ele><time>2026-03-29T15:52:05.652Z</time></trkpt><trkpt lat="44.9601417" lon="9.64926"><ele>103.5</ele><time>2026-03-29T15:52:06.653Z</time></trkpt><trkpt lat="44.960275" lon="9.649365"><ele>103.0</ele><time>2026-03-29T15:52:07.654Z</time></trkpt><trkpt lat="44.9604017" lon="9.6494667"><ele>102.5</ele><time>2026-03-29T15:52:08.655Z</time></trkpt><trkpt lat="44.9605217" lon="9.64956"><ele>102.0</ele><time>2026-03-29T15:52:09.652Z</time></trkpt><trkpt lat="44.9606317" lon="9.6496483"><ele>102.0</ele><time>2026-03-29T15:52:10.654Z</time></trkpt><trkpt lat="44.9607383" lon="9.6497317"><ele>102.0</ele><time>2026-03-29T15:52:11.653Z</time></trkpt><trkpt lat="44.9608383" lon="9.649815"><ele>102.0</ele><time>2026-03-29T15:52:12.653Z</time></trkpt><trkpt lat="44.960935" lon="9.64989"><ele>102.0</ele><time>2026-03-29T15:52:13.653Z</time></trkpt><trkpt lat="44.9610283" lon="9.649965"><ele>101.75</ele><time>2026-03-29T15:52:14.655Z</time></trkpt><trkpt lat="44.96113" lon="9.650045"><ele>101.5</ele><time>2026-03-29T15:52:15.654Z</time></trkpt><trkpt lat="44.9612383" lon="9.65013"><ele>101.25</ele><time>2026-03-29T15:52:16.654Z</time></trkpt><trkpt lat="44.9613567" lon="9.6502183"><ele>101.0</ele><time>2026-03-29T15:52:17.654Z</time></trkpt><trkpt lat="44.96148" lon="9.6503133"><ele>101.33333333333333</ele><time>2026-03-29T15:52:18.653Z</time></trkpt><trkpt lat="44.96161" lon="9.650415"><ele>101.66666666666666</ele><time>2026-03-29T15:52:19.656Z</time></trkpt><trkpt lat="44.9617433" lon="9.6505167"><ele>102.0</ele><time>2026-03-29T15:52:20.653Z</time></trkpt><trkpt lat="44.9618783" lon="9.6506217"><ele>102.0</ele><time>2026-03-29T15:52:21.654Z</time></trkpt><trkpt lat="44.9620167" lon="9.6507317"><ele>102.0</ele><time>2026-03-29T15:52:22.654Z</time></trkpt><trkpt lat="44.96216" lon="9.650845"><ele>102.0</ele><time>2026-03-29T15:52:23.654Z</time></trkpt><trkpt lat="44.9623033" lon="9.65096"><ele>102.0</ele><time>2026-03-29T15:52:24.652Z</time></trkpt><trkpt lat="44.9624467" lon="9.651075"><ele>102.0</ele><time>2026-03-29T15:52:25.653Z</time></trkpt><trkpt lat="44.9625967" lon="9.6511933"><ele>102.0</ele><time>2026-03-29T15:52:26.655Z</time></trkpt><trkpt lat="44.9627433" lon="9.651315"><ele>101.66666666666666</ele><time>2026-03-29T15:52:27.653Z</time></trkpt><trkpt lat="44.9628933" lon="9.6514333"><ele>101.33333333333333</ele><time>2026-03-29T15:52:28.654Z</time></trkpt><trkpt lat="44.9630483" lon="9.6515583"><ele>101.0</ele><time>2026-03-29T15:52:29.654Z</time></trkpt><trkpt lat="44.9632117" lon="9.6516867"><ele>100.66666666666666</ele><time>2026-03-29T15:52:30.653Z</time></trkpt><trkpt lat="44.9633767" lon="9.651815"><ele>100.33333333333334</ele><time>2026-03-29T15:52:31.653Z</time></trkpt><trkpt lat="44.963545" lon="9.6519483"><ele>100.0</ele><time>2026-03-29T15:52:32.654Z</time></trkpt><trkpt lat="44.963715" lon="9.652085"><ele>100.33333333333334</ele><time>2026-03-29T15:52:33.654Z</time></trkpt><trkpt lat="44.9638867" lon="9.6522183"><ele>100.66666666666666</ele><time>2026-03-29T15:52:34.653Z</time></trkpt><trkpt lat="44.9640633" lon="9.65235"><ele>101.0</ele><time>2026-03-29T15:52:35.654Z</time></trkpt><trkpt lat="44.9642383" lon="9.6524817"><ele>101.0</ele><time>2026-03-29T15:52:36.653Z</time></trkpt><trkpt lat="44.9644133" lon="9.6526117"><ele>101.0</ele><time>2026-03-29T15:52:37.652Z</time></trkpt><trkpt lat="44.9645933" lon="9.6527317"><ele>101.0</ele><time>2026-03-29T15:52:38.653Z</time></trkpt><trkpt lat="44.9647767" lon="9.652845"><ele>101.0</ele><time>2026-03-29T15:52:39.653Z</time></trkpt><trkpt lat="44.964965" lon="9.652955"><ele>101.0</ele><time>2026-03-29T15:52:40.654Z</time></trkpt><trkpt lat="44.9651583" lon="9.65306"><ele>101.0</ele><time>2026-03-29T15:52:41.653Z</time></trkpt><trkpt lat="44.9653517" lon="9.653165"><ele>100.66666666666666</ele><time>2026-03-29T15:52:42.653Z</time></trkpt><trkpt lat="44.9655433" lon="9.6532667"><ele>100.33333333333334</ele><time>2026-03-29T15:52:43.653Z</time></trkpt><trkpt lat="44.965735" lon="9.653365"><ele>100.0</ele><time>2026-03-29T15:52:44.654Z</time></trkpt><trkpt lat="44.965925" lon="9.6534633"><ele>99.66666666666667</ele><time>2026-03-29T15:52:45.654Z</time></trkpt><trkpt lat="44.966115" lon="9.6535617"><ele>99.33333333333334</ele><time>2026-03-29T15:52:46.652Z</time></trkpt><trkpt lat="44.9663033" lon="9.6536583"><ele>99.0</ele><time>2026-03-29T15:52:47.654Z</time></trkpt><trkpt lat="44.9664917" lon="9.653755"><ele>99.0</ele><time>2026-03-29T15:52:48.653Z</time></trkpt><trkpt lat="44.9666817" lon="9.65385"><ele>99.0</ele><time>2026-03-29T15:52:49.653Z</time></trkpt><trkpt lat="44.9668733" lon="9.653945"><ele>99.0</ele><time>2026-03-29T15:52:50.654Z</time></trkpt><trkpt lat="44.9670633" lon="9.6540383"><ele>99.0</ele><time>2026-03-29T15:52:51.654Z</time></trkpt><trkpt lat="44.9672517" lon="9.654135"><ele>99.0</ele><time>2026-03-29T15:52:52.652Z</time></trkpt><trkpt lat="44.96744" lon="9.6542317"><ele>99.0</ele><time>2026-03-29T15:52:53.655Z</time></trkpt><trkpt lat="44.9676283" lon="9.6543283"><ele>98.66666666666666</ele><time>2026-03-29T15:52:54.654Z</time></trkpt><trkpt lat="44.96782" lon="9.654425"><ele>98.33333333333333</ele><time>2026-03-29T15:52:55.654Z</time></trkpt><trkpt lat="44.9680117" lon="9.654525"><ele>98.0</ele><time>2026-03-29T15:52:56.654Z</time></trkpt><trkpt lat="44.9682067" lon="9.6546283"><ele>97.66666666666666</ele><time>2026-03-29T15:52:57.653Z</time></trkpt><trkpt lat="44.9684017" lon="9.6547333"><ele>97.33333333333334</ele><time>2026-03-29T15:52:58.654Z</time></trkpt><trkpt lat="44.9685983" lon="9.65484"><ele>97.0</ele><time>2026-03-29T15:52:59.654Z</time></trkpt><trkpt lat="44.9687933" lon="9.6549433"><ele>97.0</ele><time>2026-03-29T15:53:00.652Z</time></trkpt><trkpt lat="44.968985" lon="9.6550433"><ele>97.0</ele><time>2026-03-29T15:53:01.653Z</time></trkpt><trkpt lat="44.9691733" lon="9.6551383"><ele>97.0</ele><time>2026-03-29T15:53:02.653Z</time></trkpt><trkpt lat="44.96936" lon="9.6552317"><ele>96.66666666666667</ele><time>2026-03-29T15:53:03.653Z</time></trkpt><trkpt lat="44.9695467" lon="9.6553267"><ele>96.33333333333334</ele><time>2026-03-29T15:53:04.654Z</time></trkpt><trkpt lat="44.9697283" lon="9.6554233"><ele>96.0</ele><time>2026-03-29T15:53:05.653Z</time></trkpt><trkpt lat="44.9699083" lon="9.6555167"><ele>96.0</ele><time>2026-03-29T15:53:06.653Z</time></trkpt><trkpt lat="44.97009" lon="9.6556133"><ele>96.0</ele><time>2026-03-29T15:53:07.654Z</time></trkpt><trkpt lat="44.9702767" lon="9.6557133"><ele>96.0</ele><time>2026-03-29T15:53:08.654Z</time></trkpt><trkpt lat="44.9704683" lon="9.655815"><ele>96.0</ele><time>2026-03-29T15:53:09.653Z</time></trkpt><trkpt lat="44.97066" lon="9.655915"><ele>96.0</ele><time>2026-03-29T15:53:10.654Z</time></trkpt><trkpt lat="44.9708433" lon="9.65601"><ele>96.0</ele><time>2026-03-29T15:53:11.653Z</time></trkpt><trkpt lat="44.9710217" lon="9.6561033"><ele>96.33333333333334</ele><time>2026-03-29T15:53:12.654Z</time></trkpt><trkpt lat="44.9711983" lon="9.6561933"><ele>96.66666666666667</ele><time>2026-03-29T15:53:13.654Z</time></trkpt><trkpt lat="44.971375" lon="9.656285"><ele>97.0</ele><time>2026-03-29T15:53:14.654Z</time></trkpt><trkpt lat="44.9715483" lon="9.6563767"><ele>96.66666666666667</ele><time>2026-03-29T15:53:15.653Z</time></trkpt><trkpt lat="44.9717267" lon="9.6564667"><ele>96.33333333333334</ele><time>2026-03-29T15:53:16.653Z</time></trkpt><trkpt lat="44.971905" lon="9.6565583"><ele>96.0</ele><time>2026-03-29T15:53:17.654Z</time></trkpt><trkpt lat="44.9720867" lon="9.6566533"><ele>96.0</ele><time>2026-03-29T15:53:18.653Z</time></trkpt><trkpt lat="44.97227" lon="9.6567517"><ele>96.0</ele><time>2026-03-29T15:53:19.654Z</time></trkpt><trkpt lat="44.972455" lon="9.6568533"><ele>96.0</ele><time>2026-03-29T15:53:20.654Z</time></trkpt><trkpt lat="44.9726417" lon="9.6569517"><ele>95.66666666666667</ele><time>2026-03-29T15:53:21.653Z</time></trkpt><trkpt lat="44.9728267" lon="9.6570467"><ele>95.33333333333334</ele><time>2026-03-29T15:53:22.654Z</time></trkpt><trkpt lat="44.97301" lon="9.6571417"><ele>95.0</ele><time>2026-03-29T15:53:23.652Z</time></trkpt><trkpt lat="44.9731917" lon="9.6572333"><ele>94.33333333333334</ele><time>2026-03-29T15:53:24.653Z</time></trkpt><trkpt lat="44.9733733" lon="9.6573233"><ele>93.66666666666667</ele><time>2026-03-29T15:53:25.654Z</time></trkpt><trkpt lat="44.9735533" lon="9.6574133"><ele>93.0</ele><time>2026-03-29T15:53:26.654Z</time></trkpt><trkpt lat="44.9737333" lon="9.6575067"><ele>93.0</ele><time>2026-03-29T15:53:27.654Z</time></trkpt><trkpt lat="44.9739117" lon="9.6576017"><ele>93.0</ele><time>2026-03-29T15:53:28.653Z</time></trkpt><trkpt lat="44.974095" lon="9.6576933"><ele>93.0</ele><time>2026-03-29T15:53:29.653Z</time></trkpt><trkpt lat="44.9742817" lon="9.6577883"><ele>93.33333333333333</ele><time>2026-03-29T15:53:30.653Z</time></trkpt><trkpt lat="44.974465" lon="9.6578833"><ele>93.66666666666666</ele><time>2026-03-29T15:53:31.654Z</time></trkpt><trkpt lat="44.9746483" lon="9.6579767"><ele>94.0</ele><time>2026-03-29T15:53:32.653Z</time></trkpt><trkpt lat="44.9748333" lon="9.65807"><ele>94.0</ele><time>2026-03-29T15:53:33.654Z</time></trkpt><trkpt lat="44.975015" lon="9.6581617"><ele>94.0</ele><time>2026-03-29T15:53:34.653Z</time></trkpt><trkpt lat="44.9751933" lon="9.65825"><ele>94.0</ele><time>2026-03-29T15:53:35.655Z</time></trkpt><trkpt lat="44.97537" lon="9.6583333"><ele>93.66666666666666</ele><time>2026-03-29T15:53:36.654Z</time></trkpt><trkpt lat="44.9755483" lon="9.6584133"><ele>93.33333333333333</ele><time>2026-03-29T15:53:37.654Z</time></trkpt><trkpt lat="44.97573" lon="9.658485"><ele>93.0</ele><time>2026-03-29T15:53:38.654Z</time></trkpt><trkpt lat="44.9759117" lon="9.65855"><ele>92.66666666666667</ele><time>2026-03-29T15:53:39.653Z</time></trkpt><trkpt lat="44.9760933" lon="9.65861"><ele>92.33333333333334</ele><time>2026-03-29T15:53:40.654Z</time></trkpt><trkpt lat="44.9762783" lon="9.658665"><ele>92.0</ele><time>2026-03-29T15:53:41.653Z</time></trkpt><trkpt lat="44.9764667" lon="9.65872"><ele>92.0</ele><time>2026-03-29T15:53:42.652Z</time></trkpt><trkpt lat="44.9766567" lon="9.6587733"><ele>92.0</ele><time>2026-03-29T15:53:43.654Z</time></trkpt><trkpt lat="44.9768467" lon="9.6588267"><ele>92.0</ele><time>2026-03-29T15:53:44.654Z</time></trkpt><trkpt lat="44.977035" lon="9.6588817"><ele>91.66666666666667</ele><time>2026-03-29T15:53:45.653Z</time></trkpt><trkpt lat="44.977225" lon="9.6589333"><ele>91.33333333333333</ele><time>2026-03-29T15:53:46.654Z</time></trkpt><trkpt lat="44.9774133" lon="9.658985"><ele>91.0</ele><time>2026-03-29T15:53:47.654Z</time></trkpt><trkpt lat="44.9776017" lon="9.659035"><ele>90.66666666666666</ele><time>2026-03-29T15:53:48.652Z</time></trkpt><trkpt lat="44.9777867" lon="9.6590883"><ele>90.33333333333333</ele><time>2026-03-29T15:53:49.654Z</time></trkpt><trkpt lat="44.9779717" lon="9.6591383"><ele>90.0</ele><time>2026-03-29T15:53:50.654Z</time></trkpt><trkpt lat="44.9781583" lon="9.65919"><ele>90.0</ele><time>2026-03-29T15:53:51.654Z</time></trkpt><trkpt lat="44.9783483" lon="9.65924"><ele>90.0</ele><time>2026-03-29T15:53:52.654Z</time></trkpt><trkpt lat="44.97854" lon="9.6592917"><ele>90.0</ele><time>2026-03-29T15:53:53.653Z</time></trkpt><trkpt lat="44.9787333" lon="9.6593467"><ele>90.33333333333333</ele><time>2026-03-29T15:53:54.653Z</time></trkpt><trkpt lat="44.97893" lon="9.6594"><ele>90.66666666666666</ele><time>2026-03-29T15:53:55.654Z</time></trkpt><trkpt lat="44.9791317" lon="9.6594533"><ele>91.0</ele><time>2026-03-29T15:53:56.653Z</time></trkpt><trkpt lat="44.9793333" lon="9.6595067"><ele>90.33333333333333</ele><time>2026-03-29T15:53:57.653Z</time></trkpt><trkpt lat="44.979535" lon="9.65956"><ele>89.66666666666667</ele><time>2026-03-29T15:53:58.654Z</time></trkpt><trkpt lat="44.979735" lon="9.659615"><ele>89.0</ele><time>2026-03-29T15:53:59.653Z</time></trkpt><trkpt lat="44.9799317" lon="9.65967"><ele>89.0</ele><time>2026-03-29T15:54:00.653Z</time></trkpt><trkpt lat="44.9801217" lon="9.6597217"><ele>89.0</ele><time>2026-03-29T15:54:01.653Z</time></trkpt><trkpt lat="44.9803067" lon="9.6597733"><ele>89.0</ele><time>2026-03-29T15:54:02.654Z</time></trkpt><trkpt lat="44.980485" lon="9.6598233"><ele>89.0</ele><time>2026-03-29T15:54:03.653Z</time></trkpt><trkpt lat="44.9806633" lon="9.6598767"><ele>89.0</ele><time>2026-03-29T15:54:04.653Z</time></trkpt><trkpt lat="44.98084" lon="9.6599267"><ele>89.0</ele><time>2026-03-29T15:54:05.655Z</time></trkpt><trkpt lat="44.9810117" lon="9.6599767"><ele>89.0</ele><time>2026-03-29T15:54:06.653Z</time></trkpt><trkpt lat="44.9811767" lon="9.6600217"><ele>89.0</ele><time>2026-03-29T15:54:07.653Z</time></trkpt><trkpt lat="44.98133" lon="9.6600683"><ele>89.0</ele><time>2026-03-29T15:54:08.654Z</time></trkpt><trkpt lat="44.981475" lon="9.6601067"><ele>89.0</ele><time>2026-03-29T15:54:09.655Z</time></trkpt><trkpt lat="44.9816033" lon="9.660145"><ele>89.0</ele><time>2026-03-29T15:54:10.653Z</time></trkpt><trkpt lat="44.9817117" lon="9.6601783"><ele>89.0</ele><time>2026-03-29T15:54:11.654Z</time></trkpt><trkpt lat="44.981795" lon="9.66022"><ele>89.0</ele><time>2026-03-29T15:54:12.652Z</time></trkpt><trkpt lat="44.98186" lon="9.66029"><ele>89.0</ele><time>2026-03-29T15:54:13.653Z</time></trkpt><trkpt lat="44.9819117" lon="9.6603817"><ele>89.0</ele><time>2026-03-29T15:54:14.653Z</time></trkpt><trkpt lat="44.981925" lon="9.6605067"><ele>89.0</ele><time>2026-03-29T15:54:15.652Z</time></trkpt><trkpt lat="44.9818983" lon="9.6607117"><ele>89.0</ele><time>2026-03-29T15:54:16.653Z</time></trkpt><trkpt lat="44.9818717" lon="9.6609383"><ele>89.0</ele><time>2026-03-29T15:54:17.653Z</time></trkpt><trkpt lat="44.9818333" lon="9.6612367"><ele>88.66666666666667</ele><time>2026-03-29T15:54:18.653Z</time></trkpt><trkpt lat="44.9817967" lon="9.6615417"><ele>88.33333333333333</ele><time>2026-03-29T15:54:19.653Z</time></trkpt><trkpt lat="44.9817617" lon="9.661835"><ele>88.0</ele><time>2026-03-29T15:54:20.655Z</time></trkpt><trkpt lat="44.9817283" lon="9.6621217"><ele>87.66666666666666</ele><time>2026-03-29T15:54:21.653Z</time></trkpt><trkpt lat="44.9816967" lon="9.6624083"><ele>87.33333333333333</ele><time>2026-03-29T15:54:22.653Z</time></trkpt><trkpt lat="44.9816617" lon="9.662695"><ele>87.0</ele><time>2026-03-29T15:54:23.654Z</time></trkpt><trkpt lat="44.981625" lon="9.6629817"><ele>87.0</ele><time>2026-03-29T15:54:24.654Z</time></trkpt><trkpt lat="44.9815917" lon="9.6632683"><ele>87.0</ele><time>2026-03-29T15:54:25.652Z</time></trkpt><trkpt lat="44.9815567" lon="9.6635567"><ele>87.0</ele><time>2026-03-29T15:54:26.653Z</time></trkpt><trkpt lat="44.9815233" lon="9.66385"><ele>87.0</ele><time>2026-03-29T15:54:27.652Z</time></trkpt><trkpt lat="44.98149" lon="9.6641467"><ele>87.0</ele><time>2026-03-29T15:54:28.652Z</time></trkpt><trkpt lat="44.981455" lon="9.664445"><ele>87.0</ele><time>2026-03-29T15:54:29.654Z</time></trkpt><trkpt lat="44.9814233" lon="9.6647433"><ele>86.33333333333333</ele><time>2026-03-29T15:54:30.653Z</time></trkpt><trkpt lat="44.9813867" lon="9.6650433"><ele>85.66666666666666</ele><time>2026-03-29T15:54:31.653Z</time></trkpt><trkpt lat="44.9813483" lon="9.6653383"><ele>85.0</ele><time>2026-03-29T15:54:32.654Z</time></trkpt><trkpt lat="44.981315" lon="9.6656217"><ele>85.0</ele><time>2026-03-29T15:54:33.653Z</time></trkpt><trkpt lat="44.9812867" lon="9.665895"><ele>85.0</ele><time>2026-03-29T15:54:34.653Z</time></trkpt><trkpt lat="44.9812583" lon="9.666155"><ele>85.0</ele><time>2026-03-29T15:54:35.654Z</time></trkpt><trkpt lat="44.98123" lon="9.6663967"><ele>85.33333333333333</ele><time>2026-03-29T15:54:36.654Z</time></trkpt><trkpt lat="44.981205" lon="9.666625"><ele>85.66666666666667</ele><time>2026-03-29T15:54:37.655Z</time></trkpt><trkpt lat="44.981175" lon="9.6668417"><ele>86.0</ele><time>2026-03-29T15:54:38.656Z</time></trkpt><trkpt lat="44.98115" lon="9.6670467"><ele>86.0</ele><time>2026-03-29T15:54:39.653Z</time></trkpt><trkpt lat="44.9811267" lon="9.667225"><ele>86.0</ele><time>2026-03-29T15:54:40.654Z</time></trkpt><trkpt lat="44.9811117" lon="9.6673717"><ele>86.0</ele><time>2026-03-29T15:54:41.653Z</time></trkpt><trkpt lat="44.98111" lon="9.6674867"><ele>86.0</ele><time>2026-03-29T15:54:42.653Z</time></trkpt><trkpt lat="44.98113" lon="9.6675783"><ele>86.0</ele><time>2026-03-29T15:54:43.652Z</time></trkpt><trkpt lat="44.9811817" lon="9.6676483"><ele>86.0</ele><time>2026-03-29T15:54:44.654Z</time></trkpt><trkpt lat="44.9812817" lon="9.6676917"><ele>86.0</ele><time>2026-03-29T15:54:45.653Z</time></trkpt><trkpt lat="44.981415" lon="9.6677267"><ele>86.0</ele><time>2026-03-29T15:54:46.654Z</time></trkpt><trkpt lat="44.9815483" lon="9.6677583"><ele>86.0</ele><time>2026-03-29T15:54:47.654Z</time></trkpt><trkpt lat="44.98167" lon="9.6677867"><ele>86.0</ele><time>2026-03-29T15:54:48.654Z</time></trkpt><trkpt lat="44.9817717" lon="9.6678133"><ele>86.0</ele><time>2026-03-29T15:54:49.654Z</time></trkpt><trkpt lat="44.9818483" lon="9.6678567"><ele>86.0</ele><time>2026-03-29T15:54:50.653Z</time></trkpt><trkpt lat="44.9818983" lon="9.6679267"><ele>86.0</ele><time>2026-03-29T15:54:51.653Z</time></trkpt><trkpt lat="44.9819267" lon="9.6680317"><ele>86.0</ele><time>2026-03-29T15:54:52.654Z</time></trkpt><trkpt lat="44.98191" lon="9.668215"><ele>86.0</ele><time>2026-03-29T15:54:53.652Z</time></trkpt><trkpt lat="44.98188" lon="9.6684383"><ele>86.0</ele><time>2026-03-29T15:54:54.653Z</time></trkpt><trkpt lat="44.9818483" lon="9.66869"><ele>86.0</ele><time>2026-03-29T15:54:55.653Z</time></trkpt><trkpt lat="44.9818133" lon="9.6689533"><ele>86.0</ele><time>2026-03-29T15:54:56.656Z</time></trkpt><trkpt lat="44.9817783" lon="9.6692167"><ele>86.0</ele><time>2026-03-29T15:54:57.653Z</time></trkpt><trkpt lat="44.981745" lon="9.6694733"><ele>86.0</ele><time>2026-03-29T15:54:58.654Z</time></trkpt><trkpt lat="44.98171" lon="9.6697283"><ele>86.33333333333334</ele><time>2026-03-29T15:54:59.654Z</time></trkpt><trkpt lat="44.9816767" lon="9.66998"><ele>86.66666666666667</ele><time>2026-03-29T15:55:00.652Z</time></trkpt><trkpt lat="44.981645" lon="9.6702217"><ele>87.0</ele><time>2026-03-29T15:55:01.655Z</time></trkpt><trkpt lat="44.981615" lon="9.6704517"><ele>87.25</ele><time>2026-03-29T15:55:02.654Z</time></trkpt><trkpt lat="44.9815883" lon="9.67067"><ele>87.5</ele><time>2026-03-29T15:55:03.653Z</time></trkpt><trkpt lat="44.98156" lon="9.6708783"><ele>87.75</ele><time>2026-03-29T15:55:04.654Z</time></trkpt><trkpt lat="44.9815333" lon="9.6710733"><ele>88.0</ele><time>2026-03-29T15:55:05.653Z</time></trkpt><trkpt lat="44.9815083" lon="9.67126"><ele>87.66666666666666</ele><time>2026-03-29T15:55:06.652Z</time></trkpt><trkpt lat="44.981485" lon="9.671425"><ele>87.33333333333333</ele><time>2026-03-29T15:55:07.653Z</time></trkpt><trkpt lat="44.9814683" lon="9.6715633"><ele>87.0</ele><time>2026-03-29T15:55:08.653Z</time></trkpt><trkpt lat="44.98146" lon="9.67168"><ele>86.66666666666667</ele><time>2026-03-29T15:55:09.653Z</time></trkpt><trkpt lat="44.9814767" lon="9.6717817"><ele>86.33333333333334</ele><time>2026-03-29T15:55:10.654Z</time></trkpt><trkpt lat="44.98152" lon="9.671855"><ele>86.0</ele><time>2026-03-29T15:55:11.654Z</time></trkpt><trkpt lat="44.9815933" lon="9.67191"><ele>86.5</ele><time>2026-03-29T15:55:12.655Z</time></trkpt><trkpt lat="44.9817383" lon="9.671945"><ele>87.0</ele><time>2026-03-29T15:55:13.654Z</time></trkpt><trkpt lat="44.9818717" lon="9.6719883"><ele>87.5</ele><time>2026-03-29T15:55:14.654Z</time></trkpt><trkpt lat="44.9820033" lon="9.6720233"><ele>88.0</ele><time>2026-03-29T15:55:15.656Z</time></trkpt><trkpt lat="44.98212" lon="9.6720567"><ele>88.0</ele><time>2026-03-29T15:55:16.653Z</time></trkpt><trkpt lat="44.982215" lon="9.6720967"><ele>88.0</ele><time>2026-03-29T15:55:17.653Z</time></trkpt><trkpt lat="44.9822917" lon="9.6721417"><ele>88.0</ele><time>2026-03-29T15:55:18.654Z</time></trkpt><trkpt lat="44.9823483" lon="9.6722167"><ele>88.0</ele><time>2026-03-29T15:55:19.653Z</time></trkpt><trkpt lat="44.9823883" lon="9.6723317"><ele>88.0</ele><time>2026-03-29T15:55:20.654Z</time></trkpt><trkpt lat="44.9823617" lon="9.6725567"><ele>88.0</ele><time>2026-03-29T15:55:21.653Z</time></trkpt><trkpt lat="44.98234" lon="9.6728083"><ele>88.0</ele><time>2026-03-29T15:55:22.653Z</time></trkpt><trkpt lat="44.9823117" lon="9.67309"><ele>88.0</ele><time>2026-03-29T15:55:23.653Z</time></trkpt><trkpt lat="44.9822817" lon="9.673415"><ele>87.0</ele><time>2026-03-29T15:55:24.653Z</time></trkpt><trkpt lat="44.9822433" lon="9.6737567"><ele>86.0</ele><time>2026-03-29T15:55:25.654Z</time></trkpt><trkpt lat="44.9822" lon="9.6740883"><ele>86.0</ele><time>2026-03-29T15:55:26.656Z</time></trkpt><trkpt lat="44.9821633" lon="9.6743933"><ele>86.0</ele><time>2026-03-29T15:55:27.653Z</time></trkpt><trkpt lat="44.98213" lon="9.67467"><ele>86.0</ele><time>2026-03-29T15:55:28.653Z</time></trkpt><trkpt lat="44.9821" lon="9.6749167"><ele>85.5</ele><time>2026-03-29T15:55:29.653Z</time></trkpt><trkpt lat="44.9820717" lon="9.6751383"><ele>85.0</ele><time>2026-03-29T15:55:30.653Z</time></trkpt><trkpt lat="44.9820483" lon="9.6753233"><ele>84.5</ele><time>2026-03-29T15:55:31.653Z</time></trkpt><trkpt lat="44.98203" lon="9.6754733"><ele>84.0</ele><time>2026-03-29T15:55:32.655Z</time></trkpt><trkpt lat="44.9820267" lon="9.675595"><ele>83.80000000000001</ele><time>2026-03-29T15:55:33.653Z</time></trkpt><trkpt lat="44.982045" lon="9.6756983"><ele>83.60000000000001</ele><time>2026-03-29T15:55:34.652Z</time></trkpt><trkpt lat="44.9820983" lon="9.675775"><ele>83.4</ele><time>2026-03-29T15:55:35.653Z</time></trkpt><trkpt lat="44.982205" lon="9.6757933"><ele>83.2</ele><time>2026-03-29T15:55:36.654Z</time></trkpt><trkpt lat="44.982305" lon="9.6758167"><ele>83.0</ele><time>2026-03-29T15:55:37.654Z</time></trkpt><trkpt lat="44.98239" lon="9.6758633"><ele>83.0</ele><time>2026-03-29T15:55:38.654Z</time></trkpt><trkpt lat="44.982455" lon="9.6759383"><ele>83.0</ele><time>2026-03-29T15:55:39.653Z</time></trkpt><trkpt lat="44.9824883" lon="9.6760733"><ele>83.0</ele><time>2026-03-29T15:55:40.652Z</time></trkpt><trkpt lat="44.98249" lon="9.6762583"><ele>83.0</ele><time>2026-03-29T15:55:41.654Z</time></trkpt><trkpt lat="44.982485" lon="9.6764533"><ele>83.0</ele><time>2026-03-29T15:55:42.654Z</time></trkpt><trkpt lat="44.9824817" lon="9.67664"><ele>83.0</ele><time>2026-03-29T15:55:43.653Z</time></trkpt><trkpt lat="44.9824733" lon="9.6768133"><ele>83.0</ele><time>2026-03-29T15:55:44.653Z</time></trkpt><trkpt lat="44.98248" lon="9.676975"><ele>83.0</ele><time>2026-03-29T15:55:45.653Z</time></trkpt><trkpt lat="44.98252" lon="9.6771117"><ele>84.25</ele><time>2026-03-29T15:55:46.652Z</time></trkpt><trkpt lat="44.9826" lon="9.6772117"><ele>85.5</ele><time>2026-03-29T15:55:47.653Z</time></trkpt><trkpt lat="44.9827317" lon="9.67727"><ele>86.75</ele><time>2026-03-29T15:55:48.653Z</time></trkpt><trkpt lat="44.982905" lon="9.6773167"><ele>88.0</ele><time>2026-03-29T15:55:49.653Z</time></trkpt><trkpt lat="44.9830967" lon="9.6773633"><ele>88.0</ele><time>2026-03-29T15:55:50.654Z</time></trkpt><trkpt lat="44.98328" lon="9.67741"><ele>88.0</ele><time>2026-03-29T15:55:51.653Z</time></trkpt><trkpt lat="44.9834433" lon="9.6774567"><ele>88.0</ele><time>2026-03-29T15:55:52.653Z</time></trkpt><trkpt lat="44.9835967" lon="9.6774983"><ele>87.75</ele><time>2026-03-29T15:55:53.655Z</time></trkpt><trkpt lat="44.9837383" lon="9.677535"><ele>87.5</ele><time>2026-03-29T15:55:54.654Z</time></trkpt><trkpt lat="44.9838667" lon="9.6775667"><ele>87.25</ele><time>2026-03-29T15:55:55.653Z</time></trkpt><trkpt lat="44.9839733" lon="9.6776"><ele>87.0</ele><time>2026-03-29T15:55:56.654Z</time></trkpt><trkpt lat="44.98405" lon="9.6776583"><ele>87.0</ele><time>2026-03-29T15:55:57.654Z</time></trkpt><trkpt lat="44.9841067" lon="9.6777467"><ele>87.0</ele><time>2026-03-29T15:55:58.652Z</time></trkpt><trkpt lat="44.9841217" lon="9.6778667"><ele>87.0</ele><time>2026-03-29T15:55:59.653Z</time></trkpt><trkpt lat="44.98409" lon="9.6780533"><ele>87.0</ele><time>2026-03-29T15:56:00.654Z</time></trkpt><trkpt lat="44.9840483" lon="9.6782917"><ele>86.33333333333333</ele><time>2026-03-29T15:56:01.653Z</time></trkpt><trkpt lat="44.9840033" lon="9.6785767"><ele>85.66666666666666</ele><time>2026-03-29T15:56:02.654Z</time></trkpt><trkpt lat="44.9839583" lon="9.6789033"><ele>85.0</ele><time>2026-03-29T15:56:03.653Z</time></trkpt><trkpt lat="44.983905" lon="9.679265"><ele>82.5</ele><time>2026-03-29T15:56:04.654Z</time></trkpt><trkpt lat="44.9838517" lon="9.6796267"><ele>80.0</ele><time>2026-03-29T15:56:05.654Z</time></trkpt><trkpt lat="44.9838033" lon="9.679955"><ele>80.0</ele><time>2026-03-29T15:56:06.653Z</time></trkpt><trkpt lat="44.9837583" lon="9.6802617"><ele>80.0</ele><time>2026-03-29T15:56:07.653Z</time></trkpt><trkpt lat="44.9837133" lon="9.6805617"><ele>80.0</ele><time>2026-03-29T15:56:08.654Z</time></trkpt><trkpt lat="44.9836717" lon="9.68085"><ele>80.33333333333334</ele><time>2026-03-29T15:56:09.653Z</time></trkpt><trkpt lat="44.98363" lon="9.68112"><ele>80.66666666666667</ele><time>2026-03-29T15:56:10.654Z</time></trkpt><trkpt lat="44.983595" lon="9.6813733"><ele>81.0</ele><time>2026-03-29T15:56:11.652Z</time></trkpt><trkpt lat="44.9835617" lon="9.6816117"><ele>81.0</ele><time>2026-03-29T15:56:12.652Z</time></trkpt><trkpt lat="44.9835267" lon="9.68184"><ele>81.0</ele><time>2026-03-29T15:56:13.654Z</time></trkpt><trkpt lat="44.983495" lon="9.6820633"><ele>81.0</ele><time>2026-03-29T15:56:14.654Z</time></trkpt><trkpt lat="44.9834633" lon="9.6822867"><ele>81.33333333333333</ele><time>2026-03-29T15:56:15.653Z</time></trkpt><trkpt lat="44.9834317" lon="9.6825117"><ele>81.66666666666666</ele><time>2026-03-29T15:56:16.653Z</time></trkpt><trkpt lat="44.9833967" lon="9.6827417"><ele>82.0</ele><time>2026-03-29T15:56:17.654Z</time></trkpt><trkpt lat="44.9833683" lon="9.6829667"><ele>83.33333333333333</ele><time>2026-03-29T15:56:18.654Z</time></trkpt><trkpt lat="44.98334" lon="9.6831817"><ele>84.66666666666667</ele><time>2026-03-29T15:56:19.653Z</time></trkpt><trkpt lat="44.9833083" lon="9.6833883"><ele>86.0</ele><time>2026-03-29T15:56:20.654Z</time></trkpt><trkpt lat="44.9832767" lon="9.6835933"><ele>86.25</ele><time>2026-03-29T15:56:21.653Z</time></trkpt><trkpt lat="44.9832467" lon="9.6838017"><ele>86.5</ele><time>2026-03-29T15:56:22.654Z</time></trkpt><trkpt lat="44.98322" lon="9.68401"><ele>86.75</ele><time>2026-03-29T15:56:23.653Z</time></trkpt><trkpt lat="44.9831917" lon="9.6842083"><ele>87.0</ele><time>2026-03-29T15:56:24.653Z</time></trkpt><trkpt lat="44.9831617" lon="9.6844033"><ele>87.0</ele><time>2026-03-29T15:56:25.653Z</time></trkpt><trkpt lat="44.9831333" lon="9.68459"><ele>87.0</ele><time>2026-03-29T15:56:26.654Z</time></trkpt><trkpt lat="44.983105" lon="9.6847667"><ele>87.0</ele><time>2026-03-29T15:56:27.652Z</time></trkpt><trkpt lat="44.9830817" lon="9.6849383"><ele>87.0</ele><time>2026-03-29T15:56:28.652Z</time></trkpt><trkpt lat="44.9830567" lon="9.6851067"><ele>87.0</ele><time>2026-03-29T15:56:29.653Z</time></trkpt><trkpt lat="44.9830317" lon="9.6852717"><ele>87.0</ele><time>2026-03-29T15:56:30.653Z</time></trkpt><trkpt lat="44.9830067" lon="9.68544"><ele>87.0</ele><time>2026-03-29T15:56:31.654Z</time></trkpt><trkpt lat="44.9829817" lon="9.6856083"><ele>87.0</ele><time>2026-03-29T15:56:32.654Z</time></trkpt><trkpt lat="44.9829583" lon="9.6857717"><ele>87.0</ele><time>2026-03-29T15:56:33.654Z</time></trkpt><trkpt lat="44.98294" lon="9.68593"><ele>87.0</ele><time>2026-03-29T15:56:34.654Z</time></trkpt><trkpt lat="44.98292" lon="9.6860767"><ele>87.0</ele><time>2026-03-29T15:56:35.653Z</time></trkpt><trkpt lat="44.9828933" lon="9.686205"><ele>87.0</ele><time>2026-03-29T15:56:36.654Z</time></trkpt><trkpt lat="44.9828533" lon="9.6863133"><ele>87.0</ele><time>2026-03-29T15:56:37.655Z</time></trkpt><trkpt lat="44.9828067" lon="9.6864033"><ele>87.0</ele><time>2026-03-29T15:56:38.654Z</time></trkpt><trkpt lat="44.9827517" lon="9.6864967"><ele>87.0</ele><time>2026-03-29T15:56:39.654Z</time></trkpt><trkpt lat="44.9826967" lon="9.6866017"><ele>87.0</ele><time>2026-03-29T15:56:40.655Z</time></trkpt><trkpt lat="44.9826567" lon="9.686705"><ele>87.0</ele><time>2026-03-29T15:56:41.654Z</time></trkpt><trkpt lat="44.98264" lon="9.6868117"><ele>87.0</ele><time>2026-03-29T15:56:42.653Z</time></trkpt><trkpt lat="44.98265" lon="9.6869367"><ele>87.0</ele><time>2026-03-29T15:56:43.652Z</time></trkpt><trkpt lat="44.9826767" lon="9.6870683"><ele>86.8</ele><time>2026-03-29T15:56:44.653Z</time></trkpt><trkpt lat="44.9827" lon="9.6872067"><ele>86.6</ele><time>2026-03-29T15:56:45.653Z</time></trkpt><trkpt lat="44.982715" lon="9.6873517"><ele>86.39999999999999</ele><time>2026-03-29T15:56:46.654Z</time></trkpt><trkpt lat="44.9827233" lon="9.6875067"><ele>86.19999999999999</ele><time>2026-03-29T15:56:47.653Z</time></trkpt><trkpt lat="44.9827233" lon="9.687675"><ele>86.0</ele><time>2026-03-29T15:56:48.653Z</time></trkpt><trkpt lat="44.9827217" lon="9.6878517"><ele>86.0</ele><time>2026-03-29T15:56:49.653Z</time></trkpt><trkpt lat="44.9827183" lon="9.6880283"><ele>86.0</ele><time>2026-03-29T15:56:50.655Z</time></trkpt><trkpt lat="44.982715" lon="9.688205"><ele>86.0</ele><time>2026-03-29T15:56:51.653Z</time></trkpt><trkpt lat="44.9827067" lon="9.688385"><ele>86.0</ele><time>2026-03-29T15:56:52.654Z</time></trkpt><trkpt lat="44.9826883" lon="9.6885783"><ele>86.0</ele><time>2026-03-29T15:56:53.654Z</time></trkpt><trkpt lat="44.9826667" lon="9.68879"><ele>86.0</ele><time>2026-03-29T15:56:54.653Z</time></trkpt><trkpt lat="44.98265" lon="9.6890083"><ele>86.0</ele><time>2026-03-29T15:56:55.653Z</time></trkpt><trkpt lat="44.9826333" lon="9.6892333"><ele>85.66666666666667</ele><time>2026-03-29T15:56:56.655Z</time></trkpt><trkpt lat="44.9826133" lon="9.68946"><ele>85.33333333333333</ele><time>2026-03-29T15:56:57.653Z</time></trkpt><trkpt lat="44.982595" lon="9.6896867"><ele>85.0</ele><time>2026-03-29T15:56:58.653Z</time></trkpt><trkpt lat="44.982575" lon="9.68991"><ele>85.0</ele><time>2026-03-29T15:56:59.654Z</time></trkpt><trkpt lat="44.982555" lon="9.6901333"><ele>85.0</ele><time>2026-03-29T15:57:00.653Z</time></trkpt><trkpt lat="44.9825367" lon="9.6903567"><ele>85.0</ele><time>2026-03-29T15:57:01.654Z</time></trkpt><trkpt lat="44.982515" lon="9.690585"><ele>85.0</ele><time>2026-03-29T15:57:02.654Z</time></trkpt><trkpt lat="44.9824917" lon="9.6908117"><ele>85.0</ele><time>2026-03-29T15:57:03.653Z</time></trkpt><trkpt lat="44.9824717" lon="9.6910283"><ele>85.0</ele><time>2026-03-29T15:57:04.653Z</time></trkpt><trkpt lat="44.982455" lon="9.6912317"><ele>85.25</ele><time>2026-03-29T15:57:05.654Z</time></trkpt><trkpt lat="44.98244" lon="9.6914233"><ele>85.5</ele><time>2026-03-29T15:57:06.653Z</time></trkpt><trkpt lat="44.982425" lon="9.6916083"><ele>85.75</ele><time>2026-03-29T15:57:07.656Z</time></trkpt><trkpt lat="44.98241" lon="9.6917833"><ele>86.0</ele><time>2026-03-29T15:57:08.654Z</time></trkpt><trkpt lat="44.9823967" lon="9.6919533"><ele>86.0</ele><time>2026-03-29T15:57:09.653Z</time></trkpt><trkpt lat="44.982385" lon="9.6921117"><ele>86.0</ele><time>2026-03-29T15:57:10.653Z</time></trkpt><trkpt lat="44.9823733" lon="9.6922583"><ele>86.0</ele><time>2026-03-29T15:57:11.654Z</time></trkpt><trkpt lat="44.982365" lon="9.6924"><ele>86.0</ele><time>2026-03-29T15:57:12.653Z</time></trkpt><trkpt lat="44.9823517" lon="9.6925517"><ele>86.0</ele><time>2026-03-29T15:57:13.654Z</time></trkpt><trkpt lat="44.9823367" lon="9.6927183"><ele>86.19999999999999</ele><time>2026-03-29T15:57:14.654Z</time></trkpt><trkpt lat="44.98232" lon="9.6928883"><ele>86.39999999999999</ele><time>2026-03-29T15:57:15.652Z</time></trkpt><trkpt lat="44.982305" lon="9.6930517"><ele>86.6</ele><time>2026-03-29T15:57:16.652Z</time></trkpt><trkpt lat="44.982295" lon="9.6932067"><ele>86.8</ele><time>2026-03-29T15:57:17.654Z</time></trkpt><trkpt lat="44.9822833" lon="9.6933483"><ele>87.0</ele><time>2026-03-29T15:57:18.653Z</time></trkpt><trkpt lat="44.9822767" lon="9.69348"><ele>87.0</ele><time>2026-03-29T15:57:19.654Z</time></trkpt><trkpt lat="44.98227" lon="9.6936017"><ele>87.0</ele><time>2026-03-29T15:57:20.653Z</time></trkpt><trkpt lat="44.98226" lon="9.6937283"><ele>87.0</ele><time>2026-03-29T15:57:21.653Z</time></trkpt><trkpt lat="44.982255" lon="9.693875"><ele>87.0</ele><time>2026-03-29T15:57:22.653Z</time></trkpt><trkpt lat="44.9822467" lon="9.6940367"><ele>87.0</ele><time>2026-03-29T15:57:23.653Z</time></trkpt><trkpt lat="44.9822417" lon="9.6941983"><ele>87.0</ele><time>2026-03-29T15:57:24.653Z</time></trkpt><trkpt lat="44.9822333" lon="9.694355"><ele>87.0</ele><time>2026-03-29T15:57:25.652Z</time></trkpt><trkpt lat="44.9822233" lon="9.6945117"><ele>87.0</ele><time>2026-03-29T15:57:26.653Z</time></trkpt><trkpt lat="44.9822117" lon="9.694665"><ele>87.0</ele><time>2026-03-29T15:57:27.652Z</time></trkpt><trkpt lat="44.9822" lon="9.69481"><ele>87.0</ele><time>2026-03-29T15:57:28.653Z</time></trkpt><trkpt lat="44.9821917" lon="9.6949467"><ele>86.8</ele><time>2026-03-29T15:57:29.653Z</time></trkpt><trkpt lat="44.982185" lon="9.6950733"><ele>86.6</ele><time>2026-03-29T15:57:30.652Z</time></trkpt><trkpt lat="44.9821783" lon="9.6952"><ele>86.39999999999999</ele><time>2026-03-29T15:57:31.653Z</time></trkpt><trkpt lat="44.9821667" lon="9.6953383"><ele>86.19999999999999</ele><time>2026-03-29T15:57:32.654Z</time></trkpt><trkpt lat="44.9821567" lon="9.6954967"><ele>86.0</ele><time>2026-03-29T15:57:33.654Z</time></trkpt><trkpt lat="44.98215" lon="9.695665"><ele>86.0</ele><time>2026-03-29T15:57:34.652Z</time></trkpt><trkpt lat="44.9821433" lon="9.695835"><ele>86.0</ele><time>2026-03-29T15:57:35.652Z</time></trkpt><trkpt lat="44.982135" lon="9.696005"><ele>86.0</ele><time>2026-03-29T15:57:36.653Z</time></trkpt><trkpt lat="44.982125" lon="9.69618"><ele>86.0</ele><time>2026-03-29T15:57:37.655Z</time></trkpt><trkpt lat="44.9821133" lon="9.696365"><ele>86.0</ele><time>2026-03-29T15:57:38.653Z</time></trkpt><trkpt lat="44.9821033" lon="9.6965517"><ele>86.0</ele><time>2026-03-29T15:57:39.652Z</time></trkpt><trkpt lat="44.98209" lon="9.6967417"><ele>86.0</ele><time>2026-03-29T15:57:40.654Z</time></trkpt><trkpt lat="44.9820783" lon="9.6969367"><ele>86.0</ele><time>2026-03-29T15:57:41.654Z</time></trkpt><trkpt lat="44.982075" lon="9.697135"><ele>86.75</ele><time>2026-03-29T15:57:42.653Z</time></trkpt><trkpt lat="44.98207" lon="9.69734"><ele>87.5</ele><time>2026-03-29T15:57:43.654Z</time></trkpt><trkpt lat="44.9820667" lon="9.6975467"><ele>88.25</ele><time>2026-03-29T15:57:44.654Z</time></trkpt><trkpt lat="44.9820633" lon="9.69776"><ele>89.0</ele><time>2026-03-29T15:57:45.654Z</time></trkpt><trkpt lat="44.9820583" lon="9.697965"><ele>89.0</ele><time>2026-03-29T15:57:46.654Z</time></trkpt><trkpt lat="44.9820567" lon="9.698155"><ele>89.0</ele><time>2026-03-29T15:57:47.654Z</time></trkpt><trkpt lat="44.9820533" lon="9.6983333"><ele>89.0</ele><time>2026-03-29T15:57:48.654Z</time></trkpt><trkpt lat="44.9820517" lon="9.6985"><ele>89.0</ele><time>2026-03-29T15:57:49.654Z</time></trkpt><trkpt lat="44.9820517" lon="9.69866"><ele>88.6</ele><time>2026-03-29T15:57:50.653Z</time></trkpt><trkpt lat="44.982055" lon="9.698815"><ele>88.2</ele><time>2026-03-29T15:57:51.654Z</time></trkpt><trkpt lat="44.9820533" lon="9.6989633"><ele>87.8</ele><time>2026-03-29T15:57:52.654Z</time></trkpt><trkpt lat="44.9820533" lon="9.6991217"><ele>87.39999999999999</ele><time>2026-03-29T15:57:53.652Z</time></trkpt><trkpt lat="44.982055" lon="9.699295"><ele>87.0</ele><time>2026-03-29T15:57:54.652Z</time></trkpt><trkpt lat="44.982055" lon="9.6994917"><ele>87.0</ele><time>2026-03-29T15:57:55.653Z</time></trkpt><trkpt lat="44.9820583" lon="9.69971"><ele>87.0</ele><time>2026-03-29T15:57:56.654Z</time></trkpt><trkpt lat="44.98206" lon="9.69994"><ele>87.0</ele><time>2026-03-29T15:57:57.653Z</time></trkpt><trkpt lat="44.9820617" lon="9.7001883"><ele>86.66666666666667</ele><time>2026-03-29T15:57:58.652Z</time></trkpt><trkpt lat="44.9820583" lon="9.7004517"><ele>86.33333333333334</ele><time>2026-03-29T15:57:59.653Z</time></trkpt><trkpt lat="44.9820583" lon="9.7007267"><ele>86.0</ele><time>2026-03-29T15:58:00.652Z</time></trkpt><trkpt lat="44.9820583" lon="9.7010083"><ele>85.66666666666667</ele><time>2026-03-29T15:58:01.654Z</time></trkpt><trkpt lat="44.9820583" lon="9.7012967"><ele>85.33333333333333</ele><time>2026-03-29T15:58:02.654Z</time></trkpt><trkpt lat="44.98206" lon="9.7015867"><ele>85.0</ele><time>2026-03-29T15:58:03.653Z</time></trkpt><trkpt lat="44.9820617" lon="9.701875"><ele>85.0</ele><time>2026-03-29T15:58:04.652Z</time></trkpt><trkpt lat="44.9820633" lon="9.7021617"><ele>85.0</ele><time>2026-03-29T15:58:05.653Z</time></trkpt><trkpt lat="44.9820633" lon="9.7024483"><ele>85.0</ele><time>2026-03-29T15:58:06.652Z</time></trkpt><trkpt lat="44.982065" lon="9.7027367"><ele>85.0</ele><time>2026-03-29T15:58:07.654Z</time></trkpt><trkpt lat="44.9820667" lon="9.7030233"><ele>85.0</ele><time>2026-03-29T15:58:08.653Z</time></trkpt><trkpt lat="44.9820667" lon="9.7033067"><ele>85.0</ele><time>2026-03-29T15:58:09.653Z</time></trkpt><trkpt lat="44.98207" lon="9.7035833"><ele>85.0</ele><time>2026-03-29T15:58:10.653Z</time></trkpt><trkpt lat="44.9820733" lon="9.7038533"><ele>85.0</ele><time>2026-03-29T15:58:11.654Z</time></trkpt><trkpt lat="44.9820817" lon="9.70412"><ele>85.0</ele><time>2026-03-29T15:58:12.652Z</time></trkpt><trkpt lat="44.982095" lon="9.704385"><ele>85.0</ele><time>2026-03-29T15:58:13.653Z</time></trkpt><trkpt lat="44.98212" lon="9.70465"><ele>85.0</ele><time>2026-03-29T15:58:14.653Z</time></trkpt><trkpt lat="44.9821567" lon="9.704915"><ele>85.0</ele><time>2026-03-29T15:58:15.653Z</time></trkpt><trkpt lat="44.9822" lon="9.7051833"><ele>85.33333333333333</ele><time>2026-03-29T15:58:16.653Z</time></trkpt><trkpt lat="44.98225" lon="9.705455"><ele>85.66666666666667</ele><time>2026-03-29T15:58:17.653Z</time></trkpt><trkpt lat="44.9823033" lon="9.7057283"><ele>86.0</ele><time>2026-03-29T15:58:18.654Z</time></trkpt><trkpt lat="44.9823567" lon="9.7060033"><ele>86.0</ele><time>2026-03-29T15:58:19.653Z</time></trkpt><trkpt lat="44.9824117" lon="9.70628"><ele>86.0</ele><time>2026-03-29T15:58:20.654Z</time></trkpt><trkpt lat="44.9824683" lon="9.7065583"><ele>86.0</ele><time>2026-03-29T15:58:21.654Z</time></trkpt><trkpt lat="44.982525" lon="9.7068383"><ele>86.33333333333334</ele><time>2026-03-29T15:58:22.653Z</time></trkpt><trkpt lat="44.9825817" lon="9.7071217"><ele>86.66666666666667</ele><time>2026-03-29T15:58:23.653Z</time></trkpt><trkpt lat="44.9826383" lon="9.7074067"><ele>87.0</ele><time>2026-03-29T15:58:24.653Z</time></trkpt><trkpt lat="44.982695" lon="9.7076933"><ele>86.66666666666667</ele><time>2026-03-29T15:58:25.654Z</time></trkpt><trkpt lat="44.98275" lon="9.7079783"><ele>86.33333333333334</ele><time>2026-03-29T15:58:26.654Z</time></trkpt><trkpt lat="44.9828067" lon="9.7082633"><ele>86.0</ele><time>2026-03-29T15:58:27.653Z</time></trkpt><trkpt lat="44.98286" lon="9.7085467"><ele>85.66666666666667</ele><time>2026-03-29T15:58:28.655Z</time></trkpt><trkpt lat="44.9829167" lon="9.70883"><ele>85.33333333333333</ele><time>2026-03-29T15:58:29.653Z</time></trkpt><trkpt lat="44.982975" lon="9.709115"><ele>85.0</ele><time>2026-03-29T15:58:30.653Z</time></trkpt><trkpt lat="44.9830317" lon="9.7094017"><ele>85.0</ele><time>2026-03-29T15:58:31.653Z</time></trkpt><trkpt lat="44.9830883" lon="9.7096933"><ele>85.0</ele><time>2026-03-29T15:58:32.654Z</time></trkpt><trkpt lat="44.983145" lon="9.7099883"><ele>85.0</ele><time>2026-03-29T15:58:33.652Z</time></trkpt><trkpt lat="44.9832017" lon="9.7102867"><ele>85.0</ele><time>2026-03-29T15:58:34.653Z</time></trkpt><trkpt lat="44.9832567" lon="9.710585"><ele>85.0</ele><time>2026-03-29T15:58:35.654Z</time></trkpt><trkpt lat="44.9833133" lon="9.71088"><ele>85.0</ele><time>2026-03-29T15:58:36.653Z</time></trkpt><trkpt lat="44.9833767" lon="9.71118"><ele>84.33333333333333</ele><time>2026-03-29T15:58:37.653Z</time></trkpt><trkpt lat="44.9834367" lon="9.7114783"><ele>83.66666666666667</ele><time>2026-03-29T15:58:38.654Z</time></trkpt><trkpt lat="44.98349" lon="9.711775"><ele>83.0</ele><time>2026-03-29T15:58:39.653Z</time></trkpt><trkpt lat="44.9835467" lon="9.71207"><ele>83.0</ele><time>2026-03-29T15:58:40.654Z</time></trkpt><trkpt lat="44.9836067" lon="9.7123633"><ele>83.0</ele><time>2026-03-29T15:58:41.654Z</time></trkpt><trkpt lat="44.9836633" lon="9.712655"><ele>83.0</ele><time>2026-03-29T15:58:42.654Z</time></trkpt><trkpt lat="44.9837217" lon="9.7129433"><ele>83.0</ele><time>2026-03-29T15:58:43.654Z</time></trkpt><trkpt lat="44.9837767" lon="9.7132267"><ele>83.0</ele><time>2026-03-29T15:58:44.654Z</time></trkpt><trkpt lat="44.9838333" lon="9.7135"><ele>83.0</ele><time>2026-03-29T15:58:45.653Z</time></trkpt><trkpt lat="44.983885" lon="9.7137683"><ele>83.0</ele><time>2026-03-29T15:58:46.654Z</time></trkpt><trkpt lat="44.98393" lon="9.71403"><ele>83.0</ele><time>2026-03-29T15:58:47.653Z</time></trkpt><trkpt lat="44.98396" lon="9.7142967"><ele>83.0</ele><time>2026-03-29T15:58:48.655Z</time></trkpt><trkpt lat="44.9839717" lon="9.7145667"><ele>83.0</ele><time>2026-03-29T15:58:49.653Z</time></trkpt><trkpt lat="44.9839667" lon="9.7148367"><ele>83.0</ele><time>2026-03-29T15:58:50.653Z</time></trkpt><trkpt lat="44.983945" lon="9.7151133"><ele>83.0</ele><time>2026-03-29T15:58:51.653Z</time></trkpt><trkpt lat="44.9839167" lon="9.7154017"><ele>83.0</ele><time>2026-03-29T15:58:52.654Z</time></trkpt><trkpt lat="44.98388" lon="9.7157"><ele>83.0</ele><time>2026-03-29T15:58:53.654Z</time></trkpt><trkpt lat="44.98384" lon="9.716005"><ele>83.0</ele><time>2026-03-29T15:58:54.653Z</time></trkpt><trkpt lat="44.9838" lon="9.7163167"><ele>83.0</ele><time>2026-03-29T15:58:55.653Z</time></trkpt><trkpt lat="44.98376" lon="9.7166283"><ele>83.0</ele><time>2026-03-29T15:58:56.653Z</time></trkpt><trkpt lat="44.9837217" lon="9.7169433"><ele>82.0</ele><time>2026-03-29T15:58:57.653Z</time></trkpt><trkpt lat="44.9836817" lon="9.7172583"><ele>81.0</ele><time>2026-03-29T15:58:58.654Z</time></trkpt><trkpt lat="44.9836417" lon="9.717575"><ele>81.0</ele><time>2026-03-29T15:58:59.653Z</time></trkpt><trkpt lat="44.9836017" lon="9.7178917"><ele>81.0</ele><time>2026-03-29T15:59:00.653Z</time></trkpt><trkpt lat="44.9835617" lon="9.7182067"><ele>81.0</ele><time>2026-03-29T15:59:01.655Z</time></trkpt><trkpt lat="44.9835233" lon="9.718515"><ele>81.0</ele><time>2026-03-29T15:59:02.654Z</time></trkpt><trkpt lat="44.9834833" lon="9.7188233"><ele>81.0</ele><time>2026-03-29T15:59:03.653Z</time></trkpt><trkpt lat="44.9834467" lon="9.719125"><ele>81.66666666666667</ele><time>2026-03-29T15:59:04.652Z</time></trkpt><trkpt lat="44.98341" lon="9.7194261"><ele>82.33333333333334</ele><time>2026-03-29T15:59:05.654Z</time></trkpt><trkpt lat="44.9833743" lon="9.719723"><ele>83.0</ele><time>2026-03-29T15:59:06.654Z</time></trkpt><trkpt lat="44.9833392" lon="9.7200137"><ele>83.66666666666667</ele><time>2026-03-29T15:59:07.655Z</time></trkpt><trkpt lat="44.9833032" lon="9.7203001"><ele>84.33333333333333</ele><time>2026-03-29T15:59:08.654Z</time></trkpt><trkpt lat="44.9832659" lon="9.7205842"><ele>85.0</ele><time>2026-03-29T15:59:09.654Z</time></trkpt><trkpt lat="44.983229" lon="9.7208673"><ele>85.66666666666666</ele><time>2026-03-29T15:59:10.654Z</time></trkpt><trkpt lat="44.9831922" lon="9.7211533"><ele>86.33333333333333</ele><time>2026-03-29T15:59:11.653Z</time></trkpt><trkpt lat="44.9831532" lon="9.7214385"><ele>87.0</ele><time>2026-03-29T15:59:12.653Z</time></trkpt><trkpt lat="44.9831136" lon="9.7217221"><ele>86.66666666666667</ele><time>2026-03-29T15:59:13.654Z</time></trkpt><trkpt lat="44.9830761" lon="9.7220052"><ele>86.33333333333334</ele><time>2026-03-29T15:59:14.654Z</time></trkpt><trkpt lat="44.9830415" lon="9.7222878"><ele>86.0</ele><time>2026-03-29T15:59:15.653Z</time></trkpt><trkpt lat="44.9830076" lon="9.7225731"><ele>85.66666666666667</ele><time>2026-03-29T15:59:16.654Z</time></trkpt><trkpt lat="44.9829718" lon="9.7228547"><ele>85.33333333333333</ele><time>2026-03-29T15:59:17.654Z</time></trkpt><trkpt lat="44.9829344" lon="9.7231354"><ele>85.0</ele><time>2026-03-29T15:59:18.653Z</time></trkpt><trkpt lat="44.9828986" lon="9.7234175"><ele>85.0</ele><time>2026-03-29T15:59:19.654Z</time></trkpt><trkpt lat="44.9828655" lon="9.723702"><ele>85.0</ele><time>2026-03-29T15:59:20.654Z</time></trkpt><trkpt lat="44.9828322" lon="9.7239874"><ele>85.0</ele><time>2026-03-29T15:59:21.654Z</time></trkpt><trkpt lat="44.9827979" lon="9.7242694"><ele>84.66666666666666</ele><time>2026-03-29T15:59:22.654Z</time></trkpt><trkpt lat="44.9827643" lon="9.7245503"><ele>84.33333333333333</ele><time>2026-03-29T15:59:23.653Z</time></trkpt><trkpt lat="44.9827308" lon="9.7248311"><ele>84.0</ele><time>2026-03-29T15:59:24.652Z</time></trkpt><trkpt lat="44.9826975" lon="9.7251109"><ele>84.33333333333333</ele><time>2026-03-29T15:59:25.654Z</time></trkpt><trkpt lat="44.9826665" lon="9.7253897"><ele>84.66666666666666</ele><time>2026-03-29T15:59:26.655Z</time></trkpt><trkpt lat="44.9826339" lon="9.7256666"><ele>85.0</ele><time>2026-03-29T15:59:27.653Z</time></trkpt><trkpt lat="44.9825984" lon="9.7259454"><ele>85.0</ele><time>2026-03-29T15:59:28.653Z</time></trkpt><trkpt lat="44.9825633" lon="9.7262259"><ele>85.0</ele><time>2026-03-29T15:59:29.654Z</time></trkpt><trkpt lat="44.9825282" lon="9.7265092"><ele>85.0</ele><time>2026-03-29T15:59:30.654Z</time></trkpt><trkpt lat="44.9824943" lon="9.7267881"><ele>85.0</ele><time>2026-03-29T15:59:31.654Z</time></trkpt><trkpt lat="44.9824621" lon="9.7270621"><ele>85.0</ele><time>2026-03-29T15:59:32.654Z</time></trkpt><trkpt lat="44.9824283" lon="9.7273302"><ele>85.0</ele><time>2026-03-29T15:59:33.654Z</time></trkpt><trkpt lat="44.982395" lon="9.7275933"><ele>85.0</ele><time>2026-03-29T15:59:34.654Z</time></trkpt><trkpt lat="44.982363" lon="9.7278504"><ele>85.0</ele><time>2026-03-29T15:59:35.653Z</time></trkpt><trkpt lat="44.9823328" lon="9.7280957"><ele>85.0</ele><time>2026-03-29T15:59:36.653Z</time></trkpt><trkpt lat="44.9823044" lon="9.7283303"><ele>85.0</ele><time>2026-03-29T15:59:37.654Z</time></trkpt><trkpt lat="44.9822781" lon="9.728557"><ele>85.0</ele><time>2026-03-29T15:59:38.654Z</time></trkpt><trkpt lat="44.9822488" lon="9.7287778"><ele>85.0</ele><time>2026-03-29T15:59:39.654Z</time></trkpt><trkpt lat="44.9822212" lon="9.7289915"><ele>84.75</ele><time>2026-03-29T15:59:40.653Z</time></trkpt><trkpt lat="44.982197" lon="9.7291935"><ele>84.5</ele><time>2026-03-29T15:59:41.654Z</time></trkpt><trkpt lat="44.9821727" lon="9.7293861"><ele>84.25</ele><time>2026-03-29T15:59:42.653Z</time></trkpt><trkpt lat="44.9821505" lon="9.7295671"><ele>84.0</ele><time>2026-03-29T15:59:43.653Z</time></trkpt><trkpt lat="44.9821316" lon="9.7297285"><ele>81.0</ele><time>2026-03-29T15:59:44.653Z</time></trkpt><trkpt lat="44.9821183" lon="9.7298621"><ele>81.0</ele><time>2026-03-29T15:59:45.654Z</time></trkpt><trkpt lat="44.9821076" lon="9.7299662"><ele>81.0</ele><time>2026-03-29T15:59:46.655Z</time></trkpt><trkpt lat="44.9820725" lon="9.7300759"><ele>81.0</ele><time>2026-03-29T15:59:48.653Z</time></trkpt><trkpt lat="44.9820023" lon="9.7300858"><ele>81.0</ele><time>2026-03-29T15:59:50.654Z</time></trkpt><trkpt lat="44.9819183" lon="9.7300567"><ele>81.0</ele><time>2026-03-29T15:59:52.655Z</time></trkpt></trkseg></trk></gpx>